<?xml version='1.0' encoding='UTF-8'?><gpx version="1.1" creator="JPX - https://github.com/jenetics/jpx" xmlns="http://www.topografix.com/GPX/1/1"><trk><trkseg><trkpt lat="44.1730312" lon="11.3388032"><ele>961.0</ele><time>2026-04-12T08:49:54.996Z</time></trkpt><trkpt lat="44.1728747" lon="11.3386465"><ele>960.9999999999999</ele><time>2026-04-12T08:50:10.913Z</time></trkpt><trkpt lat="44.1728332" lon="11.3385682"><ele>960.9999999999999</ele><time>2026-04-12T08:50:11.913Z</time></trkpt><trkpt lat="44.1727971" lon="11.3384898"><ele>961.0</ele><time>2026-04-12T08:50:13.914Z</time></trkpt><trkpt lat="44.1727588" lon="11.3384044"><ele>961.0</ele><time>2026-04-12T08:50:28.913Z</time></trkpt><trkpt lat="44.1726692" lon="11.338265"><ele>961.0</ele><time>2026-04-12T08:50:30.914Z</time></trkpt><trkpt lat="44.1726054" lon="11.3381425"><ele>961.0</ele><time>2026-04-12T08:50:31.914Z</time></trkpt><trkpt lat="44.1725391" lon="11.3379821"><ele>961.0</ele><time>2026-04-12T08:50:32.914Z</time></trkpt><trkpt lat="44.1724687" lon="11.3377982"><ele>961.0</ele><time>2026-04-12T08:50:33.913Z</time></trkpt><trkpt lat="44.1723962" lon="11.3376153"><ele>955.25</ele><time>2026-04-12T08:50:34.913Z</time></trkpt><trkpt lat="44.1723328" lon="11.3374525"><ele>949.5</ele><time>2026-04-12T08:50:35.914Z</time></trkpt><trkpt lat="44.1722773" lon="11.3372995"><ele>943.75</ele><time>2026-04-12T08:50:36.913Z</time></trkpt><trkpt lat="44.1722588" lon="11.3371569"><ele>938.0</ele><time>2026-04-12T08:50:37.913Z</time></trkpt><trkpt lat="44.1722556" lon="11.3370278"><ele>938.0</ele><time>2026-04-12T08:50:38.914Z</time></trkpt><trkpt lat="44.1722525" lon="11.3369029"><ele>938.0</ele><time>2026-04-12T08:50:39.914Z</time></trkpt><trkpt lat="44.1722396" lon="11.3367736"><ele>938.0</ele><time>2026-04-12T08:50:40.914Z</time></trkpt><trkpt lat="44.1722131" lon="11.3366328"><ele>938.0</ele><time>2026-04-12T08:50:41.914Z</time></trkpt><trkpt lat="44.1721741" lon="11.3364888"><ele>938.0</ele><time>2026-04-12T08:50:42.914Z</time></trkpt><trkpt lat="44.1721254" lon="11.3363442"><ele>938.5</ele><time>2026-04-12T08:50:43.914Z</time></trkpt><trkpt lat="44.1720683" lon="11.336205"><ele>939.0</ele><time>2026-04-12T08:50:44.915Z</time></trkpt><trkpt lat="44.1720053" lon="11.3360676"><ele>939.5</ele><time>2026-04-12T08:50:45.914Z</time></trkpt><trkpt lat="44.1719439" lon="11.3359262"><ele>940.0</ele><time>2026-04-12T08:50:46.914Z</time></trkpt><trkpt lat="44.1718839" lon="11.3357787"><ele>940.0</ele><time>2026-04-12T08:50:47.914Z</time></trkpt><trkpt lat="44.1718238" lon="11.3356317"><ele>940.0</ele><time>2026-04-12T08:50:48.915Z</time></trkpt><trkpt lat="44.1717652" lon="11.3354892"><ele>940.0</ele><time>2026-04-12T08:50:49.914Z</time></trkpt><trkpt lat="44.1717069" lon="11.3353522"><ele>940.0</ele><time>2026-04-12T08:50:50.914Z</time></trkpt><trkpt lat="44.1716476" lon="11.3352204"><ele>940.25</ele><time>2026-04-12T08:50:51.915Z</time></trkpt><trkpt lat="44.1715844" lon="11.3350923"><ele>940.5</ele><time>2026-04-12T08:50:52.915Z</time></trkpt><trkpt lat="44.1715158" lon="11.3349632"><ele>940.75</ele><time>2026-04-12T08:50:53.914Z</time></trkpt><trkpt lat="44.1714418" lon="11.3348344"><ele>941.0</ele><time>2026-04-12T08:50:54.915Z</time></trkpt><trkpt lat="44.1713636" lon="11.3347052"><ele>937.0</ele><time>2026-04-12T08:50:55.915Z</time></trkpt><trkpt lat="44.1712851" lon="11.3345763"><ele>933.0</ele><time>2026-04-12T08:50:56.915Z</time></trkpt><trkpt lat="44.1712069" lon="11.3344484"><ele>929.0</ele><time>2026-04-12T08:50:57.914Z</time></trkpt><trkpt lat="44.1711308" lon="11.3343242"><ele>925.0</ele><time>2026-04-12T08:50:58.915Z</time></trkpt><trkpt lat="44.1710579" lon="11.3341929"><ele>925.0</ele><time>2026-04-12T08:50:59.914Z</time></trkpt><trkpt lat="44.1709915" lon="11.3340385"><ele>925.0</ele><time>2026-04-12T08:51:00.914Z</time></trkpt><trkpt lat="44.1709436" lon="11.3338628"><ele>925.0</ele><time>2026-04-12T08:51:01.914Z</time></trkpt><trkpt lat="44.1709119" lon="11.3336731"><ele>925.0</ele><time>2026-04-12T08:51:02.914Z</time></trkpt><trkpt lat="44.1708869" lon="11.3334817"><ele>925.25</ele><time>2026-04-12T08:51:03.914Z</time></trkpt><trkpt lat="44.1708609" lon="11.333301"><ele>925.5</ele><time>2026-04-12T08:51:04.914Z</time></trkpt><trkpt lat="44.1708289" lon="11.3331363"><ele>925.75</ele><time>2026-04-12T08:51:05.915Z</time></trkpt><trkpt lat="44.1707913" lon="11.332987"><ele>926.0</ele><time>2026-04-12T08:51:06.914Z</time></trkpt><trkpt lat="44.1707511" lon="11.332852"><ele>925.8</ele><time>2026-04-12T08:51:07.914Z</time></trkpt><trkpt lat="44.1707043" lon="11.3327317"><ele>925.5999999999999</ele><time>2026-04-12T08:51:08.915Z</time></trkpt><trkpt lat="44.1706451" lon="11.332629"><ele>925.4</ele><time>2026-04-12T08:51:09.915Z</time></trkpt><trkpt lat="44.1705678" lon="11.3325543"><ele>925.2</ele><time>2026-04-12T08:51:10.915Z</time></trkpt><trkpt lat="44.1704726" lon="11.3325171"><ele>925.0</ele><time>2026-04-12T08:51:11.914Z</time></trkpt><trkpt lat="44.1703674" lon="11.3324929"><ele>925.0</ele><time>2026-04-12T08:51:12.914Z</time></trkpt><trkpt lat="44.1702141" lon="11.3325301"><ele>925.0</ele><time>2026-04-12T08:51:13.914Z</time></trkpt><trkpt lat="44.170038" lon="11.332593"><ele>925.0</ele><time>2026-04-12T08:51:14.914Z</time></trkpt><trkpt lat="44.1698736" lon="11.3326612"><ele>922.6666666666666</ele><time>2026-04-12T08:51:15.914Z</time></trkpt><trkpt lat="44.169721" lon="11.3327278"><ele>920.3333333333333</ele><time>2026-04-12T08:51:16.915Z</time></trkpt><trkpt lat="44.1695772" lon="11.3327898"><ele>918.0</ele><time>2026-04-12T08:51:17.914Z</time></trkpt><trkpt lat="44.1694406" lon="11.3328416"><ele>918.0</ele><time>2026-04-12T08:51:18.914Z</time></trkpt><trkpt lat="44.1693085" lon="11.3328716"><ele>918.0</ele><time>2026-04-12T08:51:19.914Z</time></trkpt><trkpt lat="44.1691781" lon="11.332874"><ele>918.0</ele><time>2026-04-12T08:51:20.914Z</time></trkpt><trkpt lat="44.1690468" lon="11.3328516"><ele>918.0</ele><time>2026-04-12T08:51:21.914Z</time></trkpt><trkpt lat="44.1689142" lon="11.3328144"><ele>915.25</ele><time>2026-04-12T08:51:22.914Z</time></trkpt><trkpt lat="44.1687801" lon="11.3327723"><ele>912.5</ele><time>2026-04-12T08:51:23.914Z</time></trkpt><trkpt lat="44.1686474" lon="11.3327313"><ele>909.75</ele><time>2026-04-12T08:51:24.914Z</time></trkpt><trkpt lat="44.1685204" lon="11.3326907"><ele>907.0</ele><time>2026-04-12T08:51:25.914Z</time></trkpt><trkpt lat="44.1684015" lon="11.3326488"><ele>907.0</ele><time>2026-04-12T08:51:26.914Z</time></trkpt><trkpt lat="44.1682857" lon="11.3326087"><ele>907.0</ele><time>2026-04-12T08:51:27.914Z</time></trkpt><trkpt lat="44.1681757" lon="11.332571"><ele>907.0</ele><time>2026-04-12T08:51:28.915Z</time></trkpt><trkpt lat="44.1680739" lon="11.3325305"><ele>907.0</ele><time>2026-04-12T08:51:29.914Z</time></trkpt><trkpt lat="44.1679743" lon="11.3324936"><ele>907.0</ele><time>2026-04-12T08:51:30.915Z</time></trkpt><trkpt lat="44.1678761" lon="11.3324777"><ele>903.0</ele><time>2026-04-12T08:51:31.914Z</time></trkpt><trkpt lat="44.1677781" lon="11.3325003"><ele>899.0</ele><time>2026-04-12T08:51:32.914Z</time></trkpt><trkpt lat="44.167684" lon="11.3325779"><ele>895.0</ele><time>2026-04-12T08:51:33.914Z</time></trkpt><trkpt lat="44.1675908" lon="11.3327102"><ele>891.0</ele><time>2026-04-12T08:51:34.915Z</time></trkpt><trkpt lat="44.1674871" lon="11.3328756"><ele>891.0</ele><time>2026-04-12T08:51:35.914Z</time></trkpt><trkpt lat="44.1673844" lon="11.3330332"><ele>891.0</ele><time>2026-04-12T08:51:36.915Z</time></trkpt><trkpt lat="44.1672915" lon="11.3331667"><ele>891.0</ele><time>2026-04-12T08:51:37.914Z</time></trkpt><trkpt lat="44.1672167" lon="11.3332883"><ele>891.0</ele><time>2026-04-12T08:51:38.915Z</time></trkpt><trkpt lat="44.1671521" lon="11.3334066"><ele>888.5</ele><time>2026-04-12T08:51:39.914Z</time></trkpt><trkpt lat="44.1671388" lon="11.333549"><ele>886.0</ele><time>2026-04-12T08:51:40.914Z</time></trkpt><trkpt lat="44.1671608" lon="11.3337001"><ele>883.5</ele><time>2026-04-12T08:51:41.914Z</time></trkpt><trkpt lat="44.1672128" lon="11.333849"><ele>881.0</ele><time>2026-04-12T08:51:42.914Z</time></trkpt><trkpt lat="44.1672727" lon="11.3339982"><ele>880.8</ele><time>2026-04-12T08:51:43.914Z</time></trkpt><trkpt lat="44.1673443" lon="11.3341364"><ele>880.5999999999999</ele><time>2026-04-12T08:51:44.914Z</time></trkpt><trkpt lat="44.1674106" lon="11.3342689"><ele>880.4</ele><time>2026-04-12T08:51:45.915Z</time></trkpt><trkpt lat="44.1674597" lon="11.33438"><ele>880.2</ele><time>2026-04-12T08:51:46.914Z</time></trkpt><trkpt lat="44.1674844" lon="11.3344909"><ele>880.0</ele><time>2026-04-12T08:51:47.914Z</time></trkpt><trkpt lat="44.1674815" lon="11.3346028"><ele>880.0</ele><time>2026-04-12T08:51:48.914Z</time></trkpt><trkpt lat="44.1674696" lon="11.3347125"><ele>880.0</ele><time>2026-04-12T08:51:49.914Z</time></trkpt><trkpt lat="44.1673945" lon="11.3348225"><ele>880.0</ele><time>2026-04-12T08:51:50.914Z</time></trkpt><trkpt lat="44.1672884" lon="11.3349296"><ele>880.0</ele><time>2026-04-12T08:51:51.914Z</time></trkpt><trkpt lat="44.1671756" lon="11.335038"><ele>877.0</ele><time>2026-04-12T08:51:52.914Z</time></trkpt><trkpt lat="44.1670479" lon="11.3351456"><ele>874.0</ele><time>2026-04-12T08:51:53.914Z</time></trkpt><trkpt lat="44.166924" lon="11.3352537"><ele>871.0</ele><time>2026-04-12T08:51:54.914Z</time></trkpt><trkpt lat="44.1668041" lon="11.3353551"><ele>868.0</ele><time>2026-04-12T08:51:55.914Z</time></trkpt><trkpt lat="44.166689" lon="11.3354534"><ele>868.0</ele><time>2026-04-12T08:51:56.915Z</time></trkpt><trkpt lat="44.1665762" lon="11.3355523"><ele>868.0</ele><time>2026-04-12T08:51:57.914Z</time></trkpt><trkpt lat="44.1664709" lon="11.3356488"><ele>868.0</ele><time>2026-04-12T08:51:58.914Z</time></trkpt><trkpt lat="44.1663672" lon="11.3357407"><ele>868.0</ele><time>2026-04-12T08:51:59.914Z</time></trkpt><trkpt lat="44.1662674" lon="11.3358218"><ele>866.8</ele><time>2026-04-12T08:52:00.914Z</time></trkpt><trkpt lat="44.1661688" lon="11.3358996"><ele>865.5999999999999</ele><time>2026-04-12T08:52:01.914Z</time></trkpt><trkpt lat="44.1660726" lon="11.3359746"><ele>864.4000000000001</ele><time>2026-04-12T08:52:02.914Z</time></trkpt><trkpt lat="44.1659723" lon="11.3360497"><ele>863.2</ele><time>2026-04-12T08:52:03.914Z</time></trkpt><trkpt lat="44.1658748" lon="11.336109"><ele>862.0</ele><time>2026-04-12T08:52:04.914Z</time></trkpt><trkpt lat="44.1657749" lon="11.3361532"><ele>860.3333333333333</ele><time>2026-04-12T08:52:05.914Z</time></trkpt><trkpt lat="44.1656841" lon="11.3361731"><ele>858.6666666666666</ele><time>2026-04-12T08:52:06.914Z</time></trkpt><trkpt lat="44.1656002" lon="11.3361626"><ele>857.0</ele><time>2026-04-12T08:52:07.914Z</time></trkpt><trkpt lat="44.1655318" lon="11.3361208"><ele>855.3333333333333</ele><time>2026-04-12T08:52:08.915Z</time></trkpt><trkpt lat="44.1654866" lon="11.336047"><ele>853.6666666666666</ele><time>2026-04-12T08:52:09.914Z</time></trkpt><trkpt lat="44.1654617" lon="11.3359292"><ele>852.0</ele><time>2026-04-12T08:52:10.915Z</time></trkpt><trkpt lat="44.1654385" lon="11.3357958"><ele>852.0</ele><time>2026-04-12T08:52:11.915Z</time></trkpt><trkpt lat="44.1654199" lon="11.3355964"><ele>852.0</ele><time>2026-04-12T08:52:12.914Z</time></trkpt><trkpt lat="44.1654044" lon="11.3353993"><ele>852.0</ele><time>2026-04-12T08:52:13.914Z</time></trkpt><trkpt lat="44.1653771" lon="11.3352155"><ele>852.0</ele><time>2026-04-12T08:52:14.915Z</time></trkpt><trkpt lat="44.1653293" lon="11.3350494"><ele>851.75</ele><time>2026-04-12T08:52:15.914Z</time></trkpt><trkpt lat="44.1652569" lon="11.3348947"><ele>851.5</ele><time>2026-04-12T08:52:16.914Z</time></trkpt><trkpt lat="44.1651741" lon="11.3347521"><ele>851.25</ele><time>2026-04-12T08:52:17.914Z</time></trkpt><trkpt lat="44.1650879" lon="11.334618"><ele>851.0</ele><time>2026-04-12T08:52:18.916Z</time></trkpt><trkpt lat="44.1650039" lon="11.3344886"><ele>850.5999999999999</ele><time>2026-04-12T08:52:19.915Z</time></trkpt><trkpt lat="44.1649243" lon="11.3343678"><ele>850.2</ele><time>2026-04-12T08:52:20.915Z</time></trkpt><trkpt lat="44.1648503" lon="11.3342554"><ele>849.8</ele><time>2026-04-12T08:52:21.915Z</time></trkpt><trkpt lat="44.1647796" lon="11.334142"><ele>849.4000000000001</ele><time>2026-04-12T08:52:22.915Z</time></trkpt><trkpt lat="44.1647113" lon="11.3340255"><ele>849.0</ele><time>2026-04-12T08:52:23.915Z</time></trkpt><trkpt lat="44.1646501" lon="11.3338985"><ele>848.5</ele><time>2026-04-12T08:52:24.915Z</time></trkpt><trkpt lat="44.1646023" lon="11.3337577"><ele>848.0</ele><time>2026-04-12T08:52:25.915Z</time></trkpt><trkpt lat="44.1645656" lon="11.3336045"><ele>847.5</ele><time>2026-04-12T08:52:26.916Z</time></trkpt><trkpt lat="44.1645337" lon="11.3334444"><ele>847.0</ele><time>2026-04-12T08:52:27.915Z</time></trkpt><trkpt lat="44.1645026" lon="11.3332849"><ele>847.0</ele><time>2026-04-12T08:52:28.915Z</time></trkpt><trkpt lat="44.1644668" lon="11.33314"><ele>847.0</ele><time>2026-04-12T08:52:29.915Z</time></trkpt><trkpt lat="44.1644086" lon="11.3330105"><ele>847.0</ele><time>2026-04-12T08:52:30.915Z</time></trkpt><trkpt lat="44.1643278" lon="11.3328901"><ele>847.0</ele><time>2026-04-12T08:52:31.915Z</time></trkpt><trkpt lat="44.1642424" lon="11.3327663"><ele>847.0</ele><time>2026-04-12T08:52:32.915Z</time></trkpt><trkpt lat="44.1641556" lon="11.3326371"><ele>847.0</ele><time>2026-04-12T08:52:33.916Z</time></trkpt><trkpt lat="44.1640711" lon="11.3324977"><ele>847.0</ele><time>2026-04-12T08:52:34.915Z</time></trkpt><trkpt lat="44.1639893" lon="11.3323491"><ele>847.0</ele><time>2026-04-12T08:52:35.915Z</time></trkpt><trkpt lat="44.1639071" lon="11.3321886"><ele>848.3333333333333</ele><time>2026-04-12T08:52:36.915Z</time></trkpt><trkpt lat="44.1638176" lon="11.3320384"><ele>849.6666666666667</ele><time>2026-04-12T08:52:37.915Z</time></trkpt><trkpt lat="44.1637187" lon="11.3318953"><ele>851.0</ele><time>2026-04-12T08:52:38.915Z</time></trkpt><trkpt lat="44.1635768" lon="11.3317669"><ele>851.0</ele><time>2026-04-12T08:52:39.915Z</time></trkpt><trkpt lat="44.1634383" lon="11.3316582"><ele>851.0</ele><time>2026-04-12T08:52:40.916Z</time></trkpt><trkpt lat="44.1633112" lon="11.3315622"><ele>851.0</ele><time>2026-04-12T08:52:41.915Z</time></trkpt><trkpt lat="44.1631957" lon="11.3314752"><ele>851.0</ele><time>2026-04-12T08:52:42.915Z</time></trkpt><trkpt lat="44.1630872" lon="11.3313945"><ele>851.5999999999999</ele><time>2026-04-12T08:52:43.915Z</time></trkpt><trkpt lat="44.1629989" lon="11.3313228"><ele>852.2</ele><time>2026-04-12T08:52:44.916Z</time></trkpt><trkpt lat="44.1629197" lon="11.3312393"><ele>852.8000000000001</ele><time>2026-04-12T08:52:45.915Z</time></trkpt><trkpt lat="44.1628649" lon="11.3311298"><ele>853.4000000000001</ele><time>2026-04-12T08:52:46.915Z</time></trkpt><trkpt lat="44.1628434" lon="11.3309996"><ele>854.0</ele><time>2026-04-12T08:52:47.915Z</time></trkpt><trkpt lat="44.1628455" lon="11.3308618"><ele>854.0</ele><time>2026-04-12T08:52:48.915Z</time></trkpt><trkpt lat="44.1628581" lon="11.3307238"><ele>854.0000000000001</ele><time>2026-04-12T08:52:49.915Z</time></trkpt><trkpt lat="44.1628729" lon="11.3305833"><ele>854.0000000000001</ele><time>2026-04-12T08:52:50.915Z</time></trkpt><trkpt lat="44.1628864" lon="11.3304429"><ele>854.0</ele><time>2026-04-12T08:52:51.916Z</time></trkpt><trkpt lat="44.1628834" lon="11.3303039"><ele>854.0</ele><time>2026-04-12T08:52:52.916Z</time></trkpt><trkpt lat="44.1628561" lon="11.3301689"><ele>856.2</ele><time>2026-04-12T08:52:53.915Z</time></trkpt><trkpt lat="44.1628203" lon="11.3300367"><ele>858.4000000000001</ele><time>2026-04-12T08:52:54.915Z</time></trkpt><trkpt lat="44.1627564" lon="11.3299287"><ele>860.6</ele><time>2026-04-12T08:52:55.915Z</time></trkpt><trkpt lat="44.1626835" lon="11.3298303"><ele>862.8</ele><time>2026-04-12T08:52:56.916Z</time></trkpt><trkpt lat="44.1625969" lon="11.3297446"><ele>865.0</ele><time>2026-04-12T08:52:57.915Z</time></trkpt><trkpt lat="44.1624953" lon="11.3296905"><ele>869.0</ele><time>2026-04-12T08:52:58.915Z</time></trkpt><trkpt lat="44.1623816" lon="11.32967"><ele>873.0</ele><time>2026-04-12T08:52:59.915Z</time></trkpt><trkpt lat="44.1622602" lon="11.329662"><ele>877.0</ele><time>2026-04-12T08:53:00.916Z</time></trkpt><trkpt lat="44.1621358" lon="11.3296557"><ele>881.0</ele><time>2026-04-12T08:53:01.916Z</time></trkpt><trkpt lat="44.1620131" lon="11.3296395"><ele>881.0</ele><time>2026-04-12T08:53:02.915Z</time></trkpt><trkpt lat="44.1618967" lon="11.3295937"><ele>881.0</ele><time>2026-04-12T08:53:03.915Z</time></trkpt><trkpt lat="44.1617838" lon="11.3295409"><ele>881.0</ele><time>2026-04-12T08:53:04.915Z</time></trkpt><trkpt lat="44.1616757" lon="11.3294813"><ele>881.0</ele><time>2026-04-12T08:53:05.915Z</time></trkpt><trkpt lat="44.1615824" lon="11.3294161"><ele>881.25</ele><time>2026-04-12T08:53:06.915Z</time></trkpt><trkpt lat="44.1614975" lon="11.3293307"><ele>881.5</ele><time>2026-04-12T08:53:07.915Z</time></trkpt><trkpt lat="44.1614238" lon="11.3292177"><ele>881.75</ele><time>2026-04-12T08:53:08.915Z</time></trkpt><trkpt lat="44.1613659" lon="11.3290636"><ele>882.0</ele><time>2026-04-12T08:53:09.915Z</time></trkpt><trkpt lat="44.1613226" lon="11.328869"><ele>882.0</ele><time>2026-04-12T08:53:10.916Z</time></trkpt><trkpt lat="44.1612867" lon="11.3286433"><ele>882.0</ele><time>2026-04-12T08:53:11.916Z</time></trkpt><trkpt lat="44.1612539" lon="11.3284183"><ele>882.0</ele><time>2026-04-12T08:53:12.915Z</time></trkpt><trkpt lat="44.161217" lon="11.3281994"><ele>882.3333333333333</ele><time>2026-04-12T08:53:13.915Z</time></trkpt><trkpt lat="44.1611747" lon="11.3279859"><ele>882.6666666666666</ele><time>2026-04-12T08:53:14.915Z</time></trkpt><trkpt lat="44.1611238" lon="11.3277772"><ele>883.0</ele><time>2026-04-12T08:53:15.915Z</time></trkpt><trkpt lat="44.1610638" lon="11.3275731"><ele>883.0</ele><time>2026-04-12T08:53:16.916Z</time></trkpt><trkpt lat="44.1609933" lon="11.3273728"><ele>883.0</ele><time>2026-04-12T08:53:17.915Z</time></trkpt><trkpt lat="44.160906" lon="11.3271609"><ele>883.0</ele><time>2026-04-12T08:53:18.915Z</time></trkpt><trkpt lat="44.1607957" lon="11.3269213"><ele>882.6666666666666</ele><time>2026-04-12T08:53:19.915Z</time></trkpt><trkpt lat="44.1606847" lon="11.3266661"><ele>882.3333333333333</ele><time>2026-04-12T08:53:20.915Z</time></trkpt><trkpt lat="44.1605733" lon="11.3263885"><ele>882.0</ele><time>2026-04-12T08:53:21.915Z</time></trkpt><trkpt lat="44.160457" lon="11.3260911"><ele>882.0</ele><time>2026-04-12T08:53:22.916Z</time></trkpt><trkpt lat="44.1603462" lon="11.3257653"><ele>882.0</ele><time>2026-04-12T08:53:23.915Z</time></trkpt><trkpt lat="44.1602558" lon="11.3254518"><ele>884.6666666666667</ele><time>2026-04-12T08:53:24.916Z</time></trkpt><trkpt lat="44.1601807" lon="11.325178"><ele>887.3333333333334</ele><time>2026-04-12T08:53:25.915Z</time></trkpt><trkpt lat="44.160119" lon="11.3249477"><ele>890.0</ele><time>2026-04-12T08:53:26.915Z</time></trkpt><trkpt lat="44.16007" lon="11.324759"><ele>892.25</ele><time>2026-04-12T08:53:27.915Z</time></trkpt><trkpt lat="44.1600276" lon="11.3245959"><ele>894.5</ele><time>2026-04-12T08:53:28.915Z</time></trkpt><trkpt lat="44.1599889" lon="11.3244404"><ele>896.75</ele><time>2026-04-12T08:53:29.915Z</time></trkpt><trkpt lat="44.1599498" lon="11.3242798"><ele>899.0</ele><time>2026-04-12T08:53:30.915Z</time></trkpt><trkpt lat="44.1598938" lon="11.3241159"><ele>899.0</ele><time>2026-04-12T08:53:31.915Z</time></trkpt><trkpt lat="44.159812" lon="11.3239661"><ele>899.0</ele><time>2026-04-12T08:53:32.915Z</time></trkpt><trkpt lat="44.1596942" lon="11.323833"><ele>899.0</ele><time>2026-04-12T08:53:33.916Z</time></trkpt><trkpt lat="44.1595381" lon="11.3237112"><ele>899.0</ele><time>2026-04-12T08:53:34.915Z</time></trkpt><trkpt lat="44.1593574" lon="11.3235797"><ele>899.0</ele><time>2026-04-12T08:53:35.915Z</time></trkpt><trkpt lat="44.1591807" lon="11.3234458"><ele>899.0</ele><time>2026-04-12T08:53:36.916Z</time></trkpt><trkpt lat="44.159012" lon="11.323312"><ele>898.0</ele><time>2026-04-12T08:53:37.916Z</time></trkpt><trkpt lat="44.1588838" lon="11.3231567"><ele>897.0</ele><time>2026-04-12T08:53:38.916Z</time></trkpt><trkpt lat="44.1587612" lon="11.323005"><ele>896.0</ele><time>2026-04-12T08:53:39.915Z</time></trkpt><trkpt lat="44.1586269" lon="11.3228764"><ele>899.0</ele><time>2026-04-12T08:53:40.915Z</time></trkpt><trkpt lat="44.1584785" lon="11.3227621"><ele>902.0</ele><time>2026-04-12T08:53:41.915Z</time></trkpt><trkpt lat="44.1583244" lon="11.322675"><ele>905.0</ele><time>2026-04-12T08:53:42.915Z</time></trkpt><trkpt lat="44.1581631" lon="11.3226405"><ele>905.3333333333334</ele><time>2026-04-12T08:53:43.916Z</time></trkpt><trkpt lat="44.1580036" lon="11.3226738"><ele>905.6666666666667</ele><time>2026-04-12T08:53:44.915Z</time></trkpt><trkpt lat="44.1578373" lon="11.3227787"><ele>906.0</ele><time>2026-04-12T08:53:45.915Z</time></trkpt><trkpt lat="44.1576853" lon="11.3229294"><ele>904.3333333333333</ele><time>2026-04-12T08:53:46.915Z</time></trkpt><trkpt lat="44.1575493" lon="11.3230765"><ele>902.6666666666666</ele><time>2026-04-12T08:53:47.915Z</time></trkpt><trkpt lat="44.1574329" lon="11.3231925"><ele>901.0</ele><time>2026-04-12T08:53:48.915Z</time></trkpt><trkpt lat="44.1573015" lon="11.3232869"><ele>901.0</ele><time>2026-04-12T08:53:49.916Z</time></trkpt><trkpt lat="44.1571623" lon="11.3233547"><ele>901.0</ele><time>2026-04-12T08:53:50.915Z</time></trkpt><trkpt lat="44.1570243" lon="11.3233884"><ele>901.0</ele><time>2026-04-12T08:53:51.915Z</time></trkpt><trkpt lat="44.1568851" lon="11.3233791"><ele>901.0</ele><time>2026-04-12T08:53:52.915Z</time></trkpt><trkpt lat="44.1567408" lon="11.3233309"><ele>901.0</ele><time>2026-04-12T08:53:53.916Z</time></trkpt><trkpt lat="44.1565893" lon="11.3232619"><ele>901.0</ele><time>2026-04-12T08:53:54.916Z</time></trkpt><trkpt lat="44.1564371" lon="11.323193"><ele>901.0</ele><time>2026-04-12T08:53:55.916Z</time></trkpt><trkpt lat="44.1562847" lon="11.3231528"><ele>900.3333333333333</ele><time>2026-04-12T08:53:56.916Z</time></trkpt><trkpt lat="44.1561292" lon="11.3231589"><ele>899.6666666666667</ele><time>2026-04-12T08:53:57.917Z</time></trkpt><trkpt lat="44.1559772" lon="11.3232161"><ele>899.0</ele><time>2026-04-12T08:53:58.916Z</time></trkpt><trkpt lat="44.1558331" lon="11.3233202"><ele>901.6666666666667</ele><time>2026-04-12T08:53:59.916Z</time></trkpt><trkpt lat="44.1556988" lon="11.3234712"><ele>904.3333333333333</ele><time>2026-04-12T08:54:00.916Z</time></trkpt><trkpt lat="44.1555696" lon="11.323638"><ele>907.0</ele><time>2026-04-12T08:54:01.916Z</time></trkpt><trkpt lat="44.1554549" lon="11.3238453"><ele>903.0</ele><time>2026-04-12T08:54:02.916Z</time></trkpt><trkpt lat="44.1553156" lon="11.3240509"><ele>899.0</ele><time>2026-04-12T08:54:03.917Z</time></trkpt><trkpt lat="44.1551581" lon="11.3242351"><ele>895.0</ele><time>2026-04-12T08:54:04.916Z</time></trkpt><trkpt lat="44.1550072" lon="11.324414"><ele>895.0</ele><time>2026-04-12T08:54:05.916Z</time></trkpt><trkpt lat="44.1548852" lon="11.3245832"><ele>895.0</ele><time>2026-04-12T08:54:06.916Z</time></trkpt><trkpt lat="44.1547936" lon="11.3247578"><ele>895.0</ele><time>2026-04-12T08:54:07.916Z</time></trkpt><trkpt lat="44.1547184" lon="11.3249183"><ele>894.0</ele><time>2026-04-12T08:54:08.917Z</time></trkpt><trkpt lat="44.1546377" lon="11.3250422"><ele>893.0</ele><time>2026-04-12T08:54:09.917Z</time></trkpt><trkpt lat="44.1545401" lon="11.3251192"><ele>892.0</ele><time>2026-04-12T08:54:10.916Z</time></trkpt><trkpt lat="44.1544196" lon="11.3251564"><ele>891.0</ele><time>2026-04-12T08:54:11.917Z</time></trkpt><trkpt lat="44.1542742" lon="11.3251479"><ele>891.0</ele><time>2026-04-12T08:54:12.916Z</time></trkpt><trkpt lat="44.1541169" lon="11.3251015"><ele>891.0</ele><time>2026-04-12T08:54:13.917Z</time></trkpt><trkpt lat="44.1539623" lon="11.32503"><ele>891.0</ele><time>2026-04-12T08:54:14.916Z</time></trkpt><trkpt lat="44.1538122" lon="11.3249275"><ele>892.6666666666667</ele><time>2026-04-12T08:54:15.917Z</time></trkpt><trkpt lat="44.1536599" lon="11.3247954"><ele>894.3333333333334</ele><time>2026-04-12T08:54:16.916Z</time></trkpt><trkpt lat="44.1535098" lon="11.3246661"><ele>896.0</ele><time>2026-04-12T08:54:17.916Z</time></trkpt><trkpt lat="44.1533611" lon="11.3245585"><ele>896.0</ele><time>2026-04-12T08:54:18.916Z</time></trkpt><trkpt lat="44.1532155" lon="11.3244775"><ele>896.0</ele><time>2026-04-12T08:54:19.917Z</time></trkpt><trkpt lat="44.1530723" lon="11.3244263"><ele>896.0</ele><time>2026-04-12T08:54:20.916Z</time></trkpt><trkpt lat="44.1529333" lon="11.3244195"><ele>896.0</ele><time>2026-04-12T08:54:21.916Z</time></trkpt><trkpt lat="44.152799" lon="11.3244646"><ele>896.75</ele><time>2026-04-12T08:54:22.916Z</time></trkpt><trkpt lat="44.1526693" lon="11.3245503"><ele>897.5</ele><time>2026-04-12T08:54:23.916Z</time></trkpt><trkpt lat="44.1525414" lon="11.3246577"><ele>898.25</ele><time>2026-04-12T08:54:24.916Z</time></trkpt><trkpt lat="44.1524099" lon="11.3247686"><ele>899.0</ele><time>2026-04-12T08:54:25.917Z</time></trkpt><trkpt lat="44.1522722" lon="11.3248825"><ele>899.0</ele><time>2026-04-12T08:54:26.916Z</time></trkpt><trkpt lat="44.1521301" lon="11.3249992"><ele>899.0</ele><time>2026-04-12T08:54:27.916Z</time></trkpt><trkpt lat="44.1519872" lon="11.3251192"><ele>899.0</ele><time>2026-04-12T08:54:28.916Z</time></trkpt><trkpt lat="44.1518457" lon="11.3252382"><ele>899.0</ele><time>2026-04-12T08:54:29.916Z</time></trkpt><trkpt lat="44.1517053" lon="11.3253572"><ele>899.0</ele><time>2026-04-12T08:54:30.916Z</time></trkpt><trkpt lat="44.1515658" lon="11.3254746"><ele>899.0</ele><time>2026-04-12T08:54:31.916Z</time></trkpt><trkpt lat="44.1514319" lon="11.3255844"><ele>896.0</ele><time>2026-04-12T08:54:32.916Z</time></trkpt><trkpt lat="44.1513058" lon="11.3256755"><ele>893.0</ele><time>2026-04-12T08:54:33.916Z</time></trkpt><trkpt lat="44.1511842" lon="11.3257444"><ele>890.0</ele><time>2026-04-12T08:54:34.916Z</time></trkpt><trkpt lat="44.1510595" lon="11.3257967"><ele>887.0</ele><time>2026-04-12T08:54:35.916Z</time></trkpt><trkpt lat="44.1509279" lon="11.3258325"><ele>887.0</ele><time>2026-04-12T08:54:36.916Z</time></trkpt><trkpt lat="44.1507903" lon="11.3258509"><ele>887.0</ele><time>2026-04-12T08:54:37.916Z</time></trkpt><trkpt lat="44.1506478" lon="11.3258564"><ele>887.0</ele><time>2026-04-12T08:54:38.916Z</time></trkpt><trkpt lat="44.1504961" lon="11.3258577"><ele>887.0</ele><time>2026-04-12T08:54:39.917Z</time></trkpt><trkpt lat="44.1503373" lon="11.3258564"><ele>890.0</ele><time>2026-04-12T08:54:40.916Z</time></trkpt><trkpt lat="44.1501742" lon="11.3258522"><ele>893.0</ele><time>2026-04-12T08:54:41.916Z</time></trkpt><trkpt lat="44.1500128" lon="11.3258467"><ele>896.0</ele><time>2026-04-12T08:54:42.916Z</time></trkpt><trkpt lat="44.1498558" lon="11.3258457"><ele>900.0</ele><time>2026-04-12T08:54:43.917Z</time></trkpt><trkpt lat="44.1496998" lon="11.3258696"><ele>904.0</ele><time>2026-04-12T08:54:44.916Z</time></trkpt><trkpt lat="44.1495433" lon="11.3259446"><ele>908.0</ele><time>2026-04-12T08:54:45.916Z</time></trkpt><trkpt lat="44.149383" lon="11.3260372"><ele>908.0</ele><time>2026-04-12T08:54:46.916Z</time></trkpt><trkpt lat="44.1492077" lon="11.3262199"><ele>908.0</ele><time>2026-04-12T08:54:47.916Z</time></trkpt><trkpt lat="44.1490313" lon="11.3264262"><ele>908.0</ele><time>2026-04-12T08:54:48.916Z</time></trkpt><trkpt lat="44.148864" lon="11.3266372"><ele>907.0</ele><time>2026-04-12T08:54:49.916Z</time></trkpt><trkpt lat="44.148724" lon="11.3268386"><ele>906.0</ele><time>2026-04-12T08:54:50.916Z</time></trkpt><trkpt lat="44.1486052" lon="11.3270165"><ele>905.0</ele><time>2026-04-12T08:54:51.916Z</time></trkpt><trkpt lat="44.1484889" lon="11.3271719"><ele>900.25</ele><time>2026-04-12T08:54:52.916Z</time></trkpt><trkpt lat="44.1483758" lon="11.3273005"><ele>895.5</ele><time>2026-04-12T08:54:53.916Z</time></trkpt><trkpt lat="44.1482669" lon="11.3273982"><ele>890.75</ele><time>2026-04-12T08:54:54.916Z</time></trkpt><trkpt lat="44.1481555" lon="11.3274501"><ele>886.0</ele><time>2026-04-12T08:54:55.916Z</time></trkpt><trkpt lat="44.1480378" lon="11.3274491"><ele>886.0</ele><time>2026-04-12T08:54:56.916Z</time></trkpt><trkpt lat="44.1479033" lon="11.327399"><ele>886.0</ele><time>2026-04-12T08:54:57.916Z</time></trkpt><trkpt lat="44.147755" lon="11.3273114"><ele>886.0</ele><time>2026-04-12T08:54:58.916Z</time></trkpt><trkpt lat="44.1475919" lon="11.3272213"><ele>887.6666666666666</ele><time>2026-04-12T08:54:59.916Z</time></trkpt><trkpt lat="44.1474119" lon="11.327165"><ele>889.3333333333333</ele><time>2026-04-12T08:55:00.917Z</time></trkpt><trkpt lat="44.147218" lon="11.3271549"><ele>891.0</ele><time>2026-04-12T08:55:01.916Z</time></trkpt><trkpt lat="44.1470264" lon="11.3271742"><ele>891.0</ele><time>2026-04-12T08:55:02.916Z</time></trkpt><trkpt lat="44.1468421" lon="11.3271729"><ele>891.0</ele><time>2026-04-12T08:55:03.916Z</time></trkpt><trkpt lat="44.1466548" lon="11.3271237"><ele>891.0</ele><time>2026-04-12T08:55:04.916Z</time></trkpt><trkpt lat="44.1464594" lon="11.327022"><ele>887.0</ele><time>2026-04-12T08:55:05.917Z</time></trkpt><trkpt lat="44.146264" lon="11.3268952"><ele>883.0</ele><time>2026-04-12T08:55:06.917Z</time></trkpt><trkpt lat="44.1460774" lon="11.3267668"><ele>879.0</ele><time>2026-04-12T08:55:07.916Z</time></trkpt><trkpt lat="44.1459019" lon="11.3266585"><ele>879.0</ele><time>2026-04-12T08:55:08.916Z</time></trkpt><trkpt lat="44.1457288" lon="11.3265895"><ele>879.0</ele><time>2026-04-12T08:55:09.916Z</time></trkpt><trkpt lat="44.1455557" lon="11.3265659"><ele>879.0</ele><time>2026-04-12T08:55:10.917Z</time></trkpt><trkpt lat="44.1453756" lon="11.3265867"><ele>879.6666666666667</ele><time>2026-04-12T08:55:11.917Z</time></trkpt><trkpt lat="44.1452077" lon="11.3266394"><ele>880.3333333333334</ele><time>2026-04-12T08:55:12.916Z</time></trkpt><trkpt lat="44.1450545" lon="11.3267293"><ele>881.0</ele><time>2026-04-12T08:55:13.916Z</time></trkpt><trkpt lat="44.1449238" lon="11.3268608"><ele>881.5</ele><time>2026-04-12T08:55:14.916Z</time></trkpt><trkpt lat="44.1448193" lon="11.3270221"><ele>882.0</ele><time>2026-04-12T08:55:15.917Z</time></trkpt><trkpt lat="44.1447369" lon="11.3271971"><ele>882.5</ele><time>2026-04-12T08:55:16.916Z</time></trkpt><trkpt lat="44.1446601" lon="11.3273451"><ele>883.0</ele><time>2026-04-12T08:55:17.916Z</time></trkpt><trkpt lat="44.1445729" lon="11.3274428"><ele>880.0</ele><time>2026-04-12T08:55:18.917Z</time></trkpt><trkpt lat="44.1444684" lon="11.3274892"><ele>877.0</ele><time>2026-04-12T08:55:19.916Z</time></trkpt><trkpt lat="44.1443403" lon="11.3274978"><ele>874.0</ele><time>2026-04-12T08:55:20.916Z</time></trkpt><trkpt lat="44.1441921" lon="11.3274414"><ele>871.0</ele><time>2026-04-12T08:55:21.917Z</time></trkpt><trkpt lat="44.1440435" lon="11.3273668"><ele>869.3333333333333</ele><time>2026-04-12T08:55:22.916Z</time></trkpt><trkpt lat="44.1439011" lon="11.327295"><ele>867.6666666666667</ele><time>2026-04-12T08:55:23.918Z</time></trkpt><trkpt lat="44.1437578" lon="11.3272243"><ele>866.0</ele><time>2026-04-12T08:55:24.916Z</time></trkpt><trkpt lat="44.143605" lon="11.3271574"><ele>868.0</ele><time>2026-04-12T08:55:25.917Z</time></trkpt><trkpt lat="44.1434419" lon="11.3271312"><ele>870.0</ele><time>2026-04-12T08:55:26.917Z</time></trkpt><trkpt lat="44.1432728" lon="11.3271324"><ele>872.0</ele><time>2026-04-12T08:55:27.916Z</time></trkpt><trkpt lat="44.143106" lon="11.3271402"><ele>872.0</ele><time>2026-04-12T08:55:28.917Z</time></trkpt><trkpt lat="44.1429487" lon="11.3271604"><ele>872.0</ele><time>2026-04-12T08:55:29.917Z</time></trkpt><trkpt lat="44.1427986" lon="11.32719"><ele>872.0</ele><time>2026-04-12T08:55:30.917Z</time></trkpt><trkpt lat="44.1426541" lon="11.3272283"><ele>869.6666666666667</ele><time>2026-04-12T08:55:31.917Z</time></trkpt><trkpt lat="44.1425081" lon="11.3272779"><ele>867.3333333333333</ele><time>2026-04-12T08:55:32.917Z</time></trkpt><trkpt lat="44.1423599" lon="11.3273589"><ele>865.0</ele><time>2026-04-12T08:55:33.918Z</time></trkpt><trkpt lat="44.1422096" lon="11.3274639"><ele>865.0</ele><time>2026-04-12T08:55:34.917Z</time></trkpt><trkpt lat="44.142054" lon="11.327591"><ele>865.0</ele><time>2026-04-12T08:55:35.917Z</time></trkpt><trkpt lat="44.1418911" lon="11.327729"><ele>865.0</ele><time>2026-04-12T08:55:36.917Z</time></trkpt><trkpt lat="44.1417295" lon="11.3278614"><ele>865.0</ele><time>2026-04-12T08:55:37.917Z</time></trkpt><trkpt lat="44.1415677" lon="11.3279872"><ele>865.0</ele><time>2026-04-12T08:55:38.917Z</time></trkpt><trkpt lat="44.1414156" lon="11.3281058"><ele>865.0</ele><time>2026-04-12T08:55:39.917Z</time></trkpt><trkpt lat="44.1412721" lon="11.3282207"><ele>863.5</ele><time>2026-04-12T08:55:40.917Z</time></trkpt><trkpt lat="44.1411421" lon="11.3283301"><ele>862.0</ele><time>2026-04-12T08:55:41.917Z</time></trkpt><trkpt lat="44.1410297" lon="11.3284341"><ele>860.5</ele><time>2026-04-12T08:55:42.917Z</time></trkpt><trkpt lat="44.1409326" lon="11.3285113"><ele>859.0</ele><time>2026-04-12T08:55:43.918Z</time></trkpt><trkpt lat="44.1408371" lon="11.3285508"><ele>859.0</ele><time>2026-04-12T08:55:44.917Z</time></trkpt><trkpt lat="44.1407455" lon="11.3285445"><ele>859.0000000000001</ele><time>2026-04-12T08:55:45.917Z</time></trkpt><trkpt lat="44.140654" lon="11.3284876"><ele>859.0000000000001</ele><time>2026-04-12T08:55:46.917Z</time></trkpt><trkpt lat="44.1405731" lon="11.3283782"><ele>859.0</ele><time>2026-04-12T08:55:47.918Z</time></trkpt><trkpt lat="44.1405179" lon="11.3282139"><ele>859.0</ele><time>2026-04-12T08:55:48.918Z</time></trkpt><trkpt lat="44.1404832" lon="11.3280416"><ele>855.25</ele><time>2026-04-12T08:55:49.918Z</time></trkpt><trkpt lat="44.1404861" lon="11.3278664"><ele>851.5</ele><time>2026-04-12T08:55:50.917Z</time></trkpt><trkpt lat="44.1405204" lon="11.3277064"><ele>847.75</ele><time>2026-04-12T08:55:51.917Z</time></trkpt><trkpt lat="44.1405918" lon="11.3275524"><ele>844.0</ele><time>2026-04-12T08:55:52.917Z</time></trkpt><trkpt lat="44.1406986" lon="11.327408"><ele>844.6666666666666</ele><time>2026-04-12T08:55:53.917Z</time></trkpt><trkpt lat="44.1408456" lon="11.3272899"><ele>845.3333333333333</ele><time>2026-04-12T08:55:54.917Z</time></trkpt><trkpt lat="44.1409759" lon="11.3271781"><ele>846.0</ele><time>2026-04-12T08:55:55.917Z</time></trkpt><trkpt lat="44.1410925" lon="11.3270719"><ele>846.0</ele><time>2026-04-12T08:55:56.917Z</time></trkpt><trkpt lat="44.1411916" lon="11.3269614"><ele>846.0</ele><time>2026-04-12T08:55:57.917Z</time></trkpt><trkpt lat="44.1412593" lon="11.3268282"><ele>846.0</ele><time>2026-04-12T08:55:58.917Z</time></trkpt><trkpt lat="44.1412975" lon="11.3266764"><ele>846.0</ele><time>2026-04-12T08:55:59.917Z</time></trkpt><trkpt lat="44.1412971" lon="11.3264784"><ele>846.0</ele><time>2026-04-12T08:56:00.917Z</time></trkpt><trkpt lat="44.1412662" lon="11.3262594"><ele>846.0</ele><time>2026-04-12T08:56:01.917Z</time></trkpt><trkpt lat="44.1412085" lon="11.326063"><ele>846.0</ele><time>2026-04-12T08:56:02.918Z</time></trkpt><trkpt lat="44.1411492" lon="11.325886"><ele>846.0</ele><time>2026-04-12T08:56:03.917Z</time></trkpt><trkpt lat="44.1410992" lon="11.3257276"><ele>846.0</ele><time>2026-04-12T08:56:04.918Z</time></trkpt><trkpt lat="44.1410609" lon="11.3255877"><ele>846.0</ele><time>2026-04-12T08:56:05.917Z</time></trkpt><trkpt lat="44.1410477" lon="11.3254394"><ele>846.0</ele><time>2026-04-12T08:56:06.917Z</time></trkpt><trkpt lat="44.1410634" lon="11.325265"><ele>845.3333333333333</ele><time>2026-04-12T08:56:07.918Z</time></trkpt><trkpt lat="44.1410997" lon="11.325069"><ele>844.6666666666666</ele><time>2026-04-12T08:56:08.917Z</time></trkpt><trkpt lat="44.1411518" lon="11.3248521"><ele>844.0</ele><time>2026-04-12T08:56:09.918Z</time></trkpt><trkpt lat="44.1411964" lon="11.3246426"><ele>843.0</ele><time>2026-04-12T08:56:10.917Z</time></trkpt><trkpt lat="44.1412272" lon="11.3244275"><ele>842.0</ele><time>2026-04-12T08:56:11.917Z</time></trkpt><trkpt lat="44.1412466" lon="11.3242072"><ele>841.0</ele><time>2026-04-12T08:56:12.917Z</time></trkpt><trkpt lat="44.1412533" lon="11.323987"><ele>841.0</ele><time>2026-04-12T08:56:13.917Z</time></trkpt><trkpt lat="44.1412548" lon="11.3237839"><ele>841.0</ele><time>2026-04-12T08:56:14.917Z</time></trkpt><trkpt lat="44.1412122" lon="11.3235711"><ele>841.0</ele><time>2026-04-12T08:56:15.917Z</time></trkpt><trkpt lat="44.1411332" lon="11.3233432"><ele>841.0</ele><time>2026-04-12T08:56:16.917Z</time></trkpt><trkpt lat="44.1410422" lon="11.3230909"><ele>841.0</ele><time>2026-04-12T08:56:17.917Z</time></trkpt><trkpt lat="44.1409462" lon="11.3228317"><ele>841.0</ele><time>2026-04-12T08:56:18.918Z</time></trkpt><trkpt lat="44.1408546" lon="11.3225893"><ele>840.0</ele><time>2026-04-12T08:56:19.917Z</time></trkpt><trkpt lat="44.1407778" lon="11.3223678"><ele>839.0</ele><time>2026-04-12T08:56:20.917Z</time></trkpt><trkpt lat="44.1407111" lon="11.3221755"><ele>838.0</ele><time>2026-04-12T08:56:21.917Z</time></trkpt><trkpt lat="44.1406523" lon="11.3220104"><ele>838.0</ele><time>2026-04-12T08:56:22.917Z</time></trkpt><trkpt lat="44.1405956" lon="11.3218789"><ele>838.0</ele><time>2026-04-12T08:56:23.917Z</time></trkpt><trkpt lat="44.1405202" lon="11.3217817"><ele>838.0</ele><time>2026-04-12T08:56:24.917Z</time></trkpt><trkpt lat="44.1404293" lon="11.3217237"><ele>838.0</ele><time>2026-04-12T08:56:25.917Z</time></trkpt><trkpt lat="44.1403333" lon="11.3216982"><ele>838.0</ele><time>2026-04-12T08:56:26.917Z</time></trkpt><trkpt lat="44.1402293" lon="11.3216774"><ele>838.0</ele><time>2026-04-12T08:56:27.917Z</time></trkpt><trkpt lat="44.1401267" lon="11.3216617"><ele>838.0</ele><time>2026-04-12T08:56:28.917Z</time></trkpt><trkpt lat="44.1400336" lon="11.3216385"><ele>838.0</ele><time>2026-04-12T08:56:29.917Z</time></trkpt><trkpt lat="44.139934" lon="11.3216031"><ele>838.0</ele><time>2026-04-12T08:56:30.917Z</time></trkpt><trkpt lat="44.1398419" lon="11.3215383"><ele>838.0</ele><time>2026-04-12T08:56:31.917Z</time></trkpt><trkpt lat="44.1397469" lon="11.3214358"><ele>836.0</ele><time>2026-04-12T08:56:32.917Z</time></trkpt><trkpt lat="44.1396397" lon="11.3212929"><ele>834.0</ele><time>2026-04-12T08:56:33.917Z</time></trkpt><trkpt lat="44.1395329" lon="11.3211535"><ele>832.0</ele><time>2026-04-12T08:56:34.917Z</time></trkpt><trkpt lat="44.1394335" lon="11.3210175"><ele>830.0</ele><time>2026-04-12T08:56:35.918Z</time></trkpt><trkpt lat="44.1393385" lon="11.3208944"><ele>830.0</ele><time>2026-04-12T08:56:36.917Z</time></trkpt><trkpt lat="44.139246" lon="11.3207848"><ele>830.0</ele><time>2026-04-12T08:56:37.917Z</time></trkpt><trkpt lat="44.1391531" lon="11.3207013"><ele>830.0</ele><time>2026-04-12T08:56:38.917Z</time></trkpt><trkpt lat="44.13907" lon="11.320633"><ele>830.0</ele><time>2026-04-12T08:56:39.917Z</time></trkpt><trkpt lat="44.1389942" lon="11.3205758"><ele>830.0</ele><time>2026-04-12T08:56:40.917Z</time></trkpt><trkpt lat="44.1389339" lon="11.3205266"><ele>828.6</ele><time>2026-04-12T08:56:41.917Z</time></trkpt><trkpt lat="44.1388433" lon="11.320451"><ele>827.2</ele><time>2026-04-12T08:56:43.917Z</time></trkpt><trkpt lat="44.1387799" lon="11.3203783"><ele>825.8</ele><time>2026-04-12T08:56:45.917Z</time></trkpt><trkpt lat="44.1387383" lon="11.3203016"><ele>824.4</ele><time>2026-04-12T08:56:47.917Z</time></trkpt><trkpt lat="44.1386461" lon="11.3202131"><ele>823.0</ele><time>2026-04-12T08:56:49.917Z</time></trkpt><trkpt lat="44.1385624" lon="11.3201915"><ele>823.0</ele><time>2026-04-12T08:56:50.917Z</time></trkpt><trkpt lat="44.1384552" lon="11.3201851"><ele>823.0</ele><time>2026-04-12T08:56:51.917Z</time></trkpt><trkpt lat="44.1383381" lon="11.3201819"><ele>823.0</ele><time>2026-04-12T08:56:52.917Z</time></trkpt><trkpt lat="44.1382277" lon="11.3201853"><ele>823.0</ele><time>2026-04-12T08:56:53.917Z</time></trkpt><trkpt lat="44.1381276" lon="11.3201881"><ele>823.0</ele><time>2026-04-12T08:56:54.918Z</time></trkpt><trkpt lat="44.1380424" lon="11.3201838"><ele>820.9999999999999</ele><time>2026-04-12T08:56:55.918Z</time></trkpt><trkpt lat="44.1379677" lon="11.3201801"><ele>819.0</ele><time>2026-04-12T08:56:56.917Z</time></trkpt><trkpt lat="44.1378958" lon="11.3201807"><ele>817.0</ele><time>2026-04-12T08:56:57.917Z</time></trkpt><trkpt lat="44.1378276" lon="11.3201822"><ele>815.0</ele><time>2026-04-12T08:56:58.917Z</time></trkpt><trkpt lat="44.1377644" lon="11.3201861"><ele>812.9999999999999</ele><time>2026-04-12T08:56:59.918Z</time></trkpt><trkpt lat="44.1376567" lon="11.3201961"><ele>811.0</ele><time>2026-04-12T08:57:01.918Z</time></trkpt><trkpt lat="44.1375791" lon="11.3202834"><ele>811.0</ele><time>2026-04-12T08:57:03.918Z</time></trkpt><trkpt lat="44.1375956" lon="11.3204436"><ele>811.0</ele><time>2026-04-12T08:57:05.918Z</time></trkpt><trkpt lat="44.137657" lon="11.3205154"><ele>811.0</ele><time>2026-04-12T08:57:06.918Z</time></trkpt><trkpt lat="44.1377427" lon="11.3205685"><ele>811.0</ele><time>2026-04-12T08:57:07.918Z</time></trkpt><trkpt lat="44.1378341" lon="11.3206132"><ele>811.0</ele><time>2026-04-12T08:57:08.919Z</time></trkpt><trkpt lat="44.1379175" lon="11.3206651"><ele>810.4</ele><time>2026-04-12T08:57:09.918Z</time></trkpt><trkpt lat="44.137998" lon="11.3207269"><ele>809.8</ele><time>2026-04-12T08:57:10.918Z</time></trkpt><trkpt lat="44.1380768" lon="11.3208085"><ele>809.1999999999999</ele><time>2026-04-12T08:57:11.918Z</time></trkpt><trkpt lat="44.1381496" lon="11.3209073"><ele>808.5999999999999</ele><time>2026-04-12T08:57:12.919Z</time></trkpt><trkpt lat="44.1382129" lon="11.3210174"><ele>808.0</ele><time>2026-04-12T08:57:13.918Z</time></trkpt><trkpt lat="44.1382721" lon="11.3211383"><ele>807.2</ele><time>2026-04-12T08:57:14.918Z</time></trkpt><trkpt lat="44.1383288" lon="11.3212679"><ele>806.4</ele><time>2026-04-12T08:57:15.918Z</time></trkpt><trkpt lat="44.138381" lon="11.3214056"><ele>805.6</ele><time>2026-04-12T08:57:16.918Z</time></trkpt><trkpt lat="44.138424" lon="11.3215506"><ele>804.8000000000001</ele><time>2026-04-12T08:57:17.918Z</time></trkpt><trkpt lat="44.1384539" lon="11.3216982"><ele>804.0</ele><time>2026-04-12T08:57:18.918Z</time></trkpt><trkpt lat="44.1384706" lon="11.3218457"><ele>804.0</ele><time>2026-04-12T08:57:19.918Z</time></trkpt><trkpt lat="44.1384752" lon="11.3219965"><ele>804.0</ele><time>2026-04-12T08:57:20.918Z</time></trkpt><trkpt lat="44.1384596" lon="11.3221511"><ele>804.0</ele><time>2026-04-12T08:57:21.918Z</time></trkpt><trkpt lat="44.1384223" lon="11.3222985"><ele>804.0</ele><time>2026-04-12T08:57:22.919Z</time></trkpt><trkpt lat="44.1383635" lon="11.3224278"><ele>804.0</ele><time>2026-04-12T08:57:23.918Z</time></trkpt><trkpt lat="44.1382837" lon="11.3225453"><ele>799.3333333333333</ele><time>2026-04-12T08:57:24.918Z</time></trkpt><trkpt lat="44.1381661" lon="11.3226651"><ele>794.6666666666666</ele><time>2026-04-12T08:57:25.918Z</time></trkpt><trkpt lat="44.1379994" lon="11.3227845"><ele>790.0</ele><time>2026-04-12T08:57:26.918Z</time></trkpt><trkpt lat="44.1377998" lon="11.3228943"><ele>790.0</ele><time>2026-04-12T08:57:27.918Z</time></trkpt><trkpt lat="44.1375852" lon="11.3229987"><ele>790.0</ele><time>2026-04-12T08:57:28.919Z</time></trkpt><trkpt lat="44.1373812" lon="11.323106"><ele>790.0</ele><time>2026-04-12T08:57:29.918Z</time></trkpt><trkpt lat="44.1371994" lon="11.3232214"><ele>786.3333333333333</ele><time>2026-04-12T08:57:30.918Z</time></trkpt><trkpt lat="44.1370391" lon="11.3233364"><ele>782.6666666666667</ele><time>2026-04-12T08:57:31.918Z</time></trkpt><trkpt lat="44.1369037" lon="11.3234434"><ele>779.0</ele><time>2026-04-12T08:57:32.918Z</time></trkpt><trkpt lat="44.1367981" lon="11.323569"><ele>779.0</ele><time>2026-04-12T08:57:33.918Z</time></trkpt><trkpt lat="44.136724" lon="11.3237342"><ele>779.0</ele><time>2026-04-12T08:57:34.918Z</time></trkpt><trkpt lat="44.1366846" lon="11.323939"><ele>779.0</ele><time>2026-04-12T08:57:35.918Z</time></trkpt><trkpt lat="44.1366779" lon="11.3241697"><ele>778.3333333333334</ele><time>2026-04-12T08:57:36.918Z</time></trkpt><trkpt lat="44.1366941" lon="11.3244148"><ele>777.6666666666667</ele><time>2026-04-12T08:57:37.918Z</time></trkpt><trkpt lat="44.1367345" lon="11.3246289"><ele>777.0</ele><time>2026-04-12T08:57:38.918Z</time></trkpt><trkpt lat="44.1367765" lon="11.3248208"><ele>775.75</ele><time>2026-04-12T08:57:39.918Z</time></trkpt><trkpt lat="44.1368048" lon="11.3249967"><ele>774.5</ele><time>2026-04-12T08:57:40.918Z</time></trkpt><trkpt lat="44.1367913" lon="11.3251798"><ele>773.25</ele><time>2026-04-12T08:57:41.918Z</time></trkpt><trkpt lat="44.1367303" lon="11.325374"><ele>772.0</ele><time>2026-04-12T08:57:42.918Z</time></trkpt><trkpt lat="44.1366312" lon="11.3255443"><ele>767.3333333333333</ele><time>2026-04-12T08:57:43.919Z</time></trkpt><trkpt lat="44.1365337" lon="11.3256948"><ele>762.6666666666666</ele><time>2026-04-12T08:57:44.918Z</time></trkpt><trkpt lat="44.136461" lon="11.3258657"><ele>758.0</ele><time>2026-04-12T08:57:45.918Z</time></trkpt><trkpt lat="44.1364168" lon="11.3260859"><ele>758.0</ele><time>2026-04-12T08:57:46.918Z</time></trkpt><trkpt lat="44.136398" lon="11.3263451"><ele>758.0</ele><time>2026-04-12T08:57:47.918Z</time></trkpt><trkpt lat="44.1363859" lon="11.3266185"><ele>758.0</ele><time>2026-04-12T08:57:48.918Z</time></trkpt><trkpt lat="44.1363672" lon="11.3268817"><ele>756.3333333333333</ele><time>2026-04-12T08:57:49.918Z</time></trkpt><trkpt lat="44.1363612" lon="11.3271388"><ele>754.6666666666666</ele><time>2026-04-12T08:57:50.918Z</time></trkpt><trkpt lat="44.1363785" lon="11.3273963"><ele>753.0</ele><time>2026-04-12T08:57:51.919Z</time></trkpt><trkpt lat="44.1363976" lon="11.3276444"><ele>752.0</ele><time>2026-04-12T08:57:52.919Z</time></trkpt><trkpt lat="44.1363978" lon="11.3278745"><ele>751.0</ele><time>2026-04-12T08:57:53.918Z</time></trkpt><trkpt lat="44.1363669" lon="11.3280956"><ele>750.0</ele><time>2026-04-12T08:57:54.918Z</time></trkpt><trkpt lat="44.136325" lon="11.3283161"><ele>750.0</ele><time>2026-04-12T08:57:55.918Z</time></trkpt><trkpt lat="44.1362194" lon="11.3285599"><ele>750.0</ele><time>2026-04-12T08:57:56.918Z</time></trkpt><trkpt lat="44.1360866" lon="11.3288141"><ele>750.0</ele><time>2026-04-12T08:57:57.918Z</time></trkpt><trkpt lat="44.1359372" lon="11.3290579"><ele>750.0</ele><time>2026-04-12T08:57:58.918Z</time></trkpt><trkpt lat="44.1358069" lon="11.3292816"><ele>750.0</ele><time>2026-04-12T08:57:59.918Z</time></trkpt><trkpt lat="44.1356878" lon="11.3294989"><ele>750.0</ele><time>2026-04-12T08:58:00.919Z</time></trkpt><trkpt lat="44.1355673" lon="11.3297066"><ele>746.3333333333334</ele><time>2026-04-12T08:58:01.918Z</time></trkpt><trkpt lat="44.1354702" lon="11.329917"><ele>742.6666666666667</ele><time>2026-04-12T08:58:02.918Z</time></trkpt><trkpt lat="44.1353815" lon="11.3301249"><ele>739.0</ele><time>2026-04-12T08:58:03.918Z</time></trkpt><trkpt lat="44.1353176" lon="11.3303496"><ele>738.3333333333334</ele><time>2026-04-12T08:58:04.918Z</time></trkpt><trkpt lat="44.1352667" lon="11.3305804"><ele>737.6666666666666</ele><time>2026-04-12T08:58:05.918Z</time></trkpt><trkpt lat="44.1352363" lon="11.3308275"><ele>737.0</ele><time>2026-04-12T08:58:06.918Z</time></trkpt><trkpt lat="44.1352159" lon="11.3310616"><ele>737.0</ele><time>2026-04-12T08:58:07.918Z</time></trkpt><trkpt lat="44.135185" lon="11.3312786"><ele>737.0</ele><time>2026-04-12T08:58:08.918Z</time></trkpt><trkpt lat="44.1351205" lon="11.3314805"><ele>737.0</ele><time>2026-04-12T08:58:09.918Z</time></trkpt><trkpt lat="44.1350284" lon="11.3316865"><ele>736.75</ele><time>2026-04-12T08:58:10.918Z</time></trkpt><trkpt lat="44.1349357" lon="11.3318617"><ele>736.5</ele><time>2026-04-12T08:58:11.918Z</time></trkpt><trkpt lat="44.1348612" lon="11.3320351"><ele>736.25</ele><time>2026-04-12T08:58:12.918Z</time></trkpt><trkpt lat="44.1347889" lon="11.3321761"><ele>736.0</ele><time>2026-04-12T08:58:13.918Z</time></trkpt><trkpt lat="44.1347469" lon="11.3322949"><ele>735.0</ele><time>2026-04-12T08:58:14.919Z</time></trkpt><trkpt lat="44.1347127" lon="11.3324131"><ele>734.0</ele><time>2026-04-12T08:58:15.918Z</time></trkpt><trkpt lat="44.1346443" lon="11.3325085"><ele>733.0</ele><time>2026-04-12T08:58:16.918Z</time></trkpt><trkpt lat="44.1345711" lon="11.332576"><ele>732.0</ele><time>2026-04-12T08:58:17.918Z</time></trkpt><trkpt lat="44.1344608" lon="11.332602"><ele>731.0</ele><time>2026-04-12T08:58:18.919Z</time></trkpt><trkpt lat="44.134341" lon="11.3326654"><ele>731.0</ele><time>2026-04-12T08:58:19.918Z</time></trkpt><trkpt lat="44.1342092" lon="11.3327291"><ele>731.0</ele><time>2026-04-12T08:58:20.918Z</time></trkpt><trkpt lat="44.1340566" lon="11.3327883"><ele>731.0</ele><time>2026-04-12T08:58:21.919Z</time></trkpt><trkpt lat="44.1339129" lon="11.3328527"><ele>731.0</ele><time>2026-04-12T08:58:22.918Z</time></trkpt><trkpt lat="44.133776" lon="11.3329346"><ele>728.0</ele><time>2026-04-12T08:58:23.918Z</time></trkpt><trkpt lat="44.1336424" lon="11.3330184"><ele>725.0</ele><time>2026-04-12T08:58:24.918Z</time></trkpt><trkpt lat="44.1335083" lon="11.3330964"><ele>722.0</ele><time>2026-04-12T08:58:25.918Z</time></trkpt><trkpt lat="44.1333821" lon="11.3331551"><ele>719.0</ele><time>2026-04-12T08:58:26.919Z</time></trkpt><trkpt lat="44.1332542" lon="11.3331901"><ele>715.6</ele><time>2026-04-12T08:58:27.918Z</time></trkpt><trkpt lat="44.1331373" lon="11.3332134"><ele>712.2</ele><time>2026-04-12T08:58:28.918Z</time></trkpt><trkpt lat="44.1330473" lon="11.3332488"><ele>708.8000000000001</ele><time>2026-04-12T08:58:29.918Z</time></trkpt><trkpt lat="44.1329874" lon="11.3333142"><ele>705.4000000000001</ele><time>2026-04-12T08:58:30.919Z</time></trkpt><trkpt lat="44.1329683" lon="11.3334092"><ele>702.0</ele><time>2026-04-12T08:58:31.92Z</time></trkpt><trkpt lat="44.1329991" lon="11.3335301"><ele>702.0</ele><time>2026-04-12T08:58:32.919Z</time></trkpt><trkpt lat="44.1330504" lon="11.3336514"><ele>702.0</ele><time>2026-04-12T08:58:33.919Z</time></trkpt><trkpt lat="44.133104" lon="11.3337493"><ele>702.0</ele><time>2026-04-12T08:58:34.919Z</time></trkpt><trkpt lat="44.1331129" lon="11.3338575"><ele>702.0</ele><time>2026-04-12T08:58:35.919Z</time></trkpt><trkpt lat="44.1330873" lon="11.333961"><ele>702.0</ele><time>2026-04-12T08:58:36.919Z</time></trkpt><trkpt lat="44.1330105" lon="11.3340269"><ele>702.0</ele><time>2026-04-12T08:58:37.919Z</time></trkpt><trkpt lat="44.1328875" lon="11.3340786"><ele>701.3333333333334</ele><time>2026-04-12T08:58:38.919Z</time></trkpt><trkpt lat="44.1327267" lon="11.334133"><ele>700.6666666666667</ele><time>2026-04-12T08:58:39.919Z</time></trkpt><trkpt lat="44.1325288" lon="11.3342277"><ele>700.0</ele><time>2026-04-12T08:58:40.919Z</time></trkpt><trkpt lat="44.1323485" lon="11.3343065"><ele>695.3333333333334</ele><time>2026-04-12T08:58:41.919Z</time></trkpt><trkpt lat="44.1321707" lon="11.3343594"><ele>690.6666666666666</ele><time>2026-04-12T08:58:42.919Z</time></trkpt><trkpt lat="44.1319968" lon="11.3343723"><ele>686.0</ele><time>2026-04-12T08:58:43.919Z</time></trkpt><trkpt lat="44.1318313" lon="11.3343468"><ele>686.0</ele><time>2026-04-12T08:58:44.919Z</time></trkpt><trkpt lat="44.1316912" lon="11.3343232"><ele>686.0</ele><time>2026-04-12T08:58:45.92Z</time></trkpt><trkpt lat="44.1315687" lon="11.3343011"><ele>686.0</ele><time>2026-04-12T08:58:46.919Z</time></trkpt><trkpt lat="44.1314686" lon="11.3343023"><ele>686.0</ele><time>2026-04-12T08:58:47.919Z</time></trkpt><trkpt lat="44.1313675" lon="11.3343386"><ele>683.0</ele><time>2026-04-12T08:58:48.919Z</time></trkpt><trkpt lat="44.1312855" lon="11.3344348"><ele>680.0</ele><time>2026-04-12T08:58:49.92Z</time></trkpt><trkpt lat="44.1312268" lon="11.3345712"><ele>677.0</ele><time>2026-04-12T08:58:50.92Z</time></trkpt><trkpt lat="44.131174" lon="11.3347211"><ele>674.0</ele><time>2026-04-12T08:58:51.919Z</time></trkpt><trkpt lat="44.1310987" lon="11.3348754"><ele>672.6666666666666</ele><time>2026-04-12T08:58:52.919Z</time></trkpt><trkpt lat="44.1309738" lon="11.3350014"><ele>671.3333333333334</ele><time>2026-04-12T08:58:53.919Z</time></trkpt><trkpt lat="44.1308211" lon="11.3350809"><ele>670.0</ele><time>2026-04-12T08:58:54.92Z</time></trkpt><trkpt lat="44.1306914" lon="11.3351764"><ele>666.6666666666667</ele><time>2026-04-12T08:58:55.919Z</time></trkpt><trkpt lat="44.1305999" lon="11.3353334"><ele>663.3333333333334</ele><time>2026-04-12T08:58:56.92Z</time></trkpt><trkpt lat="44.1305324" lon="11.3355523"><ele>660.0</ele><time>2026-04-12T08:58:57.919Z</time></trkpt><trkpt lat="44.1304808" lon="11.3357812"><ele>660.0</ele><time>2026-04-12T08:58:58.919Z</time></trkpt><trkpt lat="44.130425" lon="11.3359882"><ele>660.0</ele><time>2026-04-12T08:58:59.919Z</time></trkpt><trkpt lat="44.1303539" lon="11.3361451"><ele>660.0</ele><time>2026-04-12T08:59:00.919Z</time></trkpt><trkpt lat="44.1302649" lon="11.3362692"><ele>660.0</ele><time>2026-04-12T08:59:01.919Z</time></trkpt><trkpt lat="44.1301458" lon="11.3363321"><ele>660.0</ele><time>2026-04-12T08:59:02.919Z</time></trkpt><trkpt lat="44.1299986" lon="11.3363566"><ele>660.0</ele><time>2026-04-12T08:59:03.92Z</time></trkpt><trkpt lat="44.1298534" lon="11.3363659"><ele>660.0</ele><time>2026-04-12T08:59:04.919Z</time></trkpt><trkpt lat="44.1297115" lon="11.3364026"><ele>660.0</ele><time>2026-04-12T08:59:05.919Z</time></trkpt><trkpt lat="44.129572" lon="11.3365091"><ele>657.75</ele><time>2026-04-12T08:59:06.919Z</time></trkpt><trkpt lat="44.1294394" lon="11.3366056"><ele>655.5</ele><time>2026-04-12T08:59:07.919Z</time></trkpt><trkpt lat="44.1293011" lon="11.3366307"><ele>653.25</ele><time>2026-04-12T08:59:08.919Z</time></trkpt><trkpt lat="44.1291628" lon="11.3366183"><ele>651.0</ele><time>2026-04-12T08:59:09.919Z</time></trkpt><trkpt lat="44.1290426" lon="11.336626"><ele>645.6666666666666</ele><time>2026-04-12T08:59:10.919Z</time></trkpt><trkpt lat="44.1289141" lon="11.3367115"><ele>640.3333333333333</ele><time>2026-04-12T08:59:11.919Z</time></trkpt><trkpt lat="44.1287725" lon="11.3368478"><ele>635.0</ele><time>2026-04-12T08:59:12.92Z</time></trkpt><trkpt lat="44.1286454" lon="11.3370205"><ele>635.0</ele><time>2026-04-12T08:59:13.919Z</time></trkpt><trkpt lat="44.128533" lon="11.337198"><ele>635.0</ele><time>2026-04-12T08:59:14.919Z</time></trkpt><trkpt lat="44.1284463" lon="11.3373532"><ele>635.0</ele><time>2026-04-12T08:59:15.919Z</time></trkpt><trkpt lat="44.1283653" lon="11.3374876"><ele>635.0</ele><time>2026-04-12T08:59:16.919Z</time></trkpt><trkpt lat="44.1282799" lon="11.3375967"><ele>632.75</ele><time>2026-04-12T08:59:17.919Z</time></trkpt><trkpt lat="44.1281709" lon="11.3376472"><ele>630.5</ele><time>2026-04-12T08:59:18.919Z</time></trkpt><trkpt lat="44.1280398" lon="11.3376193"><ele>628.25</ele><time>2026-04-12T08:59:19.919Z</time></trkpt><trkpt lat="44.1278954" lon="11.3375359"><ele>626.0</ele><time>2026-04-12T08:59:20.919Z</time></trkpt><trkpt lat="44.1277445" lon="11.3374397"><ele>626.0</ele><time>2026-04-12T08:59:21.919Z</time></trkpt><trkpt lat="44.1276026" lon="11.3373801"><ele>626.0</ele><time>2026-04-12T08:59:22.92Z</time></trkpt><trkpt lat="44.1274658" lon="11.3373486"><ele>626.0</ele><time>2026-04-12T08:59:23.919Z</time></trkpt><trkpt lat="44.1273255" lon="11.3373666"><ele>626.0</ele><time>2026-04-12T08:59:24.92Z</time></trkpt><trkpt lat="44.1271792" lon="11.3374291"><ele>625.5</ele><time>2026-04-12T08:59:25.919Z</time></trkpt><trkpt lat="44.1270488" lon="11.3375273"><ele>625.0</ele><time>2026-04-12T08:59:26.92Z</time></trkpt><trkpt lat="44.1269223" lon="11.337646"><ele>624.5</ele><time>2026-04-12T08:59:27.919Z</time></trkpt><trkpt lat="44.1268044" lon="11.3377387"><ele>624.0</ele><time>2026-04-12T08:59:28.919Z</time></trkpt><trkpt lat="44.1266813" lon="11.3378015"><ele>621.6666666666666</ele><time>2026-04-12T08:59:29.92Z</time></trkpt><trkpt lat="44.1265504" lon="11.3378225"><ele>619.3333333333333</ele><time>2026-04-12T08:59:30.919Z</time></trkpt><trkpt lat="44.1264019" lon="11.3378146"><ele>617.0</ele><time>2026-04-12T08:59:31.92Z</time></trkpt><trkpt lat="44.126226" lon="11.3378055"><ele>617.0</ele><time>2026-04-12T08:59:32.919Z</time></trkpt><trkpt lat="44.1260456" lon="11.3377952"><ele>617.0</ele><time>2026-04-12T08:59:33.919Z</time></trkpt><trkpt lat="44.1258545" lon="11.3377874"><ele>617.0</ele><time>2026-04-12T08:59:34.919Z</time></trkpt><trkpt lat="44.1256693" lon="11.3377746"><ele>614.3333333333333</ele><time>2026-04-12T08:59:35.919Z</time></trkpt><trkpt lat="44.1254964" lon="11.3377614"><ele>611.6666666666666</ele><time>2026-04-12T08:59:36.919Z</time></trkpt><trkpt lat="44.1253411" lon="11.3377514"><ele>609.0</ele><time>2026-04-12T08:59:37.92Z</time></trkpt><trkpt lat="44.1251961" lon="11.337739"><ele>609.0</ele><time>2026-04-12T08:59:38.919Z</time></trkpt><trkpt lat="44.125058" lon="11.3377362"><ele>609.0</ele><time>2026-04-12T08:59:39.919Z</time></trkpt><trkpt lat="44.1249199" lon="11.3377719"><ele>609.0</ele><time>2026-04-12T08:59:40.919Z</time></trkpt><trkpt lat="44.1247851" lon="11.3378551"><ele>609.0</ele><time>2026-04-12T08:59:41.919Z</time></trkpt><trkpt lat="44.1246635" lon="11.337987"><ele>606.6666666666666</ele><time>2026-04-12T08:59:42.919Z</time></trkpt><trkpt lat="44.124556" lon="11.3381726"><ele>604.3333333333333</ele><time>2026-04-12T08:59:43.92Z</time></trkpt><trkpt lat="44.1244538" lon="11.3383582"><ele>602.0</ele><time>2026-04-12T08:59:44.919Z</time></trkpt><trkpt lat="44.1243379" lon="11.3385073"><ele>602.0</ele><time>2026-04-12T08:59:45.919Z</time></trkpt><trkpt lat="44.1241887" lon="11.3386351"><ele>602.0</ele><time>2026-04-12T08:59:46.919Z</time></trkpt><trkpt lat="44.1240274" lon="11.3387344"><ele>602.0</ele><time>2026-04-12T08:59:47.919Z</time></trkpt><trkpt lat="44.1238649" lon="11.3388297"><ele>599.3333333333333</ele><time>2026-04-12T08:59:48.92Z</time></trkpt><trkpt lat="44.1237073" lon="11.3389073"><ele>596.6666666666666</ele><time>2026-04-12T08:59:49.92Z</time></trkpt><trkpt lat="44.1235524" lon="11.338981"><ele>594.0</ele><time>2026-04-12T08:59:50.919Z</time></trkpt><trkpt lat="44.1233982" lon="11.3390224"><ele>594.0</ele><time>2026-04-12T08:59:51.919Z</time></trkpt><trkpt lat="44.1232374" lon="11.3390133"><ele>594.0</ele><time>2026-04-12T08:59:52.919Z</time></trkpt><trkpt lat="44.1230695" lon="11.3389755"><ele>594.0</ele><time>2026-04-12T08:59:53.919Z</time></trkpt><trkpt lat="44.122893" lon="11.3389609"><ele>589.0</ele><time>2026-04-12T08:59:54.919Z</time></trkpt><trkpt lat="44.1227109" lon="11.3389797"><ele>584.0</ele><time>2026-04-12T08:59:55.919Z</time></trkpt><trkpt lat="44.1225164" lon="11.3390345"><ele>579.0</ele><time>2026-04-12T08:59:56.919Z</time></trkpt><trkpt lat="44.1223268" lon="11.3391194"><ele>577.6666666666666</ele><time>2026-04-12T08:59:57.919Z</time></trkpt><trkpt lat="44.1221549" lon="11.3392413"><ele>576.3333333333333</ele><time>2026-04-12T08:59:58.919Z</time></trkpt><trkpt lat="44.1219879" lon="11.3393835"><ele>575.0</ele><time>2026-04-12T08:59:59.919Z</time></trkpt><trkpt lat="44.1218249" lon="11.3395169"><ele>575.0</ele><time>2026-04-12T09:00:00.92Z</time></trkpt><trkpt lat="44.1216443" lon="11.3396075"><ele>575.0</ele><time>2026-04-12T09:00:01.92Z</time></trkpt><trkpt lat="44.1214478" lon="11.3396764"><ele>575.0</ele><time>2026-04-12T09:00:02.92Z</time></trkpt><trkpt lat="44.1212448" lon="11.339746"><ele>575.6666666666666</ele><time>2026-04-12T09:00:03.92Z</time></trkpt><trkpt lat="44.1210495" lon="11.3398193"><ele>576.3333333333334</ele><time>2026-04-12T09:00:04.921Z</time></trkpt><trkpt lat="44.1208616" lon="11.339887"><ele>577.0</ele><time>2026-04-12T09:00:05.92Z</time></trkpt><trkpt lat="44.1206801" lon="11.3399304"><ele>577.3333333333334</ele><time>2026-04-12T09:00:06.92Z</time></trkpt><trkpt lat="44.120498" lon="11.3399451"><ele>577.6666666666666</ele><time>2026-04-12T09:00:07.921Z</time></trkpt><trkpt lat="44.1203162" lon="11.3399486"><ele>578.0</ele><time>2026-04-12T09:00:08.92Z</time></trkpt><trkpt lat="44.1201416" lon="11.3399345"><ele>578.0</ele><time>2026-04-12T09:00:09.92Z</time></trkpt><trkpt lat="44.1199819" lon="11.3399298"><ele>578.0</ele><time>2026-04-12T09:00:10.92Z</time></trkpt><trkpt lat="44.1198254" lon="11.3399194"><ele>578.0</ele><time>2026-04-12T09:00:11.921Z</time></trkpt><trkpt lat="44.1196767" lon="11.3399209"><ele>579.0</ele><time>2026-04-12T09:00:12.92Z</time></trkpt><trkpt lat="44.1195363" lon="11.33994"><ele>580.0</ele><time>2026-04-12T09:00:13.92Z</time></trkpt><trkpt lat="44.1194058" lon="11.3399844"><ele>581.0</ele><time>2026-04-12T09:00:14.92Z</time></trkpt><trkpt lat="44.1192922" lon="11.3400747"><ele>582.0</ele><time>2026-04-12T09:00:15.92Z</time></trkpt><trkpt lat="44.1191766" lon="11.3402277"><ele>581.6666666666666</ele><time>2026-04-12T09:00:16.92Z</time></trkpt><trkpt lat="44.1190414" lon="11.3404351"><ele>581.3333333333333</ele><time>2026-04-12T09:00:17.921Z</time></trkpt><trkpt lat="44.1188966" lon="11.3406653"><ele>581.0</ele><time>2026-04-12T09:00:18.92Z</time></trkpt><trkpt lat="44.1187619" lon="11.3408938"><ele>583.3333333333333</ele><time>2026-04-12T09:00:19.92Z</time></trkpt><trkpt lat="44.1186441" lon="11.3411074"><ele>585.6666666666666</ele><time>2026-04-12T09:00:20.921Z</time></trkpt><trkpt lat="44.1185393" lon="11.3412997"><ele>588.0</ele><time>2026-04-12T09:00:21.92Z</time></trkpt><trkpt lat="44.1184362" lon="11.3414787"><ele>587.3333333333334</ele><time>2026-04-12T09:00:22.921Z</time></trkpt><trkpt lat="44.118317" lon="11.3416426"><ele>586.6666666666667</ele><time>2026-04-12T09:00:23.92Z</time></trkpt><trkpt lat="44.1181771" lon="11.3418029"><ele>586.0</ele><time>2026-04-12T09:00:24.92Z</time></trkpt><trkpt lat="44.1180294" lon="11.3419438"><ele>586.0</ele><time>2026-04-12T09:00:25.92Z</time></trkpt><trkpt lat="44.1178889" lon="11.3420818"><ele>586.0</ele><time>2026-04-12T09:00:26.921Z</time></trkpt><trkpt lat="44.1177473" lon="11.3422058"><ele>586.0</ele><time>2026-04-12T09:00:27.92Z</time></trkpt><trkpt lat="44.1176162" lon="11.3423292"><ele>586.6666666666667</ele><time>2026-04-12T09:00:28.92Z</time></trkpt><trkpt lat="44.117503" lon="11.3424606"><ele>587.3333333333334</ele><time>2026-04-12T09:00:29.921Z</time></trkpt><trkpt lat="44.1173975" lon="11.3426225"><ele>588.0</ele><time>2026-04-12T09:00:30.92Z</time></trkpt><trkpt lat="44.117284" lon="11.3427972"><ele>585.3333333333334</ele><time>2026-04-12T09:00:31.92Z</time></trkpt><trkpt lat="44.1171908" lon="11.3430105"><ele>582.6666666666667</ele><time>2026-04-12T09:00:32.92Z</time></trkpt><trkpt lat="44.1171068" lon="11.3432061"><ele>580.0</ele><time>2026-04-12T09:00:33.92Z</time></trkpt><trkpt lat="44.1170328" lon="11.3433988"><ele>580.0</ele><time>2026-04-12T09:00:34.92Z</time></trkpt><trkpt lat="44.116991" lon="11.3435967"><ele>580.0</ele><time>2026-04-12T09:00:35.92Z</time></trkpt><trkpt lat="44.1169732" lon="11.3437891"><ele>580.0</ele><time>2026-04-12T09:00:36.92Z</time></trkpt><trkpt lat="44.1169966" lon="11.3439669"><ele>580.0</ele><time>2026-04-12T09:00:37.92Z</time></trkpt><trkpt lat="44.117061" lon="11.3441439"><ele>578.5</ele><time>2026-04-12T09:00:38.92Z</time></trkpt><trkpt lat="44.1171367" lon="11.3443092"><ele>577.0</ele><time>2026-04-12T09:00:39.92Z</time></trkpt><trkpt lat="44.1172021" lon="11.3444871"><ele>575.5</ele><time>2026-04-12T09:00:40.92Z</time></trkpt><trkpt lat="44.1172306" lon="11.3447054"><ele>574.0</ele><time>2026-04-12T09:00:41.92Z</time></trkpt><trkpt lat="44.1172301" lon="11.3449579"><ele>570.3333333333334</ele><time>2026-04-12T09:00:42.921Z</time></trkpt><trkpt lat="44.1171989" lon="11.3452304"><ele>566.6666666666666</ele><time>2026-04-12T09:00:43.92Z</time></trkpt><trkpt lat="44.1171253" lon="11.3455136"><ele>563.0</ele><time>2026-04-12T09:00:44.92Z</time></trkpt><trkpt lat="44.1170416" lon="11.3457646"><ele>561.0</ele><time>2026-04-12T09:00:45.92Z</time></trkpt><trkpt lat="44.1169731" lon="11.3459871"><ele>559.0</ele><time>2026-04-12T09:00:46.92Z</time></trkpt><trkpt lat="44.1169282" lon="11.3462129"><ele>557.0</ele><time>2026-04-12T09:00:47.92Z</time></trkpt><trkpt lat="44.1169094" lon="11.3464369"><ele>556.3333333333333</ele><time>2026-04-12T09:00:48.92Z</time></trkpt><trkpt lat="44.1169098" lon="11.3466585"><ele>555.6666666666666</ele><time>2026-04-12T09:00:49.921Z</time></trkpt><trkpt lat="44.1169367" lon="11.3468817"><ele>555.0</ele><time>2026-04-12T09:00:50.92Z</time></trkpt><trkpt lat="44.1169959" lon="11.3471023"><ele>552.0</ele><time>2026-04-12T09:00:51.921Z</time></trkpt><trkpt lat="44.1170907" lon="11.3473151"><ele>549.0</ele><time>2026-04-12T09:00:52.92Z</time></trkpt><trkpt lat="44.1171899" lon="11.3475286"><ele>546.0</ele><time>2026-04-12T09:00:53.92Z</time></trkpt><trkpt lat="44.117265" lon="11.3477472"><ele>546.0</ele><time>2026-04-12T09:00:54.92Z</time></trkpt><trkpt lat="44.1173142" lon="11.3479838"><ele>546.0</ele><time>2026-04-12T09:00:55.92Z</time></trkpt><trkpt lat="44.1173337" lon="11.3482329"><ele>546.0</ele><time>2026-04-12T09:00:56.921Z</time></trkpt><trkpt lat="44.1173458" lon="11.3484685"><ele>543.6666666666666</ele><time>2026-04-12T09:00:57.92Z</time></trkpt><trkpt lat="44.1173529" lon="11.3486965"><ele>541.3333333333333</ele><time>2026-04-12T09:00:58.92Z</time></trkpt><trkpt lat="44.1173593" lon="11.3489309"><ele>539.0</ele><time>2026-04-12T09:00:59.92Z</time></trkpt><trkpt lat="44.117353" lon="11.3491616"><ele>539.0</ele><time>2026-04-12T09:01:00.92Z</time></trkpt><trkpt lat="44.1173357" lon="11.3494035"><ele>539.0</ele><time>2026-04-12T09:01:01.92Z</time></trkpt><trkpt lat="44.1173165" lon="11.349644"><ele>539.0</ele><time>2026-04-12T09:01:02.921Z</time></trkpt><trkpt lat="44.1173134" lon="11.3498606"><ele>539.0</ele><time>2026-04-12T09:01:03.92Z</time></trkpt><trkpt lat="44.1173185" lon="11.3500677"><ele>539.0</ele><time>2026-04-12T09:01:04.92Z</time></trkpt><trkpt lat="44.1173339" lon="11.3502746"><ele>539.0</ele><time>2026-04-12T09:01:05.92Z</time></trkpt><trkpt lat="44.1173721" lon="11.3504928"><ele>540.0</ele><time>2026-04-12T09:01:06.92Z</time></trkpt><trkpt lat="44.1174229" lon="11.3507175"><ele>541.0</ele><time>2026-04-12T09:01:07.92Z</time></trkpt><trkpt lat="44.1174736" lon="11.3509156"><ele>542.0</ele><time>2026-04-12T09:01:08.92Z</time></trkpt><trkpt lat="44.1175068" lon="11.3511127"><ele>542.0</ele><time>2026-04-12T09:01:09.92Z</time></trkpt><trkpt lat="44.1175078" lon="11.3513055"><ele>542.0</ele><time>2026-04-12T09:01:10.92Z</time></trkpt><trkpt lat="44.1174771" lon="11.351471"><ele>542.0</ele><time>2026-04-12T09:01:11.92Z</time></trkpt><trkpt lat="44.1174413" lon="11.3516173"><ele>542.0</ele><time>2026-04-12T09:01:12.92Z</time></trkpt><trkpt lat="44.1174356" lon="11.3517502"><ele>540.75</ele><time>2026-04-12T09:01:13.921Z</time></trkpt><trkpt lat="44.1174751" lon="11.3518874"><ele>539.5</ele><time>2026-04-12T09:01:14.921Z</time></trkpt><trkpt lat="44.1175586" lon="11.3520179"><ele>538.25</ele><time>2026-04-12T09:01:15.92Z</time></trkpt><trkpt lat="44.1176415" lon="11.3521322"><ele>537.0</ele><time>2026-04-12T09:01:16.92Z</time></trkpt><trkpt lat="44.1176925" lon="11.3522812"><ele>534.0</ele><time>2026-04-12T09:01:17.92Z</time></trkpt><trkpt lat="44.1176888" lon="11.3525014"><ele>531.0</ele><time>2026-04-12T09:01:18.92Z</time></trkpt><trkpt lat="44.1176609" lon="11.3527459"><ele>528.0</ele><time>2026-04-12T09:01:19.92Z</time></trkpt><trkpt lat="44.1176209" lon="11.3529888"><ele>526.0</ele><time>2026-04-12T09:01:20.92Z</time></trkpt><trkpt lat="44.117575" lon="11.3532218"><ele>524.0</ele><time>2026-04-12T09:01:21.92Z</time></trkpt><trkpt lat="44.1175191" lon="11.3534122"><ele>522.0</ele><time>2026-04-12T09:01:22.92Z</time></trkpt><trkpt lat="44.1174583" lon="11.353578"><ele>520.0</ele><time>2026-04-12T09:01:23.92Z</time></trkpt><trkpt lat="44.1173811" lon="11.3537023"><ele>518.0</ele><time>2026-04-12T09:01:24.92Z</time></trkpt><trkpt lat="44.1172804" lon="11.3537916"><ele>516.0</ele><time>2026-04-12T09:01:25.92Z</time></trkpt><trkpt lat="44.11716" lon="11.3538539"><ele>514.0</ele><time>2026-04-12T09:01:26.922Z</time></trkpt><trkpt lat="44.1170276" lon="11.3538753"><ele>514.0</ele><time>2026-04-12T09:01:27.92Z</time></trkpt><trkpt lat="44.1169145" lon="11.3538577"><ele>514.0</ele><time>2026-04-12T09:01:28.921Z</time></trkpt><trkpt lat="44.1168226" lon="11.3538542"><ele>514.0</ele><time>2026-04-12T09:01:29.921Z</time></trkpt><trkpt lat="44.1167427" lon="11.3538956"><ele>514.0</ele><time>2026-04-12T09:01:30.921Z</time></trkpt><trkpt lat="44.1166734" lon="11.3539943"><ele>514.0</ele><time>2026-04-12T09:01:31.921Z</time></trkpt><trkpt lat="44.1166315" lon="11.3541548"><ele>513.75</ele><time>2026-04-12T09:01:32.921Z</time></trkpt><trkpt lat="44.1166029" lon="11.3543362"><ele>513.5</ele><time>2026-04-12T09:01:33.921Z</time></trkpt><trkpt lat="44.1165769" lon="11.3545339"><ele>513.25</ele><time>2026-04-12T09:01:34.921Z</time></trkpt><trkpt lat="44.1165175" lon="11.3547199"><ele>513.0</ele><time>2026-04-12T09:01:35.921Z</time></trkpt><trkpt lat="44.1164293" lon="11.3548929"><ele>508.5</ele><time>2026-04-12T09:01:36.921Z</time></trkpt><trkpt lat="44.1163592" lon="11.3550553"><ele>504.0</ele><time>2026-04-12T09:01:37.921Z</time></trkpt><trkpt lat="44.1163281" lon="11.3552383"><ele>499.5</ele><time>2026-04-12T09:01:38.922Z</time></trkpt><trkpt lat="44.1163339" lon="11.3554504"><ele>495.0</ele><time>2026-04-12T09:01:39.921Z</time></trkpt><trkpt lat="44.1163651" lon="11.3556666"><ele>493.5</ele><time>2026-04-12T09:01:40.921Z</time></trkpt><trkpt lat="44.1164184" lon="11.3558618"><ele>492.0</ele><time>2026-04-12T09:01:41.921Z</time></trkpt><trkpt lat="44.1164847" lon="11.3560197"><ele>490.5</ele><time>2026-04-12T09:01:42.921Z</time></trkpt><trkpt lat="44.1165494" lon="11.3561607"><ele>489.0</ele><time>2026-04-12T09:01:43.921Z</time></trkpt><trkpt lat="44.1165861" lon="11.3563168"><ele>491.0</ele><time>2026-04-12T09:01:44.922Z</time></trkpt><trkpt lat="44.1165808" lon="11.356482"><ele>493.0</ele><time>2026-04-12T09:01:45.921Z</time></trkpt><trkpt lat="44.1165235" lon="11.3566353"><ele>495.0</ele><time>2026-04-12T09:01:46.921Z</time></trkpt><trkpt lat="44.1164764" lon="11.3568149"><ele>497.0</ele><time>2026-04-12T09:01:47.921Z</time></trkpt><trkpt lat="44.1164673" lon="11.3570423"><ele>491.0</ele><time>2026-04-12T09:01:48.921Z</time></trkpt><trkpt lat="44.1164719" lon="11.3572619"><ele>485.0</ele><time>2026-04-12T09:01:49.921Z</time></trkpt><trkpt lat="44.116488" lon="11.3574613"><ele>479.0</ele><time>2026-04-12T09:01:50.921Z</time></trkpt><trkpt lat="44.1165071" lon="11.3576404"><ele>473.0</ele><time>2026-04-12T09:01:51.921Z</time></trkpt><trkpt lat="44.1165357" lon="11.3578131"><ele>473.0</ele><time>2026-04-12T09:01:52.921Z</time></trkpt><trkpt lat="44.1165579" lon="11.357987"><ele>473.0</ele><time>2026-04-12T09:01:53.921Z</time></trkpt><trkpt lat="44.1165763" lon="11.358147"><ele>473.0</ele><time>2026-04-12T09:01:54.922Z</time></trkpt><trkpt lat="44.1166014" lon="11.3583077"><ele>473.0</ele><time>2026-04-12T09:01:55.921Z</time></trkpt><trkpt lat="44.1166403" lon="11.3584635"><ele>471.75</ele><time>2026-04-12T09:01:56.921Z</time></trkpt><trkpt lat="44.1166891" lon="11.3586316"><ele>470.5</ele><time>2026-04-12T09:01:57.921Z</time></trkpt><trkpt lat="44.1167435" lon="11.3588084"><ele>469.25</ele><time>2026-04-12T09:01:58.922Z</time></trkpt><trkpt lat="44.1167906" lon="11.3589794"><ele>468.0</ele><time>2026-04-12T09:01:59.921Z</time></trkpt><trkpt lat="44.1168398" lon="11.3591372"><ele>468.0</ele><time>2026-04-12T09:02:00.922Z</time></trkpt><trkpt lat="44.1169003" lon="11.359278"><ele>468.0</ele><time>2026-04-12T09:02:01.922Z</time></trkpt><trkpt lat="44.1169973" lon="11.3593873"><ele>468.0</ele><time>2026-04-12T09:02:02.922Z</time></trkpt><trkpt lat="44.1171138" lon="11.3594768"><ele>468.0</ele><time>2026-04-12T09:02:03.921Z</time></trkpt><trkpt lat="44.1172575" lon="11.3595391"><ele>468.0</ele><time>2026-04-12T09:02:04.921Z</time></trkpt><trkpt lat="44.1173981" lon="11.3595908"><ele>468.0</ele><time>2026-04-12T09:02:05.921Z</time></trkpt><trkpt lat="44.1175415" lon="11.3596461"><ele>468.0</ele><time>2026-04-12T09:02:06.921Z</time></trkpt><trkpt lat="44.1176882" lon="11.3597123"><ele>468.0</ele><time>2026-04-12T09:02:07.922Z</time></trkpt><trkpt lat="44.1178254" lon="11.3597768"><ele>466.5</ele><time>2026-04-12T09:02:08.921Z</time></trkpt><trkpt lat="44.1179685" lon="11.3598277"><ele>465.0</ele><time>2026-04-12T09:02:09.921Z</time></trkpt><trkpt lat="44.1181124" lon="11.359873"><ele>463.5</ele><time>2026-04-12T09:02:10.921Z</time></trkpt><trkpt lat="44.1182541" lon="11.3599111"><ele>462.0</ele><time>2026-04-12T09:02:11.921Z</time></trkpt><trkpt lat="44.1183992" lon="11.3599428"><ele>462.0</ele><time>2026-04-12T09:02:12.921Z</time></trkpt><trkpt lat="44.1185315" lon="11.3599487"><ele>462.0</ele><time>2026-04-12T09:02:13.921Z</time></trkpt><trkpt lat="44.118662" lon="11.35994"><ele>462.0</ele><time>2026-04-12T09:02:14.922Z</time></trkpt><trkpt lat="44.1187778" lon="11.3599071"><ele>462.0</ele><time>2026-04-12T09:02:15.922Z</time></trkpt><trkpt lat="44.118871" lon="11.3598896"><ele>462.0</ele><time>2026-04-12T09:02:16.922Z</time></trkpt><trkpt lat="44.1189508" lon="11.35988"><ele>462.0</ele><time>2026-04-12T09:02:17.921Z</time></trkpt><trkpt lat="44.119015" lon="11.3598922"><ele>462.0</ele><time>2026-04-12T09:02:18.921Z</time></trkpt><trkpt lat="44.1190741" lon="11.3600153"><ele>462.0</ele><time>2026-04-12T09:02:20.921Z</time></trkpt><trkpt lat="44.1190493" lon="11.3601145"><ele>462.0</ele><time>2026-04-12T09:02:21.921Z</time></trkpt><trkpt lat="44.1189781" lon="11.3602269"><ele>462.0</ele><time>2026-04-12T09:02:22.921Z</time></trkpt><trkpt lat="44.1188861" lon="11.3603369"><ele>462.0</ele><time>2026-04-12T09:02:23.921Z</time></trkpt><trkpt lat="44.1187922" lon="11.3604473"><ele>462.0</ele><time>2026-04-12T09:02:24.921Z</time></trkpt><trkpt lat="44.1187042" lon="11.3605556"><ele>462.0</ele><time>2026-04-12T09:02:25.921Z</time></trkpt><trkpt lat="44.1186229" lon="11.3606619"><ele>462.0</ele><time>2026-04-12T09:02:26.921Z</time></trkpt><trkpt lat="44.1185462" lon="11.3607654"><ele>459.6</ele><time>2026-04-12T09:02:27.921Z</time></trkpt><trkpt lat="44.1184734" lon="11.360866"><ele>457.20000000000005</ele><time>2026-04-12T09:02:28.922Z</time></trkpt><trkpt lat="44.1184007" lon="11.3609644"><ele>454.8</ele><time>2026-04-12T09:02:29.921Z</time></trkpt><trkpt lat="44.1183263" lon="11.3610602"><ele>452.4</ele><time>2026-04-12T09:02:30.921Z</time></trkpt><trkpt lat="44.1182534" lon="11.3611512"><ele>450.0</ele><time>2026-04-12T09:02:31.921Z</time></trkpt><trkpt lat="44.1181857" lon="11.3612409"><ele>450.0</ele><time>2026-04-12T09:02:32.921Z</time></trkpt><trkpt lat="44.1181233" lon="11.3613294"><ele>450.0</ele><time>2026-04-12T09:02:33.921Z</time></trkpt><trkpt lat="44.1180771" lon="11.3614279"><ele>450.0</ele><time>2026-04-12T09:02:34.921Z</time></trkpt><trkpt lat="44.1180445" lon="11.3615298"><ele>450.0</ele><time>2026-04-12T09:02:35.921Z</time></trkpt><trkpt lat="44.1180622" lon="11.3616533"><ele>450.0</ele><time>2026-04-12T09:02:36.921Z</time></trkpt><trkpt lat="44.1181075" lon="11.3617815"><ele>450.0</ele><time>2026-04-12T09:02:37.921Z</time></trkpt><trkpt lat="44.1181674" lon="11.3619074"><ele>447.8</ele><time>2026-04-12T09:02:38.922Z</time></trkpt><trkpt lat="44.1182269" lon="11.3620349"><ele>445.6</ele><time>2026-04-12T09:02:39.922Z</time></trkpt><trkpt lat="44.1182735" lon="11.3621529"><ele>443.4</ele><time>2026-04-12T09:02:40.921Z</time></trkpt><trkpt lat="44.1182792" lon="11.3622757"><ele>441.2</ele><time>2026-04-12T09:02:41.921Z</time></trkpt><trkpt lat="44.1182637" lon="11.362398"><ele>439.0</ele><time>2026-04-12T09:02:42.921Z</time></trkpt><trkpt lat="44.1182354" lon="11.3625124"><ele>437.6</ele><time>2026-04-12T09:02:43.921Z</time></trkpt><trkpt lat="44.1181666" lon="11.3625922"><ele>436.2</ele><time>2026-04-12T09:02:44.921Z</time></trkpt><trkpt lat="44.1180701" lon="11.3626426"><ele>434.80000000000007</ele><time>2026-04-12T09:02:45.922Z</time></trkpt><trkpt lat="44.117958" lon="11.3626726"><ele>433.40000000000003</ele><time>2026-04-12T09:02:46.921Z</time></trkpt><trkpt lat="44.1178441" lon="11.3626927"><ele>432.0</ele><time>2026-04-12T09:02:47.922Z</time></trkpt><trkpt lat="44.1177378" lon="11.3627107"><ele>432.0</ele><time>2026-04-12T09:02:48.922Z</time></trkpt><trkpt lat="44.1176397" lon="11.3627273"><ele>432.0</ele><time>2026-04-12T09:02:49.921Z</time></trkpt><trkpt lat="44.1175506" lon="11.3627402"><ele>432.0</ele><time>2026-04-12T09:02:50.921Z</time></trkpt><trkpt lat="44.1174695" lon="11.36275"><ele>432.0</ele><time>2026-04-12T09:02:51.921Z</time></trkpt><trkpt lat="44.1173945" lon="11.3627615"><ele>432.0</ele><time>2026-04-12T09:02:52.922Z</time></trkpt><trkpt lat="44.117323" lon="11.3627743"><ele>432.0</ele><time>2026-04-12T09:02:53.921Z</time></trkpt><trkpt lat="44.1172529" lon="11.3627872"><ele>432.1666666666667</ele><time>2026-04-12T09:02:54.921Z</time></trkpt><trkpt lat="44.1171822" lon="11.3627989"><ele>432.33333333333337</ele><time>2026-04-12T09:02:55.922Z</time></trkpt><trkpt lat="44.117112" lon="11.3628272"><ele>432.5</ele><time>2026-04-12T09:02:56.921Z</time></trkpt><trkpt lat="44.1170578" lon="11.3628915"><ele>432.6666666666667</ele><time>2026-04-12T09:02:57.922Z</time></trkpt><trkpt lat="44.1170309" lon="11.3629862"><ele>432.83333333333337</ele><time>2026-04-12T09:02:58.922Z</time></trkpt><trkpt lat="44.1170267" lon="11.3631169"><ele>433.0</ele><time>2026-04-12T09:02:59.922Z</time></trkpt><trkpt lat="44.1170364" lon="11.3632977"><ele>432.25</ele><time>2026-04-12T09:03:00.922Z</time></trkpt><trkpt lat="44.1170463" lon="11.3635012"><ele>431.5</ele><time>2026-04-12T09:03:01.922Z</time></trkpt><trkpt lat="44.1170491" lon="11.3637027"><ele>430.75</ele><time>2026-04-12T09:03:02.922Z</time></trkpt><trkpt lat="44.1170493" lon="11.3639039"><ele>430.0</ele><time>2026-04-12T09:03:03.922Z</time></trkpt><trkpt lat="44.11705" lon="11.3641135"><ele>430.0</ele><time>2026-04-12T09:03:04.922Z</time></trkpt><trkpt lat="44.117051" lon="11.3643347"><ele>430.0</ele><time>2026-04-12T09:03:05.923Z</time></trkpt><trkpt lat="44.1170503" lon="11.3645748"><ele>430.0</ele><time>2026-04-12T09:03:06.922Z</time></trkpt><trkpt lat="44.1170401" lon="11.3648326"><ele>429.6666666666667</ele><time>2026-04-12T09:03:07.922Z</time></trkpt><trkpt lat="44.1170153" lon="11.3650854"><ele>429.33333333333337</ele><time>2026-04-12T09:03:08.922Z</time></trkpt><trkpt lat="44.1169784" lon="11.3653316"><ele>429.0</ele><time>2026-04-12T09:03:09.922Z</time></trkpt><trkpt lat="44.1169331" lon="11.3655734"><ele>428.66666666666663</ele><time>2026-04-12T09:03:10.922Z</time></trkpt><trkpt lat="44.1168803" lon="11.3658197"><ele>428.3333333333333</ele><time>2026-04-12T09:03:11.922Z</time></trkpt><trkpt lat="44.116817" lon="11.3660893"><ele>428.0</ele><time>2026-04-12T09:03:12.923Z</time></trkpt><trkpt lat="44.1167432" lon="11.3663836"><ele>427.5</ele><time>2026-04-12T09:03:13.922Z</time></trkpt><trkpt lat="44.1166651" lon="11.3666897"><ele>427.0</ele><time>2026-04-12T09:03:14.922Z</time></trkpt><trkpt lat="44.1165904" lon="11.3669909"><ele>427.0</ele><time>2026-04-12T09:03:15.922Z</time></trkpt><trkpt lat="44.1165289" lon="11.3672984"><ele>427.0</ele><time>2026-04-12T09:03:16.922Z</time></trkpt><trkpt lat="44.1164892" lon="11.3676148"><ele>427.0</ele><time>2026-04-12T09:03:17.923Z</time></trkpt><trkpt lat="44.1164678" lon="11.3679264"><ele>427.0</ele><time>2026-04-12T09:03:18.922Z</time></trkpt><trkpt lat="44.1164643" lon="11.3682433"><ele>427.0</ele><time>2026-04-12T09:03:19.922Z</time></trkpt><trkpt lat="44.1164817" lon="11.3685531"><ele>427.0</ele><time>2026-04-12T09:03:20.922Z</time></trkpt><trkpt lat="44.1165108" lon="11.3688645"><ele>427.0</ele><time>2026-04-12T09:03:21.922Z</time></trkpt><trkpt lat="44.1165472" lon="11.3691709"><ele>426.0</ele><time>2026-04-12T09:03:22.922Z</time></trkpt><trkpt lat="44.1165855" lon="11.3694741"><ele>425.0</ele><time>2026-04-12T09:03:23.923Z</time></trkpt><trkpt lat="44.1166181" lon="11.3697677"><ele>424.0</ele><time>2026-04-12T09:03:24.922Z</time></trkpt><trkpt lat="44.1166546" lon="11.3700646"><ele>424.0</ele><time>2026-04-12T09:03:25.922Z</time></trkpt><trkpt lat="44.1166892" lon="11.3703599"><ele>424.0</ele><time>2026-04-12T09:03:26.922Z</time></trkpt><trkpt lat="44.1167269" lon="11.3706487"><ele>424.0</ele><time>2026-04-12T09:03:27.922Z</time></trkpt><trkpt lat="44.1167607" lon="11.3709307"><ele>423.33333333333337</ele><time>2026-04-12T09:03:28.922Z</time></trkpt><trkpt lat="44.1167851" lon="11.371223"><ele>422.66666666666663</ele><time>2026-04-12T09:03:29.922Z</time></trkpt><trkpt lat="44.1168008" lon="11.3715186"><ele>422.0</ele><time>2026-04-12T09:03:30.922Z</time></trkpt><trkpt lat="44.1167997" lon="11.3718323"><ele>422.0</ele><time>2026-04-12T09:03:31.922Z</time></trkpt><trkpt lat="44.1167768" lon="11.3721563"><ele>422.0</ele><time>2026-04-12T09:03:32.922Z</time></trkpt><trkpt lat="44.1167399" lon="11.3724858"><ele>422.0</ele><time>2026-04-12T09:03:33.922Z</time></trkpt><trkpt lat="44.1167008" lon="11.3727969"><ele>422.0</ele><time>2026-04-12T09:03:34.923Z</time></trkpt><trkpt lat="44.1166676" lon="11.3730944"><ele>422.0</ele><time>2026-04-12T09:03:35.922Z</time></trkpt><trkpt lat="44.1166394" lon="11.3733715"><ele>421.66666666666663</ele><time>2026-04-12T09:03:36.922Z</time></trkpt><trkpt lat="44.1166248" lon="11.3736402"><ele>421.33333333333337</ele><time>2026-04-12T09:03:37.922Z</time></trkpt><trkpt lat="44.1166297" lon="11.3739064"><ele>421.0</ele><time>2026-04-12T09:03:38.923Z</time></trkpt><trkpt lat="44.1166546" lon="11.3741595"><ele>421.0</ele><time>2026-04-12T09:03:39.922Z</time></trkpt><trkpt lat="44.1166967" lon="11.3744026"><ele>421.0</ele><time>2026-04-12T09:03:40.923Z</time></trkpt><trkpt lat="44.1167483" lon="11.3746376"><ele>421.0</ele><time>2026-04-12T09:03:41.922Z</time></trkpt><trkpt lat="44.1168086" lon="11.3748406"><ele>420.75</ele><time>2026-04-12T09:03:42.923Z</time></trkpt><trkpt lat="44.1168782" lon="11.37502"><ele>420.5</ele><time>2026-04-12T09:03:43.923Z</time></trkpt><trkpt lat="44.1169588" lon="11.3751896"><ele>420.25</ele><time>2026-04-12T09:03:44.922Z</time></trkpt><trkpt lat="44.1170434" lon="11.3753445"><ele>420.0</ele><time>2026-04-12T09:03:45.923Z</time></trkpt><trkpt lat="44.1171303" lon="11.3754864"><ele>420.2</ele><time>2026-04-12T09:03:46.922Z</time></trkpt><trkpt lat="44.1171964" lon="11.3756236"><ele>420.4</ele><time>2026-04-12T09:03:47.922Z</time></trkpt><trkpt lat="44.1172365" lon="11.3757689"><ele>420.6</ele><time>2026-04-12T09:03:48.922Z</time></trkpt><trkpt lat="44.1172569" lon="11.3759076"><ele>420.8</ele><time>2026-04-12T09:03:49.922Z</time></trkpt><trkpt lat="44.1172497" lon="11.3760629"><ele>421.0</ele><time>2026-04-12T09:03:50.923Z</time></trkpt><trkpt lat="44.1172126" lon="11.3762384"><ele>421.25</ele><time>2026-04-12T09:03:51.922Z</time></trkpt><trkpt lat="44.1171763" lon="11.3764138"><ele>421.5</ele><time>2026-04-12T09:03:52.922Z</time></trkpt><trkpt lat="44.1171381" lon="11.3765832"><ele>421.75</ele><time>2026-04-12T09:03:53.922Z</time></trkpt><trkpt lat="44.1171102" lon="11.3767458"><ele>422.0</ele><time>2026-04-12T09:03:54.923Z</time></trkpt><trkpt lat="44.1170885" lon="11.3768977"><ele>422.0</ele><time>2026-04-12T09:03:55.923Z</time></trkpt><trkpt lat="44.117075" lon="11.3770345"><ele>422.0</ele><time>2026-04-12T09:03:56.922Z</time></trkpt><trkpt lat="44.1170781" lon="11.3771639"><ele>422.0</ele><time>2026-04-12T09:03:57.923Z</time></trkpt><trkpt lat="44.1170896" lon="11.3772945"><ele>422.0</ele><time>2026-04-12T09:03:58.922Z</time></trkpt><trkpt lat="44.1171071" lon="11.3774203"><ele>422.0</ele><time>2026-04-12T09:03:59.922Z</time></trkpt><trkpt lat="44.1171182" lon="11.3775292"><ele>421.8333333333333</ele><time>2026-04-12T09:04:00.922Z</time></trkpt><trkpt lat="44.117133" lon="11.3776354"><ele>421.66666666666663</ele><time>2026-04-12T09:04:01.922Z</time></trkpt><trkpt lat="44.1171466" lon="11.3777343"><ele>421.5</ele><time>2026-04-12T09:04:02.923Z</time></trkpt><trkpt lat="44.1171557" lon="11.3778288"><ele>421.33333333333337</ele><time>2026-04-12T09:04:03.923Z</time></trkpt><trkpt lat="44.1171745" lon="11.3779607"><ele>421.1666666666667</ele><time>2026-04-12T09:04:05.922Z</time></trkpt><trkpt lat="44.1171877" lon="11.378064"><ele>421.0</ele><time>2026-04-12T09:04:38.923Z</time></trkpt><trkpt lat="44.1172014" lon="11.378212"><ele>421.0</ele><time>2026-04-12T09:04:40.923Z</time></trkpt><trkpt lat="44.1172157" lon="11.3783284"><ele>421.0</ele><time>2026-04-12T09:04:41.923Z</time></trkpt><trkpt lat="44.1172326" lon="11.3784552"><ele>421.0</ele><time>2026-04-12T09:04:42.923Z</time></trkpt><trkpt lat="44.1172504" lon="11.3785926"><ele>421.0</ele><time>2026-04-12T09:04:43.924Z</time></trkpt><trkpt lat="44.1172702" lon="11.3787376"><ele>421.0</ele><time>2026-04-12T09:04:44.924Z</time></trkpt><trkpt lat="44.1172921" lon="11.3788762"><ele>420.5714285714286</ele><time>2026-04-12T09:04:45.923Z</time></trkpt><trkpt lat="44.1173124" lon="11.3790023"><ele>420.14285714285717</ele><time>2026-04-12T09:04:46.923Z</time></trkpt><trkpt lat="44.1173291" lon="11.3791118"><ele>419.7142857142857</ele><time>2026-04-12T09:04:47.923Z</time></trkpt><trkpt lat="44.1173435" lon="11.3792077"><ele>419.28571428571433</ele><time>2026-04-12T09:04:48.923Z</time></trkpt><trkpt lat="44.1173551" lon="11.3792949"><ele>418.85714285714283</ele><time>2026-04-12T09:04:49.923Z</time></trkpt><trkpt lat="44.1173622" lon="11.3793827"><ele>418.42857142857144</ele><time>2026-04-12T09:04:50.924Z</time></trkpt><trkpt lat="44.1173571" lon="11.3794769"><ele>418.0</ele><time>2026-04-12T09:04:51.923Z</time></trkpt><trkpt lat="44.1173335" lon="11.3795677"><ele>418.0</ele><time>2026-04-12T09:04:52.924Z</time></trkpt><trkpt lat="44.1172882" lon="11.3796491"><ele>418.0</ele><time>2026-04-12T09:04:53.923Z</time></trkpt><trkpt lat="44.117211" lon="11.3797192"><ele>418.0</ele><time>2026-04-12T09:04:54.924Z</time></trkpt><trkpt lat="44.1171221" lon="11.3797774"><ele>418.0</ele><time>2026-04-12T09:04:55.923Z</time></trkpt><trkpt lat="44.1169916" lon="11.3798224"><ele>418.0</ele><time>2026-04-12T09:04:56.923Z</time></trkpt><trkpt lat="44.1168614" lon="11.3798595"><ele>418.0</ele><time>2026-04-12T09:04:57.923Z</time></trkpt><trkpt lat="44.1167279" lon="11.3798955"><ele>418.0</ele><time>2026-04-12T09:04:58.923Z</time></trkpt><trkpt lat="44.116592" lon="11.3799403"><ele>418.0</ele><time>2026-04-12T09:04:59.923Z</time></trkpt><trkpt lat="44.1164531" lon="11.3799897"><ele>418.0</ele><time>2026-04-12T09:05:00.924Z</time></trkpt><trkpt lat="44.1163062" lon="11.3800385"><ele>418.33333333333337</ele><time>2026-04-12T09:05:01.923Z</time></trkpt><trkpt lat="44.1161446" lon="11.380094"><ele>418.66666666666663</ele><time>2026-04-12T09:05:02.924Z</time></trkpt><trkpt lat="44.115985" lon="11.3801494"><ele>419.0</ele><time>2026-04-12T09:05:03.923Z</time></trkpt><trkpt lat="44.1158356" lon="11.3801855"><ele>420.5</ele><time>2026-04-12T09:05:04.923Z</time></trkpt><trkpt lat="44.1156844" lon="11.380188"><ele>422.0</ele><time>2026-04-12T09:05:05.923Z</time></trkpt><trkpt lat="44.1155304" lon="11.3801618"><ele>423.5</ele><time>2026-04-12T09:05:06.923Z</time></trkpt><trkpt lat="44.1153882" lon="11.3801388"><ele>425.0</ele><time>2026-04-12T09:05:07.923Z</time></trkpt><trkpt lat="44.1152468" lon="11.3801537"><ele>425.0</ele><time>2026-04-12T09:05:08.923Z</time></trkpt><trkpt lat="44.1150908" lon="11.3802267"><ele>425.0</ele><time>2026-04-12T09:05:09.923Z</time></trkpt><trkpt lat="44.1149224" lon="11.3803561"><ele>425.0</ele><time>2026-04-12T09:05:10.923Z</time></trkpt><trkpt lat="44.1147658" lon="11.3805029"><ele>425.66666666666663</ele><time>2026-04-12T09:05:11.923Z</time></trkpt><trkpt lat="44.1146215" lon="11.3806412"><ele>426.33333333333337</ele><time>2026-04-12T09:05:12.923Z</time></trkpt><trkpt lat="44.114474" lon="11.3807524"><ele>427.0</ele><time>2026-04-12T09:05:13.923Z</time></trkpt><trkpt lat="44.1143136" lon="11.3808272"><ele>427.0</ele><time>2026-04-12T09:05:14.923Z</time></trkpt><trkpt lat="44.1141505" lon="11.3808547"><ele>427.0</ele><time>2026-04-12T09:05:15.924Z</time></trkpt><trkpt lat="44.1139831" lon="11.3808307"><ele>427.0</ele><time>2026-04-12T09:05:16.925Z</time></trkpt><trkpt lat="44.1138092" lon="11.3807602"><ele>425.0</ele><time>2026-04-12T09:05:17.924Z</time></trkpt><trkpt lat="44.113613" lon="11.3806545"><ele>423.0</ele><time>2026-04-12T09:05:18.923Z</time></trkpt><trkpt lat="44.1133914" lon="11.3805238"><ele>425.5</ele><time>2026-04-12T09:05:19.923Z</time></trkpt><trkpt lat="44.1131558" lon="11.3803861"><ele>428.0</ele><time>2026-04-12T09:05:20.923Z</time></trkpt><trkpt lat="44.1129177" lon="11.3802509"><ele>428.0</ele><time>2026-04-12T09:05:21.924Z</time></trkpt><trkpt lat="44.1126981" lon="11.3801253"><ele>428.0</ele><time>2026-04-12T09:05:22.923Z</time></trkpt><trkpt lat="44.1124832" lon="11.3800037"><ele>427.3333333333333</ele><time>2026-04-12T09:05:23.923Z</time></trkpt><trkpt lat="44.1122699" lon="11.3798845"><ele>426.66666666666663</ele><time>2026-04-12T09:05:24.923Z</time></trkpt><trkpt lat="44.1120677" lon="11.3797749"><ele>426.0</ele><time>2026-04-12T09:05:25.923Z</time></trkpt><trkpt lat="44.1118744" lon="11.3796753"><ele>428.66666666666663</ele><time>2026-04-12T09:05:26.923Z</time></trkpt><trkpt lat="44.111671" lon="11.3796028"><ele>431.3333333333333</ele><time>2026-04-12T09:05:27.923Z</time></trkpt><trkpt lat="44.1114551" lon="11.3796002"><ele>434.0</ele><time>2026-04-12T09:05:28.923Z</time></trkpt><trkpt lat="44.1112068" lon="11.3796678"><ele>433.0</ele><time>2026-04-12T09:05:29.923Z</time></trkpt><trkpt lat="44.1109619" lon="11.3797445"><ele>432.0</ele><time>2026-04-12T09:05:30.923Z</time></trkpt><trkpt lat="44.1107154" lon="11.3798245"><ele>432.0</ele><time>2026-04-12T09:05:31.923Z</time></trkpt><trkpt lat="44.11048" lon="11.3799083"><ele>432.0</ele><time>2026-04-12T09:05:32.923Z</time></trkpt><trkpt lat="44.1102603" lon="11.3799813"><ele>432.0</ele><time>2026-04-12T09:05:33.923Z</time></trkpt><trkpt lat="44.1100544" lon="11.3800392"><ele>432.0</ele><time>2026-04-12T09:05:34.923Z</time></trkpt><trkpt lat="44.1098536" lon="11.3800629"><ele>432.0</ele><time>2026-04-12T09:05:35.923Z</time></trkpt><trkpt lat="44.1096455" lon="11.3800187"><ele>430.5</ele><time>2026-04-12T09:05:36.923Z</time></trkpt><trkpt lat="44.109421" lon="11.3799324"><ele>429.0</ele><time>2026-04-12T09:05:37.924Z</time></trkpt><trkpt lat="44.1091895" lon="11.3798208"><ele>428.0</ele><time>2026-04-12T09:05:38.923Z</time></trkpt><trkpt lat="44.1089511" lon="11.3797082"><ele>427.0</ele><time>2026-04-12T09:05:39.924Z</time></trkpt><trkpt lat="44.1087026" lon="11.3795927"><ele>428.5</ele><time>2026-04-12T09:05:40.924Z</time></trkpt><trkpt lat="44.1084545" lon="11.3794798"><ele>430.0</ele><time>2026-04-12T09:05:41.923Z</time></trkpt><trkpt lat="44.1082153" lon="11.3793671"><ele>430.0</ele><time>2026-04-12T09:05:42.923Z</time></trkpt><trkpt lat="44.1079769" lon="11.3792502"><ele>430.0</ele><time>2026-04-12T09:05:43.923Z</time></trkpt><trkpt lat="44.1077427" lon="11.3791272"><ele>430.0</ele><time>2026-04-12T09:05:44.923Z</time></trkpt><trkpt lat="44.1075062" lon="11.3790158"><ele>430.0</ele><time>2026-04-12T09:05:45.923Z</time></trkpt><trkpt lat="44.1072677" lon="11.3789022"><ele>433.0</ele><time>2026-04-12T09:05:46.924Z</time></trkpt><trkpt lat="44.1070151" lon="11.3787843"><ele>436.0</ele><time>2026-04-12T09:05:47.924Z</time></trkpt><trkpt lat="44.1067665" lon="11.3786877"><ele>435.5</ele><time>2026-04-12T09:05:48.923Z</time></trkpt><trkpt lat="44.10651" lon="11.3786019"><ele>435.0</ele><time>2026-04-12T09:05:49.924Z</time></trkpt><trkpt lat="44.106247" lon="11.3785295"><ele>435.0</ele><time>2026-04-12T09:05:50.924Z</time></trkpt><trkpt lat="44.105976" lon="11.3784816"><ele>435.0</ele><time>2026-04-12T09:05:51.923Z</time></trkpt><trkpt lat="44.1057053" lon="11.3784345"><ele>436.5</ele><time>2026-04-12T09:05:52.923Z</time></trkpt><trkpt lat="44.1054362" lon="11.3783986"><ele>438.0</ele><time>2026-04-12T09:05:53.924Z</time></trkpt><trkpt lat="44.1051685" lon="11.3783596"><ele>438.5</ele><time>2026-04-12T09:05:54.924Z</time></trkpt><trkpt lat="44.1049024" lon="11.3783238"><ele>439.0</ele><time>2026-04-12T09:05:55.924Z</time></trkpt><trkpt lat="44.1046365" lon="11.3782827"><ele>439.0</ele><time>2026-04-12T09:05:56.924Z</time></trkpt><trkpt lat="44.1043804" lon="11.3782442"><ele>439.0</ele><time>2026-04-12T09:05:57.924Z</time></trkpt><trkpt lat="44.1041276" lon="11.3782035"><ele>439.0</ele><time>2026-04-12T09:05:58.924Z</time></trkpt><trkpt lat="44.1038782" lon="11.3781663"><ele>439.0</ele><time>2026-04-12T09:05:59.925Z</time></trkpt><trkpt lat="44.1036316" lon="11.3781272"><ele>439.0</ele><time>2026-04-12T09:06:00.924Z</time></trkpt><trkpt lat="44.1033916" lon="11.3780942"><ele>439.0</ele><time>2026-04-12T09:06:01.924Z</time></trkpt><trkpt lat="44.1031547" lon="11.3780644"><ele>439.5</ele><time>2026-04-12T09:06:02.924Z</time></trkpt><trkpt lat="44.1029164" lon="11.3780387"><ele>440.0</ele><time>2026-04-12T09:06:03.924Z</time></trkpt><trkpt lat="44.102668" lon="11.3780445"><ele>440.0</ele><time>2026-04-12T09:06:04.924Z</time></trkpt><trkpt lat="44.1024158" lon="11.3780898"><ele>440.0</ele><time>2026-04-12T09:06:05.924Z</time></trkpt><trkpt lat="44.1021655" lon="11.3781829"><ele>440.5</ele><time>2026-04-12T09:06:06.924Z</time></trkpt><trkpt lat="44.1019142" lon="11.3783282"><ele>441.0</ele><time>2026-04-12T09:06:07.924Z</time></trkpt><trkpt lat="44.1016649" lon="11.3784842"><ele>443.5</ele><time>2026-04-12T09:06:08.924Z</time></trkpt><trkpt lat="44.1014163" lon="11.3786515"><ele>446.0</ele><time>2026-04-12T09:06:09.925Z</time></trkpt><trkpt lat="44.1011757" lon="11.3788129"><ele>444.5</ele><time>2026-04-12T09:06:10.924Z</time></trkpt><trkpt lat="44.1009429" lon="11.3789774"><ele>443.0</ele><time>2026-04-12T09:06:11.924Z</time></trkpt><trkpt lat="44.1007083" lon="11.3791445"><ele>446.5</ele><time>2026-04-12T09:06:12.925Z</time></trkpt><trkpt lat="44.1004769" lon="11.3793066"><ele>450.0</ele><time>2026-04-12T09:06:13.924Z</time></trkpt><trkpt lat="44.1002477" lon="11.3794652"><ele>450.0</ele><time>2026-04-12T09:06:14.924Z</time></trkpt><trkpt lat="44.1000194" lon="11.3796203"><ele>450.0</ele><time>2026-04-12T09:06:15.925Z</time></trkpt><trkpt lat="44.0997955" lon="11.3797736"><ele>448.5</ele><time>2026-04-12T09:06:16.925Z</time></trkpt><trkpt lat="44.0995678" lon="11.379928"><ele>447.0</ele><time>2026-04-12T09:06:17.925Z</time></trkpt><trkpt lat="44.0993344" lon="11.3800764"><ele>447.0</ele><time>2026-04-12T09:06:18.925Z</time></trkpt><trkpt lat="44.0990999" lon="11.3802254"><ele>447.0</ele><time>2026-04-12T09:06:19.924Z</time></trkpt><trkpt lat="44.0988676" lon="11.3803712"><ele>448.0</ele><time>2026-04-12T09:06:20.924Z</time></trkpt><trkpt lat="44.098637" lon="11.3805121"><ele>449.0</ele><time>2026-04-12T09:06:21.924Z</time></trkpt><trkpt lat="44.0984137" lon="11.3806383"><ele>451.66666666666663</ele><time>2026-04-12T09:06:22.924Z</time></trkpt><trkpt lat="44.0982092" lon="11.380745"><ele>454.33333333333337</ele><time>2026-04-12T09:06:23.924Z</time></trkpt><trkpt lat="44.0980225" lon="11.3808093"><ele>457.0</ele><time>2026-04-12T09:06:24.924Z</time></trkpt><trkpt lat="44.0978212" lon="11.3808325"><ele>457.0</ele><time>2026-04-12T09:06:25.924Z</time></trkpt><trkpt lat="44.0975991" lon="11.3808156"><ele>457.0</ele><time>2026-04-12T09:06:26.924Z</time></trkpt><trkpt lat="44.0973821" lon="11.3807752"><ele>457.0</ele><time>2026-04-12T09:06:27.924Z</time></trkpt><trkpt lat="44.0971881" lon="11.3807548"><ele>460.33333333333337</ele><time>2026-04-12T09:06:28.924Z</time></trkpt><trkpt lat="44.0970008" lon="11.3807836"><ele>463.66666666666663</ele><time>2026-04-12T09:06:29.924Z</time></trkpt><trkpt lat="44.0967989" lon="11.380897"><ele>467.0</ele><time>2026-04-12T09:06:30.924Z</time></trkpt><trkpt lat="44.0965744" lon="11.3810375"><ele>476.5</ele><time>2026-04-12T09:06:31.924Z</time></trkpt><trkpt lat="44.0963415" lon="11.3811898"><ele>486.0</ele><time>2026-04-12T09:06:32.924Z</time></trkpt><trkpt lat="44.0961237" lon="11.381345"><ele>487.33333333333337</ele><time>2026-04-12T09:06:33.924Z</time></trkpt><trkpt lat="44.0959455" lon="11.3815031"><ele>488.6666666666667</ele><time>2026-04-12T09:06:34.924Z</time></trkpt><trkpt lat="44.0958083" lon="11.3816809"><ele>490.0</ele><time>2026-04-12T09:06:35.924Z</time></trkpt><trkpt lat="44.095708" lon="11.3819015"><ele>490.0</ele><time>2026-04-12T09:06:36.925Z</time></trkpt><trkpt lat="44.0956417" lon="11.382119"><ele>490.0</ele><time>2026-04-12T09:06:37.924Z</time></trkpt><trkpt lat="44.0955746" lon="11.3822974"><ele>490.0</ele><time>2026-04-12T09:06:38.926Z</time></trkpt><trkpt lat="44.095481" lon="11.3824219"><ele>490.0</ele><time>2026-04-12T09:06:39.924Z</time></trkpt><trkpt lat="44.0953633" lon="11.3824896"><ele>488.6666666666667</ele><time>2026-04-12T09:06:40.925Z</time></trkpt><trkpt lat="44.0952169" lon="11.3824966"><ele>487.33333333333337</ele><time>2026-04-12T09:06:41.924Z</time></trkpt><trkpt lat="44.0950311" lon="11.3824519"><ele>486.0</ele><time>2026-04-12T09:06:42.925Z</time></trkpt><trkpt lat="44.0948368" lon="11.3823677"><ele>486.0</ele><time>2026-04-12T09:06:43.925Z</time></trkpt><trkpt lat="44.0946445" lon="11.3822253"><ele>486.0</ele><time>2026-04-12T09:06:44.924Z</time></trkpt><trkpt lat="44.0944899" lon="11.3820762"><ele>486.0</ele><time>2026-04-12T09:06:45.925Z</time></trkpt><trkpt lat="44.094366" lon="11.3819767"><ele>489.0</ele><time>2026-04-12T09:06:46.924Z</time></trkpt><trkpt lat="44.09424" lon="11.3819384"><ele>492.0</ele><time>2026-04-12T09:06:47.925Z</time></trkpt><trkpt lat="44.0941232" lon="11.3819737"><ele>495.0</ele><time>2026-04-12T09:06:48.924Z</time></trkpt><trkpt lat="44.094014" lon="11.3820758"><ele>498.0</ele><time>2026-04-12T09:06:49.924Z</time></trkpt><trkpt lat="44.0939126" lon="11.3822518"><ele>500.0</ele><time>2026-04-12T09:06:50.924Z</time></trkpt><trkpt lat="44.093824" lon="11.38249"><ele>502.0</ele><time>2026-04-12T09:06:51.924Z</time></trkpt><trkpt lat="44.0937375" lon="11.3827103"><ele>504.0</ele><time>2026-04-12T09:06:52.924Z</time></trkpt><trkpt lat="44.0936302" lon="11.3828828"><ele>502.0</ele><time>2026-04-12T09:06:53.924Z</time></trkpt><trkpt lat="44.0934816" lon="11.3830505"><ele>500.0</ele><time>2026-04-12T09:06:54.924Z</time></trkpt><trkpt lat="44.0933069" lon="11.3831896"><ele>498.0</ele><time>2026-04-12T09:06:55.924Z</time></trkpt><trkpt lat="44.0931629" lon="11.3832884"><ele>498.0</ele><time>2026-04-12T09:06:56.924Z</time></trkpt><trkpt lat="44.0930358" lon="11.3833445"><ele>498.0</ele><time>2026-04-12T09:06:57.924Z</time></trkpt><trkpt lat="44.0929198" lon="11.3833322"><ele>498.0</ele><time>2026-04-12T09:06:58.924Z</time></trkpt><trkpt lat="44.0928257" lon="11.3832494"><ele>498.0</ele><time>2026-04-12T09:06:59.924Z</time></trkpt><trkpt lat="44.0927455" lon="11.3831004"><ele>499.25</ele><time>2026-04-12T09:07:00.924Z</time></trkpt><trkpt lat="44.092654" lon="11.3829501"><ele>500.5</ele><time>2026-04-12T09:07:01.924Z</time></trkpt><trkpt lat="44.0925411" lon="11.3828565"><ele>501.75</ele><time>2026-04-12T09:07:02.924Z</time></trkpt><trkpt lat="44.0924067" lon="11.3828372"><ele>503.0</ele><time>2026-04-12T09:07:03.925Z</time></trkpt><trkpt lat="44.0922802" lon="11.3828414"><ele>503.0</ele><time>2026-04-12T09:07:04.924Z</time></trkpt><trkpt lat="44.0921786" lon="11.3827963"><ele>503.0</ele><time>2026-04-12T09:07:05.925Z</time></trkpt><trkpt lat="44.092104" lon="11.3826966"><ele>503.0</ele><time>2026-04-12T09:07:06.924Z</time></trkpt><trkpt lat="44.0920615" lon="11.3825496"><ele>503.0</ele><time>2026-04-12T09:07:07.924Z</time></trkpt><trkpt lat="44.0920628" lon="11.3823671"><ele>503.0</ele><time>2026-04-12T09:07:08.924Z</time></trkpt><trkpt lat="44.092078" lon="11.3821824"><ele>503.0</ele><time>2026-04-12T09:07:09.924Z</time></trkpt><trkpt lat="44.0920499" lon="11.382028"><ele>503.0</ele><time>2026-04-12T09:07:10.925Z</time></trkpt><trkpt lat="44.0919593" lon="11.3818836"><ele>503.0</ele><time>2026-04-12T09:07:11.925Z</time></trkpt><trkpt lat="44.0918266" lon="11.3817595"><ele>504.0</ele><time>2026-04-12T09:07:12.924Z</time></trkpt><trkpt lat="44.0916377" lon="11.3816697"><ele>505.0</ele><time>2026-04-12T09:07:13.924Z</time></trkpt><trkpt lat="44.0914448" lon="11.381622"><ele>506.0</ele><time>2026-04-12T09:07:14.924Z</time></trkpt><trkpt lat="44.0912828" lon="11.3815678"><ele>506.0</ele><time>2026-04-12T09:07:15.924Z</time></trkpt><trkpt lat="44.0911306" lon="11.3814798"><ele>506.0</ele><time>2026-04-12T09:07:16.924Z</time></trkpt><trkpt lat="44.0909867" lon="11.3813157"><ele>506.0</ele><time>2026-04-12T09:07:17.924Z</time></trkpt><trkpt lat="44.0908463" lon="11.3811052"><ele>508.0</ele><time>2026-04-12T09:07:18.925Z</time></trkpt><trkpt lat="44.0906865" lon="11.3808562"><ele>510.0</ele><time>2026-04-12T09:07:19.924Z</time></trkpt><trkpt lat="44.0905433" lon="11.3805939"><ele>513.3333333333334</ele><time>2026-04-12T09:07:20.925Z</time></trkpt><trkpt lat="44.0904173" lon="11.3803166"><ele>516.6666666666667</ele><time>2026-04-12T09:07:21.924Z</time></trkpt><trkpt lat="44.0903223" lon="11.3800652"><ele>520.0</ele><time>2026-04-12T09:07:22.925Z</time></trkpt><trkpt lat="44.0902549" lon="11.3798636"><ele>520.0</ele><time>2026-04-12T09:07:23.925Z</time></trkpt><trkpt lat="44.0901747" lon="11.3797168"><ele>520.0</ele><time>2026-04-12T09:07:24.925Z</time></trkpt><trkpt lat="44.0900514" lon="11.3796084"><ele>520.0</ele><time>2026-04-12T09:07:25.925Z</time></trkpt><trkpt lat="44.0898945" lon="11.3795352"><ele>520.0</ele><time>2026-04-12T09:07:26.926Z</time></trkpt><trkpt lat="44.0897286" lon="11.3794741"><ele>523.0</ele><time>2026-04-12T09:07:27.925Z</time></trkpt><trkpt lat="44.0896006" lon="11.3793961"><ele>526.0</ele><time>2026-04-12T09:07:28.925Z</time></trkpt><trkpt lat="44.0894915" lon="11.3792545"><ele>529.0</ele><time>2026-04-12T09:07:29.925Z</time></trkpt><trkpt lat="44.0893864" lon="11.379053"><ele>529.0</ele><time>2026-04-12T09:07:30.925Z</time></trkpt><trkpt lat="44.0892933" lon="11.3788588"><ele>529.0</ele><time>2026-04-12T09:07:31.926Z</time></trkpt><trkpt lat="44.0891989" lon="11.3787165"><ele>529.0</ele><time>2026-04-12T09:07:32.925Z</time></trkpt><trkpt lat="44.0890902" lon="11.3786277"><ele>529.0</ele><time>2026-04-12T09:07:33.925Z</time></trkpt><trkpt lat="44.0889658" lon="11.3785987"><ele>533.3333333333334</ele><time>2026-04-12T09:07:34.925Z</time></trkpt><trkpt lat="44.0888075" lon="11.3786504"><ele>537.6666666666666</ele><time>2026-04-12T09:07:35.926Z</time></trkpt><trkpt lat="44.0886153" lon="11.3787449"><ele>542.0</ele><time>2026-04-12T09:07:36.926Z</time></trkpt><trkpt lat="44.0884096" lon="11.378842"><ele>540.3333333333333</ele><time>2026-04-12T09:07:37.925Z</time></trkpt><trkpt lat="44.0882232" lon="11.3789064"><ele>538.6666666666666</ele><time>2026-04-12T09:07:38.925Z</time></trkpt><trkpt lat="44.088049" lon="11.378926"><ele>537.0</ele><time>2026-04-12T09:07:39.925Z</time></trkpt><trkpt lat="44.0878747" lon="11.3789034"><ele>539.0</ele><time>2026-04-12T09:07:40.925Z</time></trkpt><trkpt lat="44.0877072" lon="11.3788367"><ele>541.0</ele><time>2026-04-12T09:07:41.926Z</time></trkpt><trkpt lat="44.0875256" lon="11.3787342"><ele>543.0</ele><time>2026-04-12T09:07:42.925Z</time></trkpt><trkpt lat="44.0873228" lon="11.3786067"><ele>545.0</ele><time>2026-04-12T09:07:43.925Z</time></trkpt><trkpt lat="44.0871195" lon="11.378488"><ele>547.0</ele><time>2026-04-12T09:07:44.925Z</time></trkpt><trkpt lat="44.0869318" lon="11.3783942"><ele>549.0</ele><time>2026-04-12T09:07:45.925Z</time></trkpt><trkpt lat="44.0867574" lon="11.3783255"><ele>550.3333333333334</ele><time>2026-04-12T09:07:46.925Z</time></trkpt><trkpt lat="44.0865868" lon="11.378291"><ele>551.6666666666667</ele><time>2026-04-12T09:07:47.925Z</time></trkpt><trkpt lat="44.0863873" lon="11.3783059"><ele>553.0</ele><time>2026-04-12T09:07:48.925Z</time></trkpt><trkpt lat="44.0861637" lon="11.3783663"><ele>553.0</ele><time>2026-04-12T09:07:49.925Z</time></trkpt><trkpt lat="44.0859212" lon="11.378452"><ele>553.0</ele><time>2026-04-12T09:07:50.926Z</time></trkpt><trkpt lat="44.0856853" lon="11.3785406"><ele>556.3333333333334</ele><time>2026-04-12T09:07:51.925Z</time></trkpt><trkpt lat="44.0854732" lon="11.3786178"><ele>559.6666666666666</ele><time>2026-04-12T09:07:52.925Z</time></trkpt><trkpt lat="44.0852867" lon="11.3787055"><ele>563.0</ele><time>2026-04-12T09:07:53.925Z</time></trkpt><trkpt lat="44.0851154" lon="11.3788274"><ele>562.3333333333333</ele><time>2026-04-12T09:07:54.925Z</time></trkpt><trkpt lat="44.0849697" lon="11.3789936"><ele>561.6666666666666</ele><time>2026-04-12T09:07:55.925Z</time></trkpt><trkpt lat="44.0848338" lon="11.3792218"><ele>561.0</ele><time>2026-04-12T09:07:56.926Z</time></trkpt><trkpt lat="44.084691" lon="11.3794709"><ele>562.3333333333334</ele><time>2026-04-12T09:07:57.926Z</time></trkpt><trkpt lat="44.0845572" lon="11.3796919"><ele>563.6666666666667</ele><time>2026-04-12T09:07:58.926Z</time></trkpt><trkpt lat="44.0844344" lon="11.3798717"><ele>565.0</ele><time>2026-04-12T09:07:59.925Z</time></trkpt><trkpt lat="44.0843023" lon="11.3799992"><ele>565.0</ele><time>2026-04-12T09:08:00.925Z</time></trkpt><trkpt lat="44.0841698" lon="11.3800809"><ele>565.0</ele><time>2026-04-12T09:08:01.925Z</time></trkpt><trkpt lat="44.0840431" lon="11.3801086"><ele>565.0</ele><time>2026-04-12T09:08:02.925Z</time></trkpt><trkpt lat="44.0839182" lon="11.3800675"><ele>565.0</ele><time>2026-04-12T09:08:03.925Z</time></trkpt><trkpt lat="44.0837776" lon="11.3799637"><ele>567.0</ele><time>2026-04-12T09:08:04.925Z</time></trkpt><trkpt lat="44.0836175" lon="11.3798163"><ele>569.0</ele><time>2026-04-12T09:08:05.925Z</time></trkpt><trkpt lat="44.0834616" lon="11.3796869"><ele>571.0</ele><time>2026-04-12T09:08:06.926Z</time></trkpt><trkpt lat="44.0833058" lon="11.3795932"><ele>576.3333333333334</ele><time>2026-04-12T09:08:07.925Z</time></trkpt><trkpt lat="44.0831588" lon="11.3795552"><ele>581.6666666666666</ele><time>2026-04-12T09:08:08.926Z</time></trkpt><trkpt lat="44.0830147" lon="11.3795695"><ele>587.0</ele><time>2026-04-12T09:08:09.925Z</time></trkpt><trkpt lat="44.0828614" lon="11.3796515"><ele>585.6666666666666</ele><time>2026-04-12T09:08:10.925Z</time></trkpt><trkpt lat="44.0827096" lon="11.3797797"><ele>584.3333333333334</ele><time>2026-04-12T09:08:11.925Z</time></trkpt><trkpt lat="44.0825648" lon="11.3799694"><ele>583.0</ele><time>2026-04-12T09:08:12.925Z</time></trkpt><trkpt lat="44.0824475" lon="11.3801964"><ele>588.3333333333334</ele><time>2026-04-12T09:08:13.926Z</time></trkpt><trkpt lat="44.0823753" lon="11.3804604"><ele>593.6666666666666</ele><time>2026-04-12T09:08:14.925Z</time></trkpt><trkpt lat="44.0823172" lon="11.3807746"><ele>599.0</ele><time>2026-04-12T09:08:15.925Z</time></trkpt><trkpt lat="44.0822702" lon="11.3811049"><ele>599.0</ele><time>2026-04-12T09:08:16.926Z</time></trkpt><trkpt lat="44.0822366" lon="11.3813848"><ele>599.0</ele><time>2026-04-12T09:08:17.925Z</time></trkpt><trkpt lat="44.0822276" lon="11.3816135"><ele>599.0</ele><time>2026-04-12T09:08:18.925Z</time></trkpt><trkpt lat="44.0822596" lon="11.381805"><ele>599.0</ele><time>2026-04-12T09:08:19.926Z</time></trkpt><trkpt lat="44.0823488" lon="11.3820028"><ele>599.0</ele><time>2026-04-12T09:08:20.926Z</time></trkpt><trkpt lat="44.0824805" lon="11.3821972"><ele>599.0</ele><time>2026-04-12T09:08:21.925Z</time></trkpt><trkpt lat="44.0826012" lon="11.3823593"><ele>596.0</ele><time>2026-04-12T09:08:22.925Z</time></trkpt><trkpt lat="44.0826903" lon="11.38252"><ele>593.0</ele><time>2026-04-12T09:08:23.925Z</time></trkpt><trkpt lat="44.0827506" lon="11.3827043"><ele>590.0</ele><time>2026-04-12T09:08:24.925Z</time></trkpt><trkpt lat="44.08278" lon="11.3829238"><ele>591.5</ele><time>2026-04-12T09:08:25.926Z</time></trkpt><trkpt lat="44.0827664" lon="11.383147"><ele>593.0</ele><time>2026-04-12T09:08:26.926Z</time></trkpt><trkpt lat="44.0827199" lon="11.3833528"><ele>594.5</ele><time>2026-04-12T09:08:27.925Z</time></trkpt><trkpt lat="44.0826545" lon="11.383494"><ele>596.0</ele><time>2026-04-12T09:08:28.925Z</time></trkpt><trkpt lat="44.082556" lon="11.3835924"><ele>596.0</ele><time>2026-04-12T09:08:29.925Z</time></trkpt><trkpt lat="44.0824344" lon="11.383655"><ele>596.0</ele><time>2026-04-12T09:08:30.925Z</time></trkpt><trkpt lat="44.0823009" lon="11.3836438"><ele>596.0</ele><time>2026-04-12T09:08:31.926Z</time></trkpt><trkpt lat="44.0821614" lon="11.3835645"><ele>596.0</ele><time>2026-04-12T09:08:32.925Z</time></trkpt><trkpt lat="44.0820395" lon="11.3833981"><ele>598.0</ele><time>2026-04-12T09:08:33.925Z</time></trkpt><trkpt lat="44.081942" lon="11.3832724"><ele>600.0</ele><time>2026-04-12T09:08:34.926Z</time></trkpt><trkpt lat="44.0818378" lon="11.3832056"><ele>602.0</ele><time>2026-04-12T09:08:35.925Z</time></trkpt><trkpt lat="44.0817067" lon="11.3832075"><ele>604.0</ele><time>2026-04-12T09:08:36.925Z</time></trkpt><trkpt lat="44.081563" lon="11.3832948"><ele>605.3333333333334</ele><time>2026-04-12T09:08:37.926Z</time></trkpt><trkpt lat="44.0814069" lon="11.3834271"><ele>606.6666666666666</ele><time>2026-04-12T09:08:38.925Z</time></trkpt><trkpt lat="44.0812479" lon="11.3835252"><ele>608.0</ele><time>2026-04-12T09:08:39.925Z</time></trkpt><trkpt lat="44.0811065" lon="11.3835668"><ele>608.0</ele><time>2026-04-12T09:08:40.925Z</time></trkpt><trkpt lat="44.0809799" lon="11.3835557"><ele>608.0</ele><time>2026-04-12T09:08:41.925Z</time></trkpt><trkpt lat="44.0808601" lon="11.3834941"><ele>608.0</ele><time>2026-04-12T09:08:42.925Z</time></trkpt><trkpt lat="44.0807681" lon="11.3833733"><ele>608.0</ele><time>2026-04-12T09:08:43.925Z</time></trkpt><trkpt lat="44.080697" lon="11.3831909"><ele>611.6666666666666</ele><time>2026-04-12T09:08:44.925Z</time></trkpt><trkpt lat="44.0806569" lon="11.3829784"><ele>615.3333333333334</ele><time>2026-04-12T09:08:45.926Z</time></trkpt><trkpt lat="44.0806621" lon="11.3827663"><ele>619.0</ele><time>2026-04-12T09:08:46.925Z</time></trkpt><trkpt lat="44.0807205" lon="11.382554"><ele>619.6666666666667</ele><time>2026-04-12T09:08:47.925Z</time></trkpt><trkpt lat="44.0808108" lon="11.3823327"><ele>620.3333333333334</ele><time>2026-04-12T09:08:48.926Z</time></trkpt><trkpt lat="44.0808849" lon="11.3820873"><ele>621.0</ele><time>2026-04-12T09:08:49.925Z</time></trkpt><trkpt lat="44.0809227" lon="11.3818178"><ele>621.0</ele><time>2026-04-12T09:08:50.925Z</time></trkpt><trkpt lat="44.080938" lon="11.381536"><ele>621.0</ele><time>2026-04-12T09:08:51.926Z</time></trkpt><trkpt lat="44.0809279" lon="11.3812716"><ele>621.0</ele><time>2026-04-12T09:08:52.926Z</time></trkpt><trkpt lat="44.0808867" lon="11.3810412"><ele>622.0</ele><time>2026-04-12T09:08:53.926Z</time></trkpt><trkpt lat="44.0807932" lon="11.3808207"><ele>623.0</ele><time>2026-04-12T09:08:54.927Z</time></trkpt><trkpt lat="44.0806559" lon="11.3806263"><ele>624.0</ele><time>2026-04-12T09:08:55.926Z</time></trkpt><trkpt lat="44.0805053" lon="11.3804418"><ele>628.0</ele><time>2026-04-12T09:08:56.926Z</time></trkpt><trkpt lat="44.080394" lon="11.3802902"><ele>632.0</ele><time>2026-04-12T09:08:57.926Z</time></trkpt><trkpt lat="44.080327" lon="11.380142"><ele>636.0</ele><time>2026-04-12T09:08:58.926Z</time></trkpt><trkpt lat="44.0803022" lon="11.3799872"><ele>640.0</ele><time>2026-04-12T09:08:59.927Z</time></trkpt><trkpt lat="44.0803232" lon="11.3798202"><ele>641.25</ele><time>2026-04-12T09:09:00.926Z</time></trkpt><trkpt lat="44.0803916" lon="11.3796537"><ele>642.5</ele><time>2026-04-12T09:09:01.926Z</time></trkpt><trkpt lat="44.0804749" lon="11.3795104"><ele>643.75</ele><time>2026-04-12T09:09:02.926Z</time></trkpt><trkpt lat="44.0805119" lon="11.3793763"><ele>645.0</ele><time>2026-04-12T09:09:03.926Z</time></trkpt><trkpt lat="44.0805035" lon="11.379232"><ele>645.0</ele><time>2026-04-12T09:09:04.926Z</time></trkpt><trkpt lat="44.0804444" lon="11.3791216"><ele>645.0</ele><time>2026-04-12T09:09:05.926Z</time></trkpt><trkpt lat="44.0803603" lon="11.379076"><ele>645.0</ele><time>2026-04-12T09:09:06.926Z</time></trkpt><trkpt lat="44.0802851" lon="11.379117"><ele>645.0</ele><time>2026-04-12T09:09:07.926Z</time></trkpt><trkpt lat="44.080201" lon="11.379222"><ele>645.0</ele><time>2026-04-12T09:09:08.926Z</time></trkpt><trkpt lat="44.0801171" lon="11.3793929"><ele>645.0</ele><time>2026-04-12T09:09:09.927Z</time></trkpt><trkpt lat="44.0800036" lon="11.3795941"><ele>645.0</ele><time>2026-04-12T09:09:10.927Z</time></trkpt><trkpt lat="44.079852" lon="11.3798027"><ele>645.0</ele><time>2026-04-12T09:09:11.927Z</time></trkpt><trkpt lat="44.0796865" lon="11.3800097"><ele>650.3333333333334</ele><time>2026-04-12T09:09:12.926Z</time></trkpt><trkpt lat="44.0795346" lon="11.3801854"><ele>655.6666666666667</ele><time>2026-04-12T09:09:13.926Z</time></trkpt><trkpt lat="44.0793866" lon="11.380314"><ele>661.0</ele><time>2026-04-12T09:09:14.926Z</time></trkpt><trkpt lat="44.0792271" lon="11.3803897"><ele>662.3333333333334</ele><time>2026-04-12T09:09:15.929Z</time></trkpt><trkpt lat="44.0790456" lon="11.3804486"><ele>663.6666666666666</ele><time>2026-04-12T09:09:16.926Z</time></trkpt><trkpt lat="44.0788805" lon="11.3805189"><ele>665.0</ele><time>2026-04-12T09:09:17.926Z</time></trkpt><trkpt lat="44.0787275" lon="11.3806455"><ele>665.0</ele><time>2026-04-12T09:09:18.926Z</time></trkpt><trkpt lat="44.0785735" lon="11.3808599"><ele>665.0</ele><time>2026-04-12T09:09:19.926Z</time></trkpt><trkpt lat="44.0784067" lon="11.3811158"><ele>677.5</ele><time>2026-04-12T09:09:20.926Z</time></trkpt><trkpt lat="44.0782378" lon="11.3813961"><ele>690.0</ele><time>2026-04-12T09:09:21.926Z</time></trkpt><trkpt lat="44.078067" lon="11.3816659"><ele>690.0</ele><time>2026-04-12T09:09:22.927Z</time></trkpt><trkpt lat="44.0779216" lon="11.3819178"><ele>690.0</ele><time>2026-04-12T09:09:23.926Z</time></trkpt><trkpt lat="44.0778074" lon="11.3821796"><ele>685.3333333333334</ele><time>2026-04-12T09:09:24.926Z</time></trkpt><trkpt lat="44.0777214" lon="11.3824545"><ele>680.6666666666667</ele><time>2026-04-12T09:09:25.926Z</time></trkpt><trkpt lat="44.0776706" lon="11.3827197"><ele>676.0</ele><time>2026-04-12T09:09:26.926Z</time></trkpt><trkpt lat="44.0776408" lon="11.3829354"><ele>678.25</ele><time>2026-04-12T09:09:27.926Z</time></trkpt><trkpt lat="44.077594" lon="11.3830947"><ele>680.5</ele><time>2026-04-12T09:09:28.926Z</time></trkpt><trkpt lat="44.0774971" lon="11.383216"><ele>682.75</ele><time>2026-04-12T09:09:29.926Z</time></trkpt><trkpt lat="44.0773522" lon="11.3833561"><ele>685.0</ele><time>2026-04-12T09:09:30.926Z</time></trkpt><trkpt lat="44.0771781" lon="11.383484"><ele>685.0</ele><time>2026-04-12T09:09:31.926Z</time></trkpt><trkpt lat="44.0770248" lon="11.3835835"><ele>685.0</ele><time>2026-04-12T09:09:32.926Z</time></trkpt><trkpt lat="44.076895" lon="11.3836354"><ele>685.0</ele><time>2026-04-12T09:09:33.926Z</time></trkpt><trkpt lat="44.0767684" lon="11.3836379"><ele>685.0</ele><time>2026-04-12T09:09:34.926Z</time></trkpt><trkpt lat="44.0766247" lon="11.3835906"><ele>684.6666666666667</ele><time>2026-04-12T09:09:35.926Z</time></trkpt><trkpt lat="44.0764748" lon="11.3835246"><ele>684.3333333333334</ele><time>2026-04-12T09:09:36.926Z</time></trkpt><trkpt lat="44.076333" lon="11.3834597"><ele>684.0</ele><time>2026-04-12T09:09:37.926Z</time></trkpt><trkpt lat="44.0761941" lon="11.383405"><ele>684.0</ele><time>2026-04-12T09:09:38.926Z</time></trkpt><trkpt lat="44.0760741" lon="11.3833733"><ele>684.0</ele><time>2026-04-12T09:09:39.926Z</time></trkpt><trkpt lat="44.0759722" lon="11.3833982"><ele>684.0</ele><time>2026-04-12T09:09:40.927Z</time></trkpt><trkpt lat="44.0758652" lon="11.3834846"><ele>684.0</ele><time>2026-04-12T09:09:41.926Z</time></trkpt><trkpt lat="44.075742" lon="11.3836115"><ele>682.6666666666666</ele><time>2026-04-12T09:09:42.926Z</time></trkpt><trkpt lat="44.0756033" lon="11.3837386"><ele>681.3333333333333</ele><time>2026-04-12T09:09:43.926Z</time></trkpt><trkpt lat="44.0754493" lon="11.3838451"><ele>680.0</ele><time>2026-04-12T09:09:44.926Z</time></trkpt><trkpt lat="44.0753094" lon="11.3839068"><ele>680.0</ele><time>2026-04-12T09:09:45.927Z</time></trkpt><trkpt lat="44.0751676" lon="11.3839304"><ele>680.0</ele><time>2026-04-12T09:09:46.927Z</time></trkpt><trkpt lat="44.0750255" lon="11.3839183"><ele>680.0</ele><time>2026-04-12T09:09:47.926Z</time></trkpt><trkpt lat="44.0749035" lon="11.3839275"><ele>680.0</ele><time>2026-04-12T09:09:48.927Z</time></trkpt><trkpt lat="44.0747886" lon="11.3839815"><ele>688.6666666666666</ele><time>2026-04-12T09:09:49.927Z</time></trkpt><trkpt lat="44.0746783" lon="11.3841033"><ele>697.3333333333334</ele><time>2026-04-12T09:09:50.926Z</time></trkpt><trkpt lat="44.0745544" lon="11.3842721"><ele>706.0</ele><time>2026-04-12T09:09:51.927Z</time></trkpt><trkpt lat="44.0744386" lon="11.3844204"><ele>706.0</ele><time>2026-04-12T09:09:52.926Z</time></trkpt><trkpt lat="44.074352" lon="11.38456"><ele>706.0</ele><time>2026-04-12T09:09:53.927Z</time></trkpt><trkpt lat="44.0743041" lon="11.3847151"><ele>706.0</ele><time>2026-04-12T09:09:54.926Z</time></trkpt><trkpt lat="44.0742911" lon="11.3848789"><ele>706.0</ele><time>2026-04-12T09:09:55.926Z</time></trkpt><trkpt lat="44.0742887" lon="11.3850415"><ele>707.0</ele><time>2026-04-12T09:09:56.926Z</time></trkpt><trkpt lat="44.0742523" lon="11.3851627"><ele>708.0</ele><time>2026-04-12T09:09:57.926Z</time></trkpt><trkpt lat="44.0741999" lon="11.3852497"><ele>709.0</ele><time>2026-04-12T09:09:58.927Z</time></trkpt><trkpt lat="44.074119" lon="11.385301"><ele>710.0</ele><time>2026-04-12T09:09:59.926Z</time></trkpt><trkpt lat="44.0740182" lon="11.3852899"><ele>711.0</ele><time>2026-04-12T09:10:00.927Z</time></trkpt><trkpt lat="44.0739031" lon="11.3852239"><ele>711.0</ele><time>2026-04-12T09:10:01.926Z</time></trkpt><trkpt lat="44.0737918" lon="11.3851543"><ele>711.0</ele><time>2026-04-12T09:10:02.926Z</time></trkpt><trkpt lat="44.0736784" lon="11.3851328"><ele>711.0</ele><time>2026-04-12T09:10:03.927Z</time></trkpt><trkpt lat="44.0735707" lon="11.3851746"><ele>711.0</ele><time>2026-04-12T09:10:04.926Z</time></trkpt><trkpt lat="44.0734752" lon="11.3852792"><ele>711.0</ele><time>2026-04-12T09:10:05.926Z</time></trkpt><trkpt lat="44.0733965" lon="11.3854523"><ele>711.0</ele><time>2026-04-12T09:10:06.926Z</time></trkpt><trkpt lat="44.0733273" lon="11.3856734"><ele>711.0</ele><time>2026-04-12T09:10:07.926Z</time></trkpt><trkpt lat="44.0732731" lon="11.3858873"><ele>709.5</ele><time>2026-04-12T09:10:08.927Z</time></trkpt><trkpt lat="44.0732546" lon="11.3860822"><ele>708.0</ele><time>2026-04-12T09:10:09.927Z</time></trkpt><trkpt lat="44.0732776" lon="11.3862755"><ele>706.5</ele><time>2026-04-12T09:10:10.927Z</time></trkpt><trkpt lat="44.0733239" lon="11.3864476"><ele>705.0</ele><time>2026-04-12T09:10:11.926Z</time></trkpt><trkpt lat="44.0733554" lon="11.3865884"><ele>705.0</ele><time>2026-04-12T09:10:12.927Z</time></trkpt><trkpt lat="44.073346" lon="11.3867033"><ele>705.0</ele><time>2026-04-12T09:10:13.926Z</time></trkpt><trkpt lat="44.0732973" lon="11.3867729"><ele>705.0</ele><time>2026-04-12T09:10:14.927Z</time></trkpt><trkpt lat="44.0732184" lon="11.3867937"><ele>705.0</ele><time>2026-04-12T09:10:15.927Z</time></trkpt><trkpt lat="44.0731257" lon="11.3867528"><ele>705.0</ele><time>2026-04-12T09:10:16.927Z</time></trkpt><trkpt lat="44.0730226" lon="11.3866655"><ele>708.75</ele><time>2026-04-12T09:10:17.927Z</time></trkpt><trkpt lat="44.072903" lon="11.3865665"><ele>712.5</ele><time>2026-04-12T09:10:18.926Z</time></trkpt><trkpt lat="44.0727851" lon="11.3864801"><ele>716.25</ele><time>2026-04-12T09:10:19.928Z</time></trkpt><trkpt lat="44.0726704" lon="11.3863867"><ele>720.0</ele><time>2026-04-12T09:10:20.926Z</time></trkpt><trkpt lat="44.0725693" lon="11.386288"><ele>720.0</ele><time>2026-04-12T09:10:21.928Z</time></trkpt><trkpt lat="44.0724792" lon="11.386183"><ele>720.0</ele><time>2026-04-12T09:10:22.927Z</time></trkpt><trkpt lat="44.0723889" lon="11.3860887"><ele>720.0</ele><time>2026-04-12T09:10:23.927Z</time></trkpt><trkpt lat="44.0723081" lon="11.3859961"><ele>720.0</ele><time>2026-04-12T09:10:24.927Z</time></trkpt><trkpt lat="44.0722122" lon="11.3859263"><ele>720.0</ele><time>2026-04-12T09:10:25.927Z</time></trkpt><trkpt lat="44.0721041" lon="11.3859212"><ele>720.75</ele><time>2026-04-12T09:10:26.928Z</time></trkpt><trkpt lat="44.0719854" lon="11.3859781"><ele>721.5</ele><time>2026-04-12T09:10:27.927Z</time></trkpt><trkpt lat="44.0718776" lon="11.386093"><ele>722.25</ele><time>2026-04-12T09:10:28.927Z</time></trkpt><trkpt lat="44.0717856" lon="11.3862253"><ele>723.0</ele><time>2026-04-12T09:10:29.927Z</time></trkpt><trkpt lat="44.0716981" lon="11.3863325"><ele>719.5</ele><time>2026-04-12T09:10:30.927Z</time></trkpt><trkpt lat="44.0716021" lon="11.3864102"><ele>716.0</ele><time>2026-04-12T09:10:31.928Z</time></trkpt><trkpt lat="44.0714874" lon="11.3864425"><ele>712.5</ele><time>2026-04-12T09:10:32.927Z</time></trkpt><trkpt lat="44.0713574" lon="11.3863999"><ele>709.0</ele><time>2026-04-12T09:10:33.928Z</time></trkpt><trkpt lat="44.0712339" lon="11.3863207"><ele>709.0</ele><time>2026-04-12T09:10:34.928Z</time></trkpt><trkpt lat="44.0711246" lon="11.3862352"><ele>709.0</ele><time>2026-04-12T09:10:35.927Z</time></trkpt><trkpt lat="44.0710199" lon="11.3861367"><ele>709.0</ele><time>2026-04-12T09:10:36.928Z</time></trkpt><trkpt lat="44.0709107" lon="11.3860281"><ele>709.0</ele><time>2026-04-12T09:10:37.928Z</time></trkpt><trkpt lat="44.0707947" lon="11.3858843"><ele>703.0</ele><time>2026-04-12T09:10:38.927Z</time></trkpt><trkpt lat="44.0706835" lon="11.385703"><ele>697.0</ele><time>2026-04-12T09:10:39.928Z</time></trkpt><trkpt lat="44.0705813" lon="11.3854772"><ele>691.0</ele><time>2026-04-12T09:10:40.928Z</time></trkpt><trkpt lat="44.0704883" lon="11.385223"><ele>691.0</ele><time>2026-04-12T09:10:41.927Z</time></trkpt><trkpt lat="44.0703927" lon="11.3849502"><ele>691.0</ele><time>2026-04-12T09:10:42.928Z</time></trkpt><trkpt lat="44.070303" lon="11.3846875"><ele>691.0</ele><time>2026-04-12T09:10:43.927Z</time></trkpt><trkpt lat="44.070231" lon="11.3844329"><ele>692.6666666666667</ele><time>2026-04-12T09:10:44.927Z</time></trkpt><trkpt lat="44.0701717" lon="11.3841933"><ele>694.3333333333334</ele><time>2026-04-12T09:10:45.927Z</time></trkpt><trkpt lat="44.0701082" lon="11.3839815"><ele>696.0</ele><time>2026-04-12T09:10:46.927Z</time></trkpt><trkpt lat="44.0700205" lon="11.3837965"><ele>695.3333333333334</ele><time>2026-04-12T09:10:47.927Z</time></trkpt><trkpt lat="44.0699055" lon="11.3836402"><ele>694.6666666666667</ele><time>2026-04-12T09:10:48.927Z</time></trkpt><trkpt lat="44.0697567" lon="11.3835383"><ele>694.0</ele><time>2026-04-12T09:10:49.928Z</time></trkpt><trkpt lat="44.0695791" lon="11.3834442"><ele>694.0</ele><time>2026-04-12T09:10:50.927Z</time></trkpt><trkpt lat="44.0693819" lon="11.3833381"><ele>694.0</ele><time>2026-04-12T09:10:51.927Z</time></trkpt><trkpt lat="44.0692142" lon="11.3832242"><ele>694.0</ele><time>2026-04-12T09:10:52.928Z</time></trkpt><trkpt lat="44.069088" lon="11.3831456"><ele>693.5</ele><time>2026-04-12T09:10:53.927Z</time></trkpt><trkpt lat="44.0689734" lon="11.383112"><ele>693.0</ele><time>2026-04-12T09:10:54.927Z</time></trkpt><trkpt lat="44.0688669" lon="11.3831338"><ele>692.5</ele><time>2026-04-12T09:10:55.927Z</time></trkpt><trkpt lat="44.0687669" lon="11.3832244"><ele>692.0</ele><time>2026-04-12T09:10:56.927Z</time></trkpt><trkpt lat="44.0687012" lon="11.3833818"><ele>692.0</ele><time>2026-04-12T09:10:57.928Z</time></trkpt><trkpt lat="44.0686624" lon="11.3835859"><ele>692.0</ele><time>2026-04-12T09:10:58.927Z</time></trkpt><trkpt lat="44.0686442" lon="11.3838581"><ele>692.0</ele><time>2026-04-12T09:10:59.927Z</time></trkpt><trkpt lat="44.0686218" lon="11.3841582"><ele>692.0</ele><time>2026-04-12T09:11:00.927Z</time></trkpt><trkpt lat="44.0685916" lon="11.3844635"><ele>692.0</ele><time>2026-04-12T09:11:01.927Z</time></trkpt><trkpt lat="44.0685393" lon="11.3847781"><ele>690.5</ele><time>2026-04-12T09:11:02.927Z</time></trkpt><trkpt lat="44.0684723" lon="11.3851136"><ele>689.0</ele><time>2026-04-12T09:11:03.928Z</time></trkpt><trkpt lat="44.068391" lon="11.3854155"><ele>688.0</ele><time>2026-04-12T09:11:04.928Z</time></trkpt><trkpt lat="44.0683177" lon="11.385697"><ele>687.0</ele><time>2026-04-12T09:11:05.928Z</time></trkpt><trkpt lat="44.0682688" lon="11.3859602"><ele>686.0</ele><time>2026-04-12T09:11:06.927Z</time></trkpt><trkpt lat="44.0682314" lon="11.386185"><ele>690.0</ele><time>2026-04-12T09:11:07.927Z</time></trkpt><trkpt lat="44.0681912" lon="11.3863814"><ele>694.0</ele><time>2026-04-12T09:11:08.927Z</time></trkpt><trkpt lat="44.0681354" lon="11.3865406"><ele>698.0</ele><time>2026-04-12T09:11:09.927Z</time></trkpt><trkpt lat="44.0680509" lon="11.3866363"><ele>702.0</ele><time>2026-04-12T09:11:10.928Z</time></trkpt><trkpt lat="44.0679388" lon="11.3867097"><ele>702.0</ele><time>2026-04-12T09:11:11.928Z</time></trkpt><trkpt lat="44.0677972" lon="11.386772"><ele>702.0</ele><time>2026-04-12T09:11:12.928Z</time></trkpt><trkpt lat="44.0676515" lon="11.3868387"><ele>702.0</ele><time>2026-04-12T09:11:13.927Z</time></trkpt><trkpt lat="44.0675286" lon="11.3869087"><ele>702.0</ele><time>2026-04-12T09:11:14.927Z</time></trkpt><trkpt lat="44.0674372" lon="11.3869943"><ele>705.75</ele><time>2026-04-12T09:11:15.927Z</time></trkpt><trkpt lat="44.0673814" lon="11.3871201"><ele>709.5</ele><time>2026-04-12T09:11:16.927Z</time></trkpt><trkpt lat="44.067351" lon="11.3872922"><ele>713.25</ele><time>2026-04-12T09:11:17.928Z</time></trkpt><trkpt lat="44.0673227" lon="11.3875132"><ele>717.0</ele><time>2026-04-12T09:11:18.927Z</time></trkpt><trkpt lat="44.0672626" lon="11.3877803"><ele>713.6666666666666</ele><time>2026-04-12T09:11:19.927Z</time></trkpt><trkpt lat="44.0671802" lon="11.388057"><ele>710.3333333333333</ele><time>2026-04-12T09:11:20.927Z</time></trkpt><trkpt lat="44.0670855" lon="11.3883389"><ele>707.0</ele><time>2026-04-12T09:11:21.927Z</time></trkpt><trkpt lat="44.0669626" lon="11.3886062"><ele>706.0</ele><time>2026-04-12T09:11:22.928Z</time></trkpt><trkpt lat="44.0668177" lon="11.388857"><ele>705.0</ele><time>2026-04-12T09:11:23.927Z</time></trkpt><trkpt lat="44.0666688" lon="11.3890777"><ele>704.0</ele><time>2026-04-12T09:11:24.927Z</time></trkpt><trkpt lat="44.0665306" lon="11.3892516"><ele>708.5</ele><time>2026-04-12T09:11:25.927Z</time></trkpt><trkpt lat="44.0664079" lon="11.3893883"><ele>713.0</ele><time>2026-04-12T09:11:26.927Z</time></trkpt><trkpt lat="44.0662877" lon="11.3894944"><ele>717.5</ele><time>2026-04-12T09:11:27.927Z</time></trkpt><trkpt lat="44.0661501" lon="11.3895407"><ele>722.0</ele><time>2026-04-12T09:11:28.927Z</time></trkpt><trkpt lat="44.0660239" lon="11.3895869"><ele>720.5</ele><time>2026-04-12T09:11:29.927Z</time></trkpt><trkpt lat="44.0659255" lon="11.3896797"><ele>719.0</ele><time>2026-04-12T09:11:30.927Z</time></trkpt><trkpt lat="44.065851" lon="11.3898378"><ele>717.5</ele><time>2026-04-12T09:11:31.927Z</time></trkpt><trkpt lat="44.0658119" lon="11.3900193"><ele>716.0</ele><time>2026-04-12T09:11:32.928Z</time></trkpt><trkpt lat="44.0657857" lon="11.3901829"><ele>722.0</ele><time>2026-04-12T09:11:33.927Z</time></trkpt><trkpt lat="44.0657276" lon="11.3903243"><ele>728.0</ele><time>2026-04-12T09:11:34.927Z</time></trkpt><trkpt lat="44.0656255" lon="11.3904583"><ele>734.0</ele><time>2026-04-12T09:11:35.927Z</time></trkpt><trkpt lat="44.0655102" lon="11.3906273"><ele>740.0</ele><time>2026-04-12T09:11:36.928Z</time></trkpt><trkpt lat="44.065424" lon="11.3908548"><ele>741.3333333333333</ele><time>2026-04-12T09:11:37.927Z</time></trkpt><trkpt lat="44.065369" lon="11.3911599"><ele>742.6666666666666</ele><time>2026-04-12T09:11:38.927Z</time></trkpt><trkpt lat="44.065326" lon="11.391448"><ele>744.0</ele><time>2026-04-12T09:11:39.928Z</time></trkpt><trkpt lat="44.0652807" lon="11.3916774"><ele>740.3333333333334</ele><time>2026-04-12T09:11:40.927Z</time></trkpt><trkpt lat="44.0652161" lon="11.3918762"><ele>736.6666666666667</ele><time>2026-04-12T09:11:41.927Z</time></trkpt><trkpt lat="44.0651061" lon="11.3920583"><ele>733.0</ele><time>2026-04-12T09:11:42.927Z</time></trkpt><trkpt lat="44.0649817" lon="11.3922584"><ele>725.3333333333334</ele><time>2026-04-12T09:11:43.927Z</time></trkpt><trkpt lat="44.0648575" lon="11.3924392"><ele>717.6666666666666</ele><time>2026-04-12T09:11:44.927Z</time></trkpt><trkpt lat="44.0647238" lon="11.3925896"><ele>710.0</ele><time>2026-04-12T09:11:45.927Z</time></trkpt><trkpt lat="44.0645871" lon="11.392709"><ele>710.0</ele><time>2026-04-12T09:11:46.928Z</time></trkpt><trkpt lat="44.0644681" lon="11.3927945"><ele>710.0</ele><time>2026-04-12T09:11:47.927Z</time></trkpt><trkpt lat="44.0643774" lon="11.3928353"><ele>710.0</ele><time>2026-04-12T09:11:48.927Z</time></trkpt><trkpt lat="44.0642919" lon="11.392826"><ele>710.0</ele><time>2026-04-12T09:11:49.928Z</time></trkpt><trkpt lat="44.064215" lon="11.3927542"><ele>710.0</ele><time>2026-04-12T09:11:50.929Z</time></trkpt><trkpt lat="44.0641427" lon="11.3926083"><ele>710.6666666666666</ele><time>2026-04-12T09:11:51.928Z</time></trkpt><trkpt lat="44.0640514" lon="11.3924101"><ele>711.3333333333334</ele><time>2026-04-12T09:11:52.928Z</time></trkpt><trkpt lat="44.0639195" lon="11.3922357"><ele>712.0</ele><time>2026-04-12T09:11:53.928Z</time></trkpt><trkpt lat="44.0637472" lon="11.3920584"><ele>712.0</ele><time>2026-04-12T09:11:54.928Z</time></trkpt><trkpt lat="44.0635895" lon="11.3918801"><ele>712.0</ele><time>2026-04-12T09:11:55.928Z</time></trkpt><trkpt lat="44.0634619" lon="11.3917005"><ele>712.0</ele><time>2026-04-12T09:11:56.929Z</time></trkpt><trkpt lat="44.0633554" lon="11.3915599"><ele>713.8</ele><time>2026-04-12T09:11:57.928Z</time></trkpt><trkpt lat="44.0632544" lon="11.3914742"><ele>715.6</ele><time>2026-04-12T09:11:58.929Z</time></trkpt><trkpt lat="44.0631542" lon="11.3914505"><ele>717.4</ele><time>2026-04-12T09:11:59.928Z</time></trkpt><trkpt lat="44.0630708" lon="11.3914879"><ele>719.1999999999999</ele><time>2026-04-12T09:12:00.928Z</time></trkpt><trkpt lat="44.0630118" lon="11.3915674"><ele>721.0</ele><time>2026-04-12T09:12:01.928Z</time></trkpt><trkpt lat="44.0629947" lon="11.3916965"><ele>721.0</ele><time>2026-04-12T09:12:02.928Z</time></trkpt><trkpt lat="44.0630058" lon="11.391866"><ele>721.0</ele><time>2026-04-12T09:12:03.928Z</time></trkpt><trkpt lat="44.0630535" lon="11.3920701"><ele>721.0</ele><time>2026-04-12T09:12:04.929Z</time></trkpt><trkpt lat="44.0630947" lon="11.3923009"><ele>721.0</ele><time>2026-04-12T09:12:05.929Z</time></trkpt><trkpt lat="44.0631108" lon="11.3925169"><ele>729.6666666666667</ele><time>2026-04-12T09:12:06.929Z</time></trkpt><trkpt lat="44.0631092" lon="11.392719"><ele>738.3333333333334</ele><time>2026-04-12T09:12:07.928Z</time></trkpt><trkpt lat="44.0630757" lon="11.3929395"><ele>747.0</ele><time>2026-04-12T09:12:08.928Z</time></trkpt><trkpt lat="44.0630384" lon="11.3932102"><ele>748.3333333333334</ele><time>2026-04-12T09:12:09.928Z</time></trkpt><trkpt lat="44.0630119" lon="11.3934547"><ele>749.6666666666667</ele><time>2026-04-12T09:12:10.929Z</time></trkpt><trkpt lat="44.0629455" lon="11.3937363"><ele>751.0</ele><time>2026-04-12T09:12:11.928Z</time></trkpt><trkpt lat="44.0629225" lon="11.3940055"><ele>747.3333333333334</ele><time>2026-04-12T09:12:12.928Z</time></trkpt><trkpt lat="44.0629225" lon="11.3942568"><ele>743.6666666666666</ele><time>2026-04-12T09:12:13.928Z</time></trkpt><trkpt lat="44.0629169" lon="11.3944663"><ele>740.0</ele><time>2026-04-12T09:12:14.928Z</time></trkpt><trkpt lat="44.0629077" lon="11.3946537"><ele>743.0</ele><time>2026-04-12T09:12:15.928Z</time></trkpt><trkpt lat="44.0628432" lon="11.3947819"><ele>746.0</ele><time>2026-04-12T09:12:16.929Z</time></trkpt><trkpt lat="44.0627432" lon="11.3948822"><ele>749.0</ele><time>2026-04-12T09:12:17.928Z</time></trkpt><trkpt lat="44.062596" lon="11.3949952"><ele>752.0</ele><time>2026-04-12T09:12:18.928Z</time></trkpt><trkpt lat="44.0624116" lon="11.39509"><ele>752.0</ele><time>2026-04-12T09:12:19.928Z</time></trkpt><trkpt lat="44.0622211" lon="11.3951811"><ele>752.0</ele><time>2026-04-12T09:12:20.928Z</time></trkpt><trkpt lat="44.0620421" lon="11.3952764"><ele>752.0</ele><time>2026-04-12T09:12:21.929Z</time></trkpt><trkpt lat="44.0618957" lon="11.3953793"><ele>745.5</ele><time>2026-04-12T09:12:22.928Z</time></trkpt><trkpt lat="44.0617893" lon="11.3955041"><ele>739.0</ele><time>2026-04-12T09:12:23.928Z</time></trkpt><trkpt lat="44.0617137" lon="11.3956413"><ele>732.5</ele><time>2026-04-12T09:12:24.929Z</time></trkpt><trkpt lat="44.0616907" lon="11.3958037"><ele>726.0</ele><time>2026-04-12T09:12:25.928Z</time></trkpt><trkpt lat="44.0617062" lon="11.3959722"><ele>726.0</ele><time>2026-04-12T09:12:26.928Z</time></trkpt><trkpt lat="44.0617296" lon="11.3961157"><ele>726.0</ele><time>2026-04-12T09:12:27.929Z</time></trkpt><trkpt lat="44.0617156" lon="11.3962503"><ele>726.0</ele><time>2026-04-12T09:12:28.928Z</time></trkpt><trkpt lat="44.0616506" lon="11.3963953"><ele>726.0</ele><time>2026-04-12T09:12:29.928Z</time></trkpt><trkpt lat="44.0615331" lon="11.3965256"><ele>729.0</ele><time>2026-04-12T09:12:30.928Z</time></trkpt><trkpt lat="44.0613992" lon="11.3966498"><ele>732.0</ele><time>2026-04-12T09:12:31.928Z</time></trkpt><trkpt lat="44.0612871" lon="11.3968104"><ele>735.0</ele><time>2026-04-12T09:12:32.929Z</time></trkpt><trkpt lat="44.0612134" lon="11.3969847"><ele>735.0</ele><time>2026-04-12T09:12:33.928Z</time></trkpt><trkpt lat="44.0611597" lon="11.3971263"><ele>735.0</ele><time>2026-04-12T09:12:34.928Z</time></trkpt><trkpt lat="44.0610787" lon="11.3972062"><ele>735.0</ele><time>2026-04-12T09:12:35.928Z</time></trkpt><trkpt lat="44.0609842" lon="11.3972267"><ele>735.0</ele><time>2026-04-12T09:12:36.928Z</time></trkpt><trkpt lat="44.0608846" lon="11.3971949"><ele>735.0</ele><time>2026-04-12T09:12:37.928Z</time></trkpt><trkpt lat="44.060767" lon="11.3971132"><ele>736.75</ele><time>2026-04-12T09:12:38.928Z</time></trkpt><trkpt lat="44.0606509" lon="11.3970555"><ele>738.5</ele><time>2026-04-12T09:12:39.928Z</time></trkpt><trkpt lat="44.0605336" lon="11.3970559"><ele>740.25</ele><time>2026-04-12T09:12:40.928Z</time></trkpt><trkpt lat="44.0604138" lon="11.3971122"><ele>742.0</ele><time>2026-04-12T09:12:41.928Z</time></trkpt><trkpt lat="44.0602968" lon="11.3972265"><ele>742.0</ele><time>2026-04-12T09:12:42.928Z</time></trkpt><trkpt lat="44.0601907" lon="11.3973868"><ele>742.0</ele><time>2026-04-12T09:12:43.928Z</time></trkpt><trkpt lat="44.0601222" lon="11.3975711"><ele>742.0</ele><time>2026-04-12T09:12:44.928Z</time></trkpt><trkpt lat="44.0600952" lon="11.397772"><ele>742.0</ele><time>2026-04-12T09:12:45.928Z</time></trkpt><trkpt lat="44.0600723" lon="11.3979281"><ele>742.0</ele><time>2026-04-12T09:12:46.928Z</time></trkpt><trkpt lat="44.0600159" lon="11.3980321"><ele>742.0</ele><time>2026-04-12T09:12:47.928Z</time></trkpt><trkpt lat="44.0599186" lon="11.3980734"><ele>742.0</ele><time>2026-04-12T09:12:48.929Z</time></trkpt><trkpt lat="44.0597934" lon="11.3980679"><ele>742.0</ele><time>2026-04-12T09:12:49.928Z</time></trkpt><trkpt lat="44.059648" lon="11.3979856"><ele>746.6666666666667</ele><time>2026-04-12T09:12:50.929Z</time></trkpt><trkpt lat="44.0594961" lon="11.3978772"><ele>751.3333333333334</ele><time>2026-04-12T09:12:51.928Z</time></trkpt><trkpt lat="44.0593392" lon="11.3977963"><ele>756.0</ele><time>2026-04-12T09:12:52.928Z</time></trkpt><trkpt lat="44.0591619" lon="11.3977555"><ele>755.3333333333334</ele><time>2026-04-12T09:12:53.928Z</time></trkpt><trkpt lat="44.0589764" lon="11.3977965"><ele>754.6666666666667</ele><time>2026-04-12T09:12:54.928Z</time></trkpt><trkpt lat="44.0588076" lon="11.397865"><ele>754.0</ele><time>2026-04-12T09:12:55.928Z</time></trkpt><trkpt lat="44.0586554" lon="11.3979032"><ele>754.0</ele><time>2026-04-12T09:12:56.928Z</time></trkpt><trkpt lat="44.0585129" lon="11.3979037"><ele>754.0</ele><time>2026-04-12T09:12:57.928Z</time></trkpt><trkpt lat="44.0583666" lon="11.3978737"><ele>754.0</ele><time>2026-04-12T09:12:58.929Z</time></trkpt><trkpt lat="44.058217" lon="11.3978009"><ele>754.0</ele><time>2026-04-12T09:12:59.928Z</time></trkpt><trkpt lat="44.0580729" lon="11.3977103"><ele>752.75</ele><time>2026-04-12T09:13:00.928Z</time></trkpt><trkpt lat="44.0579527" lon="11.3976022"><ele>751.5</ele><time>2026-04-12T09:13:01.928Z</time></trkpt><trkpt lat="44.0578481" lon="11.3974689"><ele>750.25</ele><time>2026-04-12T09:13:02.928Z</time></trkpt><trkpt lat="44.0577719" lon="11.3973136"><ele>749.0</ele><time>2026-04-12T09:13:03.928Z</time></trkpt><trkpt lat="44.0577228" lon="11.3971534"><ele>749.0</ele><time>2026-04-12T09:13:04.928Z</time></trkpt><trkpt lat="44.0577054" lon="11.396971"><ele>749.0</ele><time>2026-04-12T09:13:05.929Z</time></trkpt><trkpt lat="44.0577036" lon="11.3967471"><ele>749.0</ele><time>2026-04-12T09:13:06.928Z</time></trkpt><trkpt lat="44.0576799" lon="11.3964924"><ele>756.5</ele><time>2026-04-12T09:13:07.929Z</time></trkpt><trkpt lat="44.0575888" lon="11.3962042"><ele>764.0</ele><time>2026-04-12T09:13:08.928Z</time></trkpt><trkpt lat="44.0574813" lon="11.3959088"><ele>754.6666666666666</ele><time>2026-04-12T09:13:09.929Z</time></trkpt><trkpt lat="44.057398" lon="11.3956538"><ele>745.3333333333334</ele><time>2026-04-12T09:13:10.929Z</time></trkpt><trkpt lat="44.0573328" lon="11.3954419"><ele>736.0</ele><time>2026-04-12T09:13:11.928Z</time></trkpt><trkpt lat="44.0573007" lon="11.3952926"><ele>736.0</ele><time>2026-04-12T09:13:12.928Z</time></trkpt><trkpt lat="44.0572986" lon="11.3951746"><ele>736.0</ele><time>2026-04-12T09:13:13.928Z</time></trkpt><trkpt lat="44.0573343" lon="11.3950606"><ele>736.0</ele><time>2026-04-12T09:13:14.928Z</time></trkpt><trkpt lat="44.0574219" lon="11.3949651"><ele>736.0</ele><time>2026-04-12T09:13:15.928Z</time></trkpt><trkpt lat="44.0575391" lon="11.3948773"><ele>736.0</ele><time>2026-04-12T09:13:16.928Z</time></trkpt><trkpt lat="44.0576156" lon="11.394791"><ele>740.1999999999999</ele><time>2026-04-12T09:13:17.929Z</time></trkpt><trkpt lat="44.0576502" lon="11.394689"><ele>744.4</ele><time>2026-04-12T09:13:18.93Z</time></trkpt><trkpt lat="44.0576274" lon="11.3945716"><ele>748.6</ele><time>2026-04-12T09:13:19.929Z</time></trkpt><trkpt lat="44.0575484" lon="11.3944493"><ele>752.8</ele><time>2026-04-12T09:13:20.929Z</time></trkpt><trkpt lat="44.0574426" lon="11.39432"><ele>757.0</ele><time>2026-04-12T09:13:21.929Z</time></trkpt><trkpt lat="44.0572729" lon="11.3941756"><ele>757.0</ele><time>2026-04-12T09:13:22.929Z</time></trkpt><trkpt lat="44.0570939" lon="11.3940523"><ele>757.0</ele><time>2026-04-12T09:13:23.929Z</time></trkpt><trkpt lat="44.0569347" lon="11.3939411"><ele>757.0</ele><time>2026-04-12T09:13:24.929Z</time></trkpt><trkpt lat="44.0568357" lon="11.3938569"><ele>761.4000000000001</ele><time>2026-04-12T09:13:25.93Z</time></trkpt><trkpt lat="44.0567944" lon="11.3937621"><ele>765.8000000000001</ele><time>2026-04-12T09:13:26.929Z</time></trkpt><trkpt lat="44.0567893" lon="11.3936338"><ele>770.2</ele><time>2026-04-12T09:13:27.929Z</time></trkpt><trkpt lat="44.0568126" lon="11.3934733"><ele>774.6</ele><time>2026-04-12T09:13:28.929Z</time></trkpt><trkpt lat="44.0568342" lon="11.3933062"><ele>779.0</ele><time>2026-04-12T09:13:29.929Z</time></trkpt><trkpt lat="44.0568218" lon="11.3931699"><ele>779.0</ele><time>2026-04-12T09:13:30.929Z</time></trkpt><trkpt lat="44.0567716" lon="11.3930563"><ele>779.0</ele><time>2026-04-12T09:13:31.929Z</time></trkpt><trkpt lat="44.0566917" lon="11.3929968"><ele>779.0</ele><time>2026-04-12T09:13:32.929Z</time></trkpt><trkpt lat="44.0566076" lon="11.3930074"><ele>779.0</ele><time>2026-04-12T09:13:33.929Z</time></trkpt><trkpt lat="44.0565192" lon="11.3930893"><ele>779.0</ele><time>2026-04-12T09:13:34.929Z</time></trkpt><trkpt lat="44.0564237" lon="11.3931861"><ele>776.0</ele><time>2026-04-12T09:13:35.929Z</time></trkpt><trkpt lat="44.0563186" lon="11.393262"><ele>773.0</ele><time>2026-04-12T09:13:36.929Z</time></trkpt><trkpt lat="44.0562134" lon="11.3932939"><ele>770.0</ele><time>2026-04-12T09:13:37.929Z</time></trkpt><trkpt lat="44.0561169" lon="11.3932635"><ele>767.0</ele><time>2026-04-12T09:13:38.929Z</time></trkpt><trkpt lat="44.0560352" lon="11.3931732"><ele>764.0</ele><time>2026-04-12T09:13:39.929Z</time></trkpt><trkpt lat="44.0559579" lon="11.3930232"><ele>766.3333333333333</ele><time>2026-04-12T09:13:40.929Z</time></trkpt><trkpt lat="44.0558702" lon="11.3928237"><ele>768.6666666666666</ele><time>2026-04-12T09:13:41.929Z</time></trkpt><trkpt lat="44.0557749" lon="11.3925915"><ele>771.0</ele><time>2026-04-12T09:13:42.929Z</time></trkpt><trkpt lat="44.0556756" lon="11.3923343"><ele>775.6666666666667</ele><time>2026-04-12T09:13:43.929Z</time></trkpt><trkpt lat="44.0555773" lon="11.392087"><ele>780.3333333333334</ele><time>2026-04-12T09:13:44.929Z</time></trkpt><trkpt lat="44.0554884" lon="11.3918745"><ele>785.0</ele><time>2026-04-12T09:13:45.929Z</time></trkpt><trkpt lat="44.0554122" lon="11.3916751"><ele>785.0</ele><time>2026-04-12T09:13:46.929Z</time></trkpt><trkpt lat="44.0553606" lon="11.391498"><ele>785.0</ele><time>2026-04-12T09:13:47.929Z</time></trkpt><trkpt lat="44.0553271" lon="11.3912999"><ele>785.0</ele><time>2026-04-12T09:13:48.929Z</time></trkpt><trkpt lat="44.0553272" lon="11.3910954"><ele>785.0</ele><time>2026-04-12T09:13:49.929Z</time></trkpt><trkpt lat="44.0553404" lon="11.3908489"><ele>788.3333333333334</ele><time>2026-04-12T09:13:50.929Z</time></trkpt><trkpt lat="44.0553386" lon="11.3905907"><ele>791.6666666666667</ele><time>2026-04-12T09:13:51.929Z</time></trkpt><trkpt lat="44.0553255" lon="11.3903794"><ele>795.0</ele><time>2026-04-12T09:13:52.929Z</time></trkpt><trkpt lat="44.0553073" lon="11.3902193"><ele>797.8</ele><time>2026-04-12T09:13:53.929Z</time></trkpt><trkpt lat="44.0552659" lon="11.3901077"><ele>800.6</ele><time>2026-04-12T09:13:54.929Z</time></trkpt><trkpt lat="44.0551978" lon="11.3900529"><ele>803.4000000000001</ele><time>2026-04-12T09:13:55.929Z</time></trkpt><trkpt lat="44.0551207" lon="11.3900522"><ele>806.2</ele><time>2026-04-12T09:13:56.93Z</time></trkpt><trkpt lat="44.0550359" lon="11.3901445"><ele>809.0</ele><time>2026-04-12T09:13:57.929Z</time></trkpt><trkpt lat="44.054958" lon="11.3903118"><ele>806.75</ele><time>2026-04-12T09:13:58.929Z</time></trkpt><trkpt lat="44.0548783" lon="11.3904822"><ele>804.5</ele><time>2026-04-12T09:13:59.93Z</time></trkpt><trkpt lat="44.0547865" lon="11.3905975"><ele>802.25</ele><time>2026-04-12T09:14:00.93Z</time></trkpt><trkpt lat="44.0546728" lon="11.3906403"><ele>800.0</ele><time>2026-04-12T09:14:01.93Z</time></trkpt><trkpt lat="44.0545246" lon="11.3906499"><ele>800.0</ele><time>2026-04-12T09:14:02.929Z</time></trkpt><trkpt lat="44.054345" lon="11.3906264"><ele>800.0</ele><time>2026-04-12T09:14:03.929Z</time></trkpt><trkpt lat="44.0541269" lon="11.390539"><ele>800.0</ele><time>2026-04-12T09:14:04.929Z</time></trkpt><trkpt lat="44.0538969" lon="11.3904602"><ele>815.0</ele><time>2026-04-12T09:14:05.929Z</time></trkpt><trkpt lat="44.0536513" lon="11.390409"><ele>830.0</ele><time>2026-04-12T09:14:06.929Z</time></trkpt><trkpt lat="44.0534189" lon="11.3904036"><ele>826.6666666666667</ele><time>2026-04-12T09:14:07.929Z</time></trkpt><trkpt lat="44.0532017" lon="11.3904277"><ele>823.3333333333333</ele><time>2026-04-12T09:14:08.929Z</time></trkpt><trkpt lat="44.053007" lon="11.3904818"><ele>820.0</ele><time>2026-04-12T09:14:09.929Z</time></trkpt><trkpt lat="44.0528432" lon="11.390536"><ele>820.0</ele><time>2026-04-12T09:14:10.929Z</time></trkpt><trkpt lat="44.0526804" lon="11.3905422"><ele>820.0</ele><time>2026-04-12T09:14:11.929Z</time></trkpt><trkpt lat="44.0524926" lon="11.3904656"><ele>820.0</ele><time>2026-04-12T09:14:12.929Z</time></trkpt><trkpt lat="44.0522789" lon="11.3903637"><ele>819.0</ele><time>2026-04-12T09:14:13.929Z</time></trkpt><trkpt lat="44.0520497" lon="11.3902534"><ele>818.0</ele><time>2026-04-12T09:14:14.929Z</time></trkpt><trkpt lat="44.0518338" lon="11.3901572"><ele>818.0</ele><time>2026-04-12T09:14:15.93Z</time></trkpt><trkpt lat="44.0516273" lon="11.3900978"><ele>818.0</ele><time>2026-04-12T09:14:16.929Z</time></trkpt><trkpt lat="44.0514219" lon="11.3900902"><ele>818.0</ele><time>2026-04-12T09:14:17.93Z</time></trkpt><trkpt lat="44.0512333" lon="11.3901109"><ele>818.6666666666667</ele><time>2026-04-12T09:14:18.93Z</time></trkpt><trkpt lat="44.0510661" lon="11.3900856"><ele>819.3333333333333</ele><time>2026-04-12T09:14:19.929Z</time></trkpt><trkpt lat="44.0508913" lon="11.3899941"><ele>820.0</ele><time>2026-04-12T09:14:20.929Z</time></trkpt><trkpt lat="44.0507021" lon="11.3898684"><ele>823.0</ele><time>2026-04-12T09:14:21.929Z</time></trkpt><trkpt lat="44.0505025" lon="11.3897582"><ele>826.0</ele><time>2026-04-12T09:14:22.929Z</time></trkpt><trkpt lat="44.0502995" lon="11.3896795"><ele>829.0</ele><time>2026-04-12T09:14:23.929Z</time></trkpt><trkpt lat="44.0501094" lon="11.3896369"><ele>834.0</ele><time>2026-04-12T09:14:24.929Z</time></trkpt><trkpt lat="44.0499363" lon="11.3896235"><ele>839.0</ele><time>2026-04-12T09:14:25.929Z</time></trkpt><trkpt lat="44.0497789" lon="11.3896399"><ele>844.0</ele><time>2026-04-12T09:14:26.929Z</time></trkpt><trkpt lat="44.0496293" lon="11.3896939"><ele>844.0</ele><time>2026-04-12T09:14:27.929Z</time></trkpt><trkpt lat="44.0494841" lon="11.3897699"><ele>844.0</ele><time>2026-04-12T09:14:28.929Z</time></trkpt><trkpt lat="44.0493513" lon="11.389852"><ele>844.0</ele><time>2026-04-12T09:14:29.929Z</time></trkpt><trkpt lat="44.0492399" lon="11.3899296"><ele>844.0</ele><time>2026-04-12T09:14:30.929Z</time></trkpt><trkpt lat="44.0491383" lon="11.3900258"><ele>845.25</ele><time>2026-04-12T09:14:31.93Z</time></trkpt><trkpt lat="44.0490735" lon="11.3901285"><ele>846.5</ele><time>2026-04-12T09:14:32.93Z</time></trkpt><trkpt lat="44.0490345" lon="11.3902669"><ele>847.75</ele><time>2026-04-12T09:14:33.929Z</time></trkpt><trkpt lat="44.0490047" lon="11.3904746"><ele>849.0</ele><time>2026-04-12T09:14:34.929Z</time></trkpt><trkpt lat="44.0489455" lon="11.3906906"><ele>849.0</ele><time>2026-04-12T09:14:35.929Z</time></trkpt><trkpt lat="44.0488496" lon="11.390915"><ele>849.0</ele><time>2026-04-12T09:14:36.929Z</time></trkpt><trkpt lat="44.0487403" lon="11.3911507"><ele>849.0</ele><time>2026-04-12T09:14:37.93Z</time></trkpt><trkpt lat="44.0486619" lon="11.3913619"><ele>848.2</ele><time>2026-04-12T09:14:38.93Z</time></trkpt><trkpt lat="44.0486034" lon="11.3915368"><ele>847.4000000000001</ele><time>2026-04-12T09:14:39.929Z</time></trkpt><trkpt lat="44.0485455" lon="11.3916353"><ele>846.6</ele><time>2026-04-12T09:14:40.929Z</time></trkpt><trkpt lat="44.048442" lon="11.3916094"><ele>845.8</ele><time>2026-04-12T09:14:42.929Z</time></trkpt><trkpt lat="44.0484185" lon="11.3915116"><ele>845.0</ele><time>2026-04-12T09:14:43.929Z</time></trkpt><trkpt lat="44.0484116" lon="11.3913691"><ele>846.3333333333334</ele><time>2026-04-12T09:14:44.93Z</time></trkpt><trkpt lat="44.0483821" lon="11.3911851"><ele>847.6666666666667</ele><time>2026-04-12T09:14:45.929Z</time></trkpt><trkpt lat="44.0483206" lon="11.3909589"><ele>849.0</ele><time>2026-04-12T09:14:46.929Z</time></trkpt><trkpt lat="44.0482404" lon="11.3907297"><ele>850.0</ele><time>2026-04-12T09:14:47.93Z</time></trkpt><trkpt lat="44.0481526" lon="11.3905299"><ele>851.0</ele><time>2026-04-12T09:14:48.93Z</time></trkpt><trkpt lat="44.048064" lon="11.3903831"><ele>852.0</ele><time>2026-04-12T09:14:49.93Z</time></trkpt><trkpt lat="44.0479537" lon="11.3903061"><ele>853.0</ele><time>2026-04-12T09:14:50.93Z</time></trkpt><trkpt lat="44.0478234" lon="11.3902803"><ele>852.25</ele><time>2026-04-12T09:14:51.93Z</time></trkpt><trkpt lat="44.0476793" lon="11.3903281"><ele>851.5</ele><time>2026-04-12T09:14:52.93Z</time></trkpt><trkpt lat="44.0475427" lon="11.3904276"><ele>850.75</ele><time>2026-04-12T09:14:53.93Z</time></trkpt><trkpt lat="44.0474378" lon="11.3905088"><ele>850.0</ele><time>2026-04-12T09:14:54.93Z</time></trkpt><trkpt lat="44.0473547" lon="11.3905272"><ele>851.2</ele><time>2026-04-12T09:14:55.931Z</time></trkpt><trkpt lat="44.0472758" lon="11.3905002"><ele>852.4</ele><time>2026-04-12T09:14:56.93Z</time></trkpt><trkpt lat="44.0472392" lon="11.3904144"><ele>853.5999999999999</ele><time>2026-04-12T09:14:57.93Z</time></trkpt><trkpt lat="44.0472186" lon="11.3902773"><ele>854.8</ele><time>2026-04-12T09:14:58.93Z</time></trkpt><trkpt lat="44.0472032" lon="11.3900891"><ele>856.0</ele><time>2026-04-12T09:14:59.93Z</time></trkpt><trkpt lat="44.0471904" lon="11.3898404"><ele>860.6666666666666</ele><time>2026-04-12T09:15:00.93Z</time></trkpt><trkpt lat="44.0471606" lon="11.389563"><ele>865.3333333333333</ele><time>2026-04-12T09:15:01.93Z</time></trkpt><trkpt lat="44.0471186" lon="11.3892846"><ele>870.0</ele><time>2026-04-12T09:15:02.931Z</time></trkpt><trkpt lat="44.047088" lon="11.3890518"><ele>872.75</ele><time>2026-04-12T09:15:03.93Z</time></trkpt><trkpt lat="44.0470963" lon="11.3888259"><ele>875.5</ele><time>2026-04-12T09:15:04.931Z</time></trkpt><trkpt lat="44.0471184" lon="11.3886334"><ele>878.25</ele><time>2026-04-12T09:15:05.931Z</time></trkpt><trkpt lat="44.0471266" lon="11.3884647"><ele>881.0</ele><time>2026-04-12T09:15:06.93Z</time></trkpt><trkpt lat="44.0471014" lon="11.3883066"><ele>881.0000000000001</ele><time>2026-04-12T09:15:07.93Z</time></trkpt><trkpt lat="44.0470478" lon="11.3881937"><ele>881.0</ele><time>2026-04-12T09:15:08.93Z</time></trkpt><trkpt lat="44.0469795" lon="11.3881189"><ele>881.0</ele><time>2026-04-12T09:15:09.93Z</time></trkpt><trkpt lat="44.0469158" lon="11.388052"><ele>881.0</ele><time>2026-04-12T09:15:10.93Z</time></trkpt><trkpt lat="44.0468606" lon="11.3880073"><ele>881.0000000000001</ele><time>2026-04-12T09:15:11.93Z</time></trkpt><trkpt lat="44.0467889" lon="11.3879621"><ele>881.0</ele><time>2026-04-12T09:15:13.93Z</time></trkpt><trkpt lat="44.0467511" lon="11.3878758"><ele>879.75</ele><time>2026-04-12T09:15:48.102Z</time></trkpt><trkpt lat="44.0465169" lon="11.3878084"><ele>878.5</ele><time>2026-04-12T09:20:36.933Z</time></trkpt><trkpt lat="44.0464257" lon="11.3877581"><ele>877.25</ele><time>2026-04-12T09:20:37.933Z</time></trkpt><trkpt lat="44.046327" lon="11.3876954"><ele>876.0</ele><time>2026-04-12T09:20:38.933Z</time></trkpt><trkpt lat="44.0462171" lon="11.387617"><ele>876.0</ele><time>2026-04-12T09:20:39.933Z</time></trkpt><trkpt lat="44.0461003" lon="11.387522"><ele>876.0</ele><time>2026-04-12T09:20:40.933Z</time></trkpt><trkpt lat="44.0459837" lon="11.387423"><ele>876.0</ele><time>2026-04-12T09:20:41.934Z</time></trkpt><trkpt lat="44.0458687" lon="11.3873462"><ele>876.0</ele><time>2026-04-12T09:20:42.933Z</time></trkpt><trkpt lat="44.0457435" lon="11.3873231"><ele>874.3333333333333</ele><time>2026-04-12T09:20:43.933Z</time></trkpt><trkpt lat="44.0455985" lon="11.3873347"><ele>872.6666666666666</ele><time>2026-04-12T09:20:44.933Z</time></trkpt><trkpt lat="44.0454387" lon="11.3873771"><ele>871.0</ele><time>2026-04-12T09:20:45.933Z</time></trkpt><trkpt lat="44.0452658" lon="11.3874377"><ele>871.0</ele><time>2026-04-12T09:20:46.933Z</time></trkpt><trkpt lat="44.0450968" lon="11.3875146"><ele>871.0</ele><time>2026-04-12T09:20:47.933Z</time></trkpt><trkpt lat="44.0449433" lon="11.3876014"><ele>871.0</ele><time>2026-04-12T09:20:48.933Z</time></trkpt><trkpt lat="44.0448107" lon="11.3876839"><ele>870.1666666666666</ele><time>2026-04-12T09:20:49.934Z</time></trkpt><trkpt lat="44.0447057" lon="11.3877483"><ele>869.3333333333333</ele><time>2026-04-12T09:20:50.933Z</time></trkpt><trkpt lat="44.0446214" lon="11.3877796"><ele>868.5</ele><time>2026-04-12T09:20:51.933Z</time></trkpt><trkpt lat="44.0445457" lon="11.3877688"><ele>867.6666666666667</ele><time>2026-04-12T09:20:52.933Z</time></trkpt><trkpt lat="44.0444869" lon="11.3877116"><ele>866.8333333333334</ele><time>2026-04-12T09:20:53.933Z</time></trkpt><trkpt lat="44.044457" lon="11.3876152"><ele>866.0</ele><time>2026-04-12T09:20:54.933Z</time></trkpt><trkpt lat="44.0444593" lon="11.3874808"><ele>866.0</ele><time>2026-04-12T09:20:55.933Z</time></trkpt><trkpt lat="44.0444648" lon="11.3873405"><ele>866.0</ele><time>2026-04-12T09:20:56.934Z</time></trkpt><trkpt lat="44.0444708" lon="11.3871732"><ele>866.0</ele><time>2026-04-12T09:20:57.933Z</time></trkpt><trkpt lat="44.0444676" lon="11.3869994"><ele>866.0</ele><time>2026-04-12T09:20:58.933Z</time></trkpt><trkpt lat="44.0444838" lon="11.3868285"><ele>862.0</ele><time>2026-04-12T09:20:59.933Z</time></trkpt><trkpt lat="44.0445084" lon="11.3866696"><ele>858.0</ele><time>2026-04-12T09:21:00.933Z</time></trkpt><trkpt lat="44.0445936" lon="11.386562"><ele>854.0</ele><time>2026-04-12T09:21:01.933Z</time></trkpt><trkpt lat="44.0446993" lon="11.3864883"><ele>850.0</ele><time>2026-04-12T09:21:02.933Z</time></trkpt><trkpt lat="44.0448209" lon="11.3864325"><ele>850.0</ele><time>2026-04-12T09:21:03.933Z</time></trkpt><trkpt lat="44.0449318" lon="11.3863657"><ele>850.0</ele><time>2026-04-12T09:21:04.933Z</time></trkpt><trkpt lat="44.0450203" lon="11.3862712"><ele>850.0</ele><time>2026-04-12T09:21:05.934Z</time></trkpt><trkpt lat="44.0450838" lon="11.3861477"><ele>850.0</ele><time>2026-04-12T09:21:06.934Z</time></trkpt><trkpt lat="44.0451457" lon="11.386013"><ele>849.2</ele><time>2026-04-12T09:21:07.933Z</time></trkpt><trkpt lat="44.0452321" lon="11.3859019"><ele>848.4</ele><time>2026-04-12T09:21:08.933Z</time></trkpt><trkpt lat="44.0453314" lon="11.3858174"><ele>847.5999999999999</ele><time>2026-04-12T09:21:09.933Z</time></trkpt><trkpt lat="44.0454107" lon="11.3857386"><ele>846.8</ele><time>2026-04-12T09:21:10.933Z</time></trkpt><trkpt lat="44.0454597" lon="11.3856453"><ele>846.0</ele><time>2026-04-12T09:21:11.933Z</time></trkpt><trkpt lat="44.0454713" lon="11.38554"><ele>843.1999999999999</ele><time>2026-04-12T09:21:12.933Z</time></trkpt><trkpt lat="44.0454377" lon="11.3854511"><ele>840.4</ele><time>2026-04-12T09:21:13.933Z</time></trkpt><trkpt lat="44.0453712" lon="11.3854125"><ele>837.6</ele><time>2026-04-12T09:21:14.933Z</time></trkpt><trkpt lat="44.0452807" lon="11.3854159"><ele>834.8</ele><time>2026-04-12T09:21:15.933Z</time></trkpt><trkpt lat="44.0451739" lon="11.3854283"><ele>832.0</ele><time>2026-04-12T09:21:16.933Z</time></trkpt><trkpt lat="44.0450582" lon="11.3854044"><ele>828.25</ele><time>2026-04-12T09:21:17.934Z</time></trkpt><trkpt lat="44.0449444" lon="11.3853484"><ele>824.5</ele><time>2026-04-12T09:21:18.935Z</time></trkpt><trkpt lat="44.0448364" lon="11.3853011"><ele>820.75</ele><time>2026-04-12T09:21:19.933Z</time></trkpt><trkpt lat="44.0447285" lon="11.3853334"><ele>817.0</ele><time>2026-04-12T09:21:20.933Z</time></trkpt><trkpt lat="44.0446243" lon="11.3854293"><ele>821.0</ele><time>2026-04-12T09:21:21.934Z</time></trkpt><trkpt lat="44.0445285" lon="11.3855664"><ele>825.0</ele><time>2026-04-12T09:21:22.934Z</time></trkpt><trkpt lat="44.0444378" lon="11.3856987"><ele>829.0</ele><time>2026-04-12T09:21:23.933Z</time></trkpt><trkpt lat="44.0443396" lon="11.3857926"><ele>833.0</ele><time>2026-04-12T09:21:24.934Z</time></trkpt><trkpt lat="44.0442232" lon="11.3858394"><ele>825.75</ele><time>2026-04-12T09:21:25.933Z</time></trkpt><trkpt lat="44.0440992" lon="11.3858637"><ele>818.5</ele><time>2026-04-12T09:21:26.934Z</time></trkpt><trkpt lat="44.0439783" lon="11.3858933"><ele>811.25</ele><time>2026-04-12T09:21:27.933Z</time></trkpt><trkpt lat="44.0438659" lon="11.3859401"><ele>804.0</ele><time>2026-04-12T09:21:28.933Z</time></trkpt><trkpt lat="44.0437615" lon="11.3860083"><ele>804.0</ele><time>2026-04-12T09:21:29.933Z</time></trkpt><trkpt lat="44.0436616" lon="11.3860971"><ele>804.0</ele><time>2026-04-12T09:21:30.933Z</time></trkpt><trkpt lat="44.043562" lon="11.3861988"><ele>804.0</ele><time>2026-04-12T09:21:31.933Z</time></trkpt><trkpt lat="44.0434634" lon="11.3863039"><ele>804.0</ele><time>2026-04-12T09:21:32.934Z</time></trkpt><trkpt lat="44.0433704" lon="11.3864064"><ele>803.4000000000001</ele><time>2026-04-12T09:21:33.934Z</time></trkpt><trkpt lat="44.0432896" lon="11.3864999"><ele>802.8</ele><time>2026-04-12T09:21:34.934Z</time></trkpt><trkpt lat="44.0432241" lon="11.3865887"><ele>802.2</ele><time>2026-04-12T09:21:35.933Z</time></trkpt><trkpt lat="44.0431688" lon="11.3866615"><ele>801.5999999999999</ele><time>2026-04-12T09:21:36.934Z</time></trkpt><trkpt lat="44.0430714" lon="11.3867097"><ele>801.0</ele><time>2026-04-12T09:21:38.934Z</time></trkpt><trkpt lat="44.043038" lon="11.386579"><ele>801.0</ele><time>2026-04-12T09:21:40.934Z</time></trkpt><trkpt lat="44.0431291" lon="11.3863901"><ele>801.0</ele><time>2026-04-12T09:21:42.935Z</time></trkpt><trkpt lat="44.043229" lon="11.3862658"><ele>801.0</ele><time>2026-04-12T09:21:43.934Z</time></trkpt><trkpt lat="44.0433283" lon="11.3861235"><ele>801.0</ele><time>2026-04-12T09:21:44.934Z</time></trkpt><trkpt lat="44.0434261" lon="11.3859664"><ele>802.0</ele><time>2026-04-12T09:21:45.935Z</time></trkpt><trkpt lat="44.0435222" lon="11.3857929"><ele>803.0</ele><time>2026-04-12T09:21:46.934Z</time></trkpt><trkpt lat="44.0436112" lon="11.3855977"><ele>804.0</ele><time>2026-04-12T09:21:47.934Z</time></trkpt><trkpt lat="44.0436913" lon="11.3853857"><ele>798.3333333333333</ele><time>2026-04-12T09:21:48.934Z</time></trkpt><trkpt lat="44.043767" lon="11.3851732"><ele>792.6666666666666</ele><time>2026-04-12T09:21:49.935Z</time></trkpt><trkpt lat="44.0438276" lon="11.3849579"><ele>787.0</ele><time>2026-04-12T09:21:50.934Z</time></trkpt><trkpt lat="44.0438931" lon="11.3847589"><ele>790.0</ele><time>2026-04-12T09:21:51.934Z</time></trkpt><trkpt lat="44.0439682" lon="11.3845811"><ele>793.0</ele><time>2026-04-12T09:21:52.934Z</time></trkpt><trkpt lat="44.0440525" lon="11.3844276"><ele>796.0</ele><time>2026-04-12T09:21:53.935Z</time></trkpt><trkpt lat="44.0441405" lon="11.3843014"><ele>799.0</ele><time>2026-04-12T09:21:54.934Z</time></trkpt><trkpt lat="44.0442149" lon="11.3842011"><ele>798.9999999999999</ele><time>2026-04-12T09:21:55.934Z</time></trkpt><trkpt lat="44.0442579" lon="11.3841039"><ele>799.0</ele><time>2026-04-12T09:21:56.934Z</time></trkpt><trkpt lat="44.0442815" lon="11.3840137"><ele>799.0</ele><time>2026-04-12T09:21:57.934Z</time></trkpt><trkpt lat="44.0442306" lon="11.3839381"><ele>799.0</ele><time>2026-04-12T09:21:58.934Z</time></trkpt><trkpt lat="44.0441572" lon="11.3839196"><ele>798.9999999999999</ele><time>2026-04-12T09:21:59.934Z</time></trkpt><trkpt lat="44.0440756" lon="11.3839585"><ele>799.0</ele><time>2026-04-12T09:22:00.934Z</time></trkpt><trkpt lat="44.0439833" lon="11.3840348"><ele>791.5</ele><time>2026-04-12T09:22:01.934Z</time></trkpt><trkpt lat="44.0438884" lon="11.3841337"><ele>784.0</ele><time>2026-04-12T09:22:02.934Z</time></trkpt><trkpt lat="44.0437907" lon="11.3842539"><ele>776.5</ele><time>2026-04-12T09:22:03.934Z</time></trkpt><trkpt lat="44.043688" lon="11.3844005"><ele>769.0</ele><time>2026-04-12T09:22:04.934Z</time></trkpt><trkpt lat="44.0435899" lon="11.3845603"><ele>773.5</ele><time>2026-04-12T09:22:05.934Z</time></trkpt><trkpt lat="44.0435024" lon="11.3847214"><ele>778.0</ele><time>2026-04-12T09:22:06.934Z</time></trkpt><trkpt lat="44.0434275" lon="11.3848697"><ele>782.5</ele><time>2026-04-12T09:22:07.934Z</time></trkpt><trkpt lat="44.043367" lon="11.3849993"><ele>787.0</ele><time>2026-04-12T09:22:08.934Z</time></trkpt><trkpt lat="44.0433158" lon="11.3850997"><ele>783.4000000000001</ele><time>2026-04-12T09:22:09.934Z</time></trkpt><trkpt lat="44.0432633" lon="11.3851605"><ele>779.8000000000001</ele><time>2026-04-12T09:22:10.934Z</time></trkpt><trkpt lat="44.0431684" lon="11.3851198"><ele>776.2</ele><time>2026-04-12T09:22:12.934Z</time></trkpt><trkpt lat="44.043189" lon="11.3849254"><ele>772.6</ele><time>2026-04-12T09:22:14.934Z</time></trkpt><trkpt lat="44.0432557" lon="11.3847665"><ele>769.0</ele><time>2026-04-12T09:22:15.934Z</time></trkpt><trkpt lat="44.0433414" lon="11.384587"><ele>769.0</ele><time>2026-04-12T09:22:16.934Z</time></trkpt><trkpt lat="44.043429" lon="11.3844006"><ele>769.0</ele><time>2026-04-12T09:22:17.934Z</time></trkpt><trkpt lat="44.0435165" lon="11.3842171"><ele>769.0</ele><time>2026-04-12T09:22:18.934Z</time></trkpt><trkpt lat="44.0436026" lon="11.3840337"><ele>769.0</ele><time>2026-04-12T09:22:19.934Z</time></trkpt><trkpt lat="44.0436874" lon="11.3838501"><ele>769.0</ele><time>2026-04-12T09:22:20.934Z</time></trkpt><trkpt lat="44.0437826" lon="11.3836735"><ele>769.0</ele><time>2026-04-12T09:22:21.934Z</time></trkpt><trkpt lat="44.0438798" lon="11.3835027"><ele>764.3333333333333</ele><time>2026-04-12T09:22:22.934Z</time></trkpt><trkpt lat="44.0439615" lon="11.3833203"><ele>759.6666666666666</ele><time>2026-04-12T09:22:23.934Z</time></trkpt><trkpt lat="44.0440397" lon="11.3831362"><ele>755.0</ele><time>2026-04-12T09:22:24.935Z</time></trkpt><trkpt lat="44.044086" lon="11.3829262"><ele>753.3333333333333</ele><time>2026-04-12T09:22:25.935Z</time></trkpt><trkpt lat="44.0441249" lon="11.3826948"><ele>751.6666666666666</ele><time>2026-04-12T09:22:26.934Z</time></trkpt><trkpt lat="44.0441618" lon="11.3824476"><ele>750.0</ele><time>2026-04-12T09:22:27.935Z</time></trkpt><trkpt lat="44.0441919" lon="11.3821954"><ele>756.6666666666667</ele><time>2026-04-12T09:22:28.934Z</time></trkpt><trkpt lat="44.0442109" lon="11.38195"><ele>763.3333333333334</ele><time>2026-04-12T09:22:29.935Z</time></trkpt><trkpt lat="44.0442226" lon="11.3817264"><ele>770.0</ele><time>2026-04-12T09:22:30.935Z</time></trkpt><trkpt lat="44.0442298" lon="11.3815306"><ele>770.0</ele><time>2026-04-12T09:22:31.934Z</time></trkpt><trkpt lat="44.0442204" lon="11.3813594"><ele>770.0</ele><time>2026-04-12T09:22:32.934Z</time></trkpt><trkpt lat="44.0441802" lon="11.3812085"><ele>770.0</ele><time>2026-04-12T09:22:33.934Z</time></trkpt><trkpt lat="44.0440961" lon="11.3810875"><ele>770.0</ele><time>2026-04-12T09:22:34.935Z</time></trkpt><trkpt lat="44.0439673" lon="11.3809966"><ele>765.75</ele><time>2026-04-12T09:22:35.934Z</time></trkpt><trkpt lat="44.0438251" lon="11.380911"><ele>761.5</ele><time>2026-04-12T09:22:36.934Z</time></trkpt><trkpt lat="44.0436786" lon="11.3808543"><ele>757.25</ele><time>2026-04-12T09:22:37.934Z</time></trkpt><trkpt lat="44.0435652" lon="11.3807625"><ele>753.0</ele><time>2026-04-12T09:22:38.934Z</time></trkpt><trkpt lat="44.0434921" lon="11.3806399"><ele>754.75</ele><time>2026-04-12T09:22:39.935Z</time></trkpt><trkpt lat="44.0434341" lon="11.3805074"><ele>756.5</ele><time>2026-04-12T09:22:40.934Z</time></trkpt><trkpt lat="44.0434215" lon="11.3803016"><ele>758.25</ele><time>2026-04-12T09:22:41.934Z</time></trkpt><trkpt lat="44.0434117" lon="11.3800759"><ele>760.0</ele><time>2026-04-12T09:22:42.935Z</time></trkpt><trkpt lat="44.0433904" lon="11.3798632"><ele>762.0</ele><time>2026-04-12T09:22:43.934Z</time></trkpt><trkpt lat="44.0433611" lon="11.3796744"><ele>764.0</ele><time>2026-04-12T09:22:44.934Z</time></trkpt><trkpt lat="44.0433257" lon="11.3795161"><ele>766.0</ele><time>2026-04-12T09:22:45.934Z</time></trkpt><trkpt lat="44.0432806" lon="11.3793835"><ele>768.0</ele><time>2026-04-12T09:22:46.934Z</time></trkpt><trkpt lat="44.0432184" lon="11.3792821"><ele>769.5</ele><time>2026-04-12T09:22:47.935Z</time></trkpt><trkpt lat="44.0431286" lon="11.3792259"><ele>771.0</ele><time>2026-04-12T09:22:48.934Z</time></trkpt><trkpt lat="44.0430112" lon="11.3792209"><ele>772.5</ele><time>2026-04-12T09:22:49.934Z</time></trkpt><trkpt lat="44.0428643" lon="11.3792553"><ele>774.0</ele><time>2026-04-12T09:22:50.934Z</time></trkpt><trkpt lat="44.0426964" lon="11.3793014"><ele>774.0</ele><time>2026-04-12T09:22:51.934Z</time></trkpt><trkpt lat="44.0425223" lon="11.3793394"><ele>774.0</ele><time>2026-04-12T09:22:52.935Z</time></trkpt><trkpt lat="44.0423621" lon="11.3793814"><ele>774.0</ele><time>2026-04-12T09:22:53.934Z</time></trkpt><trkpt lat="44.0422236" lon="11.3794543"><ele>772.5</ele><time>2026-04-12T09:22:54.934Z</time></trkpt><trkpt lat="44.0420953" lon="11.3795335"><ele>771.0</ele><time>2026-04-12T09:22:55.934Z</time></trkpt><trkpt lat="44.0420075" lon="11.3796927"><ele>769.5</ele><time>2026-04-12T09:22:56.935Z</time></trkpt><trkpt lat="44.0419292" lon="11.3798589"><ele>768.0</ele><time>2026-04-12T09:22:57.934Z</time></trkpt><trkpt lat="44.0418564" lon="11.3800075"><ele>766.0</ele><time>2026-04-12T09:22:58.934Z</time></trkpt><trkpt lat="44.041785" lon="11.3801341"><ele>764.0</ele><time>2026-04-12T09:22:59.934Z</time></trkpt><trkpt lat="44.0417184" lon="11.3802403"><ele>762.0</ele><time>2026-04-12T09:23:00.934Z</time></trkpt><trkpt lat="44.0416489" lon="11.380311"><ele>760.0</ele><time>2026-04-12T09:23:01.934Z</time></trkpt><trkpt lat="44.0415879" lon="11.3803602"><ele>758.0</ele><time>2026-04-12T09:23:02.934Z</time></trkpt><trkpt lat="44.041518" lon="11.3803311"><ele>756.0</ele><time>2026-04-12T09:23:03.935Z</time></trkpt><trkpt lat="44.041439" lon="11.3802583"><ele>748.25</ele><time>2026-04-12T09:23:04.935Z</time></trkpt><trkpt lat="44.0413515" lon="11.3801684"><ele>740.5</ele><time>2026-04-12T09:23:05.934Z</time></trkpt><trkpt lat="44.0412532" lon="11.3800446"><ele>732.75</ele><time>2026-04-12T09:23:06.934Z</time></trkpt><trkpt lat="44.0411745" lon="11.3799204"><ele>725.0</ele><time>2026-04-12T09:23:07.934Z</time></trkpt><trkpt lat="44.0411303" lon="11.3797878"><ele>726.5</ele><time>2026-04-12T09:23:08.934Z</time></trkpt><trkpt lat="44.0411319" lon="11.3796505"><ele>728.0</ele><time>2026-04-12T09:23:09.934Z</time></trkpt><trkpt lat="44.0411812" lon="11.3795055"><ele>729.5</ele><time>2026-04-12T09:23:10.934Z</time></trkpt><trkpt lat="44.0412677" lon="11.3793421"><ele>731.0</ele><time>2026-04-12T09:23:11.935Z</time></trkpt><trkpt lat="44.0413483" lon="11.3791747"><ele>731.0</ele><time>2026-04-12T09:23:12.935Z</time></trkpt><trkpt lat="44.0413866" lon="11.3790107"><ele>731.0</ele><time>2026-04-12T09:23:13.934Z</time></trkpt><trkpt lat="44.041373" lon="11.3788564"><ele>731.0</ele><time>2026-04-12T09:23:14.934Z</time></trkpt><trkpt lat="44.0413033" lon="11.3787046"><ele>731.0</ele><time>2026-04-12T09:23:15.934Z</time></trkpt><trkpt lat="44.0412181" lon="11.3785522"><ele>733.3333333333333</ele><time>2026-04-12T09:23:16.934Z</time></trkpt><trkpt lat="44.0410684" lon="11.3784166"><ele>735.6666666666666</ele><time>2026-04-12T09:23:17.934Z</time></trkpt><trkpt lat="44.0409221" lon="11.3783254"><ele>738.0</ele><time>2026-04-12T09:23:18.934Z</time></trkpt><trkpt lat="44.0408086" lon="11.3782303"><ele>736.4</ele><time>2026-04-12T09:23:19.934Z</time></trkpt><trkpt lat="44.04074" lon="11.3781165"><ele>734.8</ele><time>2026-04-12T09:23:20.934Z</time></trkpt><trkpt lat="44.0407155" lon="11.3779853"><ele>733.2</ele><time>2026-04-12T09:23:21.935Z</time></trkpt><trkpt lat="44.0407325" lon="11.3778349"><ele>731.6</ele><time>2026-04-12T09:23:22.935Z</time></trkpt><trkpt lat="44.0407872" lon="11.3776798"><ele>730.0</ele><time>2026-04-12T09:23:23.935Z</time></trkpt><trkpt lat="44.0408787" lon="11.3775363"><ele>730.0</ele><time>2026-04-12T09:23:24.935Z</time></trkpt><trkpt lat="44.040976" lon="11.3774028"><ele>730.0</ele><time>2026-04-12T09:23:25.935Z</time></trkpt><trkpt lat="44.0410949" lon="11.3773072"><ele>730.0</ele><time>2026-04-12T09:23:26.935Z</time></trkpt><trkpt lat="44.041186" lon="11.3772155"><ele>730.0</ele><time>2026-04-12T09:23:27.935Z</time></trkpt><trkpt lat="44.0412402" lon="11.3770944"><ele>728.4</ele><time>2026-04-12T09:23:28.935Z</time></trkpt><trkpt lat="44.0412489" lon="11.3769639"><ele>726.8</ele><time>2026-04-12T09:23:29.935Z</time></trkpt><trkpt lat="44.041212" lon="11.3768464"><ele>725.2</ele><time>2026-04-12T09:23:30.936Z</time></trkpt><trkpt lat="44.0411341" lon="11.3767599"><ele>723.6</ele><time>2026-04-12T09:23:31.935Z</time></trkpt><trkpt lat="44.0410478" lon="11.3766908"><ele>722.0</ele><time>2026-04-12T09:23:32.935Z</time></trkpt><trkpt lat="44.0409474" lon="11.3766374"><ele>722.0</ele><time>2026-04-12T09:23:33.935Z</time></trkpt><trkpt lat="44.0408767" lon="11.3765457"><ele>722.0</ele><time>2026-04-12T09:23:34.936Z</time></trkpt><trkpt lat="44.0408348" lon="11.376404"><ele>722.0</ele><time>2026-04-12T09:23:35.936Z</time></trkpt><trkpt lat="44.040818" lon="11.3762152"><ele>722.0</ele><time>2026-04-12T09:23:36.935Z</time></trkpt><trkpt lat="44.0408154" lon="11.3760041"><ele>720.5</ele><time>2026-04-12T09:23:37.936Z</time></trkpt><trkpt lat="44.040819" lon="11.3758047"><ele>719.0</ele><time>2026-04-12T09:23:38.935Z</time></trkpt><trkpt lat="44.0408211" lon="11.3756363"><ele>717.5</ele><time>2026-04-12T09:23:39.935Z</time></trkpt><trkpt lat="44.0408066" lon="11.375498"><ele>716.0</ele><time>2026-04-12T09:23:40.935Z</time></trkpt><trkpt lat="44.0407557" lon="11.3753911"><ele>716.0</ele><time>2026-04-12T09:23:41.935Z</time></trkpt><trkpt lat="44.040668" lon="11.3753297"><ele>716.0</ele><time>2026-04-12T09:23:42.935Z</time></trkpt><trkpt lat="44.0405567" lon="11.375328"><ele>716.0</ele><time>2026-04-12T09:23:43.935Z</time></trkpt><trkpt lat="44.0404354" lon="11.3753443"><ele>716.0</ele><time>2026-04-12T09:23:44.935Z</time></trkpt><trkpt lat="44.040314" lon="11.375355"><ele>716.0</ele><time>2026-04-12T09:23:45.936Z</time></trkpt><trkpt lat="44.0401902" lon="11.3753283"><ele>716.0</ele><time>2026-04-12T09:23:46.936Z</time></trkpt><trkpt lat="44.0400259" lon="11.3753221"><ele>716.0</ele><time>2026-04-12T09:23:47.935Z</time></trkpt><trkpt lat="44.039853" lon="11.3753514"><ele>711.3333333333333</ele><time>2026-04-12T09:23:48.935Z</time></trkpt><trkpt lat="44.039675" lon="11.3753934"><ele>706.6666666666666</ele><time>2026-04-12T09:23:49.935Z</time></trkpt><trkpt lat="44.0394998" lon="11.3754322"><ele>702.0</ele><time>2026-04-12T09:23:50.935Z</time></trkpt><trkpt lat="44.0393261" lon="11.37547"><ele>702.0</ele><time>2026-04-12T09:23:51.936Z</time></trkpt><trkpt lat="44.0391652" lon="11.3755142"><ele>702.0</ele><time>2026-04-12T09:23:52.936Z</time></trkpt><trkpt lat="44.0390123" lon="11.3755804"><ele>702.0</ele><time>2026-04-12T09:23:53.935Z</time></trkpt><trkpt lat="44.0388632" lon="11.3756759"><ele>700.3333333333334</ele><time>2026-04-12T09:23:54.935Z</time></trkpt><trkpt lat="44.0387158" lon="11.3757931"><ele>698.6666666666667</ele><time>2026-04-12T09:23:55.935Z</time></trkpt><trkpt lat="44.038578" lon="11.3759238"><ele>697.0</ele><time>2026-04-12T09:23:56.935Z</time></trkpt><trkpt lat="44.0384492" lon="11.3760579"><ele>697.0</ele><time>2026-04-12T09:23:57.936Z</time></trkpt><trkpt lat="44.0383358" lon="11.37618"><ele>697.0</ele><time>2026-04-12T09:23:58.935Z</time></trkpt><trkpt lat="44.0382297" lon="11.3762903"><ele>697.0</ele><time>2026-04-12T09:23:59.935Z</time></trkpt><trkpt lat="44.0381289" lon="11.3763599"><ele>697.0</ele><time>2026-04-12T09:24:00.935Z</time></trkpt><trkpt lat="44.038024" lon="11.3763274"><ele>692.0</ele><time>2026-04-12T09:24:01.936Z</time></trkpt><trkpt lat="44.0379187" lon="11.3762384"><ele>687.0</ele><time>2026-04-12T09:24:02.935Z</time></trkpt><trkpt lat="44.0378182" lon="11.3760939"><ele>682.0</ele><time>2026-04-12T09:24:03.935Z</time></trkpt><trkpt lat="44.0377256" lon="11.3758829"><ele>677.0</ele><time>2026-04-12T09:24:04.935Z</time></trkpt><trkpt lat="44.0376343" lon="11.3756518"><ele>677.3333333333333</ele><time>2026-04-12T09:24:05.935Z</time></trkpt><trkpt lat="44.037555" lon="11.3754075"><ele>677.6666666666666</ele><time>2026-04-12T09:24:06.935Z</time></trkpt><trkpt lat="44.0374778" lon="11.3751652"><ele>678.0</ele><time>2026-04-12T09:24:07.935Z</time></trkpt><trkpt lat="44.0374026" lon="11.3749839"><ele>673.5999999999999</ele><time>2026-04-12T09:24:08.936Z</time></trkpt><trkpt lat="44.0373171" lon="11.3748488"><ele>669.1999999999999</ele><time>2026-04-12T09:24:09.935Z</time></trkpt><trkpt lat="44.0372317" lon="11.3747549"><ele>664.8</ele><time>2026-04-12T09:24:10.935Z</time></trkpt><trkpt lat="44.037171" lon="11.3746708"><ele>660.4</ele><time>2026-04-12T09:24:11.935Z</time></trkpt><trkpt lat="44.0371541" lon="11.3745744"><ele>656.0</ele><time>2026-04-12T09:24:12.935Z</time></trkpt><trkpt lat="44.0371876" lon="11.3744805"><ele>654.4</ele><time>2026-04-12T09:24:13.935Z</time></trkpt><trkpt lat="44.0372614" lon="11.3744264"><ele>652.8</ele><time>2026-04-12T09:24:14.935Z</time></trkpt><trkpt lat="44.0373593" lon="11.3744248"><ele>651.1999999999999</ele><time>2026-04-12T09:24:15.936Z</time></trkpt><trkpt lat="44.0374664" lon="11.3744587"><ele>649.5999999999999</ele><time>2026-04-12T09:24:16.935Z</time></trkpt><trkpt lat="44.0375596" lon="11.3744703"><ele>648.0</ele><time>2026-04-12T09:24:17.935Z</time></trkpt><trkpt lat="44.0376372" lon="11.374435"><ele>652.2</ele><time>2026-04-12T09:24:18.935Z</time></trkpt><trkpt lat="44.037707" lon="11.3743887"><ele>656.4</ele><time>2026-04-12T09:24:19.936Z</time></trkpt><trkpt lat="44.0377392" lon="11.3742983"><ele>660.6</ele><time>2026-04-12T09:24:20.935Z</time></trkpt><trkpt lat="44.0376909" lon="11.3741803"><ele>664.8000000000001</ele><time>2026-04-12T09:24:21.936Z</time></trkpt><trkpt lat="44.0376045" lon="11.3741134"><ele>669.0</ele><time>2026-04-12T09:24:22.936Z</time></trkpt><trkpt lat="44.037491" lon="11.3741047"><ele>663.75</ele><time>2026-04-12T09:24:23.935Z</time></trkpt><trkpt lat="44.0373616" lon="11.3741356"><ele>658.5</ele><time>2026-04-12T09:24:24.935Z</time></trkpt><trkpt lat="44.0372135" lon="11.3741893"><ele>653.25</ele><time>2026-04-12T09:24:25.935Z</time></trkpt><trkpt lat="44.0370591" lon="11.3742489"><ele>648.0</ele><time>2026-04-12T09:24:26.935Z</time></trkpt><trkpt lat="44.0369205" lon="11.3743046"><ele>648.0</ele><time>2026-04-12T09:24:27.935Z</time></trkpt><trkpt lat="44.0368044" lon="11.3743605"><ele>648.0</ele><time>2026-04-12T09:24:28.935Z</time></trkpt><trkpt lat="44.0367094" lon="11.3744396"><ele>648.0</ele><time>2026-04-12T09:24:29.935Z</time></trkpt><trkpt lat="44.0366428" lon="11.3745562"><ele>648.0</ele><time>2026-04-12T09:24:30.935Z</time></trkpt><trkpt lat="44.0366134" lon="11.374705"><ele>650.0</ele><time>2026-04-12T09:24:31.935Z</time></trkpt><trkpt lat="44.0366262" lon="11.374864"><ele>652.0</ele><time>2026-04-12T09:24:32.935Z</time></trkpt><trkpt lat="44.0366723" lon="11.3750166"><ele>654.0</ele><time>2026-04-12T09:24:33.935Z</time></trkpt><trkpt lat="44.0367439" lon="11.3751554"><ele>656.0</ele><time>2026-04-12T09:24:34.935Z</time></trkpt><trkpt lat="44.0368364" lon="11.3752713"><ele>656.0</ele><time>2026-04-12T09:24:35.935Z</time></trkpt><trkpt lat="44.036934" lon="11.3753636"><ele>656.0</ele><time>2026-04-12T09:24:36.935Z</time></trkpt><trkpt lat="44.0370215" lon="11.375448"><ele>656.0</ele><time>2026-04-12T09:24:37.935Z</time></trkpt><trkpt lat="44.0370589" lon="11.3755693"><ele>656.0</ele><time>2026-04-12T09:24:38.936Z</time></trkpt><trkpt lat="44.0370632" lon="11.3757155"><ele>656.0</ele><time>2026-04-12T09:24:39.935Z</time></trkpt><trkpt lat="44.0370405" lon="11.3758874"><ele>652.75</ele><time>2026-04-12T09:24:40.936Z</time></trkpt><trkpt lat="44.0369979" lon="11.3760802"><ele>649.5</ele><time>2026-04-12T09:24:41.936Z</time></trkpt><trkpt lat="44.0369546" lon="11.3762864"><ele>646.25</ele><time>2026-04-12T09:24:42.936Z</time></trkpt><trkpt lat="44.0369143" lon="11.3764815"><ele>643.0</ele><time>2026-04-12T09:24:43.935Z</time></trkpt><trkpt lat="44.0368921" lon="11.3766313"><ele>642.1999999999999</ele><time>2026-04-12T09:24:44.935Z</time></trkpt><trkpt lat="44.0368605" lon="11.3767485"><ele>641.4</ele><time>2026-04-12T09:24:45.935Z</time></trkpt><trkpt lat="44.0368088" lon="11.376811"><ele>640.5999999999999</ele><time>2026-04-12T09:24:46.935Z</time></trkpt><trkpt lat="44.0367013" lon="11.3767472"><ele>639.8</ele><time>2026-04-12T09:24:48.935Z</time></trkpt><trkpt lat="44.0366852" lon="11.3766373"><ele>639.0</ele><time>2026-04-12T09:24:49.935Z</time></trkpt><trkpt lat="44.0366962" lon="11.3764834"><ele>640.0</ele><time>2026-04-12T09:24:50.936Z</time></trkpt><trkpt lat="44.0367233" lon="11.3763089"><ele>641.0</ele><time>2026-04-12T09:24:51.935Z</time></trkpt><trkpt lat="44.0367532" lon="11.3761348"><ele>642.0</ele><time>2026-04-12T09:24:52.935Z</time></trkpt><trkpt lat="44.0367795" lon="11.3759706"><ele>643.0</ele><time>2026-04-12T09:24:53.935Z</time></trkpt><trkpt lat="44.0367672" lon="11.3758232"><ele>643.0</ele><time>2026-04-12T09:24:54.936Z</time></trkpt><trkpt lat="44.0367186" lon="11.3756921"><ele>643.0</ele><time>2026-04-12T09:24:55.935Z</time></trkpt><trkpt lat="44.0366332" lon="11.3755793"><ele>643.0</ele><time>2026-04-12T09:24:56.936Z</time></trkpt><trkpt lat="44.0365113" lon="11.3754761"><ele>643.0</ele><time>2026-04-12T09:24:57.935Z</time></trkpt><trkpt lat="44.0363836" lon="11.3753816"><ele>638.0</ele><time>2026-04-12T09:24:58.936Z</time></trkpt><trkpt lat="44.0362692" lon="11.3752885"><ele>633.0</ele><time>2026-04-12T09:24:59.935Z</time></trkpt><trkpt lat="44.0361721" lon="11.3751823"><ele>628.0</ele><time>2026-04-12T09:25:00.935Z</time></trkpt><trkpt lat="44.036097" lon="11.3750575"><ele>623.0</ele><time>2026-04-12T09:25:01.935Z</time></trkpt><trkpt lat="44.0360495" lon="11.374914"><ele>623.0</ele><time>2026-04-12T09:25:02.935Z</time></trkpt><trkpt lat="44.0360284" lon="11.3747551"><ele>623.0</ele><time>2026-04-12T09:25:03.935Z</time></trkpt><trkpt lat="44.0360205" lon="11.3745831"><ele>623.0</ele><time>2026-04-12T09:25:04.935Z</time></trkpt><trkpt lat="44.0360086" lon="11.3744224"><ele>623.0</ele><time>2026-04-12T09:25:05.935Z</time></trkpt><trkpt lat="44.0359731" lon="11.3742864"><ele>623.6</ele><time>2026-04-12T09:25:06.935Z</time></trkpt><trkpt lat="44.0359074" lon="11.3741833"><ele>624.1999999999999</ele><time>2026-04-12T09:25:07.935Z</time></trkpt><trkpt lat="44.0358186" lon="11.3741161"><ele>624.8</ele><time>2026-04-12T09:25:08.936Z</time></trkpt><trkpt lat="44.0357197" lon="11.3740897"><ele>625.4</ele><time>2026-04-12T09:25:09.937Z</time></trkpt><trkpt lat="44.035622" lon="11.3741106"><ele>626.0</ele><time>2026-04-12T09:25:10.936Z</time></trkpt><trkpt lat="44.0355362" lon="11.3741836"><ele>625.5</ele><time>2026-04-12T09:25:11.936Z</time></trkpt><trkpt lat="44.0354636" lon="11.3743134"><ele>625.0</ele><time>2026-04-12T09:25:12.936Z</time></trkpt><trkpt lat="44.035397" lon="11.374484"><ele>624.5</ele><time>2026-04-12T09:25:13.936Z</time></trkpt><trkpt lat="44.0353271" lon="11.3746578"><ele>624.0</ele><time>2026-04-12T09:25:14.936Z</time></trkpt><trkpt lat="44.0352139" lon="11.3748221"><ele>624.0</ele><time>2026-04-12T09:25:15.937Z</time></trkpt><trkpt lat="44.0350921" lon="11.3749862"><ele>624.0</ele><time>2026-04-12T09:25:16.936Z</time></trkpt><trkpt lat="44.0349607" lon="11.3751352"><ele>624.0</ele><time>2026-04-12T09:25:17.936Z</time></trkpt><trkpt lat="44.0348292" lon="11.3752842"><ele>623.3333333333334</ele><time>2026-04-12T09:25:18.937Z</time></trkpt><trkpt lat="44.0347042" lon="11.3754269"><ele>622.6666666666667</ele><time>2026-04-12T09:25:19.937Z</time></trkpt><trkpt lat="44.0345831" lon="11.3755613"><ele>622.0</ele><time>2026-04-12T09:25:20.936Z</time></trkpt><trkpt lat="44.0344625" lon="11.3756731"><ele>619.75</ele><time>2026-04-12T09:25:21.936Z</time></trkpt><trkpt lat="44.0343396" lon="11.375756"><ele>617.5</ele><time>2026-04-12T09:25:22.936Z</time></trkpt><trkpt lat="44.0342172" lon="11.375802"><ele>615.25</ele><time>2026-04-12T09:25:23.937Z</time></trkpt><trkpt lat="44.0340912" lon="11.375805"><ele>613.0</ele><time>2026-04-12T09:25:24.936Z</time></trkpt><trkpt lat="44.0339608" lon="11.3757755"><ele>611.5</ele><time>2026-04-12T09:25:25.936Z</time></trkpt><trkpt lat="44.0338199" lon="11.375725"><ele>610.0</ele><time>2026-04-12T09:25:26.936Z</time></trkpt><trkpt lat="44.0336729" lon="11.3756687"><ele>608.5</ele><time>2026-04-12T09:25:27.937Z</time></trkpt><trkpt lat="44.033534" lon="11.3756256"><ele>607.0</ele><time>2026-04-12T09:25:28.936Z</time></trkpt><trkpt lat="44.0334038" lon="11.3756206"><ele>608.0</ele><time>2026-04-12T09:25:29.936Z</time></trkpt><trkpt lat="44.0332756" lon="11.3756617"><ele>609.0</ele><time>2026-04-12T09:25:30.936Z</time></trkpt><trkpt lat="44.0331504" lon="11.3757447"><ele>610.0</ele><time>2026-04-12T09:25:31.936Z</time></trkpt><trkpt lat="44.0330354" lon="11.3758779"><ele>611.0</ele><time>2026-04-12T09:25:32.936Z</time></trkpt><trkpt lat="44.0329411" lon="11.3760563"><ele>611.0</ele><time>2026-04-12T09:25:33.937Z</time></trkpt><trkpt lat="44.0328758" lon="11.3762604"><ele>611.0</ele><time>2026-04-12T09:25:34.936Z</time></trkpt><trkpt lat="44.0328236" lon="11.3764462"><ele>611.0</ele><time>2026-04-12T09:25:35.936Z</time></trkpt><trkpt lat="44.0327568" lon="11.3766"><ele>611.0</ele><time>2026-04-12T09:25:36.936Z</time></trkpt><trkpt lat="44.0326617" lon="11.3767173"><ele>606.6666666666666</ele><time>2026-04-12T09:25:37.937Z</time></trkpt><trkpt lat="44.0325342" lon="11.3768024"><ele>602.3333333333334</ele><time>2026-04-12T09:25:38.936Z</time></trkpt><trkpt lat="44.0323816" lon="11.3768535"><ele>598.0</ele><time>2026-04-12T09:25:39.936Z</time></trkpt><trkpt lat="44.0322238" lon="11.3768851"><ele>596.3333333333334</ele><time>2026-04-12T09:25:40.936Z</time></trkpt><trkpt lat="44.0320636" lon="11.3769087"><ele>594.6666666666666</ele><time>2026-04-12T09:25:41.936Z</time></trkpt><trkpt lat="44.0319006" lon="11.3769225"><ele>593.0</ele><time>2026-04-12T09:25:42.936Z</time></trkpt><trkpt lat="44.0317345" lon="11.376923"><ele>593.3333333333333</ele><time>2026-04-12T09:25:43.936Z</time></trkpt><trkpt lat="44.0315636" lon="11.3769128"><ele>593.6666666666666</ele><time>2026-04-12T09:25:44.937Z</time></trkpt><trkpt lat="44.0313937" lon="11.3768999"><ele>594.0</ele><time>2026-04-12T09:25:45.937Z</time></trkpt><trkpt lat="44.0312354" lon="11.3768877"><ele>594.0</ele><time>2026-04-12T09:25:46.936Z</time></trkpt><trkpt lat="44.0310947" lon="11.3768779"><ele>594.0</ele><time>2026-04-12T09:25:47.936Z</time></trkpt><trkpt lat="44.0309707" lon="11.3768733"><ele>594.0</ele><time>2026-04-12T09:25:48.936Z</time></trkpt><trkpt lat="44.0308616" lon="11.3768934"><ele>594.0</ele><time>2026-04-12T09:25:49.937Z</time></trkpt><trkpt lat="44.0307717" lon="11.3769607"><ele>594.0</ele><time>2026-04-12T09:25:50.936Z</time></trkpt><trkpt lat="44.03071" lon="11.3770753"><ele>594.0</ele><time>2026-04-12T09:25:51.936Z</time></trkpt><trkpt lat="44.0306766" lon="11.3772264"><ele>594.0</ele><time>2026-04-12T09:25:52.936Z</time></trkpt><trkpt lat="44.0306517" lon="11.3773854"><ele>594.0</ele><time>2026-04-12T09:25:53.936Z</time></trkpt><trkpt lat="44.030603" lon="11.3775231"><ele>594.0</ele><time>2026-04-12T09:25:54.936Z</time></trkpt><trkpt lat="44.0305228" lon="11.3776295"><ele>591.25</ele><time>2026-04-12T09:25:55.936Z</time></trkpt><trkpt lat="44.0304188" lon="11.3776995"><ele>588.5</ele><time>2026-04-12T09:25:56.936Z</time></trkpt><trkpt lat="44.0303168" lon="11.3777854"><ele>585.75</ele><time>2026-04-12T09:25:57.936Z</time></trkpt><trkpt lat="44.0302345" lon="11.3779252"><ele>583.0</ele><time>2026-04-12T09:25:58.937Z</time></trkpt><trkpt lat="44.0301708" lon="11.378078"><ele>580.5</ele><time>2026-04-12T09:25:59.936Z</time></trkpt><trkpt lat="44.030097" lon="11.3782044"><ele>578.0</ele><time>2026-04-12T09:26:00.936Z</time></trkpt><trkpt lat="44.0300071" lon="11.3782941"><ele>575.5</ele><time>2026-04-12T09:26:01.936Z</time></trkpt><trkpt lat="44.0299006" lon="11.3783403"><ele>573.0</ele><time>2026-04-12T09:26:02.936Z</time></trkpt><trkpt lat="44.029777" lon="11.3783332"><ele>569.6666666666666</ele><time>2026-04-12T09:26:03.936Z</time></trkpt><trkpt lat="44.0296394" lon="11.3782775"><ele>566.3333333333333</ele><time>2026-04-12T09:26:04.937Z</time></trkpt><trkpt lat="44.0294965" lon="11.3781806"><ele>563.0</ele><time>2026-04-12T09:26:05.937Z</time></trkpt><trkpt lat="44.0293699" lon="11.3780566"><ele>564.25</ele><time>2026-04-12T09:26:06.936Z</time></trkpt><trkpt lat="44.0292796" lon="11.3779241"><ele>565.5</ele><time>2026-04-12T09:26:07.936Z</time></trkpt><trkpt lat="44.0292275" lon="11.3777787"><ele>566.75</ele><time>2026-04-12T09:26:08.936Z</time></trkpt><trkpt lat="44.0292169" lon="11.3776228"><ele>568.0</ele><time>2026-04-12T09:26:09.936Z</time></trkpt><trkpt lat="44.0292326" lon="11.3774611"><ele>568.0</ele><time>2026-04-12T09:26:10.936Z</time></trkpt><trkpt lat="44.0292436" lon="11.3773032"><ele>568.0</ele><time>2026-04-12T09:26:11.936Z</time></trkpt><trkpt lat="44.0292027" lon="11.3771644"><ele>568.0</ele><time>2026-04-12T09:26:12.936Z</time></trkpt><trkpt lat="44.0291183" lon="11.3770508"><ele>568.0</ele><time>2026-04-12T09:26:13.937Z</time></trkpt><trkpt lat="44.0289872" lon="11.376977"><ele>566.6666666666667</ele><time>2026-04-12T09:26:14.936Z</time></trkpt><trkpt lat="44.0288267" lon="11.3769323"><ele>565.3333333333334</ele><time>2026-04-12T09:26:15.937Z</time></trkpt><trkpt lat="44.0286729" lon="11.3768792"><ele>564.0</ele><time>2026-04-12T09:26:16.937Z</time></trkpt><trkpt lat="44.0285267" lon="11.3767954"><ele>564.0</ele><time>2026-04-12T09:26:17.936Z</time></trkpt><trkpt lat="44.0283823" lon="11.3766881"><ele>564.0</ele><time>2026-04-12T09:26:18.936Z</time></trkpt><trkpt lat="44.0282389" lon="11.3765713"><ele>564.0</ele><time>2026-04-12T09:26:19.937Z</time></trkpt><trkpt lat="44.0281021" lon="11.3764518"><ele>562.25</ele><time>2026-04-12T09:26:20.936Z</time></trkpt><trkpt lat="44.0279736" lon="11.3763357"><ele>560.5</ele><time>2026-04-12T09:26:21.936Z</time></trkpt><trkpt lat="44.0278589" lon="11.3762104"><ele>558.75</ele><time>2026-04-12T09:26:22.936Z</time></trkpt><trkpt lat="44.0277687" lon="11.3760604"><ele>557.0</ele><time>2026-04-12T09:26:23.937Z</time></trkpt><trkpt lat="44.0276875" lon="11.375905"><ele>557.0</ele><time>2026-04-12T09:26:24.936Z</time></trkpt><trkpt lat="44.0276261" lon="11.3757402"><ele>557.0</ele><time>2026-04-12T09:26:25.936Z</time></trkpt><trkpt lat="44.0275284" lon="11.375601"><ele>557.0</ele><time>2026-04-12T09:26:26.936Z</time></trkpt><trkpt lat="44.0274122" lon="11.3754672"><ele>557.0</ele><time>2026-04-12T09:26:27.936Z</time></trkpt><trkpt lat="44.0272355" lon="11.3753531"><ele>552.6666666666666</ele><time>2026-04-12T09:26:28.936Z</time></trkpt><trkpt lat="44.0270472" lon="11.3752304"><ele>548.3333333333334</ele><time>2026-04-12T09:26:29.937Z</time></trkpt><trkpt lat="44.0268587" lon="11.375088"><ele>544.0</ele><time>2026-04-12T09:26:30.937Z</time></trkpt><trkpt lat="44.026678" lon="11.3749337"><ele>538.6666666666667</ele><time>2026-04-12T09:26:31.936Z</time></trkpt><trkpt lat="44.0265065" lon="11.3747779"><ele>533.3333333333334</ele><time>2026-04-12T09:26:32.936Z</time></trkpt><trkpt lat="44.0263472" lon="11.3746321"><ele>528.0</ele><time>2026-04-12T09:26:33.936Z</time></trkpt><trkpt lat="44.0262082" lon="11.3744878"><ele>528.0</ele><time>2026-04-12T09:26:34.937Z</time></trkpt><trkpt lat="44.0260957" lon="11.3743273"><ele>528.0</ele><time>2026-04-12T09:26:35.936Z</time></trkpt><trkpt lat="44.0260094" lon="11.3741541"><ele>528.0</ele><time>2026-04-12T09:26:36.936Z</time></trkpt><trkpt lat="44.0259522" lon="11.3739855"><ele>528.0</ele><time>2026-04-12T09:26:37.936Z</time></trkpt><trkpt lat="44.0259298" lon="11.3738278"><ele>526.5</ele><time>2026-04-12T09:26:38.936Z</time></trkpt><trkpt lat="44.0259479" lon="11.3736739"><ele>525.0</ele><time>2026-04-12T09:26:39.936Z</time></trkpt><trkpt lat="44.026002" lon="11.3735093"><ele>523.5</ele><time>2026-04-12T09:26:40.936Z</time></trkpt><trkpt lat="44.0260813" lon="11.3733384"><ele>522.0</ele><time>2026-04-12T09:26:41.936Z</time></trkpt><trkpt lat="44.026169" lon="11.3731836"><ele>522.0</ele><time>2026-04-12T09:26:42.936Z</time></trkpt><trkpt lat="44.0262585" lon="11.3730608"><ele>522.0</ele><time>2026-04-12T09:26:43.937Z</time></trkpt><trkpt lat="44.0263611" lon="11.3729736"><ele>522.0</ele><time>2026-04-12T09:26:44.936Z</time></trkpt><trkpt lat="44.0264861" lon="11.3729252"><ele>522.0</ele><time>2026-04-12T09:26:45.936Z</time></trkpt><trkpt lat="44.0266171" lon="11.3728921"><ele>520.5</ele><time>2026-04-12T09:26:46.936Z</time></trkpt><trkpt lat="44.0267318" lon="11.3728372"><ele>519.0</ele><time>2026-04-12T09:26:47.936Z</time></trkpt><trkpt lat="44.0268243" lon="11.3727333"><ele>517.5</ele><time>2026-04-12T09:26:48.936Z</time></trkpt><trkpt lat="44.0269136" lon="11.3726104"><ele>516.0</ele><time>2026-04-12T09:26:49.936Z</time></trkpt><trkpt lat="44.0269832" lon="11.37246"><ele>516.0</ele><time>2026-04-12T09:26:50.937Z</time></trkpt><trkpt lat="44.0270769" lon="11.3723522"><ele>516.0</ele><time>2026-04-12T09:26:51.936Z</time></trkpt><trkpt lat="44.0271965" lon="11.3722698"><ele>516.0</ele><time>2026-04-12T09:26:52.937Z</time></trkpt><trkpt lat="44.0272978" lon="11.3721882"><ele>516.0</ele><time>2026-04-12T09:26:53.937Z</time></trkpt><trkpt lat="44.0273617" lon="11.372078"><ele>515.2</ele><time>2026-04-12T09:26:54.937Z</time></trkpt><trkpt lat="44.0273802" lon="11.3719446"><ele>514.4000000000001</ele><time>2026-04-12T09:26:55.937Z</time></trkpt><trkpt lat="44.027389" lon="11.3718053"><ele>513.6</ele><time>2026-04-12T09:26:56.937Z</time></trkpt><trkpt lat="44.0274071" lon="11.3716665"><ele>512.8000000000001</ele><time>2026-04-12T09:26:57.937Z</time></trkpt><trkpt lat="44.027472" lon="11.3715378"><ele>512.0</ele><time>2026-04-12T09:26:58.937Z</time></trkpt><trkpt lat="44.0275906" lon="11.3714081"><ele>503.66666666666663</ele><time>2026-04-12T09:26:59.937Z</time></trkpt><trkpt lat="44.0277552" lon="11.3712636"><ele>495.33333333333337</ele><time>2026-04-12T09:27:00.938Z</time></trkpt><trkpt lat="44.0279221" lon="11.3711261"><ele>487.0</ele><time>2026-04-12T09:27:01.937Z</time></trkpt><trkpt lat="44.0280803" lon="11.3710072"><ele>487.0</ele><time>2026-04-12T09:27:02.938Z</time></trkpt><trkpt lat="44.0282311" lon="11.3709087"><ele>487.0</ele><time>2026-04-12T09:27:03.938Z</time></trkpt><trkpt lat="44.0283752" lon="11.3708417"><ele>487.0</ele><time>2026-04-12T09:27:04.938Z</time></trkpt><trkpt lat="44.028516" lon="11.3708078"><ele>489.6</ele><time>2026-04-12T09:27:05.937Z</time></trkpt><trkpt lat="44.0286458" lon="11.3707996"><ele>492.20000000000005</ele><time>2026-04-12T09:27:06.937Z</time></trkpt><trkpt lat="44.028759" lon="11.3708098"><ele>494.8</ele><time>2026-04-12T09:27:07.937Z</time></trkpt><trkpt lat="44.0288529" lon="11.3708157"><ele>497.4</ele><time>2026-04-12T09:27:08.938Z</time></trkpt><trkpt lat="44.0289269" lon="11.3707848"><ele>500.0</ele><time>2026-04-12T09:27:09.938Z</time></trkpt><trkpt lat="44.0289674" lon="11.3707105"><ele>500.0</ele><time>2026-04-12T09:27:10.937Z</time></trkpt><trkpt lat="44.0289602" lon="11.3706136"><ele>500.0</ele><time>2026-04-12T09:27:11.937Z</time></trkpt><trkpt lat="44.0289091" lon="11.3705439"><ele>500.0</ele><time>2026-04-12T09:27:12.937Z</time></trkpt><trkpt lat="44.028821" lon="11.3705081"><ele>500.0</ele><time>2026-04-12T09:27:13.937Z</time></trkpt><trkpt lat="44.0286915" lon="11.370495"><ele>500.0</ele><time>2026-04-12T09:27:14.937Z</time></trkpt><trkpt lat="44.0285374" lon="11.3704958"><ele>495.66666666666663</ele><time>2026-04-12T09:27:15.938Z</time></trkpt><trkpt lat="44.0283824" lon="11.3704958"><ele>491.33333333333337</ele><time>2026-04-12T09:27:16.937Z</time></trkpt><trkpt lat="44.0282334" lon="11.3704983"><ele>487.0</ele><time>2026-04-12T09:27:17.937Z</time></trkpt><trkpt lat="44.0280845" lon="11.3705265"><ele>487.0</ele><time>2026-04-12T09:27:18.937Z</time></trkpt><trkpt lat="44.0279308" lon="11.3705841"><ele>487.0</ele><time>2026-04-12T09:27:19.937Z</time></trkpt><trkpt lat="44.0277652" lon="11.3706419"><ele>487.0</ele><time>2026-04-12T09:27:20.937Z</time></trkpt><trkpt lat="44.027583" lon="11.3706785"><ele>484.0</ele><time>2026-04-12T09:27:21.937Z</time></trkpt><trkpt lat="44.0273935" lon="11.3707012"><ele>481.0</ele><time>2026-04-12T09:27:22.937Z</time></trkpt><trkpt lat="44.0272068" lon="11.3707185"><ele>478.0</ele><time>2026-04-12T09:27:23.937Z</time></trkpt><trkpt lat="44.0270286" lon="11.3707335"><ele>478.0</ele><time>2026-04-12T09:27:24.937Z</time></trkpt><trkpt lat="44.0268655" lon="11.3707475"><ele>478.0</ele><time>2026-04-12T09:27:25.937Z</time></trkpt><trkpt lat="44.0267128" lon="11.370749"><ele>478.0</ele><time>2026-04-12T09:27:26.937Z</time></trkpt><trkpt lat="44.0265669" lon="11.3707233"><ele>476.75</ele><time>2026-04-12T09:27:27.937Z</time></trkpt><trkpt lat="44.026429" lon="11.3706629"><ele>475.5</ele><time>2026-04-12T09:27:28.937Z</time></trkpt><trkpt lat="44.0262996" lon="11.370578"><ele>474.25</ele><time>2026-04-12T09:27:29.938Z</time></trkpt><trkpt lat="44.0261767" lon="11.3704833"><ele>473.0</ele><time>2026-04-12T09:27:30.937Z</time></trkpt><trkpt lat="44.0260591" lon="11.3703868"><ele>471.5</ele><time>2026-04-12T09:27:31.937Z</time></trkpt><trkpt lat="44.0259511" lon="11.3702954"><ele>470.0</ele><time>2026-04-12T09:27:32.937Z</time></trkpt><trkpt lat="44.0258478" lon="11.3702109"><ele>468.5</ele><time>2026-04-12T09:27:33.937Z</time></trkpt><trkpt lat="44.0257492" lon="11.370129"><ele>467.0</ele><time>2026-04-12T09:27:34.937Z</time></trkpt><trkpt lat="44.0256526" lon="11.37005"><ele>464.75</ele><time>2026-04-12T09:27:35.937Z</time></trkpt><trkpt lat="44.0255516" lon="11.3699754"><ele>462.5</ele><time>2026-04-12T09:27:36.938Z</time></trkpt><trkpt lat="44.0254425" lon="11.369911"><ele>460.25</ele><time>2026-04-12T09:27:37.938Z</time></trkpt><trkpt lat="44.0253261" lon="11.3698571"><ele>458.0</ele><time>2026-04-12T09:27:38.937Z</time></trkpt><trkpt lat="44.025204" lon="11.3698139"><ele>458.0</ele><time>2026-04-12T09:27:39.937Z</time></trkpt><trkpt lat="44.0250793" lon="11.3697794"><ele>458.0</ele><time>2026-04-12T09:27:40.937Z</time></trkpt><trkpt lat="44.0249534" lon="11.3697486"><ele>458.0</ele><time>2026-04-12T09:27:41.937Z</time></trkpt><trkpt lat="44.0248318" lon="11.3697228"><ele>458.0</ele><time>2026-04-12T09:27:42.938Z</time></trkpt><trkpt lat="44.0247149" lon="11.3697037"><ele>457.2</ele><time>2026-04-12T09:27:43.937Z</time></trkpt><trkpt lat="44.0246028" lon="11.3696868"><ele>456.4</ele><time>2026-04-12T09:27:44.937Z</time></trkpt><trkpt lat="44.0244956" lon="11.3696706"><ele>455.59999999999997</ele><time>2026-04-12T09:27:45.938Z</time></trkpt><trkpt lat="44.0243903" lon="11.3696631"><ele>454.79999999999995</ele><time>2026-04-12T09:27:46.937Z</time></trkpt><trkpt lat="44.0242849" lon="11.3696806"><ele>454.0</ele><time>2026-04-12T09:27:47.937Z</time></trkpt><trkpt lat="44.0241832" lon="11.3697373"><ele>451.75</ele><time>2026-04-12T09:27:48.937Z</time></trkpt><trkpt lat="44.0240897" lon="11.3698388"><ele>449.5</ele><time>2026-04-12T09:27:49.937Z</time></trkpt><trkpt lat="44.0240024" lon="11.3699667"><ele>447.25</ele><time>2026-04-12T09:27:50.937Z</time></trkpt><trkpt lat="44.0239138" lon="11.3700944"><ele>445.0</ele><time>2026-04-12T09:27:51.937Z</time></trkpt><trkpt lat="44.0238048" lon="11.3702082"><ele>445.0</ele><time>2026-04-12T09:27:52.937Z</time></trkpt><trkpt lat="44.0236755" lon="11.3702974"><ele>445.0</ele><time>2026-04-12T09:27:53.937Z</time></trkpt><trkpt lat="44.0235197" lon="11.3703623"><ele>445.0</ele><time>2026-04-12T09:27:54.937Z</time></trkpt><trkpt lat="44.0233459" lon="11.3704116"><ele>442.33333333333337</ele><time>2026-04-12T09:27:55.937Z</time></trkpt><trkpt lat="44.0231765" lon="11.3704558"><ele>439.66666666666663</ele><time>2026-04-12T09:27:56.937Z</time></trkpt><trkpt lat="44.0230152" lon="11.3704979"><ele>437.0</ele><time>2026-04-12T09:27:57.938Z</time></trkpt><trkpt lat="44.0228662" lon="11.3705372"><ele>434.75</ele><time>2026-04-12T09:27:58.937Z</time></trkpt><trkpt lat="44.0227314" lon="11.3705694"><ele>432.5</ele><time>2026-04-12T09:27:59.938Z</time></trkpt><trkpt lat="44.0226058" lon="11.3705781"><ele>430.25</ele><time>2026-04-12T09:28:00.937Z</time></trkpt><trkpt lat="44.0224837" lon="11.3705522"><ele>428.0</ele><time>2026-04-12T09:28:01.938Z</time></trkpt><trkpt lat="44.0223629" lon="11.3704938"><ele>427.5</ele><time>2026-04-12T09:28:02.937Z</time></trkpt><trkpt lat="44.0222455" lon="11.3704403"><ele>427.0</ele><time>2026-04-12T09:28:03.937Z</time></trkpt><trkpt lat="44.0221262" lon="11.3703947"><ele>426.5</ele><time>2026-04-12T09:28:04.937Z</time></trkpt><trkpt lat="44.02201" lon="11.370398"><ele>426.0</ele><time>2026-04-12T09:28:05.938Z</time></trkpt><trkpt lat="44.0219046" lon="11.3704485"><ele>426.0</ele><time>2026-04-12T09:28:06.937Z</time></trkpt><trkpt lat="44.0218054" lon="11.3705077"><ele>426.0</ele><time>2026-04-12T09:28:07.937Z</time></trkpt><trkpt lat="44.0217106" lon="11.370566"><ele>426.0</ele><time>2026-04-12T09:28:08.938Z</time></trkpt><trkpt lat="44.0216152" lon="11.3706118"><ele>426.0</ele><time>2026-04-12T09:28:09.938Z</time></trkpt><trkpt lat="44.0215177" lon="11.3706333"><ele>426.0</ele><time>2026-04-12T09:28:10.937Z</time></trkpt><trkpt lat="44.0214187" lon="11.3706312"><ele>423.8</ele><time>2026-04-12T09:28:11.937Z</time></trkpt><trkpt lat="44.0213182" lon="11.3706101"><ele>421.6</ele><time>2026-04-12T09:28:12.938Z</time></trkpt><trkpt lat="44.0212228" lon="11.3705731"><ele>419.4</ele><time>2026-04-12T09:28:13.937Z</time></trkpt><trkpt lat="44.0211309" lon="11.3705287"><ele>417.2</ele><time>2026-04-12T09:28:14.937Z</time></trkpt><trkpt lat="44.0210399" lon="11.3704769"><ele>415.0</ele><time>2026-04-12T09:28:15.937Z</time></trkpt><trkpt lat="44.0209495" lon="11.3704093"><ele>415.0</ele><time>2026-04-12T09:28:16.937Z</time></trkpt><trkpt lat="44.0208662" lon="11.3703133"><ele>415.0</ele><time>2026-04-12T09:28:17.938Z</time></trkpt><trkpt lat="44.0207882" lon="11.3701971"><ele>415.0</ele><time>2026-04-12T09:28:18.938Z</time></trkpt><trkpt lat="44.0207107" lon="11.370082"><ele>415.0</ele><time>2026-04-12T09:28:19.937Z</time></trkpt><trkpt lat="44.0206064" lon="11.3700066"><ele>411.5</ele><time>2026-04-12T09:28:20.937Z</time></trkpt><trkpt lat="44.0204833" lon="11.3699708"><ele>408.0</ele><time>2026-04-12T09:28:21.937Z</time></trkpt><trkpt lat="44.0203513" lon="11.3699757"><ele>404.5</ele><time>2026-04-12T09:28:22.937Z</time></trkpt><trkpt lat="44.0202142" lon="11.369996"><ele>401.0</ele><time>2026-04-12T09:28:23.937Z</time></trkpt><trkpt lat="44.0200738" lon="11.3700204"><ele>398.5</ele><time>2026-04-12T09:28:24.937Z</time></trkpt><trkpt lat="44.0199313" lon="11.3700472"><ele>396.0</ele><time>2026-04-12T09:28:25.937Z</time></trkpt><trkpt lat="44.0197891" lon="11.3700819"><ele>393.5</ele><time>2026-04-12T09:28:26.938Z</time></trkpt><trkpt lat="44.0196505" lon="11.3701151"><ele>391.0</ele><time>2026-04-12T09:28:27.937Z</time></trkpt><trkpt lat="44.0195145" lon="11.370162"><ele>391.0</ele><time>2026-04-12T09:28:28.937Z</time></trkpt><trkpt lat="44.01938" lon="11.3702373"><ele>391.0</ele><time>2026-04-12T09:28:29.937Z</time></trkpt><trkpt lat="44.019251" lon="11.3703474"><ele>391.0</ele><time>2026-04-12T09:28:30.937Z</time></trkpt><trkpt lat="44.0191206" lon="11.3704729"><ele>392.6666666666667</ele><time>2026-04-12T09:28:31.938Z</time></trkpt><trkpt lat="44.0189763" lon="11.370585"><ele>394.33333333333337</ele><time>2026-04-12T09:28:32.938Z</time></trkpt><trkpt lat="44.0188335" lon="11.3706816"><ele>396.0</ele><time>2026-04-12T09:28:33.939Z</time></trkpt><trkpt lat="44.0187043" lon="11.3707818"><ele>396.0</ele><time>2026-04-12T09:28:34.938Z</time></trkpt><trkpt lat="44.0185845" lon="11.3708761"><ele>396.0</ele><time>2026-04-12T09:28:35.939Z</time></trkpt><trkpt lat="44.0184665" lon="11.3709454"><ele>396.0</ele><time>2026-04-12T09:28:36.938Z</time></trkpt><trkpt lat="44.0183464" lon="11.3709755"><ele>396.0</ele><time>2026-04-12T09:28:37.938Z</time></trkpt><trkpt lat="44.0182228" lon="11.3709588"><ele>391.6666666666667</ele><time>2026-04-12T09:28:38.938Z</time></trkpt><trkpt lat="44.0180928" lon="11.3708928"><ele>387.33333333333337</ele><time>2026-04-12T09:28:39.938Z</time></trkpt><trkpt lat="44.0179566" lon="11.370783"><ele>383.0</ele><time>2026-04-12T09:28:40.938Z</time></trkpt><trkpt lat="44.0178163" lon="11.370656"><ele>383.0</ele><time>2026-04-12T09:28:41.938Z</time></trkpt><trkpt lat="44.0176837" lon="11.3705362"><ele>383.0</ele><time>2026-04-12T09:28:42.938Z</time></trkpt><trkpt lat="44.0175591" lon="11.3704275"><ele>383.0</ele><time>2026-04-12T09:28:43.938Z</time></trkpt><trkpt lat="44.0174415" lon="11.3703423"><ele>383.0</ele><time>2026-04-12T09:28:44.939Z</time></trkpt><trkpt lat="44.0173226" lon="11.3703022"><ele>383.6666666666667</ele><time>2026-04-12T09:28:45.938Z</time></trkpt><trkpt lat="44.0171929" lon="11.3703172"><ele>384.33333333333337</ele><time>2026-04-12T09:28:46.938Z</time></trkpt><trkpt lat="44.0170427" lon="11.3703818"><ele>385.0</ele><time>2026-04-12T09:28:47.938Z</time></trkpt><trkpt lat="44.0168818" lon="11.37047"><ele>385.33333333333337</ele><time>2026-04-12T09:28:48.938Z</time></trkpt><trkpt lat="44.0167246" lon="11.3705605"><ele>385.66666666666663</ele><time>2026-04-12T09:28:49.938Z</time></trkpt><trkpt lat="44.0165829" lon="11.3706611"><ele>386.0</ele><time>2026-04-12T09:28:50.938Z</time></trkpt><trkpt lat="44.0164648" lon="11.3707925"><ele>386.5</ele><time>2026-04-12T09:28:51.938Z</time></trkpt><trkpt lat="44.0163876" lon="11.3709614"><ele>387.0</ele><time>2026-04-12T09:28:52.938Z</time></trkpt><trkpt lat="44.0163109" lon="11.3711165"><ele>387.5</ele><time>2026-04-12T09:28:53.938Z</time></trkpt><trkpt lat="44.016226" lon="11.3711961"><ele>388.0</ele><time>2026-04-12T09:28:54.938Z</time></trkpt><trkpt lat="44.0161417" lon="11.3712554"><ele>388.0</ele><time>2026-04-12T09:28:55.938Z</time></trkpt><trkpt lat="44.0160493" lon="11.371257"><ele>388.0</ele><time>2026-04-12T09:28:56.938Z</time></trkpt><trkpt lat="44.0159274" lon="11.3711739"><ele>388.0</ele><time>2026-04-12T09:28:57.938Z</time></trkpt><trkpt lat="44.0157885" lon="11.3711173"><ele>388.0</ele><time>2026-04-12T09:28:58.939Z</time></trkpt><trkpt lat="44.0156308" lon="11.371118"><ele>386.0</ele><time>2026-04-12T09:28:59.938Z</time></trkpt><trkpt lat="44.0154668" lon="11.3711875"><ele>384.0</ele><time>2026-04-12T09:29:00.938Z</time></trkpt><trkpt lat="44.0153136" lon="11.3712605"><ele>382.0</ele><time>2026-04-12T09:29:01.938Z</time></trkpt><trkpt lat="44.015166" lon="11.3712859"><ele>382.0</ele><time>2026-04-12T09:29:02.938Z</time></trkpt><trkpt lat="44.0150138" lon="11.3712713"><ele>382.0</ele><time>2026-04-12T09:29:03.938Z</time></trkpt><trkpt lat="44.0148567" lon="11.3712354"><ele>382.0</ele><time>2026-04-12T09:29:04.938Z</time></trkpt><trkpt lat="44.0146965" lon="11.3711841"><ele>378.3333333333333</ele><time>2026-04-12T09:29:05.938Z</time></trkpt><trkpt lat="44.0145331" lon="11.3711035"><ele>374.6666666666667</ele><time>2026-04-12T09:29:06.938Z</time></trkpt><trkpt lat="44.014375" lon="11.3709933"><ele>371.0</ele><time>2026-04-12T09:29:07.938Z</time></trkpt><trkpt lat="44.0142252" lon="11.3708806"><ele>369.6666666666667</ele><time>2026-04-12T09:29:08.938Z</time></trkpt><trkpt lat="44.014075" lon="11.3707742"><ele>368.3333333333333</ele><time>2026-04-12T09:29:09.939Z</time></trkpt><trkpt lat="44.0139333" lon="11.370702"><ele>367.0</ele><time>2026-04-12T09:29:10.938Z</time></trkpt><trkpt lat="44.0138021" lon="11.3706227"><ele>366.75</ele><time>2026-04-12T09:29:11.939Z</time></trkpt><trkpt lat="44.013698" lon="11.3705003"><ele>366.5</ele><time>2026-04-12T09:29:12.938Z</time></trkpt><trkpt lat="44.0136065" lon="11.3703488"><ele>366.25</ele><time>2026-04-12T09:29:13.939Z</time></trkpt><trkpt lat="44.013519" lon="11.3701508"><ele>366.0</ele><time>2026-04-12T09:29:14.938Z</time></trkpt><trkpt lat="44.0134357" lon="11.3699244"><ele>363.6666666666667</ele><time>2026-04-12T09:29:15.941Z</time></trkpt><trkpt lat="44.0133488" lon="11.3696904"><ele>361.33333333333337</ele><time>2026-04-12T09:29:16.938Z</time></trkpt><trkpt lat="44.0132485" lon="11.3694573"><ele>359.0</ele><time>2026-04-12T09:29:17.938Z</time></trkpt><trkpt lat="44.0131225" lon="11.3692373"><ele>357.33333333333337</ele><time>2026-04-12T09:29:18.938Z</time></trkpt><trkpt lat="44.0129686" lon="11.3690337"><ele>355.6666666666667</ele><time>2026-04-12T09:29:19.938Z</time></trkpt><trkpt lat="44.0128125" lon="11.3688505"><ele>354.0</ele><time>2026-04-12T09:29:20.938Z</time></trkpt><trkpt lat="44.0126648" lon="11.3686827"><ele>353.6666666666667</ele><time>2026-04-12T09:29:21.938Z</time></trkpt><trkpt lat="44.0125246" lon="11.3685252"><ele>353.33333333333337</ele><time>2026-04-12T09:29:22.939Z</time></trkpt><trkpt lat="44.0124008" lon="11.3684009"><ele>353.0</ele><time>2026-04-12T09:29:23.938Z</time></trkpt><trkpt lat="44.012268" lon="11.3683446"><ele>353.0</ele><time>2026-04-12T09:29:24.938Z</time></trkpt><trkpt lat="44.012114" lon="11.3683321"><ele>353.0</ele><time>2026-04-12T09:29:25.938Z</time></trkpt><trkpt lat="44.0119442" lon="11.3683372"><ele>353.0</ele><time>2026-04-12T09:29:26.939Z</time></trkpt><trkpt lat="44.0117592" lon="11.3683715"><ele>351.0</ele><time>2026-04-12T09:29:27.938Z</time></trkpt><trkpt lat="44.0115739" lon="11.3684054"><ele>349.0</ele><time>2026-04-12T09:29:28.938Z</time></trkpt><trkpt lat="44.0114007" lon="11.3684325"><ele>347.0</ele><time>2026-04-12T09:29:29.939Z</time></trkpt><trkpt lat="44.0112392" lon="11.368443"><ele>347.0</ele><time>2026-04-12T09:29:30.939Z</time></trkpt><trkpt lat="44.0110858" lon="11.368429"><ele>347.0</ele><time>2026-04-12T09:29:31.938Z</time></trkpt><trkpt lat="44.0109349" lon="11.3683836"><ele>347.0</ele><time>2026-04-12T09:29:32.938Z</time></trkpt><trkpt lat="44.0107793" lon="11.3683115"><ele>344.33333333333337</ele><time>2026-04-12T09:29:33.938Z</time></trkpt><trkpt lat="44.0106123" lon="11.3682235"><ele>341.6666666666667</ele><time>2026-04-12T09:29:34.938Z</time></trkpt><trkpt lat="44.0104359" lon="11.3681307"><ele>339.0</ele><time>2026-04-12T09:29:35.938Z</time></trkpt><trkpt lat="44.0102577" lon="11.3680384"><ele>339.0</ele><time>2026-04-12T09:29:36.938Z</time></trkpt><trkpt lat="44.0100798" lon="11.3679479"><ele>339.0</ele><time>2026-04-12T09:29:37.938Z</time></trkpt><trkpt lat="44.0099008" lon="11.3678581"><ele>339.0</ele><time>2026-04-12T09:29:38.938Z</time></trkpt><trkpt lat="44.0097205" lon="11.3677693"><ele>337.6666666666667</ele><time>2026-04-12T09:29:39.938Z</time></trkpt><trkpt lat="44.009541" lon="11.367679"><ele>336.33333333333337</ele><time>2026-04-12T09:29:40.938Z</time></trkpt><trkpt lat="44.0093604" lon="11.3675912"><ele>335.0</ele><time>2026-04-12T09:29:41.938Z</time></trkpt><trkpt lat="44.0091813" lon="11.3675028"><ele>333.33333333333337</ele><time>2026-04-12T09:29:42.938Z</time></trkpt><trkpt lat="44.0090063" lon="11.3674135"><ele>331.6666666666667</ele><time>2026-04-12T09:29:43.938Z</time></trkpt><trkpt lat="44.0088368" lon="11.3673301"><ele>330.0</ele><time>2026-04-12T09:29:44.938Z</time></trkpt><trkpt lat="44.0086659" lon="11.3672574"><ele>330.0</ele><time>2026-04-12T09:29:45.938Z</time></trkpt><trkpt lat="44.0084932" lon="11.3672086"><ele>330.0</ele><time>2026-04-12T09:29:46.938Z</time></trkpt><trkpt lat="44.008318" lon="11.3671807"><ele>330.0</ele><time>2026-04-12T09:29:47.938Z</time></trkpt><trkpt lat="44.0081403" lon="11.3671705"><ele>328.6666666666667</ele><time>2026-04-12T09:29:48.938Z</time></trkpt><trkpt lat="44.0079611" lon="11.3671636"><ele>327.33333333333337</ele><time>2026-04-12T09:29:49.938Z</time></trkpt><trkpt lat="44.0077861" lon="11.3671537"><ele>326.0</ele><time>2026-04-12T09:29:50.938Z</time></trkpt><trkpt lat="44.0076211" lon="11.3671268"><ele>326.0</ele><time>2026-04-12T09:29:51.938Z</time></trkpt><trkpt lat="44.0074688" lon="11.3670727"><ele>326.0</ele><time>2026-04-12T09:29:52.938Z</time></trkpt><trkpt lat="44.007324" lon="11.3669955"><ele>326.0</ele><time>2026-04-12T09:29:53.939Z</time></trkpt><trkpt lat="44.0071803" lon="11.3668938"><ele>326.0</ele><time>2026-04-12T09:29:54.938Z</time></trkpt><trkpt lat="44.0070205" lon="11.3667424"><ele>326.0</ele><time>2026-04-12T09:29:55.939Z</time></trkpt><trkpt lat="44.0068407" lon="11.3665715"><ele>326.0</ele><time>2026-04-12T09:29:56.939Z</time></trkpt><trkpt lat="44.0066587" lon="11.3664052"><ele>325.6666666666667</ele><time>2026-04-12T09:29:57.938Z</time></trkpt><trkpt lat="44.0064977" lon="11.3662606"><ele>325.3333333333333</ele><time>2026-04-12T09:29:58.939Z</time></trkpt><trkpt lat="44.0063685" lon="11.3661424"><ele>325.0</ele><time>2026-04-12T09:29:59.938Z</time></trkpt><trkpt lat="44.0062565" lon="11.3660486"><ele>325.0</ele><time>2026-04-12T09:30:00.938Z</time></trkpt><trkpt lat="44.006162" lon="11.3659692"><ele>325.0</ele><time>2026-04-12T09:30:01.938Z</time></trkpt><trkpt lat="44.0060807" lon="11.3659104"><ele>325.0</ele><time>2026-04-12T09:30:02.938Z</time></trkpt><trkpt lat="44.0060015" lon="11.3658998"><ele>325.0</ele><time>2026-04-12T09:30:03.938Z</time></trkpt><trkpt lat="44.0059373" lon="11.3659406"><ele>325.0</ele><time>2026-04-12T09:30:04.94Z</time></trkpt><trkpt lat="44.0058777" lon="11.3660199"><ele>325.0</ele><time>2026-04-12T09:30:05.939Z</time></trkpt><trkpt lat="44.0058181" lon="11.3661385"><ele>324.5</ele><time>2026-04-12T09:30:06.938Z</time></trkpt><trkpt lat="44.0057403" lon="11.3662824"><ele>324.0</ele><time>2026-04-12T09:30:07.939Z</time></trkpt><trkpt lat="44.0056507" lon="11.3664326"><ele>323.5</ele><time>2026-04-12T09:30:08.938Z</time></trkpt><trkpt lat="44.0055627" lon="11.3665822"><ele>323.0</ele><time>2026-04-12T09:30:09.938Z</time></trkpt><trkpt lat="44.0054761" lon="11.3667265"><ele>323.0</ele><time>2026-04-12T09:30:10.938Z</time></trkpt><trkpt lat="44.0053881" lon="11.3668645"><ele>323.0</ele><time>2026-04-12T09:30:11.939Z</time></trkpt><trkpt lat="44.0053028" lon="11.3670041"><ele>323.0</ele><time>2026-04-12T09:30:12.938Z</time></trkpt><trkpt lat="44.0052176" lon="11.3671424"><ele>323.0</ele><time>2026-04-12T09:30:13.939Z</time></trkpt><trkpt lat="44.0051295" lon="11.3672635"><ele>323.0</ele><time>2026-04-12T09:30:14.939Z</time></trkpt><trkpt lat="44.0050405" lon="11.3673845"><ele>323.0</ele><time>2026-04-12T09:30:15.938Z</time></trkpt><trkpt lat="44.0049358" lon="11.3674907"><ele>323.0</ele><time>2026-04-12T09:30:16.938Z</time></trkpt><trkpt lat="44.004826" lon="11.3675876"><ele>323.0</ele><time>2026-04-12T09:30:17.94Z</time></trkpt><trkpt lat="44.0047107" lon="11.3676715"><ele>322.5</ele><time>2026-04-12T09:30:18.939Z</time></trkpt><trkpt lat="44.0045862" lon="11.3677349"><ele>322.0</ele><time>2026-04-12T09:30:19.939Z</time></trkpt><trkpt lat="44.0044565" lon="11.3677804"><ele>321.5</ele><time>2026-04-12T09:30:20.939Z</time></trkpt><trkpt lat="44.0043152" lon="11.3678091"><ele>321.0</ele><time>2026-04-12T09:30:21.94Z</time></trkpt><trkpt lat="44.0041637" lon="11.3678231"><ele>321.6666666666667</ele><time>2026-04-12T09:30:22.939Z</time></trkpt><trkpt lat="44.0040094" lon="11.3678066"><ele>322.33333333333337</ele><time>2026-04-12T09:30:23.94Z</time></trkpt><trkpt lat="44.0038444" lon="11.3677642"><ele>323.0</ele><time>2026-04-12T09:30:24.94Z</time></trkpt><trkpt lat="44.0036779" lon="11.3676993"><ele>323.0</ele><time>2026-04-12T09:30:25.939Z</time></trkpt><trkpt lat="44.0034998" lon="11.3676127"><ele>323.0</ele><time>2026-04-12T09:30:26.939Z</time></trkpt><trkpt lat="44.0032965" lon="11.3675034"><ele>323.0</ele><time>2026-04-12T09:30:27.939Z</time></trkpt><trkpt lat="44.00306" lon="11.3673769"><ele>321.0</ele><time>2026-04-12T09:30:28.939Z</time></trkpt><trkpt lat="44.0028028" lon="11.3672338"><ele>319.0</ele><time>2026-04-12T09:30:29.939Z</time></trkpt><trkpt lat="44.0025287" lon="11.3670964"><ele>318.5</ele><time>2026-04-12T09:30:30.939Z</time></trkpt><trkpt lat="44.0022306" lon="11.366942"><ele>318.0</ele><time>2026-04-12T09:30:31.939Z</time></trkpt><trkpt lat="44.0019137" lon="11.3667709"><ele>317.0</ele><time>2026-04-12T09:30:32.939Z</time></trkpt><trkpt lat="44.0015768" lon="11.3666017"><ele>316.0</ele><time>2026-04-12T09:30:33.939Z</time></trkpt><trkpt lat="44.0012239" lon="11.3664105"><ele>315.0</ele><time>2026-04-12T09:30:34.939Z</time></trkpt><trkpt lat="44.0008564" lon="11.3662156"><ele>314.0</ele><time>2026-04-12T09:30:35.939Z</time></trkpt><trkpt lat="44.0004835" lon="11.3660121"><ele>314.0</ele><time>2026-04-12T09:30:36.939Z</time></trkpt><trkpt lat="44.0001074" lon="11.3658191"><ele>314.0</ele><time>2026-04-12T09:30:37.939Z</time></trkpt><trkpt lat="43.9997285" lon="11.3656206"><ele>313.0</ele><time>2026-04-12T09:30:38.939Z</time></trkpt><trkpt lat="43.999366" lon="11.365424"><ele>312.0</ele><time>2026-04-12T09:30:39.94Z</time></trkpt><trkpt lat="43.999027" lon="11.3652477"><ele>310.5</ele><time>2026-04-12T09:30:40.939Z</time></trkpt><trkpt lat="43.9987075" lon="11.3650743"><ele>309.0</ele><time>2026-04-12T09:30:41.939Z</time></trkpt><trkpt lat="43.9983981" lon="11.3649091"><ele>307.5</ele><time>2026-04-12T09:30:42.939Z</time></trkpt><trkpt lat="43.9981025" lon="11.3647563"><ele>306.0</ele><time>2026-04-12T09:30:43.939Z</time></trkpt><trkpt lat="43.9978127" lon="11.3646119"><ele>307.5</ele><time>2026-04-12T09:30:44.939Z</time></trkpt><trkpt lat="43.9975347" lon="11.3644785"><ele>309.0</ele><time>2026-04-12T09:30:45.939Z</time></trkpt><trkpt lat="43.9972693" lon="11.3643629"><ele>309.0</ele><time>2026-04-12T09:30:46.94Z</time></trkpt><trkpt lat="43.9970271" lon="11.3642554"><ele>309.0</ele><time>2026-04-12T09:30:47.939Z</time></trkpt><trkpt lat="43.9967926" lon="11.3641527"><ele>309.6666666666667</ele><time>2026-04-12T09:30:48.939Z</time></trkpt><trkpt lat="43.9965751" lon="11.3640498"><ele>310.33333333333337</ele><time>2026-04-12T09:30:49.939Z</time></trkpt><trkpt lat="43.9963748" lon="11.3639572"><ele>311.0</ele><time>2026-04-12T09:30:50.94Z</time></trkpt><trkpt lat="43.9961777" lon="11.3638721"><ele>307.33333333333337</ele><time>2026-04-12T09:30:51.939Z</time></trkpt><trkpt lat="43.9959866" lon="11.3637922"><ele>303.6666666666667</ele><time>2026-04-12T09:30:52.939Z</time></trkpt><trkpt lat="43.9958052" lon="11.363718"><ele>300.0</ele><time>2026-04-12T09:30:53.939Z</time></trkpt><trkpt lat="43.9956269" lon="11.3636423"><ele>300.0</ele><time>2026-04-12T09:30:54.94Z</time></trkpt><trkpt lat="43.99546" lon="11.3635765"><ele>300.0</ele><time>2026-04-12T09:30:55.939Z</time></trkpt><trkpt lat="43.9952954" lon="11.3635079"><ele>300.0</ele><time>2026-04-12T09:30:56.94Z</time></trkpt><trkpt lat="43.9951233" lon="11.3634421"><ele>299.6666666666667</ele><time>2026-04-12T09:30:57.94Z</time></trkpt><trkpt lat="43.9949472" lon="11.3633758"><ele>299.33333333333337</ele><time>2026-04-12T09:30:58.939Z</time></trkpt><trkpt lat="43.994767" lon="11.363315"><ele>299.0</ele><time>2026-04-12T09:30:59.939Z</time></trkpt><trkpt lat="43.9945869" lon="11.363269"><ele>299.0</ele><time>2026-04-12T09:31:00.939Z</time></trkpt><trkpt lat="43.9944015" lon="11.3632326"><ele>299.0</ele><time>2026-04-12T09:31:01.939Z</time></trkpt><trkpt lat="43.9942211" lon="11.363208"><ele>299.0</ele><time>2026-04-12T09:31:02.94Z</time></trkpt><trkpt lat="43.9940501" lon="11.363191"><ele>297.0</ele><time>2026-04-12T09:31:03.939Z</time></trkpt><trkpt lat="43.9938813" lon="11.3631795"><ele>295.0</ele><time>2026-04-12T09:31:04.939Z</time></trkpt><trkpt lat="43.9937178" lon="11.36317"><ele>293.0</ele><time>2026-04-12T09:31:05.939Z</time></trkpt><trkpt lat="43.9935593" lon="11.3631624"><ele>293.0</ele><time>2026-04-12T09:31:06.939Z</time></trkpt><trkpt lat="43.9934174" lon="11.36317"><ele>293.0</ele><time>2026-04-12T09:31:07.939Z</time></trkpt><trkpt lat="43.9932854" lon="11.3631723"><ele>293.0</ele><time>2026-04-12T09:31:08.939Z</time></trkpt><trkpt lat="43.9931648" lon="11.3631696"><ele>293.0</ele><time>2026-04-12T09:31:09.939Z</time></trkpt><trkpt lat="43.9930631" lon="11.3631404"><ele>292.1666666666667</ele><time>2026-04-12T09:31:10.939Z</time></trkpt><trkpt lat="43.9929752" lon="11.3630942"><ele>291.33333333333337</ele><time>2026-04-12T09:31:11.939Z</time></trkpt><trkpt lat="43.9928924" lon="11.3630613"><ele>290.5</ele><time>2026-04-12T09:31:12.939Z</time></trkpt><trkpt lat="43.9928143" lon="11.3630726"><ele>289.6666666666667</ele><time>2026-04-12T09:31:13.939Z</time></trkpt><trkpt lat="43.9927449" lon="11.3631367"><ele>288.8333333333333</ele><time>2026-04-12T09:31:14.939Z</time></trkpt><trkpt lat="43.9926934" lon="11.3632494"><ele>288.0</ele><time>2026-04-12T09:31:15.94Z</time></trkpt><trkpt lat="43.9926347" lon="11.3634081"><ele>288.0</ele><time>2026-04-12T09:31:16.939Z</time></trkpt><trkpt lat="43.9925548" lon="11.3635846"><ele>288.0</ele><time>2026-04-12T09:31:17.939Z</time></trkpt><trkpt lat="43.992428" lon="11.3637695"><ele>288.0</ele><time>2026-04-12T09:31:18.939Z</time></trkpt><trkpt lat="43.9923183" lon="11.3639668"><ele>285.0</ele><time>2026-04-12T09:31:19.939Z</time></trkpt><trkpt lat="43.9922224" lon="11.364166"><ele>282.0</ele><time>2026-04-12T09:31:20.939Z</time></trkpt><trkpt lat="43.992136" lon="11.3643696"><ele>279.0</ele><time>2026-04-12T09:31:21.94Z</time></trkpt><trkpt lat="43.9920562" lon="11.3645759"><ele>275.6666666666667</ele><time>2026-04-12T09:31:22.939Z</time></trkpt><trkpt lat="43.9919853" lon="11.3647841"><ele>272.33333333333337</ele><time>2026-04-12T09:31:23.94Z</time></trkpt><trkpt lat="43.9919083" lon="11.3649861"><ele>269.0</ele><time>2026-04-12T09:31:24.939Z</time></trkpt><trkpt lat="43.9918312" lon="11.36519"><ele>269.0</ele><time>2026-04-12T09:31:25.939Z</time></trkpt><trkpt lat="43.9917568" lon="11.3653937"><ele>269.0</ele><time>2026-04-12T09:31:26.939Z</time></trkpt><trkpt lat="43.9916835" lon="11.3655859"><ele>269.0</ele><time>2026-04-12T09:31:27.939Z</time></trkpt><trkpt lat="43.9916143" lon="11.3657863"><ele>266.0</ele><time>2026-04-12T09:31:28.939Z</time></trkpt><trkpt lat="43.9915389" lon="11.3659822"><ele>263.0</ele><time>2026-04-12T09:31:29.939Z</time></trkpt><trkpt lat="43.99147" lon="11.3661737"><ele>260.0</ele><time>2026-04-12T09:31:30.939Z</time></trkpt><trkpt lat="43.9913965" lon="11.3663681"><ele>257.6666666666667</ele><time>2026-04-12T09:31:31.939Z</time></trkpt><trkpt lat="43.9913266" lon="11.3665643"><ele>255.33333333333331</ele><time>2026-04-12T09:31:32.939Z</time></trkpt><trkpt lat="43.9912546" lon="11.366767"><ele>253.0</ele><time>2026-04-12T09:31:33.939Z</time></trkpt><trkpt lat="43.9911821" lon="11.3669714"><ele>253.0</ele><time>2026-04-12T09:31:34.939Z</time></trkpt><trkpt lat="43.9911061" lon="11.3671853"><ele>253.0</ele><time>2026-04-12T09:31:35.939Z</time></trkpt><trkpt lat="43.9910262" lon="11.3674238"><ele>253.0</ele><time>2026-04-12T09:31:36.939Z</time></trkpt><trkpt lat="43.9909516" lon="11.3676734"><ele>251.33333333333331</ele><time>2026-04-12T09:31:37.94Z</time></trkpt><trkpt lat="43.9908769" lon="11.3679394"><ele>249.66666666666669</ele><time>2026-04-12T09:31:38.939Z</time></trkpt><trkpt lat="43.9907971" lon="11.368189"><ele>248.0</ele><time>2026-04-12T09:31:39.939Z</time></trkpt><trkpt lat="43.990729" lon="11.3684347"><ele>246.33333333333334</ele><time>2026-04-12T09:31:40.939Z</time></trkpt><trkpt lat="43.9906651" lon="11.3686548"><ele>244.66666666666669</ele><time>2026-04-12T09:31:41.939Z</time></trkpt><trkpt lat="43.990606" lon="11.3688551"><ele>243.0</ele><time>2026-04-12T09:31:42.939Z</time></trkpt><trkpt lat="43.9905566" lon="11.3690443"><ele>243.0</ele><time>2026-04-12T09:31:43.94Z</time></trkpt><trkpt lat="43.9905163" lon="11.3692139"><ele>243.0</ele><time>2026-04-12T09:31:44.939Z</time></trkpt><trkpt lat="43.9904763" lon="11.3693598"><ele>243.0</ele><time>2026-04-12T09:31:45.939Z</time></trkpt><trkpt lat="43.9904389" lon="11.3694918"><ele>243.0</ele><time>2026-04-12T09:31:46.939Z</time></trkpt><trkpt lat="43.9904173" lon="11.3696127"><ele>243.0</ele><time>2026-04-12T09:31:47.939Z</time></trkpt><trkpt lat="43.9903968" lon="11.3697171"><ele>243.66666666666666</ele><time>2026-04-12T09:31:48.941Z</time></trkpt><trkpt lat="43.9903786" lon="11.369803"><ele>244.33333333333331</ele><time>2026-04-12T09:31:49.939Z</time></trkpt><trkpt lat="43.9903504" lon="11.369909"><ele>245.0</ele><time>2026-04-12T09:31:51.939Z</time></trkpt><trkpt lat="43.9903516" lon="11.3700079"><ele>245.66666666666666</ele><time>2026-04-12T09:31:53.939Z</time></trkpt><trkpt lat="43.9904384" lon="11.3701039"><ele>246.33333333333331</ele><time>2026-04-12T09:31:55.939Z</time></trkpt><trkpt lat="43.9904982" lon="11.3701443"><ele>247.0</ele><time>2026-04-12T09:31:56.94Z</time></trkpt><trkpt lat="43.9905668" lon="11.3701868"><ele>246.99999999999997</ele><time>2026-04-12T09:31:57.939Z</time></trkpt><trkpt lat="43.9906266" lon="11.3702201"><ele>247.0</ele><time>2026-04-12T09:31:58.94Z</time></trkpt><trkpt lat="43.9907313" lon="11.3702606"><ele>247.0</ele><time>2026-04-12T09:32:00.94Z</time></trkpt><trkpt lat="43.9908172" lon="11.3702892"><ele>247.0</ele><time>2026-04-12T09:32:02.94Z</time></trkpt><trkpt lat="43.9908809" lon="11.3703126"><ele>246.99999999999997</ele><time>2026-04-12T09:32:37.063Z</time></trkpt><trkpt lat="43.9909488" lon="11.3702595"><ele>247.0</ele><time>2026-04-12T09:32:42.083Z</time></trkpt><trkpt lat="43.9909029" lon="11.3701543"><ele>246.99999999999997</ele><time>2026-04-12T09:32:46.03Z</time></trkpt><trkpt lat="43.9908212" lon="11.3701315"><ele>247.0</ele><time>2026-04-12T09:32:48.026Z</time></trkpt><trkpt lat="43.9907542" lon="11.3701021"><ele>247.0</ele><time>2026-04-12T09:32:50.075Z</time></trkpt><trkpt lat="43.9906686" lon="11.3700804"><ele>247.0</ele><time>2026-04-12T09:32:53.047Z</time></trkpt><trkpt lat="43.9905991" lon="11.3700564"><ele>246.99999999999997</ele><time>2026-04-12T09:32:56.017Z</time></trkpt><trkpt lat="43.9905629" lon="11.3701372"><ele>247.0</ele><time>2026-04-12T09:32:59.091Z</time></trkpt><trkpt lat="43.9906301" lon="11.3701159"><ele>247.0</ele><time>2026-04-12T09:34:43.107Z</time></trkpt><trkpt lat="43.990703" lon="11.3701741"><ele>247.0</ele><time>2026-04-12T09:38:12.116Z</time></trkpt><trkpt lat="43.9907631" lon="11.3702311"><ele>247.0</ele><time>2026-04-12T09:38:17.034Z</time></trkpt><trkpt lat="43.990828" lon="11.3702784"><ele>247.0</ele><time>2026-04-12T09:38:23.078Z</time></trkpt><trkpt lat="43.990768" lon="11.3702139"><ele>247.0</ele><time>2026-04-12T09:38:41.086Z</time></trkpt><trkpt lat="43.9907072" lon="11.37018"><ele>247.0</ele><time>2026-04-12T09:38:48.08Z</time></trkpt><trkpt lat="43.9906377" lon="11.370154"><ele>247.0</ele><time>2026-04-12T09:38:52.998Z</time></trkpt><trkpt lat="43.9905366" lon="11.3700259"><ele>247.0</ele><time>2026-04-12T09:40:13.109Z</time></trkpt><trkpt lat="43.9904691" lon="11.3701439"><ele>247.0</ele><time>2026-04-12T09:40:15.078Z</time></trkpt><trkpt lat="43.9905692" lon="11.3702045"><ele>247.0</ele><time>2026-04-12T09:40:16.944Z</time></trkpt><trkpt lat="43.9906351" lon="11.370196"><ele>247.0</ele><time>2026-04-12T09:40:28.945Z</time></trkpt><trkpt lat="43.9907268" lon="11.370259"><ele>247.0</ele><time>2026-04-12T09:40:31.944Z</time></trkpt><trkpt lat="43.9908209" lon="11.3703032"><ele>247.39999999999998</ele><time>2026-04-12T09:40:33.944Z</time></trkpt><trkpt lat="43.9909325" lon="11.3703344"><ele>247.79999999999998</ele><time>2026-04-12T09:40:35.944Z</time></trkpt><trkpt lat="43.9909995" lon="11.3703333"><ele>248.2</ele><time>2026-04-12T09:40:36.945Z</time></trkpt><trkpt lat="43.9910872" lon="11.3703195"><ele>248.6</ele><time>2026-04-12T09:40:37.945Z</time></trkpt><trkpt lat="43.9911788" lon="11.3703005"><ele>249.0</ele><time>2026-04-12T09:40:38.945Z</time></trkpt><trkpt lat="43.9912744" lon="11.3702772"><ele>249.0</ele><time>2026-04-12T09:40:39.945Z</time></trkpt><trkpt lat="43.9913759" lon="11.3702563"><ele>248.99999999999997</ele><time>2026-04-12T09:40:40.946Z</time></trkpt><trkpt lat="43.9914844" lon="11.3702466"><ele>248.99999999999997</ele><time>2026-04-12T09:40:41.945Z</time></trkpt><trkpt lat="43.9915949" lon="11.370245"><ele>249.0</ele><time>2026-04-12T09:40:42.946Z</time></trkpt><trkpt lat="43.9917175" lon="11.3702467"><ele>249.0</ele><time>2026-04-12T09:40:43.946Z</time></trkpt><trkpt lat="43.9918507" lon="11.3702473"><ele>248.75</ele><time>2026-04-12T09:40:44.945Z</time></trkpt><trkpt lat="43.9919872" lon="11.3702416"><ele>248.5</ele><time>2026-04-12T09:40:45.946Z</time></trkpt><trkpt lat="43.9921246" lon="11.3702353"><ele>248.25</ele><time>2026-04-12T09:40:46.945Z</time></trkpt><trkpt lat="43.9922557" lon="11.3702317"><ele>248.0</ele><time>2026-04-12T09:40:47.945Z</time></trkpt><trkpt lat="43.992382" lon="11.3702429"><ele>248.0</ele><time>2026-04-12T09:40:48.945Z</time></trkpt><trkpt lat="43.9925054" lon="11.3702786"><ele>248.0</ele><time>2026-04-12T09:40:49.945Z</time></trkpt><trkpt lat="43.9926282" lon="11.3703372"><ele>248.0</ele><time>2026-04-12T09:40:50.945Z</time></trkpt><trkpt lat="43.9927519" lon="11.3704101"><ele>248.0</ele><time>2026-04-12T09:40:51.945Z</time></trkpt><trkpt lat="43.9928773" lon="11.3704888"><ele>249.5</ele><time>2026-04-12T09:40:52.945Z</time></trkpt><trkpt lat="43.993005" lon="11.3705671"><ele>251.0</ele><time>2026-04-12T09:40:53.946Z</time></trkpt><trkpt lat="43.9931314" lon="11.3706445"><ele>252.5</ele><time>2026-04-12T09:40:54.945Z</time></trkpt><trkpt lat="43.9932563" lon="11.3707221"><ele>254.0</ele><time>2026-04-12T09:40:55.945Z</time></trkpt><trkpt lat="43.993378" lon="11.3707978"><ele>254.0</ele><time>2026-04-12T09:40:56.946Z</time></trkpt><trkpt lat="43.9934915" lon="11.3708691"><ele>254.0</ele><time>2026-04-12T09:40:57.946Z</time></trkpt><trkpt lat="43.9936012" lon="11.3709371"><ele>254.0</ele><time>2026-04-12T09:40:58.945Z</time></trkpt><trkpt lat="43.9937098" lon="11.3710053"><ele>254.0</ele><time>2026-04-12T09:40:59.945Z</time></trkpt><trkpt lat="43.9938196" lon="11.3710739"><ele>254.0</ele><time>2026-04-12T09:41:00.945Z</time></trkpt><trkpt lat="43.9939335" lon="11.3711464"><ele>254.0</ele><time>2026-04-12T09:41:01.945Z</time></trkpt><trkpt lat="43.9942618" lon="11.3713473"><ele>254.0</ele><time>2026-04-12T09:41:04.945Z</time></trkpt><trkpt lat="43.9943741" lon="11.371406"><ele>253.99999999999997</ele><time>2026-04-12T09:41:05.946Z</time></trkpt><trkpt lat="43.9944575" lon="11.371453"><ele>253.99999999999997</ele><time>2026-04-12T09:41:06.946Z</time></trkpt><trkpt lat="43.9945502" lon="11.3715066"><ele>254.0</ele><time>2026-04-12T09:41:07.945Z</time></trkpt><trkpt lat="43.9946406" lon="11.371566"><ele>254.0</ele><time>2026-04-12T09:41:08.945Z</time></trkpt><trkpt lat="43.9947315" lon="11.3716248"><ele>254.00000000000003</ele><time>2026-04-12T09:41:09.945Z</time></trkpt><trkpt lat="43.9948217" lon="11.3716831"><ele>254.0</ele><time>2026-04-12T09:41:10.946Z</time></trkpt><trkpt lat="43.9949087" lon="11.3717353"><ele>254.0</ele><time>2026-04-12T09:41:11.945Z</time></trkpt><trkpt lat="43.9949849" lon="11.3717768"><ele>254.0</ele><time>2026-04-12T09:41:12.945Z</time></trkpt><trkpt lat="43.9950542" lon="11.3718083"><ele>254.00000000000003</ele><time>2026-04-12T09:41:13.946Z</time></trkpt><trkpt lat="43.9951247" lon="11.3718239"><ele>254.0</ele><time>2026-04-12T09:41:14.946Z</time></trkpt><trkpt lat="43.9951959" lon="11.371811"><ele>254.00000000000003</ele><time>2026-04-12T09:41:15.945Z</time></trkpt><trkpt lat="43.9952607" lon="11.3717783"><ele>254.0</ele><time>2026-04-12T09:41:16.945Z</time></trkpt><trkpt lat="43.9953662" lon="11.3717417"><ele>254.0</ele><time>2026-04-12T09:41:18.945Z</time></trkpt><trkpt lat="43.9954729" lon="11.3717775"><ele>254.0</ele><time>2026-04-12T09:41:20.945Z</time></trkpt><trkpt lat="43.9955413" lon="11.371818"><ele>254.00000000000003</ele><time>2026-04-12T09:41:21.945Z</time></trkpt><trkpt lat="43.9956137" lon="11.3718677"><ele>254.0</ele><time>2026-04-12T09:41:22.945Z</time></trkpt><trkpt lat="43.995695" lon="11.3719191"><ele>254.0</ele><time>2026-04-12T09:41:23.945Z</time></trkpt><trkpt lat="43.9957906" lon="11.3719724"><ele>253.99999999999997</ele><time>2026-04-12T09:41:24.945Z</time></trkpt><trkpt lat="43.9958866" lon="11.3720334"><ele>253.99999999999997</ele><time>2026-04-12T09:41:25.945Z</time></trkpt><trkpt lat="43.9959819" lon="11.3720948"><ele>254.0</ele><time>2026-04-12T09:41:26.945Z</time></trkpt><trkpt lat="43.9960778" lon="11.3721551"><ele>254.0</ele><time>2026-04-12T09:41:27.945Z</time></trkpt><trkpt lat="43.9961751" lon="11.3722141"><ele>254.39999999999998</ele><time>2026-04-12T09:41:28.945Z</time></trkpt><trkpt lat="43.996272" lon="11.3722741"><ele>254.79999999999998</ele><time>2026-04-12T09:41:29.946Z</time></trkpt><trkpt lat="43.9963688" lon="11.3723376"><ele>255.20000000000002</ele><time>2026-04-12T09:41:30.946Z</time></trkpt><trkpt lat="43.9964648" lon="11.3724001"><ele>255.60000000000002</ele><time>2026-04-12T09:41:31.945Z</time></trkpt><trkpt lat="43.9965608" lon="11.3724591"><ele>256.0</ele><time>2026-04-12T09:41:32.946Z</time></trkpt><trkpt lat="43.9966561" lon="11.3725161"><ele>256.2</ele><time>2026-04-12T09:41:33.945Z</time></trkpt><trkpt lat="43.9967501" lon="11.3725711"><ele>256.40000000000003</ele><time>2026-04-12T09:41:34.945Z</time></trkpt><trkpt lat="43.9968403" lon="11.3726215"><ele>256.6</ele><time>2026-04-12T09:41:35.946Z</time></trkpt><trkpt lat="43.9969197" lon="11.3726634"><ele>256.8</ele><time>2026-04-12T09:41:36.945Z</time></trkpt><trkpt lat="43.9969918" lon="11.3726937"><ele>257.0</ele><time>2026-04-12T09:41:37.946Z</time></trkpt><trkpt lat="43.9971034" lon="11.3726496"><ele>257.0</ele><time>2026-04-12T09:41:39.945Z</time></trkpt><trkpt lat="43.997189" lon="11.3726301"><ele>257.0</ele><time>2026-04-12T09:41:41.945Z</time></trkpt><trkpt lat="43.99727" lon="11.3726374"><ele>257.0</ele><time>2026-04-12T09:41:50.945Z</time></trkpt><trkpt lat="43.9973374" lon="11.3726364"><ele>257.0</ele><time>2026-04-12T09:41:52.945Z</time></trkpt><trkpt lat="43.9973895" lon="11.3725465"><ele>257.0</ele><time>2026-04-12T09:41:54.945Z</time></trkpt><trkpt lat="43.9974203" lon="11.3724328"><ele>257.0</ele><time>2026-04-12T09:41:56.945Z</time></trkpt><trkpt lat="43.9973912" lon="11.3723209"><ele>257.0</ele><time>2026-04-12T09:42:00.946Z</time></trkpt><trkpt lat="43.9973213" lon="11.3722459"><ele>257.0</ele><time>2026-04-12T09:42:02.946Z</time></trkpt><trkpt lat="43.9973065" lon="11.3721507"><ele>257.0</ele><time>2026-04-12T09:42:05.945Z</time></trkpt><trkpt lat="43.9973344" lon="11.3720709"><ele>257.0</ele><time>2026-04-12T09:42:57.946Z</time></trkpt><trkpt lat="43.9973422" lon="11.3719776"><ele>257.0</ele><time>2026-04-12T09:43:04.946Z</time></trkpt><trkpt lat="43.9974331" lon="11.3719518"><ele>257.0</ele><time>2026-04-12T09:43:23.944Z</time></trkpt><trkpt lat="43.9974129" lon="11.3718085"><ele>257.0</ele><time>2026-04-12T09:46:49.094Z</time></trkpt><trkpt lat="43.997332" lon="11.3717343"><ele>257.0</ele><time>2026-04-12T09:49:35.592Z</time></trkpt><trkpt lat="43.997383" lon="11.3717948"><ele>257.0</ele><time>2026-04-12T09:52:10.719Z</time></trkpt><trkpt lat="43.9973631" lon="11.3718824"><ele>257.0</ele><time>2026-04-12T09:55:33.738Z</time></trkpt><trkpt lat="43.9973748" lon="11.3719782"><ele>257.0</ele><time>2026-04-12T09:55:37.776Z</time></trkpt><trkpt lat="43.9973369" lon="11.3720554"><ele>257.0</ele><time>2026-04-12T09:55:42.066Z</time></trkpt><trkpt lat="43.9973375" lon="11.3721464"><ele>257.0</ele><time>2026-04-12T09:57:23.119Z</time></trkpt><trkpt lat="43.9970935" lon="11.3721242"><ele>257.0</ele><time>2026-04-12T09:57:57.955Z</time></trkpt><trkpt lat="43.9970189" lon="11.3720866"><ele>257.0</ele><time>2026-04-12T09:57:58.956Z</time></trkpt><trkpt lat="43.9969446" lon="11.3720429"><ele>257.0</ele><time>2026-04-12T09:57:59.955Z</time></trkpt><trkpt lat="43.996867" lon="11.3719926"><ele>257.0</ele><time>2026-04-12T09:58:00.955Z</time></trkpt><trkpt lat="43.9967828" lon="11.3719348"><ele>257.0</ele><time>2026-04-12T09:58:01.955Z</time></trkpt><trkpt lat="43.9966965" lon="11.3718801"><ele>257.0</ele><time>2026-04-12T09:58:02.955Z</time></trkpt><trkpt lat="43.9966149" lon="11.3718286"><ele>256.83333333333337</ele><time>2026-04-12T09:58:03.955Z</time></trkpt><trkpt lat="43.996547" lon="11.3717883"><ele>256.6666666666667</ele><time>2026-04-12T09:58:04.955Z</time></trkpt><trkpt lat="43.9964376" lon="11.3717323"><ele>256.5</ele><time>2026-04-12T09:58:06.955Z</time></trkpt><trkpt lat="43.9963302" lon="11.3716592"><ele>256.3333333333333</ele><time>2026-04-12T09:58:08.956Z</time></trkpt><trkpt lat="43.9962703" lon="11.3716116"><ele>256.16666666666663</ele><time>2026-04-12T09:58:09.956Z</time></trkpt><trkpt lat="43.996213" lon="11.3715708"><ele>256.0</ele><time>2026-04-12T09:58:10.955Z</time></trkpt><trkpt lat="43.9961069" lon="11.3714957"><ele>255.99999999999997</ele><time>2026-04-12T09:58:12.955Z</time></trkpt><trkpt lat="43.9960439" lon="11.3714572"><ele>256.0</ele><time>2026-04-12T09:58:13.956Z</time></trkpt><trkpt lat="43.9959722" lon="11.3714185"><ele>256.0</ele><time>2026-04-12T09:58:14.955Z</time></trkpt><trkpt lat="43.9958951" lon="11.3713748"><ele>256.0</ele><time>2026-04-12T09:58:15.955Z</time></trkpt><trkpt lat="43.9958204" lon="11.3713277"><ele>255.99999999999997</ele><time>2026-04-12T09:58:16.956Z</time></trkpt><trkpt lat="43.9957566" lon="11.3712855"><ele>256.0</ele><time>2026-04-12T09:58:17.955Z</time></trkpt><trkpt lat="43.9956552" lon="11.3712227"><ele>255.8</ele><time>2026-04-12T09:58:19.955Z</time></trkpt><trkpt lat="43.9955857" lon="11.3711998"><ele>255.60000000000002</ele><time>2026-04-12T09:58:21.956Z</time></trkpt><trkpt lat="43.9955102" lon="11.371224"><ele>255.4</ele><time>2026-04-12T09:58:24.956Z</time></trkpt><trkpt lat="43.9954149" lon="11.3713809"><ele>255.2</ele><time>2026-04-12T09:58:26.955Z</time></trkpt><trkpt lat="43.995374" lon="11.3714955"><ele>255.0</ele><time>2026-04-12T09:58:27.955Z</time></trkpt><trkpt lat="43.9953332" lon="11.3716119"><ele>254.8</ele><time>2026-04-12T09:58:28.955Z</time></trkpt><trkpt lat="43.9952871" lon="11.3717044"><ele>254.6</ele><time>2026-04-12T09:58:29.955Z</time></trkpt><trkpt lat="43.9952298" lon="11.3717656"><ele>254.39999999999998</ele><time>2026-04-12T09:58:30.955Z</time></trkpt><trkpt lat="43.9951689" lon="11.3718116"><ele>254.2</ele><time>2026-04-12T09:58:31.955Z</time></trkpt><trkpt lat="43.9950692" lon="11.3717928"><ele>254.0</ele><time>2026-04-12T09:58:32.955Z</time></trkpt><trkpt lat="43.9949463" lon="11.3717355"><ele>254.0</ele><time>2026-04-12T09:58:33.956Z</time></trkpt><trkpt lat="43.9948077" lon="11.3716539"><ele>254.0</ele><time>2026-04-12T09:58:34.955Z</time></trkpt><trkpt lat="43.9946663" lon="11.3715688"><ele>254.0</ele><time>2026-04-12T09:58:35.955Z</time></trkpt><trkpt lat="43.9945204" lon="11.3714812"><ele>254.0</ele><time>2026-04-12T09:58:36.955Z</time></trkpt><trkpt lat="43.9943732" lon="11.371389"><ele>254.0</ele><time>2026-04-12T09:58:37.955Z</time></trkpt><trkpt lat="43.9942232" lon="11.3712966"><ele>254.0</ele><time>2026-04-12T09:58:38.955Z</time></trkpt><trkpt lat="43.9940713" lon="11.3712035"><ele>254.0</ele><time>2026-04-12T09:58:39.956Z</time></trkpt><trkpt lat="43.9939253" lon="11.3711088"><ele>254.0</ele><time>2026-04-12T09:58:40.955Z</time></trkpt><trkpt lat="43.9937612" lon="11.3710068"><ele>254.0</ele><time>2026-04-12T09:58:41.955Z</time></trkpt><trkpt lat="43.9935984" lon="11.370909"><ele>254.0</ele><time>2026-04-12T09:58:42.956Z</time></trkpt><trkpt lat="43.9934415" lon="11.3708056"><ele>254.0</ele><time>2026-04-12T09:58:43.955Z</time></trkpt><trkpt lat="43.9932898" lon="11.3707041"><ele>254.0</ele><time>2026-04-12T09:58:44.955Z</time></trkpt><trkpt lat="43.9931404" lon="11.3706092"><ele>251.66666666666669</ele><time>2026-04-12T09:58:45.956Z</time></trkpt><trkpt lat="43.9929903" lon="11.3705121"><ele>249.33333333333331</ele><time>2026-04-12T09:58:46.955Z</time></trkpt><trkpt lat="43.9928433" lon="11.3704161"><ele>247.0</ele><time>2026-04-12T09:58:47.955Z</time></trkpt><trkpt lat="43.9927062" lon="11.3703251"><ele>247.0</ele><time>2026-04-12T09:58:48.955Z</time></trkpt><trkpt lat="43.9925754" lon="11.3702497"><ele>247.0</ele><time>2026-04-12T09:58:49.955Z</time></trkpt><trkpt lat="43.9924381" lon="11.370199"><ele>247.0</ele><time>2026-04-12T09:58:50.956Z</time></trkpt><trkpt lat="43.9922835" lon="11.3701695"><ele>247.0</ele><time>2026-04-12T09:58:51.956Z</time></trkpt><trkpt lat="43.9921124" lon="11.370157"><ele>247.33333333333331</ele><time>2026-04-12T09:58:52.955Z</time></trkpt><trkpt lat="43.9919411" lon="11.3701531"><ele>247.66666666666669</ele><time>2026-04-12T09:58:53.955Z</time></trkpt><trkpt lat="43.9917793" lon="11.370154"><ele>248.0</ele><time>2026-04-12T09:58:54.956Z</time></trkpt><trkpt lat="43.9916287" lon="11.3701585"><ele>248.25</ele><time>2026-04-12T09:58:55.957Z</time></trkpt><trkpt lat="43.9914904" lon="11.3701681"><ele>248.5</ele><time>2026-04-12T09:58:56.956Z</time></trkpt><trkpt lat="43.9913648" lon="11.3701753"><ele>248.75</ele><time>2026-04-12T09:58:57.956Z</time></trkpt><trkpt lat="43.9912511" lon="11.3701791"><ele>249.0</ele><time>2026-04-12T09:58:58.956Z</time></trkpt><trkpt lat="43.9911523" lon="11.3701832"><ele>249.0</ele><time>2026-04-12T09:58:59.956Z</time></trkpt><trkpt lat="43.9910695" lon="11.3701846"><ele>248.99999999999997</ele><time>2026-04-12T09:59:00.956Z</time></trkpt><trkpt lat="43.9909956" lon="11.3701804"><ele>248.99999999999997</ele><time>2026-04-12T09:59:01.956Z</time></trkpt><trkpt lat="43.9908759" lon="11.3701465"><ele>249.0</ele><time>2026-04-12T09:59:03.956Z</time></trkpt><trkpt lat="43.9907681" lon="11.3701052"><ele>249.0</ele><time>2026-04-12T09:59:05.956Z</time></trkpt><trkpt lat="43.9906765" lon="11.3700819"><ele>248.66666666666666</ele><time>2026-04-12T09:59:07.956Z</time></trkpt><trkpt lat="43.9906082" lon="11.3700367"><ele>248.33333333333331</ele><time>2026-04-12T10:01:31.957Z</time></trkpt><trkpt lat="43.9905589" lon="11.3699649"><ele>248.0</ele><time>2026-04-12T10:01:33.957Z</time></trkpt><trkpt lat="43.9905244" lon="11.3698869"><ele>247.66666666666666</ele><time>2026-04-12T10:01:35.957Z</time></trkpt><trkpt lat="43.990502" lon="11.3697981"><ele>247.33333333333331</ele><time>2026-04-12T10:01:37.957Z</time></trkpt><trkpt lat="43.9904881" lon="11.3696648"><ele>247.0</ele><time>2026-04-12T10:01:39.957Z</time></trkpt><trkpt lat="43.9904965" lon="11.3694906"><ele>246.33333333333331</ele><time>2026-04-12T10:01:41.957Z</time></trkpt><trkpt lat="43.9905102" lon="11.3693896"><ele>245.66666666666666</ele><time>2026-04-12T10:01:42.957Z</time></trkpt><trkpt lat="43.9905289" lon="11.3692801"><ele>245.0</ele><time>2026-04-12T10:01:43.957Z</time></trkpt><trkpt lat="43.9905525" lon="11.3691608"><ele>244.33333333333331</ele><time>2026-04-12T10:01:44.957Z</time></trkpt><trkpt lat="43.990583" lon="11.3690326"><ele>243.66666666666666</ele><time>2026-04-12T10:01:45.957Z</time></trkpt><trkpt lat="43.9906198" lon="11.3688973"><ele>243.0</ele><time>2026-04-12T10:01:46.958Z</time></trkpt><trkpt lat="43.9906593" lon="11.368756"><ele>242.75</ele><time>2026-04-12T10:01:47.957Z</time></trkpt><trkpt lat="43.9907019" lon="11.3686029"><ele>242.5</ele><time>2026-04-12T10:01:48.957Z</time></trkpt><trkpt lat="43.9907452" lon="11.3684468"><ele>242.25</ele><time>2026-04-12T10:01:49.957Z</time></trkpt><trkpt lat="43.9907918" lon="11.3682782"><ele>242.0</ele><time>2026-04-12T10:01:50.957Z</time></trkpt><trkpt lat="43.9908486" lon="11.3680849"><ele>243.5</ele><time>2026-04-12T10:01:51.957Z</time></trkpt><trkpt lat="43.9909097" lon="11.3678824"><ele>245.0</ele><time>2026-04-12T10:01:52.957Z</time></trkpt><trkpt lat="43.9909662" lon="11.3676951"><ele>246.5</ele><time>2026-04-12T10:01:53.958Z</time></trkpt><trkpt lat="43.9910192" lon="11.3675261"><ele>248.0</ele><time>2026-04-12T10:01:54.957Z</time></trkpt><trkpt lat="43.991071" lon="11.3673687"><ele>248.0</ele><time>2026-04-12T10:01:55.957Z</time></trkpt><trkpt lat="43.9911248" lon="11.3672038"><ele>248.0</ele><time>2026-04-12T10:01:56.957Z</time></trkpt><trkpt lat="43.9911822" lon="11.367027"><ele>248.0</ele><time>2026-04-12T10:01:57.958Z</time></trkpt><trkpt lat="43.9912469" lon="11.36684"><ele>248.0</ele><time>2026-04-12T10:01:58.958Z</time></trkpt><trkpt lat="43.9913183" lon="11.3666452"><ele>249.66666666666669</ele><time>2026-04-12T10:01:59.957Z</time></trkpt><trkpt lat="43.991392" lon="11.3664468"><ele>251.33333333333331</ele><time>2026-04-12T10:02:00.957Z</time></trkpt><trkpt lat="43.9914646" lon="11.3662517"><ele>253.0</ele><time>2026-04-12T10:02:01.957Z</time></trkpt><trkpt lat="43.9915356" lon="11.3660608"><ele>255.33333333333331</ele><time>2026-04-12T10:02:02.957Z</time></trkpt><trkpt lat="43.9916033" lon="11.3658719"><ele>257.6666666666667</ele><time>2026-04-12T10:02:03.957Z</time></trkpt><trkpt lat="43.9916706" lon="11.3656794"><ele>260.0</ele><time>2026-04-12T10:02:04.957Z</time></trkpt><trkpt lat="43.9917422" lon="11.3654835"><ele>263.0</ele><time>2026-04-12T10:02:05.957Z</time></trkpt><trkpt lat="43.991816" lon="11.365286"><ele>266.0</ele><time>2026-04-12T10:02:06.958Z</time></trkpt><trkpt lat="43.9918888" lon="11.365092"><ele>269.0</ele><time>2026-04-12T10:02:07.957Z</time></trkpt><trkpt lat="43.9919599" lon="11.3649031"><ele>269.0</ele><time>2026-04-12T10:02:08.957Z</time></trkpt><trkpt lat="43.992027" lon="11.3647143"><ele>269.0</ele><time>2026-04-12T10:02:09.957Z</time></trkpt><trkpt lat="43.9920947" lon="11.3645225"><ele>269.0</ele><time>2026-04-12T10:02:10.957Z</time></trkpt><trkpt lat="43.9921699" lon="11.3643307"><ele>271.5</ele><time>2026-04-12T10:02:11.957Z</time></trkpt><trkpt lat="43.992251" lon="11.3641465"><ele>274.0</ele><time>2026-04-12T10:02:12.958Z</time></trkpt><trkpt lat="43.9923376" lon="11.3639834"><ele>276.5</ele><time>2026-04-12T10:02:13.957Z</time></trkpt><trkpt lat="43.9924307" lon="11.3638418"><ele>279.0</ele><time>2026-04-12T10:02:14.957Z</time></trkpt><trkpt lat="43.9925281" lon="11.363713"><ele>281.25</ele><time>2026-04-12T10:02:15.957Z</time></trkpt><trkpt lat="43.9926234" lon="11.3636098"><ele>283.5</ele><time>2026-04-12T10:02:16.957Z</time></trkpt><trkpt lat="43.9927183" lon="11.363538"><ele>285.75</ele><time>2026-04-12T10:02:17.958Z</time></trkpt><trkpt lat="43.9928254" lon="11.3634802"><ele>288.0</ele><time>2026-04-12T10:02:18.957Z</time></trkpt><trkpt lat="43.9929476" lon="11.3634023"><ele>288.0</ele><time>2026-04-12T10:02:19.958Z</time></trkpt><trkpt lat="43.9930811" lon="11.3633217"><ele>288.0</ele><time>2026-04-12T10:02:20.957Z</time></trkpt><trkpt lat="43.9932364" lon="11.3632615"><ele>288.0</ele><time>2026-04-12T10:02:21.957Z</time></trkpt><trkpt lat="43.9934201" lon="11.3632196"><ele>289.6666666666667</ele><time>2026-04-12T10:02:22.957Z</time></trkpt><trkpt lat="43.9936121" lon="11.3631993"><ele>291.33333333333337</ele><time>2026-04-12T10:02:23.958Z</time></trkpt><trkpt lat="43.9937989" lon="11.3631978"><ele>293.0</ele><time>2026-04-12T10:02:24.957Z</time></trkpt><trkpt lat="43.9939793" lon="11.3632061"><ele>293.0</ele><time>2026-04-12T10:02:25.957Z</time></trkpt><trkpt lat="43.9941517" lon="11.3632196"><ele>293.0</ele><time>2026-04-12T10:02:26.957Z</time></trkpt><trkpt lat="43.9943166" lon="11.3632385"><ele>293.0</ele><time>2026-04-12T10:02:27.957Z</time></trkpt><trkpt lat="43.9944767" lon="11.3632631"><ele>295.0</ele><time>2026-04-12T10:02:28.957Z</time></trkpt><trkpt lat="43.9946348" lon="11.3632944"><ele>297.0</ele><time>2026-04-12T10:02:29.957Z</time></trkpt><trkpt lat="43.9947959" lon="11.3633387"><ele>299.0</ele><time>2026-04-12T10:02:30.957Z</time></trkpt><trkpt lat="43.9949624" lon="11.3633945"><ele>299.33333333333337</ele><time>2026-04-12T10:02:31.957Z</time></trkpt><trkpt lat="43.9951322" lon="11.3634569"><ele>299.6666666666667</ele><time>2026-04-12T10:02:32.959Z</time></trkpt><trkpt lat="43.995321" lon="11.3635406"><ele>300.0</ele><time>2026-04-12T10:02:33.957Z</time></trkpt><trkpt lat="43.9955191" lon="11.3636273"><ele>300.0</ele><time>2026-04-12T10:02:34.957Z</time></trkpt><trkpt lat="43.995727" lon="11.3637186"><ele>300.0</ele><time>2026-04-12T10:02:35.957Z</time></trkpt><trkpt lat="43.995948" lon="11.3638175"><ele>303.6666666666667</ele><time>2026-04-12T10:02:36.957Z</time></trkpt><trkpt lat="43.9961618" lon="11.3639133"><ele>307.33333333333337</ele><time>2026-04-12T10:02:37.958Z</time></trkpt><trkpt lat="43.9963629" lon="11.364"><ele>311.0</ele><time>2026-04-12T10:02:38.958Z</time></trkpt><trkpt lat="43.9965476" lon="11.3640802"><ele>310.33333333333337</ele><time>2026-04-12T10:02:39.958Z</time></trkpt><trkpt lat="43.9967221" lon="11.3641583"><ele>309.6666666666667</ele><time>2026-04-12T10:02:40.959Z</time></trkpt><trkpt lat="43.9968976" lon="11.3642374"><ele>309.0</ele><time>2026-04-12T10:02:41.957Z</time></trkpt><trkpt lat="43.9970784" lon="11.3643191"><ele>309.0</ele><time>2026-04-12T10:02:42.958Z</time></trkpt><trkpt lat="43.9972663" lon="11.3643989"><ele>309.0</ele><time>2026-04-12T10:02:43.958Z</time></trkpt><trkpt lat="43.9974652" lon="11.3644853"><ele>309.0</ele><time>2026-04-12T10:02:44.958Z</time></trkpt><trkpt lat="43.9976685" lon="11.364579"><ele>307.5</ele><time>2026-04-12T10:02:45.959Z</time></trkpt><trkpt lat="43.9978813" lon="11.3646762"><ele>306.0</ele><time>2026-04-12T10:02:46.958Z</time></trkpt><trkpt lat="43.9980977" lon="11.3647806"><ele>306.0</ele><time>2026-04-12T10:02:47.958Z</time></trkpt><trkpt lat="43.9983204" lon="11.3648991"><ele>306.0</ele><time>2026-04-12T10:02:48.958Z</time></trkpt><trkpt lat="43.998539" lon="11.3650169"><ele>307.0</ele><time>2026-04-12T10:02:49.958Z</time></trkpt><trkpt lat="43.9987477" lon="11.3651341"><ele>308.0</ele><time>2026-04-12T10:02:50.958Z</time></trkpt><trkpt lat="43.9989497" lon="11.3652357"><ele>309.0</ele><time>2026-04-12T10:02:51.958Z</time></trkpt><trkpt lat="43.9991458" lon="11.3653434"><ele>310.0</ele><time>2026-04-12T10:02:52.958Z</time></trkpt><trkpt lat="43.9993389" lon="11.3654434"><ele>311.0</ele><time>2026-04-12T10:02:53.958Z</time></trkpt><trkpt lat="43.9995262" lon="11.3655412"><ele>312.0</ele><time>2026-04-12T10:02:54.959Z</time></trkpt><trkpt lat="43.9997189" lon="11.3656436"><ele>312.6666666666667</ele><time>2026-04-12T10:02:55.958Z</time></trkpt><trkpt lat="43.9999106" lon="11.3657455"><ele>313.33333333333337</ele><time>2026-04-12T10:02:56.958Z</time></trkpt><trkpt lat="44.0001072" lon="11.3658471"><ele>314.0</ele><time>2026-04-12T10:02:57.958Z</time></trkpt><trkpt lat="44.0003044" lon="11.3659537"><ele>314.0</ele><time>2026-04-12T10:02:58.958Z</time></trkpt><trkpt lat="44.000504" lon="11.3660606"><ele>314.0</ele><time>2026-04-12T10:02:59.958Z</time></trkpt><trkpt lat="44.0006994" lon="11.3661685"><ele>314.0</ele><time>2026-04-12T10:03:00.958Z</time></trkpt><trkpt lat="44.000896" lon="11.3662763"><ele>314.6666666666667</ele><time>2026-04-12T10:03:01.958Z</time></trkpt><trkpt lat="44.0010918" lon="11.3663836"><ele>315.3333333333333</ele><time>2026-04-12T10:03:02.958Z</time></trkpt><trkpt lat="44.0012796" lon="11.3664875"><ele>316.0</ele><time>2026-04-12T10:03:03.958Z</time></trkpt><trkpt lat="44.001466" lon="11.3665845"><ele>316.0</ele><time>2026-04-12T10:03:04.959Z</time></trkpt><trkpt lat="44.0016479" lon="11.366682"><ele>316.0</ele><time>2026-04-12T10:03:05.958Z</time></trkpt><trkpt lat="44.0018252" lon="11.3667747"><ele>316.0</ele><time>2026-04-12T10:03:06.958Z</time></trkpt><trkpt lat="44.0020034" lon="11.3668708"><ele>315.66666666666663</ele><time>2026-04-12T10:03:07.958Z</time></trkpt><trkpt lat="44.0021835" lon="11.36697"><ele>315.3333333333333</ele><time>2026-04-12T10:03:08.958Z</time></trkpt><trkpt lat="44.0023708" lon="11.3670729"><ele>315.0</ele><time>2026-04-12T10:03:09.958Z</time></trkpt><trkpt lat="44.0025665" lon="11.3671775"><ele>316.3333333333333</ele><time>2026-04-12T10:03:10.958Z</time></trkpt><trkpt lat="44.0027637" lon="11.3672798"><ele>317.66666666666663</ele><time>2026-04-12T10:03:11.958Z</time></trkpt><trkpt lat="44.0029612" lon="11.3673795"><ele>319.0</ele><time>2026-04-12T10:03:12.958Z</time></trkpt><trkpt lat="44.0031545" lon="11.3674743"><ele>320.3333333333333</ele><time>2026-04-12T10:03:13.958Z</time></trkpt><trkpt lat="44.0033375" lon="11.3675736"><ele>321.6666666666667</ele><time>2026-04-12T10:03:14.958Z</time></trkpt><trkpt lat="44.0035163" lon="11.3676673"><ele>323.0</ele><time>2026-04-12T10:03:15.958Z</time></trkpt><trkpt lat="44.0036968" lon="11.3677593"><ele>323.0</ele><time>2026-04-12T10:03:16.958Z</time></trkpt><trkpt lat="44.0038887" lon="11.3678379"><ele>323.0</ele><time>2026-04-12T10:03:17.958Z</time></trkpt><trkpt lat="44.0040857" lon="11.3678796"><ele>323.0</ele><time>2026-04-12T10:03:18.958Z</time></trkpt><trkpt lat="44.0042841" lon="11.3678833"><ele>322.33333333333337</ele><time>2026-04-12T10:03:19.959Z</time></trkpt><trkpt lat="44.0044843" lon="11.3678435"><ele>321.6666666666667</ele><time>2026-04-12T10:03:20.959Z</time></trkpt><trkpt lat="44.0046708" lon="11.3677594"><ele>321.0</ele><time>2026-04-12T10:03:21.958Z</time></trkpt><trkpt lat="44.00485" lon="11.3676377"><ele>321.3333333333333</ele><time>2026-04-12T10:03:22.958Z</time></trkpt><trkpt lat="44.0050155" lon="11.3674713"><ele>321.66666666666663</ele><time>2026-04-12T10:03:23.958Z</time></trkpt><trkpt lat="44.0051708" lon="11.3672768"><ele>322.0</ele><time>2026-04-12T10:03:24.958Z</time></trkpt><trkpt lat="44.0053091" lon="11.367054"><ele>322.0</ele><time>2026-04-12T10:03:25.958Z</time></trkpt><trkpt lat="44.0054393" lon="11.3668326"><ele>322.0</ele><time>2026-04-12T10:03:26.959Z</time></trkpt><trkpt lat="44.0055624" lon="11.3666392"><ele>322.0</ele><time>2026-04-12T10:03:27.958Z</time></trkpt><trkpt lat="44.0056707" lon="11.3664809"><ele>322.20000000000005</ele><time>2026-04-12T10:03:28.959Z</time></trkpt><trkpt lat="44.0057667" lon="11.3663444"><ele>322.4</ele><time>2026-04-12T10:03:29.958Z</time></trkpt><trkpt lat="44.0058506" lon="11.3662311"><ele>322.6</ele><time>2026-04-12T10:03:30.958Z</time></trkpt><trkpt lat="44.0059314" lon="11.3661478"><ele>322.79999999999995</ele><time>2026-04-12T10:03:31.958Z</time></trkpt><trkpt lat="44.0060085" lon="11.3660903"><ele>323.0</ele><time>2026-04-12T10:03:32.958Z</time></trkpt><trkpt lat="44.0060812" lon="11.3660636"><ele>323.5</ele><time>2026-04-12T10:03:33.958Z</time></trkpt><trkpt lat="44.0061553" lon="11.3660768"><ele>324.0</ele><time>2026-04-12T10:03:34.958Z</time></trkpt><trkpt lat="44.0062442" lon="11.3661267"><ele>324.5</ele><time>2026-04-12T10:03:35.958Z</time></trkpt><trkpt lat="44.006366" lon="11.3662025"><ele>325.0</ele><time>2026-04-12T10:03:36.958Z</time></trkpt><trkpt lat="44.0065155" lon="11.3663095"><ele>325.25</ele><time>2026-04-12T10:03:37.958Z</time></trkpt><trkpt lat="44.0066441" lon="11.366425"><ele>325.5</ele><time>2026-04-12T10:03:38.959Z</time></trkpt><trkpt lat="44.0067531" lon="11.3665338"><ele>325.75</ele><time>2026-04-12T10:03:39.958Z</time></trkpt><trkpt lat="44.0068543" lon="11.3666283"><ele>326.0</ele><time>2026-04-12T10:03:40.958Z</time></trkpt><trkpt lat="44.006944" lon="11.3667139"><ele>326.0</ele><time>2026-04-12T10:03:41.959Z</time></trkpt><trkpt lat="44.0070324" lon="11.3667907"><ele>326.0</ele><time>2026-04-12T10:03:42.958Z</time></trkpt><trkpt lat="44.0071063" lon="11.3668683"><ele>326.0</ele><time>2026-04-12T10:03:43.958Z</time></trkpt><trkpt lat="44.0071725" lon="11.3669272"><ele>326.0</ele><time>2026-04-12T10:03:44.958Z</time></trkpt><trkpt lat="44.0072362" lon="11.3669796"><ele>326.0</ele><time>2026-04-12T10:03:45.958Z</time></trkpt><trkpt lat="44.0072946" lon="11.3670263"><ele>326.0</ele><time>2026-04-12T10:03:46.96Z</time></trkpt><trkpt lat="44.0074121" lon="11.3670815"><ele>326.0</ele><time>2026-04-12T10:03:48.958Z</time></trkpt><trkpt lat="44.0074732" lon="11.3670542"><ele>326.0</ele><time>2026-04-12T10:03:49.958Z</time></trkpt><trkpt lat="44.0075269" lon="11.3669939"><ele>326.0</ele><time>2026-04-12T10:03:50.958Z</time></trkpt><trkpt lat="44.0075621" lon="11.3669079"><ele>326.0</ele><time>2026-04-12T10:03:51.958Z</time></trkpt><trkpt lat="44.0075709" lon="11.3668178"><ele>326.0</ele><time>2026-04-12T10:03:52.959Z</time></trkpt><trkpt lat="44.0075531" lon="11.3667256"><ele>326.0</ele><time>2026-04-12T10:03:53.958Z</time></trkpt><trkpt lat="44.0075071" lon="11.3666409"><ele>326.0</ele><time>2026-04-12T10:03:54.959Z</time></trkpt><trkpt lat="44.0074342" lon="11.36657"><ele>326.0</ele><time>2026-04-12T10:03:55.958Z</time></trkpt><trkpt lat="44.0073258" lon="11.3664874"><ele>326.0</ele><time>2026-04-12T10:03:56.958Z</time></trkpt><trkpt lat="44.0071876" lon="11.3663621"><ele>326.0</ele><time>2026-04-12T10:03:57.959Z</time></trkpt><trkpt lat="44.0070279" lon="11.366214"><ele>325.6666666666667</ele><time>2026-04-12T10:03:58.958Z</time></trkpt><trkpt lat="44.0068606" lon="11.3660341"><ele>325.3333333333333</ele><time>2026-04-12T10:03:59.958Z</time></trkpt><trkpt lat="44.0066977" lon="11.3658311"><ele>325.0</ele><time>2026-04-12T10:04:00.959Z</time></trkpt><trkpt lat="44.0065421" lon="11.365612"><ele>322.0</ele><time>2026-04-12T10:04:01.958Z</time></trkpt><trkpt lat="44.0063927" lon="11.3653652"><ele>319.0</ele><time>2026-04-12T10:04:02.959Z</time></trkpt><trkpt lat="44.0062428" lon="11.3650921"><ele>319.0</ele><time>2026-04-12T10:04:03.958Z</time></trkpt><trkpt lat="44.0060919" lon="11.364764"><ele>319.0</ele><time>2026-04-12T10:04:04.958Z</time></trkpt><trkpt lat="44.0059458" lon="11.3643999"><ele>319.5</ele><time>2026-04-12T10:04:05.959Z</time></trkpt><trkpt lat="44.0057973" lon="11.3640189"><ele>320.0</ele><time>2026-04-12T10:04:06.958Z</time></trkpt><trkpt lat="44.0056463" lon="11.363634"><ele>317.5</ele><time>2026-04-12T10:04:07.958Z</time></trkpt><trkpt lat="44.0055018" lon="11.3632512"><ele>315.0</ele><time>2026-04-12T10:04:08.959Z</time></trkpt><trkpt lat="44.005361" lon="11.3628831"><ele>307.5</ele><time>2026-04-12T10:04:09.959Z</time></trkpt><trkpt lat="44.0052227" lon="11.362527"><ele>300.0</ele><time>2026-04-12T10:04:10.959Z</time></trkpt><trkpt lat="44.0050893" lon="11.3621743"><ele>299.0</ele><time>2026-04-12T10:04:11.958Z</time></trkpt><trkpt lat="44.0049491" lon="11.3618212"><ele>298.0</ele><time>2026-04-12T10:04:12.958Z</time></trkpt><trkpt lat="44.0048101" lon="11.361471"><ele>297.0</ele><time>2026-04-12T10:04:13.958Z</time></trkpt><trkpt lat="44.0046764" lon="11.3611198"><ele>296.0</ele><time>2026-04-12T10:04:14.958Z</time></trkpt><trkpt lat="44.0045441" lon="11.3607709"><ele>293.5</ele><time>2026-04-12T10:04:15.958Z</time></trkpt><trkpt lat="44.0044072" lon="11.3604204"><ele>291.0</ele><time>2026-04-12T10:04:16.958Z</time></trkpt><trkpt lat="44.0042696" lon="11.3600569"><ele>290.0</ele><time>2026-04-12T10:04:17.958Z</time></trkpt><trkpt lat="44.0041308" lon="11.3596913"><ele>289.0</ele><time>2026-04-12T10:04:18.958Z</time></trkpt><trkpt lat="44.0039899" lon="11.3593186"><ele>289.0</ele><time>2026-04-12T10:04:19.959Z</time></trkpt><trkpt lat="44.0038435" lon="11.3589452"><ele>289.0</ele><time>2026-04-12T10:04:20.958Z</time></trkpt><trkpt lat="44.0036945" lon="11.3585699"><ele>288.0</ele><time>2026-04-12T10:04:21.958Z</time></trkpt><trkpt lat="44.0035472" lon="11.3582"><ele>287.0</ele><time>2026-04-12T10:04:22.958Z</time></trkpt><trkpt lat="44.0034031" lon="11.357835"><ele>285.5</ele><time>2026-04-12T10:04:23.958Z</time></trkpt><trkpt lat="44.0032605" lon="11.3574684"><ele>284.0</ele><time>2026-04-12T10:04:24.958Z</time></trkpt><trkpt lat="44.0031181" lon="11.3570978"><ele>283.5</ele><time>2026-04-12T10:04:25.959Z</time></trkpt><trkpt lat="44.0029739" lon="11.3567347"><ele>283.0</ele><time>2026-04-12T10:04:26.96Z</time></trkpt><trkpt lat="44.0028379" lon="11.3563723"><ele>282.5</ele><time>2026-04-12T10:04:27.958Z</time></trkpt><trkpt lat="44.0026991" lon="11.3560108"><ele>282.0</ele><time>2026-04-12T10:04:28.959Z</time></trkpt><trkpt lat="44.0025619" lon="11.3556522"><ele>281.5</ele><time>2026-04-12T10:04:29.958Z</time></trkpt><trkpt lat="44.0024192" lon="11.3552861"><ele>281.0</ele><time>2026-04-12T10:04:30.958Z</time></trkpt><trkpt lat="44.0022793" lon="11.354921"><ele>281.0</ele><time>2026-04-12T10:04:31.958Z</time></trkpt><trkpt lat="44.0021285" lon="11.3545552"><ele>281.0</ele><time>2026-04-12T10:04:32.958Z</time></trkpt><trkpt lat="44.0019692" lon="11.354201"><ele>280.5</ele><time>2026-04-12T10:04:33.958Z</time></trkpt><trkpt lat="44.0017995" lon="11.3538574"><ele>280.0</ele><time>2026-04-12T10:04:34.958Z</time></trkpt><trkpt lat="44.0016203" lon="11.3535216"><ele>279.0</ele><time>2026-04-12T10:04:35.958Z</time></trkpt><trkpt lat="44.0014425" lon="11.353212"><ele>278.0</ele><time>2026-04-12T10:04:36.958Z</time></trkpt><trkpt lat="44.0012607" lon="11.3529174"><ele>278.0</ele><time>2026-04-12T10:04:37.96Z</time></trkpt><trkpt lat="44.0010748" lon="11.3526363"><ele>278.0</ele><time>2026-04-12T10:04:38.959Z</time></trkpt><trkpt lat="44.0008878" lon="11.3523803"><ele>277.5</ele><time>2026-04-12T10:04:39.96Z</time></trkpt><trkpt lat="44.0007" lon="11.3521377"><ele>277.0</ele><time>2026-04-12T10:04:40.959Z</time></trkpt><trkpt lat="44.0005093" lon="11.3519127"><ele>277.0</ele><time>2026-04-12T10:04:41.959Z</time></trkpt><trkpt lat="44.0003268" lon="11.3517141"><ele>277.0</ele><time>2026-04-12T10:04:42.96Z</time></trkpt><trkpt lat="44.0001496" lon="11.3515314"><ele>277.0</ele><time>2026-04-12T10:04:43.959Z</time></trkpt><trkpt lat="43.9999863" lon="11.3513741"><ele>277.0</ele><time>2026-04-12T10:04:44.959Z</time></trkpt><trkpt lat="43.9998266" lon="11.351222"><ele>277.0</ele><time>2026-04-12T10:04:45.96Z</time></trkpt><trkpt lat="43.9996742" lon="11.3510847"><ele>276.3333333333333</ele><time>2026-04-12T10:04:46.959Z</time></trkpt><trkpt lat="43.9995253" lon="11.350956"><ele>275.6666666666667</ele><time>2026-04-12T10:04:47.959Z</time></trkpt><trkpt lat="43.9993827" lon="11.3508449"><ele>275.0</ele><time>2026-04-12T10:04:48.959Z</time></trkpt><trkpt lat="43.9992516" lon="11.3507444"><ele>275.0</ele><time>2026-04-12T10:04:49.959Z</time></trkpt><trkpt lat="43.9991307" lon="11.3506533"><ele>275.0</ele><time>2026-04-12T10:04:50.964Z</time></trkpt><trkpt lat="43.999015" lon="11.3505612"><ele>275.0</ele><time>2026-04-12T10:04:51.959Z</time></trkpt><trkpt lat="43.9989109" lon="11.35048"><ele>275.0</ele><time>2026-04-12T10:04:52.96Z</time></trkpt><trkpt lat="43.9988199" lon="11.3503873"><ele>274.2</ele><time>2026-04-12T10:04:53.959Z</time></trkpt><trkpt lat="43.9987485" lon="11.3502858"><ele>273.4</ele><time>2026-04-12T10:04:54.959Z</time></trkpt><trkpt lat="43.998695" lon="11.3501593"><ele>272.6</ele><time>2026-04-12T10:04:55.959Z</time></trkpt><trkpt lat="43.9986452" lon="11.3500186"><ele>271.8</ele><time>2026-04-12T10:04:56.959Z</time></trkpt><trkpt lat="43.9985974" lon="11.3498842"><ele>271.0</ele><time>2026-04-12T10:04:57.959Z</time></trkpt><trkpt lat="43.9985678" lon="11.3497408"><ele>269.6</ele><time>2026-04-12T10:04:58.96Z</time></trkpt><trkpt lat="43.9985654" lon="11.3496004"><ele>268.20000000000005</ele><time>2026-04-12T10:04:59.959Z</time></trkpt><trkpt lat="43.998595" lon="11.3494698"><ele>266.79999999999995</ele><time>2026-04-12T10:05:00.959Z</time></trkpt><trkpt lat="43.9986353" lon="11.3493424"><ele>265.4</ele><time>2026-04-12T10:05:01.96Z</time></trkpt><trkpt lat="43.9986901" lon="11.349226"><ele>264.0</ele><time>2026-04-12T10:05:02.96Z</time></trkpt><trkpt lat="43.9987668" lon="11.3491134"><ele>264.0</ele><time>2026-04-12T10:05:03.959Z</time></trkpt><trkpt lat="43.9988695" lon="11.3490164"><ele>264.0</ele><time>2026-04-12T10:05:04.959Z</time></trkpt><trkpt lat="43.9989847" lon="11.3489334"><ele>264.0</ele><time>2026-04-12T10:05:05.96Z</time></trkpt><trkpt lat="43.999104" lon="11.3488296"><ele>264.0</ele><time>2026-04-12T10:05:06.959Z</time></trkpt><trkpt lat="43.9992093" lon="11.3486719"><ele>261.0</ele><time>2026-04-12T10:05:07.959Z</time></trkpt><trkpt lat="43.999316" lon="11.3484571"><ele>258.0</ele><time>2026-04-12T10:05:08.959Z</time></trkpt><trkpt lat="43.9994229" lon="11.3482099"><ele>255.0</ele><time>2026-04-12T10:05:09.959Z</time></trkpt><trkpt lat="43.9995264" lon="11.3480043"><ele>254.0</ele><time>2026-04-12T10:05:10.959Z</time></trkpt><trkpt lat="43.9996093" lon="11.3478254"><ele>253.0</ele><time>2026-04-12T10:05:11.96Z</time></trkpt><trkpt lat="43.999678" lon="11.3476519"><ele>252.0</ele><time>2026-04-12T10:05:12.96Z</time></trkpt><trkpt lat="43.9997103" lon="11.3474684"><ele>251.0</ele><time>2026-04-12T10:05:13.959Z</time></trkpt><trkpt lat="43.9997131" lon="11.3472837"><ele>252.4</ele><time>2026-04-12T10:05:14.959Z</time></trkpt><trkpt lat="43.9997092" lon="11.3471251"><ele>253.8</ele><time>2026-04-12T10:05:15.959Z</time></trkpt><trkpt lat="43.9997256" lon="11.3469859"><ele>255.20000000000002</ele><time>2026-04-12T10:05:16.959Z</time></trkpt><trkpt lat="43.9997862" lon="11.3468943"><ele>256.6</ele><time>2026-04-12T10:05:17.959Z</time></trkpt><trkpt lat="43.9998827" lon="11.3468358"><ele>258.0</ele><time>2026-04-12T10:05:18.96Z</time></trkpt><trkpt lat="44.0000104" lon="11.3468197"><ele>258.0</ele><time>2026-04-12T10:05:19.959Z</time></trkpt><trkpt lat="44.0001588" lon="11.3468388"><ele>258.0</ele><time>2026-04-12T10:05:20.959Z</time></trkpt><trkpt lat="44.0003187" lon="11.3468654"><ele>258.0</ele><time>2026-04-12T10:05:21.96Z</time></trkpt><trkpt lat="44.0004791" lon="11.3468899"><ele>258.0</ele><time>2026-04-12T10:05:22.959Z</time></trkpt><trkpt lat="44.0006466" lon="11.3469088"><ele>258.0</ele><time>2026-04-12T10:05:23.959Z</time></trkpt><trkpt lat="44.0008196" lon="11.3469304"><ele>258.0</ele><time>2026-04-12T10:05:24.959Z</time></trkpt><trkpt lat="44.0009983" lon="11.3469526"><ele>259.6666666666667</ele><time>2026-04-12T10:05:25.959Z</time></trkpt><trkpt lat="44.0011763" lon="11.3469616"><ele>261.33333333333337</ele><time>2026-04-12T10:05:26.959Z</time></trkpt><trkpt lat="44.0013591" lon="11.3469627"><ele>263.0</ele><time>2026-04-12T10:05:27.959Z</time></trkpt><trkpt lat="44.0015444" lon="11.3469371"><ele>264.6666666666667</ele><time>2026-04-12T10:05:28.959Z</time></trkpt><trkpt lat="44.0017277" lon="11.3468966"><ele>266.3333333333333</ele><time>2026-04-12T10:05:29.959Z</time></trkpt><trkpt lat="44.0019156" lon="11.3468502"><ele>268.0</ele><time>2026-04-12T10:05:30.959Z</time></trkpt><trkpt lat="44.0021131" lon="11.3468163"><ele>268.0</ele><time>2026-04-12T10:05:31.959Z</time></trkpt><trkpt lat="44.0023108" lon="11.346801"><ele>268.0</ele><time>2026-04-12T10:05:32.959Z</time></trkpt><trkpt lat="44.0025071" lon="11.3468073"><ele>268.0</ele><time>2026-04-12T10:05:33.959Z</time></trkpt><trkpt lat="44.0026964" lon="11.3468276"><ele>269.0</ele><time>2026-04-12T10:05:34.959Z</time></trkpt><trkpt lat="44.0028714" lon="11.346849"><ele>270.0</ele><time>2026-04-12T10:05:35.959Z</time></trkpt><trkpt lat="44.0030287" lon="11.3468301"><ele>271.0</ele><time>2026-04-12T10:05:36.959Z</time></trkpt><trkpt lat="44.0031743" lon="11.3467732"><ele>271.0</ele><time>2026-04-12T10:05:37.959Z</time></trkpt><trkpt lat="44.0033115" lon="11.3466557"><ele>271.0</ele><time>2026-04-12T10:05:38.96Z</time></trkpt><trkpt lat="44.0034324" lon="11.3464698"><ele>271.0</ele><time>2026-04-12T10:05:39.96Z</time></trkpt><trkpt lat="44.0035251" lon="11.3462403"><ele>272.3333333333333</ele><time>2026-04-12T10:05:40.959Z</time></trkpt><trkpt lat="44.0036013" lon="11.3459525"><ele>273.6666666666667</ele><time>2026-04-12T10:05:41.959Z</time></trkpt><trkpt lat="44.0036699" lon="11.3456971"><ele>275.0</ele><time>2026-04-12T10:05:42.959Z</time></trkpt><trkpt lat="44.0037553" lon="11.345496"><ele>276.33333333333337</ele><time>2026-04-12T10:05:43.96Z</time></trkpt><trkpt lat="44.0038549" lon="11.3453191"><ele>277.6666666666667</ele><time>2026-04-12T10:05:44.959Z</time></trkpt><trkpt lat="44.0039781" lon="11.345199"><ele>279.0</ele><time>2026-04-12T10:05:45.96Z</time></trkpt><trkpt lat="44.0041218" lon="11.3451313"><ele>279.6666666666667</ele><time>2026-04-12T10:05:46.96Z</time></trkpt><trkpt lat="44.0042901" lon="11.3450984"><ele>280.33333333333337</ele><time>2026-04-12T10:05:47.959Z</time></trkpt><trkpt lat="44.0044845" lon="11.3450725"><ele>281.0</ele><time>2026-04-12T10:05:48.959Z</time></trkpt><trkpt lat="44.0046823" lon="11.3450412"><ele>281.0</ele><time>2026-04-12T10:05:49.96Z</time></trkpt><trkpt lat="44.0048752" lon="11.3449768"><ele>281.0</ele><time>2026-04-12T10:05:50.959Z</time></trkpt><trkpt lat="44.0050693" lon="11.3448711"><ele>281.0</ele><time>2026-04-12T10:05:51.959Z</time></trkpt><trkpt lat="44.0052521" lon="11.3447336"><ele>282.0</ele><time>2026-04-12T10:05:52.959Z</time></trkpt><trkpt lat="44.0054174" lon="11.3445867"><ele>283.0</ele><time>2026-04-12T10:05:53.959Z</time></trkpt><trkpt lat="44.0055683" lon="11.3444487"><ele>284.0</ele><time>2026-04-12T10:05:54.96Z</time></trkpt><trkpt lat="44.005701" lon="11.3443231"><ele>285.0</ele><time>2026-04-12T10:05:55.959Z</time></trkpt><trkpt lat="44.0058363" lon="11.3441912"><ele>286.0</ele><time>2026-04-12T10:05:56.959Z</time></trkpt><trkpt lat="44.0059747" lon="11.3440487"><ele>287.0</ele><time>2026-04-12T10:05:57.959Z</time></trkpt><trkpt lat="44.0061187" lon="11.343867"><ele>287.0</ele><time>2026-04-12T10:05:58.959Z</time></trkpt><trkpt lat="44.006275" lon="11.3436651"><ele>287.0</ele><time>2026-04-12T10:05:59.959Z</time></trkpt><trkpt lat="44.0064398" lon="11.3434749"><ele>287.0</ele><time>2026-04-12T10:06:00.96Z</time></trkpt><trkpt lat="44.0066139" lon="11.3432807"><ele>287.33333333333337</ele><time>2026-04-12T10:06:01.959Z</time></trkpt><trkpt lat="44.0067824" lon="11.3430952"><ele>287.6666666666667</ele><time>2026-04-12T10:06:02.959Z</time></trkpt><trkpt lat="44.0069379" lon="11.3429238"><ele>288.0</ele><time>2026-04-12T10:06:03.959Z</time></trkpt><trkpt lat="44.0070931" lon="11.3427538"><ele>288.0</ele><time>2026-04-12T10:06:04.959Z</time></trkpt><trkpt lat="44.0072502" lon="11.3425735"><ele>288.0</ele><time>2026-04-12T10:06:05.959Z</time></trkpt><trkpt lat="44.0074167" lon="11.3423831"><ele>288.0</ele><time>2026-04-12T10:06:06.959Z</time></trkpt><trkpt lat="44.0075754" lon="11.3422009"><ele>289.3333333333333</ele><time>2026-04-12T10:06:07.959Z</time></trkpt><trkpt lat="44.0077327" lon="11.3420181"><ele>290.66666666666663</ele><time>2026-04-12T10:06:08.959Z</time></trkpt><trkpt lat="44.007889" lon="11.3418412"><ele>292.0</ele><time>2026-04-12T10:06:09.959Z</time></trkpt><trkpt lat="44.0080349" lon="11.3416511"><ele>292.0</ele><time>2026-04-12T10:06:10.959Z</time></trkpt><trkpt lat="44.0081661" lon="11.3414485"><ele>292.0</ele><time>2026-04-12T10:06:11.959Z</time></trkpt><trkpt lat="44.0083007" lon="11.341247"><ele>292.0</ele><time>2026-04-12T10:06:12.959Z</time></trkpt><trkpt lat="44.0084498" lon="11.34106"><ele>293.3333333333333</ele><time>2026-04-12T10:06:13.959Z</time></trkpt><trkpt lat="44.0086215" lon="11.34089"><ele>294.6666666666667</ele><time>2026-04-12T10:06:14.959Z</time></trkpt><trkpt lat="44.008812" lon="11.3407281"><ele>296.0</ele><time>2026-04-12T10:06:15.959Z</time></trkpt><trkpt lat="44.0090137" lon="11.340579"><ele>298.0</ele><time>2026-04-12T10:06:16.959Z</time></trkpt><trkpt lat="44.0092197" lon="11.3404381"><ele>300.0</ele><time>2026-04-12T10:06:17.959Z</time></trkpt><trkpt lat="44.0094234" lon="11.3403054"><ele>300.0</ele><time>2026-04-12T10:06:18.959Z</time></trkpt><trkpt lat="44.0096257" lon="11.3401664"><ele>300.0</ele><time>2026-04-12T10:06:19.96Z</time></trkpt><trkpt lat="44.00982" lon="11.3400371"><ele>300.0</ele><time>2026-04-12T10:06:20.959Z</time></trkpt><trkpt lat="44.0100135" lon="11.339912"><ele>299.6666666666667</ele><time>2026-04-12T10:06:21.96Z</time></trkpt><trkpt lat="44.0102076" lon="11.3397821"><ele>299.33333333333337</ele><time>2026-04-12T10:06:22.959Z</time></trkpt><trkpt lat="44.0104049" lon="11.3396489"><ele>299.0</ele><time>2026-04-12T10:06:23.959Z</time></trkpt><trkpt lat="44.0106078" lon="11.3395053"><ele>300.5</ele><time>2026-04-12T10:06:24.96Z</time></trkpt><trkpt lat="44.0108045" lon="11.3393416"><ele>302.0</ele><time>2026-04-12T10:06:25.959Z</time></trkpt><trkpt lat="44.0110091" lon="11.339156"><ele>302.5</ele><time>2026-04-12T10:06:26.959Z</time></trkpt><trkpt lat="44.011212" lon="11.3389719"><ele>303.0</ele><time>2026-04-12T10:06:27.959Z</time></trkpt><trkpt lat="44.0114046" lon="11.33878"><ele>304.0</ele><time>2026-04-12T10:06:28.959Z</time></trkpt><trkpt lat="44.0115994" lon="11.3386016"><ele>305.0</ele><time>2026-04-12T10:06:29.96Z</time></trkpt><trkpt lat="44.0117862" lon="11.3384256"><ele>305.0</ele><time>2026-04-12T10:06:30.96Z</time></trkpt><trkpt lat="44.0119675" lon="11.3382767"><ele>305.0</ele><time>2026-04-12T10:06:31.961Z</time></trkpt><trkpt lat="44.0121531" lon="11.3381597"><ele>305.0</ele><time>2026-04-12T10:06:32.961Z</time></trkpt><trkpt lat="44.0123545" lon="11.3380864"><ele>306.0</ele><time>2026-04-12T10:06:33.96Z</time></trkpt><trkpt lat="44.0125598" lon="11.3380314"><ele>307.0</ele><time>2026-04-12T10:06:34.96Z</time></trkpt><trkpt lat="44.0127634" lon="11.3379754"><ele>308.0</ele><time>2026-04-12T10:06:35.96Z</time></trkpt><trkpt lat="44.0129658" lon="11.3378935"><ele>308.0</ele><time>2026-04-12T10:06:36.96Z</time></trkpt><trkpt lat="44.0131626" lon="11.3377773"><ele>308.0</ele><time>2026-04-12T10:06:37.96Z</time></trkpt><trkpt lat="44.0133542" lon="11.3376402"><ele>308.0</ele><time>2026-04-12T10:06:38.96Z</time></trkpt><trkpt lat="44.0135369" lon="11.3374929"><ele>309.6666666666667</ele><time>2026-04-12T10:06:39.96Z</time></trkpt><trkpt lat="44.0137197" lon="11.3373281"><ele>311.3333333333333</ele><time>2026-04-12T10:06:40.96Z</time></trkpt><trkpt lat="44.0138892" lon="11.3371603"><ele>313.0</ele><time>2026-04-12T10:06:41.96Z</time></trkpt><trkpt lat="44.014061" lon="11.3369748"><ele>314.0</ele><time>2026-04-12T10:06:42.96Z</time></trkpt><trkpt lat="44.0142283" lon="11.3367998"><ele>315.0</ele><time>2026-04-12T10:06:43.96Z</time></trkpt><trkpt lat="44.0143876" lon="11.3366267"><ele>316.0</ele><time>2026-04-12T10:06:44.96Z</time></trkpt><trkpt lat="44.0145322" lon="11.3364636"><ele>316.0</ele><time>2026-04-12T10:06:45.961Z</time></trkpt><trkpt lat="44.0146691" lon="11.3363101"><ele>316.0</ele><time>2026-04-12T10:06:46.961Z</time></trkpt><trkpt lat="44.0147974" lon="11.3361809"><ele>316.0</ele><time>2026-04-12T10:06:47.96Z</time></trkpt><trkpt lat="44.0149223" lon="11.3360714"><ele>317.0</ele><time>2026-04-12T10:06:48.96Z</time></trkpt><trkpt lat="44.015048" lon="11.3359792"><ele>318.0</ele><time>2026-04-12T10:06:49.96Z</time></trkpt><trkpt lat="44.0151693" lon="11.3358969"><ele>319.0</ele><time>2026-04-12T10:06:50.96Z</time></trkpt><trkpt lat="44.0152942" lon="11.3358274"><ele>320.0</ele><time>2026-04-12T10:06:51.96Z</time></trkpt><trkpt lat="44.0154189" lon="11.335764"><ele>320.0</ele><time>2026-04-12T10:06:52.961Z</time></trkpt><trkpt lat="44.0155426" lon="11.3356897"><ele>320.0</ele><time>2026-04-12T10:06:53.96Z</time></trkpt><trkpt lat="44.0156589" lon="11.3356075"><ele>320.0</ele><time>2026-04-12T10:06:54.96Z</time></trkpt><trkpt lat="44.0157648" lon="11.3355201"><ele>320.0</ele><time>2026-04-12T10:06:55.96Z</time></trkpt><trkpt lat="44.0158645" lon="11.3354323"><ele>320.8</ele><time>2026-04-12T10:06:56.961Z</time></trkpt><trkpt lat="44.0159553" lon="11.3353422"><ele>321.6</ele><time>2026-04-12T10:06:57.96Z</time></trkpt><trkpt lat="44.0160406" lon="11.3352563"><ele>322.4</ele><time>2026-04-12T10:06:58.96Z</time></trkpt><trkpt lat="44.0161169" lon="11.3351641"><ele>323.2</ele><time>2026-04-12T10:06:59.96Z</time></trkpt><trkpt lat="44.0161926" lon="11.3350789"><ele>324.0</ele><time>2026-04-12T10:07:00.96Z</time></trkpt><trkpt lat="44.0162744" lon="11.334995"><ele>324.0</ele><time>2026-04-12T10:07:01.96Z</time></trkpt><trkpt lat="44.0163515" lon="11.3349056"><ele>324.0</ele><time>2026-04-12T10:07:02.96Z</time></trkpt><trkpt lat="44.0164473" lon="11.3348185"><ele>324.0</ele><time>2026-04-12T10:07:03.961Z</time></trkpt><trkpt lat="44.0165484" lon="11.3347203"><ele>324.0</ele><time>2026-04-12T10:07:04.96Z</time></trkpt><trkpt lat="44.0166792" lon="11.3346501"><ele>324.25</ele><time>2026-04-12T10:07:05.961Z</time></trkpt><trkpt lat="44.0168102" lon="11.3345969"><ele>324.5</ele><time>2026-04-12T10:07:06.96Z</time></trkpt><trkpt lat="44.016929" lon="11.3345587"><ele>324.75</ele><time>2026-04-12T10:07:07.96Z</time></trkpt><trkpt lat="44.017059" lon="11.3345236"><ele>325.0</ele><time>2026-04-12T10:07:08.96Z</time></trkpt><trkpt lat="44.0172009" lon="11.3344656"><ele>325.0</ele><time>2026-04-12T10:07:09.96Z</time></trkpt><trkpt lat="44.0173501" lon="11.3344155"><ele>325.0</ele><time>2026-04-12T10:07:10.96Z</time></trkpt><trkpt lat="44.0175022" lon="11.3343752"><ele>325.0</ele><time>2026-04-12T10:07:11.96Z</time></trkpt><trkpt lat="44.017658" lon="11.3343576"><ele>326.0</ele><time>2026-04-12T10:07:12.961Z</time></trkpt><trkpt lat="44.0178277" lon="11.3343902"><ele>327.0</ele><time>2026-04-12T10:07:13.96Z</time></trkpt><trkpt lat="44.0179817" lon="11.3344243"><ele>328.0</ele><time>2026-04-12T10:07:14.961Z</time></trkpt><trkpt lat="44.0181324" lon="11.3344571"><ele>328.0</ele><time>2026-04-12T10:07:15.96Z</time></trkpt><trkpt lat="44.0182664" lon="11.3344736"><ele>328.0</ele><time>2026-04-12T10:07:16.96Z</time></trkpt><trkpt lat="44.0184018" lon="11.3344779"><ele>328.0</ele><time>2026-04-12T10:07:17.96Z</time></trkpt><trkpt lat="44.0185381" lon="11.3344689"><ele>328.0</ele><time>2026-04-12T10:07:18.96Z</time></trkpt><trkpt lat="44.0186694" lon="11.3344565"><ele>328.75</ele><time>2026-04-12T10:07:19.96Z</time></trkpt><trkpt lat="44.0187949" lon="11.3344367"><ele>329.5</ele><time>2026-04-12T10:07:20.96Z</time></trkpt><trkpt lat="44.0189186" lon="11.334414"><ele>330.25</ele><time>2026-04-12T10:07:21.96Z</time></trkpt><trkpt lat="44.0190444" lon="11.334391"><ele>331.0</ele><time>2026-04-12T10:07:22.96Z</time></trkpt><trkpt lat="44.0191705" lon="11.3343691"><ele>331.8</ele><time>2026-04-12T10:07:23.96Z</time></trkpt><trkpt lat="44.0192897" lon="11.334349"><ele>332.6</ele><time>2026-04-12T10:07:24.96Z</time></trkpt><trkpt lat="44.019402" lon="11.3343325"><ele>333.4</ele><time>2026-04-12T10:07:25.961Z</time></trkpt><trkpt lat="44.0194968" lon="11.3343171"><ele>334.2</ele><time>2026-04-12T10:07:26.96Z</time></trkpt><trkpt lat="44.0195798" lon="11.3343087"><ele>335.0</ele><time>2026-04-12T10:07:27.961Z</time></trkpt><trkpt lat="44.0196545" lon="11.3343044"><ele>335.0</ele><time>2026-04-12T10:07:28.961Z</time></trkpt><trkpt lat="44.0197198" lon="11.3343031"><ele>335.0</ele><time>2026-04-12T10:07:29.961Z</time></trkpt><trkpt lat="44.0198194" lon="11.3342612"><ele>335.0</ele><time>2026-04-12T10:07:31.96Z</time></trkpt><trkpt lat="44.0198554" lon="11.3341888"><ele>335.0</ele><time>2026-04-12T10:07:32.96Z</time></trkpt><trkpt lat="44.0198917" lon="11.3340917"><ele>335.0</ele><time>2026-04-12T10:07:33.96Z</time></trkpt><trkpt lat="44.0199233" lon="11.3339674"><ele>335.0</ele><time>2026-04-12T10:07:34.961Z</time></trkpt><trkpt lat="44.0199517" lon="11.3338251"><ele>333.5</ele><time>2026-04-12T10:07:35.96Z</time></trkpt><trkpt lat="44.0199858" lon="11.3336741"><ele>332.0</ele><time>2026-04-12T10:07:36.96Z</time></trkpt><trkpt lat="44.0200362" lon="11.333524"><ele>330.5</ele><time>2026-04-12T10:07:37.961Z</time></trkpt><trkpt lat="44.0201025" lon="11.3333872"><ele>329.0</ele><time>2026-04-12T10:07:38.96Z</time></trkpt><trkpt lat="44.0201691" lon="11.3332539"><ele>329.0</ele><time>2026-04-12T10:07:39.96Z</time></trkpt><trkpt lat="44.0202212" lon="11.3331099"><ele>329.0</ele><time>2026-04-12T10:07:40.961Z</time></trkpt><trkpt lat="44.0202533" lon="11.3329571"><ele>329.0</ele><time>2026-04-12T10:07:41.96Z</time></trkpt><trkpt lat="44.0202641" lon="11.3328011"><ele>329.0</ele><time>2026-04-12T10:07:42.96Z</time></trkpt><trkpt lat="44.0202636" lon="11.3326522"><ele>328.0</ele><time>2026-04-12T10:07:43.96Z</time></trkpt><trkpt lat="44.0202664" lon="11.3325097"><ele>327.0</ele><time>2026-04-12T10:07:44.96Z</time></trkpt><trkpt lat="44.0202802" lon="11.3323927"><ele>326.0</ele><time>2026-04-12T10:07:45.96Z</time></trkpt><trkpt lat="44.0203224" lon="11.332306"><ele>325.0</ele><time>2026-04-12T10:07:46.96Z</time></trkpt><trkpt lat="44.0203709" lon="11.332227"><ele>324.0</ele><time>2026-04-12T10:07:47.961Z</time></trkpt><trkpt lat="44.0204052" lon="11.332141"><ele>323.0</ele><time>2026-04-12T10:07:48.96Z</time></trkpt><trkpt lat="44.0204046" lon="11.3320486"><ele>323.0</ele><time>2026-04-12T10:07:49.96Z</time></trkpt><trkpt lat="44.0203734" lon="11.3319338"><ele>323.0</ele><time>2026-04-12T10:07:50.96Z</time></trkpt><trkpt lat="44.0203186" lon="11.3317832"><ele>323.0</ele><time>2026-04-12T10:07:51.96Z</time></trkpt><trkpt lat="44.0202584" lon="11.3315995"><ele>323.0</ele><time>2026-04-12T10:07:52.961Z</time></trkpt><trkpt lat="44.0202008" lon="11.3314015"><ele>324.75</ele><time>2026-04-12T10:07:53.961Z</time></trkpt><trkpt lat="44.0201478" lon="11.331209"><ele>326.5</ele><time>2026-04-12T10:07:54.961Z</time></trkpt><trkpt lat="44.0200974" lon="11.3310227"><ele>328.25</ele><time>2026-04-12T10:07:55.96Z</time></trkpt><trkpt lat="44.0200484" lon="11.3308391"><ele>330.0</ele><time>2026-04-12T10:07:56.96Z</time></trkpt><trkpt lat="44.0199993" lon="11.3306579"><ele>330.0</ele><time>2026-04-12T10:07:57.961Z</time></trkpt><trkpt lat="44.0199566" lon="11.3304853"><ele>330.0</ele><time>2026-04-12T10:07:58.96Z</time></trkpt><trkpt lat="44.0199192" lon="11.3303313"><ele>330.0</ele><time>2026-04-12T10:07:59.961Z</time></trkpt><trkpt lat="44.0198939" lon="11.3302016"><ele>330.0</ele><time>2026-04-12T10:08:00.961Z</time></trkpt><trkpt lat="44.019893" lon="11.3300874"><ele>330.0</ele><time>2026-04-12T10:08:01.96Z</time></trkpt><trkpt lat="44.0199212" lon="11.3299835"><ele>330.0</ele><time>2026-04-12T10:08:02.96Z</time></trkpt><trkpt lat="44.0199813" lon="11.3299035"><ele>330.0</ele><time>2026-04-12T10:08:03.96Z</time></trkpt><trkpt lat="44.0200761" lon="11.3298524"><ele>330.0</ele><time>2026-04-12T10:08:04.96Z</time></trkpt><trkpt lat="44.0202036" lon="11.329832"><ele>330.0</ele><time>2026-04-12T10:08:05.96Z</time></trkpt><trkpt lat="44.0203372" lon="11.32983"><ele>330.0</ele><time>2026-04-12T10:08:06.96Z</time></trkpt><trkpt lat="44.0204529" lon="11.3298176"><ele>332.5</ele><time>2026-04-12T10:08:07.96Z</time></trkpt><trkpt lat="44.0205516" lon="11.3297872"><ele>335.0</ele><time>2026-04-12T10:08:08.96Z</time></trkpt><trkpt lat="44.0206469" lon="11.3297252"><ele>337.5</ele><time>2026-04-12T10:08:09.96Z</time></trkpt><trkpt lat="44.0207408" lon="11.3296306"><ele>340.0</ele><time>2026-04-12T10:08:10.96Z</time></trkpt><trkpt lat="44.0208322" lon="11.3295006"><ele>343.3333333333333</ele><time>2026-04-12T10:08:11.961Z</time></trkpt><trkpt lat="44.0209234" lon="11.3293556"><ele>346.6666666666667</ele><time>2026-04-12T10:08:12.96Z</time></trkpt><trkpt lat="44.0210055" lon="11.3291622"><ele>350.0</ele><time>2026-04-12T10:08:13.96Z</time></trkpt><trkpt lat="44.0210785" lon="11.3289534"><ele>350.0</ele><time>2026-04-12T10:08:14.96Z</time></trkpt><trkpt lat="44.021138" lon="11.3287378"><ele>350.0</ele><time>2026-04-12T10:08:15.96Z</time></trkpt><trkpt lat="44.0211807" lon="11.3285144"><ele>350.0</ele><time>2026-04-12T10:08:16.96Z</time></trkpt><trkpt lat="44.0212073" lon="11.3282844"><ele>350.6666666666667</ele><time>2026-04-12T10:08:17.961Z</time></trkpt><trkpt lat="44.0212153" lon="11.3280465"><ele>351.3333333333333</ele><time>2026-04-12T10:08:18.961Z</time></trkpt><trkpt lat="44.0212079" lon="11.3278116"><ele>352.0</ele><time>2026-04-12T10:08:19.961Z</time></trkpt><trkpt lat="44.0211931" lon="11.3275925"><ele>352.0</ele><time>2026-04-12T10:08:20.96Z</time></trkpt><trkpt lat="44.0211651" lon="11.3273939"><ele>352.0</ele><time>2026-04-12T10:08:21.96Z</time></trkpt><trkpt lat="44.0211104" lon="11.3272179"><ele>352.0</ele><time>2026-04-12T10:08:22.96Z</time></trkpt><trkpt lat="44.0210198" lon="11.3270656"><ele>352.0</ele><time>2026-04-12T10:08:23.961Z</time></trkpt><trkpt lat="44.0208846" lon="11.32692"><ele>351.3333333333333</ele><time>2026-04-12T10:08:24.96Z</time></trkpt><trkpt lat="44.0207113" lon="11.3267693"><ele>350.6666666666667</ele><time>2026-04-12T10:08:25.96Z</time></trkpt><trkpt lat="44.0205268" lon="11.326615"><ele>350.0</ele><time>2026-04-12T10:08:26.96Z</time></trkpt><trkpt lat="44.0203468" lon="11.326463"><ele>349.33333333333337</ele><time>2026-04-12T10:08:27.961Z</time></trkpt><trkpt lat="44.0201786" lon="11.326307"><ele>348.6666666666667</ele><time>2026-04-12T10:08:28.961Z</time></trkpt><trkpt lat="44.0200173" lon="11.3261272"><ele>348.0</ele><time>2026-04-12T10:08:29.961Z</time></trkpt><trkpt lat="44.0198635" lon="11.3259251"><ele>348.0</ele><time>2026-04-12T10:08:30.962Z</time></trkpt><trkpt lat="44.0197146" lon="11.3257096"><ele>348.0</ele><time>2026-04-12T10:08:31.961Z</time></trkpt><trkpt lat="44.0195693" lon="11.3254903"><ele>348.0</ele><time>2026-04-12T10:08:32.961Z</time></trkpt><trkpt lat="44.0194289" lon="11.3252755"><ele>343.3333333333333</ele><time>2026-04-12T10:08:33.961Z</time></trkpt><trkpt lat="44.019291" lon="11.3250681"><ele>338.66666666666663</ele><time>2026-04-12T10:08:34.961Z</time></trkpt><trkpt lat="44.0191572" lon="11.324868"><ele>334.0</ele><time>2026-04-12T10:08:35.961Z</time></trkpt><trkpt lat="44.0190303" lon="11.3246761"><ele>333.3333333333333</ele><time>2026-04-12T10:08:36.961Z</time></trkpt><trkpt lat="44.0189154" lon="11.3245042"><ele>332.6666666666667</ele><time>2026-04-12T10:08:37.961Z</time></trkpt><trkpt lat="44.0188099" lon="11.3243468"><ele>332.0</ele><time>2026-04-12T10:08:38.961Z</time></trkpt><trkpt lat="44.0187134" lon="11.3242034"><ele>332.0</ele><time>2026-04-12T10:08:39.961Z</time></trkpt><trkpt lat="44.018617" lon="11.3240639"><ele>332.0</ele><time>2026-04-12T10:08:40.962Z</time></trkpt><trkpt lat="44.0185333" lon="11.3239283"><ele>332.0</ele><time>2026-04-12T10:08:41.961Z</time></trkpt><trkpt lat="44.018465" lon="11.3237868"><ele>332.0</ele><time>2026-04-12T10:08:42.961Z</time></trkpt><trkpt lat="44.0184149" lon="11.3236367"><ele>330.20000000000005</ele><time>2026-04-12T10:08:43.961Z</time></trkpt><trkpt lat="44.0183826" lon="11.3234934"><ele>328.4</ele><time>2026-04-12T10:08:44.961Z</time></trkpt><trkpt lat="44.0183641" lon="11.3233681"><ele>326.6</ele><time>2026-04-12T10:08:45.961Z</time></trkpt><trkpt lat="44.018353" lon="11.323258"><ele>324.79999999999995</ele><time>2026-04-12T10:08:46.961Z</time></trkpt><trkpt lat="44.0183405" lon="11.323113"><ele>323.0</ele><time>2026-04-12T10:08:48.961Z</time></trkpt><trkpt lat="44.0183233" lon="11.3230044"><ele>320.75</ele><time>2026-04-12T10:08:51.961Z</time></trkpt><trkpt lat="44.0182953" lon="11.3227306"><ele>318.5</ele><time>2026-04-12T10:10:19.962Z</time></trkpt><trkpt lat="44.0182783" lon="11.3225975"><ele>316.25</ele><time>2026-04-12T10:10:20.961Z</time></trkpt><trkpt lat="44.0182645" lon="11.3224618"><ele>314.0</ele><time>2026-04-12T10:10:21.961Z</time></trkpt><trkpt lat="44.0182582" lon="11.3223115"><ele>313.5</ele><time>2026-04-12T10:10:22.962Z</time></trkpt><trkpt lat="44.0182672" lon="11.3221337"><ele>313.0</ele><time>2026-04-12T10:10:23.962Z</time></trkpt><trkpt lat="44.0182966" lon="11.3219401"><ele>312.5</ele><time>2026-04-12T10:10:24.963Z</time></trkpt><trkpt lat="44.0183396" lon="11.3217493"><ele>312.0</ele><time>2026-04-12T10:10:25.962Z</time></trkpt><trkpt lat="44.0183874" lon="11.3215622"><ele>315.0</ele><time>2026-04-12T10:10:26.962Z</time></trkpt><trkpt lat="44.0184341" lon="11.321383"><ele>318.0</ele><time>2026-04-12T10:10:27.962Z</time></trkpt><trkpt lat="44.0184646" lon="11.3212133"><ele>321.0</ele><time>2026-04-12T10:10:28.962Z</time></trkpt><trkpt lat="44.0184658" lon="11.3210373"><ele>324.0</ele><time>2026-04-12T10:10:29.963Z</time></trkpt><trkpt lat="44.0184297" lon="11.3208474"><ele>324.0</ele><time>2026-04-12T10:10:30.962Z</time></trkpt><trkpt lat="44.0183541" lon="11.320652"><ele>324.0</ele><time>2026-04-12T10:10:31.962Z</time></trkpt><trkpt lat="44.0182554" lon="11.3204577"><ele>324.0</ele><time>2026-04-12T10:10:32.963Z</time></trkpt><trkpt lat="44.0181557" lon="11.320259"><ele>324.0</ele><time>2026-04-12T10:10:33.962Z</time></trkpt><trkpt lat="44.0180701" lon="11.3200501"><ele>324.0</ele><time>2026-04-12T10:10:34.962Z</time></trkpt><trkpt lat="44.0179987" lon="11.3198243"><ele>324.0</ele><time>2026-04-12T10:10:35.963Z</time></trkpt><trkpt lat="44.0179365" lon="11.3195841"><ele>324.0</ele><time>2026-04-12T10:10:36.962Z</time></trkpt><trkpt lat="44.0178813" lon="11.3193483"><ele>324.0</ele><time>2026-04-12T10:10:37.962Z</time></trkpt><trkpt lat="44.0178331" lon="11.3191287"><ele>324.0</ele><time>2026-04-12T10:10:38.962Z</time></trkpt><trkpt lat="44.0177941" lon="11.3189241"><ele>324.75</ele><time>2026-04-12T10:10:39.962Z</time></trkpt><trkpt lat="44.0177699" lon="11.3187328"><ele>325.5</ele><time>2026-04-12T10:10:40.962Z</time></trkpt><trkpt lat="44.0177693" lon="11.3185552"><ele>326.25</ele><time>2026-04-12T10:10:41.962Z</time></trkpt><trkpt lat="44.0177976" lon="11.3183956"><ele>327.0</ele><time>2026-04-12T10:10:42.963Z</time></trkpt><trkpt lat="44.0178557" lon="11.3182631"><ele>327.0</ele><time>2026-04-12T10:10:43.962Z</time></trkpt><trkpt lat="44.0179275" lon="11.3181524"><ele>327.0</ele><time>2026-04-12T10:10:44.962Z</time></trkpt><trkpt lat="44.0180397" lon="11.3180908"><ele>327.0</ele><time>2026-04-12T10:10:45.962Z</time></trkpt><trkpt lat="44.018185" lon="11.3180781"><ele>327.0</ele><time>2026-04-12T10:10:46.962Z</time></trkpt><trkpt lat="44.0183656" lon="11.3181378"><ele>327.3333333333333</ele><time>2026-04-12T10:10:47.962Z</time></trkpt><trkpt lat="44.0185497" lon="11.3182001"><ele>327.66666666666663</ele><time>2026-04-12T10:10:48.962Z</time></trkpt><trkpt lat="44.0187396" lon="11.3182649"><ele>328.0</ele><time>2026-04-12T10:10:49.962Z</time></trkpt><trkpt lat="44.0189304" lon="11.3183376"><ele>328.0</ele><time>2026-04-12T10:10:50.962Z</time></trkpt><trkpt lat="44.0191176" lon="11.3184126"><ele>328.0</ele><time>2026-04-12T10:10:51.962Z</time></trkpt><trkpt lat="44.0192956" lon="11.3184845"><ele>328.0</ele><time>2026-04-12T10:10:52.962Z</time></trkpt><trkpt lat="44.0194605" lon="11.3185481"><ele>326.0</ele><time>2026-04-12T10:10:53.964Z</time></trkpt><trkpt lat="44.0196111" lon="11.3186009"><ele>324.0</ele><time>2026-04-12T10:10:54.962Z</time></trkpt><trkpt lat="44.0197531" lon="11.3186271"><ele>322.0</ele><time>2026-04-12T10:10:55.962Z</time></trkpt><trkpt lat="44.0198854" lon="11.3186067"><ele>320.0</ele><time>2026-04-12T10:10:56.962Z</time></trkpt><trkpt lat="44.0200016" lon="11.3185344"><ele>319.0</ele><time>2026-04-12T10:10:57.962Z</time></trkpt><trkpt lat="44.0200994" lon="11.3184155"><ele>318.0</ele><time>2026-04-12T10:10:58.962Z</time></trkpt><trkpt lat="44.0201742" lon="11.3182439"><ele>317.0</ele><time>2026-04-12T10:10:59.962Z</time></trkpt><trkpt lat="44.0202326" lon="11.3180117"><ele>317.33333333333337</ele><time>2026-04-12T10:11:00.963Z</time></trkpt><trkpt lat="44.0202852" lon="11.3177414"><ele>317.6666666666667</ele><time>2026-04-12T10:11:01.962Z</time></trkpt><trkpt lat="44.0203368" lon="11.317473"><ele>318.0</ele><time>2026-04-12T10:11:02.962Z</time></trkpt><trkpt lat="44.02039" lon="11.3172169"><ele>318.0</ele><time>2026-04-12T10:11:03.962Z</time></trkpt><trkpt lat="44.0204547" lon="11.3169765"><ele>318.0</ele><time>2026-04-12T10:11:04.963Z</time></trkpt><trkpt lat="44.0205414" lon="11.3167484"><ele>318.0</ele><time>2026-04-12T10:11:05.962Z</time></trkpt><trkpt lat="44.0206549" lon="11.3165248"><ele>320.3333333333333</ele><time>2026-04-12T10:11:06.962Z</time></trkpt><trkpt lat="44.0207863" lon="11.316304"><ele>322.66666666666663</ele><time>2026-04-12T10:11:07.962Z</time></trkpt><trkpt lat="44.0209049" lon="11.3160941"><ele>325.0</ele><time>2026-04-12T10:11:08.962Z</time></trkpt><trkpt lat="44.0210122" lon="11.3158962"><ele>324.66666666666663</ele><time>2026-04-12T10:11:09.963Z</time></trkpt><trkpt lat="44.0210632" lon="11.3157004"><ele>324.3333333333333</ele><time>2026-04-12T10:11:10.962Z</time></trkpt><trkpt lat="44.0210787" lon="11.3154886"><ele>324.0</ele><time>2026-04-12T10:11:11.963Z</time></trkpt><trkpt lat="44.0210781" lon="11.3152691"><ele>324.0</ele><time>2026-04-12T10:11:12.962Z</time></trkpt><trkpt lat="44.0210272" lon="11.3150426"><ele>324.0</ele><time>2026-04-12T10:11:13.962Z</time></trkpt><trkpt lat="44.0209261" lon="11.3148173"><ele>324.0</ele><time>2026-04-12T10:11:14.962Z</time></trkpt><trkpt lat="44.0207624" lon="11.3145851"><ele>317.5</ele><time>2026-04-12T10:11:15.962Z</time></trkpt><trkpt lat="44.0205752" lon="11.3143266"><ele>311.0</ele><time>2026-04-12T10:11:16.963Z</time></trkpt><trkpt lat="44.0203679" lon="11.314028"><ele>311.5</ele><time>2026-04-12T10:11:17.962Z</time></trkpt><trkpt lat="44.0201531" lon="11.3137094"><ele>312.0</ele><time>2026-04-12T10:11:18.963Z</time></trkpt><trkpt lat="44.0199446" lon="11.3133925"><ele>309.0</ele><time>2026-04-12T10:11:19.962Z</time></trkpt><trkpt lat="44.0197467" lon="11.3130928"><ele>306.0</ele><time>2026-04-12T10:11:20.963Z</time></trkpt><trkpt lat="44.0195596" lon="11.3128088"><ele>306.0</ele><time>2026-04-12T10:11:21.962Z</time></trkpt><trkpt lat="44.0193806" lon="11.3125353"><ele>306.0</ele><time>2026-04-12T10:11:22.962Z</time></trkpt><trkpt lat="44.019215" lon="11.3122843"><ele>305.3333333333333</ele><time>2026-04-12T10:11:23.962Z</time></trkpt><trkpt lat="44.0190683" lon="11.3120638"><ele>304.66666666666663</ele><time>2026-04-12T10:11:24.962Z</time></trkpt><trkpt lat="44.0189335" lon="11.3118528"><ele>304.0</ele><time>2026-04-12T10:11:25.962Z</time></trkpt><trkpt lat="44.0188302" lon="11.3116478"><ele>304.0</ele><time>2026-04-12T10:11:26.962Z</time></trkpt><trkpt lat="44.0187675" lon="11.3114268"><ele>304.0</ele><time>2026-04-12T10:11:27.962Z</time></trkpt><trkpt lat="44.0187387" lon="11.3111863"><ele>304.0</ele><time>2026-04-12T10:11:28.963Z</time></trkpt><trkpt lat="44.018728" lon="11.3109509"><ele>306.66666666666663</ele><time>2026-04-12T10:11:29.962Z</time></trkpt><trkpt lat="44.0187389" lon="11.3107035"><ele>309.3333333333333</ele><time>2026-04-12T10:11:30.963Z</time></trkpt><trkpt lat="44.0187405" lon="11.3104344"><ele>312.0</ele><time>2026-04-12T10:11:31.962Z</time></trkpt><trkpt lat="44.0187513" lon="11.3101714"><ele>315.3333333333333</ele><time>2026-04-12T10:11:32.962Z</time></trkpt><trkpt lat="44.018778" lon="11.309917"><ele>318.66666666666663</ele><time>2026-04-12T10:11:33.962Z</time></trkpt><trkpt lat="44.0188265" lon="11.3096626"><ele>322.0</ele><time>2026-04-12T10:11:34.962Z</time></trkpt><trkpt lat="44.0189011" lon="11.3093954"><ele>323.0</ele><time>2026-04-12T10:11:35.962Z</time></trkpt><trkpt lat="44.0189882" lon="11.3091261"><ele>324.0</ele><time>2026-04-12T10:11:36.962Z</time></trkpt><trkpt lat="44.019051" lon="11.3088624"><ele>325.0</ele><time>2026-04-12T10:11:37.962Z</time></trkpt><trkpt lat="44.0191041" lon="11.3085777"><ele>325.0</ele><time>2026-04-12T10:11:38.962Z</time></trkpt><trkpt lat="44.0191465" lon="11.3082645"><ele>325.0</ele><time>2026-04-12T10:11:39.962Z</time></trkpt><trkpt lat="44.0191815" lon="11.3079484"><ele>328.5</ele><time>2026-04-12T10:11:40.962Z</time></trkpt><trkpt lat="44.0192201" lon="11.307638"><ele>332.0</ele><time>2026-04-12T10:11:41.963Z</time></trkpt><trkpt lat="44.0192872" lon="11.3073318"><ele>330.5</ele><time>2026-04-12T10:11:42.962Z</time></trkpt><trkpt lat="44.0193862" lon="11.3070081"><ele>329.0</ele><time>2026-04-12T10:11:43.962Z</time></trkpt><trkpt lat="44.0195022" lon="11.3066575"><ele>326.0</ele><time>2026-04-12T10:11:44.962Z</time></trkpt><trkpt lat="44.0196166" lon="11.3062649"><ele>323.0</ele><time>2026-04-12T10:11:45.962Z</time></trkpt><trkpt lat="44.0197159" lon="11.3058592"><ele>318.5</ele><time>2026-04-12T10:11:46.962Z</time></trkpt><trkpt lat="44.0197957" lon="11.3054685"><ele>314.0</ele><time>2026-04-12T10:11:47.963Z</time></trkpt><trkpt lat="44.0198739" lon="11.3051111"><ele>314.0</ele><time>2026-04-12T10:11:48.962Z</time></trkpt><trkpt lat="44.019945" lon="11.3047803"><ele>314.0</ele><time>2026-04-12T10:11:49.962Z</time></trkpt><trkpt lat="44.0200062" lon="11.3044854"><ele>317.0</ele><time>2026-04-12T10:11:50.962Z</time></trkpt><trkpt lat="44.0200645" lon="11.3042287"><ele>320.0</ele><time>2026-04-12T10:11:51.963Z</time></trkpt><trkpt lat="44.0201175" lon="11.3039967"><ele>323.0</ele><time>2026-04-12T10:11:52.962Z</time></trkpt><trkpt lat="44.0201507" lon="11.3037791"><ele>323.0</ele><time>2026-04-12T10:11:53.963Z</time></trkpt><trkpt lat="44.0201482" lon="11.3035683"><ele>323.0</ele><time>2026-04-12T10:11:54.962Z</time></trkpt><trkpt lat="44.0201135" lon="11.3033761"><ele>323.0</ele><time>2026-04-12T10:11:55.962Z</time></trkpt><trkpt lat="44.0200384" lon="11.3032028"><ele>323.0</ele><time>2026-04-12T10:11:56.962Z</time></trkpt><trkpt lat="44.0199285" lon="11.3030903"><ele>321.33333333333337</ele><time>2026-04-12T10:11:57.963Z</time></trkpt><trkpt lat="44.0197681" lon="11.3030227"><ele>319.6666666666667</ele><time>2026-04-12T10:11:58.962Z</time></trkpt><trkpt lat="44.0195708" lon="11.3030033"><ele>318.0</ele><time>2026-04-12T10:11:59.962Z</time></trkpt><trkpt lat="44.0193544" lon="11.3029938"><ele>317.0</ele><time>2026-04-12T10:12:00.963Z</time></trkpt><trkpt lat="44.0191346" lon="11.302977"><ele>316.0</ele><time>2026-04-12T10:12:01.962Z</time></trkpt><trkpt lat="44.018924" lon="11.3029617"><ele>315.0</ele><time>2026-04-12T10:12:02.962Z</time></trkpt><trkpt lat="44.0187331" lon="11.3029419"><ele>315.0</ele><time>2026-04-12T10:12:03.962Z</time></trkpt><trkpt lat="44.018562" lon="11.3028894"><ele>315.0</ele><time>2026-04-12T10:12:04.962Z</time></trkpt><trkpt lat="44.0184056" lon="11.3027943"><ele>315.0</ele><time>2026-04-12T10:12:05.963Z</time></trkpt><trkpt lat="44.0182574" lon="11.3026691"><ele>313.6666666666667</ele><time>2026-04-12T10:12:06.962Z</time></trkpt><trkpt lat="44.0181249" lon="11.3025159"><ele>312.33333333333337</ele><time>2026-04-12T10:12:07.962Z</time></trkpt><trkpt lat="44.018019" lon="11.3023241"><ele>311.0</ele><time>2026-04-12T10:12:08.962Z</time></trkpt><trkpt lat="44.0179395" lon="11.3020955"><ele>310.0</ele><time>2026-04-12T10:12:09.962Z</time></trkpt><trkpt lat="44.0178781" lon="11.30183"><ele>309.0</ele><time>2026-04-12T10:12:10.962Z</time></trkpt><trkpt lat="44.0178261" lon="11.301536"><ele>308.0</ele><time>2026-04-12T10:12:11.962Z</time></trkpt><trkpt lat="44.0177743" lon="11.3012072"><ele>306.0</ele><time>2026-04-12T10:12:12.962Z</time></trkpt><trkpt lat="44.0177144" lon="11.3008632"><ele>304.0</ele><time>2026-04-12T10:12:13.964Z</time></trkpt><trkpt lat="44.0176539" lon="11.3005061"><ele>301.5</ele><time>2026-04-12T10:12:14.963Z</time></trkpt><trkpt lat="44.0175917" lon="11.300155"><ele>299.0</ele><time>2026-04-12T10:12:15.963Z</time></trkpt><trkpt lat="44.0175352" lon="11.2998213"><ele>294.5</ele><time>2026-04-12T10:12:16.963Z</time></trkpt><trkpt lat="44.0174819" lon="11.2995008"><ele>290.0</ele><time>2026-04-12T10:12:17.963Z</time></trkpt><trkpt lat="44.0174291" lon="11.2991867"><ele>291.6666666666667</ele><time>2026-04-12T10:12:18.963Z</time></trkpt><trkpt lat="44.0173763" lon="11.2988778"><ele>293.3333333333333</ele><time>2026-04-12T10:12:19.964Z</time></trkpt><trkpt lat="44.0173417" lon="11.2985768"><ele>295.0</ele><time>2026-04-12T10:12:20.964Z</time></trkpt><trkpt lat="44.0173412" lon="11.2982784"><ele>298.66666666666663</ele><time>2026-04-12T10:12:21.964Z</time></trkpt><trkpt lat="44.0173944" lon="11.2979778"><ele>302.3333333333333</ele><time>2026-04-12T10:12:22.964Z</time></trkpt><trkpt lat="44.0174805" lon="11.2976876"><ele>306.0</ele><time>2026-04-12T10:12:23.964Z</time></trkpt><trkpt lat="44.0175614" lon="11.2974426"><ele>307.75</ele><time>2026-04-12T10:12:24.964Z</time></trkpt><trkpt lat="44.0176211" lon="11.2972397"><ele>309.5</ele><time>2026-04-12T10:12:25.963Z</time></trkpt><trkpt lat="44.0176484" lon="11.2970474"><ele>311.25</ele><time>2026-04-12T10:12:26.963Z</time></trkpt><trkpt lat="44.0176402" lon="11.296843"><ele>313.0</ele><time>2026-04-12T10:12:27.963Z</time></trkpt><trkpt lat="44.0175869" lon="11.2966384"><ele>312.3333333333333</ele><time>2026-04-12T10:12:28.963Z</time></trkpt><trkpt lat="44.0174913" lon="11.2964182"><ele>311.6666666666667</ele><time>2026-04-12T10:12:29.963Z</time></trkpt><trkpt lat="44.0173763" lon="11.2961945"><ele>311.0</ele><time>2026-04-12T10:12:30.963Z</time></trkpt><trkpt lat="44.0172484" lon="11.2959843"><ele>311.0</ele><time>2026-04-12T10:12:31.963Z</time></trkpt><trkpt lat="44.0170967" lon="11.2957781"><ele>311.0</ele><time>2026-04-12T10:12:32.963Z</time></trkpt><trkpt lat="44.0169129" lon="11.295571"><ele>311.0</ele><time>2026-04-12T10:12:33.963Z</time></trkpt><trkpt lat="44.0167137" lon="11.2953665"><ele>307.5</ele><time>2026-04-12T10:12:34.963Z</time></trkpt><trkpt lat="44.0165211" lon="11.2951708"><ele>304.0</ele><time>2026-04-12T10:12:35.963Z</time></trkpt><trkpt lat="44.0163258" lon="11.2949733"><ele>304.0</ele><time>2026-04-12T10:12:36.963Z</time></trkpt><trkpt lat="44.01614" lon="11.2947799"><ele>304.0</ele><time>2026-04-12T10:12:37.963Z</time></trkpt><trkpt lat="44.0159529" lon="11.2945867"><ele>301.66666666666663</ele><time>2026-04-12T10:12:38.963Z</time></trkpt><trkpt lat="44.0157719" lon="11.2944035"><ele>299.3333333333333</ele><time>2026-04-12T10:12:39.963Z</time></trkpt><trkpt lat="44.0155971" lon="11.2942332"><ele>297.0</ele><time>2026-04-12T10:12:40.963Z</time></trkpt><trkpt lat="44.0154428" lon="11.2940782"><ele>297.0</ele><time>2026-04-12T10:12:41.963Z</time></trkpt><trkpt lat="44.0153114" lon="11.293935"><ele>297.0</ele><time>2026-04-12T10:12:42.963Z</time></trkpt><trkpt lat="44.0151918" lon="11.293809"><ele>297.0</ele><time>2026-04-12T10:12:43.963Z</time></trkpt><trkpt lat="44.0150814" lon="11.293683"><ele>296.75</ele><time>2026-04-12T10:12:44.963Z</time></trkpt><trkpt lat="44.0149776" lon="11.2935427"><ele>296.5</ele><time>2026-04-12T10:12:45.963Z</time></trkpt><trkpt lat="44.0148986" lon="11.2933929"><ele>296.25</ele><time>2026-04-12T10:12:46.963Z</time></trkpt><trkpt lat="44.0148336" lon="11.2932387"><ele>296.0</ele><time>2026-04-12T10:12:47.964Z</time></trkpt><trkpt lat="44.0147817" lon="11.2930726"><ele>295.25</ele><time>2026-04-12T10:12:48.963Z</time></trkpt><trkpt lat="44.0147446" lon="11.2928994"><ele>294.5</ele><time>2026-04-12T10:12:49.963Z</time></trkpt><trkpt lat="44.0147235" lon="11.2927132"><ele>293.75</ele><time>2026-04-12T10:12:50.963Z</time></trkpt><trkpt lat="44.014716" lon="11.2925231"><ele>293.0</ele><time>2026-04-12T10:12:51.963Z</time></trkpt><trkpt lat="44.0147124" lon="11.2923471"><ele>292.5</ele><time>2026-04-12T10:12:52.963Z</time></trkpt><trkpt lat="44.0147074" lon="11.2921789"><ele>292.0</ele><time>2026-04-12T10:12:53.963Z</time></trkpt><trkpt lat="44.0147018" lon="11.2920098"><ele>291.5</ele><time>2026-04-12T10:12:54.963Z</time></trkpt><trkpt lat="44.0146928" lon="11.2918424"><ele>291.0</ele><time>2026-04-12T10:12:55.963Z</time></trkpt><trkpt lat="44.0146803" lon="11.2916803"><ele>291.0</ele><time>2026-04-12T10:12:56.964Z</time></trkpt><trkpt lat="44.0146584" lon="11.2915222"><ele>291.0</ele><time>2026-04-12T10:12:57.963Z</time></trkpt><trkpt lat="44.0146185" lon="11.2913513"><ele>291.0</ele><time>2026-04-12T10:12:58.964Z</time></trkpt><trkpt lat="44.0145587" lon="11.291188"><ele>291.0</ele><time>2026-04-12T10:12:59.963Z</time></trkpt><trkpt lat="44.014495" lon="11.2910342"><ele>290.25</ele><time>2026-04-12T10:13:00.963Z</time></trkpt><trkpt lat="44.0144345" lon="11.2908898"><ele>289.5</ele><time>2026-04-12T10:13:01.963Z</time></trkpt><trkpt lat="44.0143862" lon="11.2907576"><ele>288.75</ele><time>2026-04-12T10:13:02.963Z</time></trkpt><trkpt lat="44.0143161" lon="11.2906243"><ele>288.0</ele><time>2026-04-12T10:13:03.964Z</time></trkpt><trkpt lat="44.0142339" lon="11.2904968"><ele>287.25</ele><time>2026-04-12T10:13:04.963Z</time></trkpt><trkpt lat="44.014128" lon="11.2903781"><ele>286.5</ele><time>2026-04-12T10:13:05.963Z</time></trkpt><trkpt lat="44.014011" lon="11.2902874"><ele>285.75</ele><time>2026-04-12T10:13:06.963Z</time></trkpt><trkpt lat="44.0138968" lon="11.2902073"><ele>285.0</ele><time>2026-04-12T10:13:07.964Z</time></trkpt><trkpt lat="44.0137873" lon="11.2901394"><ele>285.0</ele><time>2026-04-12T10:13:08.963Z</time></trkpt><trkpt lat="44.0136853" lon="11.2900725"><ele>285.0</ele><time>2026-04-12T10:13:09.964Z</time></trkpt><trkpt lat="44.0135896" lon="11.28999"><ele>285.0</ele><time>2026-04-12T10:13:10.963Z</time></trkpt><trkpt lat="44.0135031" lon="11.2898876"><ele>285.0</ele><time>2026-04-12T10:13:11.963Z</time></trkpt><trkpt lat="44.0134228" lon="11.2897639"><ele>285.0</ele><time>2026-04-12T10:13:12.963Z</time></trkpt><trkpt lat="44.0133521" lon="11.289631"><ele>285.0</ele><time>2026-04-12T10:13:13.964Z</time></trkpt><trkpt lat="44.0133088" lon="11.2894804"><ele>285.0</ele><time>2026-04-12T10:13:14.964Z</time></trkpt><trkpt lat="44.0132887" lon="11.2893152"><ele>285.0</ele><time>2026-04-12T10:13:15.963Z</time></trkpt><trkpt lat="44.0132908" lon="11.2891453"><ele>284.75</ele><time>2026-04-12T10:13:16.964Z</time></trkpt><trkpt lat="44.0133066" lon="11.288966"><ele>284.5</ele><time>2026-04-12T10:13:17.964Z</time></trkpt><trkpt lat="44.0133227" lon="11.2887826"><ele>284.25</ele><time>2026-04-12T10:13:18.963Z</time></trkpt><trkpt lat="44.0133353" lon="11.2886041"><ele>284.0</ele><time>2026-04-12T10:13:19.963Z</time></trkpt><trkpt lat="44.0133324" lon="11.288428"><ele>284.0</ele><time>2026-04-12T10:13:20.963Z</time></trkpt><trkpt lat="44.0133016" lon="11.2882591"><ele>284.0</ele><time>2026-04-12T10:13:21.963Z</time></trkpt><trkpt lat="44.0132443" lon="11.2881037"><ele>284.0</ele><time>2026-04-12T10:13:22.963Z</time></trkpt><trkpt lat="44.013175" lon="11.2879629"><ele>284.0</ele><time>2026-04-12T10:13:23.964Z</time></trkpt><trkpt lat="44.0131038" lon="11.2878345"><ele>284.0</ele><time>2026-04-12T10:13:24.963Z</time></trkpt><trkpt lat="44.0130457" lon="11.2877163"><ele>284.0</ele><time>2026-04-12T10:13:25.964Z</time></trkpt><trkpt lat="44.013018" lon="11.2876078"><ele>284.0</ele><time>2026-04-12T10:13:26.963Z</time></trkpt><trkpt lat="44.0130014" lon="11.2875078"><ele>284.0</ele><time>2026-04-12T10:13:27.963Z</time></trkpt><trkpt lat="44.0130779" lon="11.2873782"><ele>284.0</ele><time>2026-04-12T10:13:29.963Z</time></trkpt><trkpt lat="44.013149" lon="11.2873386"><ele>284.0</ele><time>2026-04-12T10:13:30.963Z</time></trkpt><trkpt lat="44.0132448" lon="11.2873054"><ele>284.0</ele><time>2026-04-12T10:13:31.963Z</time></trkpt><trkpt lat="44.0133978" lon="11.2872958"><ele>284.0</ele><time>2026-04-12T10:13:32.963Z</time></trkpt><trkpt lat="44.0135672" lon="11.2872833"><ele>284.0</ele><time>2026-04-12T10:13:33.964Z</time></trkpt><trkpt lat="44.0137378" lon="11.2872663"><ele>287.0</ele><time>2026-04-12T10:13:34.963Z</time></trkpt><trkpt lat="44.0139159" lon="11.2872506"><ele>290.0</ele><time>2026-04-12T10:13:35.964Z</time></trkpt><trkpt lat="44.0141078" lon="11.2872457"><ele>293.0</ele><time>2026-04-12T10:13:36.963Z</time></trkpt><trkpt lat="44.0143025" lon="11.2872577"><ele>293.6666666666667</ele><time>2026-04-12T10:13:37.963Z</time></trkpt><trkpt lat="44.0144986" lon="11.2872893"><ele>294.3333333333333</ele><time>2026-04-12T10:13:38.963Z</time></trkpt><trkpt lat="44.0146964" lon="11.2873448"><ele>295.0</ele><time>2026-04-12T10:13:39.964Z</time></trkpt><trkpt lat="44.014895" lon="11.2874144"><ele>297.66666666666663</ele><time>2026-04-12T10:13:40.964Z</time></trkpt><trkpt lat="44.0150932" lon="11.2874891"><ele>300.3333333333333</ele><time>2026-04-12T10:13:41.963Z</time></trkpt><trkpt lat="44.0152921" lon="11.2875614"><ele>303.0</ele><time>2026-04-12T10:13:42.964Z</time></trkpt><trkpt lat="44.0154925" lon="11.2876328"><ele>303.0</ele><time>2026-04-12T10:13:43.963Z</time></trkpt><trkpt lat="44.0156947" lon="11.2877048"><ele>303.0</ele><time>2026-04-12T10:13:44.965Z</time></trkpt><trkpt lat="44.015898" lon="11.2877787"><ele>303.0</ele><time>2026-04-12T10:13:45.963Z</time></trkpt><trkpt lat="44.0160984" lon="11.2878484"><ele>303.3333333333333</ele><time>2026-04-12T10:13:46.964Z</time></trkpt><trkpt lat="44.0163033" lon="11.2879171"><ele>303.66666666666663</ele><time>2026-04-12T10:13:47.964Z</time></trkpt><trkpt lat="44.0165136" lon="11.2880021"><ele>304.0</ele><time>2026-04-12T10:13:48.963Z</time></trkpt><trkpt lat="44.0167325" lon="11.2881105"><ele>304.5</ele><time>2026-04-12T10:13:49.963Z</time></trkpt><trkpt lat="44.0169593" lon="11.2882319"><ele>305.0</ele><time>2026-04-12T10:13:50.964Z</time></trkpt><trkpt lat="44.0171741" lon="11.2883514"><ele>305.0</ele><time>2026-04-12T10:13:51.963Z</time></trkpt><trkpt lat="44.017388" lon="11.2884831"><ele>305.0</ele><time>2026-04-12T10:13:52.964Z</time></trkpt><trkpt lat="44.0175962" lon="11.2886073"><ele>305.6666666666667</ele><time>2026-04-12T10:13:53.964Z</time></trkpt><trkpt lat="44.0178016" lon="11.2887303"><ele>306.3333333333333</ele><time>2026-04-12T10:13:54.963Z</time></trkpt><trkpt lat="44.0180024" lon="11.2888497"><ele>307.0</ele><time>2026-04-12T10:13:55.963Z</time></trkpt><trkpt lat="44.0182009" lon="11.288965"><ele>307.5</ele><time>2026-04-12T10:13:56.963Z</time></trkpt><trkpt lat="44.0184131" lon="11.2890656"><ele>308.0</ele><time>2026-04-12T10:13:57.964Z</time></trkpt><trkpt lat="44.0186447" lon="11.2891414"><ele>308.0</ele><time>2026-04-12T10:13:58.964Z</time></trkpt><trkpt lat="44.0188874" lon="11.2891944"><ele>308.0</ele><time>2026-04-12T10:13:59.963Z</time></trkpt><trkpt lat="44.0191156" lon="11.2892379"><ele>310.6666666666667</ele><time>2026-04-12T10:14:00.963Z</time></trkpt><trkpt lat="44.019329" lon="11.2892742"><ele>313.3333333333333</ele><time>2026-04-12T10:14:01.963Z</time></trkpt><trkpt lat="44.0195235" lon="11.289294"><ele>316.0</ele><time>2026-04-12T10:14:02.964Z</time></trkpt><trkpt lat="44.019706" lon="11.2893181"><ele>316.0</ele><time>2026-04-12T10:14:03.964Z</time></trkpt><trkpt lat="44.0198746" lon="11.2893472"><ele>316.0</ele><time>2026-04-12T10:14:04.963Z</time></trkpt><trkpt lat="44.0200293" lon="11.2893718"><ele>316.0</ele><time>2026-04-12T10:14:05.964Z</time></trkpt><trkpt lat="44.0201703" lon="11.2893864"><ele>317.25</ele><time>2026-04-12T10:14:06.963Z</time></trkpt><trkpt lat="44.020304" lon="11.2893804"><ele>318.5</ele><time>2026-04-12T10:14:07.963Z</time></trkpt><trkpt lat="44.0204371" lon="11.289335"><ele>319.75</ele><time>2026-04-12T10:14:08.964Z</time></trkpt><trkpt lat="44.0205974" lon="11.2892402"><ele>321.0</ele><time>2026-04-12T10:14:09.964Z</time></trkpt><trkpt lat="44.0207558" lon="11.289137"><ele>322.0</ele><time>2026-04-12T10:14:10.964Z</time></trkpt><trkpt lat="44.020926" lon="11.2890356"><ele>323.0</ele><time>2026-04-12T10:14:11.965Z</time></trkpt><trkpt lat="44.0211003" lon="11.2889177"><ele>324.0</ele><time>2026-04-12T10:14:12.964Z</time></trkpt><trkpt lat="44.0212694" lon="11.2888216"><ele>324.3333333333333</ele><time>2026-04-12T10:14:13.964Z</time></trkpt><trkpt lat="44.0214057" lon="11.2887364"><ele>324.66666666666663</ele><time>2026-04-12T10:14:14.964Z</time></trkpt><trkpt lat="44.0215368" lon="11.2886332"><ele>325.0</ele><time>2026-04-12T10:14:15.965Z</time></trkpt><trkpt lat="44.0216638" lon="11.2884883"><ele>326.25</ele><time>2026-04-12T10:14:16.964Z</time></trkpt><trkpt lat="44.0217694" lon="11.2883206"><ele>327.5</ele><time>2026-04-12T10:14:17.964Z</time></trkpt><trkpt lat="44.0218595" lon="11.2881672"><ele>328.75</ele><time>2026-04-12T10:14:18.964Z</time></trkpt><trkpt lat="44.0219597" lon="11.2880542"><ele>330.0</ele><time>2026-04-12T10:14:19.964Z</time></trkpt><trkpt lat="44.0220642" lon="11.2879893"><ele>330.0</ele><time>2026-04-12T10:14:20.964Z</time></trkpt><trkpt lat="44.0221653" lon="11.2879637"><ele>330.0</ele><time>2026-04-12T10:14:21.964Z</time></trkpt><trkpt lat="44.0222842" lon="11.287984"><ele>330.0</ele><time>2026-04-12T10:14:22.964Z</time></trkpt><trkpt lat="44.0224179" lon="11.2880599"><ele>330.0</ele><time>2026-04-12T10:14:23.964Z</time></trkpt><trkpt lat="44.0225693" lon="11.2881829"><ele>331.6666666666667</ele><time>2026-04-12T10:14:24.964Z</time></trkpt><trkpt lat="44.022751" lon="11.2883285"><ele>333.33333333333337</ele><time>2026-04-12T10:14:25.964Z</time></trkpt><trkpt lat="44.0229306" lon="11.2884702"><ele>335.0</ele><time>2026-04-12T10:14:26.964Z</time></trkpt><trkpt lat="44.0231103" lon="11.2886023"><ele>335.0</ele><time>2026-04-12T10:14:27.964Z</time></trkpt><trkpt lat="44.023285" lon="11.2887437"><ele>335.0</ele><time>2026-04-12T10:14:28.964Z</time></trkpt><trkpt lat="44.023459" lon="11.2888803"><ele>335.0</ele><time>2026-04-12T10:14:29.964Z</time></trkpt><trkpt lat="44.0236315" lon="11.2890129"><ele>337.33333333333337</ele><time>2026-04-12T10:14:30.964Z</time></trkpt><trkpt lat="44.0238029" lon="11.2891476"><ele>339.6666666666667</ele><time>2026-04-12T10:14:31.964Z</time></trkpt><trkpt lat="44.0239737" lon="11.2892789"><ele>342.0</ele><time>2026-04-12T10:14:32.964Z</time></trkpt><trkpt lat="44.0241374" lon="11.2894075"><ele>343.6666666666667</ele><time>2026-04-12T10:14:33.964Z</time></trkpt><trkpt lat="44.0242912" lon="11.2895257"><ele>345.33333333333337</ele><time>2026-04-12T10:14:34.964Z</time></trkpt><trkpt lat="44.0244394" lon="11.2896416"><ele>347.0</ele><time>2026-04-12T10:14:35.964Z</time></trkpt><trkpt lat="44.0245728" lon="11.2897501"><ele>348.0</ele><time>2026-04-12T10:14:36.965Z</time></trkpt><trkpt lat="44.0247032" lon="11.289849"><ele>349.0</ele><time>2026-04-12T10:14:37.964Z</time></trkpt><trkpt lat="44.024824" lon="11.28993"><ele>350.0</ele><time>2026-04-12T10:14:38.964Z</time></trkpt><trkpt lat="44.0249479" lon="11.2899907"><ele>351.0</ele><time>2026-04-12T10:14:39.964Z</time></trkpt><trkpt lat="44.0251017" lon="11.2900114"><ele>353.0</ele><time>2026-04-12T10:14:40.964Z</time></trkpt><trkpt lat="44.0252866" lon="11.2899903"><ele>355.0</ele><time>2026-04-12T10:14:41.964Z</time></trkpt><trkpt lat="44.025472" lon="11.2899463"><ele>357.0</ele><time>2026-04-12T10:14:42.964Z</time></trkpt><trkpt lat="44.0256516" lon="11.2899128"><ele>359.0</ele><time>2026-04-12T10:14:43.964Z</time></trkpt><trkpt lat="44.0258299" lon="11.289883"><ele>361.0</ele><time>2026-04-12T10:14:44.964Z</time></trkpt><trkpt lat="44.0259909" lon="11.2898568"><ele>363.0</ele><time>2026-04-12T10:14:45.964Z</time></trkpt><trkpt lat="44.0261401" lon="11.2898212"><ele>363.0</ele><time>2026-04-12T10:14:46.964Z</time></trkpt><trkpt lat="44.0262699" lon="11.2898027"><ele>363.0</ele><time>2026-04-12T10:14:47.965Z</time></trkpt><trkpt lat="44.0263901" lon="11.2898219"><ele>363.0</ele><time>2026-04-12T10:14:48.965Z</time></trkpt><trkpt lat="44.0264984" lon="11.2899028"><ele>363.0</ele><time>2026-04-12T10:14:49.965Z</time></trkpt><trkpt lat="44.0265946" lon="11.2900325"><ele>364.75</ele><time>2026-04-12T10:14:50.964Z</time></trkpt><trkpt lat="44.0266845" lon="11.2901941"><ele>366.5</ele><time>2026-04-12T10:14:51.965Z</time></trkpt><trkpt lat="44.0267729" lon="11.2903077"><ele>368.25</ele><time>2026-04-12T10:14:52.964Z</time></trkpt><trkpt lat="44.0269048" lon="11.2903804"><ele>370.0</ele><time>2026-04-12T10:14:53.964Z</time></trkpt><trkpt lat="44.0270647" lon="11.2904169"><ele>370.0</ele><time>2026-04-12T10:14:54.964Z</time></trkpt><trkpt lat="44.0272378" lon="11.2904357"><ele>370.0</ele><time>2026-04-12T10:14:55.964Z</time></trkpt><trkpt lat="44.0274173" lon="11.290433"><ele>370.0</ele><time>2026-04-12T10:14:56.964Z</time></trkpt><trkpt lat="44.0275885" lon="11.2904051"><ele>373.66666666666663</ele><time>2026-04-12T10:14:57.964Z</time></trkpt><trkpt lat="44.027742" lon="11.2903507"><ele>377.3333333333333</ele><time>2026-04-12T10:14:58.964Z</time></trkpt><trkpt lat="44.0279052" lon="11.2902787"><ele>381.0</ele><time>2026-04-12T10:14:59.964Z</time></trkpt><trkpt lat="44.0280635" lon="11.2901873"><ele>381.0</ele><time>2026-04-12T10:15:00.964Z</time></trkpt><trkpt lat="44.0282223" lon="11.2900986"><ele>381.0</ele><time>2026-04-12T10:15:01.965Z</time></trkpt><trkpt lat="44.0283683" lon="11.2900057"><ele>381.0</ele><time>2026-04-12T10:15:02.964Z</time></trkpt><trkpt lat="44.0285199" lon="11.2899154"><ele>382.0</ele><time>2026-04-12T10:15:03.964Z</time></trkpt><trkpt lat="44.0286694" lon="11.289832"><ele>383.0</ele><time>2026-04-12T10:15:04.964Z</time></trkpt><trkpt lat="44.0288198" lon="11.2897376"><ele>384.0</ele><time>2026-04-12T10:15:05.964Z</time></trkpt><trkpt lat="44.0289805" lon="11.2896475"><ele>388.33333333333337</ele><time>2026-04-12T10:15:06.964Z</time></trkpt><trkpt lat="44.0291486" lon="11.2895693"><ele>392.6666666666667</ele><time>2026-04-12T10:15:07.964Z</time></trkpt><trkpt lat="44.0293161" lon="11.2895072"><ele>397.0</ele><time>2026-04-12T10:15:08.964Z</time></trkpt><trkpt lat="44.0294723" lon="11.2894526"><ele>397.0</ele><time>2026-04-12T10:15:09.965Z</time></trkpt><trkpt lat="44.0296209" lon="11.2893898"><ele>397.0</ele><time>2026-04-12T10:15:10.964Z</time></trkpt><trkpt lat="44.0297474" lon="11.2892872"><ele>397.0</ele><time>2026-04-12T10:15:11.964Z</time></trkpt><trkpt lat="44.0298519" lon="11.2891347"><ele>397.0</ele><time>2026-04-12T10:15:12.964Z</time></trkpt><trkpt lat="44.0299358" lon="11.2889424"><ele>397.0</ele><time>2026-04-12T10:15:13.964Z</time></trkpt><trkpt lat="44.0300341" lon="11.2887788"><ele>397.0</ele><time>2026-04-12T10:15:14.964Z</time></trkpt><trkpt lat="44.0301765" lon="11.288664"><ele>401.0</ele><time>2026-04-12T10:15:15.964Z</time></trkpt><trkpt lat="44.0303435" lon="11.2885697"><ele>405.0</ele><time>2026-04-12T10:15:16.965Z</time></trkpt><trkpt lat="44.0305342" lon="11.288488"><ele>409.0</ele><time>2026-04-12T10:15:17.964Z</time></trkpt><trkpt lat="44.0307111" lon="11.2884112"><ele>411.5</ele><time>2026-04-12T10:15:18.964Z</time></trkpt><trkpt lat="44.0308657" lon="11.2883342"><ele>414.0</ele><time>2026-04-12T10:15:19.964Z</time></trkpt><trkpt lat="44.0310016" lon="11.2882494"><ele>416.5</ele><time>2026-04-12T10:15:20.965Z</time></trkpt><trkpt lat="44.0311122" lon="11.2881428"><ele>419.0</ele><time>2026-04-12T10:15:21.965Z</time></trkpt><trkpt lat="44.0311811" lon="11.2879808"><ele>419.3333333333333</ele><time>2026-04-12T10:15:22.964Z</time></trkpt><trkpt lat="44.0312149" lon="11.2877745"><ele>419.66666666666663</ele><time>2026-04-12T10:15:23.964Z</time></trkpt><trkpt lat="44.0312315" lon="11.2875561"><ele>420.0</ele><time>2026-04-12T10:15:24.964Z</time></trkpt><trkpt lat="44.0312478" lon="11.2873606"><ele>420.0</ele><time>2026-04-12T10:15:25.964Z</time></trkpt><trkpt lat="44.0312756" lon="11.2872199"><ele>420.0</ele><time>2026-04-12T10:15:26.964Z</time></trkpt><trkpt lat="44.0313145" lon="11.2871395"><ele>420.0</ele><time>2026-04-12T10:15:27.964Z</time></trkpt><trkpt lat="44.0314413" lon="11.2871466"><ele>420.0</ele><time>2026-04-12T10:15:29.964Z</time></trkpt><trkpt lat="44.0315212" lon="11.2872416"><ele>420.0</ele><time>2026-04-12T10:15:30.964Z</time></trkpt><trkpt lat="44.0316128" lon="11.2873665"><ele>424.25</ele><time>2026-04-12T10:15:31.964Z</time></trkpt><trkpt lat="44.0317201" lon="11.2874803"><ele>428.5</ele><time>2026-04-12T10:15:32.964Z</time></trkpt><trkpt lat="44.0318501" lon="11.2875466"><ele>432.75</ele><time>2026-04-12T10:15:33.965Z</time></trkpt><trkpt lat="44.0319896" lon="11.2875394"><ele>437.0</ele><time>2026-04-12T10:15:34.964Z</time></trkpt><trkpt lat="44.0321372" lon="11.2874634"><ele>437.0</ele><time>2026-04-12T10:15:35.964Z</time></trkpt><trkpt lat="44.0322858" lon="11.2873478"><ele>437.0</ele><time>2026-04-12T10:15:36.965Z</time></trkpt><trkpt lat="44.032437" lon="11.2872311"><ele>437.0</ele><time>2026-04-12T10:15:37.964Z</time></trkpt><trkpt lat="44.0325858" lon="11.2871543"><ele>443.0</ele><time>2026-04-12T10:15:38.964Z</time></trkpt><trkpt lat="44.0327244" lon="11.2870923"><ele>449.0</ele><time>2026-04-12T10:15:39.964Z</time></trkpt><trkpt lat="44.032883" lon="11.2870688"><ele>455.0</ele><time>2026-04-12T10:15:40.965Z</time></trkpt><trkpt lat="44.0330363" lon="11.2870637"><ele>455.0</ele><time>2026-04-12T10:15:41.964Z</time></trkpt><trkpt lat="44.0331736" lon="11.2870439"><ele>455.0</ele><time>2026-04-12T10:15:42.964Z</time></trkpt><trkpt lat="44.033295" lon="11.2869711"><ele>455.0</ele><time>2026-04-12T10:15:43.964Z</time></trkpt><trkpt lat="44.033398" lon="11.2868513"><ele>455.0</ele><time>2026-04-12T10:15:44.965Z</time></trkpt><trkpt lat="44.0334921" lon="11.286685"><ele>456.66666666666663</ele><time>2026-04-12T10:15:45.964Z</time></trkpt><trkpt lat="44.0335845" lon="11.2865114"><ele>458.33333333333337</ele><time>2026-04-12T10:15:46.964Z</time></trkpt><trkpt lat="44.0337052" lon="11.2863759"><ele>460.0</ele><time>2026-04-12T10:15:47.965Z</time></trkpt><trkpt lat="44.033853" lon="11.2862798"><ele>462.6666666666667</ele><time>2026-04-12T10:15:48.964Z</time></trkpt><trkpt lat="44.0340183" lon="11.286212"><ele>465.33333333333337</ele><time>2026-04-12T10:15:49.964Z</time></trkpt><trkpt lat="44.0341725" lon="11.2861833"><ele>468.0</ele><time>2026-04-12T10:15:50.965Z</time></trkpt><trkpt lat="44.0343162" lon="11.2861797"><ele>468.25</ele><time>2026-04-12T10:15:51.964Z</time></trkpt><trkpt lat="44.0344465" lon="11.2862025"><ele>468.5</ele><time>2026-04-12T10:15:52.964Z</time></trkpt><trkpt lat="44.0345456" lon="11.2862639"><ele>468.75</ele><time>2026-04-12T10:15:53.964Z</time></trkpt><trkpt lat="44.0346365" lon="11.2863537"><ele>469.0</ele><time>2026-04-12T10:15:54.964Z</time></trkpt><trkpt lat="44.0347095" lon="11.2864662"><ele>470.0</ele><time>2026-04-12T10:15:55.964Z</time></trkpt><trkpt lat="44.0347786" lon="11.2865796"><ele>471.0</ele><time>2026-04-12T10:15:56.965Z</time></trkpt><trkpt lat="44.0348667" lon="11.2866657"><ele>472.0</ele><time>2026-04-12T10:15:57.966Z</time></trkpt><trkpt lat="44.0349686" lon="11.2867427"><ele>473.0</ele><time>2026-04-12T10:15:58.964Z</time></trkpt><trkpt lat="44.0350839" lon="11.2868025"><ele>473.0</ele><time>2026-04-12T10:15:59.964Z</time></trkpt><trkpt lat="44.0352242" lon="11.2868162"><ele>473.0</ele><time>2026-04-12T10:16:00.965Z</time></trkpt><trkpt lat="44.0353704" lon="11.2868162"><ele>473.0</ele><time>2026-04-12T10:16:01.965Z</time></trkpt><trkpt lat="44.0355066" lon="11.286796"><ele>473.0</ele><time>2026-04-12T10:16:02.966Z</time></trkpt><trkpt lat="44.0356332" lon="11.2867778"><ele>473.0</ele><time>2026-04-12T10:16:03.965Z</time></trkpt><trkpt lat="44.0357542" lon="11.2867532"><ele>473.0</ele><time>2026-04-12T10:16:04.965Z</time></trkpt><trkpt lat="44.0358716" lon="11.28673"><ele>473.0</ele><time>2026-04-12T10:16:05.966Z</time></trkpt><trkpt lat="44.0359937" lon="11.2867015"><ele>473.0</ele><time>2026-04-12T10:16:06.965Z</time></trkpt><trkpt lat="44.0361133" lon="11.2866573"><ele>474.75</ele><time>2026-04-12T10:16:07.966Z</time></trkpt><trkpt lat="44.0362356" lon="11.2866062"><ele>476.5</ele><time>2026-04-12T10:16:08.965Z</time></trkpt><trkpt lat="44.0363581" lon="11.2865484"><ele>478.25</ele><time>2026-04-12T10:16:09.966Z</time></trkpt><trkpt lat="44.036474" lon="11.2864641"><ele>480.0</ele><time>2026-04-12T10:16:10.966Z</time></trkpt><trkpt lat="44.0365936" lon="11.286379"><ele>481.5</ele><time>2026-04-12T10:16:11.965Z</time></trkpt><trkpt lat="44.0367177" lon="11.2862875"><ele>483.0</ele><time>2026-04-12T10:16:12.965Z</time></trkpt><trkpt lat="44.0368427" lon="11.2861912"><ele>484.5</ele><time>2026-04-12T10:16:13.965Z</time></trkpt><trkpt lat="44.0369728" lon="11.2861161"><ele>486.0</ele><time>2026-04-12T10:16:14.965Z</time></trkpt><trkpt lat="44.037106" lon="11.2860465"><ele>486.0</ele><time>2026-04-12T10:16:15.966Z</time></trkpt><trkpt lat="44.0372615" lon="11.2860076"><ele>486.0</ele><time>2026-04-12T10:16:16.965Z</time></trkpt><trkpt lat="44.0374512" lon="11.2860043"><ele>486.0</ele><time>2026-04-12T10:16:17.965Z</time></trkpt><trkpt lat="44.0376662" lon="11.2860117"><ele>487.5</ele><time>2026-04-12T10:16:18.965Z</time></trkpt><trkpt lat="44.0378996" lon="11.2860304"><ele>489.0</ele><time>2026-04-12T10:16:19.965Z</time></trkpt><trkpt lat="44.0381344" lon="11.2860619"><ele>490.5</ele><time>2026-04-12T10:16:20.965Z</time></trkpt><trkpt lat="44.03836" lon="11.2861036"><ele>492.0</ele><time>2026-04-12T10:16:21.965Z</time></trkpt><trkpt lat="44.0385828" lon="11.28614"><ele>492.0</ele><time>2026-04-12T10:16:22.966Z</time></trkpt><trkpt lat="44.0388006" lon="11.2861788"><ele>492.0</ele><time>2026-04-12T10:16:23.965Z</time></trkpt><trkpt lat="44.0390177" lon="11.2862142"><ele>492.0</ele><time>2026-04-12T10:16:24.966Z</time></trkpt><trkpt lat="44.0392386" lon="11.2862631"><ele>495.0</ele><time>2026-04-12T10:16:25.966Z</time></trkpt><trkpt lat="44.0394652" lon="11.2863232"><ele>498.0</ele><time>2026-04-12T10:16:26.965Z</time></trkpt><trkpt lat="44.0396979" lon="11.2863961"><ele>500.0</ele><time>2026-04-12T10:16:27.965Z</time></trkpt><trkpt lat="44.0399328" lon="11.2864535"><ele>502.0</ele><time>2026-04-12T10:16:28.965Z</time></trkpt><trkpt lat="44.0401807" lon="11.2865223"><ele>502.0</ele><time>2026-04-12T10:16:29.966Z</time></trkpt><trkpt lat="44.0404405" lon="11.2865949"><ele>502.0</ele><time>2026-04-12T10:16:30.965Z</time></trkpt><trkpt lat="44.0406983" lon="11.2866665"><ele>503.5</ele><time>2026-04-12T10:16:31.965Z</time></trkpt><trkpt lat="44.0409626" lon="11.2867355"><ele>505.0</ele><time>2026-04-12T10:16:32.966Z</time></trkpt><trkpt lat="44.0412349" lon="11.286814"><ele>505.0</ele><time>2026-04-12T10:16:33.966Z</time></trkpt><trkpt lat="44.0415024" lon="11.2868856"><ele>505.0</ele><time>2026-04-12T10:16:34.966Z</time></trkpt><trkpt lat="44.0417765" lon="11.2869686"><ele>505.5</ele><time>2026-04-12T10:16:35.965Z</time></trkpt><trkpt lat="44.0420458" lon="11.2870368"><ele>506.0</ele><time>2026-04-12T10:16:36.965Z</time></trkpt><trkpt lat="44.0423107" lon="11.2871091"><ele>507.5</ele><time>2026-04-12T10:16:37.965Z</time></trkpt><trkpt lat="44.042564" lon="11.2871809"><ele>509.0</ele><time>2026-04-12T10:16:38.965Z</time></trkpt><trkpt lat="44.0428138" lon="11.2872543"><ele>510.0</ele><time>2026-04-12T10:16:39.965Z</time></trkpt><trkpt lat="44.0430579" lon="11.2873304"><ele>511.0</ele><time>2026-04-12T10:16:40.965Z</time></trkpt><trkpt lat="44.0432944" lon="11.2874127"><ele>514.0</ele><time>2026-04-12T10:16:41.965Z</time></trkpt><trkpt lat="44.0435279" lon="11.2875176"><ele>517.0</ele><time>2026-04-12T10:16:42.965Z</time></trkpt><trkpt lat="44.0437524" lon="11.2876517"><ele>517.0</ele><time>2026-04-12T10:16:43.965Z</time></trkpt><trkpt lat="44.0439585" lon="11.2878147"><ele>517.0</ele><time>2026-04-12T10:16:44.965Z</time></trkpt><trkpt lat="44.044136" lon="11.2879788"><ele>519.6666666666667</ele><time>2026-04-12T10:16:45.965Z</time></trkpt><trkpt lat="44.0443114" lon="11.2881232"><ele>522.3333333333334</ele><time>2026-04-12T10:16:46.966Z</time></trkpt><trkpt lat="44.0445227" lon="11.2882252"><ele>525.0</ele><time>2026-04-12T10:16:47.965Z</time></trkpt><trkpt lat="44.0447453" lon="11.2883002"><ele>525.0</ele><time>2026-04-12T10:16:48.966Z</time></trkpt><trkpt lat="44.0449518" lon="11.2883414"><ele>525.0</ele><time>2026-04-12T10:16:49.965Z</time></trkpt><trkpt lat="44.0451495" lon="11.2883377"><ele>525.0</ele><time>2026-04-12T10:16:50.966Z</time></trkpt><trkpt lat="44.0453602" lon="11.2882768"><ele>530.0</ele><time>2026-04-12T10:16:51.965Z</time></trkpt><trkpt lat="44.0455795" lon="11.2881951"><ele>535.0</ele><time>2026-04-12T10:16:52.965Z</time></trkpt><trkpt lat="44.0458025" lon="11.2880877"><ele>538.0</ele><time>2026-04-12T10:16:53.966Z</time></trkpt><trkpt lat="44.0460363" lon="11.2879791"><ele>541.0</ele><time>2026-04-12T10:16:54.965Z</time></trkpt><trkpt lat="44.0462458" lon="11.2878878"><ele>541.0</ele><time>2026-04-12T10:16:55.965Z</time></trkpt><trkpt lat="44.0464253" lon="11.2878218"><ele>541.0</ele><time>2026-04-12T10:16:56.966Z</time></trkpt><trkpt lat="44.0465854" lon="11.287797"><ele>541.0</ele><time>2026-04-12T10:16:57.965Z</time></trkpt><trkpt lat="44.0467404" lon="11.2878598"><ele>542.3333333333334</ele><time>2026-04-12T10:16:58.965Z</time></trkpt><trkpt lat="44.0469051" lon="11.287984"><ele>543.6666666666666</ele><time>2026-04-12T10:16:59.966Z</time></trkpt><trkpt lat="44.0470766" lon="11.2881272"><ele>545.0</ele><time>2026-04-12T10:17:00.965Z</time></trkpt><trkpt lat="44.0472862" lon="11.2882564"><ele>549.3333333333333</ele><time>2026-04-12T10:17:01.965Z</time></trkpt><trkpt lat="44.0475134" lon="11.2883505"><ele>553.6666666666666</ele><time>2026-04-12T10:17:02.965Z</time></trkpt><trkpt lat="44.0477028" lon="11.2884297"><ele>558.0</ele><time>2026-04-12T10:17:03.965Z</time></trkpt><trkpt lat="44.047851" lon="11.2885161"><ele>558.0</ele><time>2026-04-12T10:17:04.965Z</time></trkpt><trkpt lat="44.0479664" lon="11.288643"><ele>558.0</ele><time>2026-04-12T10:17:05.966Z</time></trkpt><trkpt lat="44.0480501" lon="11.2887838"><ele>558.0</ele><time>2026-04-12T10:17:06.966Z</time></trkpt><trkpt lat="44.0481332" lon="11.2888963"><ele>558.0</ele><time>2026-04-12T10:17:07.965Z</time></trkpt><trkpt lat="44.0482401" lon="11.2889453"><ele>559.3333333333334</ele><time>2026-04-12T10:17:08.965Z</time></trkpt><trkpt lat="44.0483859" lon="11.2889284"><ele>560.6666666666667</ele><time>2026-04-12T10:17:09.965Z</time></trkpt><trkpt lat="44.0485447" lon="11.2888441"><ele>562.0</ele><time>2026-04-12T10:17:10.965Z</time></trkpt><trkpt lat="44.0486852" lon="11.2887733"><ele>562.0</ele><time>2026-04-12T10:17:11.965Z</time></trkpt><trkpt lat="44.0488086" lon="11.2887672"><ele>562.0</ele><time>2026-04-12T10:17:12.965Z</time></trkpt><trkpt lat="44.048932" lon="11.2888374"><ele>562.0</ele><time>2026-04-12T10:17:13.965Z</time></trkpt><trkpt lat="44.0490332" lon="11.2889521"><ele>562.0</ele><time>2026-04-12T10:17:14.965Z</time></trkpt><trkpt lat="44.0491388" lon="11.2890294"><ele>565.0</ele><time>2026-04-12T10:17:15.965Z</time></trkpt><trkpt lat="44.0492534" lon="11.2890176"><ele>568.0</ele><time>2026-04-12T10:17:16.966Z</time></trkpt><trkpt lat="44.0493845" lon="11.2889443"><ele>571.0</ele><time>2026-04-12T10:17:17.965Z</time></trkpt><trkpt lat="44.0495376" lon="11.2888796"><ele>574.0</ele><time>2026-04-12T10:17:18.965Z</time></trkpt><trkpt lat="44.0497406" lon="11.2888471"><ele>574.0</ele><time>2026-04-12T10:17:19.966Z</time></trkpt><trkpt lat="44.0499578" lon="11.288809"><ele>574.0</ele><time>2026-04-12T10:17:20.965Z</time></trkpt><trkpt lat="44.0501329" lon="11.2887962"><ele>574.0</ele><time>2026-04-12T10:17:21.965Z</time></trkpt><trkpt lat="44.0502817" lon="11.2888105"><ele>576.0</ele><time>2026-04-12T10:17:22.966Z</time></trkpt><trkpt lat="44.0504238" lon="11.2888798"><ele>578.0</ele><time>2026-04-12T10:17:23.965Z</time></trkpt><trkpt lat="44.0505754" lon="11.2890111"><ele>580.0</ele><time>2026-04-12T10:17:24.966Z</time></trkpt><trkpt lat="44.0507327" lon="11.2891703"><ele>585.3333333333334</ele><time>2026-04-12T10:17:25.966Z</time></trkpt><trkpt lat="44.0508776" lon="11.2893364"><ele>590.6666666666666</ele><time>2026-04-12T10:17:26.965Z</time></trkpt><trkpt lat="44.0510134" lon="11.289461"><ele>596.0</ele><time>2026-04-12T10:17:27.965Z</time></trkpt><trkpt lat="44.0511495" lon="11.2895358"><ele>596.0</ele><time>2026-04-12T10:17:28.965Z</time></trkpt><trkpt lat="44.0512989" lon="11.2895551"><ele>596.0</ele><time>2026-04-12T10:17:29.965Z</time></trkpt><trkpt lat="44.0514744" lon="11.2895298"><ele>596.0</ele><time>2026-04-12T10:17:30.965Z</time></trkpt><trkpt lat="44.0516724" lon="11.2895035"><ele>599.5</ele><time>2026-04-12T10:17:31.965Z</time></trkpt><trkpt lat="44.0518902" lon="11.2895187"><ele>603.0</ele><time>2026-04-12T10:17:32.965Z</time></trkpt><trkpt lat="44.0521288" lon="11.2895626"><ele>603.0</ele><time>2026-04-12T10:17:33.965Z</time></trkpt><trkpt lat="44.0523483" lon="11.2896043"><ele>603.0</ele><time>2026-04-12T10:17:34.965Z</time></trkpt><trkpt lat="44.052558" lon="11.2896399"><ele>603.0</ele><time>2026-04-12T10:17:35.965Z</time></trkpt><trkpt lat="44.0527518" lon="11.2896721"><ele>605.3333333333334</ele><time>2026-04-12T10:17:36.965Z</time></trkpt><trkpt lat="44.0529278" lon="11.2897053"><ele>607.6666666666667</ele><time>2026-04-12T10:17:37.966Z</time></trkpt><trkpt lat="44.0530978" lon="11.2897632"><ele>610.0</ele><time>2026-04-12T10:17:38.965Z</time></trkpt><trkpt lat="44.0532555" lon="11.2898429"><ele>613.3333333333334</ele><time>2026-04-12T10:17:39.965Z</time></trkpt><trkpt lat="44.0534026" lon="11.2899173"><ele>616.6666666666666</ele><time>2026-04-12T10:17:40.965Z</time></trkpt><trkpt lat="44.0535449" lon="11.289956"><ele>620.0</ele><time>2026-04-12T10:17:41.965Z</time></trkpt><trkpt lat="44.0537037" lon="11.2899466"><ele>620.0</ele><time>2026-04-12T10:17:42.966Z</time></trkpt><trkpt lat="44.0538584" lon="11.2898458"><ele>620.0</ele><time>2026-04-12T10:17:43.966Z</time></trkpt><trkpt lat="44.0540386" lon="11.289722"><ele>620.0</ele><time>2026-04-12T10:17:44.965Z</time></trkpt><trkpt lat="44.0541982" lon="11.289554"><ele>619.0</ele><time>2026-04-12T10:17:45.966Z</time></trkpt><trkpt lat="44.0543264" lon="11.2893961"><ele>618.0</ele><time>2026-04-12T10:17:46.965Z</time></trkpt><trkpt lat="44.0544273" lon="11.2892693"><ele>617.0</ele><time>2026-04-12T10:17:47.965Z</time></trkpt><trkpt lat="44.0545454" lon="11.2891806"><ele>616.0</ele><time>2026-04-12T10:17:48.965Z</time></trkpt><trkpt lat="44.0546857" lon="11.2891326"><ele>616.0</ele><time>2026-04-12T10:17:49.965Z</time></trkpt><trkpt lat="44.05485" lon="11.2891239"><ele>616.0</ele><time>2026-04-12T10:17:50.965Z</time></trkpt><trkpt lat="44.0550244" lon="11.2891666"><ele>616.0</ele><time>2026-04-12T10:17:51.965Z</time></trkpt><trkpt lat="44.0552093" lon="11.2892556"><ele>616.0</ele><time>2026-04-12T10:17:52.965Z</time></trkpt><trkpt lat="44.0553965" lon="11.289375"><ele>616.0</ele><time>2026-04-12T10:17:53.965Z</time></trkpt><trkpt lat="44.0555949" lon="11.2895236"><ele>616.0</ele><time>2026-04-12T10:17:54.966Z</time></trkpt><trkpt lat="44.0557987" lon="11.2896668"><ele>620.0</ele><time>2026-04-12T10:17:55.966Z</time></trkpt><trkpt lat="44.0560016" lon="11.289805"><ele>624.0</ele><time>2026-04-12T10:17:56.966Z</time></trkpt><trkpt lat="44.0561973" lon="11.2899378"><ele>628.0</ele><time>2026-04-12T10:17:57.967Z</time></trkpt><trkpt lat="44.0563903" lon="11.2900464"><ele>628.0</ele><time>2026-04-12T10:17:58.966Z</time></trkpt><trkpt lat="44.0565908" lon="11.2901324"><ele>628.0</ele><time>2026-04-12T10:17:59.966Z</time></trkpt><trkpt lat="44.0567965" lon="11.2902029"><ele>628.0</ele><time>2026-04-12T10:18:00.966Z</time></trkpt><trkpt lat="44.0570028" lon="11.2902781"><ele>626.0</ele><time>2026-04-12T10:18:01.966Z</time></trkpt><trkpt lat="44.0572062" lon="11.2903447"><ele>624.0</ele><time>2026-04-12T10:18:02.966Z</time></trkpt><trkpt lat="44.0574024" lon="11.2904152"><ele>622.0</ele><time>2026-04-12T10:18:03.966Z</time></trkpt><trkpt lat="44.0575948" lon="11.2904851"><ele>620.6666666666667</ele><time>2026-04-12T10:18:04.966Z</time></trkpt><trkpt lat="44.0577785" lon="11.2905619"><ele>619.3333333333334</ele><time>2026-04-12T10:18:05.966Z</time></trkpt><trkpt lat="44.0579404" lon="11.2906108"><ele>618.0</ele><time>2026-04-12T10:18:06.966Z</time></trkpt><trkpt lat="44.0580867" lon="11.2906219"><ele>618.0</ele><time>2026-04-12T10:18:07.966Z</time></trkpt><trkpt lat="44.0582221" lon="11.2905805"><ele>618.0</ele><time>2026-04-12T10:18:08.966Z</time></trkpt><trkpt lat="44.058363" lon="11.2904814"><ele>618.0</ele><time>2026-04-12T10:18:09.968Z</time></trkpt><trkpt lat="44.0585104" lon="11.2903535"><ele>617.6666666666666</ele><time>2026-04-12T10:18:10.966Z</time></trkpt><trkpt lat="44.0586704" lon="11.2902307"><ele>617.3333333333333</ele><time>2026-04-12T10:18:11.967Z</time></trkpt><trkpt lat="44.0588337" lon="11.2901249"><ele>617.0</ele><time>2026-04-12T10:18:12.966Z</time></trkpt><trkpt lat="44.0590065" lon="11.2900437"><ele>619.0</ele><time>2026-04-12T10:18:13.967Z</time></trkpt><trkpt lat="44.0591916" lon="11.2899904"><ele>621.0</ele><time>2026-04-12T10:18:14.967Z</time></trkpt><trkpt lat="44.0593865" lon="11.2899526"><ele>623.0</ele><time>2026-04-12T10:18:15.966Z</time></trkpt><trkpt lat="44.0595814" lon="11.2899246"><ele>623.0</ele><time>2026-04-12T10:18:16.966Z</time></trkpt><trkpt lat="44.0597657" lon="11.2898989"><ele>623.0</ele><time>2026-04-12T10:18:17.966Z</time></trkpt><trkpt lat="44.0599377" lon="11.2898961"><ele>623.0</ele><time>2026-04-12T10:18:18.966Z</time></trkpt><trkpt lat="44.0601029" lon="11.2899412"><ele>622.3333333333333</ele><time>2026-04-12T10:18:19.966Z</time></trkpt><trkpt lat="44.0602711" lon="11.290024"><ele>621.6666666666666</ele><time>2026-04-12T10:18:20.967Z</time></trkpt><trkpt lat="44.0604359" lon="11.290127"><ele>621.0</ele><time>2026-04-12T10:18:21.966Z</time></trkpt><trkpt lat="44.0605938" lon="11.2902167"><ele>621.0</ele><time>2026-04-12T10:18:22.967Z</time></trkpt><trkpt lat="44.0607713" lon="11.290275"><ele>621.0</ele><time>2026-04-12T10:18:23.966Z</time></trkpt><trkpt lat="44.0609753" lon="11.290284"><ele>621.0</ele><time>2026-04-12T10:18:24.966Z</time></trkpt><trkpt lat="44.0611907" lon="11.2902728"><ele>618.3333333333334</ele><time>2026-04-12T10:18:25.966Z</time></trkpt><trkpt lat="44.0613996" lon="11.2902644"><ele>615.6666666666667</ele><time>2026-04-12T10:18:26.966Z</time></trkpt><trkpt lat="44.0615844" lon="11.2902601"><ele>613.0</ele><time>2026-04-12T10:18:27.967Z</time></trkpt><trkpt lat="44.0617567" lon="11.2902645"><ele>611.3333333333334</ele><time>2026-04-12T10:18:28.966Z</time></trkpt><trkpt lat="44.0619188" lon="11.2902498"><ele>609.6666666666666</ele><time>2026-04-12T10:18:29.966Z</time></trkpt><trkpt lat="44.0620696" lon="11.2901914"><ele>608.0</ele><time>2026-04-12T10:18:30.966Z</time></trkpt><trkpt lat="44.0622116" lon="11.2900977"><ele>608.0</ele><time>2026-04-12T10:18:31.966Z</time></trkpt><trkpt lat="44.0623413" lon="11.2899678"><ele>608.0</ele><time>2026-04-12T10:18:32.966Z</time></trkpt><trkpt lat="44.0624418" lon="11.2897885"><ele>608.0</ele><time>2026-04-12T10:18:33.967Z</time></trkpt><trkpt lat="44.0625188" lon="11.2895877"><ele>603.75</ele><time>2026-04-12T10:18:34.966Z</time></trkpt><trkpt lat="44.0625893" lon="11.289412"><ele>599.5</ele><time>2026-04-12T10:18:35.967Z</time></trkpt><trkpt lat="44.0626774" lon="11.2892863"><ele>595.25</ele><time>2026-04-12T10:18:36.966Z</time></trkpt><trkpt lat="44.0627813" lon="11.2892061"><ele>591.0</ele><time>2026-04-12T10:18:37.966Z</time></trkpt><trkpt lat="44.0629011" lon="11.2891493"><ele>591.0</ele><time>2026-04-12T10:18:38.966Z</time></trkpt><trkpt lat="44.0630334" lon="11.2891352"><ele>591.0</ele><time>2026-04-12T10:18:39.967Z</time></trkpt><trkpt lat="44.0631666" lon="11.2891267"><ele>591.0</ele><time>2026-04-12T10:18:40.966Z</time></trkpt><trkpt lat="44.0633141" lon="11.2891178"><ele>591.0</ele><time>2026-04-12T10:18:41.966Z</time></trkpt><trkpt lat="44.0634597" lon="11.2891151"><ele>592.25</ele><time>2026-04-12T10:18:42.966Z</time></trkpt><trkpt lat="44.0636013" lon="11.2891069"><ele>593.5</ele><time>2026-04-12T10:18:43.966Z</time></trkpt><trkpt lat="44.0637295" lon="11.2890927"><ele>594.75</ele><time>2026-04-12T10:18:44.966Z</time></trkpt><trkpt lat="44.0638489" lon="11.2890804"><ele>596.0</ele><time>2026-04-12T10:18:45.967Z</time></trkpt><trkpt lat="44.0639562" lon="11.2890675"><ele>596.0</ele><time>2026-04-12T10:18:46.966Z</time></trkpt><trkpt lat="44.0640543" lon="11.2890608"><ele>596.0</ele><time>2026-04-12T10:18:47.967Z</time></trkpt><trkpt lat="44.0641442" lon="11.2890602"><ele>596.0</ele><time>2026-04-12T10:18:48.966Z</time></trkpt><trkpt lat="44.0642124" lon="11.2890575"><ele>596.0</ele><time>2026-04-12T10:18:49.966Z</time></trkpt><trkpt lat="44.0643244" lon="11.2890636"><ele>596.0</ele><time>2026-04-12T10:18:51.966Z</time></trkpt><trkpt lat="44.0644032" lon="11.2890731"><ele>596.0</ele><time>2026-04-12T10:18:54.967Z</time></trkpt><trkpt lat="44.0645522" lon="11.2891243"><ele>595.6</ele><time>2026-04-12T10:19:43.967Z</time></trkpt><trkpt lat="44.0646176" lon="11.2891607"><ele>595.2</ele><time>2026-04-12T10:19:46.075Z</time></trkpt><trkpt lat="44.0647688" lon="11.2892477"><ele>594.8</ele><time>2026-04-12T10:19:47.967Z</time></trkpt><trkpt lat="44.0648506" lon="11.2892989"><ele>594.4</ele><time>2026-04-12T10:19:48.967Z</time></trkpt><trkpt lat="44.0649403" lon="11.2893538"><ele>594.0</ele><time>2026-04-12T10:19:49.967Z</time></trkpt><trkpt lat="44.0650426" lon="11.2893987"><ele>592.0</ele><time>2026-04-12T10:19:50.967Z</time></trkpt><trkpt lat="44.0651543" lon="11.2894303"><ele>590.0</ele><time>2026-04-12T10:19:51.968Z</time></trkpt><trkpt lat="44.0652947" lon="11.2894422"><ele>588.0</ele><time>2026-04-12T10:19:52.967Z</time></trkpt><trkpt lat="44.0654489" lon="11.2894446"><ele>586.0</ele><time>2026-04-12T10:19:53.967Z</time></trkpt><trkpt lat="44.0656033" lon="11.2894377"><ele>586.0</ele><time>2026-04-12T10:19:54.967Z</time></trkpt><trkpt lat="44.0657515" lon="11.2894212"><ele>586.0</ele><time>2026-04-12T10:19:55.967Z</time></trkpt><trkpt lat="44.0658802" lon="11.2893823"><ele>586.0</ele><time>2026-04-12T10:19:56.967Z</time></trkpt><trkpt lat="44.0659917" lon="11.2893192"><ele>586.0</ele><time>2026-04-12T10:19:57.967Z</time></trkpt><trkpt lat="44.0660935" lon="11.2892315"><ele>585.2</ele><time>2026-04-12T10:19:58.967Z</time></trkpt><trkpt lat="44.06619" lon="11.2891316"><ele>584.4000000000001</ele><time>2026-04-12T10:19:59.968Z</time></trkpt><trkpt lat="44.0662833" lon="11.2890316"><ele>583.6</ele><time>2026-04-12T10:20:00.967Z</time></trkpt><trkpt lat="44.0663724" lon="11.2889399"><ele>582.8000000000001</ele><time>2026-04-12T10:20:01.967Z</time></trkpt><trkpt lat="44.0664507" lon="11.2888634"><ele>582.0</ele><time>2026-04-12T10:20:02.967Z</time></trkpt><trkpt lat="44.0665119" lon="11.288806"><ele>582.0</ele><time>2026-04-12T10:20:03.968Z</time></trkpt><trkpt lat="44.0665848" lon="11.2887409"><ele>582.0</ele><time>2026-04-12T10:20:05.967Z</time></trkpt><trkpt lat="44.0666404" lon="11.2886797"><ele>582.0</ele><time>2026-04-12T10:20:08.968Z</time></trkpt><trkpt lat="44.0667542" lon="11.2885524"><ele>582.0</ele><time>2026-04-12T10:20:10.967Z</time></trkpt><trkpt lat="44.066842" lon="11.2884665"><ele>582.0</ele><time>2026-04-12T10:20:11.968Z</time></trkpt><trkpt lat="44.0669432" lon="11.2883771"><ele>582.0</ele><time>2026-04-12T10:20:12.967Z</time></trkpt><trkpt lat="44.0670552" lon="11.2882901"><ele>582.0</ele><time>2026-04-12T10:20:13.967Z</time></trkpt><trkpt lat="44.0671738" lon="11.2882076"><ele>582.0</ele><time>2026-04-12T10:20:14.967Z</time></trkpt><trkpt lat="44.0672984" lon="11.2881326"><ele>582.0</ele><time>2026-04-12T10:20:15.968Z</time></trkpt><trkpt lat="44.0674268" lon="11.288066"><ele>578.75</ele><time>2026-04-12T10:20:16.967Z</time></trkpt><trkpt lat="44.0675576" lon="11.2880044"><ele>575.5</ele><time>2026-04-12T10:20:17.967Z</time></trkpt><trkpt lat="44.067691" lon="11.2879445"><ele>572.25</ele><time>2026-04-12T10:20:18.967Z</time></trkpt><trkpt lat="44.067825" lon="11.2878889"><ele>569.0</ele><time>2026-04-12T10:20:19.967Z</time></trkpt><trkpt lat="44.0679633" lon="11.2878448"><ele>569.0</ele><time>2026-04-12T10:20:20.967Z</time></trkpt><trkpt lat="44.0681081" lon="11.2878069"><ele>569.0</ele><time>2026-04-12T10:20:21.967Z</time></trkpt><trkpt lat="44.0682828" lon="11.2877964"><ele>569.0</ele><time>2026-04-12T10:20:22.967Z</time></trkpt><trkpt lat="44.0684701" lon="11.2877988"><ele>568.0</ele><time>2026-04-12T10:20:23.967Z</time></trkpt><trkpt lat="44.0686581" lon="11.2878063"><ele>567.0</ele><time>2026-04-12T10:20:24.967Z</time></trkpt><trkpt lat="44.068836" lon="11.2878131"><ele>566.0</ele><time>2026-04-12T10:20:25.967Z</time></trkpt><trkpt lat="44.0690044" lon="11.287821"><ele>566.0</ele><time>2026-04-12T10:20:26.967Z</time></trkpt><trkpt lat="44.0691674" lon="11.2878309"><ele>566.0</ele><time>2026-04-12T10:20:27.967Z</time></trkpt><trkpt lat="44.069317" lon="11.2878436"><ele>566.0</ele><time>2026-04-12T10:20:28.967Z</time></trkpt><trkpt lat="44.0694591" lon="11.2878542"><ele>566.0</ele><time>2026-04-12T10:20:29.967Z</time></trkpt><trkpt lat="44.0695879" lon="11.2878449"><ele>566.0</ele><time>2026-04-12T10:20:30.967Z</time></trkpt><trkpt lat="44.069698" lon="11.2877944"><ele>566.0</ele><time>2026-04-12T10:20:31.968Z</time></trkpt><trkpt lat="44.0697838" lon="11.2876984"><ele>566.0</ele><time>2026-04-12T10:20:32.967Z</time></trkpt><trkpt lat="44.0698432" lon="11.2875424"><ele>566.0</ele><time>2026-04-12T10:20:33.967Z</time></trkpt><trkpt lat="44.0698821" lon="11.2873237"><ele>566.0</ele><time>2026-04-12T10:20:34.967Z</time></trkpt><trkpt lat="44.0699188" lon="11.2870688"><ele>566.0</ele><time>2026-04-12T10:20:35.967Z</time></trkpt><trkpt lat="44.0699388" lon="11.2867916"><ele>565.6666666666666</ele><time>2026-04-12T10:20:36.968Z</time></trkpt><trkpt lat="44.0699588" lon="11.2865259"><ele>565.3333333333334</ele><time>2026-04-12T10:20:37.967Z</time></trkpt><trkpt lat="44.0699811" lon="11.2862682"><ele>565.0</ele><time>2026-04-12T10:20:38.967Z</time></trkpt><trkpt lat="44.0700045" lon="11.286024"><ele>565.0</ele><time>2026-04-12T10:20:39.967Z</time></trkpt><trkpt lat="44.070032" lon="11.2857952"><ele>565.0</ele><time>2026-04-12T10:20:40.967Z</time></trkpt><trkpt lat="44.0700738" lon="11.2855843"><ele>565.0</ele><time>2026-04-12T10:20:41.967Z</time></trkpt><trkpt lat="44.0701348" lon="11.2853967"><ele>562.0</ele><time>2026-04-12T10:20:42.967Z</time></trkpt><trkpt lat="44.0702173" lon="11.2852325"><ele>559.0</ele><time>2026-04-12T10:20:43.967Z</time></trkpt><trkpt lat="44.0703279" lon="11.2850845"><ele>556.0</ele><time>2026-04-12T10:20:44.967Z</time></trkpt><trkpt lat="44.0704659" lon="11.2849476"><ele>556.0</ele><time>2026-04-12T10:20:45.967Z</time></trkpt><trkpt lat="44.0706157" lon="11.2848203"><ele>556.0</ele><time>2026-04-12T10:20:46.967Z</time></trkpt><trkpt lat="44.0707594" lon="11.2847084"><ele>556.0</ele><time>2026-04-12T10:20:47.967Z</time></trkpt><trkpt lat="44.0708863" lon="11.2846098"><ele>559.6</ele><time>2026-04-12T10:20:48.967Z</time></trkpt><trkpt lat="44.0709953" lon="11.2845238"><ele>563.2</ele><time>2026-04-12T10:20:49.967Z</time></trkpt><trkpt lat="44.0710837" lon="11.2844402"><ele>566.8</ele><time>2026-04-12T10:20:50.967Z</time></trkpt><trkpt lat="44.0711426" lon="11.2843409"><ele>570.4</ele><time>2026-04-12T10:20:51.967Z</time></trkpt><trkpt lat="44.0711624" lon="11.2842245"><ele>574.0</ele><time>2026-04-12T10:20:52.968Z</time></trkpt><trkpt lat="44.0711462" lon="11.2841022"><ele>574.0</ele><time>2026-04-12T10:20:53.967Z</time></trkpt><trkpt lat="44.0711006" lon="11.2839895"><ele>574.0</ele><time>2026-04-12T10:20:54.967Z</time></trkpt><trkpt lat="44.0710288" lon="11.2839019"><ele>574.0</ele><time>2026-04-12T10:20:55.967Z</time></trkpt><trkpt lat="44.0709365" lon="11.2838485"><ele>574.0</ele><time>2026-04-12T10:20:56.967Z</time></trkpt><trkpt lat="44.0708274" lon="11.2838253"><ele>574.0</ele><time>2026-04-12T10:20:57.967Z</time></trkpt><trkpt lat="44.0707182" lon="11.2838217"><ele>574.8</ele><time>2026-04-12T10:20:58.967Z</time></trkpt><trkpt lat="44.0706141" lon="11.2838174"><ele>575.5999999999999</ele><time>2026-04-12T10:20:59.968Z</time></trkpt><trkpt lat="44.0705149" lon="11.2837905"><ele>576.4</ele><time>2026-04-12T10:21:00.967Z</time></trkpt><trkpt lat="44.0704195" lon="11.2837273"><ele>577.1999999999999</ele><time>2026-04-12T10:21:01.967Z</time></trkpt><trkpt lat="44.0703165" lon="11.283614"><ele>578.0</ele><time>2026-04-12T10:21:02.967Z</time></trkpt><trkpt lat="44.0701955" lon="11.2834503"><ele>578.0</ele><time>2026-04-12T10:21:03.967Z</time></trkpt><trkpt lat="44.0700525" lon="11.2832448"><ele>578.0</ele><time>2026-04-12T10:21:04.967Z</time></trkpt><trkpt lat="44.0699076" lon="11.2830311"><ele>578.0</ele><time>2026-04-12T10:21:05.967Z</time></trkpt><trkpt lat="44.0697688" lon="11.2828241"><ele>577.6666666666666</ele><time>2026-04-12T10:21:06.967Z</time></trkpt><trkpt lat="44.0696355" lon="11.2826175"><ele>577.3333333333334</ele><time>2026-04-12T10:21:07.967Z</time></trkpt><trkpt lat="44.0695056" lon="11.2824129"><ele>577.0</ele><time>2026-04-12T10:21:08.967Z</time></trkpt><trkpt lat="44.0693859" lon="11.2822221"><ele>578.0</ele><time>2026-04-12T10:21:09.967Z</time></trkpt><trkpt lat="44.069286" lon="11.2820575"><ele>579.0</ele><time>2026-04-12T10:21:10.967Z</time></trkpt><trkpt lat="44.0692125" lon="11.2819112"><ele>580.0</ele><time>2026-04-12T10:21:11.967Z</time></trkpt><trkpt lat="44.0691851" lon="11.2817741"><ele>581.0</ele><time>2026-04-12T10:21:12.967Z</time></trkpt><trkpt lat="44.0691997" lon="11.281637"><ele>581.0</ele><time>2026-04-12T10:21:13.967Z</time></trkpt><trkpt lat="44.0692272" lon="11.2814996"><ele>581.0</ele><time>2026-04-12T10:21:14.967Z</time></trkpt><trkpt lat="44.0693162" lon="11.2813841"><ele>581.0</ele><time>2026-04-12T10:21:15.967Z</time></trkpt><trkpt lat="44.0694097" lon="11.2813352"><ele>581.0</ele><time>2026-04-12T10:21:16.967Z</time></trkpt><trkpt lat="44.0695169" lon="11.2813453"><ele>581.0</ele><time>2026-04-12T10:21:17.967Z</time></trkpt><trkpt lat="44.0696477" lon="11.281407"><ele>581.0</ele><time>2026-04-12T10:21:18.968Z</time></trkpt><trkpt lat="44.0698058" lon="11.281506"><ele>581.0</ele><time>2026-04-12T10:21:19.967Z</time></trkpt><trkpt lat="44.0699775" lon="11.2816168"><ele>581.0</ele><time>2026-04-12T10:21:20.967Z</time></trkpt><trkpt lat="44.0701471" lon="11.2817202"><ele>583.75</ele><time>2026-04-12T10:21:21.967Z</time></trkpt><trkpt lat="44.0702989" lon="11.2818142"><ele>586.5</ele><time>2026-04-12T10:21:22.968Z</time></trkpt><trkpt lat="44.0704302" lon="11.2818951"><ele>589.25</ele><time>2026-04-12T10:21:23.967Z</time></trkpt><trkpt lat="44.0705456" lon="11.2819458"><ele>592.0</ele><time>2026-04-12T10:21:24.968Z</time></trkpt><trkpt lat="44.0706506" lon="11.2819414"><ele>592.0</ele><time>2026-04-12T10:21:25.967Z</time></trkpt><trkpt lat="44.0707543" lon="11.2818763"><ele>592.0</ele><time>2026-04-12T10:21:26.967Z</time></trkpt><trkpt lat="44.0708495" lon="11.2817366"><ele>592.0</ele><time>2026-04-12T10:21:27.967Z</time></trkpt><trkpt lat="44.070929" lon="11.2815369"><ele>592.0</ele><time>2026-04-12T10:21:28.967Z</time></trkpt><trkpt lat="44.0709871" lon="11.2813211"><ele>598.0</ele><time>2026-04-12T10:21:29.967Z</time></trkpt><trkpt lat="44.0710215" lon="11.2811044"><ele>604.0</ele><time>2026-04-12T10:21:30.967Z</time></trkpt><trkpt lat="44.0710252" lon="11.2808705"><ele>610.0</ele><time>2026-04-12T10:21:31.968Z</time></trkpt><trkpt lat="44.0709997" lon="11.2806194"><ele>612.0</ele><time>2026-04-12T10:21:32.968Z</time></trkpt><trkpt lat="44.0709555" lon="11.2803577"><ele>614.0</ele><time>2026-04-12T10:21:33.967Z</time></trkpt><trkpt lat="44.0709035" lon="11.280083"><ele>616.0</ele><time>2026-04-12T10:21:34.967Z</time></trkpt><trkpt lat="44.0708516" lon="11.2798096"><ele>615.6666666666667</ele><time>2026-04-12T10:21:35.967Z</time></trkpt><trkpt lat="44.0708036" lon="11.2795304"><ele>615.3333333333334</ele><time>2026-04-12T10:21:36.967Z</time></trkpt><trkpt lat="44.0707702" lon="11.2792343"><ele>615.0</ele><time>2026-04-12T10:21:37.967Z</time></trkpt><trkpt lat="44.0707477" lon="11.2789219"><ele>615.0</ele><time>2026-04-12T10:21:38.967Z</time></trkpt><trkpt lat="44.0707197" lon="11.2785953"><ele>615.0</ele><time>2026-04-12T10:21:39.968Z</time></trkpt><trkpt lat="44.0706823" lon="11.2782645"><ele>618.0</ele><time>2026-04-12T10:21:40.968Z</time></trkpt><trkpt lat="44.0706418" lon="11.2779401"><ele>621.0</ele><time>2026-04-12T10:21:41.968Z</time></trkpt><trkpt lat="44.0705915" lon="11.2776287"><ele>621.0</ele><time>2026-04-12T10:21:42.968Z</time></trkpt><trkpt lat="44.0705266" lon="11.277327"><ele>621.0</ele><time>2026-04-12T10:21:43.968Z</time></trkpt><trkpt lat="44.0704551" lon="11.277035"><ele>621.0</ele><time>2026-04-12T10:21:44.968Z</time></trkpt><trkpt lat="44.0703925" lon="11.2767617"><ele>624.3333333333334</ele><time>2026-04-12T10:21:45.969Z</time></trkpt><trkpt lat="44.0703375" lon="11.2765154"><ele>627.6666666666667</ele><time>2026-04-12T10:21:46.969Z</time></trkpt><trkpt lat="44.070297" lon="11.2762964"><ele>631.0</ele><time>2026-04-12T10:21:47.968Z</time></trkpt><trkpt lat="44.0702664" lon="11.2760917"><ele>633.6666666666667</ele><time>2026-04-12T10:21:48.968Z</time></trkpt><trkpt lat="44.0702546" lon="11.2758899"><ele>636.3333333333334</ele><time>2026-04-12T10:21:49.968Z</time></trkpt><trkpt lat="44.0702771" lon="11.2756845"><ele>639.0</ele><time>2026-04-12T10:21:50.969Z</time></trkpt><trkpt lat="44.0703332" lon="11.2754685"><ele>639.0</ele><time>2026-04-12T10:21:51.968Z</time></trkpt><trkpt lat="44.0704145" lon="11.275225"><ele>639.0</ele><time>2026-04-12T10:21:52.968Z</time></trkpt><trkpt lat="44.0705131" lon="11.274973"><ele>639.0</ele><time>2026-04-12T10:21:53.968Z</time></trkpt><trkpt lat="44.0706076" lon="11.2747178"><ele>639.0</ele><time>2026-04-12T10:21:54.968Z</time></trkpt><trkpt lat="44.0707024" lon="11.2744772"><ele>639.0</ele><time>2026-04-12T10:21:55.968Z</time></trkpt><trkpt lat="44.0707936" lon="11.2742524"><ele>639.0</ele><time>2026-04-12T10:21:56.969Z</time></trkpt><trkpt lat="44.0708856" lon="11.2740409"><ele>644.6666666666666</ele><time>2026-04-12T10:21:57.969Z</time></trkpt><trkpt lat="44.0709861" lon="11.2738513"><ele>650.3333333333333</ele><time>2026-04-12T10:21:58.968Z</time></trkpt><trkpt lat="44.0710756" lon="11.2736639"><ele>656.0</ele><time>2026-04-12T10:21:59.968Z</time></trkpt><trkpt lat="44.071155" lon="11.2734795"><ele>656.0</ele><time>2026-04-12T10:22:00.968Z</time></trkpt><trkpt lat="44.0712149" lon="11.2732832"><ele>656.0</ele><time>2026-04-12T10:22:01.968Z</time></trkpt><trkpt lat="44.0712454" lon="11.2730557"><ele>656.0</ele><time>2026-04-12T10:22:02.968Z</time></trkpt><trkpt lat="44.071249" lon="11.2728045"><ele>657.3333333333333</ele><time>2026-04-12T10:22:03.968Z</time></trkpt><trkpt lat="44.0712451" lon="11.2725418"><ele>658.6666666666666</ele><time>2026-04-12T10:22:04.968Z</time></trkpt><trkpt lat="44.0712456" lon="11.2722877"><ele>660.0</ele><time>2026-04-12T10:22:05.968Z</time></trkpt><trkpt lat="44.0712507" lon="11.272031"><ele>661.6666666666666</ele><time>2026-04-12T10:22:06.968Z</time></trkpt><trkpt lat="44.0712505" lon="11.2717897"><ele>663.3333333333333</ele><time>2026-04-12T10:22:07.968Z</time></trkpt><trkpt lat="44.0712566" lon="11.2715634"><ele>665.0</ele><time>2026-04-12T10:22:08.969Z</time></trkpt><trkpt lat="44.0712567" lon="11.2713531"><ele>666.5</ele><time>2026-04-12T10:22:09.968Z</time></trkpt><trkpt lat="44.0712487" lon="11.2711583"><ele>668.0</ele><time>2026-04-12T10:22:10.969Z</time></trkpt><trkpt lat="44.0712321" lon="11.2709854"><ele>669.5</ele><time>2026-04-12T10:22:11.968Z</time></trkpt><trkpt lat="44.0712103" lon="11.2708304"><ele>671.0</ele><time>2026-04-12T10:22:12.968Z</time></trkpt><trkpt lat="44.0711959" lon="11.2707036"><ele>671.0</ele><time>2026-04-12T10:22:13.968Z</time></trkpt><trkpt lat="44.0711812" lon="11.2705977"><ele>671.0</ele><time>2026-04-12T10:22:14.969Z</time></trkpt><trkpt lat="44.0711934" lon="11.2704548"><ele>671.0</ele><time>2026-04-12T10:22:16.968Z</time></trkpt><trkpt lat="44.0712578" lon="11.2704082"><ele>671.0</ele><time>2026-04-12T10:22:18.968Z</time></trkpt><trkpt lat="44.071342" lon="11.270488"><ele>671.0</ele><time>2026-04-12T10:22:20.968Z</time></trkpt><trkpt lat="44.0713928" lon="11.2705623"><ele>671.0</ele><time>2026-04-12T10:22:21.969Z</time></trkpt><trkpt lat="44.0714641" lon="11.27068"><ele>671.0</ele><time>2026-04-12T10:22:22.968Z</time></trkpt><trkpt lat="44.0715535" lon="11.2708306"><ele>671.0</ele><time>2026-04-12T10:22:23.968Z</time></trkpt><trkpt lat="44.0716392" lon="11.2709708"><ele>671.0</ele><time>2026-04-12T10:22:24.968Z</time></trkpt><trkpt lat="44.0717338" lon="11.2710902"><ele>671.0</ele><time>2026-04-12T10:22:25.968Z</time></trkpt><trkpt lat="44.0718401" lon="11.2711972"><ele>673.25</ele><time>2026-04-12T10:22:26.968Z</time></trkpt><trkpt lat="44.0719581" lon="11.2713068"><ele>675.5</ele><time>2026-04-12T10:22:27.969Z</time></trkpt><trkpt lat="44.0720865" lon="11.2714244"><ele>677.75</ele><time>2026-04-12T10:22:28.968Z</time></trkpt><trkpt lat="44.0722129" lon="11.2715363"><ele>680.0</ele><time>2026-04-12T10:22:29.969Z</time></trkpt><trkpt lat="44.0723193" lon="11.2716328"><ele>680.0</ele><time>2026-04-12T10:22:30.968Z</time></trkpt><trkpt lat="44.0724223" lon="11.2717126"><ele>680.0</ele><time>2026-04-12T10:22:31.968Z</time></trkpt><trkpt lat="44.0725327" lon="11.2717396"><ele>680.0</ele><time>2026-04-12T10:22:32.968Z</time></trkpt><trkpt lat="44.0726483" lon="11.2717087"><ele>680.0</ele><time>2026-04-12T10:22:33.969Z</time></trkpt><trkpt lat="44.0727374" lon="11.2716033"><ele>683.6666666666666</ele><time>2026-04-12T10:22:34.968Z</time></trkpt><trkpt lat="44.072798" lon="11.2714418"><ele>687.3333333333334</ele><time>2026-04-12T10:22:35.968Z</time></trkpt><trkpt lat="44.0728165" lon="11.2712295"><ele>691.0</ele><time>2026-04-12T10:22:36.969Z</time></trkpt><trkpt lat="44.0728127" lon="11.2709782"><ele>692.3333333333334</ele><time>2026-04-12T10:22:37.968Z</time></trkpt><trkpt lat="44.0728028" lon="11.2707311"><ele>693.6666666666666</ele><time>2026-04-12T10:22:38.968Z</time></trkpt><trkpt lat="44.0727984" lon="11.2705205"><ele>695.0</ele><time>2026-04-12T10:22:39.968Z</time></trkpt><trkpt lat="44.0728005" lon="11.2703522"><ele>695.0</ele><time>2026-04-12T10:22:40.968Z</time></trkpt><trkpt lat="44.0728233" lon="11.2702271"><ele>695.0</ele><time>2026-04-12T10:22:41.968Z</time></trkpt><trkpt lat="44.0728833" lon="11.2701402"><ele>695.0</ele><time>2026-04-12T10:22:42.968Z</time></trkpt><trkpt lat="44.0729665" lon="11.2700901"><ele>695.0</ele><time>2026-04-12T10:22:43.969Z</time></trkpt><trkpt lat="44.0730811" lon="11.2700939"><ele>695.0</ele><time>2026-04-12T10:22:44.968Z</time></trkpt><trkpt lat="44.0732015" lon="11.2701"><ele>697.0</ele><time>2026-04-12T10:22:45.969Z</time></trkpt><trkpt lat="44.0733187" lon="11.27015"><ele>699.0</ele><time>2026-04-12T10:22:46.968Z</time></trkpt><trkpt lat="44.0734379" lon="11.2702525"><ele>701.0</ele><time>2026-04-12T10:22:47.968Z</time></trkpt><trkpt lat="44.0735628" lon="11.270371"><ele>703.0</ele><time>2026-04-12T10:22:48.968Z</time></trkpt><trkpt lat="44.0736844" lon="11.2705182"><ele>703.3333333333334</ele><time>2026-04-12T10:22:49.969Z</time></trkpt><trkpt lat="44.073793" lon="11.2706914"><ele>703.6666666666666</ele><time>2026-04-12T10:22:50.968Z</time></trkpt><trkpt lat="44.0738793" lon="11.2708821"><ele>704.0</ele><time>2026-04-12T10:22:51.969Z</time></trkpt><trkpt lat="44.0739507" lon="11.2711033"><ele>704.0</ele><time>2026-04-12T10:22:52.968Z</time></trkpt><trkpt lat="44.0739988" lon="11.2713519"><ele>704.0</ele><time>2026-04-12T10:22:53.968Z</time></trkpt><trkpt lat="44.0740384" lon="11.2716186"><ele>704.0</ele><time>2026-04-12T10:22:54.968Z</time></trkpt><trkpt lat="44.0740669" lon="11.2719062"><ele>703.3333333333333</ele><time>2026-04-12T10:22:55.968Z</time></trkpt><trkpt lat="44.0740869" lon="11.2721719"><ele>702.6666666666666</ele><time>2026-04-12T10:22:56.969Z</time></trkpt><trkpt lat="44.0741102" lon="11.2724137"><ele>702.0</ele><time>2026-04-12T10:22:57.968Z</time></trkpt><trkpt lat="44.0741224" lon="11.2726256"><ele>705.25</ele><time>2026-04-12T10:22:58.968Z</time></trkpt><trkpt lat="44.0741278" lon="11.2728234"><ele>708.5</ele><time>2026-04-12T10:22:59.968Z</time></trkpt><trkpt lat="44.0741081" lon="11.2730184"><ele>711.75</ele><time>2026-04-12T10:23:00.968Z</time></trkpt><trkpt lat="44.0740642" lon="11.2732088"><ele>715.0</ele><time>2026-04-12T10:23:01.969Z</time></trkpt><trkpt lat="44.074007" lon="11.2733923"><ele>715.0</ele><time>2026-04-12T10:23:02.968Z</time></trkpt><trkpt lat="44.0739501" lon="11.2735632"><ele>715.0</ele><time>2026-04-12T10:23:03.968Z</time></trkpt><trkpt lat="44.0739097" lon="11.273715"><ele>715.0</ele><time>2026-04-12T10:23:04.968Z</time></trkpt><trkpt lat="44.0738957" lon="11.2738651"><ele>715.0</ele><time>2026-04-12T10:23:05.968Z</time></trkpt><trkpt lat="44.0739215" lon="11.2740275"><ele>716.0</ele><time>2026-04-12T10:23:06.968Z</time></trkpt><trkpt lat="44.0739701" lon="11.2741774"><ele>717.0</ele><time>2026-04-12T10:23:07.968Z</time></trkpt><trkpt lat="44.0740431" lon="11.2743097"><ele>718.0</ele><time>2026-04-12T10:23:08.968Z</time></trkpt><trkpt lat="44.074123" lon="11.2744319"><ele>719.0</ele><time>2026-04-12T10:23:09.968Z</time></trkpt><trkpt lat="44.0742065" lon="11.2745565"><ele>722.5</ele><time>2026-04-12T10:23:10.968Z</time></trkpt><trkpt lat="44.0742885" lon="11.2746909"><ele>726.0</ele><time>2026-04-12T10:23:11.97Z</time></trkpt><trkpt lat="44.0743689" lon="11.2748236"><ele>729.5</ele><time>2026-04-12T10:23:12.969Z</time></trkpt><trkpt lat="44.074458" lon="11.2749348"><ele>733.0</ele><time>2026-04-12T10:23:13.968Z</time></trkpt><trkpt lat="44.0745639" lon="11.2750228"><ele>733.0</ele><time>2026-04-12T10:23:14.968Z</time></trkpt><trkpt lat="44.07467" lon="11.2750912"><ele>733.0</ele><time>2026-04-12T10:23:15.968Z</time></trkpt><trkpt lat="44.0747738" lon="11.2751505"><ele>733.0</ele><time>2026-04-12T10:23:16.968Z</time></trkpt><trkpt lat="44.0748777" lon="11.2752134"><ele>733.0</ele><time>2026-04-12T10:23:17.968Z</time></trkpt><trkpt lat="44.0749717" lon="11.2752929"><ele>736.0</ele><time>2026-04-12T10:23:18.968Z</time></trkpt><trkpt lat="44.0750657" lon="11.2754205"><ele>739.0</ele><time>2026-04-12T10:23:19.968Z</time></trkpt><trkpt lat="44.0751494" lon="11.2755939"><ele>742.0</ele><time>2026-04-12T10:23:20.968Z</time></trkpt><trkpt lat="44.0752069" lon="11.2758001"><ele>745.0</ele><time>2026-04-12T10:23:21.968Z</time></trkpt><trkpt lat="44.0752724" lon="11.2759806"><ele>745.0</ele><time>2026-04-12T10:23:22.969Z</time></trkpt><trkpt lat="44.075352" lon="11.2761357"><ele>745.0</ele><time>2026-04-12T10:23:23.969Z</time></trkpt><trkpt lat="44.075442" lon="11.2762808"><ele>745.0</ele><time>2026-04-12T10:23:24.968Z</time></trkpt><trkpt lat="44.0755314" lon="11.2764056"><ele>745.0</ele><time>2026-04-12T10:23:25.968Z</time></trkpt><trkpt lat="44.0756237" lon="11.2765216"><ele>745.0</ele><time>2026-04-12T10:23:26.968Z</time></trkpt><trkpt lat="44.0757069" lon="11.2766287"><ele>745.0</ele><time>2026-04-12T10:23:27.969Z</time></trkpt><trkpt lat="44.0757779" lon="11.2767388"><ele>745.0</ele><time>2026-04-12T10:23:28.968Z</time></trkpt><trkpt lat="44.075828" lon="11.2768694"><ele>745.0</ele><time>2026-04-12T10:23:29.968Z</time></trkpt><trkpt lat="44.0758501" lon="11.2770191"><ele>745.0</ele><time>2026-04-12T10:23:30.969Z</time></trkpt><trkpt lat="44.0758383" lon="11.277172"><ele>750.75</ele><time>2026-04-12T10:23:31.968Z</time></trkpt><trkpt lat="44.075814" lon="11.2773194"><ele>756.5</ele><time>2026-04-12T10:23:32.969Z</time></trkpt><trkpt lat="44.0757766" lon="11.277464"><ele>762.25</ele><time>2026-04-12T10:23:33.969Z</time></trkpt><trkpt lat="44.0757716" lon="11.2776229"><ele>768.0</ele><time>2026-04-12T10:23:34.969Z</time></trkpt><trkpt lat="44.0757977" lon="11.277788"><ele>768.0</ele><time>2026-04-12T10:23:35.969Z</time></trkpt><trkpt lat="44.0758396" lon="11.2779662"><ele>768.0</ele><time>2026-04-12T10:23:36.969Z</time></trkpt><trkpt lat="44.0758738" lon="11.2781665"><ele>768.0</ele><time>2026-04-12T10:23:37.969Z</time></trkpt><trkpt lat="44.0758819" lon="11.278393"><ele>768.0</ele><time>2026-04-12T10:23:38.97Z</time></trkpt><trkpt lat="44.0758716" lon="11.2786315"><ele>767.6666666666666</ele><time>2026-04-12T10:23:39.969Z</time></trkpt><trkpt lat="44.0758567" lon="11.2788691"><ele>767.3333333333333</ele><time>2026-04-12T10:23:40.969Z</time></trkpt><trkpt lat="44.0758378" lon="11.2791015"><ele>767.0</ele><time>2026-04-12T10:23:41.969Z</time></trkpt><trkpt lat="44.0758217" lon="11.2793253"><ele>766.75</ele><time>2026-04-12T10:23:42.969Z</time></trkpt><trkpt lat="44.0758058" lon="11.2795429"><ele>766.5</ele><time>2026-04-12T10:23:43.969Z</time></trkpt><trkpt lat="44.0757953" lon="11.2797497"><ele>766.25</ele><time>2026-04-12T10:23:44.969Z</time></trkpt><trkpt lat="44.0757899" lon="11.2799431"><ele>766.0</ele><time>2026-04-12T10:23:45.969Z</time></trkpt><trkpt lat="44.0757966" lon="11.2801164"><ele>765.75</ele><time>2026-04-12T10:23:46.97Z</time></trkpt><trkpt lat="44.0758272" lon="11.2802754"><ele>765.5</ele><time>2026-04-12T10:23:47.969Z</time></trkpt><trkpt lat="44.0758904" lon="11.2804178"><ele>765.25</ele><time>2026-04-12T10:23:48.969Z</time></trkpt><trkpt lat="44.0759825" lon="11.2805404"><ele>765.0</ele><time>2026-04-12T10:23:49.969Z</time></trkpt><trkpt lat="44.0760966" lon="11.2806313"><ele>762.25</ele><time>2026-04-12T10:23:50.97Z</time></trkpt><trkpt lat="44.0762237" lon="11.2806912"><ele>759.5</ele><time>2026-04-12T10:23:51.969Z</time></trkpt><trkpt lat="44.0763496" lon="11.2807277"><ele>756.75</ele><time>2026-04-12T10:23:52.969Z</time></trkpt><trkpt lat="44.0764648" lon="11.2807571"><ele>754.0</ele><time>2026-04-12T10:23:53.969Z</time></trkpt><trkpt lat="44.0765731" lon="11.280797"><ele>756.75</ele><time>2026-04-12T10:23:54.969Z</time></trkpt><trkpt lat="44.0766803" lon="11.2808472"><ele>759.5</ele><time>2026-04-12T10:23:55.969Z</time></trkpt><trkpt lat="44.0767774" lon="11.2809354"><ele>762.25</ele><time>2026-04-12T10:23:56.969Z</time></trkpt><trkpt lat="44.0768686" lon="11.2810402"><ele>765.0</ele><time>2026-04-12T10:23:57.969Z</time></trkpt><trkpt lat="44.0769612" lon="11.2811461"><ele>765.0</ele><time>2026-04-12T10:23:58.969Z</time></trkpt><trkpt lat="44.077065" lon="11.2812402"><ele>765.0</ele><time>2026-04-12T10:23:59.969Z</time></trkpt><trkpt lat="44.0771676" lon="11.2813108"><ele>765.0</ele><time>2026-04-12T10:24:00.969Z</time></trkpt><trkpt lat="44.077263" lon="11.2813627"><ele>765.0</ele><time>2026-04-12T10:24:01.97Z</time></trkpt><trkpt lat="44.0773502" lon="11.2814053"><ele>765.0</ele><time>2026-04-12T10:24:02.97Z</time></trkpt><trkpt lat="44.0774328" lon="11.2814465"><ele>764.75</ele><time>2026-04-12T10:24:03.969Z</time></trkpt><trkpt lat="44.0775258" lon="11.2814885"><ele>764.5</ele><time>2026-04-12T10:24:04.969Z</time></trkpt><trkpt lat="44.0776477" lon="11.2815362"><ele>764.25</ele><time>2026-04-12T10:24:05.969Z</time></trkpt><trkpt lat="44.0778042" lon="11.2816014"><ele>764.0</ele><time>2026-04-12T10:24:06.969Z</time></trkpt><trkpt lat="44.0779869" lon="11.2816889"><ele>764.0</ele><time>2026-04-12T10:24:07.969Z</time></trkpt><trkpt lat="44.0781751" lon="11.2817888"><ele>764.0</ele><time>2026-04-12T10:24:08.969Z</time></trkpt><trkpt lat="44.0783545" lon="11.2818862"><ele>764.0</ele><time>2026-04-12T10:24:09.969Z</time></trkpt><trkpt lat="44.0785263" lon="11.2819712"><ele>767.3333333333333</ele><time>2026-04-12T10:24:10.97Z</time></trkpt><trkpt lat="44.0786999" lon="11.2820332"><ele>770.6666666666666</ele><time>2026-04-12T10:24:11.969Z</time></trkpt><trkpt lat="44.0788854" lon="11.2820653"><ele>774.0</ele><time>2026-04-12T10:24:12.969Z</time></trkpt><trkpt lat="44.0790929" lon="11.2820668"><ele>783.0</ele><time>2026-04-12T10:24:13.969Z</time></trkpt><trkpt lat="44.0793248" lon="11.2820455"><ele>792.0</ele><time>2026-04-12T10:24:14.97Z</time></trkpt><trkpt lat="44.0795679" lon="11.2820214"><ele>792.0</ele><time>2026-04-12T10:24:15.97Z</time></trkpt><trkpt lat="44.0798196" lon="11.2819966"><ele>792.0</ele><time>2026-04-12T10:24:16.969Z</time></trkpt><trkpt lat="44.0800519" lon="11.2819786"><ele>796.6666666666667</ele><time>2026-04-12T10:24:17.969Z</time></trkpt><trkpt lat="44.0802687" lon="11.2819611"><ele>801.3333333333334</ele><time>2026-04-12T10:24:18.969Z</time></trkpt><trkpt lat="44.0804679" lon="11.2819396"><ele>806.0</ele><time>2026-04-12T10:24:19.969Z</time></trkpt><trkpt lat="44.0806598" lon="11.2819041"><ele>807.0</ele><time>2026-04-12T10:24:20.97Z</time></trkpt><trkpt lat="44.0808546" lon="11.2818404"><ele>808.0</ele><time>2026-04-12T10:24:21.969Z</time></trkpt><trkpt lat="44.0810334" lon="11.2817682"><ele>809.0</ele><time>2026-04-12T10:24:22.969Z</time></trkpt><trkpt lat="44.0811984" lon="11.2816939"><ele>809.0</ele><time>2026-04-12T10:24:23.969Z</time></trkpt><trkpt lat="44.0813536" lon="11.2815717"><ele>809.0</ele><time>2026-04-12T10:24:24.97Z</time></trkpt><trkpt lat="44.0815023" lon="11.2814109"><ele>809.0</ele><time>2026-04-12T10:24:25.969Z</time></trkpt><trkpt lat="44.0816413" lon="11.2812435"><ele>813.0</ele><time>2026-04-12T10:24:26.97Z</time></trkpt><trkpt lat="44.0817591" lon="11.2810967"><ele>817.0</ele><time>2026-04-12T10:24:27.969Z</time></trkpt><trkpt lat="44.0818613" lon="11.2810016"><ele>821.0</ele><time>2026-04-12T10:24:28.969Z</time></trkpt><trkpt lat="44.0819572" lon="11.2809361"><ele>825.0</ele><time>2026-04-12T10:24:29.969Z</time></trkpt><trkpt lat="44.0820668" lon="11.2809317"><ele>825.0</ele><time>2026-04-12T10:24:30.969Z</time></trkpt><trkpt lat="44.0821746" lon="11.2809682"><ele>825.0</ele><time>2026-04-12T10:24:31.969Z</time></trkpt><trkpt lat="44.0822821" lon="11.2810645"><ele>825.0</ele><time>2026-04-12T10:24:32.97Z</time></trkpt><trkpt lat="44.0823524" lon="11.2812047"><ele>825.0</ele><time>2026-04-12T10:24:33.969Z</time></trkpt><trkpt lat="44.0823909" lon="11.281383"><ele>817.3333333333333</ele><time>2026-04-12T10:24:34.969Z</time></trkpt><trkpt lat="44.0823959" lon="11.2816115"><ele>809.6666666666666</ele><time>2026-04-12T10:24:35.97Z</time></trkpt><trkpt lat="44.0823978" lon="11.2818732"><ele>802.0</ele><time>2026-04-12T10:24:36.969Z</time></trkpt><trkpt lat="44.0824045" lon="11.2821489"><ele>808.3333333333333</ele><time>2026-04-12T10:24:37.969Z</time></trkpt><trkpt lat="44.0824577" lon="11.282426"><ele>814.6666666666667</ele><time>2026-04-12T10:24:38.97Z</time></trkpt><trkpt lat="44.0825459" lon="11.2827126"><ele>821.0</ele><time>2026-04-12T10:24:39.969Z</time></trkpt><trkpt lat="44.0826578" lon="11.2829551"><ele>821.0</ele><time>2026-04-12T10:24:40.97Z</time></trkpt><trkpt lat="44.0827522" lon="11.2831494"><ele>821.0</ele><time>2026-04-12T10:24:41.969Z</time></trkpt><trkpt lat="44.0828248" lon="11.2833109"><ele>821.0</ele><time>2026-04-12T10:24:42.97Z</time></trkpt><trkpt lat="44.0828975" lon="11.2834125"><ele>821.0</ele><time>2026-04-12T10:24:43.97Z</time></trkpt><trkpt lat="44.0829637" lon="11.2834051"><ele>821.0</ele><time>2026-04-12T10:24:44.969Z</time></trkpt><trkpt lat="44.0830189" lon="11.283249"><ele>821.0</ele><time>2026-04-12T10:24:46.969Z</time></trkpt><trkpt lat="44.0829865" lon="11.2830851"><ele>821.0</ele><time>2026-04-12T10:24:47.969Z</time></trkpt><trkpt lat="44.0829262" lon="11.2828923"><ele>821.0</ele><time>2026-04-12T10:24:48.969Z</time></trkpt><trkpt lat="44.0828596" lon="11.2826772"><ele>821.0</ele><time>2026-04-12T10:24:49.969Z</time></trkpt><trkpt lat="44.0828083" lon="11.2824281"><ele>821.0</ele><time>2026-04-12T10:24:50.97Z</time></trkpt><trkpt lat="44.0827724" lon="11.2821802"><ele>821.0</ele><time>2026-04-12T10:24:51.97Z</time></trkpt><trkpt lat="44.0827544" lon="11.2819959"><ele>820.8</ele><time>2026-04-12T10:24:52.97Z</time></trkpt><trkpt lat="44.082763" lon="11.2818757"><ele>820.5999999999999</ele><time>2026-04-12T10:24:53.969Z</time></trkpt><trkpt lat="44.0828049" lon="11.2817867"><ele>820.4</ele><time>2026-04-12T10:24:54.969Z</time></trkpt><trkpt lat="44.0828829" lon="11.2817269"><ele>820.2</ele><time>2026-04-12T10:24:55.969Z</time></trkpt><trkpt lat="44.082991" lon="11.2816669"><ele>820.0</ele><time>2026-04-12T10:24:56.969Z</time></trkpt><trkpt lat="44.0830715" lon="11.2815447"><ele>819.8</ele><time>2026-04-12T10:24:57.969Z</time></trkpt><trkpt lat="44.0831285" lon="11.2813801"><ele>819.6</ele><time>2026-04-12T10:24:58.969Z</time></trkpt><trkpt lat="44.0831652" lon="11.2812228"><ele>819.4000000000001</ele><time>2026-04-12T10:24:59.969Z</time></trkpt><trkpt lat="44.0832145" lon="11.2811323"><ele>819.2</ele><time>2026-04-12T10:25:00.969Z</time></trkpt><trkpt lat="44.0832928" lon="11.2811028"><ele>819.0</ele><time>2026-04-12T10:25:01.969Z</time></trkpt><trkpt lat="44.0833878" lon="11.2811364"><ele>823.3333333333333</ele><time>2026-04-12T10:25:02.969Z</time></trkpt><trkpt lat="44.0835136" lon="11.2811984"><ele>827.6666666666666</ele><time>2026-04-12T10:25:03.97Z</time></trkpt><trkpt lat="44.0836667" lon="11.2812701"><ele>832.0</ele><time>2026-04-12T10:25:04.969Z</time></trkpt><trkpt lat="44.083833" lon="11.281353"><ele>837.0</ele><time>2026-04-12T10:25:05.969Z</time></trkpt><trkpt lat="44.0839801" lon="11.2814466"><ele>842.0</ele><time>2026-04-12T10:25:06.97Z</time></trkpt><trkpt lat="44.0841057" lon="11.2815701"><ele>847.0</ele><time>2026-04-12T10:25:07.969Z</time></trkpt><trkpt lat="44.084203" lon="11.2817067"><ele>848.6</ele><time>2026-04-12T10:25:08.969Z</time></trkpt><trkpt lat="44.0842961" lon="11.2817945"><ele>850.2</ele><time>2026-04-12T10:25:09.969Z</time></trkpt><trkpt lat="44.0843851" lon="11.2818009"><ele>851.8</ele><time>2026-04-12T10:25:10.97Z</time></trkpt><trkpt lat="44.0844603" lon="11.2817416"><ele>853.4</ele><time>2026-04-12T10:25:11.969Z</time></trkpt><trkpt lat="44.0845035" lon="11.2816309"><ele>855.0</ele><time>2026-04-12T10:25:12.969Z</time></trkpt><trkpt lat="44.0845104" lon="11.2814959"><ele>851.25</ele><time>2026-04-12T10:25:13.97Z</time></trkpt><trkpt lat="44.0845308" lon="11.2813694"><ele>847.5</ele><time>2026-04-12T10:25:14.969Z</time></trkpt><trkpt lat="44.0846041" lon="11.2812734"><ele>843.75</ele><time>2026-04-12T10:25:15.969Z</time></trkpt><trkpt lat="44.0847274" lon="11.2811985"><ele>840.0</ele><time>2026-04-12T10:25:16.969Z</time></trkpt><trkpt lat="44.0848472" lon="11.281143"><ele>842.0</ele><time>2026-04-12T10:25:17.97Z</time></trkpt><trkpt lat="44.0849381" lon="11.2811358"><ele>844.0</ele><time>2026-04-12T10:25:18.969Z</time></trkpt><trkpt lat="44.0850126" lon="11.2811753"><ele>846.0</ele><time>2026-04-12T10:25:19.971Z</time></trkpt><trkpt lat="44.085061" lon="11.2812961"><ele>848.0</ele><time>2026-04-12T10:25:20.969Z</time></trkpt><trkpt lat="44.0851298" lon="11.2814156"><ele>850.0</ele><time>2026-04-12T10:25:21.969Z</time></trkpt><trkpt lat="44.085239" lon="11.2815005"><ele>855.6666666666666</ele><time>2026-04-12T10:25:22.97Z</time></trkpt><trkpt lat="44.0854025" lon="11.2815474"><ele>861.3333333333333</ele><time>2026-04-12T10:25:23.97Z</time></trkpt><trkpt lat="44.085578" lon="11.2815954"><ele>867.0</ele><time>2026-04-12T10:25:24.97Z</time></trkpt><trkpt lat="44.0857397" lon="11.2816841"><ele>868.5</ele><time>2026-04-12T10:25:25.97Z</time></trkpt><trkpt lat="44.0858678" lon="11.2818188"><ele>870.0</ele><time>2026-04-12T10:25:26.97Z</time></trkpt><trkpt lat="44.0859645" lon="11.2819617"><ele>871.5</ele><time>2026-04-12T10:25:27.971Z</time></trkpt><trkpt lat="44.0860343" lon="11.282059"><ele>873.0</ele><time>2026-04-12T10:25:28.97Z</time></trkpt><trkpt lat="44.0861112" lon="11.2820754"><ele>873.0</ele><time>2026-04-12T10:25:29.97Z</time></trkpt><trkpt lat="44.0861772" lon="11.2820201"><ele>873.0</ele><time>2026-04-12T10:25:30.97Z</time></trkpt><trkpt lat="44.0862223" lon="11.2819011"><ele>873.0</ele><time>2026-04-12T10:25:31.97Z</time></trkpt><trkpt lat="44.0862555" lon="11.28174"><ele>873.0</ele><time>2026-04-12T10:25:32.97Z</time></trkpt><trkpt lat="44.0863028" lon="11.2816315"><ele>873.0</ele><time>2026-04-12T10:25:33.971Z</time></trkpt><trkpt lat="44.0863716" lon="11.2815889"><ele>873.0</ele><time>2026-04-12T10:25:34.97Z</time></trkpt><trkpt lat="44.0864505" lon="11.2816202"><ele>873.0</ele><time>2026-04-12T10:25:35.97Z</time></trkpt><trkpt lat="44.0865275" lon="11.2817053"><ele>873.0</ele><time>2026-04-12T10:25:36.97Z</time></trkpt><trkpt lat="44.086615" lon="11.2817958"><ele>873.0</ele><time>2026-04-12T10:25:37.97Z</time></trkpt><trkpt lat="44.0867123" lon="11.2818317"><ele>873.0</ele><time>2026-04-12T10:25:38.971Z</time></trkpt><trkpt lat="44.0868124" lon="11.2817922"><ele>875.25</ele><time>2026-04-12T10:25:39.97Z</time></trkpt><trkpt lat="44.0868902" lon="11.2816809"><ele>877.5</ele><time>2026-04-12T10:25:40.97Z</time></trkpt><trkpt lat="44.086929" lon="11.281519"><ele>879.75</ele><time>2026-04-12T10:25:41.971Z</time></trkpt><trkpt lat="44.0869142" lon="11.28133"><ele>882.0</ele><time>2026-04-12T10:25:42.97Z</time></trkpt><trkpt lat="44.0868995" lon="11.281145"><ele>882.0</ele><time>2026-04-12T10:25:43.97Z</time></trkpt><trkpt lat="44.08692" lon="11.280981"><ele>882.0</ele><time>2026-04-12T10:25:44.971Z</time></trkpt><trkpt lat="44.0869988" lon="11.2808313"><ele>882.0</ele><time>2026-04-12T10:25:45.97Z</time></trkpt><trkpt lat="44.0871114" lon="11.280675"><ele>882.0</ele><time>2026-04-12T10:25:46.97Z</time></trkpt><trkpt lat="44.0872162" lon="11.2805557"><ele>880.0</ele><time>2026-04-12T10:25:47.97Z</time></trkpt><trkpt lat="44.0873208" lon="11.2804855"><ele>878.0</ele><time>2026-04-12T10:25:48.97Z</time></trkpt><trkpt lat="44.0874092" lon="11.280524"><ele>876.0</ele><time>2026-04-12T10:25:49.97Z</time></trkpt><trkpt lat="44.0875301" lon="11.280622"><ele>874.0</ele><time>2026-04-12T10:25:50.971Z</time></trkpt><trkpt lat="44.087671" lon="11.2807781"><ele>880.6666666666666</ele><time>2026-04-12T10:25:51.97Z</time></trkpt><trkpt lat="44.0877905" lon="11.2809578"><ele>887.3333333333333</ele><time>2026-04-12T10:25:52.97Z</time></trkpt><trkpt lat="44.0878996" lon="11.2811311"><ele>894.0</ele><time>2026-04-12T10:25:53.97Z</time></trkpt><trkpt lat="44.0880084" lon="11.2812662"><ele>894.0</ele><time>2026-04-12T10:25:54.971Z</time></trkpt><trkpt lat="44.0881475" lon="11.2813342"><ele>894.0</ele><time>2026-04-12T10:25:55.971Z</time></trkpt><trkpt lat="44.0883049" lon="11.2813581"><ele>894.0</ele><time>2026-04-12T10:25:56.97Z</time></trkpt><trkpt lat="44.088468" lon="11.2813508"><ele>896.3333333333333</ele><time>2026-04-12T10:25:57.97Z</time></trkpt><trkpt lat="44.0886348" lon="11.2813574"><ele>898.6666666666666</ele><time>2026-04-12T10:25:58.97Z</time></trkpt><trkpt lat="44.0887867" lon="11.2813946"><ele>901.0</ele><time>2026-04-12T10:25:59.97Z</time></trkpt><trkpt lat="44.0889336" lon="11.2814424"><ele>901.0</ele><time>2026-04-12T10:26:00.97Z</time></trkpt><trkpt lat="44.0890772" lon="11.2814692"><ele>901.0</ele><time>2026-04-12T10:26:01.97Z</time></trkpt><trkpt lat="44.0892453" lon="11.2814495"><ele>901.0</ele><time>2026-04-12T10:26:02.97Z</time></trkpt><trkpt lat="44.0894327" lon="11.2813795"><ele>898.6666666666666</ele><time>2026-04-12T10:26:03.971Z</time></trkpt><trkpt lat="44.089635" lon="11.2812762"><ele>896.3333333333333</ele><time>2026-04-12T10:26:04.97Z</time></trkpt><trkpt lat="44.0898467" lon="11.2811884"><ele>894.0</ele><time>2026-04-12T10:26:05.97Z</time></trkpt><trkpt lat="44.0900368" lon="11.2811343"><ele>894.0</ele><time>2026-04-12T10:26:06.97Z</time></trkpt><trkpt lat="44.0902142" lon="11.2811264"><ele>894.0</ele><time>2026-04-12T10:26:07.97Z</time></trkpt><trkpt lat="44.0903775" lon="11.2811633"><ele>894.0</ele><time>2026-04-12T10:26:08.971Z</time></trkpt><trkpt lat="44.0905308" lon="11.2811956"><ele>894.0</ele><time>2026-04-12T10:26:09.97Z</time></trkpt><trkpt lat="44.090665" lon="11.2811522"><ele>894.0</ele><time>2026-04-12T10:26:10.97Z</time></trkpt><trkpt lat="44.0908029" lon="11.2810462"><ele>894.0</ele><time>2026-04-12T10:26:11.97Z</time></trkpt><trkpt lat="44.09095" lon="11.2808892"><ele>895.0</ele><time>2026-04-12T10:26:12.97Z</time></trkpt><trkpt lat="44.0911137" lon="11.2807033"><ele>896.0</ele><time>2026-04-12T10:26:13.971Z</time></trkpt><trkpt lat="44.0913241" lon="11.280539"><ele>891.0</ele><time>2026-04-12T10:26:14.97Z</time></trkpt><trkpt lat="44.0915538" lon="11.2803949"><ele>886.0</ele><time>2026-04-12T10:26:15.971Z</time></trkpt><trkpt lat="44.0917747" lon="11.280273"><ele>886.0</ele><time>2026-04-12T10:26:16.971Z</time></trkpt><trkpt lat="44.0919573" lon="11.2801753"><ele>886.0</ele><time>2026-04-12T10:26:17.97Z</time></trkpt><trkpt lat="44.0921118" lon="11.2800846"><ele>886.0</ele><time>2026-04-12T10:26:18.97Z</time></trkpt><trkpt lat="44.0922346" lon="11.2799812"><ele>886.0</ele><time>2026-04-12T10:26:19.971Z</time></trkpt><trkpt lat="44.0923261" lon="11.279828"><ele>886.0</ele><time>2026-04-12T10:26:20.97Z</time></trkpt><trkpt lat="44.0924045" lon="11.2796362"><ele>876.0</ele><time>2026-04-12T10:26:21.971Z</time></trkpt></trkseg><trkseg><trkpt lat="44.0953447" lon="11.2747478"><ele>921.0</ele><time>2026-04-12T11:19:52.009Z</time></trkpt><trkpt lat="44.0954293" lon="11.274704"><ele>920.9999999999999</ele><time>2026-04-12T11:19:53.008Z</time></trkpt><trkpt lat="44.0955124" lon="11.2746605"><ele>920.9999999999999</ele><time>2026-04-12T11:19:54.008Z</time></trkpt><trkpt lat="44.0956093" lon="11.2746101"><ele>921.0</ele><time>2026-04-12T11:19:55.008Z</time></trkpt><trkpt lat="44.0957273" lon="11.2745539"><ele>921.0</ele><time>2026-04-12T11:19:56.008Z</time></trkpt><trkpt lat="44.0958647" lon="11.2744957"><ele>923.6666666666667</ele><time>2026-04-12T11:19:57.008Z</time></trkpt><trkpt lat="44.0960091" lon="11.2744287"><ele>926.3333333333334</ele><time>2026-04-12T11:19:58.008Z</time></trkpt><trkpt lat="44.0961478" lon="11.2743411"><ele>929.0</ele><time>2026-04-12T11:19:59.008Z</time></trkpt><trkpt lat="44.0962782" lon="11.2742201"><ele>929.0</ele><time>2026-04-12T11:20:00.008Z</time></trkpt><trkpt lat="44.0963965" lon="11.2740628"><ele>929.0</ele><time>2026-04-12T11:20:01.009Z</time></trkpt><trkpt lat="44.0965045" lon="11.2738803"><ele>929.0</ele><time>2026-04-12T11:20:02.008Z</time></trkpt><trkpt lat="44.0966067" lon="11.2736825"><ele>932.0</ele><time>2026-04-12T11:20:03.008Z</time></trkpt><trkpt lat="44.0967065" lon="11.2734794"><ele>935.0</ele><time>2026-04-12T11:20:04.008Z</time></trkpt><trkpt lat="44.0968048" lon="11.2732799"><ele>938.0</ele><time>2026-04-12T11:20:05.009Z</time></trkpt><trkpt lat="44.0969032" lon="11.2730857"><ele>939.3333333333334</ele><time>2026-04-12T11:20:06.008Z</time></trkpt><trkpt lat="44.097" lon="11.2728998"><ele>940.6666666666667</ele><time>2026-04-12T11:20:07.008Z</time></trkpt><trkpt lat="44.0970911" lon="11.2727226"><ele>942.0</ele><time>2026-04-12T11:20:08.008Z</time></trkpt><trkpt lat="44.0971782" lon="11.2725519"><ele>942.0</ele><time>2026-04-12T11:20:09.008Z</time></trkpt><trkpt lat="44.0972619" lon="11.2723874"><ele>942.0</ele><time>2026-04-12T11:20:10.008Z</time></trkpt><trkpt lat="44.0973447" lon="11.2722302"><ele>942.0</ele><time>2026-04-12T11:20:11.008Z</time></trkpt><trkpt lat="44.0974322" lon="11.2721006"><ele>942.0</ele><time>2026-04-12T11:20:12.008Z</time></trkpt><trkpt lat="44.097529" lon="11.2720036"><ele>942.0</ele><time>2026-04-12T11:20:13.008Z</time></trkpt><trkpt lat="44.0976362" lon="11.271931"><ele>942.0</ele><time>2026-04-12T11:20:14.008Z</time></trkpt><trkpt lat="44.0977554" lon="11.2718716"><ele>942.0</ele><time>2026-04-12T11:20:15.008Z</time></trkpt><trkpt lat="44.097881" lon="11.2718157"><ele>942.0</ele><time>2026-04-12T11:20:16.008Z</time></trkpt><trkpt lat="44.0980094" lon="11.2717565"><ele>942.0</ele><time>2026-04-12T11:20:17.008Z</time></trkpt><trkpt lat="44.0981362" lon="11.2716868"><ele>942.0</ele><time>2026-04-12T11:20:18.009Z</time></trkpt><trkpt lat="44.0982524" lon="11.2715883"><ele>942.0</ele><time>2026-04-12T11:20:19.008Z</time></trkpt><trkpt lat="44.0983548" lon="11.2714582"><ele>942.0</ele><time>2026-04-12T11:20:20.008Z</time></trkpt><trkpt lat="44.098451" lon="11.2713052"><ele>940.25</ele><time>2026-04-12T11:20:21.008Z</time></trkpt><trkpt lat="44.0985479" lon="11.2711401"><ele>938.5</ele><time>2026-04-12T11:20:22.008Z</time></trkpt><trkpt lat="44.0986454" lon="11.2709783"><ele>936.75</ele><time>2026-04-12T11:20:23.009Z</time></trkpt><trkpt lat="44.0987478" lon="11.2708419"><ele>935.0</ele><time>2026-04-12T11:20:24.008Z</time></trkpt><trkpt lat="44.0988481" lon="11.2707229"><ele>935.0</ele><time>2026-04-12T11:20:25.008Z</time></trkpt><trkpt lat="44.0989778" lon="11.2706669"><ele>935.0</ele><time>2026-04-12T11:20:26.009Z</time></trkpt><trkpt lat="44.0991196" lon="11.2706316"><ele>935.0</ele><time>2026-04-12T11:20:27.008Z</time></trkpt><trkpt lat="44.0992675" lon="11.2705959"><ele>935.0</ele><time>2026-04-12T11:20:28.008Z</time></trkpt><trkpt lat="44.0994178" lon="11.2705546"><ele>934.0</ele><time>2026-04-12T11:20:29.008Z</time></trkpt><trkpt lat="44.099563" lon="11.2704595"><ele>933.0</ele><time>2026-04-12T11:20:30.008Z</time></trkpt><trkpt lat="44.0996959" lon="11.2703438"><ele>932.0</ele><time>2026-04-12T11:20:31.008Z</time></trkpt><trkpt lat="44.0998146" lon="11.2702303"><ele>934.75</ele><time>2026-04-12T11:20:32.008Z</time></trkpt><trkpt lat="44.0999238" lon="11.2701226"><ele>937.5</ele><time>2026-04-12T11:20:33.008Z</time></trkpt><trkpt lat="44.1000252" lon="11.2700214"><ele>940.25</ele><time>2026-04-12T11:20:34.008Z</time></trkpt><trkpt lat="44.1001229" lon="11.2699254"><ele>943.0</ele><time>2026-04-12T11:20:35.008Z</time></trkpt><trkpt lat="44.1002257" lon="11.2698353"><ele>942.0</ele><time>2026-04-12T11:20:36.008Z</time></trkpt><trkpt lat="44.1003426" lon="11.2697555"><ele>941.0</ele><time>2026-04-12T11:20:37.009Z</time></trkpt><trkpt lat="44.1004763" lon="11.2696838"><ele>940.0</ele><time>2026-04-12T11:20:38.008Z</time></trkpt><trkpt lat="44.1006171" lon="11.2696143"><ele>939.0</ele><time>2026-04-12T11:20:39.008Z</time></trkpt><trkpt lat="44.1007676" lon="11.2695477"><ele>939.0</ele><time>2026-04-12T11:20:40.009Z</time></trkpt><trkpt lat="44.1009183" lon="11.2694752"><ele>939.0</ele><time>2026-04-12T11:20:41.008Z</time></trkpt><trkpt lat="44.1010626" lon="11.2693834"><ele>939.0</ele><time>2026-04-12T11:20:42.008Z</time></trkpt><trkpt lat="44.1012007" lon="11.269261"><ele>939.0</ele><time>2026-04-12T11:20:43.008Z</time></trkpt><trkpt lat="44.1013398" lon="11.2691228"><ele>939.0</ele><time>2026-04-12T11:20:44.009Z</time></trkpt><trkpt lat="44.1014673" lon="11.268967"><ele>939.0</ele><time>2026-04-12T11:20:45.008Z</time></trkpt><trkpt lat="44.1015912" lon="11.2688116"><ele>939.25</ele><time>2026-04-12T11:20:46.008Z</time></trkpt><trkpt lat="44.1017106" lon="11.2686685"><ele>939.5</ele><time>2026-04-12T11:20:47.008Z</time></trkpt><trkpt lat="44.1018231" lon="11.268544"><ele>939.75</ele><time>2026-04-12T11:20:48.008Z</time></trkpt><trkpt lat="44.1019337" lon="11.2684465"><ele>940.0</ele><time>2026-04-12T11:20:49.008Z</time></trkpt><trkpt lat="44.1020512" lon="11.2683923"><ele>940.0</ele><time>2026-04-12T11:20:50.009Z</time></trkpt><trkpt lat="44.1021833" lon="11.2683826"><ele>940.0</ele><time>2026-04-12T11:20:51.008Z</time></trkpt><trkpt lat="44.1023331" lon="11.2684009"><ele>940.0</ele><time>2026-04-12T11:20:52.008Z</time></trkpt><trkpt lat="44.1024918" lon="11.2684304"><ele>940.0</ele><time>2026-04-12T11:20:53.009Z</time></trkpt><trkpt lat="44.1026529" lon="11.2684616"><ele>939.0</ele><time>2026-04-12T11:20:54.008Z</time></trkpt><trkpt lat="44.1028148" lon="11.2684927"><ele>938.0</ele><time>2026-04-12T11:20:55.009Z</time></trkpt><trkpt lat="44.1029775" lon="11.2685246"><ele>937.0</ele><time>2026-04-12T11:20:56.008Z</time></trkpt><trkpt lat="44.1031405" lon="11.2685548"><ele>934.3333333333333</ele><time>2026-04-12T11:20:57.008Z</time></trkpt><trkpt lat="44.1033041" lon="11.2685844"><ele>931.6666666666667</ele><time>2026-04-12T11:20:58.009Z</time></trkpt><trkpt lat="44.1034652" lon="11.268613"><ele>929.0</ele><time>2026-04-12T11:20:59.009Z</time></trkpt><trkpt lat="44.1036248" lon="11.2686354"><ele>929.0</ele><time>2026-04-12T11:21:00.008Z</time></trkpt><trkpt lat="44.1037829" lon="11.2686373"><ele>929.0</ele><time>2026-04-12T11:21:01.008Z</time></trkpt><trkpt lat="44.1039397" lon="11.2686162"><ele>929.0</ele><time>2026-04-12T11:21:02.009Z</time></trkpt><trkpt lat="44.1040951" lon="11.2685809"><ele>928.6666666666667</ele><time>2026-04-12T11:21:03.008Z</time></trkpt><trkpt lat="44.1042495" lon="11.2685405"><ele>928.3333333333333</ele><time>2026-04-12T11:21:04.008Z</time></trkpt><trkpt lat="44.1044032" lon="11.2685057"><ele>928.0</ele><time>2026-04-12T11:21:05.008Z</time></trkpt><trkpt lat="44.1045575" lon="11.2684699"><ele>928.0</ele><time>2026-04-12T11:21:06.009Z</time></trkpt><trkpt lat="44.104713" lon="11.2684326"><ele>928.0</ele><time>2026-04-12T11:21:07.009Z</time></trkpt><trkpt lat="44.104872" lon="11.2683942"><ele>928.0</ele><time>2026-04-12T11:21:08.009Z</time></trkpt><trkpt lat="44.105035" lon="11.2683537"><ele>928.0</ele><time>2026-04-12T11:21:09.009Z</time></trkpt><trkpt lat="44.1051995" lon="11.2683118"><ele>928.0</ele><time>2026-04-12T11:21:10.009Z</time></trkpt><trkpt lat="44.105367" lon="11.2682711"><ele>928.0</ele><time>2026-04-12T11:21:11.01Z</time></trkpt><trkpt lat="44.1055375" lon="11.2682305"><ele>928.0</ele><time>2026-04-12T11:21:12.01Z</time></trkpt><trkpt lat="44.1057088" lon="11.2681903"><ele>928.0</ele><time>2026-04-12T11:21:13.009Z</time></trkpt><trkpt lat="44.1058773" lon="11.2681502"><ele>928.0</ele><time>2026-04-12T11:21:14.009Z</time></trkpt><trkpt lat="44.1060367" lon="11.2681048"><ele>925.0</ele><time>2026-04-12T11:21:15.01Z</time></trkpt><trkpt lat="44.1061838" lon="11.268039"><ele>922.0</ele><time>2026-04-12T11:21:16.009Z</time></trkpt><trkpt lat="44.1063235" lon="11.2679425"><ele>919.0</ele><time>2026-04-12T11:21:17.009Z</time></trkpt><trkpt lat="44.1064597" lon="11.2678275"><ele>919.3333333333333</ele><time>2026-04-12T11:21:18.01Z</time></trkpt><trkpt lat="44.1065957" lon="11.2677109"><ele>919.6666666666667</ele><time>2026-04-12T11:21:19.01Z</time></trkpt><trkpt lat="44.1067307" lon="11.2675959"><ele>920.0</ele><time>2026-04-12T11:21:20.009Z</time></trkpt><trkpt lat="44.1068646" lon="11.2674827"><ele>920.0</ele><time>2026-04-12T11:21:21.009Z</time></trkpt><trkpt lat="44.1069991" lon="11.2673757"><ele>920.0</ele><time>2026-04-12T11:21:22.009Z</time></trkpt><trkpt lat="44.1071433" lon="11.2672913"><ele>920.0</ele><time>2026-04-12T11:21:23.009Z</time></trkpt><trkpt lat="44.1073012" lon="11.2672395"><ele>920.3333333333334</ele><time>2026-04-12T11:21:24.009Z</time></trkpt><trkpt lat="44.1074761" lon="11.2672112"><ele>920.6666666666667</ele><time>2026-04-12T11:21:25.009Z</time></trkpt><trkpt lat="44.1076634" lon="11.2671948"><ele>921.0</ele><time>2026-04-12T11:21:26.009Z</time></trkpt><trkpt lat="44.1078526" lon="11.267179"><ele>921.0</ele><time>2026-04-12T11:21:27.01Z</time></trkpt><trkpt lat="44.108035" lon="11.2671546"><ele>921.0</ele><time>2026-04-12T11:21:28.01Z</time></trkpt><trkpt lat="44.108209" lon="11.2671127"><ele>921.0</ele><time>2026-04-12T11:21:29.009Z</time></trkpt><trkpt lat="44.1083757" lon="11.267037"><ele>922.3333333333333</ele><time>2026-04-12T11:21:30.01Z</time></trkpt><trkpt lat="44.1085379" lon="11.2669285"><ele>923.6666666666666</ele><time>2026-04-12T11:21:31.009Z</time></trkpt><trkpt lat="44.108696" lon="11.2668051"><ele>925.0</ele><time>2026-04-12T11:21:32.009Z</time></trkpt><trkpt lat="44.1088489" lon="11.2666818"><ele>925.0</ele><time>2026-04-12T11:21:33.009Z</time></trkpt><trkpt lat="44.1089928" lon="11.2665659"><ele>925.0</ele><time>2026-04-12T11:21:34.01Z</time></trkpt><trkpt lat="44.109129" lon="11.266459"><ele>925.0</ele><time>2026-04-12T11:21:35.01Z</time></trkpt><trkpt lat="44.1092613" lon="11.2663669"><ele>923.0</ele><time>2026-04-12T11:21:36.009Z</time></trkpt><trkpt lat="44.1094007" lon="11.266297"><ele>921.0</ele><time>2026-04-12T11:21:37.009Z</time></trkpt><trkpt lat="44.1095522" lon="11.2662462"><ele>919.0</ele><time>2026-04-12T11:21:38.009Z</time></trkpt><trkpt lat="44.1097128" lon="11.2662056"><ele>919.0</ele><time>2026-04-12T11:21:39.01Z</time></trkpt><trkpt lat="44.1098747" lon="11.2661712"><ele>919.0</ele><time>2026-04-12T11:21:40.01Z</time></trkpt><trkpt lat="44.1100424" lon="11.2661359"><ele>919.0</ele><time>2026-04-12T11:21:41.009Z</time></trkpt><trkpt lat="44.1101985" lon="11.2661043"><ele>919.25</ele><time>2026-04-12T11:21:42.01Z</time></trkpt><trkpt lat="44.110345" lon="11.2660808"><ele>919.5</ele><time>2026-04-12T11:21:43.009Z</time></trkpt><trkpt lat="44.1104841" lon="11.2660814"><ele>919.75</ele><time>2026-04-12T11:21:44.009Z</time></trkpt><trkpt lat="44.1106318" lon="11.2661161"><ele>920.0</ele><time>2026-04-12T11:21:45.009Z</time></trkpt><trkpt lat="44.1107933" lon="11.2661772"><ele>920.0</ele><time>2026-04-12T11:21:46.009Z</time></trkpt><trkpt lat="44.1109742" lon="11.2662423"><ele>920.0</ele><time>2026-04-12T11:21:47.009Z</time></trkpt><trkpt lat="44.11117" lon="11.2662919"><ele>920.0</ele><time>2026-04-12T11:21:48.009Z</time></trkpt><trkpt lat="44.1113597" lon="11.2663249"><ele>920.0</ele><time>2026-04-12T11:21:49.009Z</time></trkpt><trkpt lat="44.1115379" lon="11.2663495"><ele>920.0</ele><time>2026-04-12T11:21:50.01Z</time></trkpt><trkpt lat="44.1117046" lon="11.2663697"><ele>920.0</ele><time>2026-04-12T11:21:51.01Z</time></trkpt><trkpt lat="44.1118679" lon="11.2663819"><ele>917.0</ele><time>2026-04-12T11:21:52.009Z</time></trkpt><trkpt lat="44.1120195" lon="11.2663512"><ele>914.0</ele><time>2026-04-12T11:21:53.009Z</time></trkpt><trkpt lat="44.1121672" lon="11.2662842"><ele>911.0</ele><time>2026-04-12T11:21:54.01Z</time></trkpt><trkpt lat="44.1123095" lon="11.266175"><ele>913.6666666666667</ele><time>2026-04-12T11:21:55.009Z</time></trkpt><trkpt lat="44.1124395" lon="11.2660293"><ele>916.3333333333333</ele><time>2026-04-12T11:21:56.009Z</time></trkpt><trkpt lat="44.1125564" lon="11.2658444"><ele>919.0</ele><time>2026-04-12T11:21:57.009Z</time></trkpt><trkpt lat="44.1126561" lon="11.2656224"><ele>916.3333333333333</ele><time>2026-04-12T11:21:58.01Z</time></trkpt><trkpt lat="44.1127428" lon="11.2653865"><ele>913.6666666666667</ele><time>2026-04-12T11:21:59.009Z</time></trkpt><trkpt lat="44.112826" lon="11.2651505"><ele>911.0</ele><time>2026-04-12T11:22:00.01Z</time></trkpt><trkpt lat="44.1129034" lon="11.2649331"><ele>909.6666666666667</ele><time>2026-04-12T11:22:01.009Z</time></trkpt><trkpt lat="44.1129715" lon="11.2647341"><ele>908.3333333333333</ele><time>2026-04-12T11:22:02.009Z</time></trkpt><trkpt lat="44.1130043" lon="11.2645395"><ele>907.0</ele><time>2026-04-12T11:22:03.009Z</time></trkpt><trkpt lat="44.113011" lon="11.2643264"><ele>907.0</ele><time>2026-04-12T11:22:04.01Z</time></trkpt><trkpt lat="44.1129991" lon="11.2640981"><ele>907.0</ele><time>2026-04-12T11:22:05.009Z</time></trkpt><trkpt lat="44.1129771" lon="11.2638612"><ele>907.0</ele><time>2026-04-12T11:22:06.01Z</time></trkpt><trkpt lat="44.1129498" lon="11.2636241"><ele>906.0</ele><time>2026-04-12T11:22:07.009Z</time></trkpt><trkpt lat="44.112921" lon="11.2633951"><ele>905.0</ele><time>2026-04-12T11:22:08.009Z</time></trkpt><trkpt lat="44.1128943" lon="11.2631786"><ele>904.0</ele><time>2026-04-12T11:22:09.009Z</time></trkpt><trkpt lat="44.1128738" lon="11.2629764"><ele>904.0</ele><time>2026-04-12T11:22:10.009Z</time></trkpt><trkpt lat="44.1128661" lon="11.2627828"><ele>904.0</ele><time>2026-04-12T11:22:11.009Z</time></trkpt><trkpt lat="44.1128778" lon="11.2625987"><ele>904.0</ele><time>2026-04-12T11:22:12.009Z</time></trkpt><trkpt lat="44.1129133" lon="11.262427"><ele>904.0</ele><time>2026-04-12T11:22:13.009Z</time></trkpt><trkpt lat="44.1129698" lon="11.2622699"><ele>903.0</ele><time>2026-04-12T11:22:14.009Z</time></trkpt><trkpt lat="44.1130486" lon="11.2621327"><ele>902.0</ele><time>2026-04-12T11:22:15.009Z</time></trkpt><trkpt lat="44.1131533" lon="11.2620307"><ele>901.0</ele><time>2026-04-12T11:22:16.009Z</time></trkpt><trkpt lat="44.1132762" lon="11.2619769"><ele>900.0</ele><time>2026-04-12T11:22:17.009Z</time></trkpt><trkpt lat="44.1134202" lon="11.2619736"><ele>900.0</ele><time>2026-04-12T11:22:18.009Z</time></trkpt><trkpt lat="44.1135831" lon="11.2619933"><ele>900.0</ele><time>2026-04-12T11:22:19.009Z</time></trkpt><trkpt lat="44.1137504" lon="11.2620152"><ele>900.0</ele><time>2026-04-12T11:22:20.009Z</time></trkpt><trkpt lat="44.1139246" lon="11.2620219"><ele>901.6666666666667</ele><time>2026-04-12T11:22:21.009Z</time></trkpt><trkpt lat="44.1140966" lon="11.2620038"><ele>903.3333333333334</ele><time>2026-04-12T11:22:22.009Z</time></trkpt><trkpt lat="44.1142663" lon="11.2619441"><ele>905.0</ele><time>2026-04-12T11:22:23.009Z</time></trkpt><trkpt lat="44.1144338" lon="11.261837"><ele>905.0</ele><time>2026-04-12T11:22:24.009Z</time></trkpt><trkpt lat="44.1145879" lon="11.2617007"><ele>905.0</ele><time>2026-04-12T11:22:25.01Z</time></trkpt><trkpt lat="44.1147384" lon="11.261554"><ele>905.0</ele><time>2026-04-12T11:22:26.009Z</time></trkpt><trkpt lat="44.1148853" lon="11.2614079"><ele>902.0</ele><time>2026-04-12T11:22:27.01Z</time></trkpt><trkpt lat="44.1150289" lon="11.261264"><ele>899.0</ele><time>2026-04-12T11:22:28.01Z</time></trkpt><trkpt lat="44.115169" lon="11.2611215"><ele>896.0</ele><time>2026-04-12T11:22:29.009Z</time></trkpt><trkpt lat="44.1153079" lon="11.260976"><ele>896.0</ele><time>2026-04-12T11:22:30.009Z</time></trkpt><trkpt lat="44.115447" lon="11.2608264"><ele>896.0</ele><time>2026-04-12T11:22:31.009Z</time></trkpt><trkpt lat="44.1155816" lon="11.2606649"><ele>896.0</ele><time>2026-04-12T11:22:32.01Z</time></trkpt><trkpt lat="44.1157206" lon="11.2604913"><ele>894.6666666666667</ele><time>2026-04-12T11:22:33.009Z</time></trkpt><trkpt lat="44.1158586" lon="11.2603244"><ele>893.3333333333333</ele><time>2026-04-12T11:22:34.009Z</time></trkpt><trkpt lat="44.1159948" lon="11.2601574"><ele>892.0</ele><time>2026-04-12T11:22:35.009Z</time></trkpt><trkpt lat="44.1161273" lon="11.2599888"><ele>892.0</ele><time>2026-04-12T11:22:36.01Z</time></trkpt><trkpt lat="44.1162625" lon="11.2598227"><ele>892.0</ele><time>2026-04-12T11:22:37.009Z</time></trkpt><trkpt lat="44.1163998" lon="11.2596637"><ele>892.0</ele><time>2026-04-12T11:22:38.009Z</time></trkpt><trkpt lat="44.1165439" lon="11.2595116"><ele>890.0</ele><time>2026-04-12T11:22:39.009Z</time></trkpt><trkpt lat="44.1167063" lon="11.2593838"><ele>888.0</ele><time>2026-04-12T11:22:40.009Z</time></trkpt><trkpt lat="44.1168835" lon="11.2592666"><ele>886.0</ele><time>2026-04-12T11:22:41.009Z</time></trkpt><trkpt lat="44.1170663" lon="11.2591561"><ele>886.0</ele><time>2026-04-12T11:22:42.009Z</time></trkpt><trkpt lat="44.117251" lon="11.2590537"><ele>886.0</ele><time>2026-04-12T11:22:43.01Z</time></trkpt><trkpt lat="44.1174238" lon="11.2589395"><ele>886.0</ele><time>2026-04-12T11:22:44.009Z</time></trkpt><trkpt lat="44.1175979" lon="11.2588434"><ele>879.0</ele><time>2026-04-12T11:22:45.009Z</time></trkpt><trkpt lat="44.1177693" lon="11.258746"><ele>872.0</ele><time>2026-04-12T11:22:46.009Z</time></trkpt><trkpt lat="44.1179296" lon="11.2586407"><ele>865.0</ele><time>2026-04-12T11:22:47.01Z</time></trkpt><trkpt lat="44.1180932" lon="11.2585517"><ele>865.0</ele><time>2026-04-12T11:22:48.01Z</time></trkpt><trkpt lat="44.118254" lon="11.2584551"><ele>865.0</ele><time>2026-04-12T11:22:49.01Z</time></trkpt><trkpt lat="44.1184047" lon="11.258339"><ele>865.0</ele><time>2026-04-12T11:22:50.01Z</time></trkpt><trkpt lat="44.1185425" lon="11.2581846"><ele>862.0</ele><time>2026-04-12T11:22:51.01Z</time></trkpt><trkpt lat="44.1186716" lon="11.2579902"><ele>859.0</ele><time>2026-04-12T11:22:52.01Z</time></trkpt><trkpt lat="44.118805" lon="11.257778"><ele>856.0</ele><time>2026-04-12T11:22:53.01Z</time></trkpt><trkpt lat="44.1189285" lon="11.257561"><ele>856.0</ele><time>2026-04-12T11:22:54.011Z</time></trkpt><trkpt lat="44.1190487" lon="11.2573503"><ele>856.0</ele><time>2026-04-12T11:22:55.01Z</time></trkpt><trkpt lat="44.1191652" lon="11.2571476"><ele>856.0</ele><time>2026-04-12T11:22:56.01Z</time></trkpt><trkpt lat="44.1192755" lon="11.25695"><ele>856.3333333333333</ele><time>2026-04-12T11:22:57.01Z</time></trkpt><trkpt lat="44.1193854" lon="11.2567625"><ele>856.6666666666667</ele><time>2026-04-12T11:22:58.01Z</time></trkpt><trkpt lat="44.119491" lon="11.2565771"><ele>857.0</ele><time>2026-04-12T11:22:59.01Z</time></trkpt><trkpt lat="44.1195966" lon="11.2564062"><ele>857.0</ele><time>2026-04-12T11:23:00.011Z</time></trkpt><trkpt lat="44.1197136" lon="11.2562484"><ele>857.0</ele><time>2026-04-12T11:23:01.01Z</time></trkpt><trkpt lat="44.1198396" lon="11.2561131"><ele>857.0</ele><time>2026-04-12T11:23:02.01Z</time></trkpt><trkpt lat="44.1199771" lon="11.2559904"><ele>859.6666666666667</ele><time>2026-04-12T11:23:03.01Z</time></trkpt><trkpt lat="44.1201246" lon="11.2558716"><ele>862.3333333333333</ele><time>2026-04-12T11:23:04.011Z</time></trkpt><trkpt lat="44.1202667" lon="11.2557562"><ele>865.0</ele><time>2026-04-12T11:23:05.012Z</time></trkpt><trkpt lat="44.120389" lon="11.2556082"><ele>859.6666666666666</ele><time>2026-04-12T11:23:06.01Z</time></trkpt><trkpt lat="44.1204987" lon="11.2554415"><ele>854.3333333333333</ele><time>2026-04-12T11:23:07.01Z</time></trkpt><trkpt lat="44.1205922" lon="11.2552705"><ele>849.0</ele><time>2026-04-12T11:23:08.01Z</time></trkpt><trkpt lat="44.1206889" lon="11.2551162"><ele>849.3333333333333</ele><time>2026-04-12T11:23:09.01Z</time></trkpt><trkpt lat="44.1208119" lon="11.2549823"><ele>849.6666666666666</ele><time>2026-04-12T11:23:10.01Z</time></trkpt><trkpt lat="44.1209553" lon="11.2548616"><ele>850.0</ele><time>2026-04-12T11:23:11.01Z</time></trkpt><trkpt lat="44.1211203" lon="11.2547585"><ele>850.0</ele><time>2026-04-12T11:23:12.01Z</time></trkpt><trkpt lat="44.121297" lon="11.2546549"><ele>850.0</ele><time>2026-04-12T11:23:13.01Z</time></trkpt><trkpt lat="44.1214645" lon="11.2545497"><ele>850.0</ele><time>2026-04-12T11:23:14.011Z</time></trkpt><trkpt lat="44.1216258" lon="11.2544486"><ele>854.0</ele><time>2026-04-12T11:23:15.01Z</time></trkpt><trkpt lat="44.1217796" lon="11.2543578"><ele>858.0</ele><time>2026-04-12T11:23:16.01Z</time></trkpt><trkpt lat="44.12193" lon="11.2542707"><ele>862.0</ele><time>2026-04-12T11:23:17.011Z</time></trkpt><trkpt lat="44.1220768" lon="11.2541781"><ele>862.0</ele><time>2026-04-12T11:23:18.01Z</time></trkpt><trkpt lat="44.1222193" lon="11.2540851"><ele>862.0</ele><time>2026-04-12T11:23:19.011Z</time></trkpt><trkpt lat="44.1223691" lon="11.2539852"><ele>862.0</ele><time>2026-04-12T11:23:20.01Z</time></trkpt><trkpt lat="44.1225222" lon="11.2538845"><ele>860.0</ele><time>2026-04-12T11:23:21.011Z</time></trkpt><trkpt lat="44.1226808" lon="11.2537973"><ele>858.0</ele><time>2026-04-12T11:23:22.011Z</time></trkpt><trkpt lat="44.1228392" lon="11.2537078"><ele>856.0</ele><time>2026-04-12T11:23:23.01Z</time></trkpt><trkpt lat="44.1229968" lon="11.2536246"><ele>856.0</ele><time>2026-04-12T11:23:24.011Z</time></trkpt><trkpt lat="44.123157" lon="11.2535484"><ele>856.0</ele><time>2026-04-12T11:23:25.01Z</time></trkpt><trkpt lat="44.1233164" lon="11.2534933"><ele>856.0</ele><time>2026-04-12T11:23:26.01Z</time></trkpt><trkpt lat="44.1234821" lon="11.2534448"><ele>857.3333333333333</ele><time>2026-04-12T11:23:27.011Z</time></trkpt><trkpt lat="44.1236512" lon="11.2534017"><ele>858.6666666666667</ele><time>2026-04-12T11:23:28.01Z</time></trkpt><trkpt lat="44.1238194" lon="11.2533559"><ele>860.0</ele><time>2026-04-12T11:23:29.01Z</time></trkpt><trkpt lat="44.1239819" lon="11.2533132"><ele>858.5</ele><time>2026-04-12T11:23:30.01Z</time></trkpt><trkpt lat="44.1241306" lon="11.2532866"><ele>857.0</ele><time>2026-04-12T11:23:31.01Z</time></trkpt><trkpt lat="44.1242707" lon="11.2532781"><ele>855.5</ele><time>2026-04-12T11:23:32.01Z</time></trkpt><trkpt lat="44.1244018" lon="11.2532946"><ele>854.0</ele><time>2026-04-12T11:23:33.01Z</time></trkpt><trkpt lat="44.12452" lon="11.2533499"><ele>854.0</ele><time>2026-04-12T11:23:34.01Z</time></trkpt><trkpt lat="44.1246284" lon="11.2534418"><ele>854.0</ele><time>2026-04-12T11:23:35.01Z</time></trkpt><trkpt lat="44.1247317" lon="11.253572"><ele>854.0</ele><time>2026-04-12T11:23:36.01Z</time></trkpt><trkpt lat="44.1248455" lon="11.2536808"><ele>854.0</ele><time>2026-04-12T11:23:37.01Z</time></trkpt><trkpt lat="44.1249905" lon="11.2537606"><ele>849.3333333333334</ele><time>2026-04-12T11:23:38.01Z</time></trkpt><trkpt lat="44.125158" lon="11.253828"><ele>844.6666666666667</ele><time>2026-04-12T11:23:39.01Z</time></trkpt><trkpt lat="44.1253254" lon="11.2538782"><ele>840.0</ele><time>2026-04-12T11:23:40.01Z</time></trkpt><trkpt lat="44.1254948" lon="11.253901"><ele>840.0</ele><time>2026-04-12T11:23:41.01Z</time></trkpt><trkpt lat="44.1256501" lon="11.2538864"><ele>840.0</ele><time>2026-04-12T11:23:42.01Z</time></trkpt><trkpt lat="44.1258019" lon="11.253838"><ele>840.0</ele><time>2026-04-12T11:23:43.011Z</time></trkpt><trkpt lat="44.1259402" lon="11.2537536"><ele>838.0</ele><time>2026-04-12T11:23:44.01Z</time></trkpt><trkpt lat="44.1260601" lon="11.2536193"><ele>836.0</ele><time>2026-04-12T11:23:45.01Z</time></trkpt><trkpt lat="44.1261663" lon="11.2534589"><ele>834.0</ele><time>2026-04-12T11:23:46.01Z</time></trkpt><trkpt lat="44.1262708" lon="11.2533012"><ele>834.0</ele><time>2026-04-12T11:23:47.011Z</time></trkpt><trkpt lat="44.1263736" lon="11.2531647"><ele>834.0</ele><time>2026-04-12T11:23:48.01Z</time></trkpt><trkpt lat="44.1264852" lon="11.2530616"><ele>834.0</ele><time>2026-04-12T11:23:49.01Z</time></trkpt><trkpt lat="44.1266127" lon="11.2530034"><ele>834.0</ele><time>2026-04-12T11:23:50.01Z</time></trkpt><trkpt lat="44.1267508" lon="11.252973"><ele>833.25</ele><time>2026-04-12T11:23:51.011Z</time></trkpt><trkpt lat="44.1268914" lon="11.2529558"><ele>832.5</ele><time>2026-04-12T11:23:52.011Z</time></trkpt><trkpt lat="44.1270287" lon="11.2529214"><ele>831.75</ele><time>2026-04-12T11:23:53.01Z</time></trkpt><trkpt lat="44.1271526" lon="11.2528532"><ele>831.0</ele><time>2026-04-12T11:23:54.01Z</time></trkpt><trkpt lat="44.1272599" lon="11.252746"><ele>831.0</ele><time>2026-04-12T11:23:55.011Z</time></trkpt><trkpt lat="44.1273586" lon="11.2525892"><ele>831.0</ele><time>2026-04-12T11:23:56.01Z</time></trkpt><trkpt lat="44.1274556" lon="11.2524143"><ele>831.0</ele><time>2026-04-12T11:23:57.01Z</time></trkpt><trkpt lat="44.1275448" lon="11.2522298"><ele>827.5</ele><time>2026-04-12T11:23:58.011Z</time></trkpt><trkpt lat="44.1276157" lon="11.2520551"><ele>824.0</ele><time>2026-04-12T11:23:59.01Z</time></trkpt><trkpt lat="44.1276815" lon="11.2519115"><ele>820.5</ele><time>2026-04-12T11:24:00.01Z</time></trkpt><trkpt lat="44.1277448" lon="11.251787"><ele>817.0</ele><time>2026-04-12T11:24:01.01Z</time></trkpt><trkpt lat="44.1278268" lon="11.2517038"><ele>817.0</ele><time>2026-04-12T11:24:02.01Z</time></trkpt><trkpt lat="44.1279119" lon="11.251656"><ele>817.0</ele><time>2026-04-12T11:24:03.01Z</time></trkpt><trkpt lat="44.1280137" lon="11.251675"><ele>817.0</ele><time>2026-04-12T11:24:04.01Z</time></trkpt><trkpt lat="44.1281202" lon="11.2517288"><ele>817.0</ele><time>2026-04-12T11:24:05.01Z</time></trkpt><trkpt lat="44.1282354" lon="11.2517941"><ele>817.0</ele><time>2026-04-12T11:24:06.011Z</time></trkpt><trkpt lat="44.1283531" lon="11.2518591"><ele>815.8</ele><time>2026-04-12T11:24:07.01Z</time></trkpt><trkpt lat="44.1284723" lon="11.2519116"><ele>814.6</ele><time>2026-04-12T11:24:08.01Z</time></trkpt><trkpt lat="44.1285816" lon="11.2519322"><ele>813.4</ele><time>2026-04-12T11:24:09.011Z</time></trkpt><trkpt lat="44.1286873" lon="11.2519322"><ele>812.1999999999999</ele><time>2026-04-12T11:24:10.01Z</time></trkpt><trkpt lat="44.1287841" lon="11.2519064"><ele>811.0</ele><time>2026-04-12T11:24:11.011Z</time></trkpt><trkpt lat="44.1288789" lon="11.2518532"><ele>810.9999999999999</ele><time>2026-04-12T11:24:12.01Z</time></trkpt><trkpt lat="44.1289681" lon="11.2518024"><ele>811.0</ele><time>2026-04-12T11:24:13.01Z</time></trkpt><trkpt lat="44.1290549" lon="11.2517636"><ele>811.0</ele><time>2026-04-12T11:24:14.011Z</time></trkpt><trkpt lat="44.1291328" lon="11.2517505"><ele>811.0</ele><time>2026-04-12T11:24:15.011Z</time></trkpt><trkpt lat="44.1292048" lon="11.2517281"><ele>810.9999999999999</ele><time>2026-04-12T11:24:16.01Z</time></trkpt><trkpt lat="44.1292667" lon="11.2517108"><ele>811.0</ele><time>2026-04-12T11:24:17.01Z</time></trkpt><trkpt lat="44.1293882" lon="11.2517682"><ele>810.0</ele><time>2026-04-12T11:24:19.01Z</time></trkpt><trkpt lat="44.1294528" lon="11.2518532"><ele>809.0</ele><time>2026-04-12T11:24:20.01Z</time></trkpt><trkpt lat="44.1295218" lon="11.2519206"><ele>808.0</ele><time>2026-04-12T11:24:21.01Z</time></trkpt><trkpt lat="44.1296075" lon="11.2519454"><ele>807.0</ele><time>2026-04-12T11:24:22.01Z</time></trkpt><trkpt lat="44.1297053" lon="11.2519421"><ele>806.0</ele><time>2026-04-12T11:24:23.01Z</time></trkpt><trkpt lat="44.1298213" lon="11.2518826"><ele>804.75</ele><time>2026-04-12T11:24:24.011Z</time></trkpt><trkpt lat="44.1299458" lon="11.251775"><ele>803.5</ele><time>2026-04-12T11:24:25.012Z</time></trkpt><trkpt lat="44.1300699" lon="11.2516535"><ele>802.25</ele><time>2026-04-12T11:24:26.012Z</time></trkpt><trkpt lat="44.1302016" lon="11.251575"><ele>801.0</ele><time>2026-04-12T11:24:27.011Z</time></trkpt><trkpt lat="44.1303377" lon="11.251534"><ele>801.0</ele><time>2026-04-12T11:24:28.012Z</time></trkpt><trkpt lat="44.1304844" lon="11.2515103"><ele>801.0</ele><time>2026-04-12T11:24:29.011Z</time></trkpt><trkpt lat="44.1306411" lon="11.2515072"><ele>801.0</ele><time>2026-04-12T11:24:30.011Z</time></trkpt><trkpt lat="44.1308072" lon="11.2515118"><ele>800.0</ele><time>2026-04-12T11:24:31.011Z</time></trkpt><trkpt lat="44.1309728" lon="11.251521"><ele>799.0</ele><time>2026-04-12T11:24:32.011Z</time></trkpt><trkpt lat="44.1311449" lon="11.2515404"><ele>798.0</ele><time>2026-04-12T11:24:33.011Z</time></trkpt><trkpt lat="44.131308" lon="11.2515581"><ele>798.0</ele><time>2026-04-12T11:24:34.011Z</time></trkpt><trkpt lat="44.1314625" lon="11.2515774"><ele>798.0</ele><time>2026-04-12T11:24:35.011Z</time></trkpt><trkpt lat="44.1316118" lon="11.2515901"><ele>798.0</ele><time>2026-04-12T11:24:36.011Z</time></trkpt><trkpt lat="44.1317626" lon="11.2515804"><ele>795.6666666666667</ele><time>2026-04-12T11:24:37.011Z</time></trkpt><trkpt lat="44.1319158" lon="11.2515559"><ele>793.3333333333334</ele><time>2026-04-12T11:24:38.011Z</time></trkpt><trkpt lat="44.1320744" lon="11.2514879"><ele>791.0</ele><time>2026-04-12T11:24:39.011Z</time></trkpt><trkpt lat="44.132228" lon="11.2514077"><ele>788.6666666666667</ele><time>2026-04-12T11:24:40.011Z</time></trkpt><trkpt lat="44.1323769" lon="11.2513285"><ele>786.3333333333333</ele><time>2026-04-12T11:24:41.011Z</time></trkpt><trkpt lat="44.1325232" lon="11.2512548"><ele>784.0</ele><time>2026-04-12T11:24:42.011Z</time></trkpt><trkpt lat="44.1326705" lon="11.2511825"><ele>783.3333333333333</ele><time>2026-04-12T11:24:43.011Z</time></trkpt><trkpt lat="44.1328169" lon="11.2511086"><ele>782.6666666666667</ele><time>2026-04-12T11:24:44.011Z</time></trkpt><trkpt lat="44.132964" lon="11.251034"><ele>782.0</ele><time>2026-04-12T11:24:45.011Z</time></trkpt><trkpt lat="44.133112" lon="11.250959"><ele>780.3333333333334</ele><time>2026-04-12T11:24:46.011Z</time></trkpt><trkpt lat="44.133263" lon="11.2508812"><ele>778.6666666666667</ele><time>2026-04-12T11:24:47.011Z</time></trkpt><trkpt lat="44.1334154" lon="11.2508011"><ele>777.0</ele><time>2026-04-12T11:24:48.011Z</time></trkpt><trkpt lat="44.1335701" lon="11.2507253"><ele>777.0</ele><time>2026-04-12T11:24:49.012Z</time></trkpt><trkpt lat="44.1337233" lon="11.2506498"><ele>777.0</ele><time>2026-04-12T11:24:50.011Z</time></trkpt><trkpt lat="44.1338683" lon="11.2505697"><ele>777.0</ele><time>2026-04-12T11:24:51.012Z</time></trkpt><trkpt lat="44.1339998" lon="11.2504759"><ele>775.8</ele><time>2026-04-12T11:24:52.011Z</time></trkpt><trkpt lat="44.1341126" lon="11.2503745"><ele>774.6</ele><time>2026-04-12T11:24:53.011Z</time></trkpt><trkpt lat="44.1342061" lon="11.2502781"><ele>773.4</ele><time>2026-04-12T11:24:54.011Z</time></trkpt><trkpt lat="44.1342862" lon="11.2502023"><ele>772.1999999999999</ele><time>2026-04-12T11:24:55.011Z</time></trkpt><trkpt lat="44.1343643" lon="11.2501581"><ele>771.0</ele><time>2026-04-12T11:24:56.011Z</time></trkpt><trkpt lat="44.1344404" lon="11.2501325"><ele>771.0</ele><time>2026-04-12T11:24:57.012Z</time></trkpt><trkpt lat="44.1345188" lon="11.2501745"><ele>771.0</ele><time>2026-04-12T11:24:58.011Z</time></trkpt><trkpt lat="44.134596" lon="11.2502404"><ele>771.0</ele><time>2026-04-12T11:24:59.011Z</time></trkpt><trkpt lat="44.1346606" lon="11.2503767"><ele>771.0</ele><time>2026-04-12T11:25:00.011Z</time></trkpt><trkpt lat="44.1347129" lon="11.2505295"><ele>771.0</ele><time>2026-04-12T11:25:01.011Z</time></trkpt><trkpt lat="44.1347821" lon="11.2506558"><ele>770.75</ele><time>2026-04-12T11:25:02.011Z</time></trkpt><trkpt lat="44.1348672" lon="11.2507417"><ele>770.5</ele><time>2026-04-12T11:25:03.011Z</time></trkpt><trkpt lat="44.134976" lon="11.2507866"><ele>770.25</ele><time>2026-04-12T11:25:04.012Z</time></trkpt><trkpt lat="44.1351094" lon="11.2507839"><ele>770.0</ele><time>2026-04-12T11:25:05.011Z</time></trkpt><trkpt lat="44.1352626" lon="11.2507508"><ele>770.0</ele><time>2026-04-12T11:25:06.011Z</time></trkpt><trkpt lat="44.1354264" lon="11.250707"><ele>770.0</ele><time>2026-04-12T11:25:07.011Z</time></trkpt><trkpt lat="44.1355844" lon="11.250663"><ele>770.0</ele><time>2026-04-12T11:25:08.012Z</time></trkpt><trkpt lat="44.1357371" lon="11.2506231"><ele>769.0</ele><time>2026-04-12T11:25:09.011Z</time></trkpt><trkpt lat="44.1358858" lon="11.2505885"><ele>768.0</ele><time>2026-04-12T11:25:10.011Z</time></trkpt><trkpt lat="44.1360346" lon="11.2505605"><ele>767.0</ele><time>2026-04-12T11:25:11.011Z</time></trkpt><trkpt lat="44.1361797" lon="11.2505359"><ele>766.0</ele><time>2026-04-12T11:25:12.011Z</time></trkpt><trkpt lat="44.1363205" lon="11.2505099"><ele>766.0</ele><time>2026-04-12T11:25:13.011Z</time></trkpt><trkpt lat="44.1364569" lon="11.2504862"><ele>766.0</ele><time>2026-04-12T11:25:14.011Z</time></trkpt><trkpt lat="44.1365946" lon="11.2504609"><ele>766.0</ele><time>2026-04-12T11:25:15.011Z</time></trkpt><trkpt lat="44.1367298" lon="11.2504393"><ele>766.0</ele><time>2026-04-12T11:25:16.011Z</time></trkpt><trkpt lat="44.1368649" lon="11.2504166"><ele>766.5</ele><time>2026-04-12T11:25:17.011Z</time></trkpt><trkpt lat="44.1369981" lon="11.2503994"><ele>767.0</ele><time>2026-04-12T11:25:18.011Z</time></trkpt><trkpt lat="44.137134" lon="11.250386"><ele>767.5</ele><time>2026-04-12T11:25:19.011Z</time></trkpt><trkpt lat="44.137271" lon="11.2503768"><ele>768.0</ele><time>2026-04-12T11:25:20.011Z</time></trkpt><trkpt lat="44.1374166" lon="11.2503765"><ele>768.0</ele><time>2026-04-12T11:25:21.011Z</time></trkpt><trkpt lat="44.1375628" lon="11.2503797"><ele>768.0</ele><time>2026-04-12T11:25:22.011Z</time></trkpt><trkpt lat="44.1377072" lon="11.2503837"><ele>768.0</ele><time>2026-04-12T11:25:23.011Z</time></trkpt><trkpt lat="44.1378505" lon="11.2503915"><ele>768.0</ele><time>2026-04-12T11:25:24.012Z</time></trkpt><trkpt lat="44.1379914" lon="11.2504119"><ele>768.0</ele><time>2026-04-12T11:25:25.011Z</time></trkpt><trkpt lat="44.1381251" lon="11.2504527"><ele>768.0</ele><time>2026-04-12T11:25:26.011Z</time></trkpt><trkpt lat="44.1382493" lon="11.2505086"><ele>768.0</ele><time>2026-04-12T11:25:27.011Z</time></trkpt><trkpt lat="44.1383654" lon="11.250565"><ele>768.0</ele><time>2026-04-12T11:25:28.011Z</time></trkpt><trkpt lat="44.1384787" lon="11.2505912"><ele>769.0</ele><time>2026-04-12T11:25:29.011Z</time></trkpt><trkpt lat="44.1385975" lon="11.2505554"><ele>770.0</ele><time>2026-04-12T11:25:30.011Z</time></trkpt><trkpt lat="44.1387251" lon="11.2504498"><ele>771.0</ele><time>2026-04-12T11:25:31.011Z</time></trkpt><trkpt lat="44.1388587" lon="11.2502853"><ele>772.0</ele><time>2026-04-12T11:25:32.011Z</time></trkpt><trkpt lat="44.138988" lon="11.2500994"><ele>772.6666666666666</ele><time>2026-04-12T11:25:33.011Z</time></trkpt><trkpt lat="44.139111" lon="11.2499148"><ele>773.3333333333333</ele><time>2026-04-12T11:25:34.011Z</time></trkpt><trkpt lat="44.1392287" lon="11.2497406"><ele>774.0</ele><time>2026-04-12T11:25:35.011Z</time></trkpt><trkpt lat="44.1393388" lon="11.2495738"><ele>773.0</ele><time>2026-04-12T11:25:36.011Z</time></trkpt><trkpt lat="44.1394363" lon="11.249408"><ele>772.0</ele><time>2026-04-12T11:25:37.011Z</time></trkpt><trkpt lat="44.1395164" lon="11.2492394"><ele>771.0</ele><time>2026-04-12T11:25:38.013Z</time></trkpt><trkpt lat="44.1395825" lon="11.2490673"><ele>770.0</ele><time>2026-04-12T11:25:39.011Z</time></trkpt><trkpt lat="44.1396408" lon="11.2488891"><ele>767.5</ele><time>2026-04-12T11:25:40.012Z</time></trkpt><trkpt lat="44.1396962" lon="11.248708"><ele>765.0</ele><time>2026-04-12T11:25:41.012Z</time></trkpt><trkpt lat="44.1397476" lon="11.2485236"><ele>762.5</ele><time>2026-04-12T11:25:42.011Z</time></trkpt><trkpt lat="44.1397972" lon="11.2483348"><ele>760.0</ele><time>2026-04-12T11:25:43.011Z</time></trkpt><trkpt lat="44.1398518" lon="11.2481371"><ele>759.3333333333334</ele><time>2026-04-12T11:25:44.011Z</time></trkpt><trkpt lat="44.1399105" lon="11.2479386"><ele>758.6666666666666</ele><time>2026-04-12T11:25:45.011Z</time></trkpt><trkpt lat="44.1399781" lon="11.2477347"><ele>758.0</ele><time>2026-04-12T11:25:46.011Z</time></trkpt><trkpt lat="44.1400572" lon="11.2475236"><ele>758.0</ele><time>2026-04-12T11:25:47.011Z</time></trkpt><trkpt lat="44.1401443" lon="11.2473109"><ele>758.0</ele><time>2026-04-12T11:25:48.013Z</time></trkpt><trkpt lat="44.1402327" lon="11.2471025"><ele>758.0</ele><time>2026-04-12T11:25:49.011Z</time></trkpt><trkpt lat="44.1403175" lon="11.246902"><ele>757.0</ele><time>2026-04-12T11:25:50.011Z</time></trkpt><trkpt lat="44.1403919" lon="11.2467001"><ele>756.0</ele><time>2026-04-12T11:25:51.011Z</time></trkpt><trkpt lat="44.1404558" lon="11.2464921"><ele>755.0</ele><time>2026-04-12T11:25:52.011Z</time></trkpt><trkpt lat="44.1405126" lon="11.2462783"><ele>755.0</ele><time>2026-04-12T11:25:53.011Z</time></trkpt><trkpt lat="44.1405668" lon="11.2460572"><ele>755.0</ele><time>2026-04-12T11:25:54.011Z</time></trkpt><trkpt lat="44.1406224" lon="11.2458327"><ele>755.0</ele><time>2026-04-12T11:25:55.011Z</time></trkpt><trkpt lat="44.140678" lon="11.2456097"><ele>757.0</ele><time>2026-04-12T11:25:56.012Z</time></trkpt><trkpt lat="44.1407295" lon="11.2453995"><ele>759.0</ele><time>2026-04-12T11:25:57.011Z</time></trkpt><trkpt lat="44.1407761" lon="11.2452084"><ele>761.0</ele><time>2026-04-12T11:25:58.012Z</time></trkpt><trkpt lat="44.1408228" lon="11.2450385"><ele>763.0</ele><time>2026-04-12T11:25:59.013Z</time></trkpt><trkpt lat="44.1408835" lon="11.2448934"><ele>762.0</ele><time>2026-04-12T11:26:00.012Z</time></trkpt><trkpt lat="44.1409687" lon="11.2447682"><ele>761.0</ele><time>2026-04-12T11:26:01.012Z</time></trkpt><trkpt lat="44.1410809" lon="11.2446538"><ele>760.0</ele><time>2026-04-12T11:26:02.012Z</time></trkpt><trkpt lat="44.1412226" lon="11.2445392"><ele>759.0</ele><time>2026-04-12T11:26:03.012Z</time></trkpt><trkpt lat="44.1413684" lon="11.2444176"><ele>759.0</ele><time>2026-04-12T11:26:04.013Z</time></trkpt><trkpt lat="44.1415032" lon="11.2442825"><ele>759.0</ele><time>2026-04-12T11:26:05.012Z</time></trkpt><trkpt lat="44.1416262" lon="11.244141"><ele>759.0</ele><time>2026-04-12T11:26:06.013Z</time></trkpt><trkpt lat="44.1417389" lon="11.2440032"><ele>758.75</ele><time>2026-04-12T11:26:07.012Z</time></trkpt><trkpt lat="44.1418456" lon="11.2438709"><ele>758.5</ele><time>2026-04-12T11:26:08.012Z</time></trkpt><trkpt lat="44.1419468" lon="11.2437375"><ele>758.25</ele><time>2026-04-12T11:26:09.012Z</time></trkpt><trkpt lat="44.1420355" lon="11.2435858"><ele>758.0</ele><time>2026-04-12T11:26:10.012Z</time></trkpt><trkpt lat="44.1421081" lon="11.2434042"><ele>758.0</ele><time>2026-04-12T11:26:11.012Z</time></trkpt><trkpt lat="44.1421644" lon="11.2432079"><ele>758.0</ele><time>2026-04-12T11:26:12.012Z</time></trkpt><trkpt lat="44.1422133" lon="11.2430156"><ele>758.0</ele><time>2026-04-12T11:26:13.012Z</time></trkpt><trkpt lat="44.1422581" lon="11.2428347"><ele>758.0</ele><time>2026-04-12T11:26:14.012Z</time></trkpt><trkpt lat="44.1422996" lon="11.2426659"><ele>756.75</ele><time>2026-04-12T11:26:15.012Z</time></trkpt><trkpt lat="44.1423387" lon="11.2425089"><ele>755.5</ele><time>2026-04-12T11:26:16.012Z</time></trkpt><trkpt lat="44.1423844" lon="11.2423616"><ele>754.25</ele><time>2026-04-12T11:26:17.012Z</time></trkpt><trkpt lat="44.1424474" lon="11.2422215"><ele>753.0</ele><time>2026-04-12T11:26:18.012Z</time></trkpt><trkpt lat="44.1425278" lon="11.2420917"><ele>753.0</ele><time>2026-04-12T11:26:19.012Z</time></trkpt><trkpt lat="44.1426208" lon="11.2419712"><ele>753.0</ele><time>2026-04-12T11:26:20.012Z</time></trkpt><trkpt lat="44.1427195" lon="11.2418549"><ele>753.0</ele><time>2026-04-12T11:26:21.012Z</time></trkpt><trkpt lat="44.142817" lon="11.2417445"><ele>753.0</ele><time>2026-04-12T11:26:22.012Z</time></trkpt><trkpt lat="44.1429083" lon="11.2416387"><ele>753.0</ele><time>2026-04-12T11:26:23.012Z</time></trkpt><trkpt lat="44.1429925" lon="11.2415406"><ele>753.0</ele><time>2026-04-12T11:26:24.012Z</time></trkpt><trkpt lat="44.1430745" lon="11.2414537"><ele>753.0</ele><time>2026-04-12T11:26:25.012Z</time></trkpt><trkpt lat="44.1431594" lon="11.2413835"><ele>753.0</ele><time>2026-04-12T11:26:26.012Z</time></trkpt><trkpt lat="44.1432536" lon="11.2413473"><ele>753.0</ele><time>2026-04-12T11:26:27.013Z</time></trkpt><trkpt lat="44.1433474" lon="11.2413445"><ele>751.0</ele><time>2026-04-12T11:26:28.013Z</time></trkpt><trkpt lat="44.1434387" lon="11.2413816"><ele>749.0</ele><time>2026-04-12T11:26:29.012Z</time></trkpt><trkpt lat="44.1435407" lon="11.2414531"><ele>747.0</ele><time>2026-04-12T11:26:30.012Z</time></trkpt><trkpt lat="44.1436585" lon="11.2415498"><ele>745.0</ele><time>2026-04-12T11:26:31.012Z</time></trkpt><trkpt lat="44.1437871" lon="11.2416543"><ele>747.25</ele><time>2026-04-12T11:26:32.012Z</time></trkpt><trkpt lat="44.1439085" lon="11.2417529"><ele>749.5</ele><time>2026-04-12T11:26:33.012Z</time></trkpt><trkpt lat="44.1440246" lon="11.2418254"><ele>751.75</ele><time>2026-04-12T11:26:34.013Z</time></trkpt><trkpt lat="44.1441373" lon="11.2418477"><ele>754.0</ele><time>2026-04-12T11:26:35.012Z</time></trkpt><trkpt lat="44.1442429" lon="11.2418156"><ele>754.0</ele><time>2026-04-12T11:26:36.012Z</time></trkpt><trkpt lat="44.1443445" lon="11.2417339"><ele>754.0</ele><time>2026-04-12T11:26:37.012Z</time></trkpt><trkpt lat="44.1444556" lon="11.2416217"><ele>754.0</ele><time>2026-04-12T11:26:38.012Z</time></trkpt><trkpt lat="44.1445687" lon="11.2414806"><ele>754.0</ele><time>2026-04-12T11:26:39.012Z</time></trkpt><trkpt lat="44.1446644" lon="11.2413603"><ele>751.6</ele><time>2026-04-12T11:26:40.012Z</time></trkpt><trkpt lat="44.1447336" lon="11.2412498"><ele>749.2</ele><time>2026-04-12T11:26:41.012Z</time></trkpt><trkpt lat="44.1447618" lon="11.2411311"><ele>746.8000000000001</ele><time>2026-04-12T11:26:42.013Z</time></trkpt><trkpt lat="44.1447531" lon="11.2410029"><ele>744.4000000000001</ele><time>2026-04-12T11:26:43.013Z</time></trkpt><trkpt lat="44.1447136" lon="11.2408492"><ele>742.0</ele><time>2026-04-12T11:26:44.013Z</time></trkpt><trkpt lat="44.144654" lon="11.2406654"><ele>742.3333333333334</ele><time>2026-04-12T11:26:45.012Z</time></trkpt><trkpt lat="44.1445839" lon="11.2404677"><ele>742.6666666666666</ele><time>2026-04-12T11:26:46.012Z</time></trkpt><trkpt lat="44.1445098" lon="11.240275"><ele>743.0</ele><time>2026-04-12T11:26:47.012Z</time></trkpt><trkpt lat="44.1444309" lon="11.2400905"><ele>743.0</ele><time>2026-04-12T11:26:48.013Z</time></trkpt><trkpt lat="44.1443504" lon="11.2399109"><ele>743.0</ele><time>2026-04-12T11:26:49.012Z</time></trkpt><trkpt lat="44.1442691" lon="11.2397365"><ele>743.0</ele><time>2026-04-12T11:26:50.012Z</time></trkpt><trkpt lat="44.1441949" lon="11.2395711"><ele>743.0</ele><time>2026-04-12T11:26:51.012Z</time></trkpt><trkpt lat="44.1441312" lon="11.2393986"><ele>741.0</ele><time>2026-04-12T11:26:52.012Z</time></trkpt><trkpt lat="44.144087" lon="11.2391992"><ele>739.0</ele><time>2026-04-12T11:26:53.012Z</time></trkpt><trkpt lat="44.1440579" lon="11.2389764"><ele>737.0</ele><time>2026-04-12T11:26:54.012Z</time></trkpt><trkpt lat="44.1440341" lon="11.2387422"><ele>737.0</ele><time>2026-04-12T11:26:55.013Z</time></trkpt><trkpt lat="44.1440068" lon="11.2385028"><ele>737.0</ele><time>2026-04-12T11:26:56.012Z</time></trkpt><trkpt lat="44.1439643" lon="11.238261"><ele>737.0</ele><time>2026-04-12T11:26:57.011Z</time></trkpt><trkpt lat="44.1439074" lon="11.2380265"><ele>741.0</ele><time>2026-04-12T11:26:58.012Z</time></trkpt><trkpt lat="44.1438378" lon="11.2377968"><ele>745.0</ele><time>2026-04-12T11:26:59.012Z</time></trkpt><trkpt lat="44.1437603" lon="11.237575"><ele>749.0</ele><time>2026-04-12T11:27:00.012Z</time></trkpt><trkpt lat="44.1436784" lon="11.2373608"><ele>751.6666666666666</ele><time>2026-04-12T11:27:01.012Z</time></trkpt><trkpt lat="44.1435934" lon="11.2371504"><ele>754.3333333333334</ele><time>2026-04-12T11:27:02.012Z</time></trkpt><trkpt lat="44.1435048" lon="11.2369402"><ele>757.0</ele><time>2026-04-12T11:27:03.012Z</time></trkpt><trkpt lat="44.1434156" lon="11.23673"><ele>757.0</ele><time>2026-04-12T11:27:04.012Z</time></trkpt><trkpt lat="44.1433317" lon="11.2365242"><ele>757.0</ele><time>2026-04-12T11:27:05.012Z</time></trkpt><trkpt lat="44.1432548" lon="11.2363311"><ele>757.0</ele><time>2026-04-12T11:27:06.012Z</time></trkpt><trkpt lat="44.1431746" lon="11.2361444"><ele>756.3333333333334</ele><time>2026-04-12T11:27:07.012Z</time></trkpt><trkpt lat="44.1430795" lon="11.2359788"><ele>755.6666666666666</ele><time>2026-04-12T11:27:08.012Z</time></trkpt><trkpt lat="44.1429615" lon="11.2358331"><ele>755.0</ele><time>2026-04-12T11:27:09.013Z</time></trkpt><trkpt lat="44.1428368" lon="11.2357145"><ele>756.0</ele><time>2026-04-12T11:27:10.013Z</time></trkpt><trkpt lat="44.1427258" lon="11.2356157"><ele>757.0</ele><time>2026-04-12T11:27:11.012Z</time></trkpt><trkpt lat="44.1426268" lon="11.235528"><ele>758.0</ele><time>2026-04-12T11:27:12.012Z</time></trkpt><trkpt lat="44.1425508" lon="11.2354334"><ele>759.0</ele><time>2026-04-12T11:27:13.012Z</time></trkpt><trkpt lat="44.1425056" lon="11.235313"><ele>760.0</ele><time>2026-04-12T11:27:14.012Z</time></trkpt><trkpt lat="44.1424984" lon="11.2351855"><ele>760.0</ele><time>2026-04-12T11:27:15.013Z</time></trkpt><trkpt lat="44.1425376" lon="11.2350632"><ele>760.0</ele><time>2026-04-12T11:27:16.012Z</time></trkpt><trkpt lat="44.1426089" lon="11.2349669"><ele>760.0</ele><time>2026-04-12T11:27:17.012Z</time></trkpt><trkpt lat="44.142719" lon="11.2349175"><ele>760.0</ele><time>2026-04-12T11:27:18.012Z</time></trkpt><trkpt lat="44.1428557" lon="11.234931"><ele>760.0</ele><time>2026-04-12T11:27:19.012Z</time></trkpt><trkpt lat="44.1430131" lon="11.2349748"><ele>760.0</ele><time>2026-04-12T11:27:20.012Z</time></trkpt><trkpt lat="44.1431604" lon="11.2350032"><ele>760.0</ele><time>2026-04-12T11:27:21.012Z</time></trkpt><trkpt lat="44.1432989" lon="11.2349823"><ele>760.0</ele><time>2026-04-12T11:27:22.012Z</time></trkpt><trkpt lat="44.1434518" lon="11.2349182"><ele>760.0</ele><time>2026-04-12T11:27:23.012Z</time></trkpt><trkpt lat="44.1435969" lon="11.2348209"><ele>757.0</ele><time>2026-04-12T11:27:24.012Z</time></trkpt><trkpt lat="44.1437308" lon="11.2347065"><ele>754.0</ele><time>2026-04-12T11:27:25.012Z</time></trkpt><trkpt lat="44.1438627" lon="11.2345988"><ele>751.0</ele><time>2026-04-12T11:27:26.012Z</time></trkpt><trkpt lat="44.1439924" lon="11.2344895"><ele>754.0</ele><time>2026-04-12T11:27:27.012Z</time></trkpt><trkpt lat="44.1441192" lon="11.2343811"><ele>757.0</ele><time>2026-04-12T11:27:28.012Z</time></trkpt><trkpt lat="44.1442515" lon="11.2342823"><ele>760.0</ele><time>2026-04-12T11:27:29.012Z</time></trkpt><trkpt lat="44.1443758" lon="11.2341879"><ele>763.0</ele><time>2026-04-12T11:27:30.013Z</time></trkpt><trkpt lat="44.1444902" lon="11.2341077"><ele>763.0</ele><time>2026-04-12T11:27:31.012Z</time></trkpt><trkpt lat="44.1445854" lon="11.2340177"><ele>763.0</ele><time>2026-04-12T11:27:32.012Z</time></trkpt><trkpt lat="44.1446556" lon="11.2339006"><ele>763.0</ele><time>2026-04-12T11:27:33.013Z</time></trkpt><trkpt lat="44.1447059" lon="11.2337408"><ele>763.0</ele><time>2026-04-12T11:27:34.014Z</time></trkpt><trkpt lat="44.1447401" lon="11.2335509"><ele>760.6666666666667</ele><time>2026-04-12T11:27:35.013Z</time></trkpt><trkpt lat="44.1447585" lon="11.2333315"><ele>758.3333333333334</ele><time>2026-04-12T11:27:36.013Z</time></trkpt><trkpt lat="44.1447729" lon="11.2331076"><ele>756.0</ele><time>2026-04-12T11:27:37.013Z</time></trkpt><trkpt lat="44.1447823" lon="11.2329022"><ele>755.5</ele><time>2026-04-12T11:27:38.013Z</time></trkpt><trkpt lat="44.1447964" lon="11.2327213"><ele>755.0</ele><time>2026-04-12T11:27:39.013Z</time></trkpt><trkpt lat="44.14482" lon="11.2325703"><ele>754.5</ele><time>2026-04-12T11:27:40.013Z</time></trkpt><trkpt lat="44.1448732" lon="11.232444"><ele>754.0</ele><time>2026-04-12T11:27:41.013Z</time></trkpt><trkpt lat="44.1449631" lon="11.2323184"><ele>758.0</ele><time>2026-04-12T11:27:42.013Z</time></trkpt><trkpt lat="44.1450797" lon="11.2321859"><ele>762.0</ele><time>2026-04-12T11:27:43.013Z</time></trkpt><trkpt lat="44.1452112" lon="11.2320404"><ele>766.0</ele><time>2026-04-12T11:27:44.013Z</time></trkpt><trkpt lat="44.1453382" lon="11.2318961"><ele>766.0</ele><time>2026-04-12T11:27:45.013Z</time></trkpt><trkpt lat="44.1454422" lon="11.2317503"><ele>766.0</ele><time>2026-04-12T11:27:46.014Z</time></trkpt><trkpt lat="44.145515" lon="11.2315631"><ele>766.0</ele><time>2026-04-12T11:27:47.014Z</time></trkpt><trkpt lat="44.1455682" lon="11.2313373"><ele>766.0</ele><time>2026-04-12T11:27:48.013Z</time></trkpt><trkpt lat="44.1456005" lon="11.2310976"><ele>766.0</ele><time>2026-04-12T11:27:49.013Z</time></trkpt><trkpt lat="44.145605" lon="11.2308301"><ele>766.0</ele><time>2026-04-12T11:27:50.013Z</time></trkpt><trkpt lat="44.1455733" lon="11.230542"><ele>766.0</ele><time>2026-04-12T11:27:51.014Z</time></trkpt><trkpt lat="44.1455353" lon="11.2302637"><ele>766.0</ele><time>2026-04-12T11:27:52.013Z</time></trkpt><trkpt lat="44.1454882" lon="11.2300174"><ele>766.0</ele><time>2026-04-12T11:27:53.014Z</time></trkpt><trkpt lat="44.1454481" lon="11.2297835"><ele>767.0</ele><time>2026-04-12T11:27:54.013Z</time></trkpt><trkpt lat="44.1454111" lon="11.2295664"><ele>768.0</ele><time>2026-04-12T11:27:55.013Z</time></trkpt><trkpt lat="44.1453559" lon="11.2293651"><ele>769.0</ele><time>2026-04-12T11:27:56.013Z</time></trkpt><trkpt lat="44.1452734" lon="11.229154"><ele>771.3333333333333</ele><time>2026-04-12T11:27:57.013Z</time></trkpt><trkpt lat="44.1451596" lon="11.2289505"><ele>773.6666666666667</ele><time>2026-04-12T11:27:58.013Z</time></trkpt><trkpt lat="44.1450244" lon="11.2287521"><ele>776.0</ele><time>2026-04-12T11:27:59.013Z</time></trkpt><trkpt lat="44.1448867" lon="11.2285656"><ele>775.0</ele><time>2026-04-12T11:28:00.013Z</time></trkpt><trkpt lat="44.1447645" lon="11.2283782"><ele>774.0</ele><time>2026-04-12T11:28:01.013Z</time></trkpt><trkpt lat="44.1446521" lon="11.2282185"><ele>773.0</ele><time>2026-04-12T11:28:02.013Z</time></trkpt><trkpt lat="44.1445483" lon="11.2280612"><ele>773.0</ele><time>2026-04-12T11:28:03.013Z</time></trkpt><trkpt lat="44.1444563" lon="11.2279057"><ele>773.0</ele><time>2026-04-12T11:28:04.013Z</time></trkpt><trkpt lat="44.14437" lon="11.227722"><ele>773.0</ele><time>2026-04-12T11:28:05.013Z</time></trkpt><trkpt lat="44.144297" lon="11.2275019"><ele>775.6666666666667</ele><time>2026-04-12T11:28:06.014Z</time></trkpt><trkpt lat="44.1442329" lon="11.2272815"><ele>778.3333333333333</ele><time>2026-04-12T11:28:07.013Z</time></trkpt><trkpt lat="44.144169" lon="11.2270688"><ele>781.0</ele><time>2026-04-12T11:28:08.013Z</time></trkpt><trkpt lat="44.1440848" lon="11.22687"><ele>781.0</ele><time>2026-04-12T11:28:09.014Z</time></trkpt><trkpt lat="44.143963" lon="11.2266927"><ele>781.0</ele><time>2026-04-12T11:28:10.014Z</time></trkpt><trkpt lat="44.1438171" lon="11.2265291"><ele>781.0</ele><time>2026-04-12T11:28:11.013Z</time></trkpt><trkpt lat="44.1436704" lon="11.2263863"><ele>781.0</ele><time>2026-04-12T11:28:12.013Z</time></trkpt><trkpt lat="44.1435292" lon="11.2262497"><ele>781.0</ele><time>2026-04-12T11:28:13.013Z</time></trkpt><trkpt lat="44.1433988" lon="11.2261325"><ele>781.0</ele><time>2026-04-12T11:28:14.013Z</time></trkpt><trkpt lat="44.1432876" lon="11.2260239"><ele>779.8</ele><time>2026-04-12T11:28:15.013Z</time></trkpt><trkpt lat="44.1431968" lon="11.2259232"><ele>778.5999999999999</ele><time>2026-04-12T11:28:16.013Z</time></trkpt><trkpt lat="44.1431345" lon="11.22581"><ele>777.4</ele><time>2026-04-12T11:28:17.013Z</time></trkpt><trkpt lat="44.1431021" lon="11.2256734"><ele>776.2</ele><time>2026-04-12T11:28:18.014Z</time></trkpt><trkpt lat="44.1430952" lon="11.2255276"><ele>775.0</ele><time>2026-04-12T11:28:19.013Z</time></trkpt><trkpt lat="44.1431183" lon="11.2253864"><ele>775.0</ele><time>2026-04-12T11:28:20.013Z</time></trkpt><trkpt lat="44.1431752" lon="11.2252706"><ele>775.0</ele><time>2026-04-12T11:28:21.013Z</time></trkpt><trkpt lat="44.1432615" lon="11.2251808"><ele>775.0</ele><time>2026-04-12T11:28:22.014Z</time></trkpt><trkpt lat="44.1433835" lon="11.2251126"><ele>775.0</ele><time>2026-04-12T11:28:23.013Z</time></trkpt><trkpt lat="44.1435469" lon="11.2250721"><ele>777.6666666666666</ele><time>2026-04-12T11:28:24.014Z</time></trkpt><trkpt lat="44.1437507" lon="11.2250503"><ele>780.3333333333333</ele><time>2026-04-12T11:28:25.013Z</time></trkpt><trkpt lat="44.1439647" lon="11.2250224"><ele>783.0</ele><time>2026-04-12T11:28:26.013Z</time></trkpt><trkpt lat="44.1441715" lon="11.2249907"><ele>783.3333333333333</ele><time>2026-04-12T11:28:27.013Z</time></trkpt><trkpt lat="44.1443639" lon="11.2249641"><ele>783.6666666666666</ele><time>2026-04-12T11:28:28.013Z</time></trkpt><trkpt lat="44.1445467" lon="11.2249381"><ele>784.0</ele><time>2026-04-12T11:28:29.013Z</time></trkpt><trkpt lat="44.1447065" lon="11.2249173"><ele>784.0</ele><time>2026-04-12T11:28:30.013Z</time></trkpt><trkpt lat="44.1448491" lon="11.2249039"><ele>784.0</ele><time>2026-04-12T11:28:31.013Z</time></trkpt><trkpt lat="44.1449766" lon="11.2248878"><ele>784.0</ele><time>2026-04-12T11:28:32.013Z</time></trkpt><trkpt lat="44.1450958" lon="11.2248698"><ele>784.0</ele><time>2026-04-12T11:28:33.013Z</time></trkpt><trkpt lat="44.1452022" lon="11.2248244"><ele>780.25</ele><time>2026-04-12T11:28:34.013Z</time></trkpt><trkpt lat="44.1452964" lon="11.2247343"><ele>776.5</ele><time>2026-04-12T11:28:35.013Z</time></trkpt><trkpt lat="44.1453653" lon="11.2245769"><ele>772.75</ele><time>2026-04-12T11:28:36.013Z</time></trkpt><trkpt lat="44.1453917" lon="11.2243751"><ele>769.0</ele><time>2026-04-12T11:28:37.013Z</time></trkpt><trkpt lat="44.1453998" lon="11.2241519"><ele>768.0</ele><time>2026-04-12T11:28:38.013Z</time></trkpt><trkpt lat="44.1454" lon="11.2239316"><ele>767.0</ele><time>2026-04-12T11:28:39.014Z</time></trkpt><trkpt lat="44.1454015" lon="11.223708"><ele>766.0</ele><time>2026-04-12T11:28:40.013Z</time></trkpt><trkpt lat="44.1454133" lon="11.2234886"><ele>766.0</ele><time>2026-04-12T11:28:41.014Z</time></trkpt><trkpt lat="44.1454486" lon="11.2232694"><ele>766.0</ele><time>2026-04-12T11:28:42.013Z</time></trkpt><trkpt lat="44.1455111" lon="11.223059"><ele>766.0</ele><time>2026-04-12T11:28:43.013Z</time></trkpt><trkpt lat="44.1455819" lon="11.2228523"><ele>765.0</ele><time>2026-04-12T11:28:44.013Z</time></trkpt><trkpt lat="44.1456525" lon="11.2226612"><ele>764.0</ele><time>2026-04-12T11:28:45.014Z</time></trkpt><trkpt lat="44.1457142" lon="11.2224934"><ele>763.0</ele><time>2026-04-12T11:28:46.013Z</time></trkpt><trkpt lat="44.1457646" lon="11.2223462"><ele>762.0</ele><time>2026-04-12T11:28:47.013Z</time></trkpt><trkpt lat="44.1458185" lon="11.2222173"><ele>762.0</ele><time>2026-04-12T11:28:48.014Z</time></trkpt><trkpt lat="44.1458919" lon="11.2221104"><ele>762.0</ele><time>2026-04-12T11:28:49.013Z</time></trkpt><trkpt lat="44.145988" lon="11.2220296"><ele>762.0</ele><time>2026-04-12T11:28:50.014Z</time></trkpt><trkpt lat="44.1461108" lon="11.2219822"><ele>762.0</ele><time>2026-04-12T11:28:51.013Z</time></trkpt><trkpt lat="44.146268" lon="11.2219792"><ele>762.0</ele><time>2026-04-12T11:28:52.014Z</time></trkpt><trkpt lat="44.1464518" lon="11.222007"><ele>762.0</ele><time>2026-04-12T11:28:53.014Z</time></trkpt><trkpt lat="44.146635" lon="11.2220385"><ele>762.0</ele><time>2026-04-12T11:28:54.013Z</time></trkpt><trkpt lat="44.14682" lon="11.2220614"><ele>762.0</ele><time>2026-04-12T11:28:55.013Z</time></trkpt><trkpt lat="44.1469952" lon="11.2220757"><ele>762.0</ele><time>2026-04-12T11:28:56.013Z</time></trkpt><trkpt lat="44.1471757" lon="11.2221014"><ele>762.0</ele><time>2026-04-12T11:28:57.013Z</time></trkpt><trkpt lat="44.1473605" lon="11.2221308"><ele>760.6666666666666</ele><time>2026-04-12T11:28:58.013Z</time></trkpt><trkpt lat="44.1475447" lon="11.2221502"><ele>759.3333333333333</ele><time>2026-04-12T11:28:59.013Z</time></trkpt><trkpt lat="44.1477394" lon="11.2221292"><ele>758.0</ele><time>2026-04-12T11:29:00.014Z</time></trkpt><trkpt lat="44.1479374" lon="11.2220686"><ele>758.0</ele><time>2026-04-12T11:29:01.014Z</time></trkpt><trkpt lat="44.1481232" lon="11.2219722"><ele>758.0</ele><time>2026-04-12T11:29:02.014Z</time></trkpt><trkpt lat="44.1483009" lon="11.2218934"><ele>758.0</ele><time>2026-04-12T11:29:03.013Z</time></trkpt><trkpt lat="44.1484717" lon="11.2218131"><ele>756.3333333333333</ele><time>2026-04-12T11:29:04.013Z</time></trkpt><trkpt lat="44.1486425" lon="11.2217526"><ele>754.6666666666666</ele><time>2026-04-12T11:29:05.013Z</time></trkpt><trkpt lat="44.1488246" lon="11.221723"><ele>753.0</ele><time>2026-04-12T11:29:06.013Z</time></trkpt><trkpt lat="44.1490136" lon="11.2217041"><ele>753.0</ele><time>2026-04-12T11:29:07.014Z</time></trkpt><trkpt lat="44.1492091" lon="11.2217013"><ele>753.0</ele><time>2026-04-12T11:29:08.014Z</time></trkpt><trkpt lat="44.1494024" lon="11.2217079"><ele>753.0</ele><time>2026-04-12T11:29:09.014Z</time></trkpt><trkpt lat="44.1495933" lon="11.2217246"><ele>753.0</ele><time>2026-04-12T11:29:10.014Z</time></trkpt><trkpt lat="44.1497787" lon="11.2217644"><ele>753.0</ele><time>2026-04-12T11:29:11.015Z</time></trkpt><trkpt lat="44.1499517" lon="11.2218273"><ele>753.0</ele><time>2026-04-12T11:29:12.014Z</time></trkpt><trkpt lat="44.1501103" lon="11.2218936"><ele>751.0</ele><time>2026-04-12T11:29:13.014Z</time></trkpt><trkpt lat="44.150266" lon="11.221953"><ele>749.0</ele><time>2026-04-12T11:29:14.014Z</time></trkpt><trkpt lat="44.1504064" lon="11.2219885"><ele>747.0</ele><time>2026-04-12T11:29:15.014Z</time></trkpt><trkpt lat="44.15054" lon="11.221971"><ele>745.0</ele><time>2026-04-12T11:29:16.014Z</time></trkpt><trkpt lat="44.1506784" lon="11.2218861"><ele>744.3333333333334</ele><time>2026-04-12T11:29:17.014Z</time></trkpt><trkpt lat="44.1508264" lon="11.221743"><ele>743.6666666666666</ele><time>2026-04-12T11:29:18.014Z</time></trkpt><trkpt lat="44.1509813" lon="11.2215921"><ele>743.0</ele><time>2026-04-12T11:29:19.015Z</time></trkpt><trkpt lat="44.1511316" lon="11.2214499"><ele>738.6666666666666</ele><time>2026-04-12T11:29:20.014Z</time></trkpt><trkpt lat="44.1512764" lon="11.2213093"><ele>734.3333333333334</ele><time>2026-04-12T11:29:21.014Z</time></trkpt><trkpt lat="44.1514082" lon="11.2211847"><ele>730.0</ele><time>2026-04-12T11:29:22.014Z</time></trkpt><trkpt lat="44.1515153" lon="11.2210341"><ele>731.0</ele><time>2026-04-12T11:29:23.014Z</time></trkpt><trkpt lat="44.1515955" lon="11.220853"><ele>732.0</ele><time>2026-04-12T11:29:24.014Z</time></trkpt><trkpt lat="44.1516476" lon="11.2206472"><ele>733.0</ele><time>2026-04-12T11:29:25.014Z</time></trkpt><trkpt lat="44.1516877" lon="11.2204581"><ele>733.0</ele><time>2026-04-12T11:29:26.014Z</time></trkpt><trkpt lat="44.151719" lon="11.2203037"><ele>733.0</ele><time>2026-04-12T11:29:27.014Z</time></trkpt><trkpt lat="44.1517471" lon="11.2201665"><ele>733.0</ele><time>2026-04-12T11:29:28.014Z</time></trkpt><trkpt lat="44.1517898" lon="11.2200456"><ele>733.0</ele><time>2026-04-12T11:29:29.014Z</time></trkpt><trkpt lat="44.1518565" lon="11.2199589"><ele>733.0</ele><time>2026-04-12T11:29:30.014Z</time></trkpt><trkpt lat="44.1519395" lon="11.2199031"><ele>733.0</ele><time>2026-04-12T11:29:31.014Z</time></trkpt><trkpt lat="44.1520455" lon="11.2198773"><ele>733.0</ele><time>2026-04-12T11:29:32.014Z</time></trkpt><trkpt lat="44.152164" lon="11.2198605"><ele>733.0</ele><time>2026-04-12T11:29:33.015Z</time></trkpt><trkpt lat="44.1522846" lon="11.2198504"><ele>733.0</ele><time>2026-04-12T11:29:34.014Z</time></trkpt><trkpt lat="44.152412" lon="11.2198363"><ele>731.0</ele><time>2026-04-12T11:29:35.014Z</time></trkpt><trkpt lat="44.152537" lon="11.2198147"><ele>729.0</ele><time>2026-04-12T11:29:36.014Z</time></trkpt><trkpt lat="44.1526751" lon="11.2197712"><ele>727.0</ele><time>2026-04-12T11:29:37.014Z</time></trkpt><trkpt lat="44.1528142" lon="11.2197225"><ele>725.0</ele><time>2026-04-12T11:29:38.015Z</time></trkpt><trkpt lat="44.1529427" lon="11.2196814"><ele>725.0</ele><time>2026-04-12T11:29:39.014Z</time></trkpt><trkpt lat="44.1530636" lon="11.2196069"><ele>725.0</ele><time>2026-04-12T11:29:40.014Z</time></trkpt><trkpt lat="44.1531755" lon="11.2194731"><ele>725.0</ele><time>2026-04-12T11:29:41.014Z</time></trkpt><trkpt lat="44.1532738" lon="11.2193036"><ele>725.0</ele><time>2026-04-12T11:29:42.014Z</time></trkpt><trkpt lat="44.1533698" lon="11.2191348"><ele>723.3333333333333</ele><time>2026-04-12T11:29:43.014Z</time></trkpt><trkpt lat="44.1534729" lon="11.2189724"><ele>721.6666666666666</ele><time>2026-04-12T11:29:44.014Z</time></trkpt><trkpt lat="44.1535824" lon="11.2188198"><ele>720.0</ele><time>2026-04-12T11:29:45.014Z</time></trkpt><trkpt lat="44.1536977" lon="11.2186784"><ele>720.0</ele><time>2026-04-12T11:29:46.014Z</time></trkpt><trkpt lat="44.1538111" lon="11.2185419"><ele>720.0</ele><time>2026-04-12T11:29:47.014Z</time></trkpt><trkpt lat="44.1539317" lon="11.2184114"><ele>720.0</ele><time>2026-04-12T11:29:48.015Z</time></trkpt><trkpt lat="44.1540651" lon="11.2182698"><ele>719.3333333333334</ele><time>2026-04-12T11:29:49.014Z</time></trkpt><trkpt lat="44.1542005" lon="11.2181291"><ele>718.6666666666667</ele><time>2026-04-12T11:29:50.014Z</time></trkpt><trkpt lat="44.1543259" lon="11.2179675"><ele>718.0</ele><time>2026-04-12T11:29:51.014Z</time></trkpt><trkpt lat="44.1544303" lon="11.2177962"><ele>718.0</ele><time>2026-04-12T11:29:52.014Z</time></trkpt><trkpt lat="44.1545239" lon="11.2176218"><ele>718.0</ele><time>2026-04-12T11:29:53.014Z</time></trkpt><trkpt lat="44.1546277" lon="11.2174534"><ele>718.0</ele><time>2026-04-12T11:29:54.014Z</time></trkpt><trkpt lat="44.1547428" lon="11.2173089"><ele>718.6666666666667</ele><time>2026-04-12T11:29:55.015Z</time></trkpt><trkpt lat="44.1548696" lon="11.2171757"><ele>719.3333333333334</ele><time>2026-04-12T11:29:56.014Z</time></trkpt><trkpt lat="44.1549965" lon="11.2170344"><ele>720.0</ele><time>2026-04-12T11:29:57.014Z</time></trkpt><trkpt lat="44.1551132" lon="11.2168836"><ele>720.0</ele><time>2026-04-12T11:29:58.014Z</time></trkpt><trkpt lat="44.1552184" lon="11.2167223"><ele>720.0</ele><time>2026-04-12T11:29:59.014Z</time></trkpt><trkpt lat="44.1553291" lon="11.2165898"><ele>720.0</ele><time>2026-04-12T11:30:00.014Z</time></trkpt><trkpt lat="44.1554516" lon="11.2164891"><ele>720.0</ele><time>2026-04-12T11:30:01.014Z</time></trkpt><trkpt lat="44.1555835" lon="11.2164005"><ele>718.0</ele><time>2026-04-12T11:30:02.014Z</time></trkpt><trkpt lat="44.155717" lon="11.2163417"><ele>716.0</ele><time>2026-04-12T11:30:03.014Z</time></trkpt><trkpt lat="44.155842" lon="11.2162965"><ele>714.0</ele><time>2026-04-12T11:30:04.014Z</time></trkpt><trkpt lat="44.1559682" lon="11.2162862"><ele>712.0</ele><time>2026-04-12T11:30:05.014Z</time></trkpt><trkpt lat="44.1560947" lon="11.216306"><ele>712.0</ele><time>2026-04-12T11:30:06.014Z</time></trkpt><trkpt lat="44.1562314" lon="11.2163576"><ele>712.0</ele><time>2026-04-12T11:30:07.014Z</time></trkpt><trkpt lat="44.1563764" lon="11.2164444"><ele>712.0</ele><time>2026-04-12T11:30:08.014Z</time></trkpt><trkpt lat="44.1565283" lon="11.216539"><ele>713.75</ele><time>2026-04-12T11:30:09.014Z</time></trkpt><trkpt lat="44.156677" lon="11.2166251"><ele>715.5</ele><time>2026-04-12T11:30:10.014Z</time></trkpt><trkpt lat="44.1568189" lon="11.2167029"><ele>717.25</ele><time>2026-04-12T11:30:11.015Z</time></trkpt><trkpt lat="44.1569412" lon="11.2167555"><ele>719.0</ele><time>2026-04-12T11:30:12.014Z</time></trkpt><trkpt lat="44.1570514" lon="11.2167859"><ele>719.0</ele><time>2026-04-12T11:30:13.014Z</time></trkpt><trkpt lat="44.1571563" lon="11.2167698"><ele>719.0</ele><time>2026-04-12T11:30:14.014Z</time></trkpt><trkpt lat="44.1572523" lon="11.2167064"><ele>719.0</ele><time>2026-04-12T11:30:15.014Z</time></trkpt><trkpt lat="44.1573292" lon="11.2165801"><ele>719.0</ele><time>2026-04-12T11:30:16.014Z</time></trkpt><trkpt lat="44.1573876" lon="11.2163905"><ele>716.75</ele><time>2026-04-12T11:30:17.014Z</time></trkpt><trkpt lat="44.1574319" lon="11.216181"><ele>714.5</ele><time>2026-04-12T11:30:18.014Z</time></trkpt><trkpt lat="44.1574627" lon="11.215982"><ele>712.25</ele><time>2026-04-12T11:30:19.014Z</time></trkpt><trkpt lat="44.1575118" lon="11.2158087"><ele>710.0</ele><time>2026-04-12T11:30:20.014Z</time></trkpt><trkpt lat="44.1575889" lon="11.2156367"><ele>705.6666666666666</ele><time>2026-04-12T11:30:21.014Z</time></trkpt><trkpt lat="44.1576829" lon="11.2154739"><ele>701.3333333333334</ele><time>2026-04-12T11:30:22.015Z</time></trkpt><trkpt lat="44.1577696" lon="11.2152762"><ele>697.0</ele><time>2026-04-12T11:30:23.014Z</time></trkpt><trkpt lat="44.1578349" lon="11.2150582"><ele>697.0</ele><time>2026-04-12T11:30:24.015Z</time></trkpt><trkpt lat="44.1579051" lon="11.2148287"><ele>697.0</ele><time>2026-04-12T11:30:25.014Z</time></trkpt><trkpt lat="44.1579898" lon="11.214615"><ele>697.0</ele><time>2026-04-12T11:30:26.014Z</time></trkpt><trkpt lat="44.1580812" lon="11.2144139"><ele>697.3333333333334</ele><time>2026-04-12T11:30:27.016Z</time></trkpt><trkpt lat="44.1581755" lon="11.2142284"><ele>697.6666666666666</ele><time>2026-04-12T11:30:28.014Z</time></trkpt><trkpt lat="44.1582685" lon="11.2140599"><ele>698.0</ele><time>2026-04-12T11:30:29.014Z</time></trkpt><trkpt lat="44.1583534" lon="11.2139015"><ele>692.75</ele><time>2026-04-12T11:30:30.014Z</time></trkpt><trkpt lat="44.1584347" lon="11.2137634"><ele>687.5</ele><time>2026-04-12T11:30:31.014Z</time></trkpt><trkpt lat="44.158522" lon="11.2136451"><ele>682.25</ele><time>2026-04-12T11:30:32.014Z</time></trkpt><trkpt lat="44.1586199" lon="11.2135443"><ele>677.0</ele><time>2026-04-12T11:30:33.014Z</time></trkpt><trkpt lat="44.1587197" lon="11.2134582"><ele>677.0</ele><time>2026-04-12T11:30:34.014Z</time></trkpt><trkpt lat="44.1588209" lon="11.2133996"><ele>677.0</ele><time>2026-04-12T11:30:35.014Z</time></trkpt><trkpt lat="44.1589168" lon="11.21336"><ele>677.0</ele><time>2026-04-12T11:30:36.014Z</time></trkpt><trkpt lat="44.1590112" lon="11.2133518"><ele>677.0</ele><time>2026-04-12T11:30:37.014Z</time></trkpt><trkpt lat="44.1591005" lon="11.2133814"><ele>677.0</ele><time>2026-04-12T11:30:38.015Z</time></trkpt><trkpt lat="44.1591906" lon="11.2134388"><ele>677.6</ele><time>2026-04-12T11:30:39.014Z</time></trkpt><trkpt lat="44.1592662" lon="11.2135239"><ele>678.2</ele><time>2026-04-12T11:30:40.014Z</time></trkpt><trkpt lat="44.1593305" lon="11.213623"><ele>678.8</ele><time>2026-04-12T11:30:41.014Z</time></trkpt><trkpt lat="44.1593827" lon="11.2137274"><ele>679.4</ele><time>2026-04-12T11:30:42.014Z</time></trkpt><trkpt lat="44.1594284" lon="11.2138278"><ele>680.0</ele><time>2026-04-12T11:30:43.014Z</time></trkpt><trkpt lat="44.1594928" lon="11.2139588"><ele>682.75</ele><time>2026-04-12T11:30:44.015Z</time></trkpt><trkpt lat="44.1595653" lon="11.2141238"><ele>685.5</ele><time>2026-04-12T11:30:45.015Z</time></trkpt><trkpt lat="44.1596289" lon="11.2142853"><ele>688.25</ele><time>2026-04-12T11:30:46.015Z</time></trkpt><trkpt lat="44.1597064" lon="11.2144199"><ele>691.0</ele><time>2026-04-12T11:30:47.015Z</time></trkpt><trkpt lat="44.1598031" lon="11.2145096"><ele>689.25</ele><time>2026-04-12T11:30:48.015Z</time></trkpt><trkpt lat="44.159928" lon="11.2145809"><ele>687.5</ele><time>2026-04-12T11:30:49.015Z</time></trkpt><trkpt lat="44.1600675" lon="11.2146238"><ele>685.75</ele><time>2026-04-12T11:30:50.015Z</time></trkpt><trkpt lat="44.1602328" lon="11.2146383"><ele>684.0</ele><time>2026-04-12T11:30:51.016Z</time></trkpt><trkpt lat="44.160428" lon="11.2146438"><ele>684.0</ele><time>2026-04-12T11:30:52.015Z</time></trkpt><trkpt lat="44.1606138" lon="11.2146546"><ele>684.0</ele><time>2026-04-12T11:30:53.015Z</time></trkpt><trkpt lat="44.1607882" lon="11.2146905"><ele>684.0</ele><time>2026-04-12T11:30:54.015Z</time></trkpt><trkpt lat="44.1609455" lon="11.2147371"><ele>681.75</ele><time>2026-04-12T11:30:55.015Z</time></trkpt><trkpt lat="44.1610895" lon="11.2147852"><ele>679.5</ele><time>2026-04-12T11:30:56.015Z</time></trkpt><trkpt lat="44.1612216" lon="11.2148126"><ele>677.25</ele><time>2026-04-12T11:30:57.015Z</time></trkpt><trkpt lat="44.1613526" lon="11.2147924"><ele>675.0</ele><time>2026-04-12T11:30:58.015Z</time></trkpt><trkpt lat="44.1614846" lon="11.2147326"><ele>672.75</ele><time>2026-04-12T11:30:59.015Z</time></trkpt><trkpt lat="44.1616104" lon="11.2146597"><ele>670.5</ele><time>2026-04-12T11:31:00.015Z</time></trkpt><trkpt lat="44.1617275" lon="11.2145976"><ele>668.25</ele><time>2026-04-12T11:31:01.015Z</time></trkpt><trkpt lat="44.1618366" lon="11.2145772"><ele>666.0</ele><time>2026-04-12T11:31:02.015Z</time></trkpt><trkpt lat="44.1619446" lon="11.2146041"><ele>666.0</ele><time>2026-04-12T11:31:03.015Z</time></trkpt><trkpt lat="44.1620356" lon="11.2146735"><ele>666.0</ele><time>2026-04-12T11:31:04.016Z</time></trkpt><trkpt lat="44.1621178" lon="11.2147892"><ele>666.0</ele><time>2026-04-12T11:31:05.015Z</time></trkpt><trkpt lat="44.1621921" lon="11.214963"><ele>666.0</ele><time>2026-04-12T11:31:06.015Z</time></trkpt><trkpt lat="44.1622753" lon="11.2151527"><ele>666.25</ele><time>2026-04-12T11:31:07.016Z</time></trkpt><trkpt lat="44.1623385" lon="11.215334"><ele>666.5</ele><time>2026-04-12T11:31:08.015Z</time></trkpt><trkpt lat="44.162395" lon="11.2154895"><ele>666.75</ele><time>2026-04-12T11:31:09.015Z</time></trkpt><trkpt lat="44.16244" lon="11.2156235"><ele>667.0</ele><time>2026-04-12T11:31:10.015Z</time></trkpt><trkpt lat="44.1624935" lon="11.2157433"><ele>667.0</ele><time>2026-04-12T11:31:11.015Z</time></trkpt><trkpt lat="44.1625576" lon="11.2158454"><ele>667.0</ele><time>2026-04-12T11:31:12.015Z</time></trkpt><trkpt lat="44.1626397" lon="11.215927"><ele>667.0</ele><time>2026-04-12T11:31:13.015Z</time></trkpt><trkpt lat="44.1627432" lon="11.2159916"><ele>667.0</ele><time>2026-04-12T11:31:14.015Z</time></trkpt><trkpt lat="44.1628532" lon="11.2160321"><ele>667.0</ele><time>2026-04-12T11:31:15.015Z</time></trkpt><trkpt lat="44.1629758" lon="11.2160445"><ele>667.0</ele><time>2026-04-12T11:31:16.015Z</time></trkpt><trkpt lat="44.1631188" lon="11.2160364"><ele>667.0</ele><time>2026-04-12T11:31:17.016Z</time></trkpt><trkpt lat="44.1632702" lon="11.2160094"><ele>667.0</ele><time>2026-04-12T11:31:18.015Z</time></trkpt><trkpt lat="44.1634347" lon="11.2159757"><ele>663.0</ele><time>2026-04-12T11:31:19.015Z</time></trkpt><trkpt lat="44.1636074" lon="11.2159447"><ele>659.0</ele><time>2026-04-12T11:31:20.016Z</time></trkpt><trkpt lat="44.1637822" lon="11.2159098"><ele>655.0</ele><time>2026-04-12T11:31:21.015Z</time></trkpt><trkpt lat="44.1639562" lon="11.2158804"><ele>654.3333333333334</ele><time>2026-04-12T11:31:22.015Z</time></trkpt><trkpt lat="44.1641259" lon="11.2158444"><ele>653.6666666666666</ele><time>2026-04-12T11:31:23.016Z</time></trkpt><trkpt lat="44.1642816" lon="11.2158098"><ele>653.0</ele><time>2026-04-12T11:31:24.016Z</time></trkpt><trkpt lat="44.1644184" lon="11.2157856"><ele>653.0</ele><time>2026-04-12T11:31:25.015Z</time></trkpt><trkpt lat="44.1645308" lon="11.2157654"><ele>653.0</ele><time>2026-04-12T11:31:26.015Z</time></trkpt><trkpt lat="44.1646189" lon="11.215742"><ele>653.0</ele><time>2026-04-12T11:31:27.016Z</time></trkpt><trkpt lat="44.1646946" lon="11.2157045"><ele>653.0</ele><time>2026-04-12T11:31:28.015Z</time></trkpt><trkpt lat="44.1647409" lon="11.2156327"><ele>653.0</ele><time>2026-04-12T11:31:29.015Z</time></trkpt><trkpt lat="44.1647511" lon="11.2155411"><ele>653.0</ele><time>2026-04-12T11:31:30.015Z</time></trkpt><trkpt lat="44.1647195" lon="11.2154514"><ele>650.0</ele><time>2026-04-12T11:31:31.016Z</time></trkpt><trkpt lat="44.164653" lon="11.2153952"><ele>647.0</ele><time>2026-04-12T11:31:32.015Z</time></trkpt><trkpt lat="44.1645505" lon="11.2153396"><ele>644.0</ele><time>2026-04-12T11:31:33.015Z</time></trkpt><trkpt lat="44.1644227" lon="11.2152834"><ele>641.0</ele><time>2026-04-12T11:31:34.015Z</time></trkpt><trkpt lat="44.1642729" lon="11.2152234"><ele>641.0</ele><time>2026-04-12T11:31:35.015Z</time></trkpt><trkpt lat="44.164118" lon="11.2151765"><ele>641.0</ele><time>2026-04-12T11:31:36.015Z</time></trkpt><trkpt lat="44.1639764" lon="11.2151332"><ele>641.0</ele><time>2026-04-12T11:31:37.016Z</time></trkpt><trkpt lat="44.1638604" lon="11.2150906"><ele>641.0</ele><time>2026-04-12T11:31:38.015Z</time></trkpt><trkpt lat="44.1637589" lon="11.2150438"><ele>640.8333333333333</ele><time>2026-04-12T11:31:39.015Z</time></trkpt><trkpt lat="44.1636835" lon="11.214977"><ele>640.6666666666666</ele><time>2026-04-12T11:31:40.015Z</time></trkpt><trkpt lat="44.16363" lon="11.2148836"><ele>640.5</ele><time>2026-04-12T11:31:41.015Z</time></trkpt><trkpt lat="44.1636066" lon="11.2147797"><ele>640.3333333333334</ele><time>2026-04-12T11:31:42.015Z</time></trkpt><trkpt lat="44.1636155" lon="11.214659"><ele>640.1666666666667</ele><time>2026-04-12T11:31:43.015Z</time></trkpt><trkpt lat="44.1636641" lon="11.214549"><ele>640.0</ele><time>2026-04-12T11:31:44.015Z</time></trkpt><trkpt lat="44.1637415" lon="11.2144692"><ele>640.0</ele><time>2026-04-12T11:31:45.015Z</time></trkpt><trkpt lat="44.1638386" lon="11.2144434"><ele>640.0</ele><time>2026-04-12T11:31:46.016Z</time></trkpt><trkpt lat="44.1639461" lon="11.2144699"><ele>640.0</ele><time>2026-04-12T11:31:47.015Z</time></trkpt><trkpt lat="44.1640682" lon="11.2145255"><ele>640.0</ele><time>2026-04-12T11:31:48.015Z</time></trkpt><trkpt lat="44.1642087" lon="11.2145931"><ele>637.3333333333334</ele><time>2026-04-12T11:31:49.015Z</time></trkpt><trkpt lat="44.1643654" lon="11.2146272"><ele>634.6666666666666</ele><time>2026-04-12T11:31:50.015Z</time></trkpt><trkpt lat="44.1645496" lon="11.2146225"><ele>632.0</ele><time>2026-04-12T11:31:51.016Z</time></trkpt><trkpt lat="44.1647305" lon="11.2146042"><ele>628.3333333333333</ele><time>2026-04-12T11:31:52.015Z</time></trkpt><trkpt lat="44.1649016" lon="11.214583"><ele>624.6666666666666</ele><time>2026-04-12T11:31:53.016Z</time></trkpt><trkpt lat="44.1650701" lon="11.2145698"><ele>621.0</ele><time>2026-04-12T11:31:54.016Z</time></trkpt><trkpt lat="44.1652372" lon="11.2145781"><ele>621.0</ele><time>2026-04-12T11:31:55.016Z</time></trkpt><trkpt lat="44.1654182" lon="11.2146144"><ele>621.0</ele><time>2026-04-12T11:31:56.015Z</time></trkpt><trkpt lat="44.1655989" lon="11.2146463"><ele>621.0</ele><time>2026-04-12T11:31:57.015Z</time></trkpt><trkpt lat="44.1657821" lon="11.2146426"><ele>620.0</ele><time>2026-04-12T11:31:58.015Z</time></trkpt><trkpt lat="44.1659602" lon="11.2146056"><ele>619.0</ele><time>2026-04-12T11:31:59.015Z</time></trkpt><trkpt lat="44.1661225" lon="11.2145598"><ele>618.0</ele><time>2026-04-12T11:32:00.015Z</time></trkpt><trkpt lat="44.1662675" lon="11.2144868"><ele>618.0</ele><time>2026-04-12T11:32:01.016Z</time></trkpt><trkpt lat="44.1663989" lon="11.2144029"><ele>618.0</ele><time>2026-04-12T11:32:02.015Z</time></trkpt><trkpt lat="44.1665276" lon="11.214327"><ele>618.0</ele><time>2026-04-12T11:32:03.016Z</time></trkpt><trkpt lat="44.1666505" lon="11.2142796"><ele>618.0</ele><time>2026-04-12T11:32:04.015Z</time></trkpt><trkpt lat="44.16679" lon="11.2142496"><ele>618.3333333333334</ele><time>2026-04-12T11:32:05.015Z</time></trkpt><trkpt lat="44.1669525" lon="11.2142401"><ele>618.6666666666667</ele><time>2026-04-12T11:32:06.016Z</time></trkpt><trkpt lat="44.167128" lon="11.2141985"><ele>619.0</ele><time>2026-04-12T11:32:07.016Z</time></trkpt><trkpt lat="44.1673005" lon="11.2141444"><ele>619.0</ele><time>2026-04-12T11:32:08.016Z</time></trkpt><trkpt lat="44.1674636" lon="11.2140915"><ele>619.0</ele><time>2026-04-12T11:32:09.015Z</time></trkpt><trkpt lat="44.1676206" lon="11.2140432"><ele>619.0</ele><time>2026-04-12T11:32:10.015Z</time></trkpt><trkpt lat="44.167767" lon="11.2139958"><ele>615.5</ele><time>2026-04-12T11:32:11.015Z</time></trkpt><trkpt lat="44.1679004" lon="11.213944"><ele>612.0</ele><time>2026-04-12T11:32:12.015Z</time></trkpt><trkpt lat="44.1680312" lon="11.2138928"><ele>608.5</ele><time>2026-04-12T11:32:13.017Z</time></trkpt><trkpt lat="44.1681566" lon="11.213836"><ele>605.0</ele><time>2026-04-12T11:32:14.015Z</time></trkpt><trkpt lat="44.1682791" lon="11.2137811"><ele>605.0</ele><time>2026-04-12T11:32:15.016Z</time></trkpt><trkpt lat="44.1684021" lon="11.2137265"><ele>605.0</ele><time>2026-04-12T11:32:16.015Z</time></trkpt><trkpt lat="44.1685208" lon="11.2136654"><ele>605.0</ele><time>2026-04-12T11:32:17.016Z</time></trkpt><trkpt lat="44.168638" lon="11.2136219"><ele>605.0</ele><time>2026-04-12T11:32:18.015Z</time></trkpt><trkpt lat="44.1687583" lon="11.2136145"><ele>605.0</ele><time>2026-04-12T11:32:19.016Z</time></trkpt><trkpt lat="44.1688684" lon="11.2136408"><ele>605.0</ele><time>2026-04-12T11:32:20.016Z</time></trkpt><trkpt lat="44.1689782" lon="11.2137029"><ele>605.0</ele><time>2026-04-12T11:32:21.016Z</time></trkpt><trkpt lat="44.1690744" lon="11.2137903"><ele>605.0</ele><time>2026-04-12T11:32:22.016Z</time></trkpt><trkpt lat="44.1691457" lon="11.2139169"><ele>607.75</ele><time>2026-04-12T11:32:23.016Z</time></trkpt><trkpt lat="44.1691932" lon="11.2140626"><ele>610.5</ele><time>2026-04-12T11:32:24.016Z</time></trkpt><trkpt lat="44.1692127" lon="11.2142277"><ele>613.25</ele><time>2026-04-12T11:32:25.017Z</time></trkpt><trkpt lat="44.1692088" lon="11.2143998"><ele>616.0</ele><time>2026-04-12T11:32:26.016Z</time></trkpt><trkpt lat="44.1691746" lon="11.2145588"><ele>616.0</ele><time>2026-04-12T11:32:27.016Z</time></trkpt><trkpt lat="44.1691091" lon="11.2147115"><ele>616.0</ele><time>2026-04-12T11:32:28.016Z</time></trkpt><trkpt lat="44.1690218" lon="11.2148601"><ele>616.0</ele><time>2026-04-12T11:32:29.016Z</time></trkpt><trkpt lat="44.1689362" lon="11.2150099"><ele>616.0</ele><time>2026-04-12T11:32:30.017Z</time></trkpt><trkpt lat="44.1688491" lon="11.2151493"><ele>616.75</ele><time>2026-04-12T11:32:31.016Z</time></trkpt><trkpt lat="44.1687834" lon="11.2152849"><ele>617.5</ele><time>2026-04-12T11:32:32.016Z</time></trkpt><trkpt lat="44.1687334" lon="11.2154432"><ele>618.25</ele><time>2026-04-12T11:32:33.016Z</time></trkpt><trkpt lat="44.1687122" lon="11.2156059"><ele>619.0</ele><time>2026-04-12T11:32:34.016Z</time></trkpt><trkpt lat="44.1687214" lon="11.2157739"><ele>619.0</ele><time>2026-04-12T11:32:35.017Z</time></trkpt><trkpt lat="44.1687596" lon="11.2159358"><ele>619.0</ele><time>2026-04-12T11:32:36.016Z</time></trkpt><trkpt lat="44.168788" lon="11.2160941"><ele>619.0</ele><time>2026-04-12T11:32:37.016Z</time></trkpt><trkpt lat="44.1687888" lon="11.2162688"><ele>619.0</ele><time>2026-04-12T11:32:38.016Z</time></trkpt><trkpt lat="44.1687726" lon="11.216469"><ele>618.6666666666667</ele><time>2026-04-12T11:32:39.017Z</time></trkpt><trkpt lat="44.1687258" lon="11.2166816"><ele>618.3333333333334</ele><time>2026-04-12T11:32:40.016Z</time></trkpt><trkpt lat="44.1686735" lon="11.2169003"><ele>618.0</ele><time>2026-04-12T11:32:41.016Z</time></trkpt><trkpt lat="44.168619" lon="11.217105"><ele>618.0</ele><time>2026-04-12T11:32:42.017Z</time></trkpt><trkpt lat="44.1685739" lon="11.2172804"><ele>618.0</ele><time>2026-04-12T11:32:43.016Z</time></trkpt><trkpt lat="44.1685459" lon="11.2174474"><ele>618.0</ele><time>2026-04-12T11:32:44.017Z</time></trkpt><trkpt lat="44.1685557" lon="11.2176068"><ele>618.0</ele><time>2026-04-12T11:32:45.016Z</time></trkpt><trkpt lat="44.1685983" lon="11.2177448"><ele>617.25</ele><time>2026-04-12T11:32:46.016Z</time></trkpt><trkpt lat="44.1686717" lon="11.2178564"><ele>616.5</ele><time>2026-04-12T11:32:47.016Z</time></trkpt><trkpt lat="44.168769" lon="11.2179377"><ele>615.75</ele><time>2026-04-12T11:32:48.016Z</time></trkpt><trkpt lat="44.168881" lon="11.2179949"><ele>615.0</ele><time>2026-04-12T11:32:49.016Z</time></trkpt><trkpt lat="44.1690019" lon="11.218061"><ele>613.5</ele><time>2026-04-12T11:32:50.016Z</time></trkpt><trkpt lat="44.1691252" lon="11.2181409"><ele>612.0</ele><time>2026-04-12T11:32:51.017Z</time></trkpt><trkpt lat="44.1692492" lon="11.21821"><ele>610.5</ele><time>2026-04-12T11:32:52.016Z</time></trkpt><trkpt lat="44.1693534" lon="11.2182791"><ele>609.0</ele><time>2026-04-12T11:32:53.016Z</time></trkpt><trkpt lat="44.1694344" lon="11.2183655"><ele>609.0</ele><time>2026-04-12T11:32:54.016Z</time></trkpt><trkpt lat="44.1694925" lon="11.2184704"><ele>609.0</ele><time>2026-04-12T11:32:55.016Z</time></trkpt><trkpt lat="44.1695422" lon="11.2185996"><ele>609.0</ele><time>2026-04-12T11:32:56.016Z</time></trkpt><trkpt lat="44.169585" lon="11.2187524"><ele>609.0</ele><time>2026-04-12T11:32:57.017Z</time></trkpt><trkpt lat="44.1696319" lon="11.2189413"><ele>611.75</ele><time>2026-04-12T11:32:58.016Z</time></trkpt><trkpt lat="44.1696843" lon="11.2191456"><ele>614.5</ele><time>2026-04-12T11:32:59.016Z</time></trkpt><trkpt lat="44.1697339" lon="11.2193493"><ele>617.25</ele><time>2026-04-12T11:33:00.016Z</time></trkpt><trkpt lat="44.1697841" lon="11.219519"><ele>620.0</ele><time>2026-04-12T11:33:01.016Z</time></trkpt><trkpt lat="44.1698557" lon="11.219669"><ele>617.25</ele><time>2026-04-12T11:33:02.016Z</time></trkpt><trkpt lat="44.1699368" lon="11.2198034"><ele>614.5</ele><time>2026-04-12T11:33:03.017Z</time></trkpt><trkpt lat="44.1700448" lon="11.2199145"><ele>611.75</ele><time>2026-04-12T11:33:04.016Z</time></trkpt><trkpt lat="44.1701666" lon="11.2200114"><ele>609.0</ele><time>2026-04-12T11:33:05.016Z</time></trkpt><trkpt lat="44.1702822" lon="11.2200894"><ele>609.0</ele><time>2026-04-12T11:33:06.017Z</time></trkpt><trkpt lat="44.1703838" lon="11.2201653"><ele>609.0</ele><time>2026-04-12T11:33:07.016Z</time></trkpt><trkpt lat="44.1704702" lon="11.2202482"><ele>609.0</ele><time>2026-04-12T11:33:08.016Z</time></trkpt><trkpt lat="44.1705297" lon="11.2203558"><ele>609.0</ele><time>2026-04-12T11:33:09.016Z</time></trkpt><trkpt lat="44.1705601" lon="11.2204715"><ele>609.0</ele><time>2026-04-12T11:33:10.017Z</time></trkpt><trkpt lat="44.1705705" lon="11.2205991"><ele>612.0</ele><time>2026-04-12T11:33:11.016Z</time></trkpt><trkpt lat="44.1705465" lon="11.220747"><ele>615.0</ele><time>2026-04-12T11:33:12.016Z</time></trkpt><trkpt lat="44.1704965" lon="11.2209277"><ele>618.0</ele><time>2026-04-12T11:33:13.016Z</time></trkpt><trkpt lat="44.1704215" lon="11.2211367"><ele>621.0</ele><time>2026-04-12T11:33:14.017Z</time></trkpt><trkpt lat="44.1703435" lon="11.2213399"><ele>620.0</ele><time>2026-04-12T11:33:15.017Z</time></trkpt><trkpt lat="44.1702699" lon="11.2215267"><ele>619.0</ele><time>2026-04-12T11:33:16.016Z</time></trkpt><trkpt lat="44.1702214" lon="11.2217112"><ele>618.0</ele><time>2026-04-12T11:33:17.017Z</time></trkpt><trkpt lat="44.1702053" lon="11.2218971"><ele>617.0</ele><time>2026-04-12T11:33:18.016Z</time></trkpt><trkpt lat="44.1702268" lon="11.2220847"><ele>617.0</ele><time>2026-04-12T11:33:19.016Z</time></trkpt><trkpt lat="44.170256" lon="11.2222738"><ele>617.0</ele><time>2026-04-12T11:33:20.016Z</time></trkpt><trkpt lat="44.1702861" lon="11.2224632"><ele>617.0</ele><time>2026-04-12T11:33:21.016Z</time></trkpt><trkpt lat="44.1702924" lon="11.222648"><ele>617.0</ele><time>2026-04-12T11:33:22.016Z</time></trkpt><trkpt lat="44.1702739" lon="11.2228246"><ele>616.25</ele><time>2026-04-12T11:33:23.016Z</time></trkpt><trkpt lat="44.1702314" lon="11.2229845"><ele>615.5</ele><time>2026-04-12T11:33:24.016Z</time></trkpt><trkpt lat="44.1701665" lon="11.2231297"><ele>614.75</ele><time>2026-04-12T11:33:25.016Z</time></trkpt><trkpt lat="44.1701102" lon="11.2232856"><ele>614.0</ele><time>2026-04-12T11:33:26.016Z</time></trkpt><trkpt lat="44.1700782" lon="11.2234859"><ele>613.0</ele><time>2026-04-12T11:33:27.018Z</time></trkpt><trkpt lat="44.1700695" lon="11.2237012"><ele>612.0</ele><time>2026-04-12T11:33:28.016Z</time></trkpt><trkpt lat="44.170071" lon="11.2239102"><ele>611.0</ele><time>2026-04-12T11:33:29.016Z</time></trkpt><trkpt lat="44.1700783" lon="11.2241039"><ele>610.0</ele><time>2026-04-12T11:33:30.016Z</time></trkpt><trkpt lat="44.1700996" lon="11.2242792"><ele>609.4</ele><time>2026-04-12T11:33:31.016Z</time></trkpt><trkpt lat="44.1701351" lon="11.2244294"><ele>608.8</ele><time>2026-04-12T11:33:32.016Z</time></trkpt><trkpt lat="44.1701796" lon="11.2245485"><ele>608.2</ele><time>2026-04-12T11:33:33.017Z</time></trkpt><trkpt lat="44.1702428" lon="11.2246406"><ele>607.6</ele><time>2026-04-12T11:33:34.016Z</time></trkpt><trkpt lat="44.1703311" lon="11.2247064"><ele>607.0</ele><time>2026-04-12T11:33:35.017Z</time></trkpt><trkpt lat="44.1704357" lon="11.2247448"><ele>607.0</ele><time>2026-04-12T11:33:36.016Z</time></trkpt><trkpt lat="44.1705432" lon="11.2247534"><ele>607.0</ele><time>2026-04-12T11:33:37.016Z</time></trkpt><trkpt lat="44.1706501" lon="11.2247355"><ele>607.0</ele><time>2026-04-12T11:33:38.016Z</time></trkpt><trkpt lat="44.1707491" lon="11.2246427"><ele>607.0</ele><time>2026-04-12T11:33:39.016Z</time></trkpt><trkpt lat="44.1708456" lon="11.2245332"><ele>602.5</ele><time>2026-04-12T11:33:40.017Z</time></trkpt><trkpt lat="44.1709431" lon="11.2244459"><ele>598.0</ele><time>2026-04-12T11:33:41.016Z</time></trkpt><trkpt lat="44.1710407" lon="11.2243746"><ele>593.5</ele><time>2026-04-12T11:33:42.016Z</time></trkpt><trkpt lat="44.1711424" lon="11.2243481"><ele>589.0</ele><time>2026-04-12T11:33:43.016Z</time></trkpt><trkpt lat="44.1712659" lon="11.224384"><ele>589.0</ele><time>2026-04-12T11:33:44.016Z</time></trkpt><trkpt lat="44.1713744" lon="11.2244627"><ele>589.0</ele><time>2026-04-12T11:33:45.016Z</time></trkpt><trkpt lat="44.1714667" lon="11.2245589"><ele>589.0</ele><time>2026-04-12T11:33:46.016Z</time></trkpt><trkpt lat="44.171549" lon="11.2246366"><ele>589.0</ele><time>2026-04-12T11:33:47.016Z</time></trkpt><trkpt lat="44.1716307" lon="11.224661"><ele>589.0</ele><time>2026-04-12T11:33:48.016Z</time></trkpt><trkpt lat="44.1717137" lon="11.2246325"><ele>589.6</ele><time>2026-04-12T11:33:49.016Z</time></trkpt><trkpt lat="44.1717912" lon="11.2245616"><ele>590.2</ele><time>2026-04-12T11:33:50.016Z</time></trkpt><trkpt lat="44.1718512" lon="11.2244567"><ele>590.8000000000001</ele><time>2026-04-12T11:33:51.016Z</time></trkpt><trkpt lat="44.1718822" lon="11.2243074"><ele>591.4</ele><time>2026-04-12T11:33:52.017Z</time></trkpt><trkpt lat="44.1718802" lon="11.2241114"><ele>592.0</ele><time>2026-04-12T11:33:53.017Z</time></trkpt><trkpt lat="44.1718473" lon="11.2238918"><ele>592.0</ele><time>2026-04-12T11:33:54.018Z</time></trkpt><trkpt lat="44.1717962" lon="11.2236792"><ele>592.0</ele><time>2026-04-12T11:33:55.017Z</time></trkpt><trkpt lat="44.1717548" lon="11.2234835"><ele>592.0</ele><time>2026-04-12T11:33:56.017Z</time></trkpt><trkpt lat="44.1717422" lon="11.2232907"><ele>592.0</ele><time>2026-04-12T11:33:57.017Z</time></trkpt><trkpt lat="44.1717587" lon="11.2230823"><ele>590.25</ele><time>2026-04-12T11:33:58.017Z</time></trkpt><trkpt lat="44.1717954" lon="11.2228744"><ele>588.5</ele><time>2026-04-12T11:33:59.017Z</time></trkpt><trkpt lat="44.1718402" lon="11.2226991"><ele>586.75</ele><time>2026-04-12T11:34:00.017Z</time></trkpt><trkpt lat="44.1719061" lon="11.222562"><ele>585.0</ele><time>2026-04-12T11:34:01.017Z</time></trkpt><trkpt lat="44.1719971" lon="11.2224618"><ele>585.0</ele><time>2026-04-12T11:34:02.017Z</time></trkpt><trkpt lat="44.172119" lon="11.2223952"><ele>585.0</ele><time>2026-04-12T11:34:03.017Z</time></trkpt><trkpt lat="44.17227" lon="11.2223484"><ele>585.0</ele><time>2026-04-12T11:34:04.017Z</time></trkpt><trkpt lat="44.1724374" lon="11.2223091"><ele>586.6666666666666</ele><time>2026-04-12T11:34:05.017Z</time></trkpt><trkpt lat="44.172606" lon="11.222263"><ele>588.3333333333333</ele><time>2026-04-12T11:34:06.017Z</time></trkpt><trkpt lat="44.1727691" lon="11.2222044"><ele>590.0</ele><time>2026-04-12T11:34:07.017Z</time></trkpt><trkpt lat="44.1729271" lon="11.2221415"><ele>590.0</ele><time>2026-04-12T11:34:08.017Z</time></trkpt><trkpt lat="44.1730635" lon="11.2220626"><ele>590.0</ele><time>2026-04-12T11:34:09.017Z</time></trkpt><trkpt lat="44.1731852" lon="11.2219867"><ele>590.0</ele><time>2026-04-12T11:34:10.018Z</time></trkpt><trkpt lat="44.1732946" lon="11.2219148"><ele>590.0</ele><time>2026-04-12T11:34:11.018Z</time></trkpt><trkpt lat="44.1733947" lon="11.2218461"><ele>589.8</ele><time>2026-04-12T11:34:12.018Z</time></trkpt><trkpt lat="44.1734909" lon="11.2217772"><ele>589.6</ele><time>2026-04-12T11:34:13.017Z</time></trkpt><trkpt lat="44.1735841" lon="11.2217064"><ele>589.4</ele><time>2026-04-12T11:34:14.017Z</time></trkpt><trkpt lat="44.1736721" lon="11.2216267"><ele>589.2</ele><time>2026-04-12T11:34:15.017Z</time></trkpt><trkpt lat="44.1737563" lon="11.2215192"><ele>589.0</ele><time>2026-04-12T11:34:16.017Z</time></trkpt><trkpt lat="44.1738284" lon="11.2213627"><ele>589.0</ele><time>2026-04-12T11:34:17.018Z</time></trkpt><trkpt lat="44.1738866" lon="11.2211553"><ele>589.0</ele><time>2026-04-12T11:34:18.018Z</time></trkpt><trkpt lat="44.1739437" lon="11.2209093"><ele>589.0</ele><time>2026-04-12T11:34:19.017Z</time></trkpt><trkpt lat="44.1740111" lon="11.2206641"><ele>595.3333333333334</ele><time>2026-04-12T11:34:20.017Z</time></trkpt><trkpt lat="44.1740882" lon="11.2204357"><ele>601.6666666666666</ele><time>2026-04-12T11:34:21.017Z</time></trkpt><trkpt lat="44.1741656" lon="11.2202269"><ele>608.0</ele><time>2026-04-12T11:34:22.018Z</time></trkpt><trkpt lat="44.1742358" lon="11.220036"><ele>608.0</ele><time>2026-04-12T11:34:23.017Z</time></trkpt><trkpt lat="44.1742905" lon="11.2198609"><ele>608.0</ele><time>2026-04-12T11:34:24.017Z</time></trkpt><trkpt lat="44.1743299" lon="11.2197017"><ele>608.0</ele><time>2026-04-12T11:34:25.017Z</time></trkpt><trkpt lat="44.1743647" lon="11.2195633"><ele>608.0</ele><time>2026-04-12T11:34:26.017Z</time></trkpt><trkpt lat="44.1744071" lon="11.2194435"><ele>607.0</ele><time>2026-04-12T11:34:27.017Z</time></trkpt><trkpt lat="44.1744697" lon="11.2193478"><ele>606.0</ele><time>2026-04-12T11:34:28.017Z</time></trkpt><trkpt lat="44.1745586" lon="11.2192972"><ele>605.0</ele><time>2026-04-12T11:34:29.017Z</time></trkpt><trkpt lat="44.1746777" lon="11.2192947"><ele>604.0</ele><time>2026-04-12T11:34:30.018Z</time></trkpt><trkpt lat="44.174806" lon="11.2193101"><ele>603.0</ele><time>2026-04-12T11:34:31.017Z</time></trkpt><trkpt lat="44.1749637" lon="11.2193784"><ele>605.5</ele><time>2026-04-12T11:34:32.018Z</time></trkpt><trkpt lat="44.1751226" lon="11.219423"><ele>608.0</ele><time>2026-04-12T11:34:33.017Z</time></trkpt><trkpt lat="44.1752736" lon="11.2194381"><ele>610.5</ele><time>2026-04-12T11:34:34.017Z</time></trkpt><trkpt lat="44.1754069" lon="11.2194287"><ele>613.0</ele><time>2026-04-12T11:34:35.017Z</time></trkpt><trkpt lat="44.1755263" lon="11.2194242"><ele>613.0</ele><time>2026-04-12T11:34:36.018Z</time></trkpt><trkpt lat="44.1756334" lon="11.2194515"><ele>613.0</ele><time>2026-04-12T11:34:37.017Z</time></trkpt><trkpt lat="44.1757349" lon="11.2195001"><ele>613.0</ele><time>2026-04-12T11:34:38.018Z</time></trkpt><trkpt lat="44.1758287" lon="11.219624"><ele>613.0</ele><time>2026-04-12T11:34:39.017Z</time></trkpt><trkpt lat="44.175926" lon="11.2197576"><ele>618.75</ele><time>2026-04-12T11:34:40.017Z</time></trkpt><trkpt lat="44.1760216" lon="11.2198607"><ele>624.5</ele><time>2026-04-12T11:34:41.017Z</time></trkpt><trkpt lat="44.1761153" lon="11.2199227"><ele>630.25</ele><time>2026-04-12T11:34:42.018Z</time></trkpt><trkpt lat="44.1762181" lon="11.2199431"><ele>636.0</ele><time>2026-04-12T11:34:43.017Z</time></trkpt><trkpt lat="44.1763393" lon="11.2199123"><ele>636.0</ele><time>2026-04-12T11:34:44.017Z</time></trkpt><trkpt lat="44.1764787" lon="11.2198422"><ele>636.0</ele><time>2026-04-12T11:34:45.017Z</time></trkpt><trkpt lat="44.1766328" lon="11.2197516"><ele>636.0</ele><time>2026-04-12T11:34:46.017Z</time></trkpt><trkpt lat="44.1767808" lon="11.219665"><ele>633.25</ele><time>2026-04-12T11:34:47.017Z</time></trkpt><trkpt lat="44.1769202" lon="11.2195898"><ele>630.5</ele><time>2026-04-12T11:34:48.017Z</time></trkpt><trkpt lat="44.1770574" lon="11.2195253"><ele>627.75</ele><time>2026-04-12T11:34:49.017Z</time></trkpt><trkpt lat="44.177188" lon="11.2194729"><ele>625.0</ele><time>2026-04-12T11:34:50.017Z</time></trkpt><trkpt lat="44.1773308" lon="11.2194596"><ele>626.6666666666667</ele><time>2026-04-12T11:34:51.017Z</time></trkpt><trkpt lat="44.1774773" lon="11.2194603"><ele>628.3333333333334</ele><time>2026-04-12T11:34:52.018Z</time></trkpt><trkpt lat="44.1776305" lon="11.219468"><ele>630.0</ele><time>2026-04-12T11:34:53.017Z</time></trkpt><trkpt lat="44.1777916" lon="11.219482"><ele>630.0</ele><time>2026-04-12T11:34:54.017Z</time></trkpt><trkpt lat="44.1779588" lon="11.2194958"><ele>630.0</ele><time>2026-04-12T11:34:55.018Z</time></trkpt><trkpt lat="44.1781249" lon="11.2195234"><ele>630.0</ele><time>2026-04-12T11:34:56.017Z</time></trkpt><trkpt lat="44.1782769" lon="11.2195629"><ele>630.0</ele><time>2026-04-12T11:34:57.017Z</time></trkpt><trkpt lat="44.1784134" lon="11.2196153"><ele>630.0</ele><time>2026-04-12T11:34:58.017Z</time></trkpt><trkpt lat="44.1785327" lon="11.2196836"><ele>630.0</ele><time>2026-04-12T11:34:59.017Z</time></trkpt><trkpt lat="44.1786331" lon="11.219772"><ele>630.0</ele><time>2026-04-12T11:35:00.017Z</time></trkpt><trkpt lat="44.1787223" lon="11.2198863"><ele>631.5</ele><time>2026-04-12T11:35:01.017Z</time></trkpt><trkpt lat="44.1788122" lon="11.220019"><ele>633.0</ele><time>2026-04-12T11:35:02.018Z</time></trkpt><trkpt lat="44.1788998" lon="11.2201823"><ele>634.5</ele><time>2026-04-12T11:35:03.017Z</time></trkpt><trkpt lat="44.1789918" lon="11.220352"><ele>636.0</ele><time>2026-04-12T11:35:04.018Z</time></trkpt><trkpt lat="44.1790894" lon="11.2205264"><ele>637.5</ele><time>2026-04-12T11:35:05.018Z</time></trkpt><trkpt lat="44.1791843" lon="11.2206983"><ele>639.0</ele><time>2026-04-12T11:35:06.017Z</time></trkpt><trkpt lat="44.1792683" lon="11.2208553"><ele>640.5</ele><time>2026-04-12T11:35:07.017Z</time></trkpt><trkpt lat="44.1793506" lon="11.2209856"><ele>642.0</ele><time>2026-04-12T11:35:08.017Z</time></trkpt><trkpt lat="44.1794412" lon="11.2210718"><ele>642.0</ele><time>2026-04-12T11:35:09.018Z</time></trkpt><trkpt lat="44.1795419" lon="11.2211021"><ele>642.0</ele><time>2026-04-12T11:35:10.017Z</time></trkpt><trkpt lat="44.1796553" lon="11.2210808"><ele>642.0</ele><time>2026-04-12T11:35:11.017Z</time></trkpt><trkpt lat="44.179788" lon="11.2210226"><ele>642.0</ele><time>2026-04-12T11:35:12.017Z</time></trkpt><trkpt lat="44.1801155" lon="11.220892"><ele>642.5</ele><time>2026-04-12T11:35:14.017Z</time></trkpt><trkpt lat="44.1804835" lon="11.2208137"><ele>643.0</ele><time>2026-04-12T11:35:16.018Z</time></trkpt><trkpt lat="44.1806623" lon="11.2207827"><ele>644.0</ele><time>2026-04-12T11:35:17.017Z</time></trkpt><trkpt lat="44.180834" lon="11.2207536"><ele>645.0</ele><time>2026-04-12T11:35:18.018Z</time></trkpt><trkpt lat="44.1809986" lon="11.2207267"><ele>646.0</ele><time>2026-04-12T11:35:19.017Z</time></trkpt><trkpt lat="44.1811594" lon="11.2207052"><ele>646.0</ele><time>2026-04-12T11:35:20.017Z</time></trkpt><trkpt lat="44.1813163" lon="11.2206882"><ele>646.0</ele><time>2026-04-12T11:35:21.018Z</time></trkpt><trkpt lat="44.1814677" lon="11.2206648"><ele>646.0</ele><time>2026-04-12T11:35:22.017Z</time></trkpt><trkpt lat="44.1816187" lon="11.2206256"><ele>643.6666666666667</ele><time>2026-04-12T11:35:23.018Z</time></trkpt><trkpt lat="44.1817785" lon="11.2205765"><ele>641.3333333333334</ele><time>2026-04-12T11:35:24.017Z</time></trkpt><trkpt lat="44.1819471" lon="11.220535"><ele>639.0</ele><time>2026-04-12T11:35:25.017Z</time></trkpt><trkpt lat="44.1821256" lon="11.2205164"><ele>639.0</ele><time>2026-04-12T11:35:26.017Z</time></trkpt><trkpt lat="44.182313" lon="11.2205114"><ele>639.0</ele><time>2026-04-12T11:35:27.018Z</time></trkpt><trkpt lat="44.1824874" lon="11.2204969"><ele>639.0</ele><time>2026-04-12T11:35:28.018Z</time></trkpt><trkpt lat="44.1826428" lon="11.2204594"><ele>640.25</ele><time>2026-04-12T11:35:29.018Z</time></trkpt><trkpt lat="44.1827804" lon="11.2204131"><ele>641.5</ele><time>2026-04-12T11:35:30.019Z</time></trkpt><trkpt lat="44.1829035" lon="11.2203751"><ele>642.75</ele><time>2026-04-12T11:35:31.019Z</time></trkpt><trkpt lat="44.1830265" lon="11.2203585"><ele>644.0</ele><time>2026-04-12T11:35:32.018Z</time></trkpt><trkpt lat="44.1831615" lon="11.2203684"><ele>646.0</ele><time>2026-04-12T11:35:33.018Z</time></trkpt><trkpt lat="44.1833106" lon="11.2203991"><ele>648.0</ele><time>2026-04-12T11:35:34.018Z</time></trkpt><trkpt lat="44.1834745" lon="11.2204383"><ele>650.0</ele><time>2026-04-12T11:35:35.018Z</time></trkpt><trkpt lat="44.1836563" lon="11.2204804"><ele>650.0</ele><time>2026-04-12T11:35:36.018Z</time></trkpt><trkpt lat="44.1838518" lon="11.220525"><ele>650.0</ele><time>2026-04-12T11:35:37.018Z</time></trkpt><trkpt lat="44.1840522" lon="11.2205569"><ele>650.0</ele><time>2026-04-12T11:35:38.018Z</time></trkpt><trkpt lat="44.1842428" lon="11.2205675"><ele>652.6666666666666</ele><time>2026-04-12T11:35:39.018Z</time></trkpt><trkpt lat="44.1844177" lon="11.2205689"><ele>655.3333333333334</ele><time>2026-04-12T11:35:40.018Z</time></trkpt><trkpt lat="44.1845835" lon="11.2205781"><ele>658.0</ele><time>2026-04-12T11:35:41.018Z</time></trkpt><trkpt lat="44.184745" lon="11.2206085"><ele>663.0</ele><time>2026-04-12T11:35:42.018Z</time></trkpt><trkpt lat="44.1849" lon="11.2206551"><ele>668.0</ele><time>2026-04-12T11:35:43.018Z</time></trkpt><trkpt lat="44.1850519" lon="11.220708"><ele>673.0</ele><time>2026-04-12T11:35:44.018Z</time></trkpt><trkpt lat="44.1852029" lon="11.220746"><ele>673.0</ele><time>2026-04-12T11:35:45.019Z</time></trkpt><trkpt lat="44.1853623" lon="11.2207656"><ele>673.0</ele><time>2026-04-12T11:35:46.018Z</time></trkpt><trkpt lat="44.1855326" lon="11.2207608"><ele>673.0</ele><time>2026-04-12T11:35:47.018Z</time></trkpt><trkpt lat="44.1857059" lon="11.2207384"><ele>675.0</ele><time>2026-04-12T11:35:48.018Z</time></trkpt><trkpt lat="44.1858759" lon="11.2207084"><ele>677.0</ele><time>2026-04-12T11:35:49.018Z</time></trkpt><trkpt lat="44.1860423" lon="11.2206797"><ele>679.0</ele><time>2026-04-12T11:35:50.019Z</time></trkpt><trkpt lat="44.1862004" lon="11.2206496"><ele>679.0</ele><time>2026-04-12T11:35:51.018Z</time></trkpt><trkpt lat="44.1863483" lon="11.2206184"><ele>679.0</ele><time>2026-04-12T11:35:52.018Z</time></trkpt><trkpt lat="44.18649" lon="11.2205861"><ele>679.0</ele><time>2026-04-12T11:35:53.019Z</time></trkpt><trkpt lat="44.186622" lon="11.2205564"><ele>679.0</ele><time>2026-04-12T11:35:54.018Z</time></trkpt><trkpt lat="44.1867481" lon="11.2205308"><ele>679.0</ele><time>2026-04-12T11:35:55.019Z</time></trkpt><trkpt lat="44.1868745" lon="11.2205044"><ele>679.0</ele><time>2026-04-12T11:35:56.018Z</time></trkpt><trkpt lat="44.1869996" lon="11.2204755"><ele>679.0</ele><time>2026-04-12T11:35:57.018Z</time></trkpt><trkpt lat="44.1871229" lon="11.2204499"><ele>679.0</ele><time>2026-04-12T11:35:58.018Z</time></trkpt><trkpt lat="44.1872503" lon="11.2204392"><ele>678.75</ele><time>2026-04-12T11:35:59.019Z</time></trkpt><trkpt lat="44.18738" lon="11.2204475"><ele>678.5</ele><time>2026-04-12T11:36:00.018Z</time></trkpt><trkpt lat="44.1875085" lon="11.2204742"><ele>678.25</ele><time>2026-04-12T11:36:01.018Z</time></trkpt><trkpt lat="44.187635" lon="11.2205146"><ele>678.0</ele><time>2026-04-12T11:36:02.019Z</time></trkpt><trkpt lat="44.1877631" lon="11.2205627"><ele>678.0</ele><time>2026-04-12T11:36:03.018Z</time></trkpt><trkpt lat="44.1878916" lon="11.2206118"><ele>678.0</ele><time>2026-04-12T11:36:04.019Z</time></trkpt><trkpt lat="44.1880192" lon="11.2206598"><ele>678.0</ele><time>2026-04-12T11:36:05.018Z</time></trkpt><trkpt lat="44.1881441" lon="11.2207034"><ele>678.0</ele><time>2026-04-12T11:36:06.018Z</time></trkpt><trkpt lat="44.1882699" lon="11.2207062"><ele>679.25</ele><time>2026-04-12T11:36:07.018Z</time></trkpt><trkpt lat="44.1884009" lon="11.2206698"><ele>680.5</ele><time>2026-04-12T11:36:08.018Z</time></trkpt><trkpt lat="44.188528" lon="11.2205965"><ele>681.75</ele><time>2026-04-12T11:36:09.018Z</time></trkpt><trkpt lat="44.1886527" lon="11.2205119"><ele>683.0</ele><time>2026-04-12T11:36:10.018Z</time></trkpt><trkpt lat="44.1887727" lon="11.2204389"><ele>683.0</ele><time>2026-04-12T11:36:11.019Z</time></trkpt><trkpt lat="44.1888959" lon="11.2203902"><ele>683.0</ele><time>2026-04-12T11:36:12.018Z</time></trkpt><trkpt lat="44.1890257" lon="11.220366"><ele>683.0</ele><time>2026-04-12T11:36:13.018Z</time></trkpt><trkpt lat="44.1891583" lon="11.2203705"><ele>683.0</ele><time>2026-04-12T11:36:14.018Z</time></trkpt><trkpt lat="44.1892842" lon="11.2204014"><ele>684.75</ele><time>2026-04-12T11:36:15.018Z</time></trkpt><trkpt lat="44.1894044" lon="11.2204413"><ele>686.5</ele><time>2026-04-12T11:36:16.018Z</time></trkpt><trkpt lat="44.1895097" lon="11.2204981"><ele>688.25</ele><time>2026-04-12T11:36:17.018Z</time></trkpt><trkpt lat="44.1896104" lon="11.2205593"><ele>690.0</ele><time>2026-04-12T11:36:18.018Z</time></trkpt><trkpt lat="44.1897154" lon="11.2206177"><ele>691.0</ele><time>2026-04-12T11:36:19.018Z</time></trkpt><trkpt lat="44.1898195" lon="11.2206747"><ele>692.0</ele><time>2026-04-12T11:36:20.018Z</time></trkpt><trkpt lat="44.1899255" lon="11.2207316"><ele>693.0</ele><time>2026-04-12T11:36:21.018Z</time></trkpt><trkpt lat="44.190037" lon="11.2207911"><ele>694.0</ele><time>2026-04-12T11:36:22.018Z</time></trkpt><trkpt lat="44.1901551" lon="11.2208487"><ele>694.0</ele><time>2026-04-12T11:36:23.018Z</time></trkpt><trkpt lat="44.1902817" lon="11.2209066"><ele>694.0</ele><time>2026-04-12T11:36:24.018Z</time></trkpt><trkpt lat="44.1904209" lon="11.2209673"><ele>694.0</ele><time>2026-04-12T11:36:25.019Z</time></trkpt><trkpt lat="44.1905675" lon="11.2210418"><ele>694.0</ele><time>2026-04-12T11:36:26.018Z</time></trkpt><trkpt lat="44.1907115" lon="11.2211255"><ele>695.25</ele><time>2026-04-12T11:36:27.018Z</time></trkpt><trkpt lat="44.1908464" lon="11.2212069"><ele>696.5</ele><time>2026-04-12T11:36:28.019Z</time></trkpt><trkpt lat="44.190971" lon="11.2212824"><ele>697.75</ele><time>2026-04-12T11:36:29.018Z</time></trkpt><trkpt lat="44.1910913" lon="11.2213556"><ele>699.0</ele><time>2026-04-12T11:36:30.018Z</time></trkpt><trkpt lat="44.1912" lon="11.2214311"><ele>697.6</ele><time>2026-04-12T11:36:31.018Z</time></trkpt><trkpt lat="44.1912977" lon="11.2215111"><ele>696.2</ele><time>2026-04-12T11:36:32.018Z</time></trkpt><trkpt lat="44.1913886" lon="11.2215884"><ele>694.8000000000001</ele><time>2026-04-12T11:36:33.02Z</time></trkpt><trkpt lat="44.1914722" lon="11.2216613"><ele>693.4000000000001</ele><time>2026-04-12T11:36:34.018Z</time></trkpt><trkpt lat="44.19157" lon="11.2217513"><ele>692.0</ele><time>2026-04-12T11:36:35.019Z</time></trkpt><trkpt lat="44.1916802" lon="11.2218428"><ele>692.0</ele><time>2026-04-12T11:36:36.019Z</time></trkpt><trkpt lat="44.1918107" lon="11.2219121"><ele>692.0</ele><time>2026-04-12T11:36:37.018Z</time></trkpt><trkpt lat="44.1919658" lon="11.2219517"><ele>692.0</ele><time>2026-04-12T11:36:38.018Z</time></trkpt><trkpt lat="44.1921367" lon="11.2219606"><ele>692.0</ele><time>2026-04-12T11:36:39.018Z</time></trkpt><trkpt lat="44.1923094" lon="11.2219666"><ele>692.0</ele><time>2026-04-12T11:36:40.018Z</time></trkpt><trkpt lat="44.1924733" lon="11.2219903"><ele>692.0</ele><time>2026-04-12T11:36:41.018Z</time></trkpt><trkpt lat="44.1926252" lon="11.2220411"><ele>696.3333333333333</ele><time>2026-04-12T11:36:42.018Z</time></trkpt><trkpt lat="44.1927701" lon="11.2221246"><ele>700.6666666666666</ele><time>2026-04-12T11:36:43.019Z</time></trkpt><trkpt lat="44.1929092" lon="11.2222221"><ele>705.0</ele><time>2026-04-12T11:36:44.019Z</time></trkpt><trkpt lat="44.1930524" lon="11.2222979"><ele>705.6666666666666</ele><time>2026-04-12T11:36:45.018Z</time></trkpt><trkpt lat="44.1932038" lon="11.2223341"><ele>706.3333333333333</ele><time>2026-04-12T11:36:46.018Z</time></trkpt><trkpt lat="44.193367" lon="11.2223184"><ele>707.0</ele><time>2026-04-12T11:36:47.018Z</time></trkpt><trkpt lat="44.1935299" lon="11.2222518"><ele>707.0</ele><time>2026-04-12T11:36:48.018Z</time></trkpt><trkpt lat="44.1936866" lon="11.2221808"><ele>707.0</ele><time>2026-04-12T11:36:49.019Z</time></trkpt><trkpt lat="44.1938452" lon="11.2221457"><ele>707.0</ele><time>2026-04-12T11:36:50.018Z</time></trkpt><trkpt lat="44.1940058" lon="11.2221603"><ele>705.3333333333333</ele><time>2026-04-12T11:36:51.019Z</time></trkpt><trkpt lat="44.1941646" lon="11.2222062"><ele>703.6666666666666</ele><time>2026-04-12T11:36:52.018Z</time></trkpt><trkpt lat="44.1943303" lon="11.2222354"><ele>702.0</ele><time>2026-04-12T11:36:53.019Z</time></trkpt><trkpt lat="44.194507" lon="11.2222346"><ele>702.0</ele><time>2026-04-12T11:36:54.019Z</time></trkpt><trkpt lat="44.1946879" lon="11.2222244"><ele>702.0</ele><time>2026-04-12T11:36:55.018Z</time></trkpt><trkpt lat="44.1948682" lon="11.2222135"><ele>702.0</ele><time>2026-04-12T11:36:56.019Z</time></trkpt><trkpt lat="44.1950433" lon="11.2222046"><ele>701.5</ele><time>2026-04-12T11:36:57.019Z</time></trkpt><trkpt lat="44.1952075" lon="11.2222072"><ele>701.0</ele><time>2026-04-12T11:36:58.018Z</time></trkpt><trkpt lat="44.1953511" lon="11.2222313"><ele>700.5</ele><time>2026-04-12T11:36:59.018Z</time></trkpt><trkpt lat="44.1954789" lon="11.222282"><ele>700.0</ele><time>2026-04-12T11:37:00.018Z</time></trkpt><trkpt lat="44.1956003" lon="11.2223535"><ele>697.25</ele><time>2026-04-12T11:37:01.02Z</time></trkpt><trkpt lat="44.1957232" lon="11.2224333"><ele>694.5</ele><time>2026-04-12T11:37:02.019Z</time></trkpt><trkpt lat="44.1958392" lon="11.2225133"><ele>691.75</ele><time>2026-04-12T11:37:03.019Z</time></trkpt><trkpt lat="44.1959534" lon="11.2225802"><ele>689.0</ele><time>2026-04-12T11:37:04.019Z</time></trkpt><trkpt lat="44.1960834" lon="11.2225892"><ele>689.0</ele><time>2026-04-12T11:37:05.019Z</time></trkpt><trkpt lat="44.1962182" lon="11.2225365"><ele>689.0</ele><time>2026-04-12T11:37:06.019Z</time></trkpt><trkpt lat="44.1963531" lon="11.2224275"><ele>689.0</ele><time>2026-04-12T11:37:07.019Z</time></trkpt><trkpt lat="44.1964853" lon="11.2223044"><ele>690.6666666666666</ele><time>2026-04-12T11:37:08.019Z</time></trkpt><trkpt lat="44.1966203" lon="11.2221947"><ele>692.3333333333334</ele><time>2026-04-12T11:37:09.019Z</time></trkpt><trkpt lat="44.1967714" lon="11.2221063"><ele>694.0</ele><time>2026-04-12T11:37:10.02Z</time></trkpt><trkpt lat="44.1969265" lon="11.2220298"><ele>694.0</ele><time>2026-04-12T11:37:11.019Z</time></trkpt><trkpt lat="44.1970754" lon="11.2219466"><ele>694.0</ele><time>2026-04-12T11:37:12.02Z</time></trkpt><trkpt lat="44.1972093" lon="11.2218512"><ele>694.0</ele><time>2026-04-12T11:37:13.019Z</time></trkpt><trkpt lat="44.1973287" lon="11.2217647"><ele>694.0</ele><time>2026-04-12T11:37:14.019Z</time></trkpt><trkpt lat="44.1974286" lon="11.2217117"><ele>691.6</ele><time>2026-04-12T11:37:15.019Z</time></trkpt><trkpt lat="44.1975271" lon="11.2217113"><ele>689.2</ele><time>2026-04-12T11:37:16.019Z</time></trkpt><trkpt lat="44.1976192" lon="11.2217603"><ele>686.8000000000001</ele><time>2026-04-12T11:37:17.019Z</time></trkpt><trkpt lat="44.1977065" lon="11.2218643"><ele>684.4000000000001</ele><time>2026-04-12T11:37:18.019Z</time></trkpt><trkpt lat="44.1977829" lon="11.2220112"><ele>682.0</ele><time>2026-04-12T11:37:19.019Z</time></trkpt><trkpt lat="44.1978547" lon="11.2221845"><ele>681.0</ele><time>2026-04-12T11:37:20.019Z</time></trkpt><trkpt lat="44.1979087" lon="11.222369"><ele>680.0</ele><time>2026-04-12T11:37:21.019Z</time></trkpt><trkpt lat="44.1979831" lon="11.2225284"><ele>679.0</ele><time>2026-04-12T11:37:22.019Z</time></trkpt><trkpt lat="44.1980832" lon="11.2226687"><ele>678.0</ele><time>2026-04-12T11:37:23.019Z</time></trkpt><trkpt lat="44.1982062" lon="11.2227845"><ele>678.0</ele><time>2026-04-12T11:37:24.019Z</time></trkpt><trkpt lat="44.198354" lon="11.2228675"><ele>678.0</ele><time>2026-04-12T11:37:25.02Z</time></trkpt><trkpt lat="44.1985111" lon="11.2229226"><ele>678.0</ele><time>2026-04-12T11:37:26.02Z</time></trkpt><trkpt lat="44.1986725" lon="11.222964"><ele>678.0</ele><time>2026-04-12T11:37:27.02Z</time></trkpt><trkpt lat="44.1988401" lon="11.2229868"><ele>678.0</ele><time>2026-04-12T11:37:28.019Z</time></trkpt><trkpt lat="44.1990098" lon="11.2229913"><ele>678.0</ele><time>2026-04-12T11:37:29.019Z</time></trkpt><trkpt lat="44.1991797" lon="11.2229895"><ele>680.6666666666666</ele><time>2026-04-12T11:37:30.02Z</time></trkpt><trkpt lat="44.1993496" lon="11.2229985"><ele>683.3333333333333</ele><time>2026-04-12T11:37:31.019Z</time></trkpt><trkpt lat="44.1995206" lon="11.2230313"><ele>686.0</ele><time>2026-04-12T11:37:32.019Z</time></trkpt><trkpt lat="44.1996933" lon="11.2230842"><ele>687.25</ele><time>2026-04-12T11:37:33.02Z</time></trkpt><trkpt lat="44.1998571" lon="11.2231377"><ele>688.5</ele><time>2026-04-12T11:37:34.019Z</time></trkpt><trkpt lat="44.2000038" lon="11.2231784"><ele>689.75</ele><time>2026-04-12T11:37:35.019Z</time></trkpt><trkpt lat="44.200132" lon="11.223219"><ele>691.0</ele><time>2026-04-12T11:37:36.019Z</time></trkpt><trkpt lat="44.2002387" lon="11.223286"><ele>685.75</ele><time>2026-04-12T11:37:37.019Z</time></trkpt><trkpt lat="44.200322" lon="11.2233904"><ele>680.5</ele><time>2026-04-12T11:37:38.019Z</time></trkpt><trkpt lat="44.2003799" lon="11.2235311"><ele>675.25</ele><time>2026-04-12T11:37:39.019Z</time></trkpt><trkpt lat="44.2004265" lon="11.223694"><ele>670.0</ele><time>2026-04-12T11:37:40.019Z</time></trkpt><trkpt lat="44.2004886" lon="11.2238714"><ele>669.25</ele><time>2026-04-12T11:37:41.019Z</time></trkpt><trkpt lat="44.2005739" lon="11.2240438"><ele>668.5</ele><time>2026-04-12T11:37:42.019Z</time></trkpt><trkpt lat="44.2006704" lon="11.2241942"><ele>667.75</ele><time>2026-04-12T11:37:43.019Z</time></trkpt><trkpt lat="44.2007624" lon="11.2243121"><ele>667.0</ele><time>2026-04-12T11:37:44.019Z</time></trkpt><trkpt lat="44.2008578" lon="11.2243948"><ele>667.0</ele><time>2026-04-12T11:37:45.019Z</time></trkpt><trkpt lat="44.2009626" lon="11.2244307"><ele>667.0</ele><time>2026-04-12T11:37:46.019Z</time></trkpt><trkpt lat="44.2010779" lon="11.2244134"><ele>667.0</ele><time>2026-04-12T11:37:47.019Z</time></trkpt><trkpt lat="44.2011888" lon="11.2243398"><ele>667.0</ele><time>2026-04-12T11:37:48.019Z</time></trkpt><trkpt lat="44.2012927" lon="11.2242224"><ele>667.0</ele><time>2026-04-12T11:37:49.019Z</time></trkpt><trkpt lat="44.2013882" lon="11.2240916"><ele>667.0</ele><time>2026-04-12T11:37:50.02Z</time></trkpt><trkpt lat="44.2014761" lon="11.2239737"><ele>667.0</ele><time>2026-04-12T11:37:51.02Z</time></trkpt><trkpt lat="44.2015607" lon="11.2238699"><ele>667.0</ele><time>2026-04-12T11:37:52.019Z</time></trkpt><trkpt lat="44.2016484" lon="11.2238155"><ele>665.5</ele><time>2026-04-12T11:37:53.019Z</time></trkpt><trkpt lat="44.2017406" lon="11.2238016"><ele>664.0</ele><time>2026-04-12T11:37:54.02Z</time></trkpt><trkpt lat="44.2018469" lon="11.223839"><ele>662.5</ele><time>2026-04-12T11:37:55.019Z</time></trkpt><trkpt lat="44.2019683" lon="11.2239276"><ele>661.0</ele><time>2026-04-12T11:37:56.019Z</time></trkpt><trkpt lat="44.2020975" lon="11.2240566"><ele>661.0</ele><time>2026-04-12T11:37:57.019Z</time></trkpt><trkpt lat="44.2022283" lon="11.2242036"><ele>661.0</ele><time>2026-04-12T11:37:58.019Z</time></trkpt><trkpt lat="44.2023486" lon="11.2243507"><ele>661.0</ele><time>2026-04-12T11:37:59.019Z</time></trkpt><trkpt lat="44.2024562" lon="11.224489"><ele>660.5</ele><time>2026-04-12T11:38:00.019Z</time></trkpt><trkpt lat="44.2025601" lon="11.2245997"><ele>660.0</ele><time>2026-04-12T11:38:01.02Z</time></trkpt><trkpt lat="44.2026607" lon="11.2246814"><ele>659.5</ele><time>2026-04-12T11:38:02.019Z</time></trkpt><trkpt lat="44.2027904" lon="11.2246857"><ele>659.0</ele><time>2026-04-12T11:38:03.019Z</time></trkpt><trkpt lat="44.2029341" lon="11.2246323"><ele>659.0</ele><time>2026-04-12T11:38:04.019Z</time></trkpt><trkpt lat="44.2030875" lon="11.2245372"><ele>659.0</ele><time>2026-04-12T11:38:05.019Z</time></trkpt><trkpt lat="44.2032416" lon="11.2244276"><ele>659.0</ele><time>2026-04-12T11:38:06.019Z</time></trkpt><trkpt lat="44.203384" lon="11.2243195"><ele>657.75</ele><time>2026-04-12T11:38:07.019Z</time></trkpt><trkpt lat="44.2035205" lon="11.2242222"><ele>656.5</ele><time>2026-04-12T11:38:08.019Z</time></trkpt><trkpt lat="44.2036565" lon="11.2241577"><ele>655.25</ele><time>2026-04-12T11:38:09.02Z</time></trkpt><trkpt lat="44.2037965" lon="11.224143"><ele>654.0</ele><time>2026-04-12T11:38:10.019Z</time></trkpt><trkpt lat="44.2039431" lon="11.2241639"><ele>650.5</ele><time>2026-04-12T11:38:11.019Z</time></trkpt><trkpt lat="44.2040854" lon="11.2241907"><ele>647.0</ele><time>2026-04-12T11:38:12.019Z</time></trkpt><trkpt lat="44.2042201" lon="11.224192"><ele>643.5</ele><time>2026-04-12T11:38:13.019Z</time></trkpt><trkpt lat="44.2043503" lon="11.2241503"><ele>640.0</ele><time>2026-04-12T11:38:14.019Z</time></trkpt><trkpt lat="44.2044738" lon="11.2240603"><ele>643.25</ele><time>2026-04-12T11:38:15.019Z</time></trkpt><trkpt lat="44.2045901" lon="11.2239397"><ele>646.5</ele><time>2026-04-12T11:38:16.019Z</time></trkpt><trkpt lat="44.2047155" lon="11.2238303"><ele>649.75</ele><time>2026-04-12T11:38:17.019Z</time></trkpt><trkpt lat="44.2048627" lon="11.2237595"><ele>653.0</ele><time>2026-04-12T11:38:18.02Z</time></trkpt><trkpt lat="44.2050305" lon="11.2237144"><ele>653.0</ele><time>2026-04-12T11:38:19.02Z</time></trkpt><trkpt lat="44.2052029" lon="11.2236715"><ele>653.0</ele><time>2026-04-12T11:38:20.019Z</time></trkpt><trkpt lat="44.2053661" lon="11.2236219"><ele>653.0</ele><time>2026-04-12T11:38:21.019Z</time></trkpt><trkpt lat="44.2055087" lon="11.2235812"><ele>653.0</ele><time>2026-04-12T11:38:22.019Z</time></trkpt><trkpt lat="44.2056299" lon="11.2235659"><ele>653.0</ele><time>2026-04-12T11:38:23.019Z</time></trkpt><trkpt lat="44.2057354" lon="11.2235934"><ele>653.0</ele><time>2026-04-12T11:38:24.019Z</time></trkpt><trkpt lat="44.2058251" lon="11.2236758"><ele>653.0</ele><time>2026-04-12T11:38:25.02Z</time></trkpt><trkpt lat="44.2059047" lon="11.2238004"><ele>651.0</ele><time>2026-04-12T11:38:26.019Z</time></trkpt><trkpt lat="44.2059918" lon="11.2239226"><ele>649.0</ele><time>2026-04-12T11:38:27.019Z</time></trkpt><trkpt lat="44.2060941" lon="11.2240223"><ele>647.0</ele><time>2026-04-12T11:38:28.02Z</time></trkpt><trkpt lat="44.2062131" lon="11.2240768"><ele>645.0</ele><time>2026-04-12T11:38:29.019Z</time></trkpt><trkpt lat="44.2063521" lon="11.2240706"><ele>645.3333333333334</ele><time>2026-04-12T11:38:30.019Z</time></trkpt><trkpt lat="44.2065068" lon="11.2240084"><ele>645.6666666666667</ele><time>2026-04-12T11:38:31.02Z</time></trkpt><trkpt lat="44.2066572" lon="11.2239457"><ele>646.0</ele><time>2026-04-12T11:38:32.02Z</time></trkpt><trkpt lat="44.2068011" lon="11.2239267"><ele>646.0</ele><time>2026-04-12T11:38:33.02Z</time></trkpt><trkpt lat="44.20694" lon="11.2239528"><ele>646.0</ele><time>2026-04-12T11:38:34.02Z</time></trkpt><trkpt lat="44.2070722" lon="11.2240187"><ele>646.0</ele><time>2026-04-12T11:38:35.02Z</time></trkpt><trkpt lat="44.2071994" lon="11.2240865"><ele>646.0</ele><time>2026-04-12T11:38:36.02Z</time></trkpt><trkpt lat="44.2073211" lon="11.2241102"><ele>644.25</ele><time>2026-04-12T11:38:37.02Z</time></trkpt><trkpt lat="44.20744" lon="11.2241003"><ele>642.5</ele><time>2026-04-12T11:38:38.02Z</time></trkpt><trkpt lat="44.2075541" lon="11.2240177"><ele>640.75</ele><time>2026-04-12T11:38:39.02Z</time></trkpt><trkpt lat="44.2076465" lon="11.2238964"><ele>639.0</ele><time>2026-04-12T11:38:40.02Z</time></trkpt><trkpt lat="44.2077142" lon="11.2237428"><ele>639.0</ele><time>2026-04-12T11:38:41.02Z</time></trkpt><trkpt lat="44.2077682" lon="11.22357"><ele>639.0</ele><time>2026-04-12T11:38:42.02Z</time></trkpt><trkpt lat="44.2078273" lon="11.223401"><ele>639.0</ele><time>2026-04-12T11:38:43.02Z</time></trkpt><trkpt lat="44.2079364" lon="11.2232782"><ele>639.0</ele><time>2026-04-12T11:38:44.02Z</time></trkpt><trkpt lat="44.2080703" lon="11.2231925"><ele>637.75</ele><time>2026-04-12T11:38:45.02Z</time></trkpt><trkpt lat="44.2082144" lon="11.2231445"><ele>636.5</ele><time>2026-04-12T11:38:46.02Z</time></trkpt><trkpt lat="44.2083428" lon="11.2230984"><ele>635.25</ele><time>2026-04-12T11:38:47.02Z</time></trkpt><trkpt lat="44.2084524" lon="11.2230172"><ele>634.0</ele><time>2026-04-12T11:38:48.02Z</time></trkpt><trkpt lat="44.2085471" lon="11.2228815"><ele>634.0</ele><time>2026-04-12T11:38:49.02Z</time></trkpt><trkpt lat="44.2086163" lon="11.2226963"><ele>634.0</ele><time>2026-04-12T11:38:50.02Z</time></trkpt><trkpt lat="44.2086886" lon="11.2224984"><ele>634.0</ele><time>2026-04-12T11:38:51.02Z</time></trkpt><trkpt lat="44.2087945" lon="11.2222997"><ele>630.0</ele><time>2026-04-12T11:38:52.021Z</time></trkpt><trkpt lat="44.2089063" lon="11.222115"><ele>626.0</ele><time>2026-04-12T11:38:53.02Z</time></trkpt><trkpt lat="44.2089927" lon="11.22192"><ele>622.0</ele><time>2026-04-12T11:38:54.021Z</time></trkpt><trkpt lat="44.2090544" lon="11.2216937"><ele>623.5</ele><time>2026-04-12T11:38:55.02Z</time></trkpt><trkpt lat="44.2091053" lon="11.2214819"><ele>625.0</ele><time>2026-04-12T11:38:56.02Z</time></trkpt><trkpt lat="44.2091556" lon="11.2213062"><ele>626.5</ele><time>2026-04-12T11:38:57.02Z</time></trkpt><trkpt lat="44.2092079" lon="11.2211615"><ele>628.0</ele><time>2026-04-12T11:38:58.021Z</time></trkpt><trkpt lat="44.2092609" lon="11.221034"><ele>628.0</ele><time>2026-04-12T11:38:59.02Z</time></trkpt><trkpt lat="44.2093192" lon="11.2209256"><ele>628.0</ele><time>2026-04-12T11:39:00.021Z</time></trkpt><trkpt lat="44.2093883" lon="11.2208461"><ele>628.0</ele><time>2026-04-12T11:39:01.02Z</time></trkpt><trkpt lat="44.2094677" lon="11.2208065"><ele>628.0</ele><time>2026-04-12T11:39:02.02Z</time></trkpt><trkpt lat="44.2095532" lon="11.2208132"><ele>628.0</ele><time>2026-04-12T11:39:03.02Z</time></trkpt><trkpt lat="44.2096431" lon="11.2208677"><ele>628.0</ele><time>2026-04-12T11:39:04.02Z</time></trkpt><trkpt lat="44.2097316" lon="11.2209537"><ele>628.0</ele><time>2026-04-12T11:39:05.02Z</time></trkpt><trkpt lat="44.2098075" lon="11.2210768"><ele>628.0</ele><time>2026-04-12T11:39:06.02Z</time></trkpt><trkpt lat="44.209873" lon="11.2212324"><ele>628.0</ele><time>2026-04-12T11:39:07.02Z</time></trkpt><trkpt lat="44.2099442" lon="11.2213859"><ele>622.3333333333334</ele><time>2026-04-12T11:39:08.02Z</time></trkpt><trkpt lat="44.21006" lon="11.2215129"><ele>616.6666666666666</ele><time>2026-04-12T11:39:09.021Z</time></trkpt><trkpt lat="44.2101957" lon="11.2216336"><ele>611.0</ele><time>2026-04-12T11:39:10.02Z</time></trkpt><trkpt lat="44.2103304" lon="11.2217473"><ele>611.0</ele><time>2026-04-12T11:39:11.02Z</time></trkpt><trkpt lat="44.2104514" lon="11.221849"><ele>611.0</ele><time>2026-04-12T11:39:12.02Z</time></trkpt><trkpt lat="44.210569" lon="11.2219271"><ele>611.0</ele><time>2026-04-12T11:39:13.02Z</time></trkpt><trkpt lat="44.2106904" lon="11.2219683"><ele>611.0</ele><time>2026-04-12T11:39:14.021Z</time></trkpt><trkpt lat="44.2108132" lon="11.2219574"><ele>610.5</ele><time>2026-04-12T11:39:15.021Z</time></trkpt><trkpt lat="44.2109313" lon="11.2218937"><ele>610.0</ele><time>2026-04-12T11:39:16.02Z</time></trkpt><trkpt lat="44.2110486" lon="11.2217813"><ele>609.5</ele><time>2026-04-12T11:39:17.02Z</time></trkpt><trkpt lat="44.2111619" lon="11.2216429"><ele>609.0</ele><time>2026-04-12T11:39:18.02Z</time></trkpt><trkpt lat="44.2112798" lon="11.2214943"><ele>607.3333333333334</ele><time>2026-04-12T11:39:19.02Z</time></trkpt><trkpt lat="44.2114242" lon="11.2213598"><ele>605.6666666666667</ele><time>2026-04-12T11:39:20.02Z</time></trkpt><trkpt lat="44.2115848" lon="11.2212437"><ele>604.0</ele><time>2026-04-12T11:39:21.02Z</time></trkpt><trkpt lat="44.211752" lon="11.221143"><ele>604.0</ele><time>2026-04-12T11:39:22.02Z</time></trkpt><trkpt lat="44.2119165" lon="11.2210474"><ele>604.0</ele><time>2026-04-12T11:39:23.02Z</time></trkpt><trkpt lat="44.2120717" lon="11.2209523"><ele>604.0</ele><time>2026-04-12T11:39:24.02Z</time></trkpt><trkpt lat="44.2122179" lon="11.2208651"><ele>604.0</ele><time>2026-04-12T11:39:25.02Z</time></trkpt><trkpt lat="44.2123558" lon="11.2207777"><ele>604.0</ele><time>2026-04-12T11:39:26.02Z</time></trkpt><trkpt lat="44.2124827" lon="11.2206786"><ele>604.0</ele><time>2026-04-12T11:39:27.02Z</time></trkpt><trkpt lat="44.2125978" lon="11.2205667"><ele>604.0</ele><time>2026-04-12T11:39:28.02Z</time></trkpt><trkpt lat="44.2127018" lon="11.2204465"><ele>604.0</ele><time>2026-04-12T11:39:29.02Z</time></trkpt><trkpt lat="44.212799" lon="11.2203413"><ele>604.0</ele><time>2026-04-12T11:39:30.021Z</time></trkpt><trkpt lat="44.2129015" lon="11.2202728"><ele>604.0</ele><time>2026-04-12T11:39:31.02Z</time></trkpt><trkpt lat="44.2130201" lon="11.220235"><ele>604.0</ele><time>2026-04-12T11:39:32.02Z</time></trkpt><trkpt lat="44.213152" lon="11.220209"><ele>600.75</ele><time>2026-04-12T11:39:33.02Z</time></trkpt><trkpt lat="44.213291" lon="11.2201806"><ele>597.5</ele><time>2026-04-12T11:39:34.02Z</time></trkpt><trkpt lat="44.2134312" lon="11.2201362"><ele>594.25</ele><time>2026-04-12T11:39:35.02Z</time></trkpt><trkpt lat="44.2135693" lon="11.2200679"><ele>591.0</ele><time>2026-04-12T11:39:36.02Z</time></trkpt><trkpt lat="44.2137027" lon="11.2199833"><ele>591.0</ele><time>2026-04-12T11:39:37.021Z</time></trkpt><trkpt lat="44.2138317" lon="11.2198987"><ele>591.0</ele><time>2026-04-12T11:39:38.021Z</time></trkpt><trkpt lat="44.2139569" lon="11.219821"><ele>591.0</ele><time>2026-04-12T11:39:39.02Z</time></trkpt><trkpt lat="44.2140756" lon="11.2197635"><ele>591.0</ele><time>2026-04-12T11:39:40.02Z</time></trkpt><trkpt lat="44.2141886" lon="11.2197288"><ele>592.0</ele><time>2026-04-12T11:39:41.02Z</time></trkpt><trkpt lat="44.2142941" lon="11.2197112"><ele>593.0</ele><time>2026-04-12T11:39:42.02Z</time></trkpt><trkpt lat="44.2143919" lon="11.2197034"><ele>594.0</ele><time>2026-04-12T11:39:43.02Z</time></trkpt><trkpt lat="44.2144834" lon="11.2197006"><ele>595.0</ele><time>2026-04-12T11:39:44.02Z</time></trkpt><trkpt lat="44.2145736" lon="11.2197075"><ele>596.0</ele><time>2026-04-12T11:39:45.02Z</time></trkpt><trkpt lat="44.2146642" lon="11.219714"><ele>596.0</ele><time>2026-04-12T11:39:46.02Z</time></trkpt><trkpt lat="44.2147546" lon="11.2197218"><ele>596.0</ele><time>2026-04-12T11:39:47.02Z</time></trkpt><trkpt lat="44.2148447" lon="11.2197319"><ele>596.0</ele><time>2026-04-12T11:39:48.02Z</time></trkpt><trkpt lat="44.2149379" lon="11.2197453"><ele>596.0</ele><time>2026-04-12T11:39:49.02Z</time></trkpt><trkpt lat="44.2150446" lon="11.2197614"><ele>596.0</ele><time>2026-04-12T11:39:50.021Z</time></trkpt><trkpt lat="44.2151628" lon="11.2197656"><ele>597.0</ele><time>2026-04-12T11:39:51.021Z</time></trkpt><trkpt lat="44.2152879" lon="11.2197567"><ele>598.0</ele><time>2026-04-12T11:39:52.02Z</time></trkpt><trkpt lat="44.2154111" lon="11.2197346"><ele>599.0</ele><time>2026-04-12T11:39:53.021Z</time></trkpt><trkpt lat="44.2155213" lon="11.2196858"><ele>600.0</ele><time>2026-04-12T11:39:54.021Z</time></trkpt><trkpt lat="44.2156146" lon="11.2195957"><ele>598.0</ele><time>2026-04-12T11:39:55.021Z</time></trkpt><trkpt lat="44.2157009" lon="11.2194727"><ele>596.0</ele><time>2026-04-12T11:39:56.021Z</time></trkpt><trkpt lat="44.2157926" lon="11.2193394"><ele>594.0</ele><time>2026-04-12T11:39:57.02Z</time></trkpt><trkpt lat="44.2158981" lon="11.21922"><ele>592.0</ele><time>2026-04-12T11:39:58.02Z</time></trkpt><trkpt lat="44.2160124" lon="11.2191174"><ele>592.0</ele><time>2026-04-12T11:39:59.022Z</time></trkpt><trkpt lat="44.2161572" lon="11.2190472"><ele>592.0</ele><time>2026-04-12T11:40:00.02Z</time></trkpt><trkpt lat="44.2163138" lon="11.2189947"><ele>592.0</ele><time>2026-04-12T11:40:01.021Z</time></trkpt><trkpt lat="44.2164684" lon="11.2189461"><ele>592.3333333333334</ele><time>2026-04-12T11:40:02.022Z</time></trkpt><trkpt lat="44.2166159" lon="11.2188758"><ele>592.6666666666666</ele><time>2026-04-12T11:40:03.021Z</time></trkpt><trkpt lat="44.2167551" lon="11.2187721"><ele>593.0</ele><time>2026-04-12T11:40:04.021Z</time></trkpt><trkpt lat="44.216895" lon="11.2186412"><ele>593.0</ele><time>2026-04-12T11:40:05.021Z</time></trkpt><trkpt lat="44.2170391" lon="11.2184995"><ele>593.0</ele><time>2026-04-12T11:40:06.021Z</time></trkpt><trkpt lat="44.2171781" lon="11.2183589"><ele>593.0</ele><time>2026-04-12T11:40:07.021Z</time></trkpt><trkpt lat="44.2173129" lon="11.2182294"><ele>594.3333333333333</ele><time>2026-04-12T11:40:08.021Z</time></trkpt><trkpt lat="44.2174476" lon="11.2181129"><ele>595.6666666666666</ele><time>2026-04-12T11:40:09.021Z</time></trkpt><trkpt lat="44.217589" lon="11.218009"><ele>597.0</ele><time>2026-04-12T11:40:10.022Z</time></trkpt><trkpt lat="44.2177331" lon="11.2179118"><ele>597.0</ele><time>2026-04-12T11:40:11.021Z</time></trkpt><trkpt lat="44.2178711" lon="11.2178215"><ele>597.0</ele><time>2026-04-12T11:40:12.021Z</time></trkpt><trkpt lat="44.2180018" lon="11.2177355"><ele>597.0</ele><time>2026-04-12T11:40:13.021Z</time></trkpt><trkpt lat="44.2181251" lon="11.2176609"><ele>597.0</ele><time>2026-04-12T11:40:14.021Z</time></trkpt><trkpt lat="44.2182435" lon="11.2176164"><ele>592.5</ele><time>2026-04-12T11:40:15.022Z</time></trkpt><trkpt lat="44.218358" lon="11.2176159"><ele>588.0</ele><time>2026-04-12T11:40:16.021Z</time></trkpt><trkpt lat="44.2184676" lon="11.2176664"><ele>583.5</ele><time>2026-04-12T11:40:17.021Z</time></trkpt><trkpt lat="44.2185752" lon="11.2177698"><ele>579.0</ele><time>2026-04-12T11:40:18.021Z</time></trkpt><trkpt lat="44.2186837" lon="11.217906"><ele>579.0</ele><time>2026-04-12T11:40:19.021Z</time></trkpt><trkpt lat="44.218795" lon="11.2180581"><ele>579.0</ele><time>2026-04-12T11:40:20.021Z</time></trkpt><trkpt lat="44.2189094" lon="11.2182192"><ele>579.0</ele><time>2026-04-12T11:40:21.021Z</time></trkpt><trkpt lat="44.2190307" lon="11.2183838"><ele>575.6666666666666</ele><time>2026-04-12T11:40:22.021Z</time></trkpt><trkpt lat="44.2191514" lon="11.2185485"><ele>572.3333333333333</ele><time>2026-04-12T11:40:23.022Z</time></trkpt><trkpt lat="44.2192617" lon="11.2186971"><ele>569.0</ele><time>2026-04-12T11:40:24.021Z</time></trkpt><trkpt lat="44.2193556" lon="11.2188272"><ele>569.0</ele><time>2026-04-12T11:40:25.021Z</time></trkpt><trkpt lat="44.219425" lon="11.218939"><ele>569.0</ele><time>2026-04-12T11:40:26.021Z</time></trkpt><trkpt lat="44.2194675" lon="11.2190524"><ele>569.0</ele><time>2026-04-12T11:40:27.021Z</time></trkpt><trkpt lat="44.2194757" lon="11.2191748"><ele>569.0</ele><time>2026-04-12T11:40:28.021Z</time></trkpt><trkpt lat="44.2194437" lon="11.2192933"><ele>569.0</ele><time>2026-04-12T11:40:29.021Z</time></trkpt><trkpt lat="44.2193985" lon="11.2193981"><ele>567.25</ele><time>2026-04-12T11:40:30.022Z</time></trkpt><trkpt lat="44.2193056" lon="11.2194344"><ele>565.5</ele><time>2026-04-12T11:40:31.021Z</time></trkpt><trkpt lat="44.2191922" lon="11.2194238"><ele>563.75</ele><time>2026-04-12T11:40:32.021Z</time></trkpt><trkpt lat="44.2190643" lon="11.2193913"><ele>562.0</ele><time>2026-04-12T11:40:33.021Z</time></trkpt><trkpt lat="44.2189416" lon="11.219362"><ele>560.4</ele><time>2026-04-12T11:40:34.021Z</time></trkpt><trkpt lat="44.2188319" lon="11.2193594"><ele>558.8000000000001</ele><time>2026-04-12T11:40:35.021Z</time></trkpt><trkpt lat="44.218735" lon="11.219402"><ele>557.2</ele><time>2026-04-12T11:40:36.021Z</time></trkpt><trkpt lat="44.218662" lon="11.2194955"><ele>555.6</ele><time>2026-04-12T11:40:37.021Z</time></trkpt><trkpt lat="44.2186269" lon="11.2196266"><ele>554.0</ele><time>2026-04-12T11:40:38.021Z</time></trkpt><trkpt lat="44.2186401" lon="11.2197721"><ele>553.5</ele><time>2026-04-12T11:40:39.021Z</time></trkpt><trkpt lat="44.2187045" lon="11.2199056"><ele>553.0</ele><time>2026-04-12T11:40:40.022Z</time></trkpt><trkpt lat="44.218817" lon="11.2200069"><ele>552.5</ele><time>2026-04-12T11:40:41.021Z</time></trkpt><trkpt lat="44.2189638" lon="11.220086"><ele>552.0</ele><time>2026-04-12T11:40:42.022Z</time></trkpt><trkpt lat="44.219119" lon="11.2201421"><ele>552.0</ele><time>2026-04-12T11:40:43.021Z</time></trkpt><trkpt lat="44.2192695" lon="11.2201505"><ele>552.0</ele><time>2026-04-12T11:40:44.021Z</time></trkpt><trkpt lat="44.2194131" lon="11.2200959"><ele>552.0</ele><time>2026-04-12T11:40:45.021Z</time></trkpt><trkpt lat="44.2195513" lon="11.2200134"><ele>552.0</ele><time>2026-04-12T11:40:46.021Z</time></trkpt><trkpt lat="44.2196809" lon="11.2199338"><ele>552.0</ele><time>2026-04-12T11:40:47.022Z</time></trkpt><trkpt lat="44.2198243" lon="11.2199075"><ele>552.0</ele><time>2026-04-12T11:40:48.021Z</time></trkpt><trkpt lat="44.2199747" lon="11.2199182"><ele>552.0</ele><time>2026-04-12T11:40:49.021Z</time></trkpt><trkpt lat="44.2201319" lon="11.2199327"><ele>550.6666666666666</ele><time>2026-04-12T11:40:50.021Z</time></trkpt><trkpt lat="44.2202963" lon="11.2199345"><ele>549.3333333333333</ele><time>2026-04-12T11:40:51.021Z</time></trkpt><trkpt lat="44.2204585" lon="11.2199401"><ele>548.0</ele><time>2026-04-12T11:40:52.021Z</time></trkpt><trkpt lat="44.2206114" lon="11.2199654"><ele>546.5</ele><time>2026-04-12T11:40:53.021Z</time></trkpt><trkpt lat="44.2207574" lon="11.219982"><ele>545.0</ele><time>2026-04-12T11:40:54.022Z</time></trkpt><trkpt lat="44.2208977" lon="11.2199709"><ele>543.5</ele><time>2026-04-12T11:40:55.021Z</time></trkpt><trkpt lat="44.2210373" lon="11.2199396"><ele>542.0</ele><time>2026-04-12T11:40:56.021Z</time></trkpt><trkpt lat="44.2211709" lon="11.2198641"><ele>545.0</ele><time>2026-04-12T11:40:57.021Z</time></trkpt><trkpt lat="44.2213041" lon="11.2197718"><ele>548.0</ele><time>2026-04-12T11:40:58.022Z</time></trkpt><trkpt lat="44.2214471" lon="11.2196914"><ele>551.0</ele><time>2026-04-12T11:40:59.021Z</time></trkpt><trkpt lat="44.2215982" lon="11.2196307"><ele>551.0</ele><time>2026-04-12T11:41:00.021Z</time></trkpt><trkpt lat="44.2217522" lon="11.2195765"><ele>551.0</ele><time>2026-04-12T11:41:01.021Z</time></trkpt><trkpt lat="44.2219016" lon="11.2195074"><ele>551.0</ele><time>2026-04-12T11:41:02.022Z</time></trkpt><trkpt lat="44.2220464" lon="11.2194228"><ele>551.0</ele><time>2026-04-12T11:41:03.022Z</time></trkpt><trkpt lat="44.2221873" lon="11.2193301"><ele>551.0</ele><time>2026-04-12T11:41:04.021Z</time></trkpt><trkpt lat="44.2223191" lon="11.2192156"><ele>551.0</ele><time>2026-04-12T11:41:05.022Z</time></trkpt><trkpt lat="44.2224396" lon="11.2190828"><ele>549.3333333333333</ele><time>2026-04-12T11:41:06.021Z</time></trkpt><trkpt lat="44.2225562" lon="11.2189409"><ele>547.6666666666666</ele><time>2026-04-12T11:41:07.022Z</time></trkpt><trkpt lat="44.2226738" lon="11.2187995"><ele>546.0</ele><time>2026-04-12T11:41:08.021Z</time></trkpt><trkpt lat="44.2227929" lon="11.2186629"><ele>546.0</ele><time>2026-04-12T11:41:09.022Z</time></trkpt><trkpt lat="44.2229099" lon="11.2185404"><ele>546.0</ele><time>2026-04-12T11:41:10.021Z</time></trkpt><trkpt lat="44.2230219" lon="11.2184332"><ele>546.0</ele><time>2026-04-12T11:41:11.021Z</time></trkpt><trkpt lat="44.2231236" lon="11.2183416"><ele>546.0</ele><time>2026-04-12T11:41:12.021Z</time></trkpt><trkpt lat="44.223214" lon="11.218279"><ele>542.6</ele><time>2026-04-12T11:41:13.021Z</time></trkpt><trkpt lat="44.2233005" lon="11.2182588"><ele>539.2</ele><time>2026-04-12T11:41:14.023Z</time></trkpt><trkpt lat="44.2233817" lon="11.2182691"><ele>535.8</ele><time>2026-04-12T11:41:15.021Z</time></trkpt><trkpt lat="44.2234712" lon="11.2183428"><ele>532.4</ele><time>2026-04-12T11:41:16.021Z</time></trkpt><trkpt lat="44.2235762" lon="11.2184707"><ele>529.0</ele><time>2026-04-12T11:41:17.021Z</time></trkpt><trkpt lat="44.2236912" lon="11.2186183"><ele>529.0</ele><time>2026-04-12T11:41:18.021Z</time></trkpt><trkpt lat="44.2238066" lon="11.218781"><ele>529.0</ele><time>2026-04-12T11:41:19.021Z</time></trkpt><trkpt lat="44.2239093" lon="11.2189687"><ele>529.0</ele><time>2026-04-12T11:41:20.022Z</time></trkpt><trkpt lat="44.2239986" lon="11.2191507"><ele>527.25</ele><time>2026-04-12T11:41:21.021Z</time></trkpt><trkpt lat="44.2240785" lon="11.2193211"><ele>525.5</ele><time>2026-04-12T11:41:22.022Z</time></trkpt><trkpt lat="44.2241498" lon="11.2194724"><ele>523.75</ele><time>2026-04-12T11:41:23.021Z</time></trkpt><trkpt lat="44.2242241" lon="11.2195936"><ele>522.0</ele><time>2026-04-12T11:41:24.021Z</time></trkpt><trkpt lat="44.2243127" lon="11.219671"><ele>522.0</ele><time>2026-04-12T11:41:25.021Z</time></trkpt><trkpt lat="44.2244112" lon="11.2196877"><ele>522.0</ele><time>2026-04-12T11:41:26.022Z</time></trkpt><trkpt lat="44.2245126" lon="11.2196338"><ele>522.0</ele><time>2026-04-12T11:41:27.021Z</time></trkpt><trkpt lat="44.2246097" lon="11.2195093"><ele>522.0</ele><time>2026-04-12T11:41:28.022Z</time></trkpt><trkpt lat="44.2246944" lon="11.2193485"><ele>522.0</ele><time>2026-04-12T11:41:29.022Z</time></trkpt><trkpt lat="44.2247664" lon="11.2191993"><ele>522.0</ele><time>2026-04-12T11:41:30.022Z</time></trkpt><trkpt lat="44.2248341" lon="11.2190822"><ele>522.0</ele><time>2026-04-12T11:41:31.022Z</time></trkpt><trkpt lat="44.2249088" lon="11.2190006"><ele>522.0</ele><time>2026-04-12T11:41:32.022Z</time></trkpt><trkpt lat="44.2249921" lon="11.2189527"><ele>522.0</ele><time>2026-04-12T11:41:33.022Z</time></trkpt><trkpt lat="44.2250847" lon="11.2189285"><ele>520.8000000000001</ele><time>2026-04-12T11:41:34.023Z</time></trkpt><trkpt lat="44.2251763" lon="11.2189322"><ele>519.6</ele><time>2026-04-12T11:41:35.022Z</time></trkpt><trkpt lat="44.2252567" lon="11.2189733"><ele>518.4000000000001</ele><time>2026-04-12T11:41:36.022Z</time></trkpt><trkpt lat="44.2253267" lon="11.219048"><ele>517.2</ele><time>2026-04-12T11:41:37.022Z</time></trkpt><trkpt lat="44.2253935" lon="11.2191568"><ele>516.0</ele><time>2026-04-12T11:41:38.022Z</time></trkpt><trkpt lat="44.2254599" lon="11.2192996"><ele>516.0</ele><time>2026-04-12T11:41:39.022Z</time></trkpt><trkpt lat="44.2255276" lon="11.2194652"><ele>516.0</ele><time>2026-04-12T11:41:40.022Z</time></trkpt><trkpt lat="44.2255974" lon="11.2196377"><ele>516.0</ele><time>2026-04-12T11:41:41.022Z</time></trkpt><trkpt lat="44.2256819" lon="11.2198118"><ele>516.0</ele><time>2026-04-12T11:41:42.022Z</time></trkpt><trkpt lat="44.2257868" lon="11.2199787"><ele>512.0</ele><time>2026-04-12T11:41:43.022Z</time></trkpt><trkpt lat="44.2259082" lon="11.2201353"><ele>508.0</ele><time>2026-04-12T11:41:44.022Z</time></trkpt><trkpt lat="44.2260408" lon="11.2202873"><ele>504.0</ele><time>2026-04-12T11:41:45.022Z</time></trkpt><trkpt lat="44.2261818" lon="11.2204326"><ele>504.0</ele><time>2026-04-12T11:41:46.022Z</time></trkpt><trkpt lat="44.2263303" lon="11.2205647"><ele>504.0</ele><time>2026-04-12T11:41:47.022Z</time></trkpt><trkpt lat="44.2264776" lon="11.2206819"><ele>504.0</ele><time>2026-04-12T11:41:48.022Z</time></trkpt><trkpt lat="44.2266169" lon="11.2207878"><ele>503.75</ele><time>2026-04-12T11:41:49.022Z</time></trkpt><trkpt lat="44.226743" lon="11.2208861"><ele>503.5</ele><time>2026-04-12T11:41:50.022Z</time></trkpt><trkpt lat="44.2268532" lon="11.2209789"><ele>503.25</ele><time>2026-04-12T11:41:51.022Z</time></trkpt><trkpt lat="44.2269471" lon="11.2210653"><ele>503.0</ele><time>2026-04-12T11:41:52.022Z</time></trkpt><trkpt lat="44.2270265" lon="11.2211466"><ele>502.99999999999994</ele><time>2026-04-12T11:41:53.022Z</time></trkpt><trkpt lat="44.227093" lon="11.2212233"><ele>503.0</ele><time>2026-04-12T11:41:54.022Z</time></trkpt><trkpt lat="44.2271456" lon="11.2212917"><ele>503.0</ele><time>2026-04-12T11:41:55.022Z</time></trkpt><trkpt lat="44.2272091" lon="11.2213882"><ele>503.0</ele><time>2026-04-12T11:41:57.022Z</time></trkpt><trkpt lat="44.2272647" lon="11.2214374"><ele>502.99999999999994</ele><time>2026-04-12T11:41:59.022Z</time></trkpt><trkpt lat="44.2273839" lon="11.2214493"><ele>503.0</ele><time>2026-04-12T11:42:01.022Z</time></trkpt><trkpt lat="44.2274748" lon="11.2214252"><ele>503.0</ele><time>2026-04-12T11:42:02.023Z</time></trkpt><trkpt lat="44.2275787" lon="11.2213882"><ele>503.0</ele><time>2026-04-12T11:42:03.022Z</time></trkpt><trkpt lat="44.2276928" lon="11.2213484"><ele>503.0</ele><time>2026-04-12T11:42:04.022Z</time></trkpt><trkpt lat="44.2278111" lon="11.2213084"><ele>503.0</ele><time>2026-04-12T11:42:05.023Z</time></trkpt><trkpt lat="44.2279326" lon="11.2212691"><ele>503.0</ele><time>2026-04-12T11:42:06.022Z</time></trkpt><trkpt lat="44.2280506" lon="11.2212263"><ele>503.0</ele><time>2026-04-12T11:42:07.022Z</time></trkpt><trkpt lat="44.2281675" lon="11.2211784"><ele>503.0</ele><time>2026-04-12T11:42:08.022Z</time></trkpt><trkpt lat="44.2282888" lon="11.2211151"><ele>503.0</ele><time>2026-04-12T11:42:09.023Z</time></trkpt><trkpt lat="44.2284181" lon="11.2210345"><ele>502.3333333333333</ele><time>2026-04-12T11:42:10.022Z</time></trkpt><trkpt lat="44.2285626" lon="11.2209209"><ele>501.66666666666663</ele><time>2026-04-12T11:42:11.022Z</time></trkpt><trkpt lat="44.2287202" lon="11.2208037"><ele>501.0</ele><time>2026-04-12T11:42:12.022Z</time></trkpt><trkpt lat="44.2288813" lon="11.2206819"><ele>503.0</ele><time>2026-04-12T11:42:13.023Z</time></trkpt><trkpt lat="44.2290393" lon="11.2205625"><ele>505.0</ele><time>2026-04-12T11:42:14.022Z</time></trkpt><trkpt lat="44.2291944" lon="11.2204472"><ele>507.0</ele><time>2026-04-12T11:42:15.022Z</time></trkpt><trkpt lat="44.2293532" lon="11.2203384"><ele>507.0</ele><time>2026-04-12T11:42:16.025Z</time></trkpt><trkpt lat="44.2295166" lon="11.2202295"><ele>507.0</ele><time>2026-04-12T11:42:17.022Z</time></trkpt><trkpt lat="44.2296785" lon="11.2201188"><ele>507.0</ele><time>2026-04-12T11:42:18.023Z</time></trkpt><trkpt lat="44.2298335" lon="11.2200109"><ele>506.66666666666663</ele><time>2026-04-12T11:42:19.022Z</time></trkpt><trkpt lat="44.2299784" lon="11.2199032"><ele>506.3333333333333</ele><time>2026-04-12T11:42:20.022Z</time></trkpt><trkpt lat="44.2301104" lon="11.2197887"><ele>506.0</ele><time>2026-04-12T11:42:21.022Z</time></trkpt><trkpt lat="44.2302318" lon="11.2196695"><ele>506.0</ele><time>2026-04-12T11:42:22.022Z</time></trkpt><trkpt lat="44.2303481" lon="11.2195481"><ele>506.0</ele><time>2026-04-12T11:42:23.022Z</time></trkpt><trkpt lat="44.2304647" lon="11.2194373"><ele>506.0</ele><time>2026-04-12T11:42:24.022Z</time></trkpt><trkpt lat="44.2305922" lon="11.2193514"><ele>506.0</ele><time>2026-04-12T11:42:25.022Z</time></trkpt><trkpt lat="44.2307425" lon="11.2192999"><ele>504.66666666666663</ele><time>2026-04-12T11:42:26.022Z</time></trkpt><trkpt lat="44.2309226" lon="11.2192884"><ele>503.33333333333337</ele><time>2026-04-12T11:42:27.022Z</time></trkpt><trkpt lat="44.2311288" lon="11.219286"><ele>502.0</ele><time>2026-04-12T11:42:28.022Z</time></trkpt><trkpt lat="44.2313582" lon="11.2192563"><ele>501.0</ele><time>2026-04-12T11:42:29.023Z</time></trkpt><trkpt lat="44.2315547" lon="11.2192084"><ele>500.0</ele><time>2026-04-12T11:42:30.022Z</time></trkpt><trkpt lat="44.2317157" lon="11.2191688"><ele>499.0</ele><time>2026-04-12T11:42:31.022Z</time></trkpt><trkpt lat="44.2318361" lon="11.2191422"><ele>499.0</ele><time>2026-04-12T11:42:32.022Z</time></trkpt><trkpt lat="44.2319332" lon="11.2191352"><ele>499.0</ele><time>2026-04-12T11:42:33.022Z</time></trkpt><trkpt lat="44.2320195" lon="11.2191634"><ele>499.0</ele><time>2026-04-12T11:42:34.023Z</time></trkpt><trkpt lat="44.232089" lon="11.2192401"><ele>499.0</ele><time>2026-04-12T11:42:35.022Z</time></trkpt><trkpt lat="44.2321427" lon="11.2193812"><ele>499.0</ele><time>2026-04-12T11:42:36.022Z</time></trkpt><trkpt lat="44.2321848" lon="11.2195879"><ele>499.0</ele><time>2026-04-12T11:42:37.023Z</time></trkpt><trkpt lat="44.2322202" lon="11.2198147"><ele>499.0</ele><time>2026-04-12T11:42:38.022Z</time></trkpt><trkpt lat="44.2322611" lon="11.2200459"><ele>499.0</ele><time>2026-04-12T11:42:39.022Z</time></trkpt><trkpt lat="44.2323121" lon="11.2202754"><ele>497.5</ele><time>2026-04-12T11:42:40.023Z</time></trkpt><trkpt lat="44.232372" lon="11.2204911"><ele>496.0</ele><time>2026-04-12T11:42:41.022Z</time></trkpt><trkpt lat="44.2324333" lon="11.2206835"><ele>494.5</ele><time>2026-04-12T11:42:42.024Z</time></trkpt><trkpt lat="44.23249" lon="11.2208507"><ele>493.0</ele><time>2026-04-12T11:42:43.022Z</time></trkpt><trkpt lat="44.2325554" lon="11.220986"><ele>492.0</ele><time>2026-04-12T11:42:44.022Z</time></trkpt><trkpt lat="44.2326421" lon="11.2210828"><ele>491.0</ele><time>2026-04-12T11:42:45.022Z</time></trkpt><trkpt lat="44.23275" lon="11.2211337"><ele>490.0</ele><time>2026-04-12T11:42:46.022Z</time></trkpt><trkpt lat="44.2328734" lon="11.2211237"><ele>489.0</ele><time>2026-04-12T11:42:47.023Z</time></trkpt><trkpt lat="44.2330083" lon="11.2210525"><ele>486.66666666666663</ele><time>2026-04-12T11:42:48.022Z</time></trkpt><trkpt lat="44.2331548" lon="11.2209595"><ele>484.3333333333333</ele><time>2026-04-12T11:42:49.022Z</time></trkpt><trkpt lat="44.2333235" lon="11.2208993"><ele>482.0</ele><time>2026-04-12T11:42:50.022Z</time></trkpt><trkpt lat="44.2335137" lon="11.2208889"><ele>482.0</ele><time>2026-04-12T11:42:51.022Z</time></trkpt><trkpt lat="44.2337061" lon="11.2208873"><ele>482.0</ele><time>2026-04-12T11:42:52.022Z</time></trkpt><trkpt lat="44.2338878" lon="11.2208569"><ele>482.0</ele><time>2026-04-12T11:42:53.022Z</time></trkpt><trkpt lat="44.2340581" lon="11.2208134"><ele>480.0</ele><time>2026-04-12T11:42:54.023Z</time></trkpt><trkpt lat="44.2342245" lon="11.220806"><ele>478.0</ele><time>2026-04-12T11:42:55.023Z</time></trkpt><trkpt lat="44.2343935" lon="11.2208554"><ele>476.0</ele><time>2026-04-12T11:42:56.023Z</time></trkpt><trkpt lat="44.2345517" lon="11.2209186"><ele>476.0</ele><time>2026-04-12T11:42:57.023Z</time></trkpt><trkpt lat="44.2347079" lon="11.2209445"><ele>476.0</ele><time>2026-04-12T11:42:58.023Z</time></trkpt><trkpt lat="44.234868" lon="11.2209215"><ele>476.0</ele><time>2026-04-12T11:42:59.023Z</time></trkpt><trkpt lat="44.2350178" lon="11.2208747"><ele>475.75</ele><time>2026-04-12T11:43:00.023Z</time></trkpt><trkpt lat="44.2351456" lon="11.2208281"><ele>475.5</ele><time>2026-04-12T11:43:01.023Z</time></trkpt><trkpt lat="44.2352573" lon="11.220785"><ele>475.25</ele><time>2026-04-12T11:43:02.023Z</time></trkpt><trkpt lat="44.2353615" lon="11.2207638"><ele>475.0</ele><time>2026-04-12T11:43:03.023Z</time></trkpt><trkpt lat="44.2354623" lon="11.2207862"><ele>475.0</ele><time>2026-04-12T11:43:04.023Z</time></trkpt><trkpt lat="44.2355555" lon="11.2208612"><ele>475.0</ele><time>2026-04-12T11:43:05.023Z</time></trkpt><trkpt lat="44.2356409" lon="11.2209948"><ele>475.0</ele><time>2026-04-12T11:43:06.023Z</time></trkpt><trkpt lat="44.2357286" lon="11.2211805"><ele>475.0</ele><time>2026-04-12T11:43:07.023Z</time></trkpt><trkpt lat="44.2358123" lon="11.2213703"><ele>472.8</ele><time>2026-04-12T11:43:08.023Z</time></trkpt><trkpt lat="44.235889" lon="11.221535"><ele>470.6</ele><time>2026-04-12T11:43:09.024Z</time></trkpt><trkpt lat="44.2359526" lon="11.2216676"><ele>468.4</ele><time>2026-04-12T11:43:10.024Z</time></trkpt><trkpt lat="44.2359885" lon="11.2217844"><ele>466.2</ele><time>2026-04-12T11:43:11.024Z</time></trkpt><trkpt lat="44.2359821" lon="11.2218898"><ele>464.0</ele><time>2026-04-12T11:43:12.023Z</time></trkpt><trkpt lat="44.2359357" lon="11.22196"><ele>464.0</ele><time>2026-04-12T11:43:13.024Z</time></trkpt><trkpt lat="44.2358654" lon="11.2219737"><ele>464.0</ele><time>2026-04-12T11:43:14.023Z</time></trkpt><trkpt lat="44.2357821" lon="11.2219134"><ele>464.0</ele><time>2026-04-12T11:43:15.023Z</time></trkpt><trkpt lat="44.235689" lon="11.2218012"><ele>464.0</ele><time>2026-04-12T11:43:16.023Z</time></trkpt><trkpt lat="44.2355675" lon="11.2217"><ele>464.0</ele><time>2026-04-12T11:43:17.023Z</time></trkpt><trkpt lat="44.235428" lon="11.2216387"><ele>462.6</ele><time>2026-04-12T11:43:18.023Z</time></trkpt><trkpt lat="44.2352963" lon="11.221598"><ele>461.2</ele><time>2026-04-12T11:43:19.023Z</time></trkpt><trkpt lat="44.2351767" lon="11.2215659"><ele>459.80000000000007</ele><time>2026-04-12T11:43:20.023Z</time></trkpt><trkpt lat="44.2350837" lon="11.2215856"><ele>458.40000000000003</ele><time>2026-04-12T11:43:21.023Z</time></trkpt><trkpt lat="44.2350194" lon="11.2216616"><ele>457.0</ele><time>2026-04-12T11:43:22.023Z</time></trkpt><trkpt lat="44.2350011" lon="11.2217737"><ele>457.0</ele><time>2026-04-12T11:43:23.024Z</time></trkpt><trkpt lat="44.2350377" lon="11.2219008"><ele>457.0</ele><time>2026-04-12T11:43:24.023Z</time></trkpt><trkpt lat="44.2351002" lon="11.2220413"><ele>457.0</ele><time>2026-04-12T11:43:25.023Z</time></trkpt><trkpt lat="44.2352455" lon="11.2222125"><ele>457.0</ele><time>2026-04-12T11:43:26.023Z</time></trkpt><trkpt lat="44.2353863" lon="11.2223798"><ele>455.6666666666667</ele><time>2026-04-12T11:43:27.023Z</time></trkpt><trkpt lat="44.2355228" lon="11.2225424"><ele>454.33333333333337</ele><time>2026-04-12T11:43:28.023Z</time></trkpt><trkpt lat="44.2356374" lon="11.2226841"><ele>453.0</ele><time>2026-04-12T11:43:29.024Z</time></trkpt><trkpt lat="44.2357432" lon="11.2227898"><ele>453.0</ele><time>2026-04-12T11:43:30.024Z</time></trkpt><trkpt lat="44.2358544" lon="11.222844"><ele>453.0</ele><time>2026-04-12T11:43:31.023Z</time></trkpt><trkpt lat="44.2359691" lon="11.2228387"><ele>453.0</ele><time>2026-04-12T11:43:32.023Z</time></trkpt><trkpt lat="44.2360829" lon="11.2227753"><ele>453.0</ele><time>2026-04-12T11:43:33.023Z</time></trkpt><trkpt lat="44.2361998" lon="11.2226807"><ele>453.0</ele><time>2026-04-12T11:43:34.023Z</time></trkpt><trkpt lat="44.2363292" lon="11.2226056"><ele>453.0</ele><time>2026-04-12T11:43:35.023Z</time></trkpt><trkpt lat="44.2364719" lon="11.222584"><ele>453.0</ele><time>2026-04-12T11:43:36.024Z</time></trkpt><trkpt lat="44.2366267" lon="11.2226164"><ele>453.0</ele><time>2026-04-12T11:43:37.024Z</time></trkpt><trkpt lat="44.2367861" lon="11.222679"><ele>451.33333333333337</ele><time>2026-04-12T11:43:38.024Z</time></trkpt><trkpt lat="44.2369591" lon="11.2227279"><ele>449.6666666666667</ele><time>2026-04-12T11:43:39.023Z</time></trkpt><trkpt lat="44.237136" lon="11.2227478"><ele>448.0</ele><time>2026-04-12T11:43:40.023Z</time></trkpt><trkpt lat="44.2373055" lon="11.2227442"><ele>445.33333333333337</ele><time>2026-04-12T11:43:41.023Z</time></trkpt><trkpt lat="44.2374665" lon="11.2227215"><ele>442.66666666666663</ele><time>2026-04-12T11:43:42.023Z</time></trkpt><trkpt lat="44.2376236" lon="11.2227013"><ele>440.0</ele><time>2026-04-12T11:43:43.023Z</time></trkpt><trkpt lat="44.2377821" lon="11.2226939"><ele>440.0</ele><time>2026-04-12T11:43:44.023Z</time></trkpt><trkpt lat="44.2379486" lon="11.2226557"><ele>440.0</ele><time>2026-04-12T11:43:45.023Z</time></trkpt><trkpt lat="44.2381248" lon="11.2225655"><ele>440.0</ele><time>2026-04-12T11:43:46.023Z</time></trkpt><trkpt lat="44.2382982" lon="11.2224616"><ele>443.66666666666663</ele><time>2026-04-12T11:43:47.023Z</time></trkpt><trkpt lat="44.2384536" lon="11.222352"><ele>447.33333333333337</ele><time>2026-04-12T11:43:48.024Z</time></trkpt><trkpt lat="44.2386035" lon="11.2222442"><ele>451.0</ele><time>2026-04-12T11:43:49.024Z</time></trkpt><trkpt lat="44.2387427" lon="11.2221282"><ele>451.0</ele><time>2026-04-12T11:43:50.023Z</time></trkpt><trkpt lat="44.2388613" lon="11.2219985"><ele>451.0</ele><time>2026-04-12T11:43:51.023Z</time></trkpt><trkpt lat="44.2389676" lon="11.2218626"><ele>451.0</ele><time>2026-04-12T11:43:52.024Z</time></trkpt><trkpt lat="44.239055" lon="11.221723"><ele>451.0</ele><time>2026-04-12T11:43:53.023Z</time></trkpt><trkpt lat="44.2391649" lon="11.2216119"><ele>448.0</ele><time>2026-04-12T11:43:54.023Z</time></trkpt><trkpt lat="44.2392982" lon="11.221534"><ele>445.0</ele><time>2026-04-12T11:43:55.023Z</time></trkpt><trkpt lat="44.239439" lon="11.2214578"><ele>442.0</ele><time>2026-04-12T11:43:56.023Z</time></trkpt><trkpt lat="44.2395816" lon="11.221369"><ele>442.0</ele><time>2026-04-12T11:43:57.023Z</time></trkpt><trkpt lat="44.2397248" lon="11.2212699"><ele>442.0</ele><time>2026-04-12T11:43:58.023Z</time></trkpt><trkpt lat="44.2398663" lon="11.2211832"><ele>442.0</ele><time>2026-04-12T11:43:59.023Z</time></trkpt><trkpt lat="44.2400017" lon="11.2211021"><ele>442.75</ele><time>2026-04-12T11:44:00.023Z</time></trkpt><trkpt lat="44.2401224" lon="11.2210135"><ele>443.5</ele><time>2026-04-12T11:44:01.023Z</time></trkpt><trkpt lat="44.2402261" lon="11.2209094"><ele>444.25</ele><time>2026-04-12T11:44:02.023Z</time></trkpt><trkpt lat="44.2403086" lon="11.2207785"><ele>445.0</ele><time>2026-04-12T11:44:03.023Z</time></trkpt><trkpt lat="44.2403721" lon="11.2206213"><ele>445.0</ele><time>2026-04-12T11:44:04.025Z</time></trkpt><trkpt lat="44.2404184" lon="11.2204631"><ele>445.0</ele><time>2026-04-12T11:44:05.024Z</time></trkpt><trkpt lat="44.2404553" lon="11.2203257"><ele>445.0</ele><time>2026-04-12T11:44:06.023Z</time></trkpt><trkpt lat="44.2404895" lon="11.2202079"><ele>445.0</ele><time>2026-04-12T11:44:07.023Z</time></trkpt><trkpt lat="44.2405458" lon="11.2201477"><ele>445.0</ele><time>2026-04-12T11:44:08.023Z</time></trkpt><trkpt lat="44.2406165" lon="11.2201281"><ele>441.2</ele><time>2026-04-12T11:44:09.023Z</time></trkpt><trkpt lat="44.2406844" lon="11.2201634"><ele>437.4</ele><time>2026-04-12T11:44:10.023Z</time></trkpt><trkpt lat="44.2407271" lon="11.220251"><ele>433.6</ele><time>2026-04-12T11:44:11.023Z</time></trkpt><trkpt lat="44.2407262" lon="11.2203678"><ele>429.8</ele><time>2026-04-12T11:44:12.023Z</time></trkpt><trkpt lat="44.2406772" lon="11.2205061"><ele>426.0</ele><time>2026-04-12T11:44:13.023Z</time></trkpt><trkpt lat="44.2405939" lon="11.2206514"><ele>426.0</ele><time>2026-04-12T11:44:14.024Z</time></trkpt><trkpt lat="44.2405033" lon="11.220829"><ele>426.0</ele><time>2026-04-12T11:44:15.023Z</time></trkpt><trkpt lat="44.240425" lon="11.2210415"><ele>426.0</ele><time>2026-04-12T11:44:16.023Z</time></trkpt><trkpt lat="44.2403519" lon="11.2212779"><ele>417.66666666666663</ele><time>2026-04-12T11:44:17.024Z</time></trkpt><trkpt lat="44.2402748" lon="11.2215184"><ele>409.3333333333333</ele><time>2026-04-12T11:44:18.023Z</time></trkpt><trkpt lat="44.240188" lon="11.2217506"><ele>401.0</ele><time>2026-04-12T11:44:19.023Z</time></trkpt><trkpt lat="44.2400907" lon="11.2219652"><ele>401.0</ele><time>2026-04-12T11:44:20.023Z</time></trkpt><trkpt lat="44.2399741" lon="11.22216"><ele>401.0</ele><time>2026-04-12T11:44:21.023Z</time></trkpt><trkpt lat="44.2398451" lon="11.2223311"><ele>401.0</ele><time>2026-04-12T11:44:22.024Z</time></trkpt><trkpt lat="44.2397308" lon="11.2224755"><ele>401.75</ele><time>2026-04-12T11:44:23.024Z</time></trkpt><trkpt lat="44.2396395" lon="11.2226011"><ele>402.5</ele><time>2026-04-12T11:44:24.024Z</time></trkpt><trkpt lat="44.2395839" lon="11.2227333"><ele>403.25</ele><time>2026-04-12T11:44:25.024Z</time></trkpt><trkpt lat="44.2395779" lon="11.222876"><ele>404.0</ele><time>2026-04-12T11:44:26.024Z</time></trkpt><trkpt lat="44.2396191" lon="11.2230372"><ele>400.0</ele><time>2026-04-12T11:44:27.024Z</time></trkpt><trkpt lat="44.2396809" lon="11.2232136"><ele>396.0</ele><time>2026-04-12T11:44:28.024Z</time></trkpt><trkpt lat="44.2397386" lon="11.2233692"><ele>392.0</ele><time>2026-04-12T11:44:29.024Z</time></trkpt><trkpt lat="44.2397993" lon="11.2234887"><ele>388.0</ele><time>2026-04-12T11:44:30.024Z</time></trkpt><trkpt lat="44.2398731" lon="11.22356"><ele>386.75</ele><time>2026-04-12T11:44:31.025Z</time></trkpt><trkpt lat="44.2399605" lon="11.2235756"><ele>385.5</ele><time>2026-04-12T11:44:32.024Z</time></trkpt><trkpt lat="44.2400726" lon="11.2235395"><ele>384.25</ele><time>2026-04-12T11:44:33.024Z</time></trkpt><trkpt lat="44.240215" lon="11.2234665"><ele>383.0</ele><time>2026-04-12T11:44:34.024Z</time></trkpt><trkpt lat="44.2403815" lon="11.2233825"><ele>383.0</ele><time>2026-04-12T11:44:35.024Z</time></trkpt><trkpt lat="44.2405501" lon="11.2232958"><ele>383.0</ele><time>2026-04-12T11:44:36.024Z</time></trkpt><trkpt lat="44.2407046" lon="11.2231942"><ele>383.0</ele><time>2026-04-12T11:44:37.025Z</time></trkpt><trkpt lat="44.2408383" lon="11.2230631"><ele>381.75</ele><time>2026-04-12T11:44:38.024Z</time></trkpt><trkpt lat="44.2409495" lon="11.222914"><ele>380.5</ele><time>2026-04-12T11:44:39.024Z</time></trkpt><trkpt lat="44.2410527" lon="11.2227713"><ele>379.25</ele><time>2026-04-12T11:44:40.024Z</time></trkpt><trkpt lat="44.2411662" lon="11.222657"><ele>378.0</ele><time>2026-04-12T11:44:41.024Z</time></trkpt><trkpt lat="44.2412952" lon="11.2225781"><ele>378.0</ele><time>2026-04-12T11:44:42.024Z</time></trkpt><trkpt lat="44.2414345" lon="11.2225387"><ele>378.0</ele><time>2026-04-12T11:44:43.024Z</time></trkpt><trkpt lat="44.2415744" lon="11.2225458"><ele>378.0</ele><time>2026-04-12T11:44:44.024Z</time></trkpt><trkpt lat="44.2417138" lon="11.2226092"><ele>378.0</ele><time>2026-04-12T11:44:45.024Z</time></trkpt><trkpt lat="44.2418635" lon="11.2227157"><ele>376.6666666666667</ele><time>2026-04-12T11:44:46.024Z</time></trkpt><trkpt lat="44.2420382" lon="11.2228172"><ele>375.33333333333337</ele><time>2026-04-12T11:44:47.024Z</time></trkpt><trkpt lat="44.2422357" lon="11.2228921"><ele>374.0</ele><time>2026-04-12T11:44:48.024Z</time></trkpt><trkpt lat="44.242436" lon="11.2229501"><ele>372.6666666666667</ele><time>2026-04-12T11:44:49.024Z</time></trkpt><trkpt lat="44.2426351" lon="11.2229995"><ele>371.3333333333333</ele><time>2026-04-12T11:44:50.024Z</time></trkpt><trkpt lat="44.2428317" lon="11.2230438"><ele>370.0</ele><time>2026-04-12T11:44:51.025Z</time></trkpt><trkpt lat="44.2430206" lon="11.2230844"><ele>370.0</ele><time>2026-04-12T11:44:52.024Z</time></trkpt><trkpt lat="44.2431983" lon="11.2231232"><ele>370.0</ele><time>2026-04-12T11:44:53.024Z</time></trkpt><trkpt lat="44.2433632" lon="11.2231723"><ele>370.0</ele><time>2026-04-12T11:44:54.024Z</time></trkpt><trkpt lat="44.2435085" lon="11.2232539"><ele>370.0</ele><time>2026-04-12T11:44:55.025Z</time></trkpt><trkpt lat="44.2436368" lon="11.2233682"><ele>370.0</ele><time>2026-04-12T11:44:56.024Z</time></trkpt><trkpt lat="44.2437615" lon="11.2234875"><ele>370.0</ele><time>2026-04-12T11:44:57.024Z</time></trkpt><trkpt lat="44.2438959" lon="11.2235775"><ele>370.0</ele><time>2026-04-12T11:44:58.025Z</time></trkpt><trkpt lat="44.244042" lon="11.2236123"><ele>370.0</ele><time>2026-04-12T11:44:59.024Z</time></trkpt><trkpt lat="44.2442017" lon="11.2235932"><ele>370.0</ele><time>2026-04-12T11:45:00.025Z</time></trkpt><trkpt lat="44.2443835" lon="11.2235376"><ele>370.0</ele><time>2026-04-12T11:45:01.024Z</time></trkpt><trkpt lat="44.2445813" lon="11.2234775"><ele>370.0</ele><time>2026-04-12T11:45:02.024Z</time></trkpt><trkpt lat="44.2447737" lon="11.223422"><ele>370.0</ele><time>2026-04-12T11:45:03.024Z</time></trkpt><trkpt lat="44.2449485" lon="11.2233784"><ele>369.66666666666663</ele><time>2026-04-12T11:45:04.024Z</time></trkpt><trkpt lat="44.245105" lon="11.2233574"><ele>369.3333333333333</ele><time>2026-04-12T11:45:05.025Z</time></trkpt><trkpt lat="44.2452498" lon="11.2233703"><ele>369.0</ele><time>2026-04-12T11:45:06.024Z</time></trkpt><trkpt lat="44.2453977" lon="11.2234234"><ele>369.0</ele><time>2026-04-12T11:45:07.024Z</time></trkpt><trkpt lat="44.2455605" lon="11.2234811"><ele>369.0</ele><time>2026-04-12T11:45:08.024Z</time></trkpt><trkpt lat="44.2457526" lon="11.2235206"><ele>369.0</ele><time>2026-04-12T11:45:09.024Z</time></trkpt><trkpt lat="44.2459596" lon="11.223533"><ele>368.6666666666667</ele><time>2026-04-12T11:45:10.025Z</time></trkpt><trkpt lat="44.2461665" lon="11.2235183"><ele>368.33333333333337</ele><time>2026-04-12T11:45:11.024Z</time></trkpt><trkpt lat="44.2463688" lon="11.223492"><ele>368.0</ele><time>2026-04-12T11:45:12.024Z</time></trkpt><trkpt lat="44.2465625" lon="11.223461"><ele>369.0</ele><time>2026-04-12T11:45:13.024Z</time></trkpt><trkpt lat="44.2467493" lon="11.2234326"><ele>370.0</ele><time>2026-04-12T11:45:14.024Z</time></trkpt><trkpt lat="44.2469129" lon="11.223391"><ele>371.0</ele><time>2026-04-12T11:45:15.024Z</time></trkpt><trkpt lat="44.2470704" lon="11.223324"><ele>371.0</ele><time>2026-04-12T11:45:16.025Z</time></trkpt><trkpt lat="44.2472146" lon="11.2232492"><ele>371.0</ele><time>2026-04-12T11:45:17.024Z</time></trkpt><trkpt lat="44.2473406" lon="11.2231865"><ele>371.0</ele><time>2026-04-12T11:45:18.024Z</time></trkpt><trkpt lat="44.2474488" lon="11.2231542"><ele>371.0</ele><time>2026-04-12T11:45:19.024Z</time></trkpt><trkpt lat="44.2475413" lon="11.2231665"><ele>370.5</ele><time>2026-04-12T11:45:20.024Z</time></trkpt><trkpt lat="44.2476165" lon="11.2232297"><ele>370.0</ele><time>2026-04-12T11:45:21.024Z</time></trkpt><trkpt lat="44.2476771" lon="11.2233521"><ele>369.5</ele><time>2026-04-12T11:45:22.025Z</time></trkpt><trkpt lat="44.2477365" lon="11.22351"><ele>369.0</ele><time>2026-04-12T11:45:23.024Z</time></trkpt><trkpt lat="44.2477742" lon="11.223729"><ele>369.0</ele><time>2026-04-12T11:45:24.024Z</time></trkpt><trkpt lat="44.2478066" lon="11.2239257"><ele>369.0</ele><time>2026-04-12T11:45:25.026Z</time></trkpt><trkpt lat="44.2478438" lon="11.2240885"><ele>369.0</ele><time>2026-04-12T11:45:26.025Z</time></trkpt><trkpt lat="44.2478984" lon="11.2242228"><ele>369.0</ele><time>2026-04-12T11:45:27.024Z</time></trkpt><trkpt lat="44.2479727" lon="11.224318"><ele>368.5</ele><time>2026-04-12T11:45:28.024Z</time></trkpt><trkpt lat="44.2480681" lon="11.224363"><ele>368.0</ele><time>2026-04-12T11:45:29.024Z</time></trkpt><trkpt lat="44.2481762" lon="11.2243477"><ele>367.5</ele><time>2026-04-12T11:45:30.025Z</time></trkpt><trkpt lat="44.248288" lon="11.2242697"><ele>367.0</ele><time>2026-04-12T11:45:31.026Z</time></trkpt><trkpt lat="44.2484119" lon="11.2241585"><ele>367.0</ele><time>2026-04-12T11:45:32.024Z</time></trkpt><trkpt lat="44.2485579" lon="11.2240632"><ele>367.0</ele><time>2026-04-12T11:45:33.025Z</time></trkpt><trkpt lat="44.2487336" lon="11.2239956"><ele>367.0</ele><time>2026-04-12T11:45:34.024Z</time></trkpt><trkpt lat="44.2489258" lon="11.2239517"><ele>362.0</ele><time>2026-04-12T11:45:35.026Z</time></trkpt><trkpt lat="44.249112" lon="11.2239198"><ele>357.0</ele><time>2026-04-12T11:45:36.024Z</time></trkpt><trkpt lat="44.2492849" lon="11.2238995"><ele>352.0</ele><time>2026-04-12T11:45:37.024Z</time></trkpt><trkpt lat="44.2494472" lon="11.2239046"><ele>352.0</ele><time>2026-04-12T11:45:38.024Z</time></trkpt><trkpt lat="44.249604" lon="11.2239419"><ele>352.0</ele><time>2026-04-12T11:45:39.025Z</time></trkpt><trkpt lat="44.249758" lon="11.2240158"><ele>352.0</ele><time>2026-04-12T11:45:40.024Z</time></trkpt><trkpt lat="44.2499024" lon="11.2241317"><ele>355.3333333333333</ele><time>2026-04-12T11:45:41.024Z</time></trkpt><trkpt lat="44.2500308" lon="11.2242807"><ele>358.6666666666667</ele><time>2026-04-12T11:45:42.025Z</time></trkpt><trkpt lat="44.2501407" lon="11.2244285"><ele>362.0</ele><time>2026-04-12T11:45:43.025Z</time></trkpt><trkpt lat="44.2502454" lon="11.224552"><ele>362.0</ele><time>2026-04-12T11:45:44.024Z</time></trkpt><trkpt lat="44.2503601" lon="11.2246294"><ele>362.0</ele><time>2026-04-12T11:45:45.024Z</time></trkpt><trkpt lat="44.2504798" lon="11.2246762"><ele>362.0</ele><time>2026-04-12T11:45:46.024Z</time></trkpt><trkpt lat="44.2506333" lon="11.2246454"><ele>362.0</ele><time>2026-04-12T11:45:47.024Z</time></trkpt><trkpt lat="44.2507731" lon="11.2245904"><ele>362.5</ele><time>2026-04-12T11:45:48.025Z</time></trkpt><trkpt lat="44.2508836" lon="11.2245024"><ele>363.0</ele><time>2026-04-12T11:45:49.025Z</time></trkpt><trkpt lat="44.2509602" lon="11.2243722"><ele>363.5</ele><time>2026-04-12T11:45:50.025Z</time></trkpt><trkpt lat="44.2510015" lon="11.2241916"><ele>364.0</ele><time>2026-04-12T11:45:51.025Z</time></trkpt><trkpt lat="44.2510305" lon="11.2239847"><ele>363.3333333333333</ele><time>2026-04-12T11:45:52.025Z</time></trkpt><trkpt lat="44.2510105" lon="11.2237433"><ele>362.6666666666667</ele><time>2026-04-12T11:45:53.025Z</time></trkpt><trkpt lat="44.2510095" lon="11.2235319"><ele>362.0</ele><time>2026-04-12T11:45:54.026Z</time></trkpt><trkpt lat="44.251042" lon="11.2233376"><ele>362.0</ele><time>2026-04-12T11:45:55.025Z</time></trkpt><trkpt lat="44.2511096" lon="11.2231611"><ele>362.0</ele><time>2026-04-12T11:45:56.025Z</time></trkpt><trkpt lat="44.2512097" lon="11.2230128"><ele>362.0</ele><time>2026-04-12T11:45:57.025Z</time></trkpt><trkpt lat="44.251339" lon="11.2229105"><ele>362.0</ele><time>2026-04-12T11:45:58.025Z</time></trkpt><trkpt lat="44.2514924" lon="11.2228667"><ele>358.0</ele><time>2026-04-12T11:45:59.025Z</time></trkpt><trkpt lat="44.2516539" lon="11.2228884"><ele>354.0</ele><time>2026-04-12T11:46:00.026Z</time></trkpt><trkpt lat="44.2518141" lon="11.2229701"><ele>350.0</ele><time>2026-04-12T11:46:01.025Z</time></trkpt><trkpt lat="44.2519605" lon="11.2230824"><ele>357.33333333333337</ele><time>2026-04-12T11:46:02.026Z</time></trkpt><trkpt lat="44.2520848" lon="11.2232253"><ele>364.6666666666667</ele><time>2026-04-12T11:46:03.025Z</time></trkpt><trkpt lat="44.2521864" lon="11.2234066"><ele>372.0</ele><time>2026-04-12T11:46:04.025Z</time></trkpt><trkpt lat="44.2522641" lon="11.2235905"><ele>368.5</ele><time>2026-04-12T11:46:05.025Z</time></trkpt><trkpt lat="44.2523398" lon="11.2237383"><ele>365.0</ele><time>2026-04-12T11:46:06.025Z</time></trkpt><trkpt lat="44.2524357" lon="11.2238375"><ele>361.5</ele><time>2026-04-12T11:46:07.026Z</time></trkpt><trkpt lat="44.2525516" lon="11.2238763"><ele>358.0</ele><time>2026-04-12T11:46:08.026Z</time></trkpt><trkpt lat="44.2526765" lon="11.2238912"><ele>358.0</ele><time>2026-04-12T11:46:09.025Z</time></trkpt><trkpt lat="44.2528213" lon="11.2237943"><ele>358.0</ele><time>2026-04-12T11:46:10.025Z</time></trkpt><trkpt lat="44.2529549" lon="11.2236697"><ele>358.0</ele><time>2026-04-12T11:46:11.025Z</time></trkpt><trkpt lat="44.2530659" lon="11.2235176"><ele>358.25</ele><time>2026-04-12T11:46:12.025Z</time></trkpt><trkpt lat="44.2531592" lon="11.2233701"><ele>358.5</ele><time>2026-04-12T11:46:13.025Z</time></trkpt><trkpt lat="44.2532566" lon="11.2232549"><ele>358.75</ele><time>2026-04-12T11:46:14.025Z</time></trkpt><trkpt lat="44.2533645" lon="11.2231814"><ele>359.0</ele><time>2026-04-12T11:46:15.025Z</time></trkpt><trkpt lat="44.2534811" lon="11.2231639"><ele>359.0</ele><time>2026-04-12T11:46:16.025Z</time></trkpt><trkpt lat="44.2536131" lon="11.2231991"><ele>359.0</ele><time>2026-04-12T11:46:17.025Z</time></trkpt><trkpt lat="44.2537542" lon="11.2232458"><ele>359.0</ele><time>2026-04-12T11:46:18.025Z</time></trkpt><trkpt lat="44.2539011" lon="11.2232703"><ele>359.0</ele><time>2026-04-12T11:46:19.025Z</time></trkpt><trkpt lat="44.2540539" lon="11.2232163"><ele>353.33333333333337</ele><time>2026-04-12T11:46:20.026Z</time></trkpt><trkpt lat="44.2541821" lon="11.2230729"><ele>347.6666666666667</ele><time>2026-04-12T11:46:21.025Z</time></trkpt><trkpt lat="44.2542899" lon="11.2229289"><ele>342.0</ele><time>2026-04-12T11:46:22.025Z</time></trkpt><trkpt lat="44.2544018" lon="11.2228186"><ele>342.0</ele><time>2026-04-12T11:46:23.025Z</time></trkpt><trkpt lat="44.2545337" lon="11.2227552"><ele>342.0</ele><time>2026-04-12T11:46:24.025Z</time></trkpt><trkpt lat="44.2546739" lon="11.2227014"><ele>342.0</ele><time>2026-04-12T11:46:25.025Z</time></trkpt><trkpt lat="44.2548107" lon="11.222605"><ele>342.0</ele><time>2026-04-12T11:46:26.026Z</time></trkpt><trkpt lat="44.2549308" lon="11.2224663"><ele>343.75</ele><time>2026-04-12T11:46:27.026Z</time></trkpt><trkpt lat="44.2550471" lon="11.222344"><ele>345.5</ele><time>2026-04-12T11:46:28.025Z</time></trkpt><trkpt lat="44.2551759" lon="11.2222533"><ele>347.25</ele><time>2026-04-12T11:46:29.026Z</time></trkpt><trkpt lat="44.255321" lon="11.2221984"><ele>349.0</ele><time>2026-04-12T11:46:30.025Z</time></trkpt><trkpt lat="44.2554796" lon="11.2221701"><ele>341.0</ele><time>2026-04-12T11:46:31.025Z</time></trkpt><trkpt lat="44.2556502" lon="11.2221536"><ele>333.0</ele><time>2026-04-12T11:46:32.026Z</time></trkpt><trkpt lat="44.2558218" lon="11.2221377"><ele>325.0</ele><time>2026-04-12T11:46:33.025Z</time></trkpt><trkpt lat="44.2559823" lon="11.2221377"><ele>325.0</ele><time>2026-04-12T11:46:34.025Z</time></trkpt><trkpt lat="44.2561291" lon="11.222172"><ele>325.0</ele><time>2026-04-12T11:46:35.025Z</time></trkpt><trkpt lat="44.2562639" lon="11.2222438"><ele>325.0</ele><time>2026-04-12T11:46:36.026Z</time></trkpt><trkpt lat="44.2563934" lon="11.2223589"><ele>325.0</ele><time>2026-04-12T11:46:37.026Z</time></trkpt><trkpt lat="44.2565249" lon="11.2225062"><ele>328.75</ele><time>2026-04-12T11:46:38.025Z</time></trkpt><trkpt lat="44.2566475" lon="11.2226554"><ele>332.5</ele><time>2026-04-12T11:46:39.025Z</time></trkpt><trkpt lat="44.2567588" lon="11.2227898"><ele>336.25</ele><time>2026-04-12T11:46:40.025Z</time></trkpt><trkpt lat="44.2568718" lon="11.2228927"><ele>340.0</ele><time>2026-04-12T11:46:41.025Z</time></trkpt><trkpt lat="44.2569958" lon="11.2229502"><ele>340.0</ele><time>2026-04-12T11:46:42.025Z</time></trkpt><trkpt lat="44.2571285" lon="11.2229587"><ele>340.0</ele><time>2026-04-12T11:46:43.026Z</time></trkpt><trkpt lat="44.2572672" lon="11.2229206"><ele>340.0</ele><time>2026-04-12T11:46:44.025Z</time></trkpt><trkpt lat="44.2574114" lon="11.2228421"><ele>340.0</ele><time>2026-04-12T11:46:45.026Z</time></trkpt><trkpt lat="44.2575508" lon="11.2227533"><ele>337.0</ele><time>2026-04-12T11:46:46.025Z</time></trkpt><trkpt lat="44.2576929" lon="11.2226872"><ele>334.0</ele><time>2026-04-12T11:46:47.026Z</time></trkpt><trkpt lat="44.2578554" lon="11.2226541"><ele>331.0</ele><time>2026-04-12T11:46:48.025Z</time></trkpt><trkpt lat="44.2580442" lon="11.2226536"><ele>330.3333333333333</ele><time>2026-04-12T11:46:49.025Z</time></trkpt><trkpt lat="44.2582547" lon="11.2226291"><ele>329.6666666666667</ele><time>2026-04-12T11:46:50.025Z</time></trkpt><trkpt lat="44.2584642" lon="11.2225587"><ele>329.0</ele><time>2026-04-12T11:46:51.025Z</time></trkpt><trkpt lat="44.2586494" lon="11.2224712"><ele>329.0</ele><time>2026-04-12T11:46:52.025Z</time></trkpt><trkpt lat="44.2588067" lon="11.2223833"><ele>329.0</ele><time>2026-04-12T11:46:53.025Z</time></trkpt><trkpt lat="44.2589318" lon="11.2222794"><ele>329.0</ele><time>2026-04-12T11:46:54.026Z</time></trkpt><trkpt lat="44.2590277" lon="11.2221437"><ele>327.33333333333337</ele><time>2026-04-12T11:46:55.025Z</time></trkpt><trkpt lat="44.2591168" lon="11.2219859"><ele>325.6666666666667</ele><time>2026-04-12T11:46:56.026Z</time></trkpt><trkpt lat="44.2591777" lon="11.2217729"><ele>324.0</ele><time>2026-04-12T11:46:57.026Z</time></trkpt><trkpt lat="44.2592399" lon="11.2215793"><ele>321.0</ele><time>2026-04-12T11:46:58.025Z</time></trkpt><trkpt lat="44.2593166" lon="11.2214111"><ele>318.0</ele><time>2026-04-12T11:46:59.026Z</time></trkpt><trkpt lat="44.2593981" lon="11.2212568"><ele>315.0</ele><time>2026-04-12T11:47:00.026Z</time></trkpt><trkpt lat="44.2595068" lon="11.2211201"><ele>312.0</ele><time>2026-04-12T11:47:01.026Z</time></trkpt><trkpt lat="44.2596285" lon="11.2210024"><ele>312.0</ele><time>2026-04-12T11:47:02.026Z</time></trkpt><trkpt lat="44.2597585" lon="11.2209028"><ele>312.0</ele><time>2026-04-12T11:47:03.025Z</time></trkpt><trkpt lat="44.2598806" lon="11.2208208"><ele>312.0</ele><time>2026-04-12T11:47:04.025Z</time></trkpt><trkpt lat="44.2599897" lon="11.2207493"><ele>312.0</ele><time>2026-04-12T11:47:05.025Z</time></trkpt><trkpt lat="44.2600809" lon="11.2206734"><ele>312.75</ele><time>2026-04-12T11:47:06.025Z</time></trkpt><trkpt lat="44.260141" lon="11.2205604"><ele>313.5</ele><time>2026-04-12T11:47:07.025Z</time></trkpt><trkpt lat="44.260161" lon="11.2204097"><ele>314.25</ele><time>2026-04-12T11:47:08.025Z</time></trkpt><trkpt lat="44.2601378" lon="11.2202441"><ele>315.0</ele><time>2026-04-12T11:47:09.025Z</time></trkpt><trkpt lat="44.2600757" lon="11.2200727"><ele>315.0</ele><time>2026-04-12T11:47:10.025Z</time></trkpt><trkpt lat="44.2599905" lon="11.2199163"><ele>315.0</ele><time>2026-04-12T11:47:11.026Z</time></trkpt><trkpt lat="44.259914" lon="11.2197778"><ele>315.0</ele><time>2026-04-12T11:47:12.026Z</time></trkpt><trkpt lat="44.2598665" lon="11.2196471"><ele>315.0</ele><time>2026-04-12T11:47:13.026Z</time></trkpt><trkpt lat="44.2598592" lon="11.2195238"><ele>312.25</ele><time>2026-04-12T11:47:14.027Z</time></trkpt><trkpt lat="44.2599013" lon="11.2194051"><ele>309.5</ele><time>2026-04-12T11:47:15.026Z</time></trkpt><trkpt lat="44.26" lon="11.2192852"><ele>306.75</ele><time>2026-04-12T11:47:16.026Z</time></trkpt><trkpt lat="44.2601418" lon="11.2191597"><ele>304.0</ele><time>2026-04-12T11:47:17.026Z</time></trkpt><trkpt lat="44.2602954" lon="11.2190315"><ele>302.3333333333333</ele><time>2026-04-12T11:47:18.027Z</time></trkpt><trkpt lat="44.2604551" lon="11.2188998"><ele>300.6666666666667</ele><time>2026-04-12T11:47:19.026Z</time></trkpt><trkpt lat="44.2606176" lon="11.2187728"><ele>299.0</ele><time>2026-04-12T11:47:20.026Z</time></trkpt><trkpt lat="44.2607827" lon="11.2186529"><ele>299.0</ele><time>2026-04-12T11:47:21.026Z</time></trkpt><trkpt lat="44.26095" lon="11.2185215"><ele>299.0</ele><time>2026-04-12T11:47:22.026Z</time></trkpt><trkpt lat="44.2611157" lon="11.2183499"><ele>299.0</ele><time>2026-04-12T11:47:23.027Z</time></trkpt><trkpt lat="44.261279" lon="11.2181442"><ele>296.5</ele><time>2026-04-12T11:47:24.026Z</time></trkpt><trkpt lat="44.2614501" lon="11.2179334"><ele>294.0</ele><time>2026-04-12T11:47:25.026Z</time></trkpt><trkpt lat="44.2616236" lon="11.2177367"><ele>294.0</ele><time>2026-04-12T11:47:26.026Z</time></trkpt><trkpt lat="44.2617876" lon="11.2175561"><ele>294.0</ele><time>2026-04-12T11:47:27.026Z</time></trkpt><trkpt lat="44.2619359" lon="11.2173921"><ele>294.0</ele><time>2026-04-12T11:47:28.026Z</time></trkpt><trkpt lat="44.262076" lon="11.2172539"><ele>292.3333333333333</ele><time>2026-04-12T11:47:29.026Z</time></trkpt><trkpt lat="44.2622125" lon="11.2171335"><ele>290.66666666666663</ele><time>2026-04-12T11:47:30.027Z</time></trkpt><trkpt lat="44.2623531" lon="11.2170296"><ele>289.0</ele><time>2026-04-12T11:47:31.026Z</time></trkpt><trkpt lat="44.2625009" lon="11.2169611"><ele>289.0</ele><time>2026-04-12T11:47:32.026Z</time></trkpt><trkpt lat="44.262657" lon="11.216914"><ele>289.0</ele><time>2026-04-12T11:47:33.027Z</time></trkpt><trkpt lat="44.2628128" lon="11.2168681"><ele>289.0</ele><time>2026-04-12T11:47:34.026Z</time></trkpt><trkpt lat="44.2629712" lon="11.2168092"><ele>289.66666666666663</ele><time>2026-04-12T11:47:35.027Z</time></trkpt><trkpt lat="44.2631336" lon="11.2167238"><ele>290.3333333333333</ele><time>2026-04-12T11:47:36.026Z</time></trkpt><trkpt lat="44.2632919" lon="11.2166094"><ele>291.0</ele><time>2026-04-12T11:47:37.026Z</time></trkpt><trkpt lat="44.2634462" lon="11.2164887"><ele>288.3333333333333</ele><time>2026-04-12T11:47:38.026Z</time></trkpt><trkpt lat="44.2635945" lon="11.2163415"><ele>285.66666666666663</ele><time>2026-04-12T11:47:39.026Z</time></trkpt><trkpt lat="44.2637402" lon="11.2161891"><ele>283.0</ele><time>2026-04-12T11:47:40.026Z</time></trkpt><trkpt lat="44.2638792" lon="11.2160275"><ele>282.0</ele><time>2026-04-12T11:47:41.026Z</time></trkpt><trkpt lat="44.2640264" lon="11.2158651"><ele>281.0</ele><time>2026-04-12T11:47:42.027Z</time></trkpt><trkpt lat="44.2641931" lon="11.2157306"><ele>280.0</ele><time>2026-04-12T11:47:43.026Z</time></trkpt><trkpt lat="44.2643713" lon="11.2156062"><ele>280.0</ele><time>2026-04-12T11:47:44.026Z</time></trkpt><trkpt lat="44.2645489" lon="11.2154905"><ele>280.0</ele><time>2026-04-12T11:47:45.028Z</time></trkpt><trkpt lat="44.264707" lon="11.2153583"><ele>280.0</ele><time>2026-04-12T11:47:46.026Z</time></trkpt><trkpt lat="44.2648336" lon="11.2151868"><ele>280.3333333333333</ele><time>2026-04-12T11:47:47.026Z</time></trkpt><trkpt lat="44.2649293" lon="11.2150012"><ele>280.6666666666667</ele><time>2026-04-12T11:47:48.026Z</time></trkpt><trkpt lat="44.2650273" lon="11.2148383"><ele>281.0</ele><time>2026-04-12T11:47:49.027Z</time></trkpt><trkpt lat="44.265145" lon="11.2147042"><ele>281.0</ele><time>2026-04-12T11:47:50.026Z</time></trkpt><trkpt lat="44.2652988" lon="11.2146119"><ele>281.0</ele><time>2026-04-12T11:47:51.026Z</time></trkpt><trkpt lat="44.2654904" lon="11.2145378"><ele>281.0</ele><time>2026-04-12T11:47:52.026Z</time></trkpt><trkpt lat="44.2656785" lon="11.2144642"><ele>285.0</ele><time>2026-04-12T11:47:53.026Z</time></trkpt><trkpt lat="44.2658685" lon="11.2143602"><ele>289.0</ele><time>2026-04-12T11:47:54.027Z</time></trkpt><trkpt lat="44.2660378" lon="11.2142309"><ele>293.0</ele><time>2026-04-12T11:47:55.026Z</time></trkpt><trkpt lat="44.2661781" lon="11.2140765"><ele>291.33333333333337</ele><time>2026-04-12T11:47:56.026Z</time></trkpt><trkpt lat="44.2663022" lon="11.2139348"><ele>289.6666666666667</ele><time>2026-04-12T11:47:57.027Z</time></trkpt><trkpt lat="44.2664301" lon="11.2138341"><ele>288.0</ele><time>2026-04-12T11:47:58.026Z</time></trkpt><trkpt lat="44.2665681" lon="11.2137777"><ele>288.0</ele><time>2026-04-12T11:47:59.026Z</time></trkpt><trkpt lat="44.2667013" lon="11.2137319"><ele>288.0</ele><time>2026-04-12T11:48:00.026Z</time></trkpt><trkpt lat="44.2668236" lon="11.2136269"><ele>288.0</ele><time>2026-04-12T11:48:01.026Z</time></trkpt><trkpt lat="44.266931" lon="11.2134782"><ele>288.0</ele><time>2026-04-12T11:48:02.026Z</time></trkpt><trkpt lat="44.2670423" lon="11.2133335"><ele>288.0</ele><time>2026-04-12T11:48:03.027Z</time></trkpt><trkpt lat="44.2671542" lon="11.2132313"><ele>288.0</ele><time>2026-04-12T11:48:04.026Z</time></trkpt><trkpt lat="44.267302" lon="11.2131992"><ele>288.0</ele><time>2026-04-12T11:48:05.026Z</time></trkpt><trkpt lat="44.2674566" lon="11.2131738"><ele>288.0</ele><time>2026-04-12T11:48:06.026Z</time></trkpt><trkpt lat="44.2676112" lon="11.2131114"><ele>286.3333333333333</ele><time>2026-04-12T11:48:07.026Z</time></trkpt><trkpt lat="44.2677667" lon="11.2129787"><ele>284.66666666666663</ele><time>2026-04-12T11:48:08.027Z</time></trkpt><trkpt lat="44.2679154" lon="11.2128023"><ele>283.0</ele><time>2026-04-12T11:48:09.026Z</time></trkpt><trkpt lat="44.2680768" lon="11.2126131"><ele>285.3333333333333</ele><time>2026-04-12T11:48:10.026Z</time></trkpt><trkpt lat="44.2682536" lon="11.2124443"><ele>287.6666666666667</ele><time>2026-04-12T11:48:11.026Z</time></trkpt><trkpt lat="44.2684521" lon="11.2122935"><ele>290.0</ele><time>2026-04-12T11:48:12.026Z</time></trkpt><trkpt lat="44.2686491" lon="11.2121389"><ele>290.0</ele><time>2026-04-12T11:48:13.026Z</time></trkpt><trkpt lat="44.2688342" lon="11.2119973"><ele>290.0</ele><time>2026-04-12T11:48:14.026Z</time></trkpt><trkpt lat="44.2689977" lon="11.21186"><ele>290.0</ele><time>2026-04-12T11:48:15.026Z</time></trkpt><trkpt lat="44.2691443" lon="11.2117244"><ele>289.6666666666667</ele><time>2026-04-12T11:48:16.026Z</time></trkpt><trkpt lat="44.2692804" lon="11.2116019"><ele>289.3333333333333</ele><time>2026-04-12T11:48:17.026Z</time></trkpt><trkpt lat="44.2694041" lon="11.21147"><ele>289.0</ele><time>2026-04-12T11:48:18.026Z</time></trkpt><trkpt lat="44.2695012" lon="11.2113113"><ele>289.0</ele><time>2026-04-12T11:48:19.027Z</time></trkpt><trkpt lat="44.2695727" lon="11.2111079"><ele>289.0</ele><time>2026-04-12T11:48:20.026Z</time></trkpt><trkpt lat="44.2696217" lon="11.2109033"><ele>289.0</ele><time>2026-04-12T11:48:21.026Z</time></trkpt><trkpt lat="44.2696704" lon="11.2107273"><ele>289.5</ele><time>2026-04-12T11:48:22.026Z</time></trkpt><trkpt lat="44.2697324" lon="11.2105607"><ele>290.0</ele><time>2026-04-12T11:48:23.026Z</time></trkpt><trkpt lat="44.2698262" lon="11.2104208"><ele>290.5</ele><time>2026-04-12T11:48:24.026Z</time></trkpt><trkpt lat="44.2699496" lon="11.2103232"><ele>291.0</ele><time>2026-04-12T11:48:25.026Z</time></trkpt><trkpt lat="44.2700822" lon="11.2102829"><ele>291.0</ele><time>2026-04-12T11:48:26.026Z</time></trkpt><trkpt lat="44.2702237" lon="11.2102976"><ele>291.0</ele><time>2026-04-12T11:48:27.027Z</time></trkpt><trkpt lat="44.2703709" lon="11.2103507"><ele>291.0</ele><time>2026-04-12T11:48:28.026Z</time></trkpt><trkpt lat="44.2705093" lon="11.2103613"><ele>291.0</ele><time>2026-04-12T11:48:29.026Z</time></trkpt><trkpt lat="44.2706506" lon="11.2103023"><ele>294.0</ele><time>2026-04-12T11:48:30.027Z</time></trkpt><trkpt lat="44.2708028" lon="11.2101801"><ele>297.0</ele><time>2026-04-12T11:48:31.026Z</time></trkpt><trkpt lat="44.2709728" lon="11.2100441"><ele>300.0</ele><time>2026-04-12T11:48:32.026Z</time></trkpt><trkpt lat="44.2711477" lon="11.2098821"><ele>299.0</ele><time>2026-04-12T11:48:33.027Z</time></trkpt><trkpt lat="44.2713347" lon="11.2097189"><ele>298.0</ele><time>2026-04-12T11:48:34.026Z</time></trkpt><trkpt lat="44.2715181" lon="11.2095475"><ele>297.0</ele><time>2026-04-12T11:48:35.027Z</time></trkpt><trkpt lat="44.2716898" lon="11.2093901"><ele>297.0</ele><time>2026-04-12T11:48:36.026Z</time></trkpt><trkpt lat="44.2718526" lon="11.2092357"><ele>297.0</ele><time>2026-04-12T11:48:37.026Z</time></trkpt><trkpt lat="44.2720027" lon="11.2090687"><ele>297.0</ele><time>2026-04-12T11:48:38.027Z</time></trkpt><trkpt lat="44.2721345" lon="11.2088655"><ele>297.0</ele><time>2026-04-12T11:48:39.027Z</time></trkpt><trkpt lat="44.272256" lon="11.208645"><ele>297.0</ele><time>2026-04-12T11:48:40.027Z</time></trkpt><trkpt lat="44.2723854" lon="11.2084145"><ele>297.0</ele><time>2026-04-12T11:48:41.027Z</time></trkpt><trkpt lat="44.2725265" lon="11.2081848"><ele>293.0</ele><time>2026-04-12T11:48:42.027Z</time></trkpt><trkpt lat="44.2726621" lon="11.2079403"><ele>289.0</ele><time>2026-04-12T11:48:43.027Z</time></trkpt><trkpt lat="44.2727914" lon="11.2077074"><ele>285.0</ele><time>2026-04-12T11:48:44.027Z</time></trkpt><trkpt lat="44.2729079" lon="11.207477"><ele>286.3333333333333</ele><time>2026-04-12T11:48:45.027Z</time></trkpt><trkpt lat="44.2730038" lon="11.2072373"><ele>287.66666666666663</ele><time>2026-04-12T11:48:46.028Z</time></trkpt><trkpt lat="44.2730893" lon="11.2070225"><ele>289.0</ele><time>2026-04-12T11:48:47.028Z</time></trkpt><trkpt lat="44.2731857" lon="11.206836"><ele>289.0</ele><time>2026-04-12T11:48:48.027Z</time></trkpt><trkpt lat="44.2732897" lon="11.2066603"><ele>289.0</ele><time>2026-04-12T11:48:49.027Z</time></trkpt><trkpt lat="44.2734047" lon="11.2065184"><ele>289.0</ele><time>2026-04-12T11:48:50.027Z</time></trkpt><trkpt lat="44.2735324" lon="11.2064101"><ele>285.66666666666663</ele><time>2026-04-12T11:48:51.027Z</time></trkpt><trkpt lat="44.2736787" lon="11.2063286"><ele>282.3333333333333</ele><time>2026-04-12T11:48:52.027Z</time></trkpt><trkpt lat="44.273843" lon="11.2062728"><ele>279.0</ele><time>2026-04-12T11:48:53.028Z</time></trkpt><trkpt lat="44.2740217" lon="11.2062378"><ele>279.0</ele><time>2026-04-12T11:48:54.027Z</time></trkpt><trkpt lat="44.2742022" lon="11.2062159"><ele>279.0</ele><time>2026-04-12T11:48:55.027Z</time></trkpt><trkpt lat="44.2743747" lon="11.2061901"><ele>279.0</ele><time>2026-04-12T11:48:56.028Z</time></trkpt><trkpt lat="44.2745406" lon="11.2061428"><ele>279.0</ele><time>2026-04-12T11:48:57.027Z</time></trkpt><trkpt lat="44.2746909" lon="11.2060782"><ele>279.0</ele><time>2026-04-12T11:48:58.028Z</time></trkpt><trkpt lat="44.2748247" lon="11.2059855"><ele>279.0</ele><time>2026-04-12T11:48:59.028Z</time></trkpt><trkpt lat="44.2749446" lon="11.2058789"><ele>279.0</ele><time>2026-04-12T11:49:00.027Z</time></trkpt><trkpt lat="44.2750533" lon="11.2057504"><ele>279.0</ele><time>2026-04-12T11:49:01.027Z</time></trkpt><trkpt lat="44.2751495" lon="11.2055799"><ele>279.0</ele><time>2026-04-12T11:49:02.027Z</time></trkpt><trkpt lat="44.2752334" lon="11.2053715"><ele>279.0</ele><time>2026-04-12T11:49:03.028Z</time></trkpt><trkpt lat="44.2753045" lon="11.2051545"><ele>279.0</ele><time>2026-04-12T11:49:04.028Z</time></trkpt><trkpt lat="44.2753555" lon="11.2049503"><ele>279.0</ele><time>2026-04-12T11:49:05.027Z</time></trkpt><trkpt lat="44.2754259" lon="11.2047734"><ele>279.0</ele><time>2026-04-12T11:49:06.027Z</time></trkpt><trkpt lat="44.2755269" lon="11.2046189"><ele>281.6666666666667</ele><time>2026-04-12T11:49:07.027Z</time></trkpt><trkpt lat="44.2756594" lon="11.2044439"><ele>284.33333333333337</ele><time>2026-04-12T11:49:08.027Z</time></trkpt><trkpt lat="44.2758095" lon="11.2042303"><ele>287.0</ele><time>2026-04-12T11:49:09.028Z</time></trkpt><trkpt lat="44.2759497" lon="11.203995"><ele>281.0</ele><time>2026-04-12T11:49:10.027Z</time></trkpt><trkpt lat="44.2760726" lon="11.2037746"><ele>275.0</ele><time>2026-04-12T11:49:11.027Z</time></trkpt><trkpt lat="44.2761794" lon="11.2035701"><ele>269.0</ele><time>2026-04-12T11:49:12.027Z</time></trkpt><trkpt lat="44.2762755" lon="11.2033806"><ele>269.0</ele><time>2026-04-12T11:49:13.027Z</time></trkpt><trkpt lat="44.2763611" lon="11.2032029"><ele>269.0</ele><time>2026-04-12T11:49:14.027Z</time></trkpt><trkpt lat="44.2764328" lon="11.2030418"><ele>269.0</ele><time>2026-04-12T11:49:15.028Z</time></trkpt><trkpt lat="44.2764989" lon="11.2028953"><ele>269.0</ele><time>2026-04-12T11:49:16.028Z</time></trkpt><trkpt lat="44.2765617" lon="11.2027637"><ele>269.8</ele><time>2026-04-12T11:49:17.027Z</time></trkpt><trkpt lat="44.2766174" lon="11.2026311"><ele>270.59999999999997</ele><time>2026-04-12T11:49:18.027Z</time></trkpt><trkpt lat="44.2766664" lon="11.2025105"><ele>271.4</ele><time>2026-04-12T11:49:19.028Z</time></trkpt><trkpt lat="44.276689" lon="11.2023849"><ele>272.2</ele><time>2026-04-12T11:49:20.027Z</time></trkpt><trkpt lat="44.2766646" lon="11.2022787"><ele>273.0</ele><time>2026-04-12T11:49:21.027Z</time></trkpt><trkpt lat="44.2766005" lon="11.2022206"><ele>273.0</ele><time>2026-04-12T11:49:22.027Z</time></trkpt><trkpt lat="44.2765184" lon="11.2022217"><ele>273.0</ele><time>2026-04-12T11:49:23.027Z</time></trkpt><trkpt lat="44.2764522" lon="11.202299"><ele>273.0</ele><time>2026-04-12T11:49:24.027Z</time></trkpt><trkpt lat="44.2764077" lon="11.2024306"><ele>273.0</ele><time>2026-04-12T11:49:25.027Z</time></trkpt><trkpt lat="44.2763699" lon="11.2025972"><ele>273.0</ele><time>2026-04-12T11:49:26.027Z</time></trkpt><trkpt lat="44.2763285" lon="11.2027807"><ele>272.2</ele><time>2026-04-12T11:49:27.027Z</time></trkpt><trkpt lat="44.2762834" lon="11.202939"><ele>271.4</ele><time>2026-04-12T11:49:28.027Z</time></trkpt><trkpt lat="44.2762385" lon="11.2030674"><ele>270.59999999999997</ele><time>2026-04-12T11:49:29.027Z</time></trkpt><trkpt lat="44.276196" lon="11.2031664"><ele>269.8</ele><time>2026-04-12T11:49:30.027Z</time></trkpt><trkpt lat="44.2761376" lon="11.203216"><ele>269.0</ele><time>2026-04-12T11:49:31.027Z</time></trkpt><trkpt lat="44.2760451" lon="11.2031448"><ele>268.1666666666667</ele><time>2026-04-12T11:49:33.028Z</time></trkpt><trkpt lat="44.2760483" lon="11.2030563"><ele>267.33333333333337</ele><time>2026-04-12T11:49:34.027Z</time></trkpt><trkpt lat="44.2760763" lon="11.2029532"><ele>266.5</ele><time>2026-04-12T11:49:35.027Z</time></trkpt><trkpt lat="44.2761236" lon="11.2028524"><ele>265.6666666666667</ele><time>2026-04-12T11:49:36.027Z</time></trkpt><trkpt lat="44.2761564" lon="11.2027201"><ele>264.8333333333333</ele><time>2026-04-12T11:49:37.027Z</time></trkpt><trkpt lat="44.2761707" lon="11.2025684"><ele>264.0</ele><time>2026-04-12T11:49:38.027Z</time></trkpt><trkpt lat="44.276153" lon="11.2024048"><ele>263.5</ele><time>2026-04-12T11:49:39.027Z</time></trkpt><trkpt lat="44.2760905" lon="11.2022436"><ele>263.0</ele><time>2026-04-12T11:49:40.027Z</time></trkpt><trkpt lat="44.2759962" lon="11.2021111"><ele>262.5</ele><time>2026-04-12T11:49:41.027Z</time></trkpt><trkpt lat="44.275879" lon="11.2020009"><ele>262.0</ele><time>2026-04-12T11:49:42.027Z</time></trkpt><trkpt lat="44.2757707" lon="11.2019105"><ele>262.0</ele><time>2026-04-12T11:49:43.027Z</time></trkpt><trkpt lat="44.2756902" lon="11.2018099"><ele>262.0</ele><time>2026-04-12T11:49:44.027Z</time></trkpt><trkpt lat="44.2756443" lon="11.2017021"><ele>262.0</ele><time>2026-04-12T11:49:45.027Z</time></trkpt><trkpt lat="44.2756329" lon="11.2015675"><ele>262.0</ele><time>2026-04-12T11:49:46.027Z</time></trkpt><trkpt lat="44.2756312" lon="11.2014275"><ele>262.0</ele><time>2026-04-12T11:49:47.027Z</time></trkpt><trkpt lat="44.2756642" lon="11.2012599"><ele>258.25</ele><time>2026-04-12T11:49:48.028Z</time></trkpt><trkpt lat="44.2757361" lon="11.2010964"><ele>254.5</ele><time>2026-04-12T11:49:49.028Z</time></trkpt><trkpt lat="44.2758252" lon="11.2009674"><ele>250.75</ele><time>2026-04-12T11:49:50.027Z</time></trkpt><trkpt lat="44.2759322" lon="11.2008597"><ele>247.0</ele><time>2026-04-12T11:49:51.027Z</time></trkpt><trkpt lat="44.27605" lon="11.2007605"><ele>247.0</ele><time>2026-04-12T11:49:52.027Z</time></trkpt><trkpt lat="44.2762" lon="11.2006738"><ele>247.0</ele><time>2026-04-12T11:49:53.027Z</time></trkpt><trkpt lat="44.2763551" lon="11.2005864"><ele>247.0</ele><time>2026-04-12T11:49:54.027Z</time></trkpt><trkpt lat="44.2764977" lon="11.2004816"><ele>246.25</ele><time>2026-04-12T11:49:55.027Z</time></trkpt><trkpt lat="44.2766238" lon="11.2003711"><ele>245.5</ele><time>2026-04-12T11:49:56.027Z</time></trkpt><trkpt lat="44.2767331" lon="11.2002716"><ele>244.75</ele><time>2026-04-12T11:49:57.028Z</time></trkpt><trkpt lat="44.2768338" lon="11.2001974"><ele>244.0</ele><time>2026-04-12T11:49:58.028Z</time></trkpt><trkpt lat="44.2769288" lon="11.2001424"><ele>244.0</ele><time>2026-04-12T11:49:59.028Z</time></trkpt><trkpt lat="44.2770199" lon="11.2001341"><ele>243.99999999999997</ele><time>2026-04-12T11:50:00.028Z</time></trkpt><trkpt lat="44.2771072" lon="11.2001935"><ele>243.99999999999997</ele><time>2026-04-12T11:50:01.029Z</time></trkpt><trkpt lat="44.2771946" lon="11.2002816"><ele>244.0</ele><time>2026-04-12T11:50:02.027Z</time></trkpt><trkpt lat="44.2772674" lon="11.2004078"><ele>244.0</ele><time>2026-04-12T11:50:03.027Z</time></trkpt><trkpt lat="44.2773356" lon="11.2005106"><ele>243.83333333333331</ele><time>2026-04-12T11:50:04.028Z</time></trkpt><trkpt lat="44.2774104" lon="11.2005583"><ele>243.66666666666666</ele><time>2026-04-12T11:50:05.028Z</time></trkpt><trkpt lat="44.2774893" lon="11.2005788"><ele>243.5</ele><time>2026-04-12T11:50:06.028Z</time></trkpt><trkpt lat="44.2775542" lon="11.2005775"><ele>243.33333333333331</ele><time>2026-04-12T11:50:07.028Z</time></trkpt><trkpt lat="44.2776399" lon="11.2005747"><ele>243.16666666666666</ele><time>2026-04-12T11:50:09.028Z</time></trkpt><trkpt lat="44.2777096" lon="11.2005995"><ele>243.0</ele><time>2026-04-12T11:50:16.028Z</time></trkpt><trkpt lat="44.2777821" lon="11.2007555"><ele>243.0</ele><time>2026-04-12T11:50:18.029Z</time></trkpt><trkpt lat="44.2778246" lon="11.2008656"><ele>243.0</ele><time>2026-04-12T11:50:19.028Z</time></trkpt><trkpt lat="44.2778773" lon="11.2009798"><ele>243.0</ele><time>2026-04-12T11:50:20.028Z</time></trkpt><trkpt lat="44.2779438" lon="11.2010976"><ele>243.0</ele><time>2026-04-12T11:50:21.028Z</time></trkpt><trkpt lat="44.2780232" lon="11.201225"><ele>243.0</ele><time>2026-04-12T11:50:22.028Z</time></trkpt><trkpt lat="44.2781051" lon="11.2013536"><ele>243.0</ele><time>2026-04-12T11:50:23.028Z</time></trkpt><trkpt lat="44.2781899" lon="11.2014874"><ele>243.0</ele><time>2026-04-12T11:50:24.028Z</time></trkpt><trkpt lat="44.2782746" lon="11.2016259"><ele>243.0</ele><time>2026-04-12T11:50:25.028Z</time></trkpt><trkpt lat="44.2783592" lon="11.2017701"><ele>243.0</ele><time>2026-04-12T11:50:26.028Z</time></trkpt><trkpt lat="44.2784449" lon="11.2019263"><ele>246.0</ele><time>2026-04-12T11:50:27.028Z</time></trkpt><trkpt lat="44.278533" lon="11.2021016"><ele>249.0</ele><time>2026-04-12T11:50:28.028Z</time></trkpt><trkpt lat="44.2786272" lon="11.2022791"><ele>252.0</ele><time>2026-04-12T11:50:29.028Z</time></trkpt><trkpt lat="44.2787383" lon="11.202453"><ele>249.66666666666669</ele><time>2026-04-12T11:50:30.028Z</time></trkpt><trkpt lat="44.2788601" lon="11.2026224"><ele>247.33333333333334</ele><time>2026-04-12T11:50:31.029Z</time></trkpt><trkpt lat="44.2789845" lon="11.2027862"><ele>245.0</ele><time>2026-04-12T11:50:32.028Z</time></trkpt><trkpt lat="44.2791093" lon="11.202947"><ele>245.0</ele><time>2026-04-12T11:50:33.028Z</time></trkpt><trkpt lat="44.279234" lon="11.2031033"><ele>245.0</ele><time>2026-04-12T11:50:34.028Z</time></trkpt><trkpt lat="44.279363" lon="11.2032553"><ele>245.0</ele><time>2026-04-12T11:50:35.028Z</time></trkpt><trkpt lat="44.2795083" lon="11.2034163"><ele>248.33333333333334</ele><time>2026-04-12T11:50:36.028Z</time></trkpt><trkpt lat="44.279671" lon="11.2035938"><ele>251.66666666666669</ele><time>2026-04-12T11:50:37.028Z</time></trkpt><trkpt lat="44.2798324" lon="11.2037641"><ele>255.0</ele><time>2026-04-12T11:50:38.028Z</time></trkpt><trkpt lat="44.2799844" lon="11.2039346"><ele>252.33333333333331</ele><time>2026-04-12T11:50:39.028Z</time></trkpt><trkpt lat="44.2801258" lon="11.2041168"><ele>249.66666666666666</ele><time>2026-04-12T11:50:40.028Z</time></trkpt><trkpt lat="44.2802591" lon="11.2043064"><ele>247.0</ele><time>2026-04-12T11:50:41.028Z</time></trkpt><trkpt lat="44.2803891" lon="11.2044968"><ele>247.0</ele><time>2026-04-12T11:50:42.028Z</time></trkpt><trkpt lat="44.280507" lon="11.20469"><ele>247.0</ele><time>2026-04-12T11:50:43.028Z</time></trkpt><trkpt lat="44.2806195" lon="11.2048922"><ele>247.0</ele><time>2026-04-12T11:50:44.028Z</time></trkpt><trkpt lat="44.2807445" lon="11.2050976"><ele>244.0</ele><time>2026-04-12T11:50:45.028Z</time></trkpt><trkpt lat="44.2808868" lon="11.2052964"><ele>241.0</ele><time>2026-04-12T11:50:46.028Z</time></trkpt><trkpt lat="44.2810553" lon="11.2054706"><ele>238.0</ele><time>2026-04-12T11:50:47.028Z</time></trkpt><trkpt lat="44.2812191" lon="11.2056092"><ele>238.66666666666666</ele><time>2026-04-12T11:50:48.028Z</time></trkpt><trkpt lat="44.2813765" lon="11.2057247"><ele>239.33333333333331</ele><time>2026-04-12T11:50:49.028Z</time></trkpt><trkpt lat="44.2815285" lon="11.2057986"><ele>240.0</ele><time>2026-04-12T11:50:50.028Z</time></trkpt><trkpt lat="44.2816667" lon="11.2058415"><ele>240.0</ele><time>2026-04-12T11:50:51.028Z</time></trkpt><trkpt lat="44.2817998" lon="11.2058485"><ele>240.0</ele><time>2026-04-12T11:50:52.028Z</time></trkpt><trkpt lat="44.2819488" lon="11.2058144"><ele>240.0</ele><time>2026-04-12T11:50:53.028Z</time></trkpt><trkpt lat="44.2821033" lon="11.2057495"><ele>240.0</ele><time>2026-04-12T11:50:54.028Z</time></trkpt><trkpt lat="44.2822621" lon="11.205667"><ele>235.0</ele><time>2026-04-12T11:50:55.028Z</time></trkpt><trkpt lat="44.2824234" lon="11.2055953"><ele>230.0</ele><time>2026-04-12T11:50:56.029Z</time></trkpt><trkpt lat="44.2825753" lon="11.2055557"><ele>225.0</ele><time>2026-04-12T11:50:57.028Z</time></trkpt><trkpt lat="44.2827147" lon="11.2055547"><ele>225.0</ele><time>2026-04-12T11:50:58.028Z</time></trkpt><trkpt lat="44.2828485" lon="11.2055887"><ele>225.0</ele><time>2026-04-12T11:50:59.028Z</time></trkpt><trkpt lat="44.282971" lon="11.2056612"><ele>225.0</ele><time>2026-04-12T11:51:00.028Z</time></trkpt><trkpt lat="44.2830847" lon="11.2057713"><ele>225.0</ele><time>2026-04-12T11:51:01.028Z</time></trkpt><trkpt lat="44.2831859" lon="11.2059156"><ele>229.33333333333331</ele><time>2026-04-12T11:51:02.028Z</time></trkpt><trkpt lat="44.2832798" lon="11.2061159"><ele>233.66666666666666</ele><time>2026-04-12T11:51:03.029Z</time></trkpt><trkpt lat="44.2833728" lon="11.2063698"><ele>238.0</ele><time>2026-04-12T11:51:04.028Z</time></trkpt><trkpt lat="44.2834745" lon="11.2066699"><ele>240.0</ele><time>2026-04-12T11:51:05.028Z</time></trkpt><trkpt lat="44.283578" lon="11.2069632"><ele>242.0</ele><time>2026-04-12T11:51:06.028Z</time></trkpt><trkpt lat="44.2836811" lon="11.2072176"><ele>244.0</ele><time>2026-04-12T11:51:07.028Z</time></trkpt><trkpt lat="44.283802" lon="11.2074622"><ele>244.66666666666666</ele><time>2026-04-12T11:51:08.028Z</time></trkpt><trkpt lat="44.2839356" lon="11.2077072"><ele>245.33333333333331</ele><time>2026-04-12T11:51:09.028Z</time></trkpt><trkpt lat="44.2840779" lon="11.207939"><ele>246.0</ele><time>2026-04-12T11:51:10.029Z</time></trkpt><trkpt lat="44.2842276" lon="11.2081756"><ele>249.5</ele><time>2026-04-12T11:51:11.028Z</time></trkpt><trkpt lat="44.2843802" lon="11.2084206"><ele>253.0</ele><time>2026-04-12T11:51:12.028Z</time></trkpt><trkpt lat="44.2845164" lon="11.2086658"><ele>253.0</ele><time>2026-04-12T11:51:13.028Z</time></trkpt><trkpt lat="44.2846551" lon="11.208901"><ele>253.0</ele><time>2026-04-12T11:51:14.029Z</time></trkpt><trkpt lat="44.2847891" lon="11.2091263"><ele>253.0</ele><time>2026-04-12T11:51:15.028Z</time></trkpt><trkpt lat="44.2849186" lon="11.2093356"><ele>251.33333333333331</ele><time>2026-04-12T11:51:16.028Z</time></trkpt><trkpt lat="44.2850395" lon="11.2095431"><ele>249.66666666666669</ele><time>2026-04-12T11:51:17.028Z</time></trkpt><trkpt lat="44.2851597" lon="11.2097482"><ele>248.0</ele><time>2026-04-12T11:51:18.028Z</time></trkpt><trkpt lat="44.2852803" lon="11.2099326"><ele>248.0</ele><time>2026-04-12T11:51:19.028Z</time></trkpt><trkpt lat="44.2854085" lon="11.2101105"><ele>248.0</ele><time>2026-04-12T11:51:20.029Z</time></trkpt><trkpt lat="44.285538" lon="11.2102587"><ele>248.0</ele><time>2026-04-12T11:51:21.029Z</time></trkpt><trkpt lat="44.2856681" lon="11.2103699"><ele>247.25</ele><time>2026-04-12T11:51:22.028Z</time></trkpt><trkpt lat="44.285797" lon="11.2104577"><ele>246.5</ele><time>2026-04-12T11:51:23.028Z</time></trkpt><trkpt lat="44.2859143" lon="11.2105558"><ele>245.75</ele><time>2026-04-12T11:51:24.028Z</time></trkpt><trkpt lat="44.2860148" lon="11.2106571"><ele>245.0</ele><time>2026-04-12T11:51:25.028Z</time></trkpt><trkpt lat="44.2861074" lon="11.2107885"><ele>245.0</ele><time>2026-04-12T11:51:26.029Z</time></trkpt><trkpt lat="44.2861862" lon="11.2109541"><ele>245.0</ele><time>2026-04-12T11:51:27.028Z</time></trkpt><trkpt lat="44.2862587" lon="11.2111172"><ele>245.0</ele><time>2026-04-12T11:51:28.028Z</time></trkpt><trkpt lat="44.2863481" lon="11.2112637"><ele>245.0</ele><time>2026-04-12T11:51:29.028Z</time></trkpt><trkpt lat="44.2864602" lon="11.2113898"><ele>245.0</ele><time>2026-04-12T11:51:30.029Z</time></trkpt><trkpt lat="44.2865859" lon="11.2114906"><ele>245.0</ele><time>2026-04-12T11:51:31.029Z</time></trkpt><trkpt lat="44.2867333" lon="11.211566"><ele>245.0</ele><time>2026-04-12T11:51:32.029Z</time></trkpt><trkpt lat="44.2869028" lon="11.2116266"><ele>245.0</ele><time>2026-04-12T11:51:33.029Z</time></trkpt><trkpt lat="44.2870824" lon="11.211677"><ele>245.0</ele><time>2026-04-12T11:51:34.029Z</time></trkpt><trkpt lat="44.2872544" lon="11.2117407"><ele>245.0</ele><time>2026-04-12T11:51:35.029Z</time></trkpt><trkpt lat="44.2874103" lon="11.211814"><ele>243.33333333333334</ele><time>2026-04-12T11:51:36.03Z</time></trkpt><trkpt lat="44.2875626" lon="11.2119213"><ele>241.66666666666669</ele><time>2026-04-12T11:51:37.029Z</time></trkpt><trkpt lat="44.2877184" lon="11.2120682"><ele>240.0</ele><time>2026-04-12T11:51:38.03Z</time></trkpt><trkpt lat="44.2878821" lon="11.2122301"><ele>240.66666666666669</ele><time>2026-04-12T11:51:39.029Z</time></trkpt><trkpt lat="44.2880314" lon="11.2123915"><ele>241.33333333333334</ele><time>2026-04-12T11:51:40.029Z</time></trkpt><trkpt lat="44.2881607" lon="11.2125588"><ele>242.0</ele><time>2026-04-12T11:51:41.029Z</time></trkpt><trkpt lat="44.288273" lon="11.212746"><ele>242.0</ele><time>2026-04-12T11:51:42.03Z</time></trkpt><trkpt lat="44.2883702" lon="11.2129516"><ele>242.0</ele><time>2026-04-12T11:51:43.029Z</time></trkpt><trkpt lat="44.2884595" lon="11.2131589"><ele>242.0</ele><time>2026-04-12T11:51:44.029Z</time></trkpt><trkpt lat="44.2885593" lon="11.213358"><ele>243.33333333333334</ele><time>2026-04-12T11:51:45.029Z</time></trkpt><trkpt lat="44.2886686" lon="11.2135304"><ele>244.66666666666669</ele><time>2026-04-12T11:51:46.029Z</time></trkpt><trkpt lat="44.2887855" lon="11.213666"><ele>246.0</ele><time>2026-04-12T11:51:47.029Z</time></trkpt><trkpt lat="44.2888974" lon="11.2137753"><ele>246.5</ele><time>2026-04-12T11:51:48.03Z</time></trkpt><trkpt lat="44.2890023" lon="11.2138727"><ele>247.0</ele><time>2026-04-12T11:51:49.029Z</time></trkpt><trkpt lat="44.2890931" lon="11.2139851"><ele>247.5</ele><time>2026-04-12T11:51:50.029Z</time></trkpt><trkpt lat="44.2891611" lon="11.2141276"><ele>248.0</ele><time>2026-04-12T11:51:51.029Z</time></trkpt><trkpt lat="44.2892046" lon="11.2143041"><ele>248.0</ele><time>2026-04-12T11:51:52.029Z</time></trkpt><trkpt lat="44.2892316" lon="11.2144812"><ele>248.0</ele><time>2026-04-12T11:51:53.029Z</time></trkpt><trkpt lat="44.2892373" lon="11.214647"><ele>248.0</ele><time>2026-04-12T11:51:54.029Z</time></trkpt><trkpt lat="44.289205" lon="11.2147972"><ele>248.0</ele><time>2026-04-12T11:51:55.03Z</time></trkpt><trkpt lat="44.289137" lon="11.2149454"><ele>248.5</ele><time>2026-04-12T11:51:56.029Z</time></trkpt><trkpt lat="44.289027" lon="11.2150799"><ele>249.0</ele><time>2026-04-12T11:51:57.03Z</time></trkpt><trkpt lat="44.2889018" lon="11.2151873"><ele>249.5</ele><time>2026-04-12T11:51:58.029Z</time></trkpt><trkpt lat="44.288814" lon="11.215305"><ele>250.0</ele><time>2026-04-12T11:51:59.029Z</time></trkpt><trkpt lat="44.2887707" lon="11.2154412"><ele>250.0</ele><time>2026-04-12T11:52:00.03Z</time></trkpt><trkpt lat="44.2887598" lon="11.2155958"><ele>250.0</ele><time>2026-04-12T11:52:01.029Z</time></trkpt><trkpt lat="44.2887688" lon="11.2157731"><ele>250.0</ele><time>2026-04-12T11:52:02.029Z</time></trkpt><trkpt lat="44.2887958" lon="11.2159846"><ele>250.0</ele><time>2026-04-12T11:52:03.03Z</time></trkpt><trkpt lat="44.2888329" lon="11.2162206"><ele>250.0</ele><time>2026-04-12T11:52:04.029Z</time></trkpt><trkpt lat="44.2888736" lon="11.2164554"><ele>250.0</ele><time>2026-04-12T11:52:05.029Z</time></trkpt><trkpt lat="44.2889107" lon="11.2166622"><ele>250.0</ele><time>2026-04-12T11:52:06.029Z</time></trkpt><trkpt lat="44.2889446" lon="11.2168526"><ele>247.0</ele><time>2026-04-12T11:52:07.029Z</time></trkpt><trkpt lat="44.2889724" lon="11.2170431"><ele>244.0</ele><time>2026-04-12T11:52:08.029Z</time></trkpt><trkpt lat="44.2890017" lon="11.2172428"><ele>241.0</ele><time>2026-04-12T11:52:09.029Z</time></trkpt><trkpt lat="44.2890382" lon="11.2174376"><ele>238.0</ele><time>2026-04-12T11:52:10.029Z</time></trkpt><trkpt lat="44.289085" lon="11.2176439"><ele>237.66666666666666</ele><time>2026-04-12T11:52:11.029Z</time></trkpt><trkpt lat="44.2891611" lon="11.2178631"><ele>237.33333333333331</ele><time>2026-04-12T11:52:12.029Z</time></trkpt><trkpt lat="44.2892672" lon="11.2181121"><ele>237.0</ele><time>2026-04-12T11:52:13.029Z</time></trkpt><trkpt lat="44.2893781" lon="11.2183389"><ele>239.0</ele><time>2026-04-12T11:52:14.029Z</time></trkpt><trkpt lat="44.2894928" lon="11.2185384"><ele>241.0</ele><time>2026-04-12T11:52:15.029Z</time></trkpt><trkpt lat="44.2895969" lon="11.2187247"><ele>243.0</ele><time>2026-04-12T11:52:16.029Z</time></trkpt><trkpt lat="44.2896876" lon="11.2189227"><ele>238.33333333333331</ele><time>2026-04-12T11:52:17.029Z</time></trkpt><trkpt lat="44.28977" lon="11.2191436"><ele>233.66666666666666</ele><time>2026-04-12T11:52:18.029Z</time></trkpt><trkpt lat="44.2898453" lon="11.2193847"><ele>229.0</ele><time>2026-04-12T11:52:19.029Z</time></trkpt><trkpt lat="44.289911" lon="11.2196306"><ele>230.66666666666666</ele><time>2026-04-12T11:52:20.029Z</time></trkpt><trkpt lat="44.2899607" lon="11.2198849"><ele>232.33333333333331</ele><time>2026-04-12T11:52:21.029Z</time></trkpt><trkpt lat="44.2899998" lon="11.2201465"><ele>234.0</ele><time>2026-04-12T11:52:22.029Z</time></trkpt><trkpt lat="44.2900371" lon="11.22041"><ele>234.0</ele><time>2026-04-12T11:52:23.029Z</time></trkpt><trkpt lat="44.2900881" lon="11.2206695"><ele>234.0</ele><time>2026-04-12T11:52:24.029Z</time></trkpt><trkpt lat="44.2901563" lon="11.2209372"><ele>234.0</ele><time>2026-04-12T11:52:25.029Z</time></trkpt><trkpt lat="44.2902307" lon="11.2212041"><ele>234.0</ele><time>2026-04-12T11:52:26.029Z</time></trkpt><trkpt lat="44.2903067" lon="11.2214721"><ele>234.0</ele><time>2026-04-12T11:52:27.029Z</time></trkpt><trkpt lat="44.2903733" lon="11.2217453"><ele>234.0</ele><time>2026-04-12T11:52:28.029Z</time></trkpt><trkpt lat="44.2904374" lon="11.2220219"><ele>231.66666666666669</ele><time>2026-04-12T11:52:29.029Z</time></trkpt><trkpt lat="44.2905107" lon="11.2222942"><ele>229.33333333333334</ele><time>2026-04-12T11:52:30.029Z</time></trkpt><trkpt lat="44.2905779" lon="11.2225627"><ele>227.0</ele><time>2026-04-12T11:52:31.029Z</time></trkpt><trkpt lat="44.2906454" lon="11.22283"><ele>227.0</ele><time>2026-04-12T11:52:32.029Z</time></trkpt><trkpt lat="44.2907156" lon="11.2230892"><ele>227.0</ele><time>2026-04-12T11:52:33.029Z</time></trkpt><trkpt lat="44.2907827" lon="11.2233487"><ele>227.0</ele><time>2026-04-12T11:52:34.029Z</time></trkpt><trkpt lat="44.2908442" lon="11.2236289"><ele>228.66666666666669</ele><time>2026-04-12T11:52:35.029Z</time></trkpt><trkpt lat="44.2908908" lon="11.2239241"><ele>230.33333333333331</ele><time>2026-04-12T11:52:36.029Z</time></trkpt><trkpt lat="44.2909307" lon="11.2242184"><ele>232.0</ele><time>2026-04-12T11:52:37.029Z</time></trkpt><trkpt lat="44.2909722" lon="11.2244902"><ele>232.66666666666666</ele><time>2026-04-12T11:52:38.029Z</time></trkpt><trkpt lat="44.2910292" lon="11.2247384"><ele>233.33333333333331</ele><time>2026-04-12T11:52:39.029Z</time></trkpt><trkpt lat="44.2911092" lon="11.2249583"><ele>234.0</ele><time>2026-04-12T11:52:40.029Z</time></trkpt><trkpt lat="44.291217" lon="11.2251571"><ele>232.66666666666669</ele><time>2026-04-12T11:52:41.029Z</time></trkpt><trkpt lat="44.2913548" lon="11.2253585"><ele>231.33333333333334</ele><time>2026-04-12T11:52:42.029Z</time></trkpt><trkpt lat="44.2915013" lon="11.2255802"><ele>230.0</ele><time>2026-04-12T11:52:43.029Z</time></trkpt><trkpt lat="44.2916342" lon="11.2258052"><ele>228.66666666666669</ele><time>2026-04-12T11:52:44.029Z</time></trkpt><trkpt lat="44.2917471" lon="11.2260255"><ele>227.33333333333331</ele><time>2026-04-12T11:52:45.029Z</time></trkpt><trkpt lat="44.2918504" lon="11.2262355"><ele>226.0</ele><time>2026-04-12T11:52:46.03Z</time></trkpt><trkpt lat="44.2919448" lon="11.2264376"><ele>229.33333333333331</ele><time>2026-04-12T11:52:47.029Z</time></trkpt><trkpt lat="44.2920323" lon="11.2266264"><ele>232.66666666666669</ele><time>2026-04-12T11:52:48.029Z</time></trkpt><trkpt lat="44.2921185" lon="11.2268085"><ele>236.0</ele><time>2026-04-12T11:52:49.029Z</time></trkpt><trkpt lat="44.2921867" lon="11.2269833"><ele>236.0</ele><time>2026-04-12T11:52:50.029Z</time></trkpt><trkpt lat="44.2922368" lon="11.2271665"><ele>236.0</ele><time>2026-04-12T11:52:51.029Z</time></trkpt><trkpt lat="44.2922824" lon="11.2273572"><ele>236.0</ele><time>2026-04-12T11:52:52.03Z</time></trkpt><trkpt lat="44.2923249" lon="11.2275609"><ele>236.0</ele><time>2026-04-12T11:52:53.029Z</time></trkpt><trkpt lat="44.2923731" lon="11.2277643"><ele>233.5</ele><time>2026-04-12T11:52:54.03Z</time></trkpt><trkpt lat="44.2924092" lon="11.2279663"><ele>231.0</ele><time>2026-04-12T11:52:55.031Z</time></trkpt><trkpt lat="44.2924406" lon="11.2281632"><ele>228.5</ele><time>2026-04-12T11:52:56.03Z</time></trkpt><trkpt lat="44.2924645" lon="11.2283434"><ele>226.0</ele><time>2026-04-12T11:52:57.03Z</time></trkpt><trkpt lat="44.2924848" lon="11.2285165"><ele>226.0</ele><time>2026-04-12T11:52:58.03Z</time></trkpt><trkpt lat="44.2925081" lon="11.2286774"><ele>226.0</ele><time>2026-04-12T11:52:59.03Z</time></trkpt><trkpt lat="44.29254" lon="11.2288257"><ele>226.0</ele><time>2026-04-12T11:53:00.03Z</time></trkpt><trkpt lat="44.292586" lon="11.2289672"><ele>226.0</ele><time>2026-04-12T11:53:01.03Z</time></trkpt><trkpt lat="44.2926671" lon="11.2290999"><ele>227.33333333333331</ele><time>2026-04-12T11:53:02.03Z</time></trkpt><trkpt lat="44.2927921" lon="11.2292276"><ele>228.66666666666669</ele><time>2026-04-12T11:53:03.03Z</time></trkpt><trkpt lat="44.2929563" lon="11.2293753"><ele>230.0</ele><time>2026-04-12T11:53:04.03Z</time></trkpt><trkpt lat="44.2931204" lon="11.2295367"><ele>228.0</ele><time>2026-04-12T11:53:05.03Z</time></trkpt><trkpt lat="44.2932924" lon="11.229708"><ele>226.0</ele><time>2026-04-12T11:53:06.03Z</time></trkpt><trkpt lat="44.2934523" lon="11.2298712"><ele>224.0</ele><time>2026-04-12T11:53:07.03Z</time></trkpt><trkpt lat="44.2936192" lon="11.2300021"><ele>224.0</ele><time>2026-04-12T11:53:08.03Z</time></trkpt><trkpt lat="44.2937286" lon="11.2301452"><ele>224.0</ele><time>2026-04-12T11:53:09.031Z</time></trkpt><trkpt lat="44.2938143" lon="11.2302944"><ele>224.0</ele><time>2026-04-12T11:53:10.03Z</time></trkpt><trkpt lat="44.2938689" lon="11.2304749"><ele>224.0</ele><time>2026-04-12T11:53:11.03Z</time></trkpt><trkpt lat="44.2938975" lon="11.2307044"><ele>224.0</ele><time>2026-04-12T11:53:12.03Z</time></trkpt><trkpt lat="44.2939147" lon="11.2309631"><ele>224.0</ele><time>2026-04-12T11:53:13.03Z</time></trkpt><trkpt lat="44.2939272" lon="11.2312168"><ele>224.0</ele><time>2026-04-12T11:53:14.03Z</time></trkpt><trkpt lat="44.2939398" lon="11.2314755"><ele>219.33333333333334</ele><time>2026-04-12T11:53:15.03Z</time></trkpt><trkpt lat="44.2939522" lon="11.2317188"><ele>214.66666666666669</ele><time>2026-04-12T11:53:16.03Z</time></trkpt><trkpt lat="44.2939677" lon="11.2319422"><ele>210.0</ele><time>2026-04-12T11:53:17.03Z</time></trkpt><trkpt lat="44.2940168" lon="11.2321475"><ele>211.66666666666669</ele><time>2026-04-12T11:53:18.03Z</time></trkpt><trkpt lat="44.2941184" lon="11.2323597"><ele>213.33333333333334</ele><time>2026-04-12T11:53:19.03Z</time></trkpt><trkpt lat="44.2942428" lon="11.2326"><ele>215.0</ele><time>2026-04-12T11:53:20.03Z</time></trkpt><trkpt lat="44.294363" lon="11.2328507"><ele>215.0</ele><time>2026-04-12T11:53:21.031Z</time></trkpt><trkpt lat="44.294487" lon="11.2330933"><ele>215.0</ele><time>2026-04-12T11:53:22.03Z</time></trkpt><trkpt lat="44.294608" lon="11.2333366"><ele>215.0</ele><time>2026-04-12T11:53:23.03Z</time></trkpt><trkpt lat="44.2947221" lon="11.2335828"><ele>212.66666666666669</ele><time>2026-04-12T11:53:24.03Z</time></trkpt><trkpt lat="44.2948262" lon="11.2338089"><ele>210.33333333333331</ele><time>2026-04-12T11:53:25.03Z</time></trkpt><trkpt lat="44.2949054" lon="11.23402"><ele>208.0</ele><time>2026-04-12T11:53:26.03Z</time></trkpt><trkpt lat="44.2949512" lon="11.2342309"><ele>208.0</ele><time>2026-04-12T11:53:27.03Z</time></trkpt><trkpt lat="44.2949747" lon="11.2344435"><ele>208.0</ele><time>2026-04-12T11:53:28.03Z</time></trkpt><trkpt lat="44.2949801" lon="11.234661"><ele>208.0</ele><time>2026-04-12T11:53:29.03Z</time></trkpt><trkpt lat="44.2950053" lon="11.2348827"><ele>210.33333333333331</ele><time>2026-04-12T11:53:30.03Z</time></trkpt><trkpt lat="44.2950508" lon="11.2350991"><ele>212.66666666666669</ele><time>2026-04-12T11:53:31.03Z</time></trkpt><trkpt lat="44.2950848" lon="11.2353053"><ele>215.0</ele><time>2026-04-12T11:53:32.03Z</time></trkpt><trkpt lat="44.2950974" lon="11.2355195"><ele>215.33333333333334</ele><time>2026-04-12T11:53:33.03Z</time></trkpt><trkpt lat="44.295078" lon="11.2357416"><ele>215.66666666666669</ele><time>2026-04-12T11:53:34.03Z</time></trkpt><trkpt lat="44.2950386" lon="11.2359494"><ele>216.0</ele><time>2026-04-12T11:53:35.031Z</time></trkpt><trkpt lat="44.2949925" lon="11.2361349"><ele>216.0</ele><time>2026-04-12T11:53:36.03Z</time></trkpt><trkpt lat="44.2949798" lon="11.2363073"><ele>216.0</ele><time>2026-04-12T11:53:37.03Z</time></trkpt><trkpt lat="44.2950139" lon="11.2364547"><ele>216.0</ele><time>2026-04-12T11:53:38.03Z</time></trkpt><trkpt lat="44.295089" lon="11.2365774"><ele>216.0</ele><time>2026-04-12T11:53:39.031Z</time></trkpt><trkpt lat="44.295201" lon="11.2366593"><ele>218.4</ele><time>2026-04-12T11:53:40.031Z</time></trkpt><trkpt lat="44.2953193" lon="11.2367072"><ele>220.8</ele><time>2026-04-12T11:53:41.03Z</time></trkpt><trkpt lat="44.295424" lon="11.2367496"><ele>223.20000000000002</ele><time>2026-04-12T11:53:42.03Z</time></trkpt><trkpt lat="44.2955076" lon="11.2368323"><ele>225.60000000000002</ele><time>2026-04-12T11:53:43.03Z</time></trkpt><trkpt lat="44.2955623" lon="11.2369435"><ele>228.0</ele><time>2026-04-12T11:53:44.03Z</time></trkpt><trkpt lat="44.2955841" lon="11.2370904"><ele>228.0</ele><time>2026-04-12T11:53:45.031Z</time></trkpt><trkpt lat="44.2955744" lon="11.2372904"><ele>228.0</ele><time>2026-04-12T11:53:46.031Z</time></trkpt><trkpt lat="44.2955647" lon="11.237517"><ele>228.0</ele><time>2026-04-12T11:53:47.03Z</time></trkpt><trkpt lat="44.2955837" lon="11.2377762"><ele>223.66666666666669</ele><time>2026-04-12T11:53:48.03Z</time></trkpt><trkpt lat="44.2956403" lon="11.2380619"><ele>219.33333333333334</ele><time>2026-04-12T11:53:49.031Z</time></trkpt><trkpt lat="44.2957232" lon="11.238344"><ele>215.0</ele><time>2026-04-12T11:53:50.03Z</time></trkpt><trkpt lat="44.2958195" lon="11.2386399"><ele>215.0</ele><time>2026-04-12T11:53:51.03Z</time></trkpt><trkpt lat="44.2959221" lon="11.2389355"><ele>215.0</ele><time>2026-04-12T11:53:52.03Z</time></trkpt><trkpt lat="44.2960389" lon="11.2392336"><ele>224.5</ele><time>2026-04-12T11:53:53.03Z</time></trkpt><trkpt lat="44.2961566" lon="11.2395276"><ele>234.0</ele><time>2026-04-12T11:53:54.031Z</time></trkpt><trkpt lat="44.2962899" lon="11.2398125"><ele>240.33333333333331</ele><time>2026-04-12T11:53:55.03Z</time></trkpt><trkpt lat="44.2964171" lon="11.2400779"><ele>246.66666666666666</ele><time>2026-04-12T11:53:56.03Z</time></trkpt><trkpt lat="44.2965443" lon="11.2403191"><ele>253.0</ele><time>2026-04-12T11:53:57.03Z</time></trkpt><trkpt lat="44.2966655" lon="11.2405583"><ele>244.66666666666666</ele><time>2026-04-12T11:53:58.03Z</time></trkpt><trkpt lat="44.2967828" lon="11.240773"><ele>236.33333333333331</ele><time>2026-04-12T11:53:59.03Z</time></trkpt><trkpt lat="44.2969074" lon="11.2409583"><ele>228.0</ele><time>2026-04-12T11:54:00.03Z</time></trkpt><trkpt lat="44.2970256" lon="11.2411453"><ele>228.0</ele><time>2026-04-12T11:54:01.03Z</time></trkpt><trkpt lat="44.2971183" lon="11.2413401"><ele>228.0</ele><time>2026-04-12T11:54:02.03Z</time></trkpt><trkpt lat="44.2971865" lon="11.2415385"><ele>228.0</ele><time>2026-04-12T11:54:03.03Z</time></trkpt><trkpt lat="44.2972481" lon="11.2417441"><ele>219.0</ele><time>2026-04-12T11:54:04.03Z</time></trkpt><trkpt lat="44.2972879" lon="11.2419578"><ele>210.0</ele><time>2026-04-12T11:54:05.031Z</time></trkpt><trkpt lat="44.2973167" lon="11.2421699"><ele>201.0</ele><time>2026-04-12T11:54:06.03Z</time></trkpt><trkpt lat="44.2973447" lon="11.2423728"><ele>201.0</ele><time>2026-04-12T11:54:07.03Z</time></trkpt><trkpt lat="44.2973713" lon="11.2425699"><ele>201.0</ele><time>2026-04-12T11:54:08.03Z</time></trkpt><trkpt lat="44.2974091" lon="11.2427476"><ele>201.0</ele><time>2026-04-12T11:54:09.03Z</time></trkpt><trkpt lat="44.2974601" lon="11.2429225"><ele>201.0</ele><time>2026-04-12T11:54:10.03Z</time></trkpt><trkpt lat="44.2975349" lon="11.2430866"><ele>200.66666666666669</ele><time>2026-04-12T11:54:11.03Z</time></trkpt><trkpt lat="44.297622" lon="11.2432492"><ele>200.33333333333334</ele><time>2026-04-12T11:54:12.03Z</time></trkpt><trkpt lat="44.2977157" lon="11.2434112"><ele>200.0</ele><time>2026-04-12T11:54:13.03Z</time></trkpt><trkpt lat="44.2978086" lon="11.2435861"><ele>200.0</ele><time>2026-04-12T11:54:14.031Z</time></trkpt><trkpt lat="44.2978977" lon="11.2437661"><ele>200.0</ele><time>2026-04-12T11:54:15.03Z</time></trkpt><trkpt lat="44.2979844" lon="11.2439527"><ele>200.0</ele><time>2026-04-12T11:54:16.03Z</time></trkpt><trkpt lat="44.298065" lon="11.2441277"><ele>197.75</ele><time>2026-04-12T11:54:17.03Z</time></trkpt><trkpt lat="44.2981411" lon="11.2442909"><ele>195.5</ele><time>2026-04-12T11:54:18.03Z</time></trkpt><trkpt lat="44.2982185" lon="11.2444388"><ele>193.25</ele><time>2026-04-12T11:54:19.03Z</time></trkpt><trkpt lat="44.2983001" lon="11.2445706"><ele>191.0</ele><time>2026-04-12T11:54:20.03Z</time></trkpt><trkpt lat="44.2983832" lon="11.2446926"><ele>198.75</ele><time>2026-04-12T11:54:21.031Z</time></trkpt><trkpt lat="44.2984813" lon="11.2448242"><ele>206.5</ele><time>2026-04-12T11:54:22.031Z</time></trkpt><trkpt lat="44.2985818" lon="11.244962"><ele>214.25</ele><time>2026-04-12T11:54:23.032Z</time></trkpt><trkpt lat="44.2987134" lon="11.2451065"><ele>222.0</ele><time>2026-04-12T11:54:24.031Z</time></trkpt><trkpt lat="44.2988688" lon="11.2452577"><ele>217.0</ele><time>2026-04-12T11:54:25.032Z</time></trkpt><trkpt lat="44.2990535" lon="11.2454302"><ele>212.0</ele><time>2026-04-12T11:54:26.031Z</time></trkpt><trkpt lat="44.2992403" lon="11.245606"><ele>207.0</ele><time>2026-04-12T11:54:27.031Z</time></trkpt><trkpt lat="44.2994066" lon="11.2457764"><ele>207.0</ele><time>2026-04-12T11:54:28.031Z</time></trkpt><trkpt lat="44.2995716" lon="11.2459193"><ele>207.0</ele><time>2026-04-12T11:54:29.031Z</time></trkpt><trkpt lat="44.2997378" lon="11.246034"><ele>207.0</ele><time>2026-04-12T11:54:30.032Z</time></trkpt><trkpt lat="44.299901" lon="11.2461219"><ele>202.66666666666669</ele><time>2026-04-12T11:54:31.031Z</time></trkpt><trkpt lat="44.3000608" lon="11.2461621"><ele>198.33333333333334</ele><time>2026-04-12T11:54:32.031Z</time></trkpt><trkpt lat="44.300214" lon="11.2461616"><ele>194.0</ele><time>2026-04-12T11:54:33.031Z</time></trkpt><trkpt lat="44.3003656" lon="11.2461147"><ele>194.0</ele><time>2026-04-12T11:54:34.031Z</time></trkpt><trkpt lat="44.3005188" lon="11.2460278"><ele>194.0</ele><time>2026-04-12T11:54:35.031Z</time></trkpt><trkpt lat="44.3006698" lon="11.2459314"><ele>194.0</ele><time>2026-04-12T11:54:36.032Z</time></trkpt><trkpt lat="44.3008069" lon="11.2458439"><ele>195.0</ele><time>2026-04-12T11:54:37.031Z</time></trkpt><trkpt lat="44.3009255" lon="11.2457472"><ele>196.0</ele><time>2026-04-12T11:54:38.031Z</time></trkpt><trkpt lat="44.3010263" lon="11.2456193"><ele>197.0</ele><time>2026-04-12T11:54:39.031Z</time></trkpt><trkpt lat="44.3011106" lon="11.2454667"><ele>198.0</ele><time>2026-04-12T11:54:40.031Z</time></trkpt><trkpt lat="44.3011791" lon="11.245307"><ele>195.60000000000002</ele><time>2026-04-12T11:54:41.031Z</time></trkpt><trkpt lat="44.3012373" lon="11.24517"><ele>193.20000000000002</ele><time>2026-04-12T11:54:42.031Z</time></trkpt><trkpt lat="44.3013032" lon="11.2450526"><ele>190.8</ele><time>2026-04-12T11:54:43.031Z</time></trkpt><trkpt lat="44.3013823" lon="11.2449754"><ele>188.4</ele><time>2026-04-12T11:54:44.031Z</time></trkpt><trkpt lat="44.3014752" lon="11.2449276"><ele>186.0</ele><time>2026-04-12T11:54:45.031Z</time></trkpt><trkpt lat="44.3015686" lon="11.2449243"><ele>186.0</ele><time>2026-04-12T11:54:46.031Z</time></trkpt><trkpt lat="44.3016443" lon="11.2449699"><ele>186.0</ele><time>2026-04-12T11:54:47.031Z</time></trkpt><trkpt lat="44.3017073" lon="11.2450843"><ele>186.0</ele><time>2026-04-12T11:54:48.032Z</time></trkpt><trkpt lat="44.3017629" lon="11.2452587"><ele>186.0</ele><time>2026-04-12T11:54:49.031Z</time></trkpt><trkpt lat="44.3018205" lon="11.2454768"><ele>193.0</ele><time>2026-04-12T11:54:50.032Z</time></trkpt><trkpt lat="44.3018892" lon="11.2457145"><ele>200.0</ele><time>2026-04-12T11:54:51.032Z</time></trkpt><trkpt lat="44.3019635" lon="11.2459589"><ele>207.0</ele><time>2026-04-12T11:54:52.031Z</time></trkpt><trkpt lat="44.3020385" lon="11.2462092"><ele>207.0</ele><time>2026-04-12T11:54:53.031Z</time></trkpt><trkpt lat="44.3021031" lon="11.2464527"><ele>207.0</ele><time>2026-04-12T11:54:54.031Z</time></trkpt><trkpt lat="44.3021665" lon="11.2466896"><ele>207.0</ele><time>2026-04-12T11:54:55.031Z</time></trkpt><trkpt lat="44.3022321" lon="11.2469182"><ele>202.0</ele><time>2026-04-12T11:54:56.031Z</time></trkpt><trkpt lat="44.3022994" lon="11.2471455"><ele>197.0</ele><time>2026-04-12T11:54:57.031Z</time></trkpt><trkpt lat="44.302361" lon="11.247371"><ele>192.0</ele><time>2026-04-12T11:54:58.031Z</time></trkpt><trkpt lat="44.3024372" lon="11.2475846"><ele>192.0</ele><time>2026-04-12T11:54:59.031Z</time></trkpt><trkpt lat="44.3025364" lon="11.2477823"><ele>192.0</ele><time>2026-04-12T11:55:00.032Z</time></trkpt><trkpt lat="44.3026536" lon="11.2479719"><ele>192.0</ele><time>2026-04-12T11:55:01.032Z</time></trkpt><trkpt lat="44.3027887" lon="11.2481404"><ele>189.0</ele><time>2026-04-12T11:55:02.031Z</time></trkpt><trkpt lat="44.3029194" lon="11.2483118"><ele>186.0</ele><time>2026-04-12T11:55:03.031Z</time></trkpt><trkpt lat="44.3030351" lon="11.2485272"><ele>183.0</ele><time>2026-04-12T11:55:04.031Z</time></trkpt><trkpt lat="44.3031663" lon="11.2487688"><ele>191.0</ele><time>2026-04-12T11:55:05.031Z</time></trkpt><trkpt lat="44.3032995" lon="11.2489885"><ele>199.0</ele><time>2026-04-12T11:55:06.032Z</time></trkpt><trkpt lat="44.3034289" lon="11.249187"><ele>207.0</ele><time>2026-04-12T11:55:07.031Z</time></trkpt><trkpt lat="44.3035607" lon="11.2493449"><ele>207.0</ele><time>2026-04-12T11:55:08.031Z</time></trkpt><trkpt lat="44.3037" lon="11.2494714"><ele>207.0</ele><time>2026-04-12T11:55:09.031Z</time></trkpt><trkpt lat="44.3038533" lon="11.249569"><ele>207.0</ele><time>2026-04-12T11:55:10.032Z</time></trkpt><trkpt lat="44.3040169" lon="11.2496244"><ele>198.66666666666666</ele><time>2026-04-12T11:55:11.032Z</time></trkpt><trkpt lat="44.3041987" lon="11.2496536"><ele>190.33333333333331</ele><time>2026-04-12T11:55:12.031Z</time></trkpt><trkpt lat="44.3043698" lon="11.2496791"><ele>182.0</ele><time>2026-04-12T11:55:13.031Z</time></trkpt><trkpt lat="44.3045293" lon="11.2497165"><ele>182.0</ele><time>2026-04-12T11:55:14.031Z</time></trkpt><trkpt lat="44.3046711" lon="11.2497891"><ele>182.0</ele><time>2026-04-12T11:55:15.031Z</time></trkpt><trkpt lat="44.3048044" lon="11.2498927"><ele>182.0</ele><time>2026-04-12T11:55:16.031Z</time></trkpt><trkpt lat="44.3049115" lon="11.2500073"><ele>182.0</ele><time>2026-04-12T11:55:17.031Z</time></trkpt><trkpt lat="44.3049835" lon="11.2501364"><ele>184.25</ele><time>2026-04-12T11:55:18.031Z</time></trkpt><trkpt lat="44.305019" lon="11.2502881"><ele>186.5</ele><time>2026-04-12T11:55:19.032Z</time></trkpt><trkpt lat="44.3050179" lon="11.2504662"><ele>188.75</ele><time>2026-04-12T11:55:20.032Z</time></trkpt><trkpt lat="44.3049959" lon="11.2506869"><ele>191.0</ele><time>2026-04-12T11:55:21.031Z</time></trkpt><trkpt lat="44.3049919" lon="11.2509434"><ele>191.0</ele><time>2026-04-12T11:55:22.031Z</time></trkpt><trkpt lat="44.3050117" lon="11.2512081"><ele>191.0</ele><time>2026-04-12T11:55:23.031Z</time></trkpt><trkpt lat="44.3050344" lon="11.2514598"><ele>191.0</ele><time>2026-04-12T11:55:24.032Z</time></trkpt><trkpt lat="44.3050476" lon="11.2517012"><ele>191.66666666666666</ele><time>2026-04-12T11:55:25.031Z</time></trkpt><trkpt lat="44.3050378" lon="11.2519324"><ele>192.33333333333331</ele><time>2026-04-12T11:55:26.031Z</time></trkpt><trkpt lat="44.3050081" lon="11.2521521"><ele>193.0</ele><time>2026-04-12T11:55:27.031Z</time></trkpt><trkpt lat="44.3049784" lon="11.2523613"><ele>192.25</ele><time>2026-04-12T11:55:28.031Z</time></trkpt><trkpt lat="44.304972" lon="11.2525579"><ele>191.5</ele><time>2026-04-12T11:55:29.032Z</time></trkpt><trkpt lat="44.3049886" lon="11.2527487"><ele>190.75</ele><time>2026-04-12T11:55:30.031Z</time></trkpt><trkpt lat="44.3050389" lon="11.2529397"><ele>190.0</ele><time>2026-04-12T11:55:31.032Z</time></trkpt><trkpt lat="44.3051072" lon="11.253141"><ele>190.0</ele><time>2026-04-12T11:55:32.031Z</time></trkpt><trkpt lat="44.3051908" lon="11.2533505"><ele>190.0</ele><time>2026-04-12T11:55:33.032Z</time></trkpt><trkpt lat="44.3053003" lon="11.2535929"><ele>190.0</ele><time>2026-04-12T11:55:34.032Z</time></trkpt><trkpt lat="44.3054084" lon="11.2538466"><ele>184.33333333333334</ele><time>2026-04-12T11:55:35.031Z</time></trkpt><trkpt lat="44.305508" lon="11.2541074"><ele>178.66666666666666</ele><time>2026-04-12T11:55:36.031Z</time></trkpt><trkpt lat="44.3056113" lon="11.2543442"><ele>173.0</ele><time>2026-04-12T11:55:37.031Z</time></trkpt><trkpt lat="44.3057187" lon="11.2545509"><ele>173.0</ele><time>2026-04-12T11:55:38.031Z</time></trkpt><trkpt lat="44.305849" lon="11.2547173"><ele>173.0</ele><time>2026-04-12T11:55:39.031Z</time></trkpt><trkpt lat="44.3060039" lon="11.2548573"><ele>173.0</ele><time>2026-04-12T11:55:40.032Z</time></trkpt><trkpt lat="44.3061866" lon="11.2549703"><ele>172.33333333333331</ele><time>2026-04-12T11:55:41.031Z</time></trkpt><trkpt lat="44.3063825" lon="11.2550827"><ele>171.66666666666666</ele><time>2026-04-12T11:55:42.031Z</time></trkpt><trkpt lat="44.3065705" lon="11.2551712"><ele>171.0</ele><time>2026-04-12T11:55:43.031Z</time></trkpt><trkpt lat="44.3067545" lon="11.2552149"><ele>171.0</ele><time>2026-04-12T11:55:44.031Z</time></trkpt><trkpt lat="44.306941" lon="11.2552201"><ele>171.0</ele><time>2026-04-12T11:55:45.031Z</time></trkpt><trkpt lat="44.3071088" lon="11.2551974"><ele>171.0</ele><time>2026-04-12T11:55:46.032Z</time></trkpt><trkpt lat="44.3072702" lon="11.2551797"><ele>171.66666666666666</ele><time>2026-04-12T11:55:47.032Z</time></trkpt><trkpt lat="44.3074353" lon="11.2551944"><ele>172.33333333333331</ele><time>2026-04-12T11:55:48.032Z</time></trkpt><trkpt lat="44.3076162" lon="11.255242"><ele>173.0</ele><time>2026-04-12T11:55:49.033Z</time></trkpt><trkpt lat="44.3077999" lon="11.2553141"><ele>173.0</ele><time>2026-04-12T11:55:50.033Z</time></trkpt><trkpt lat="44.3079673" lon="11.2553964"><ele>173.0</ele><time>2026-04-12T11:55:51.032Z</time></trkpt><trkpt lat="44.3080985" lon="11.2554853"><ele>173.0</ele><time>2026-04-12T11:55:52.032Z</time></trkpt><trkpt lat="44.3082122" lon="11.2556036"><ele>174.25</ele><time>2026-04-12T11:55:53.032Z</time></trkpt><trkpt lat="44.3082993" lon="11.2557557"><ele>175.5</ele><time>2026-04-12T11:55:54.032Z</time></trkpt><trkpt lat="44.30836" lon="11.255926"><ele>176.75</ele><time>2026-04-12T11:55:55.032Z</time></trkpt><trkpt lat="44.3083962" lon="11.2561171"><ele>178.0</ele><time>2026-04-12T11:55:56.032Z</time></trkpt><trkpt lat="44.3083992" lon="11.2563137"><ele>177.0</ele><time>2026-04-12T11:55:57.032Z</time></trkpt><trkpt lat="44.3083621" lon="11.256501"><ele>176.0</ele><time>2026-04-12T11:55:58.032Z</time></trkpt><trkpt lat="44.3083093" lon="11.2566888"><ele>175.0</ele><time>2026-04-12T11:55:59.032Z</time></trkpt><trkpt lat="44.3082578" lon="11.2568618"><ele>174.0</ele><time>2026-04-12T11:56:00.032Z</time></trkpt><trkpt lat="44.3082264" lon="11.2570389"><ele>174.0</ele><time>2026-04-12T11:56:01.032Z</time></trkpt><trkpt lat="44.3082245" lon="11.2572273"><ele>174.0</ele><time>2026-04-12T11:56:02.032Z</time></trkpt><trkpt lat="44.3082657" lon="11.2574368"><ele>174.0</ele><time>2026-04-12T11:56:03.032Z</time></trkpt><trkpt lat="44.3083177" lon="11.2576373"><ele>174.0</ele><time>2026-04-12T11:56:04.032Z</time></trkpt><trkpt lat="44.3083775" lon="11.2578314"><ele>173.25</ele><time>2026-04-12T11:56:05.032Z</time></trkpt><trkpt lat="44.3084286" lon="11.2580273"><ele>172.5</ele><time>2026-04-12T11:56:06.032Z</time></trkpt><trkpt lat="44.308479" lon="11.2581944"><ele>171.75</ele><time>2026-04-12T11:56:07.032Z</time></trkpt><trkpt lat="44.3085332" lon="11.2583451"><ele>171.0</ele><time>2026-04-12T11:56:08.032Z</time></trkpt><trkpt lat="44.3085745" lon="11.2584898"><ele>172.60000000000002</ele><time>2026-04-12T11:56:09.032Z</time></trkpt><trkpt lat="44.3086211" lon="11.2586177"><ele>174.2</ele><time>2026-04-12T11:56:10.032Z</time></trkpt><trkpt lat="44.3086648" lon="11.2587375"><ele>175.8</ele><time>2026-04-12T11:56:11.033Z</time></trkpt><trkpt lat="44.3087031" lon="11.2588647"><ele>177.39999999999998</ele><time>2026-04-12T11:56:12.032Z</time></trkpt><trkpt lat="44.308742" lon="11.2589923"><ele>179.0</ele><time>2026-04-12T11:56:13.033Z</time></trkpt><trkpt lat="44.3087911" lon="11.2591282"><ele>178.0</ele><time>2026-04-12T11:56:14.032Z</time></trkpt><trkpt lat="44.3088673" lon="11.259283"><ele>177.0</ele><time>2026-04-12T11:56:15.032Z</time></trkpt><trkpt lat="44.3089724" lon="11.2594414"><ele>176.0</ele><time>2026-04-12T11:56:16.032Z</time></trkpt><trkpt lat="44.3090955" lon="11.2595853"><ele>175.0</ele><time>2026-04-12T11:56:17.032Z</time></trkpt><trkpt lat="44.3092242" lon="11.2597251"><ele>181.66666666666669</ele><time>2026-04-12T11:56:18.032Z</time></trkpt><trkpt lat="44.3093416" lon="11.2598649"><ele>188.33333333333334</ele><time>2026-04-12T11:56:19.032Z</time></trkpt><trkpt lat="44.3094633" lon="11.2599958"><ele>195.0</ele><time>2026-04-12T11:56:20.033Z</time></trkpt><trkpt lat="44.3095845" lon="11.26012"><ele>195.0</ele><time>2026-04-12T11:56:21.032Z</time></trkpt><trkpt lat="44.3097065" lon="11.2602435"><ele>195.0</ele><time>2026-04-12T11:56:22.032Z</time></trkpt><trkpt lat="44.3098265" lon="11.2603653"><ele>195.0</ele><time>2026-04-12T11:56:23.032Z</time></trkpt><trkpt lat="44.3099436" lon="11.260481"><ele>195.0</ele><time>2026-04-12T11:56:24.032Z</time></trkpt><trkpt lat="44.3100648" lon="11.2605847"><ele>192.33333333333334</ele><time>2026-04-12T11:56:25.032Z</time></trkpt><trkpt lat="44.3102014" lon="11.2606718"><ele>189.66666666666669</ele><time>2026-04-12T11:56:26.033Z</time></trkpt><trkpt lat="44.3103532" lon="11.2607392"><ele>187.0</ele><time>2026-04-12T11:56:27.032Z</time></trkpt><trkpt lat="44.31051" lon="11.260788"><ele>185.33333333333334</ele><time>2026-04-12T11:56:28.032Z</time></trkpt><trkpt lat="44.3106671" lon="11.2608246"><ele>183.66666666666666</ele><time>2026-04-12T11:56:29.032Z</time></trkpt><trkpt lat="44.3108259" lon="11.2608433"><ele>182.0</ele><time>2026-04-12T11:56:30.032Z</time></trkpt><trkpt lat="44.3109959" lon="11.2608251"><ele>182.0</ele><time>2026-04-12T11:56:31.032Z</time></trkpt><trkpt lat="44.3111809" lon="11.2607594"><ele>182.0</ele><time>2026-04-12T11:56:32.032Z</time></trkpt><trkpt lat="44.3113615" lon="11.2606708"><ele>182.0</ele><time>2026-04-12T11:56:33.032Z</time></trkpt><trkpt lat="44.3115298" lon="11.2605783"><ele>175.0</ele><time>2026-04-12T11:56:34.033Z</time></trkpt><trkpt lat="44.3116865" lon="11.2604844"><ele>168.0</ele><time>2026-04-12T11:56:35.033Z</time></trkpt><trkpt lat="44.3118284" lon="11.2603782"><ele>161.0</ele><time>2026-04-12T11:56:36.032Z</time></trkpt><trkpt lat="44.3119616" lon="11.2602606"><ele>161.0</ele><time>2026-04-12T11:56:37.032Z</time></trkpt><trkpt lat="44.3120924" lon="11.2601372"><ele>161.0</ele><time>2026-04-12T11:56:38.032Z</time></trkpt><trkpt lat="44.3122213" lon="11.260015"><ele>161.0</ele><time>2026-04-12T11:56:39.032Z</time></trkpt><trkpt lat="44.3123498" lon="11.2598946"><ele>160.5</ele><time>2026-04-12T11:56:40.033Z</time></trkpt><trkpt lat="44.3124786" lon="11.2597793"><ele>160.0</ele><time>2026-04-12T11:56:41.033Z</time></trkpt><trkpt lat="44.3126061" lon="11.2596733"><ele>159.5</ele><time>2026-04-12T11:56:42.032Z</time></trkpt><trkpt lat="44.3127334" lon="11.2595783"><ele>159.0</ele><time>2026-04-12T11:56:43.033Z</time></trkpt><trkpt lat="44.3128608" lon="11.2594915"><ele>159.0</ele><time>2026-04-12T11:56:44.033Z</time></trkpt><trkpt lat="44.3129861" lon="11.2594086"><ele>159.0</ele><time>2026-04-12T11:56:45.032Z</time></trkpt><trkpt lat="44.3131066" lon="11.25932"><ele>159.0</ele><time>2026-04-12T11:56:46.033Z</time></trkpt><trkpt lat="44.3132205" lon="11.2592077"><ele>159.0</ele><time>2026-04-12T11:56:47.032Z</time></trkpt><trkpt lat="44.3133318" lon="11.259064"><ele>159.0</ele><time>2026-04-12T11:56:48.032Z</time></trkpt><trkpt lat="44.3134428" lon="11.2589019"><ele>159.0</ele><time>2026-04-12T11:56:49.033Z</time></trkpt><trkpt lat="44.3135532" lon="11.2587351"><ele>159.0</ele><time>2026-04-12T11:56:50.032Z</time></trkpt><trkpt lat="44.3136596" lon="11.2585701"><ele>159.0</ele><time>2026-04-12T11:56:51.032Z</time></trkpt><trkpt lat="44.3137591" lon="11.2584127"><ele>159.0</ele><time>2026-04-12T11:56:52.032Z</time></trkpt><trkpt lat="44.3138509" lon="11.2582659"><ele>159.0</ele><time>2026-04-12T11:56:53.033Z</time></trkpt><trkpt lat="44.3139383" lon="11.2581296"><ele>159.0</ele><time>2026-04-12T11:56:54.032Z</time></trkpt><trkpt lat="44.3140231" lon="11.2580041"><ele>159.0</ele><time>2026-04-12T11:56:55.032Z</time></trkpt><trkpt lat="44.3141033" lon="11.2578916"><ele>159.0</ele><time>2026-04-12T11:56:56.033Z</time></trkpt><trkpt lat="44.3141815" lon="11.2577833"><ele>159.0</ele><time>2026-04-12T11:56:57.032Z</time></trkpt><trkpt lat="44.3142586" lon="11.2576901"><ele>159.0</ele><time>2026-04-12T11:56:58.032Z</time></trkpt><trkpt lat="44.314341" lon="11.2575982"><ele>159.0</ele><time>2026-04-12T11:56:59.032Z</time></trkpt><trkpt lat="44.3144272" lon="11.2575052"><ele>159.0</ele><time>2026-04-12T11:57:00.032Z</time></trkpt><trkpt lat="44.3145169" lon="11.2574148"><ele>159.0</ele><time>2026-04-12T11:57:01.033Z</time></trkpt><trkpt lat="44.3146017" lon="11.2573292"><ele>159.0</ele><time>2026-04-12T11:57:02.033Z</time></trkpt><trkpt lat="44.3146811" lon="11.2572501"><ele>159.0</ele><time>2026-04-12T11:57:03.032Z</time></trkpt><trkpt lat="44.3147577" lon="11.2571667"><ele>159.0</ele><time>2026-04-12T11:57:04.032Z</time></trkpt><trkpt lat="44.3148329" lon="11.2570847"><ele>159.0</ele><time>2026-04-12T11:57:05.033Z</time></trkpt><trkpt lat="44.3149077" lon="11.2570012"><ele>159.0</ele><time>2026-04-12T11:57:06.032Z</time></trkpt><trkpt lat="44.314988" lon="11.2569132"><ele>159.0</ele><time>2026-04-12T11:57:07.034Z</time></trkpt><trkpt lat="44.3150629" lon="11.2568208"><ele>159.0</ele><time>2026-04-12T11:57:08.033Z</time></trkpt><trkpt lat="44.3151349" lon="11.2567307"><ele>159.0</ele><time>2026-04-12T11:57:09.033Z</time></trkpt><trkpt lat="44.3151988" lon="11.2566443"><ele>159.0</ele><time>2026-04-12T11:57:10.032Z</time></trkpt><trkpt lat="44.3152628" lon="11.2565581"><ele>159.0</ele><time>2026-04-12T11:57:11.032Z</time></trkpt><trkpt lat="44.3153313" lon="11.2564667"><ele>159.0</ele><time>2026-04-12T11:57:12.034Z</time></trkpt><trkpt lat="44.3154037" lon="11.2563697"><ele>159.0</ele><time>2026-04-12T11:57:13.033Z</time></trkpt><trkpt lat="44.3154799" lon="11.2562707"><ele>159.0</ele><time>2026-04-12T11:57:14.033Z</time></trkpt><trkpt lat="44.315559" lon="11.2561717"><ele>158.6</ele><time>2026-04-12T11:57:15.034Z</time></trkpt><trkpt lat="44.3156396" lon="11.2560707"><ele>158.2</ele><time>2026-04-12T11:57:16.033Z</time></trkpt><trkpt lat="44.3157228" lon="11.25597"><ele>157.79999999999998</ele><time>2026-04-12T11:57:17.033Z</time></trkpt><trkpt lat="44.3158036" lon="11.2558693"><ele>157.4</ele><time>2026-04-12T11:57:18.033Z</time></trkpt><trkpt lat="44.3158784" lon="11.2557731"><ele>157.0</ele><time>2026-04-12T11:57:19.033Z</time></trkpt><trkpt lat="44.3159498" lon="11.2556897"><ele>156.6</ele><time>2026-04-12T11:57:20.033Z</time></trkpt><trkpt lat="44.3160228" lon="11.255615"><ele>156.2</ele><time>2026-04-12T11:57:21.033Z</time></trkpt><trkpt lat="44.3161074" lon="11.2555438"><ele>155.8</ele><time>2026-04-12T11:57:22.033Z</time></trkpt><trkpt lat="44.3162058" lon="11.2554772"><ele>155.4</ele><time>2026-04-12T11:57:23.033Z</time></trkpt><trkpt lat="44.3163175" lon="11.2554296"><ele>155.0</ele><time>2026-04-12T11:57:24.033Z</time></trkpt><trkpt lat="44.3164372" lon="11.2554046"><ele>156.0</ele><time>2026-04-12T11:57:25.033Z</time></trkpt><trkpt lat="44.3165588" lon="11.2554041"><ele>157.0</ele><time>2026-04-12T11:57:26.033Z</time></trkpt><trkpt lat="44.3166776" lon="11.2554275"><ele>158.0</ele><time>2026-04-12T11:57:27.033Z</time></trkpt><trkpt lat="44.3167898" lon="11.2554778"><ele>159.0</ele><time>2026-04-12T11:57:28.033Z</time></trkpt><trkpt lat="44.3168985" lon="11.2555426"><ele>159.0</ele><time>2026-04-12T11:57:29.034Z</time></trkpt><trkpt lat="44.3169888" lon="11.2556549"><ele>159.0</ele><time>2026-04-12T11:57:30.034Z</time></trkpt><trkpt lat="44.3170751" lon="11.2557852"><ele>159.0</ele><time>2026-04-12T11:57:31.033Z</time></trkpt><trkpt lat="44.3171601" lon="11.2559352"><ele>159.0</ele><time>2026-04-12T11:57:32.033Z</time></trkpt><trkpt lat="44.3172426" lon="11.2560996"><ele>158.75</ele><time>2026-04-12T11:57:33.033Z</time></trkpt><trkpt lat="44.3173212" lon="11.2562641"><ele>158.5</ele><time>2026-04-12T11:57:34.033Z</time></trkpt><trkpt lat="44.317398" lon="11.256427"><ele>158.25</ele><time>2026-04-12T11:57:35.034Z</time></trkpt><trkpt lat="44.3174749" lon="11.2565875"><ele>158.0</ele><time>2026-04-12T11:57:36.033Z</time></trkpt><trkpt lat="44.3175508" lon="11.2567487"><ele>158.0</ele><time>2026-04-12T11:57:37.033Z</time></trkpt><trkpt lat="44.3176272" lon="11.256912"><ele>158.0</ele><time>2026-04-12T11:57:38.034Z</time></trkpt><trkpt lat="44.3177027" lon="11.2570827"><ele>158.0</ele><time>2026-04-12T11:57:39.033Z</time></trkpt><trkpt lat="44.3177854" lon="11.2572523"><ele>158.0</ele><time>2026-04-12T11:57:40.034Z</time></trkpt><trkpt lat="44.3178682" lon="11.2574232"><ele>158.66666666666666</ele><time>2026-04-12T11:57:41.034Z</time></trkpt><trkpt lat="44.3179536" lon="11.2576003"><ele>159.33333333333334</ele><time>2026-04-12T11:57:42.033Z</time></trkpt><trkpt lat="44.3180385" lon="11.2577768"><ele>160.0</ele><time>2026-04-12T11:57:43.034Z</time></trkpt><trkpt lat="44.3181232" lon="11.2579522"><ele>159.0</ele><time>2026-04-12T11:57:44.034Z</time></trkpt><trkpt lat="44.3182068" lon="11.2581275"><ele>158.0</ele><time>2026-04-12T11:57:45.033Z</time></trkpt><trkpt lat="44.3182897" lon="11.2583032"><ele>157.0</ele><time>2026-04-12T11:57:46.033Z</time></trkpt><trkpt lat="44.3183718" lon="11.2584764"><ele>157.0</ele><time>2026-04-12T11:57:47.033Z</time></trkpt><trkpt lat="44.3184556" lon="11.2586453"><ele>157.0</ele><time>2026-04-12T11:57:48.033Z</time></trkpt><trkpt lat="44.3185472" lon="11.2588069"><ele>157.0</ele><time>2026-04-12T11:57:49.033Z</time></trkpt><trkpt lat="44.318647" lon="11.2589598"><ele>157.0</ele><time>2026-04-12T11:57:50.033Z</time></trkpt><trkpt lat="44.3187574" lon="11.2590994"><ele>157.25</ele><time>2026-04-12T11:57:51.033Z</time></trkpt><trkpt lat="44.3188796" lon="11.2592258"><ele>157.5</ele><time>2026-04-12T11:57:52.033Z</time></trkpt><trkpt lat="44.3190094" lon="11.2593366"><ele>157.75</ele><time>2026-04-12T11:57:53.034Z</time></trkpt><trkpt lat="44.3191355" lon="11.2594284"><ele>158.0</ele><time>2026-04-12T11:57:54.033Z</time></trkpt><trkpt lat="44.3192545" lon="11.259502"><ele>158.0</ele><time>2026-04-12T11:57:55.033Z</time></trkpt><trkpt lat="44.3193647" lon="11.2595598"><ele>158.0</ele><time>2026-04-12T11:57:56.033Z</time></trkpt><trkpt lat="44.3194607" lon="11.2596063"><ele>158.0</ele><time>2026-04-12T11:57:57.033Z</time></trkpt><trkpt lat="44.3195378" lon="11.2596445"><ele>158.0</ele><time>2026-04-12T11:57:58.033Z</time></trkpt><trkpt lat="44.3196002" lon="11.2596783"><ele>158.0</ele><time>2026-04-12T11:57:59.033Z</time></trkpt><trkpt lat="44.3196898" lon="11.2597222"><ele>158.4</ele><time>2026-04-12T11:58:01.033Z</time></trkpt><trkpt lat="44.3197819" lon="11.2597743"><ele>158.8</ele><time>2026-04-12T11:58:29.033Z</time></trkpt><trkpt lat="44.3199124" lon="11.259833"><ele>159.2</ele><time>2026-04-12T11:58:31.034Z</time></trkpt><trkpt lat="44.3199956" lon="11.2598702"><ele>159.6</ele><time>2026-04-12T11:58:32.033Z</time></trkpt><trkpt lat="44.3200925" lon="11.2599113"><ele>160.0</ele><time>2026-04-12T11:58:33.033Z</time></trkpt><trkpt lat="44.3201968" lon="11.2599582"><ele>160.0</ele><time>2026-04-12T11:58:34.034Z</time></trkpt><trkpt lat="44.3203027" lon="11.2600065"><ele>160.0</ele><time>2026-04-12T11:58:35.033Z</time></trkpt><trkpt lat="44.3204111" lon="11.2600554"><ele>160.0</ele><time>2026-04-12T11:58:36.033Z</time></trkpt><trkpt lat="44.3205225" lon="11.2601076"><ele>160.0</ele><time>2026-04-12T11:58:37.033Z</time></trkpt><trkpt lat="44.3206439" lon="11.2601645"><ele>159.0</ele><time>2026-04-12T11:58:38.033Z</time></trkpt><trkpt lat="44.3207711" lon="11.2602241"><ele>158.0</ele><time>2026-04-12T11:58:39.033Z</time></trkpt><trkpt lat="44.3209016" lon="11.2602867"><ele>157.0</ele><time>2026-04-12T11:58:40.033Z</time></trkpt><trkpt lat="44.3210338" lon="11.26035"><ele>156.0</ele><time>2026-04-12T11:58:41.034Z</time></trkpt><trkpt lat="44.3211714" lon="11.2604172"><ele>156.0</ele><time>2026-04-12T11:58:42.035Z</time></trkpt><trkpt lat="44.3213146" lon="11.2604964"><ele>156.0</ele><time>2026-04-12T11:58:43.034Z</time></trkpt><trkpt lat="44.321458" lon="11.2605891"><ele>156.0</ele><time>2026-04-12T11:58:44.034Z</time></trkpt><trkpt lat="44.3215953" lon="11.2606853"><ele>157.25</ele><time>2026-04-12T11:58:45.034Z</time></trkpt><trkpt lat="44.3217199" lon="11.2607747"><ele>158.5</ele><time>2026-04-12T11:58:46.035Z</time></trkpt><trkpt lat="44.3218333" lon="11.2608568"><ele>159.75</ele><time>2026-04-12T11:58:47.034Z</time></trkpt><trkpt lat="44.321937" lon="11.2609292"><ele>161.0</ele><time>2026-04-12T11:58:48.034Z</time></trkpt><trkpt lat="44.3220328" lon="11.2609947"><ele>161.0</ele><time>2026-04-12T11:58:49.035Z</time></trkpt><trkpt lat="44.3221264" lon="11.2610591"><ele>161.0</ele><time>2026-04-12T11:58:50.034Z</time></trkpt><trkpt lat="44.3222206" lon="11.2611253"><ele>161.0</ele><time>2026-04-12T11:58:51.034Z</time></trkpt><trkpt lat="44.3223166" lon="11.2611908"><ele>161.0</ele><time>2026-04-12T11:58:52.034Z</time></trkpt><trkpt lat="44.3224138" lon="11.2612557"><ele>161.0</ele><time>2026-04-12T11:58:53.034Z</time></trkpt><trkpt lat="44.3225117" lon="11.2613192"><ele>161.75</ele><time>2026-04-12T11:58:54.034Z</time></trkpt><trkpt lat="44.3226109" lon="11.2613811"><ele>162.5</ele><time>2026-04-12T11:58:55.034Z</time></trkpt><trkpt lat="44.3227124" lon="11.2614431"><ele>163.25</ele><time>2026-04-12T11:58:56.034Z</time></trkpt><trkpt lat="44.3228188" lon="11.2615035"><ele>164.0</ele><time>2026-04-12T11:58:57.034Z</time></trkpt><trkpt lat="44.3229321" lon="11.2615707"><ele>164.0</ele><time>2026-04-12T11:58:58.034Z</time></trkpt><trkpt lat="44.3230567" lon="11.2616465"><ele>164.0</ele><time>2026-04-12T11:58:59.034Z</time></trkpt><trkpt lat="44.32319" lon="11.2617312"><ele>164.0</ele><time>2026-04-12T11:59:00.034Z</time></trkpt><trkpt lat="44.3233444" lon="11.2618218"><ele>161.33333333333331</ele><time>2026-04-12T11:59:01.034Z</time></trkpt><trkpt lat="44.3235102" lon="11.2619049"><ele>158.66666666666666</ele><time>2026-04-12T11:59:02.034Z</time></trkpt><trkpt lat="44.323687" lon="11.2619762"><ele>156.0</ele><time>2026-04-12T11:59:03.034Z</time></trkpt><trkpt lat="44.3238669" lon="11.2620401"><ele>154.33333333333334</ele><time>2026-04-12T11:59:04.034Z</time></trkpt><trkpt lat="44.3240503" lon="11.2620791"><ele>152.66666666666669</ele><time>2026-04-12T11:59:05.034Z</time></trkpt><trkpt lat="44.3242311" lon="11.26211"><ele>151.0</ele><time>2026-04-12T11:59:06.034Z</time></trkpt><trkpt lat="44.3244118" lon="11.262129"><ele>151.0</ele><time>2026-04-12T11:59:07.034Z</time></trkpt><trkpt lat="44.3246002" lon="11.2621419"><ele>151.0</ele><time>2026-04-12T11:59:08.034Z</time></trkpt><trkpt lat="44.3247997" lon="11.262151"><ele>151.0</ele><time>2026-04-12T11:59:09.034Z</time></trkpt><trkpt lat="44.3250023" lon="11.2621535"><ele>150.0</ele><time>2026-04-12T11:59:10.034Z</time></trkpt><trkpt lat="44.3252024" lon="11.2621544"><ele>149.0</ele><time>2026-04-12T11:59:11.034Z</time></trkpt><trkpt lat="44.3253987" lon="11.2621593"><ele>148.0</ele><time>2026-04-12T11:59:12.034Z</time></trkpt><trkpt lat="44.3255881" lon="11.262171"><ele>147.33333333333334</ele><time>2026-04-12T11:59:13.034Z</time></trkpt><trkpt lat="44.3257616" lon="11.2621958"><ele>146.66666666666666</ele><time>2026-04-12T11:59:14.034Z</time></trkpt><trkpt lat="44.3259325" lon="11.2622521"><ele>146.0</ele><time>2026-04-12T11:59:15.034Z</time></trkpt><trkpt lat="44.3261019" lon="11.2623312"><ele>147.33333333333331</ele><time>2026-04-12T11:59:16.034Z</time></trkpt><trkpt lat="44.3262698" lon="11.2624402"><ele>148.66666666666666</ele><time>2026-04-12T11:59:17.034Z</time></trkpt><trkpt lat="44.326436" lon="11.2625789"><ele>150.0</ele><time>2026-04-12T11:59:18.034Z</time></trkpt><trkpt lat="44.3265883" lon="11.2627326"><ele>150.0</ele><time>2026-04-12T11:59:19.034Z</time></trkpt><trkpt lat="44.3267038" lon="11.2628839"><ele>150.0</ele><time>2026-04-12T11:59:20.034Z</time></trkpt><trkpt lat="44.3267986" lon="11.2630148"><ele>150.0</ele><time>2026-04-12T11:59:21.035Z</time></trkpt><trkpt lat="44.3268757" lon="11.2631556"><ele>150.0</ele><time>2026-04-12T11:59:22.034Z</time></trkpt><trkpt lat="44.3269353" lon="11.2632945"><ele>150.5</ele><time>2026-04-12T11:59:23.034Z</time></trkpt><trkpt lat="44.3269858" lon="11.2634145"><ele>151.0</ele><time>2026-04-12T11:59:24.034Z</time></trkpt><trkpt lat="44.3270387" lon="11.2635113"><ele>151.5</ele><time>2026-04-12T11:59:25.034Z</time></trkpt><trkpt lat="44.3271011" lon="11.2635754"><ele>152.0</ele><time>2026-04-12T11:59:26.035Z</time></trkpt><trkpt lat="44.327179" lon="11.2636129"><ele>152.5</ele><time>2026-04-12T11:59:27.034Z</time></trkpt><trkpt lat="44.3272586" lon="11.2636416"><ele>153.0</ele><time>2026-04-12T11:59:28.034Z</time></trkpt><trkpt lat="44.3273396" lon="11.2636891"><ele>151.5</ele><time>2026-04-12T11:59:29.034Z</time></trkpt><trkpt lat="44.3274239" lon="11.2637836"><ele>150.0</ele><time>2026-04-12T11:59:30.034Z</time></trkpt><trkpt lat="44.3275204" lon="11.2639415"><ele>148.5</ele><time>2026-04-12T11:59:31.034Z</time></trkpt><trkpt lat="44.3276247" lon="11.2641453"><ele>147.0</ele><time>2026-04-12T11:59:32.035Z</time></trkpt><trkpt lat="44.3277342" lon="11.2643611"><ele>147.0</ele><time>2026-04-12T11:59:33.034Z</time></trkpt><trkpt lat="44.327845" lon="11.2646035"><ele>147.0</ele><time>2026-04-12T11:59:34.035Z</time></trkpt><trkpt lat="44.3279632" lon="11.2648651"><ele>147.0</ele><time>2026-04-12T11:59:35.034Z</time></trkpt><trkpt lat="44.3280985" lon="11.2651533"><ele>147.5</ele><time>2026-04-12T11:59:36.034Z</time></trkpt><trkpt lat="44.3282575" lon="11.2654676"><ele>148.0</ele><time>2026-04-12T11:59:37.034Z</time></trkpt><trkpt lat="44.3284167" lon="11.265795"><ele>148.5</ele><time>2026-04-12T11:59:38.034Z</time></trkpt><trkpt lat="44.3285631" lon="11.266124"><ele>149.0</ele><time>2026-04-12T11:59:39.034Z</time></trkpt><trkpt lat="44.3287051" lon="11.266447"><ele>147.5</ele><time>2026-04-12T11:59:40.034Z</time></trkpt><trkpt lat="44.3288526" lon="11.2667773"><ele>146.0</ele><time>2026-04-12T11:59:41.034Z</time></trkpt><trkpt lat="44.329009" lon="11.2671167"><ele>150.0</ele><time>2026-04-12T11:59:42.034Z</time></trkpt><trkpt lat="44.3291563" lon="11.267442"><ele>154.0</ele><time>2026-04-12T11:59:43.035Z</time></trkpt><trkpt lat="44.3293031" lon="11.2677536"><ele>154.0</ele><time>2026-04-12T11:59:44.034Z</time></trkpt><trkpt lat="44.3294432" lon="11.2680434"><ele>154.0</ele><time>2026-04-12T11:59:45.035Z</time></trkpt><trkpt lat="44.3295779" lon="11.2683215"><ele>152.0</ele><time>2026-04-12T11:59:46.034Z</time></trkpt><trkpt lat="44.3297073" lon="11.2685814"><ele>150.0</ele><time>2026-04-12T11:59:47.035Z</time></trkpt><trkpt lat="44.3298491" lon="11.2688214"><ele>148.0</ele><time>2026-04-12T11:59:48.034Z</time></trkpt><trkpt lat="44.3300113" lon="11.2690513"><ele>148.0</ele><time>2026-04-12T11:59:49.034Z</time></trkpt><trkpt lat="44.3301799" lon="11.2692631"><ele>148.0</ele><time>2026-04-12T11:59:50.034Z</time></trkpt><trkpt lat="44.3303648" lon="11.2694633"><ele>149.0</ele><time>2026-04-12T11:59:51.034Z</time></trkpt><trkpt lat="44.3305661" lon="11.2696486"><ele>150.0</ele><time>2026-04-12T11:59:52.034Z</time></trkpt><trkpt lat="44.3307813" lon="11.2698008"><ele>150.0</ele><time>2026-04-12T11:59:53.034Z</time></trkpt><trkpt lat="44.3310136" lon="11.2699291"><ele>150.0</ele><time>2026-04-12T11:59:54.034Z</time></trkpt><trkpt lat="44.3312521" lon="11.2700266"><ele>148.0</ele><time>2026-04-12T11:59:55.034Z</time></trkpt><trkpt lat="44.3314994" lon="11.2701047"><ele>146.0</ele><time>2026-04-12T11:59:56.035Z</time></trkpt><trkpt lat="44.3317483" lon="11.2701434"><ele>146.0</ele><time>2026-04-12T11:59:57.034Z</time></trkpt><trkpt lat="44.3320025" lon="11.2701466"><ele>146.0</ele><time>2026-04-12T11:59:58.034Z</time></trkpt><trkpt lat="44.3322763" lon="11.270116"><ele>147.0</ele><time>2026-04-12T11:59:59.034Z</time></trkpt><trkpt lat="44.3325538" lon="11.2700546"><ele>148.0</ele><time>2026-04-12T12:00:00.034Z</time></trkpt><trkpt lat="44.3328215" lon="11.2699868"><ele>149.5</ele><time>2026-04-12T12:00:01.034Z</time></trkpt><trkpt lat="44.3330708" lon="11.2699079"><ele>151.0</ele><time>2026-04-12T12:00:02.034Z</time></trkpt><trkpt lat="44.3333175" lon="11.2698274"><ele>144.0</ele><time>2026-04-12T12:00:03.034Z</time></trkpt><trkpt lat="44.3335447" lon="11.2697536"><ele>137.0</ele><time>2026-04-12T12:00:04.034Z</time></trkpt><trkpt lat="44.3337592" lon="11.2696833"><ele>137.66666666666666</ele><time>2026-04-12T12:00:05.035Z</time></trkpt><trkpt lat="44.3339457" lon="11.2696235"><ele>138.33333333333334</ele><time>2026-04-12T12:00:06.034Z</time></trkpt><trkpt lat="44.3341019" lon="11.2695755"><ele>139.0</ele><time>2026-04-12T12:00:07.034Z</time></trkpt><trkpt lat="44.3342436" lon="11.2695534"><ele>139.0</ele><time>2026-04-12T12:00:08.034Z</time></trkpt><trkpt lat="44.3343744" lon="11.2695719"><ele>139.0</ele><time>2026-04-12T12:00:09.034Z</time></trkpt><trkpt lat="44.3345089" lon="11.2696093"><ele>139.0</ele><time>2026-04-12T12:00:10.035Z</time></trkpt><trkpt lat="44.3346577" lon="11.2696236"><ele>139.0</ele><time>2026-04-12T12:00:11.035Z</time></trkpt><trkpt lat="44.3348443" lon="11.2696053"><ele>140.0</ele><time>2026-04-12T12:00:12.035Z</time></trkpt><trkpt lat="44.3350529" lon="11.2695846"><ele>141.0</ele><time>2026-04-12T12:00:13.035Z</time></trkpt><trkpt lat="44.335284" lon="11.2695688"><ele>142.0</ele><time>2026-04-12T12:00:14.035Z</time></trkpt><trkpt lat="44.3355141" lon="11.2695502"><ele>142.0</ele><time>2026-04-12T12:00:15.035Z</time></trkpt><trkpt lat="44.3357347" lon="11.2695113"><ele>142.0</ele><time>2026-04-12T12:00:16.035Z</time></trkpt><trkpt lat="44.3359439" lon="11.2694544"><ele>142.0</ele><time>2026-04-12T12:00:17.035Z</time></trkpt><trkpt lat="44.3361536" lon="11.2693764"><ele>142.0</ele><time>2026-04-12T12:00:18.035Z</time></trkpt><trkpt lat="44.3363685" lon="11.2692895"><ele>142.0</ele><time>2026-04-12T12:00:19.036Z</time></trkpt><trkpt lat="44.3365849" lon="11.2691911"><ele>142.0</ele><time>2026-04-12T12:00:20.035Z</time></trkpt><trkpt lat="44.3368033" lon="11.2690798"><ele>142.0</ele><time>2026-04-12T12:00:21.035Z</time></trkpt><trkpt lat="44.337016" lon="11.2689629"><ele>141.0</ele><time>2026-04-12T12:00:22.035Z</time></trkpt><trkpt lat="44.337222" lon="11.2688449"><ele>140.0</ele><time>2026-04-12T12:00:23.036Z</time></trkpt><trkpt lat="44.3374293" lon="11.2687316"><ele>139.0</ele><time>2026-04-12T12:00:24.036Z</time></trkpt><trkpt lat="44.3376357" lon="11.2686289"><ele>139.0</ele><time>2026-04-12T12:00:25.035Z</time></trkpt><trkpt lat="44.3378419" lon="11.2685396"><ele>139.0</ele><time>2026-04-12T12:00:26.036Z</time></trkpt><trkpt lat="44.3380499" lon="11.2684522"><ele>139.0</ele><time>2026-04-12T12:00:27.035Z</time></trkpt><trkpt lat="44.3382543" lon="11.2683881"><ele>140.33333333333334</ele><time>2026-04-12T12:00:28.035Z</time></trkpt><trkpt lat="44.3384635" lon="11.2683404"><ele>141.66666666666666</ele><time>2026-04-12T12:00:29.035Z</time></trkpt><trkpt lat="44.3386757" lon="11.2682968"><ele>143.0</ele><time>2026-04-12T12:00:30.035Z</time></trkpt><trkpt lat="44.3388765" lon="11.2682716"><ele>143.0</ele><time>2026-04-12T12:00:31.036Z</time></trkpt><trkpt lat="44.3390705" lon="11.2682508"><ele>143.0</ele><time>2026-04-12T12:00:32.035Z</time></trkpt><trkpt lat="44.3392564" lon="11.2682427"><ele>143.0</ele><time>2026-04-12T12:00:33.035Z</time></trkpt><trkpt lat="44.3394362" lon="11.2682519"><ele>143.0</ele><time>2026-04-12T12:00:34.035Z</time></trkpt><trkpt lat="44.3396056" lon="11.2682686"><ele>143.0</ele><time>2026-04-12T12:00:35.035Z</time></trkpt><trkpt lat="44.339766" lon="11.2683119"><ele>143.0</ele><time>2026-04-12T12:00:36.035Z</time></trkpt><trkpt lat="44.3399142" lon="11.2683711"><ele>141.75</ele><time>2026-04-12T12:00:37.035Z</time></trkpt><trkpt lat="44.3400401" lon="11.2684353"><ele>140.5</ele><time>2026-04-12T12:00:38.035Z</time></trkpt><trkpt lat="44.3401616" lon="11.268497"><ele>139.25</ele><time>2026-04-12T12:00:39.035Z</time></trkpt><trkpt lat="44.3402743" lon="11.2685484"><ele>138.0</ele><time>2026-04-12T12:00:40.035Z</time></trkpt><trkpt lat="44.3403821" lon="11.2686022"><ele>138.0</ele><time>2026-04-12T12:00:41.035Z</time></trkpt><trkpt lat="44.3404945" lon="11.268652"><ele>138.0</ele><time>2026-04-12T12:00:42.035Z</time></trkpt><trkpt lat="44.3406114" lon="11.2687102"><ele>138.0</ele><time>2026-04-12T12:00:43.036Z</time></trkpt><trkpt lat="44.3407425" lon="11.2687567"><ele>138.0</ele><time>2026-04-12T12:00:44.036Z</time></trkpt><trkpt lat="44.3408814" lon="11.2688078"><ele>136.66666666666666</ele><time>2026-04-12T12:00:45.036Z</time></trkpt><trkpt lat="44.341041" lon="11.2688556"><ele>135.33333333333331</ele><time>2026-04-12T12:00:46.035Z</time></trkpt><trkpt lat="44.341221" lon="11.268903"><ele>134.0</ele><time>2026-04-12T12:00:47.036Z</time></trkpt><trkpt lat="44.3414185" lon="11.2689386"><ele>133.66666666666666</ele><time>2026-04-12T12:00:48.035Z</time></trkpt><trkpt lat="44.3416142" lon="11.2689786"><ele>133.33333333333334</ele><time>2026-04-12T12:00:49.035Z</time></trkpt><trkpt lat="44.3418118" lon="11.2690052"><ele>133.0</ele><time>2026-04-12T12:00:50.035Z</time></trkpt><trkpt lat="44.342012" lon="11.2690193"><ele>133.0</ele><time>2026-04-12T12:00:51.035Z</time></trkpt><trkpt lat="44.3422018" lon="11.2690329"><ele>133.0</ele><time>2026-04-12T12:00:52.035Z</time></trkpt><trkpt lat="44.3423818" lon="11.2690338"><ele>133.0</ele><time>2026-04-12T12:00:53.035Z</time></trkpt><trkpt lat="44.34256" lon="11.2690179"><ele>132.66666666666669</ele><time>2026-04-12T12:00:54.036Z</time></trkpt><trkpt lat="44.3427353" lon="11.2690006"><ele>132.33333333333334</ele><time>2026-04-12T12:00:55.035Z</time></trkpt><trkpt lat="44.3429124" lon="11.2689878"><ele>132.0</ele><time>2026-04-12T12:00:56.036Z</time></trkpt><trkpt lat="44.3430982" lon="11.2689662"><ele>131.66666666666666</ele><time>2026-04-12T12:00:57.035Z</time></trkpt><trkpt lat="44.3432989" lon="11.2689441"><ele>131.33333333333331</ele><time>2026-04-12T12:00:58.035Z</time></trkpt><trkpt lat="44.3435331" lon="11.268919"><ele>131.0</ele><time>2026-04-12T12:00:59.035Z</time></trkpt><trkpt lat="44.3437869" lon="11.2688735"><ele>130.5</ele><time>2026-04-12T12:01:00.036Z</time></trkpt><trkpt lat="44.3440684" lon="11.2688298"><ele>130.0</ele><time>2026-04-12T12:01:01.035Z</time></trkpt><trkpt lat="44.3443529" lon="11.2687836"><ele>130.0</ele><time>2026-04-12T12:01:02.035Z</time></trkpt><trkpt lat="44.3446345" lon="11.2687401"><ele>130.0</ele><time>2026-04-12T12:01:03.035Z</time></trkpt><trkpt lat="44.3449031" lon="11.2687028"><ele>130.0</ele><time>2026-04-12T12:01:04.035Z</time></trkpt><trkpt lat="44.3451604" lon="11.2686656"><ele>130.0</ele><time>2026-04-12T12:01:05.036Z</time></trkpt><trkpt lat="44.3454085" lon="11.2686318"><ele>129.5</ele><time>2026-04-12T12:01:06.035Z</time></trkpt><trkpt lat="44.3456476" lon="11.2685997"><ele>129.0</ele><time>2026-04-12T12:01:07.035Z</time></trkpt><trkpt lat="44.345883" lon="11.2685775"><ele>129.0</ele><time>2026-04-12T12:01:08.036Z</time></trkpt><trkpt lat="44.3461173" lon="11.2685484"><ele>129.0</ele><time>2026-04-12T12:01:09.036Z</time></trkpt><trkpt lat="44.3463549" lon="11.2685142"><ele>129.5</ele><time>2026-04-12T12:01:10.036Z</time></trkpt><trkpt lat="44.3465985" lon="11.2684727"><ele>130.0</ele><time>2026-04-12T12:01:11.035Z</time></trkpt><trkpt lat="44.3468444" lon="11.2684358"><ele>130.0</ele><time>2026-04-12T12:01:12.035Z</time></trkpt><trkpt lat="44.3470956" lon="11.2683907"><ele>130.0</ele><time>2026-04-12T12:01:13.036Z</time></trkpt><trkpt lat="44.3473415" lon="11.2683472"><ele>130.5</ele><time>2026-04-12T12:01:14.035Z</time></trkpt><trkpt lat="44.3475823" lon="11.268302"><ele>131.0</ele><time>2026-04-12T12:01:15.035Z</time></trkpt><trkpt lat="44.3478251" lon="11.2682554"><ele>135.5</ele><time>2026-04-12T12:01:16.035Z</time></trkpt><trkpt lat="44.3480871" lon="11.2682101"><ele>140.0</ele><time>2026-04-12T12:01:17.036Z</time></trkpt><trkpt lat="44.3483676" lon="11.2681545"><ele>133.0</ele><time>2026-04-12T12:01:18.035Z</time></trkpt><trkpt lat="44.3486511" lon="11.2680853"><ele>126.0</ele><time>2026-04-12T12:01:19.035Z</time></trkpt><trkpt lat="44.3489423" lon="11.2680212"><ele>126.0</ele><time>2026-04-12T12:01:20.035Z</time></trkpt><trkpt lat="44.3492204" lon="11.2679638"><ele>126.0</ele><time>2026-04-12T12:01:21.035Z</time></trkpt><trkpt lat="44.3494771" lon="11.2679051"><ele>126.5</ele><time>2026-04-12T12:01:22.035Z</time></trkpt><trkpt lat="44.3497285" lon="11.2678484"><ele>127.0</ele><time>2026-04-12T12:01:23.036Z</time></trkpt><trkpt lat="44.3499637" lon="11.2677887"><ele>127.0</ele><time>2026-04-12T12:01:24.035Z</time></trkpt><trkpt lat="44.3501845" lon="11.2677184"><ele>127.0</ele><time>2026-04-12T12:01:25.036Z</time></trkpt><trkpt lat="44.3503924" lon="11.2676474"><ele>127.0</ele><time>2026-04-12T12:01:26.035Z</time></trkpt><trkpt lat="44.3505874" lon="11.2675582"><ele>126.66666666666667</ele><time>2026-04-12T12:01:27.035Z</time></trkpt><trkpt lat="44.3507684" lon="11.267436"><ele>126.33333333333334</ele><time>2026-04-12T12:01:28.035Z</time></trkpt><trkpt lat="44.3509549" lon="11.2673128"><ele>126.0</ele><time>2026-04-12T12:01:29.035Z</time></trkpt><trkpt lat="44.3511499" lon="11.2671836"><ele>126.0</ele><time>2026-04-12T12:01:30.035Z</time></trkpt><trkpt lat="44.3513459" lon="11.2670633"><ele>126.0</ele><time>2026-04-12T12:01:31.035Z</time></trkpt><trkpt lat="44.3515588" lon="11.266964"><ele>126.0</ele><time>2026-04-12T12:01:32.035Z</time></trkpt><trkpt lat="44.3517936" lon="11.2668942"><ele>127.0</ele><time>2026-04-12T12:01:33.035Z</time></trkpt><trkpt lat="44.3520412" lon="11.2668334"><ele>128.0</ele><time>2026-04-12T12:01:34.035Z</time></trkpt><trkpt lat="44.35229" lon="11.2667695"><ele>130.0</ele><time>2026-04-12T12:01:35.035Z</time></trkpt><trkpt lat="44.3525407" lon="11.2666971"><ele>132.0</ele><time>2026-04-12T12:01:36.037Z</time></trkpt><trkpt lat="44.352791" lon="11.2665995"><ele>133.5</ele><time>2026-04-12T12:01:37.037Z</time></trkpt><trkpt lat="44.3530411" lon="11.2664801"><ele>135.0</ele><time>2026-04-12T12:01:38.036Z</time></trkpt><trkpt lat="44.3532932" lon="11.2663643"><ele>129.0</ele><time>2026-04-12T12:01:39.036Z</time></trkpt><trkpt lat="44.3535321" lon="11.2662494"><ele>123.0</ele><time>2026-04-12T12:01:40.037Z</time></trkpt><trkpt lat="44.3537665" lon="11.2661254"><ele>122.0</ele><time>2026-04-12T12:01:41.036Z</time></trkpt><trkpt lat="44.3540022" lon="11.2660047"><ele>121.0</ele><time>2026-04-12T12:01:42.036Z</time></trkpt><trkpt lat="44.3542298" lon="11.2658835"><ele>121.0</ele><time>2026-04-12T12:01:43.037Z</time></trkpt><trkpt lat="44.3544577" lon="11.2657589"><ele>121.0</ele><time>2026-04-12T12:01:44.036Z</time></trkpt><trkpt lat="44.3546877" lon="11.2656411"><ele>118.5</ele><time>2026-04-12T12:01:45.036Z</time></trkpt><trkpt lat="44.3549126" lon="11.265517"><ele>116.0</ele><time>2026-04-12T12:01:46.037Z</time></trkpt><trkpt lat="44.3551393" lon="11.2654026"><ele>116.0</ele><time>2026-04-12T12:01:47.036Z</time></trkpt><trkpt lat="44.3553642" lon="11.2652907"><ele>116.0</ele><time>2026-04-12T12:01:48.036Z</time></trkpt><trkpt lat="44.3555878" lon="11.265179"><ele>118.5</ele><time>2026-04-12T12:01:49.036Z</time></trkpt><trkpt lat="44.3558126" lon="11.2650616"><ele>121.0</ele><time>2026-04-12T12:01:50.036Z</time></trkpt><trkpt lat="44.3560291" lon="11.264943"><ele>121.0</ele><time>2026-04-12T12:01:51.036Z</time></trkpt><trkpt lat="44.3562609" lon="11.2648247"><ele>121.0</ele><time>2026-04-12T12:01:52.036Z</time></trkpt><trkpt lat="44.3564879" lon="11.2647144"><ele>120.0</ele><time>2026-04-12T12:01:53.036Z</time></trkpt><trkpt lat="44.356702" lon="11.2646006"><ele>119.0</ele><time>2026-04-12T12:01:54.037Z</time></trkpt><trkpt lat="44.3568993" lon="11.2644972"><ele>118.0</ele><time>2026-04-12T12:01:55.036Z</time></trkpt><trkpt lat="44.3570859" lon="11.2643984"><ele>120.66666666666667</ele><time>2026-04-12T12:01:56.036Z</time></trkpt><trkpt lat="44.3572602" lon="11.2643154"><ele>123.33333333333334</ele><time>2026-04-12T12:01:57.036Z</time></trkpt><trkpt lat="44.3574241" lon="11.2642311"><ele>126.0</ele><time>2026-04-12T12:01:58.036Z</time></trkpt><trkpt lat="44.3575787" lon="11.2641501"><ele>126.0</ele><time>2026-04-12T12:01:59.037Z</time></trkpt><trkpt lat="44.3577229" lon="11.2640744"><ele>126.0</ele><time>2026-04-12T12:02:00.036Z</time></trkpt><trkpt lat="44.3578537" lon="11.264004"><ele>126.0</ele><time>2026-04-12T12:02:01.036Z</time></trkpt><trkpt lat="44.3579857" lon="11.2639364"><ele>126.0</ele><time>2026-04-12T12:02:02.036Z</time></trkpt><trkpt lat="44.3581086" lon="11.2638646"><ele>124.8</ele><time>2026-04-12T12:02:03.036Z</time></trkpt><trkpt lat="44.3582222" lon="11.2638031"><ele>123.6</ele><time>2026-04-12T12:02:04.036Z</time></trkpt><trkpt lat="44.3583243" lon="11.2637512"><ele>122.4</ele><time>2026-04-12T12:02:05.036Z</time></trkpt><trkpt lat="44.358427" lon="11.2636999"><ele>121.2</ele><time>2026-04-12T12:02:06.036Z</time></trkpt><trkpt lat="44.3585194" lon="11.2636415"><ele>120.0</ele><time>2026-04-12T12:02:07.036Z</time></trkpt><trkpt lat="44.3586288" lon="11.2635793"><ele>120.0</ele><time>2026-04-12T12:02:08.036Z</time></trkpt><trkpt lat="44.3587535" lon="11.2635317"><ele>120.0</ele><time>2026-04-12T12:02:09.036Z</time></trkpt><trkpt lat="44.3588951" lon="11.2635079"><ele>120.0</ele><time>2026-04-12T12:02:10.036Z</time></trkpt><trkpt lat="44.3590556" lon="11.2634956"><ele>120.0</ele><time>2026-04-12T12:02:11.036Z</time></trkpt><trkpt lat="44.3592324" lon="11.2634882"><ele>120.33333333333334</ele><time>2026-04-12T12:02:12.036Z</time></trkpt><trkpt lat="44.3594058" lon="11.2634912"><ele>120.66666666666667</ele><time>2026-04-12T12:02:13.036Z</time></trkpt><trkpt lat="44.3595616" lon="11.263497"><ele>121.0</ele><time>2026-04-12T12:02:14.036Z</time></trkpt><trkpt lat="44.3597109" lon="11.2634993"><ele>120.33333333333334</ele><time>2026-04-12T12:02:15.037Z</time></trkpt><trkpt lat="44.3598609" lon="11.263509"><ele>119.66666666666666</ele><time>2026-04-12T12:02:16.036Z</time></trkpt><trkpt lat="44.3600254" lon="11.2635258"><ele>119.0</ele><time>2026-04-12T12:02:17.036Z</time></trkpt><trkpt lat="44.3601825" lon="11.263545"><ele>119.0</ele><time>2026-04-12T12:02:18.036Z</time></trkpt><trkpt lat="44.360344" lon="11.263566"><ele>119.0</ele><time>2026-04-12T12:02:19.036Z</time></trkpt><trkpt lat="44.3605005" lon="11.2635776"><ele>119.0</ele><time>2026-04-12T12:02:20.036Z</time></trkpt><trkpt lat="44.3606553" lon="11.2635937"><ele>118.66666666666666</ele><time>2026-04-12T12:02:21.036Z</time></trkpt><trkpt lat="44.3608143" lon="11.2636059"><ele>118.33333333333334</ele><time>2026-04-12T12:02:22.037Z</time></trkpt><trkpt lat="44.3609744" lon="11.2636066"><ele>118.0</ele><time>2026-04-12T12:02:23.036Z</time></trkpt><trkpt lat="44.3611478" lon="11.2635733"><ele>118.0</ele><time>2026-04-12T12:02:24.036Z</time></trkpt><trkpt lat="44.3613234" lon="11.2635051"><ele>118.0</ele><time>2026-04-12T12:02:25.036Z</time></trkpt><trkpt lat="44.3615007" lon="11.2633875"><ele>118.0</ele><time>2026-04-12T12:02:26.036Z</time></trkpt><trkpt lat="44.361673" lon="11.2632596"><ele>117.66666666666667</ele><time>2026-04-12T12:02:27.036Z</time></trkpt><trkpt lat="44.3618577" lon="11.2631469"><ele>117.33333333333334</ele><time>2026-04-12T12:02:28.037Z</time></trkpt><trkpt lat="44.362073" lon="11.263041"><ele>117.0</ele><time>2026-04-12T12:02:29.036Z</time></trkpt><trkpt lat="44.3622992" lon="11.2629574"><ele>117.0</ele><time>2026-04-12T12:02:30.036Z</time></trkpt><trkpt lat="44.3625301" lon="11.2628916"><ele>117.0</ele><time>2026-04-12T12:02:31.036Z</time></trkpt><trkpt lat="44.3627477" lon="11.2628304"><ele>117.0</ele><time>2026-04-12T12:02:32.036Z</time></trkpt><trkpt lat="44.3629558" lon="11.2627782"><ele>117.0</ele><time>2026-04-12T12:02:33.036Z</time></trkpt><trkpt lat="44.3631509" lon="11.262722"><ele>117.0</ele><time>2026-04-12T12:02:34.036Z</time></trkpt><trkpt lat="44.3633362" lon="11.2626705"><ele>118.0</ele><time>2026-04-12T12:02:35.036Z</time></trkpt><trkpt lat="44.3635155" lon="11.2626276"><ele>119.0</ele><time>2026-04-12T12:02:36.036Z</time></trkpt><trkpt lat="44.3636911" lon="11.2625657"><ele>120.0</ele><time>2026-04-12T12:02:37.036Z</time></trkpt><trkpt lat="44.3638645" lon="11.2624703"><ele>118.33333333333334</ele><time>2026-04-12T12:02:38.036Z</time></trkpt><trkpt lat="44.3640352" lon="11.2623199"><ele>116.66666666666667</ele><time>2026-04-12T12:02:39.036Z</time></trkpt><trkpt lat="44.3642023" lon="11.262129"><ele>115.0</ele><time>2026-04-12T12:02:40.036Z</time></trkpt><trkpt lat="44.3643866" lon="11.2619473"><ele>115.0</ele><time>2026-04-12T12:02:41.036Z</time></trkpt><trkpt lat="44.3646018" lon="11.2617887"><ele>115.0</ele><time>2026-04-12T12:02:42.036Z</time></trkpt><trkpt lat="44.3648181" lon="11.261649"><ele>115.33333333333334</ele><time>2026-04-12T12:02:43.036Z</time></trkpt><trkpt lat="44.3650244" lon="11.2615142"><ele>115.66666666666666</ele><time>2026-04-12T12:02:44.036Z</time></trkpt><trkpt lat="44.3652156" lon="11.2613875"><ele>116.0</ele><time>2026-04-12T12:02:45.036Z</time></trkpt><trkpt lat="44.365386" lon="11.2612552"><ele>115.66666666666666</ele><time>2026-04-12T12:02:46.036Z</time></trkpt><trkpt lat="44.365539" lon="11.2611091"><ele>115.33333333333334</ele><time>2026-04-12T12:02:47.036Z</time></trkpt><trkpt lat="44.3656716" lon="11.2609574"><ele>115.0</ele><time>2026-04-12T12:02:48.036Z</time></trkpt><trkpt lat="44.365793" lon="11.2608104"><ele>115.0</ele><time>2026-04-12T12:02:49.037Z</time></trkpt><trkpt lat="44.365896" lon="11.2606588"><ele>115.0</ele><time>2026-04-12T12:02:50.036Z</time></trkpt><trkpt lat="44.3659897" lon="11.2605199"><ele>115.0</ele><time>2026-04-12T12:02:51.036Z</time></trkpt><trkpt lat="44.3660698" lon="11.2603872"><ele>115.0</ele><time>2026-04-12T12:02:52.036Z</time></trkpt><trkpt lat="44.3661341" lon="11.2602617"><ele>114.8</ele><time>2026-04-12T12:02:53.036Z</time></trkpt><trkpt lat="44.3661935" lon="11.2601439"><ele>114.6</ele><time>2026-04-12T12:02:54.037Z</time></trkpt><trkpt lat="44.3662371" lon="11.2600448"><ele>114.4</ele><time>2026-04-12T12:02:55.036Z</time></trkpt><trkpt lat="44.3662889" lon="11.2599375"><ele>114.2</ele><time>2026-04-12T12:02:57.036Z</time></trkpt><trkpt lat="44.366375" lon="11.2598265"><ele>114.0</ele><time>2026-04-12T12:02:59.038Z</time></trkpt><trkpt lat="44.3664392" lon="11.2597516"><ele>113.6</ele><time>2026-04-12T12:03:00.037Z</time></trkpt><trkpt lat="44.3664881" lon="11.2596611"><ele>113.2</ele><time>2026-04-12T12:03:01.037Z</time></trkpt><trkpt lat="44.3665219" lon="11.2595474"><ele>112.79999999999998</ele><time>2026-04-12T12:03:02.038Z</time></trkpt><trkpt lat="44.3665599" lon="11.2594374"><ele>112.39999999999999</ele><time>2026-04-12T12:03:03.038Z</time></trkpt><trkpt lat="44.3666171" lon="11.2593277"><ele>112.0</ele><time>2026-04-12T12:03:04.037Z</time></trkpt><trkpt lat="44.3666898" lon="11.2592121"><ele>112.0</ele><time>2026-04-12T12:03:05.037Z</time></trkpt><trkpt lat="44.3667841" lon="11.2590776"><ele>112.0</ele><time>2026-04-12T12:03:06.037Z</time></trkpt><trkpt lat="44.3668758" lon="11.2589321"><ele>112.0</ele><time>2026-04-12T12:03:07.038Z</time></trkpt><trkpt lat="44.3669679" lon="11.2587751"><ele>112.0</ele><time>2026-04-12T12:03:08.037Z</time></trkpt><trkpt lat="44.3670679" lon="11.2586237"><ele>112.0</ele><time>2026-04-12T12:03:09.038Z</time></trkpt><trkpt lat="44.3671636" lon="11.258462"><ele>112.0</ele><time>2026-04-12T12:03:10.037Z</time></trkpt><trkpt lat="44.3672878" lon="11.2583397"><ele>112.0</ele><time>2026-04-12T12:03:11.037Z</time></trkpt><trkpt lat="44.3695801" lon="11.2571306"><ele>112.0</ele><time>2026-04-12T12:03:20.573Z</time></trkpt><trkpt lat="44.3693931" lon="11.2563785"><ele>112.0</ele><time>2026-04-12T12:03:24.037Z</time></trkpt><trkpt lat="44.3695695" lon="11.2562323"><ele>112.0</ele><time>2026-04-12T12:03:25.037Z</time></trkpt><trkpt lat="44.3697471" lon="11.2560651"><ele>112.0</ele><time>2026-04-12T12:03:26.037Z</time></trkpt><trkpt lat="44.3699231" lon="11.2558877"><ele>112.33333333333334</ele><time>2026-04-12T12:03:27.037Z</time></trkpt><trkpt lat="44.370098" lon="11.2557131"><ele>112.66666666666666</ele><time>2026-04-12T12:03:28.037Z</time></trkpt><trkpt lat="44.3702927" lon="11.2555356"><ele>113.0</ele><time>2026-04-12T12:03:29.037Z</time></trkpt><trkpt lat="44.3705136" lon="11.2553622"><ele>115.0</ele><time>2026-04-12T12:03:30.037Z</time></trkpt><trkpt lat="44.3707382" lon="11.2551842"><ele>117.0</ele><time>2026-04-12T12:03:31.039Z</time></trkpt><trkpt lat="44.3709597" lon="11.2550161"><ele>117.0</ele><time>2026-04-12T12:03:32.037Z</time></trkpt><trkpt lat="44.3711661" lon="11.2548581"><ele>117.0</ele><time>2026-04-12T12:03:33.038Z</time></trkpt><trkpt lat="44.3713719" lon="11.2547039"><ele>119.0</ele><time>2026-04-12T12:03:34.037Z</time></trkpt><trkpt lat="44.3715696" lon="11.2545582"><ele>121.0</ele><time>2026-04-12T12:03:35.037Z</time></trkpt><trkpt lat="44.3717635" lon="11.2544061"><ele>123.0</ele><time>2026-04-12T12:03:36.037Z</time></trkpt><trkpt lat="44.3719586" lon="11.2542579"><ele>123.0</ele><time>2026-04-12T12:03:37.038Z</time></trkpt><trkpt lat="44.3721486" lon="11.2541167"><ele>123.0</ele><time>2026-04-12T12:03:38.037Z</time></trkpt><trkpt lat="44.3723373" lon="11.2539771"><ele>123.0</ele><time>2026-04-12T12:03:39.038Z</time></trkpt><trkpt lat="44.3725334" lon="11.2538313"><ele>122.33333333333334</ele><time>2026-04-12T12:03:40.037Z</time></trkpt><trkpt lat="44.3727316" lon="11.2536884"><ele>121.66666666666667</ele><time>2026-04-12T12:03:41.037Z</time></trkpt><trkpt lat="44.3729233" lon="11.2535393"><ele>121.0</ele><time>2026-04-12T12:03:42.038Z</time></trkpt><trkpt lat="44.3731145" lon="11.2533979"><ele>122.66666666666667</ele><time>2026-04-12T12:03:43.037Z</time></trkpt><trkpt lat="44.373309" lon="11.2532597"><ele>124.33333333333334</ele><time>2026-04-12T12:03:44.038Z</time></trkpt><trkpt lat="44.3735074" lon="11.2531379"><ele>126.0</ele><time>2026-04-12T12:03:45.038Z</time></trkpt><trkpt lat="44.3737058" lon="11.2530248"><ele>123.33333333333334</ele><time>2026-04-12T12:03:46.037Z</time></trkpt><trkpt lat="44.3739118" lon="11.2529316"><ele>120.66666666666667</ele><time>2026-04-12T12:03:47.037Z</time></trkpt><trkpt lat="44.374127" lon="11.2528486"><ele>118.0</ele><time>2026-04-12T12:03:48.037Z</time></trkpt><trkpt lat="44.3743553" lon="11.2527756"><ele>118.0</ele><time>2026-04-12T12:03:49.037Z</time></trkpt><trkpt lat="44.3745808" lon="11.2527199"><ele>118.0</ele><time>2026-04-12T12:03:50.037Z</time></trkpt><trkpt lat="44.374826" lon="11.2526778"><ele>121.0</ele><time>2026-04-12T12:03:51.037Z</time></trkpt><trkpt lat="44.3750892" lon="11.2526609"><ele>124.0</ele><time>2026-04-12T12:03:52.037Z</time></trkpt><trkpt lat="44.3753699" lon="11.2526604"><ele>123.5</ele><time>2026-04-12T12:03:53.037Z</time></trkpt><trkpt lat="44.3756599" lon="11.2526609"><ele>123.0</ele><time>2026-04-12T12:03:54.037Z</time></trkpt><trkpt lat="44.3759322" lon="11.2526683"><ele>123.0</ele><time>2026-04-12T12:03:55.037Z</time></trkpt><trkpt lat="44.3761918" lon="11.2526749"><ele>123.0</ele><time>2026-04-12T12:03:56.037Z</time></trkpt><trkpt lat="44.3764416" lon="11.2526868"><ele>121.5</ele><time>2026-04-12T12:03:57.037Z</time></trkpt><trkpt lat="44.3766754" lon="11.2526836"><ele>120.0</ele><time>2026-04-12T12:03:58.037Z</time></trkpt><trkpt lat="44.3768954" lon="11.2526662"><ele>120.0</ele><time>2026-04-12T12:03:59.037Z</time></trkpt><trkpt lat="44.3771126" lon="11.2526393"><ele>120.0</ele><time>2026-04-12T12:04:00.037Z</time></trkpt><trkpt lat="44.3773201" lon="11.2526001"><ele>120.0</ele><time>2026-04-12T12:04:01.038Z</time></trkpt><trkpt lat="44.3775166" lon="11.2525365"><ele>120.33333333333334</ele><time>2026-04-12T12:04:02.037Z</time></trkpt><trkpt lat="44.3777175" lon="11.2524515"><ele>120.66666666666667</ele><time>2026-04-12T12:04:03.037Z</time></trkpt><trkpt lat="44.3779216" lon="11.2523587"><ele>121.0</ele><time>2026-04-12T12:04:04.037Z</time></trkpt><trkpt lat="44.3781256" lon="11.252263"><ele>118.5</ele><time>2026-04-12T12:04:05.037Z</time></trkpt><trkpt lat="44.3783377" lon="11.2521634"><ele>116.0</ele><time>2026-04-12T12:04:06.037Z</time></trkpt><trkpt lat="44.3785587" lon="11.252069"><ele>116.0</ele><time>2026-04-12T12:04:07.037Z</time></trkpt><trkpt lat="44.3787616" lon="11.2519781"><ele>116.0</ele><time>2026-04-12T12:04:08.037Z</time></trkpt><trkpt lat="44.3789546" lon="11.2518917"><ele>116.0</ele><time>2026-04-12T12:04:09.037Z</time></trkpt><trkpt lat="44.3791355" lon="11.2518127"><ele>119.0</ele><time>2026-04-12T12:04:10.038Z</time></trkpt><trkpt lat="44.3793299" lon="11.2517516"><ele>122.0</ele><time>2026-04-12T12:04:11.037Z</time></trkpt><trkpt lat="44.37952" lon="11.2516947"><ele>125.0</ele><time>2026-04-12T12:04:12.037Z</time></trkpt><trkpt lat="44.3797288" lon="11.2516452"><ele>126.66666666666666</ele><time>2026-04-12T12:04:13.037Z</time></trkpt><trkpt lat="44.379935" lon="11.2515986"><ele>128.33333333333334</ele><time>2026-04-12T12:04:14.039Z</time></trkpt><trkpt lat="44.3801462" lon="11.2515613"><ele>130.0</ele><time>2026-04-12T12:04:15.037Z</time></trkpt><trkpt lat="44.3803535" lon="11.2515226"><ele>130.66666666666669</ele><time>2026-04-12T12:04:16.038Z</time></trkpt><trkpt lat="44.3805573" lon="11.2514839"><ele>131.33333333333334</ele><time>2026-04-12T12:04:17.037Z</time></trkpt><trkpt lat="44.3807641" lon="11.2514415"><ele>132.0</ele><time>2026-04-12T12:04:18.038Z</time></trkpt><trkpt lat="44.3809659" lon="11.2514011"><ele>125.66666666666666</ele><time>2026-04-12T12:04:19.037Z</time></trkpt><trkpt lat="44.3811671" lon="11.2513532"><ele>119.33333333333333</ele><time>2026-04-12T12:04:20.038Z</time></trkpt><trkpt lat="44.3813641" lon="11.2512965"><ele>113.0</ele><time>2026-04-12T12:04:21.037Z</time></trkpt><trkpt lat="44.381553" lon="11.2512222"><ele>113.0</ele><time>2026-04-12T12:04:22.037Z</time></trkpt><trkpt lat="44.3817437" lon="11.2511263"><ele>113.0</ele><time>2026-04-12T12:04:23.038Z</time></trkpt><trkpt lat="44.3819374" lon="11.2510223"><ele>113.0</ele><time>2026-04-12T12:04:24.038Z</time></trkpt><trkpt lat="44.3821325" lon="11.2509022"><ele>112.66666666666666</ele><time>2026-04-12T12:04:25.038Z</time></trkpt><trkpt lat="44.3823245" lon="11.2507739"><ele>112.33333333333334</ele><time>2026-04-12T12:04:26.038Z</time></trkpt><trkpt lat="44.3825162" lon="11.2506313"><ele>112.0</ele><time>2026-04-12T12:04:27.038Z</time></trkpt><trkpt lat="44.3827077" lon="11.2504712"><ele>112.0</ele><time>2026-04-12T12:04:28.038Z</time></trkpt><trkpt lat="44.3828948" lon="11.2503247"><ele>112.0</ele><time>2026-04-12T12:04:29.038Z</time></trkpt><trkpt lat="44.383084" lon="11.2501772"><ele>112.0</ele><time>2026-04-12T12:04:30.038Z</time></trkpt><trkpt lat="44.383268" lon="11.2500341"><ele>113.0</ele><time>2026-04-12T12:04:31.038Z</time></trkpt><trkpt lat="44.3834426" lon="11.249892"><ele>114.0</ele><time>2026-04-12T12:04:32.038Z</time></trkpt><trkpt lat="44.3836173" lon="11.2497623"><ele>115.0</ele><time>2026-04-12T12:04:33.038Z</time></trkpt><trkpt lat="44.3837879" lon="11.2496195"><ele>116.66666666666667</ele><time>2026-04-12T12:04:34.038Z</time></trkpt><trkpt lat="44.3839578" lon="11.2494884"><ele>118.33333333333334</ele><time>2026-04-12T12:04:35.038Z</time></trkpt><trkpt lat="44.3841248" lon="11.2493569"><ele>120.0</ele><time>2026-04-12T12:04:36.038Z</time></trkpt><trkpt lat="44.3842838" lon="11.2492342"><ele>120.0</ele><time>2026-04-12T12:04:37.038Z</time></trkpt><trkpt lat="44.3844446" lon="11.2491065"><ele>120.0</ele><time>2026-04-12T12:04:38.039Z</time></trkpt><trkpt lat="44.3846015" lon="11.2489943"><ele>120.0</ele><time>2026-04-12T12:04:39.039Z</time></trkpt><trkpt lat="44.3847544" lon="11.2488759"><ele>117.33333333333334</ele><time>2026-04-12T12:04:40.039Z</time></trkpt><trkpt lat="44.3849019" lon="11.2487752"><ele>114.66666666666667</ele><time>2026-04-12T12:04:41.039Z</time></trkpt><trkpt lat="44.3850419" lon="11.2486871"><ele>112.0</ele><time>2026-04-12T12:04:42.038Z</time></trkpt><trkpt lat="44.3851836" lon="11.2486223"><ele>112.0</ele><time>2026-04-12T12:04:43.038Z</time></trkpt><trkpt lat="44.3853302" lon="11.2485628"><ele>112.0</ele><time>2026-04-12T12:04:44.038Z</time></trkpt><trkpt lat="44.3854761" lon="11.248509"><ele>112.0</ele><time>2026-04-12T12:04:45.038Z</time></trkpt><trkpt lat="44.3856242" lon="11.2484658"><ele>115.33333333333334</ele><time>2026-04-12T12:04:46.038Z</time></trkpt><trkpt lat="44.3857823" lon="11.2484256"><ele>118.66666666666666</ele><time>2026-04-12T12:04:47.039Z</time></trkpt><trkpt lat="44.3859421" lon="11.248403"><ele>122.0</ele><time>2026-04-12T12:04:48.039Z</time></trkpt><trkpt lat="44.3861136" lon="11.2483863"><ele>122.0</ele><time>2026-04-12T12:04:49.038Z</time></trkpt><trkpt lat="44.3862765" lon="11.2483808"><ele>122.0</ele><time>2026-04-12T12:04:50.038Z</time></trkpt><trkpt lat="44.3864494" lon="11.2483927"><ele>122.0</ele><time>2026-04-12T12:04:51.038Z</time></trkpt><trkpt lat="44.386617" lon="11.2484159"><ele>122.66666666666666</ele><time>2026-04-12T12:04:52.038Z</time></trkpt><trkpt lat="44.3867899" lon="11.2484566"><ele>123.33333333333334</ele><time>2026-04-12T12:04:53.038Z</time></trkpt><trkpt lat="44.3869633" lon="11.2485133"><ele>124.0</ele><time>2026-04-12T12:04:54.038Z</time></trkpt><trkpt lat="44.3871307" lon="11.2485675"><ele>123.33333333333334</ele><time>2026-04-12T12:04:55.038Z</time></trkpt><trkpt lat="44.3872894" lon="11.2486443"><ele>122.66666666666666</ele><time>2026-04-12T12:04:56.038Z</time></trkpt><trkpt lat="44.3874426" lon="11.2487331"><ele>122.0</ele><time>2026-04-12T12:04:57.038Z</time></trkpt><trkpt lat="44.3875842" lon="11.2488191"><ele>122.0</ele><time>2026-04-12T12:04:58.038Z</time></trkpt><trkpt lat="44.3877132" lon="11.2489149"><ele>122.0</ele><time>2026-04-12T12:04:59.039Z</time></trkpt><trkpt lat="44.3878361" lon="11.2490126"><ele>122.0</ele><time>2026-04-12T12:05:00.038Z</time></trkpt><trkpt lat="44.3879492" lon="11.2491062"><ele>122.0</ele><time>2026-04-12T12:05:01.038Z</time></trkpt><trkpt lat="44.3880514" lon="11.2492047"><ele>121.8</ele><time>2026-04-12T12:05:02.038Z</time></trkpt><trkpt lat="44.3881441" lon="11.2492965"><ele>121.6</ele><time>2026-04-12T12:05:03.038Z</time></trkpt><trkpt lat="44.3882292" lon="11.2493929"><ele>121.39999999999999</ele><time>2026-04-12T12:05:04.039Z</time></trkpt><trkpt lat="44.3883083" lon="11.2494954"><ele>121.19999999999999</ele><time>2026-04-12T12:05:05.038Z</time></trkpt><trkpt lat="44.3883887" lon="11.2495983"><ele>121.0</ele><time>2026-04-12T12:05:06.038Z</time></trkpt><trkpt lat="44.3884694" lon="11.2497092"><ele>121.0</ele><time>2026-04-12T12:05:07.038Z</time></trkpt><trkpt lat="44.3885476" lon="11.2498187"><ele>121.0</ele><time>2026-04-12T12:05:08.038Z</time></trkpt><trkpt lat="44.3886293" lon="11.2499289"><ele>121.0</ele><time>2026-04-12T12:05:09.038Z</time></trkpt><trkpt lat="44.3887126" lon="11.2500397"><ele>121.0</ele><time>2026-04-12T12:05:10.039Z</time></trkpt><trkpt lat="44.3887946" lon="11.2501265"><ele>121.0</ele><time>2026-04-12T12:05:11.038Z</time></trkpt><trkpt lat="44.3888667" lon="11.2501938"><ele>121.00000000000001</ele><time>2026-04-12T12:05:12.038Z</time></trkpt><trkpt lat="44.3889198" lon="11.2502489"><ele>121.0</ele><time>2026-04-12T12:05:13.038Z</time></trkpt><trkpt lat="44.388967" lon="11.2503105"><ele>121.0</ele><time>2026-04-12T12:05:15.038Z</time></trkpt><trkpt lat="44.389025" lon="11.2504159"><ele>121.0</ele><time>2026-04-12T12:05:17.039Z</time></trkpt><trkpt lat="44.3890665" lon="11.2505102"><ele>121.00000000000001</ele><time>2026-04-12T12:05:18.038Z</time></trkpt><trkpt lat="44.3891185" lon="11.2506028"><ele>121.0</ele><time>2026-04-12T12:05:19.038Z</time></trkpt><trkpt lat="44.3891711" lon="11.2506998"><ele>121.66666666666667</ele><time>2026-04-12T12:05:20.038Z</time></trkpt><trkpt lat="44.3892071" lon="11.2508405"><ele>122.33333333333334</ele><time>2026-04-12T12:05:21.038Z</time></trkpt><trkpt lat="44.3892418" lon="11.2510493"><ele>123.0</ele><time>2026-04-12T12:05:22.039Z</time></trkpt><trkpt lat="44.389277" lon="11.2513275"><ele>122.5</ele><time>2026-04-12T12:05:23.038Z</time></trkpt><trkpt lat="44.3893119" lon="11.2516577"><ele>122.0</ele><time>2026-04-12T12:05:24.038Z</time></trkpt><trkpt lat="44.3893414" lon="11.25202"><ele>122.0</ele><time>2026-04-12T12:05:25.039Z</time></trkpt><trkpt lat="44.3893754" lon="11.25238"><ele>122.0</ele><time>2026-04-12T12:05:26.038Z</time></trkpt><trkpt lat="44.3894074" lon="11.2527119"><ele>122.0</ele><time>2026-04-12T12:05:27.039Z</time></trkpt><trkpt lat="44.3894413" lon="11.2530232"><ele>122.0</ele><time>2026-04-12T12:05:28.038Z</time></trkpt><trkpt lat="44.3894676" lon="11.2533165"><ele>122.0</ele><time>2026-04-12T12:05:29.038Z</time></trkpt><trkpt lat="44.3894949" lon="11.2536006"><ele>121.66666666666666</ele><time>2026-04-12T12:05:30.038Z</time></trkpt><trkpt lat="44.3895194" lon="11.2538723"><ele>121.33333333333334</ele><time>2026-04-12T12:05:31.039Z</time></trkpt><trkpt lat="44.3895464" lon="11.2541418"><ele>121.0</ele><time>2026-04-12T12:05:32.039Z</time></trkpt><trkpt lat="44.3895672" lon="11.2544143"><ele>121.0</ele><time>2026-04-12T12:05:33.038Z</time></trkpt><trkpt lat="44.3895902" lon="11.2547026"><ele>121.0</ele><time>2026-04-12T12:05:34.038Z</time></trkpt><trkpt lat="44.3896112" lon="11.2550011"><ele>121.0</ele><time>2026-04-12T12:05:35.039Z</time></trkpt><trkpt lat="44.3896352" lon="11.2553075"><ele>121.33333333333334</ele><time>2026-04-12T12:05:36.038Z</time></trkpt><trkpt lat="44.38966" lon="11.2556149"><ele>121.66666666666666</ele><time>2026-04-12T12:05:37.038Z</time></trkpt><trkpt lat="44.3896943" lon="11.2559115"><ele>122.0</ele><time>2026-04-12T12:05:38.038Z</time></trkpt><trkpt lat="44.3897496" lon="11.2562022"><ele>118.0</ele><time>2026-04-12T12:05:39.038Z</time></trkpt><trkpt lat="44.3898233" lon="11.2564881"><ele>114.0</ele><time>2026-04-12T12:05:40.038Z</time></trkpt><trkpt lat="44.38992" lon="11.2567632"><ele>110.0</ele><time>2026-04-12T12:05:41.038Z</time></trkpt><trkpt lat="44.3900379" lon="11.2570268"><ele>110.0</ele><time>2026-04-12T12:05:42.038Z</time></trkpt><trkpt lat="44.3901763" lon="11.2572779"><ele>110.0</ele><time>2026-04-12T12:05:43.038Z</time></trkpt><trkpt lat="44.3903241" lon="11.2575062"><ele>110.0</ele><time>2026-04-12T12:05:44.038Z</time></trkpt><trkpt lat="44.3904838" lon="11.2577127"><ele>110.0</ele><time>2026-04-12T12:05:45.039Z</time></trkpt><trkpt lat="44.3906531" lon="11.2578825"><ele>110.0</ele><time>2026-04-12T12:05:46.038Z</time></trkpt><trkpt lat="44.3908367" lon="11.2580309"><ele>110.0</ele><time>2026-04-12T12:05:47.039Z</time></trkpt><trkpt lat="44.3910175" lon="11.2581539"><ele>110.33333333333333</ele><time>2026-04-12T12:05:48.039Z</time></trkpt><trkpt lat="44.391201" lon="11.258241"><ele>110.66666666666666</ele><time>2026-04-12T12:05:49.039Z</time></trkpt><trkpt lat="44.3913789" lon="11.2583089"><ele>111.0</ele><time>2026-04-12T12:05:50.039Z</time></trkpt><trkpt lat="44.3915514" lon="11.2583522"><ele>109.0</ele><time>2026-04-12T12:05:51.04Z</time></trkpt><trkpt lat="44.3917222" lon="11.2583764"><ele>107.0</ele><time>2026-04-12T12:05:52.039Z</time></trkpt><trkpt lat="44.3918944" lon="11.2583816"><ele>105.0</ele><time>2026-04-12T12:05:53.039Z</time></trkpt><trkpt lat="44.3920592" lon="11.258369"><ele>101.66666666666667</ele><time>2026-04-12T12:05:54.039Z</time></trkpt><trkpt lat="44.3922317" lon="11.2583392"><ele>98.33333333333334</ele><time>2026-04-12T12:05:55.039Z</time></trkpt><trkpt lat="44.3924069" lon="11.2582903"><ele>95.0</ele><time>2026-04-12T12:05:56.039Z</time></trkpt><trkpt lat="44.3925881" lon="11.2582291"><ele>95.0</ele><time>2026-04-12T12:05:57.039Z</time></trkpt><trkpt lat="44.3927786" lon="11.2581564"><ele>95.0</ele><time>2026-04-12T12:05:58.039Z</time></trkpt><trkpt lat="44.392973" lon="11.2580795"><ele>95.0</ele><time>2026-04-12T12:05:59.039Z</time></trkpt><trkpt lat="44.3931743" lon="11.2580051"><ele>93.33333333333334</ele><time>2026-04-12T12:06:00.039Z</time></trkpt><trkpt lat="44.3933732" lon="11.2579321"><ele>91.66666666666667</ele><time>2026-04-12T12:06:01.039Z</time></trkpt><trkpt lat="44.3935685" lon="11.2578593"><ele>90.0</ele><time>2026-04-12T12:06:02.039Z</time></trkpt><trkpt lat="44.3937561" lon="11.257786"><ele>90.66666666666667</ele><time>2026-04-12T12:06:03.039Z</time></trkpt><trkpt lat="44.3939387" lon="11.2577192"><ele>91.33333333333334</ele><time>2026-04-12T12:06:04.039Z</time></trkpt><trkpt lat="44.3941319" lon="11.2576476"><ele>92.0</ele><time>2026-04-12T12:06:05.039Z</time></trkpt><trkpt lat="44.3943141" lon="11.2575809"><ele>92.0</ele><time>2026-04-12T12:06:06.039Z</time></trkpt><trkpt lat="44.3944919" lon="11.2575169"><ele>92.0</ele><time>2026-04-12T12:06:07.04Z</time></trkpt><trkpt lat="44.3946685" lon="11.25745"><ele>92.0</ele><time>2026-04-12T12:06:08.039Z</time></trkpt><trkpt lat="44.3948398" lon="11.2573846"><ele>92.33333333333334</ele><time>2026-04-12T12:06:09.039Z</time></trkpt><trkpt lat="44.3950104" lon="11.25733"><ele>92.66666666666667</ele><time>2026-04-12T12:06:10.04Z</time></trkpt><trkpt lat="44.3951848" lon="11.2572716"><ele>93.0</ele><time>2026-04-12T12:06:11.039Z</time></trkpt><trkpt lat="44.3953632" lon="11.257237"><ele>95.66666666666666</ele><time>2026-04-12T12:06:12.039Z</time></trkpt><trkpt lat="44.3955447" lon="11.2572165"><ele>98.33333333333333</ele><time>2026-04-12T12:06:13.04Z</time></trkpt><trkpt lat="44.3957293" lon="11.2572108"><ele>101.0</ele><time>2026-04-12T12:06:14.04Z</time></trkpt><trkpt lat="44.3959162" lon="11.2572246"><ele>101.0</ele><time>2026-04-12T12:06:15.039Z</time></trkpt><trkpt lat="44.396099" lon="11.2572521"><ele>101.0</ele><time>2026-04-12T12:06:16.039Z</time></trkpt><trkpt lat="44.3962889" lon="11.2573045"><ele>101.0</ele><time>2026-04-12T12:06:17.04Z</time></trkpt><trkpt lat="44.3964689" lon="11.2573737"><ele>101.66666666666666</ele><time>2026-04-12T12:06:18.039Z</time></trkpt><trkpt lat="44.3966434" lon="11.2574559"><ele>102.33333333333334</ele><time>2026-04-12T12:06:19.039Z</time></trkpt><trkpt lat="44.3968102" lon="11.2575517"><ele>103.0</ele><time>2026-04-12T12:06:20.039Z</time></trkpt><trkpt lat="44.396963" lon="11.2576589"><ele>103.0</ele><time>2026-04-12T12:06:21.039Z</time></trkpt><trkpt lat="44.3971115" lon="11.2577731"><ele>103.0</ele><time>2026-04-12T12:06:22.04Z</time></trkpt><trkpt lat="44.3972606" lon="11.257905"><ele>103.0</ele><time>2026-04-12T12:06:23.039Z</time></trkpt><trkpt lat="44.3974007" lon="11.2580471"><ele>101.66666666666667</ele><time>2026-04-12T12:06:24.039Z</time></trkpt><trkpt lat="44.3975437" lon="11.2582009"><ele>100.33333333333334</ele><time>2026-04-12T12:06:25.039Z</time></trkpt><trkpt lat="44.397692" lon="11.2583622"><ele>99.0</ele><time>2026-04-12T12:06:26.039Z</time></trkpt><trkpt lat="44.3978466" lon="11.2585286"><ele>99.66666666666666</ele><time>2026-04-12T12:06:27.039Z</time></trkpt><trkpt lat="44.3980106" lon="11.2586998"><ele>100.33333333333333</ele><time>2026-04-12T12:06:28.04Z</time></trkpt><trkpt lat="44.3981619" lon="11.2588728"><ele>101.0</ele><time>2026-04-12T12:06:29.039Z</time></trkpt><trkpt lat="44.3983192" lon="11.2590456"><ele>101.0</ele><time>2026-04-12T12:06:30.039Z</time></trkpt><trkpt lat="44.3984763" lon="11.2592163"><ele>101.0</ele><time>2026-04-12T12:06:31.04Z</time></trkpt><trkpt lat="44.3986438" lon="11.2593866"><ele>101.0</ele><time>2026-04-12T12:06:32.04Z</time></trkpt><trkpt lat="44.3988403" lon="11.259577"><ele>101.0</ele><time>2026-04-12T12:06:33.039Z</time></trkpt><trkpt lat="44.3990592" lon="11.259771"><ele>101.0</ele><time>2026-04-12T12:06:34.039Z</time></trkpt><trkpt lat="44.3993003" lon="11.2599635"><ele>101.0</ele><time>2026-04-12T12:06:35.039Z</time></trkpt><trkpt lat="44.3995491" lon="11.2601666"><ele>101.0</ele><time>2026-04-12T12:06:36.04Z</time></trkpt><trkpt lat="44.3997937" lon="11.2603854"><ele>101.0</ele><time>2026-04-12T12:06:37.04Z</time></trkpt><trkpt lat="44.4000336" lon="11.2605927"><ele>101.0</ele><time>2026-04-12T12:06:38.039Z</time></trkpt><trkpt lat="44.4002728" lon="11.2608067"><ele>100.5</ele><time>2026-04-12T12:06:39.039Z</time></trkpt><trkpt lat="44.4005141" lon="11.2610158"><ele>100.0</ele><time>2026-04-12T12:06:40.039Z</time></trkpt><trkpt lat="44.4007632" lon="11.2612292"><ele>100.0</ele><time>2026-04-12T12:06:41.04Z</time></trkpt><trkpt lat="44.4009998" lon="11.2614358"><ele>100.0</ele><time>2026-04-12T12:06:42.04Z</time></trkpt><trkpt lat="44.4012353" lon="11.2616377"><ele>99.5</ele><time>2026-04-12T12:06:43.039Z</time></trkpt><trkpt lat="44.4014582" lon="11.2618317"><ele>99.0</ele><time>2026-04-12T12:06:44.04Z</time></trkpt><trkpt lat="44.4016776" lon="11.2620123"><ele>99.0</ele><time>2026-04-12T12:06:45.039Z</time></trkpt><trkpt lat="44.4018819" lon="11.2621951"><ele>99.0</ele><time>2026-04-12T12:06:46.039Z</time></trkpt><trkpt lat="44.4020807" lon="11.2623708"><ele>98.5</ele><time>2026-04-12T12:06:47.039Z</time></trkpt><trkpt lat="44.4022775" lon="11.2625343"><ele>98.0</ele><time>2026-04-12T12:06:48.039Z</time></trkpt><trkpt lat="44.4024721" lon="11.2627001"><ele>98.0</ele><time>2026-04-12T12:06:49.04Z</time></trkpt><trkpt lat="44.4026611" lon="11.2628627"><ele>98.0</ele><time>2026-04-12T12:06:50.039Z</time></trkpt><trkpt lat="44.4028375" lon="11.2630285"><ele>98.0</ele><time>2026-04-12T12:06:51.039Z</time></trkpt><trkpt lat="44.4030041" lon="11.2632107"><ele>98.0</ele><time>2026-04-12T12:06:52.039Z</time></trkpt><trkpt lat="44.4031583" lon="11.2633984"><ele>98.0</ele><time>2026-04-12T12:06:53.04Z</time></trkpt><trkpt lat="44.4033023" lon="11.2635876"><ele>98.0</ele><time>2026-04-12T12:06:54.04Z</time></trkpt><trkpt lat="44.4034491" lon="11.2637866"><ele>98.5</ele><time>2026-04-12T12:06:55.039Z</time></trkpt><trkpt lat="44.4036932" lon="11.2643034"><ele>99.0</ele><time>2026-04-12T12:06:57.039Z</time></trkpt><trkpt lat="44.4037353" lon="11.2646225"><ele>99.33333333333334</ele><time>2026-04-12T12:06:58.039Z</time></trkpt><trkpt lat="44.4038229" lon="11.2648865"><ele>99.66666666666667</ele><time>2026-04-12T12:06:59.039Z</time></trkpt><trkpt lat="44.4039295" lon="11.2651465"><ele>100.0</ele><time>2026-04-12T12:07:00.039Z</time></trkpt><trkpt lat="44.4040786" lon="11.2653512"><ele>100.0</ele><time>2026-04-12T12:07:01.039Z</time></trkpt><trkpt lat="44.4042546" lon="11.2655437"><ele>100.0</ele><time>2026-04-12T12:07:02.039Z</time></trkpt><trkpt lat="44.4044447" lon="11.2657043"><ele>100.0</ele><time>2026-04-12T12:07:03.039Z</time></trkpt><trkpt lat="44.4046455" lon="11.2658388"><ele>98.0</ele><time>2026-04-12T12:07:04.039Z</time></trkpt><trkpt lat="44.404864" lon="11.2659286"><ele>96.0</ele><time>2026-04-12T12:07:05.039Z</time></trkpt><trkpt lat="44.4050941" lon="11.2659674"><ele>96.0</ele><time>2026-04-12T12:07:06.039Z</time></trkpt><trkpt lat="44.405341" lon="11.2659921"><ele>96.0</ele><time>2026-04-12T12:07:07.04Z</time></trkpt><trkpt lat="44.4055912" lon="11.2659884"><ele>95.0</ele><time>2026-04-12T12:07:08.039Z</time></trkpt><trkpt lat="44.4058322" lon="11.2659876"><ele>94.0</ele><time>2026-04-12T12:07:09.04Z</time></trkpt><trkpt lat="44.406072" lon="11.2659955"><ele>94.0</ele><time>2026-04-12T12:07:10.039Z</time></trkpt><trkpt lat="44.4063048" lon="11.2660236"><ele>94.0</ele><time>2026-04-12T12:07:11.041Z</time></trkpt><trkpt lat="44.4065454" lon="11.2660725"><ele>94.5</ele><time>2026-04-12T12:07:12.04Z</time></trkpt><trkpt lat="44.4067952" lon="11.2661456"><ele>95.0</ele><time>2026-04-12T12:07:13.04Z</time></trkpt><trkpt lat="44.4070436" lon="11.2662458"><ele>95.0</ele><time>2026-04-12T12:07:14.04Z</time></trkpt><trkpt lat="44.4073008" lon="11.2663687"><ele>95.0</ele><time>2026-04-12T12:07:15.04Z</time></trkpt><trkpt lat="44.4075532" lon="11.2664976"><ele>95.0</ele><time>2026-04-12T12:07:16.04Z</time></trkpt><trkpt lat="44.4078007" lon="11.2666269"><ele>95.0</ele><time>2026-04-12T12:07:17.04Z</time></trkpt><trkpt lat="44.4080467" lon="11.2667409"><ele>96.0</ele><time>2026-04-12T12:07:18.04Z</time></trkpt><trkpt lat="44.4082954" lon="11.2668416"><ele>97.0</ele><time>2026-04-12T12:07:19.041Z</time></trkpt><trkpt lat="44.4085479" lon="11.2669253"><ele>97.0</ele><time>2026-04-12T12:07:20.04Z</time></trkpt><trkpt lat="44.4088084" lon="11.2669923"><ele>97.0</ele><time>2026-04-12T12:07:21.041Z</time></trkpt><trkpt lat="44.4090724" lon="11.2670339"><ele>98.5</ele><time>2026-04-12T12:07:22.041Z</time></trkpt><trkpt lat="44.4093391" lon="11.267059"><ele>100.0</ele><time>2026-04-12T12:07:23.041Z</time></trkpt><trkpt lat="44.4096034" lon="11.2670677"><ele>100.5</ele><time>2026-04-12T12:07:24.04Z</time></trkpt><trkpt lat="44.4098745" lon="11.2670588"><ele>101.0</ele><time>2026-04-12T12:07:25.04Z</time></trkpt><trkpt lat="44.4101454" lon="11.2670536"><ele>101.0</ele><time>2026-04-12T12:07:26.04Z</time></trkpt><trkpt lat="44.4104362" lon="11.2670484"><ele>101.0</ele><time>2026-04-12T12:07:27.041Z</time></trkpt><trkpt lat="44.4107449" lon="11.2670752"><ele>101.0</ele><time>2026-04-12T12:07:28.04Z</time></trkpt><trkpt lat="44.411055" lon="11.2671069"><ele>101.0</ele><time>2026-04-12T12:07:29.04Z</time></trkpt><trkpt lat="44.4113661" lon="11.267166"><ele>100.0</ele><time>2026-04-12T12:07:30.041Z</time></trkpt><trkpt lat="44.4116668" lon="11.2672313"><ele>99.0</ele><time>2026-04-12T12:07:31.04Z</time></trkpt><trkpt lat="44.411952" lon="11.2673126"><ele>97.0</ele><time>2026-04-12T12:07:32.04Z</time></trkpt><trkpt lat="44.4122329" lon="11.2673989"><ele>95.0</ele><time>2026-04-12T12:07:33.04Z</time></trkpt><trkpt lat="44.4125146" lon="11.2674953"><ele>95.0</ele><time>2026-04-12T12:07:34.04Z</time></trkpt><trkpt lat="44.4127954" lon="11.2675889"><ele>95.0</ele><time>2026-04-12T12:07:35.04Z</time></trkpt><trkpt lat="44.4130753" lon="11.2676847"><ele>95.0</ele><time>2026-04-12T12:07:36.041Z</time></trkpt><trkpt lat="44.4133566" lon="11.2677771"><ele>95.0</ele><time>2026-04-12T12:07:37.04Z</time></trkpt><trkpt lat="44.413641" lon="11.2678756"><ele>93.5</ele><time>2026-04-12T12:07:38.041Z</time></trkpt><trkpt lat="44.4139283" lon="11.267974"><ele>92.0</ele><time>2026-04-12T12:07:39.04Z</time></trkpt><trkpt lat="44.4142165" lon="11.2680771"><ele>91.0</ele><time>2026-04-12T12:07:40.04Z</time></trkpt><trkpt lat="44.4144928" lon="11.2681726"><ele>90.0</ele><time>2026-04-12T12:07:41.041Z</time></trkpt><trkpt lat="44.4147552" lon="11.268262"><ele>90.0</ele><time>2026-04-12T12:07:42.04Z</time></trkpt><trkpt lat="44.4150016" lon="11.2683474"><ele>90.0</ele><time>2026-04-12T12:07:43.04Z</time></trkpt><trkpt lat="44.4152409" lon="11.2684305"><ele>90.0</ele><time>2026-04-12T12:07:44.04Z</time></trkpt><trkpt lat="44.4154717" lon="11.2685124"><ele>90.0</ele><time>2026-04-12T12:07:45.04Z</time></trkpt><trkpt lat="44.4157032" lon="11.2685934"><ele>90.5</ele><time>2026-04-12T12:07:46.041Z</time></trkpt><trkpt lat="44.4159415" lon="11.2686748"><ele>91.0</ele><time>2026-04-12T12:07:47.04Z</time></trkpt><trkpt lat="44.4161944" lon="11.2687687"><ele>91.5</ele><time>2026-04-12T12:07:48.04Z</time></trkpt><trkpt lat="44.4164555" lon="11.2688661"><ele>92.0</ele><time>2026-04-12T12:07:49.04Z</time></trkpt><trkpt lat="44.416723" lon="11.2689794"><ele>92.0</ele><time>2026-04-12T12:07:50.04Z</time></trkpt><trkpt lat="44.4169909" lon="11.269102"><ele>92.0</ele><time>2026-04-12T12:07:51.04Z</time></trkpt><trkpt lat="44.417247" lon="11.2692285"><ele>91.5</ele><time>2026-04-12T12:07:52.04Z</time></trkpt><trkpt lat="44.4174956" lon="11.2693662"><ele>91.0</ele><time>2026-04-12T12:07:53.04Z</time></trkpt><trkpt lat="44.4177361" lon="11.2695037"><ele>91.0</ele><time>2026-04-12T12:07:54.04Z</time></trkpt><trkpt lat="44.4179681" lon="11.2696377"><ele>91.0</ele><time>2026-04-12T12:07:55.04Z</time></trkpt><trkpt lat="44.4182022" lon="11.2697705"><ele>92.0</ele><time>2026-04-12T12:07:56.04Z</time></trkpt><trkpt lat="44.4184378" lon="11.2699022"><ele>93.0</ele><time>2026-04-12T12:07:57.04Z</time></trkpt><trkpt lat="44.4186759" lon="11.2700301"><ele>91.5</ele><time>2026-04-12T12:07:58.04Z</time></trkpt><trkpt lat="44.4189329" lon="11.27016"><ele>90.0</ele><time>2026-04-12T12:07:59.04Z</time></trkpt><trkpt lat="44.4191983" lon="11.2703041"><ele>90.0</ele><time>2026-04-12T12:08:00.04Z</time></trkpt><trkpt lat="44.4194554" lon="11.2704417"><ele>90.0</ele><time>2026-04-12T12:08:01.04Z</time></trkpt><trkpt lat="44.4197043" lon="11.270576"><ele>89.0</ele><time>2026-04-12T12:08:02.04Z</time></trkpt><trkpt lat="44.4199504" lon="11.2707009"><ele>88.0</ele><time>2026-04-12T12:08:03.041Z</time></trkpt><trkpt lat="44.4202018" lon="11.2708269"><ele>88.0</ele><time>2026-04-12T12:08:04.04Z</time></trkpt><trkpt lat="44.4204595" lon="11.2709622"><ele>88.0</ele><time>2026-04-12T12:08:05.041Z</time></trkpt><trkpt lat="44.4207158" lon="11.2710936"><ele>88.5</ele><time>2026-04-12T12:08:06.04Z</time></trkpt><trkpt lat="44.4209727" lon="11.2712273"><ele>89.0</ele><time>2026-04-12T12:08:07.04Z</time></trkpt><trkpt lat="44.4212272" lon="11.2713713"><ele>88.5</ele><time>2026-04-12T12:08:08.04Z</time></trkpt><trkpt lat="44.4214755" lon="11.2715032"><ele>88.0</ele><time>2026-04-12T12:08:09.04Z</time></trkpt><trkpt lat="44.4217245" lon="11.27164"><ele>88.0</ele><time>2026-04-12T12:08:10.04Z</time></trkpt><trkpt lat="44.4219702" lon="11.2717771"><ele>88.0</ele><time>2026-04-12T12:08:11.041Z</time></trkpt><trkpt lat="44.422221" lon="11.271921"><ele>89.0</ele><time>2026-04-12T12:08:12.04Z</time></trkpt><trkpt lat="44.4224771" lon="11.272058"><ele>90.0</ele><time>2026-04-12T12:08:13.04Z</time></trkpt><trkpt lat="44.4227394" lon="11.2722007"><ele>87.5</ele><time>2026-04-12T12:08:14.041Z</time></trkpt><trkpt lat="44.423003" lon="11.2723393"><ele>85.0</ele><time>2026-04-12T12:08:15.04Z</time></trkpt><trkpt lat="44.4232736" lon="11.2724861"><ele>85.0</ele><time>2026-04-12T12:08:16.041Z</time></trkpt><trkpt lat="44.4235355" lon="11.2726346"><ele>85.0</ele><time>2026-04-12T12:08:17.04Z</time></trkpt><trkpt lat="44.4237946" lon="11.2727735"><ele>84.5</ele><time>2026-04-12T12:08:18.04Z</time></trkpt><trkpt lat="44.4240582" lon="11.2729246"><ele>84.0</ele><time>2026-04-12T12:08:19.04Z</time></trkpt><trkpt lat="44.4243236" lon="11.2730774"><ele>84.5</ele><time>2026-04-12T12:08:20.04Z</time></trkpt><trkpt lat="44.4245973" lon="11.2732335"><ele>85.0</ele><time>2026-04-12T12:08:21.04Z</time></trkpt><trkpt lat="44.4248756" lon="11.2733918"><ele>85.0</ele><time>2026-04-12T12:08:22.04Z</time></trkpt><trkpt lat="44.425154" lon="11.2735574"><ele>85.0</ele><time>2026-04-12T12:08:23.04Z</time></trkpt><trkpt lat="44.4254256" lon="11.2737199"><ele>85.0</ele><time>2026-04-12T12:08:24.041Z</time></trkpt><trkpt lat="44.4256944" lon="11.2738905"><ele>85.0</ele><time>2026-04-12T12:08:25.04Z</time></trkpt><trkpt lat="44.4259604" lon="11.2740566"><ele>83.0</ele><time>2026-04-12T12:08:26.04Z</time></trkpt><trkpt lat="44.4262257" lon="11.2742208"><ele>81.0</ele><time>2026-04-12T12:08:27.04Z</time></trkpt><trkpt lat="44.4264873" lon="11.2743952"><ele>79.0</ele><time>2026-04-12T12:08:28.04Z</time></trkpt><trkpt lat="44.4267444" lon="11.2745582"><ele>77.0</ele><time>2026-04-12T12:08:29.04Z</time></trkpt><trkpt lat="44.4269995" lon="11.2747175"><ele>76.5</ele><time>2026-04-12T12:08:30.041Z</time></trkpt><trkpt lat="44.4272479" lon="11.2748811"><ele>76.0</ele><time>2026-04-12T12:08:31.042Z</time></trkpt><trkpt lat="44.4274941" lon="11.2750505"><ele>76.0</ele><time>2026-04-12T12:08:32.041Z</time></trkpt><trkpt lat="44.4277318" lon="11.2752135"><ele>76.0</ele><time>2026-04-12T12:08:33.041Z</time></trkpt><trkpt lat="44.4279744" lon="11.2753822"><ele>75.0</ele><time>2026-04-12T12:08:34.042Z</time></trkpt><trkpt lat="44.428213" lon="11.2755515"><ele>74.0</ele><time>2026-04-12T12:08:35.041Z</time></trkpt><trkpt lat="44.4284569" lon="11.2757288"><ele>74.0</ele><time>2026-04-12T12:08:36.041Z</time></trkpt><trkpt lat="44.428699" lon="11.2759023"><ele>74.0</ele><time>2026-04-12T12:08:37.041Z</time></trkpt><trkpt lat="44.4289395" lon="11.276073"><ele>74.0</ele><time>2026-04-12T12:08:38.041Z</time></trkpt><trkpt lat="44.4291818" lon="11.2762402"><ele>74.0</ele><time>2026-04-12T12:08:39.041Z</time></trkpt><trkpt lat="44.4294246" lon="11.2763979"><ele>74.5</ele><time>2026-04-12T12:08:40.042Z</time></trkpt><trkpt lat="44.4296746" lon="11.2765484"><ele>75.0</ele><time>2026-04-12T12:08:41.041Z</time></trkpt><trkpt lat="44.429933" lon="11.2766836"><ele>75.0</ele><time>2026-04-12T12:08:42.041Z</time></trkpt><trkpt lat="44.4301963" lon="11.2768038"><ele>75.0</ele><time>2026-04-12T12:08:43.041Z</time></trkpt><trkpt lat="44.4304711" lon="11.2769108"><ele>74.5</ele><time>2026-04-12T12:08:44.041Z</time></trkpt><trkpt lat="44.4307539" lon="11.277004"><ele>74.0</ele><time>2026-04-12T12:08:45.041Z</time></trkpt><trkpt lat="44.4310389" lon="11.2770816"><ele>75.0</ele><time>2026-04-12T12:08:46.042Z</time></trkpt><trkpt lat="44.4313243" lon="11.2771325"><ele>76.0</ele><time>2026-04-12T12:08:47.041Z</time></trkpt><trkpt lat="44.4316145" lon="11.2771715"><ele>76.0</ele><time>2026-04-12T12:08:48.041Z</time></trkpt><trkpt lat="44.4319058" lon="11.2772033"><ele>76.0</ele><time>2026-04-12T12:08:49.042Z</time></trkpt><trkpt lat="44.4321917" lon="11.2772324"><ele>74.5</ele><time>2026-04-12T12:08:50.042Z</time></trkpt><trkpt lat="44.4324694" lon="11.2772593"><ele>73.0</ele><time>2026-04-12T12:08:51.041Z</time></trkpt><trkpt lat="44.4327385" lon="11.2772792"><ele>71.5</ele><time>2026-04-12T12:08:52.041Z</time></trkpt><trkpt lat="44.4330051" lon="11.2773056"><ele>70.0</ele><time>2026-04-12T12:08:53.041Z</time></trkpt><trkpt lat="44.4332657" lon="11.2773253"><ele>70.0</ele><time>2026-04-12T12:08:54.041Z</time></trkpt><trkpt lat="44.433534" lon="11.2773551"><ele>70.0</ele><time>2026-04-12T12:08:55.041Z</time></trkpt><trkpt lat="44.4337957" lon="11.2773771"><ele>70.0</ele><time>2026-04-12T12:08:56.041Z</time></trkpt><trkpt lat="44.4340592" lon="11.2774062"><ele>70.0</ele><time>2026-04-12T12:08:57.041Z</time></trkpt><trkpt lat="44.43432" lon="11.2774369"><ele>70.0</ele><time>2026-04-12T12:08:58.042Z</time></trkpt><trkpt lat="44.4345841" lon="11.2774787"><ele>70.0</ele><time>2026-04-12T12:08:59.041Z</time></trkpt><trkpt lat="44.4348587" lon="11.2775307"><ele>70.0</ele><time>2026-04-12T12:09:00.041Z</time></trkpt><trkpt lat="44.4351378" lon="11.2775734"><ele>70.0</ele><time>2026-04-12T12:09:01.041Z</time></trkpt><trkpt lat="44.4354101" lon="11.2776209"><ele>70.5</ele><time>2026-04-12T12:09:02.041Z</time></trkpt><trkpt lat="44.4356869" lon="11.2776704"><ele>71.0</ele><time>2026-04-12T12:09:03.041Z</time></trkpt><trkpt lat="44.4359661" lon="11.2777184"><ele>71.0</ele><time>2026-04-12T12:09:04.041Z</time></trkpt><trkpt lat="44.436247" lon="11.2777762"><ele>71.0</ele><time>2026-04-12T12:09:05.041Z</time></trkpt><trkpt lat="44.4365238" lon="11.2778377"><ele>71.5</ele><time>2026-04-12T12:09:06.042Z</time></trkpt><trkpt lat="44.4368016" lon="11.2779035"><ele>72.0</ele><time>2026-04-12T12:09:07.042Z</time></trkpt><trkpt lat="44.4370789" lon="11.2779678"><ele>73.0</ele><time>2026-04-12T12:09:08.041Z</time></trkpt><trkpt lat="44.4373553" lon="11.2780276"><ele>74.0</ele><time>2026-04-12T12:09:09.041Z</time></trkpt><trkpt lat="44.4376365" lon="11.2780894"><ele>72.5</ele><time>2026-04-12T12:09:10.041Z</time></trkpt><trkpt lat="44.4379187" lon="11.2781534"><ele>71.0</ele><time>2026-04-12T12:09:11.041Z</time></trkpt><trkpt lat="44.4381947" lon="11.2782134"><ele>70.5</ele><time>2026-04-12T12:09:12.042Z</time></trkpt><trkpt lat="44.4384711" lon="11.2782754"><ele>70.0</ele><time>2026-04-12T12:09:13.041Z</time></trkpt><trkpt lat="44.4387458" lon="11.2783366"><ele>70.0</ele><time>2026-04-12T12:09:14.041Z</time></trkpt><trkpt lat="44.4390232" lon="11.2784026"><ele>70.0</ele><time>2026-04-12T12:09:15.041Z</time></trkpt><trkpt lat="44.4393037" lon="11.2784741"><ele>70.0</ele><time>2026-04-12T12:09:16.042Z</time></trkpt><trkpt lat="44.4395796" lon="11.278535"><ele>70.0</ele><time>2026-04-12T12:09:17.041Z</time></trkpt><trkpt lat="44.4398552" lon="11.278595"><ele>70.0</ele><time>2026-04-12T12:09:18.041Z</time></trkpt><trkpt lat="44.4401324" lon="11.2786587"><ele>70.0</ele><time>2026-04-12T12:09:19.041Z</time></trkpt><trkpt lat="44.4404106" lon="11.2787205"><ele>70.5</ele><time>2026-04-12T12:09:20.041Z</time></trkpt><trkpt lat="44.4406907" lon="11.2787811"><ele>71.0</ele><time>2026-04-12T12:09:21.041Z</time></trkpt><trkpt lat="44.4409623" lon="11.2788409"><ele>71.0</ele><time>2026-04-12T12:09:22.042Z</time></trkpt><trkpt lat="44.4412209" lon="11.2789021"><ele>71.0</ele><time>2026-04-12T12:09:23.041Z</time></trkpt><trkpt lat="44.4414683" lon="11.2789532"><ele>70.0</ele><time>2026-04-12T12:09:24.042Z</time></trkpt><trkpt lat="44.4417116" lon="11.2790077"><ele>69.0</ele><time>2026-04-12T12:09:25.041Z</time></trkpt><trkpt lat="44.4419552" lon="11.2790665"><ele>69.0</ele><time>2026-04-12T12:09:26.041Z</time></trkpt><trkpt lat="44.4421996" lon="11.2791217"><ele>69.0</ele><time>2026-04-12T12:09:27.041Z</time></trkpt><trkpt lat="44.4424327" lon="11.2791723"><ele>69.0</ele><time>2026-04-12T12:09:28.041Z</time></trkpt><trkpt lat="44.4426611" lon="11.2792228"><ele>69.0</ele><time>2026-04-12T12:09:29.042Z</time></trkpt><trkpt lat="44.4428724" lon="11.2792698"><ele>69.0</ele><time>2026-04-12T12:09:30.041Z</time></trkpt><trkpt lat="44.4430744" lon="11.2793235"><ele>69.33333333333333</ele><time>2026-04-12T12:09:31.041Z</time></trkpt><trkpt lat="44.4432641" lon="11.2793718"><ele>69.66666666666666</ele><time>2026-04-12T12:09:32.041Z</time></trkpt><trkpt lat="44.4434447" lon="11.2794214"><ele>70.0</ele><time>2026-04-12T12:09:33.041Z</time></trkpt><trkpt lat="44.4436156" lon="11.2794679"><ele>70.0</ele><time>2026-04-12T12:09:34.041Z</time></trkpt><trkpt lat="44.4437862" lon="11.279511"><ele>70.0</ele><time>2026-04-12T12:09:35.041Z</time></trkpt><trkpt lat="44.4439431" lon="11.2795501"><ele>70.0</ele><time>2026-04-12T12:09:36.041Z</time></trkpt><trkpt lat="44.4440889" lon="11.2795882"><ele>70.0</ele><time>2026-04-12T12:09:37.041Z</time></trkpt><trkpt lat="44.4442331" lon="11.2796316"><ele>70.0</ele><time>2026-04-12T12:09:38.041Z</time></trkpt><trkpt lat="44.444378" lon="11.2796806"><ele>70.0</ele><time>2026-04-12T12:09:39.041Z</time></trkpt><trkpt lat="44.4445151" lon="11.2797346"><ele>70.0</ele><time>2026-04-12T12:09:40.041Z</time></trkpt><trkpt lat="44.4446539" lon="11.2798015"><ele>70.0</ele><time>2026-04-12T12:09:41.042Z</time></trkpt><trkpt lat="44.4447792" lon="11.2798828"><ele>70.0</ele><time>2026-04-12T12:09:42.042Z</time></trkpt><trkpt lat="44.4448866" lon="11.2799844"><ele>70.0</ele><time>2026-04-12T12:09:43.042Z</time></trkpt><trkpt lat="44.4449831" lon="11.2801065"><ele>70.0</ele><time>2026-04-12T12:09:44.042Z</time></trkpt><trkpt lat="44.4450641" lon="11.2802504"><ele>70.0</ele><time>2026-04-12T12:09:45.041Z</time></trkpt><trkpt lat="44.4451379" lon="11.2804078"><ele>70.0</ele><time>2026-04-12T12:09:46.042Z</time></trkpt><trkpt lat="44.4451931" lon="11.2805912"><ele>70.0</ele><time>2026-04-12T12:09:47.041Z</time></trkpt><trkpt lat="44.4452524" lon="11.2807854"><ele>70.0</ele><time>2026-04-12T12:09:48.041Z</time></trkpt><trkpt lat="44.4452987" lon="11.2809689"><ele>70.4</ele><time>2026-04-12T12:09:49.041Z</time></trkpt><trkpt lat="44.4453349" lon="11.2811426"><ele>70.8</ele><time>2026-04-12T12:09:50.042Z</time></trkpt><trkpt lat="44.4453535" lon="11.2813009"><ele>71.2</ele><time>2026-04-12T12:09:51.041Z</time></trkpt><trkpt lat="44.4453549" lon="11.2814438"><ele>71.6</ele><time>2026-04-12T12:09:52.041Z</time></trkpt><trkpt lat="44.445371" lon="11.2815681"><ele>72.0</ele><time>2026-04-12T12:09:53.041Z</time></trkpt><trkpt lat="44.4454164" lon="11.2816649"><ele>71.25</ele><time>2026-04-12T12:09:54.041Z</time></trkpt><trkpt lat="44.4454854" lon="11.2817277"><ele>70.5</ele><time>2026-04-12T12:09:55.041Z</time></trkpt><trkpt lat="44.445585" lon="11.2817695"><ele>69.75</ele><time>2026-04-12T12:09:56.041Z</time></trkpt><trkpt lat="44.4457181" lon="11.281789"><ele>69.0</ele><time>2026-04-12T12:09:57.041Z</time></trkpt><trkpt lat="44.4458862" lon="11.2818319"><ele>69.0</ele><time>2026-04-12T12:09:58.041Z</time></trkpt><trkpt lat="44.4460638" lon="11.281889"><ele>69.0</ele><time>2026-04-12T12:09:59.042Z</time></trkpt><trkpt lat="44.4462332" lon="11.2819465"><ele>69.0</ele><time>2026-04-12T12:10:00.042Z</time></trkpt><trkpt lat="44.4463922" lon="11.2820036"><ele>68.75</ele><time>2026-04-12T12:10:01.042Z</time></trkpt><trkpt lat="44.4465438" lon="11.282042"><ele>68.5</ele><time>2026-04-12T12:10:02.043Z</time></trkpt><trkpt lat="44.4466779" lon="11.2820467"><ele>68.25</ele><time>2026-04-12T12:10:03.042Z</time></trkpt><trkpt lat="44.4468135" lon="11.2820117"><ele>68.0</ele><time>2026-04-12T12:10:04.042Z</time></trkpt><trkpt lat="44.4469408" lon="11.2819276"><ele>68.0</ele><time>2026-04-12T12:10:05.042Z</time></trkpt><trkpt lat="44.4470537" lon="11.2817901"><ele>68.0</ele><time>2026-04-12T12:10:06.042Z</time></trkpt><trkpt lat="44.4471404" lon="11.2816119"><ele>68.0</ele><time>2026-04-12T12:10:07.042Z</time></trkpt><trkpt lat="44.4472013" lon="11.2813938"><ele>68.0</ele><time>2026-04-12T12:10:08.042Z</time></trkpt><trkpt lat="44.4472432" lon="11.2811301"><ele>68.0</ele><time>2026-04-12T12:10:09.043Z</time></trkpt><trkpt lat="44.4472782" lon="11.2808373"><ele>68.0</ele><time>2026-04-12T12:10:10.042Z</time></trkpt><trkpt lat="44.4473132" lon="11.2805439"><ele>68.0</ele><time>2026-04-12T12:10:11.042Z</time></trkpt><trkpt lat="44.4473525" lon="11.2802653"><ele>68.0</ele><time>2026-04-12T12:10:12.042Z</time></trkpt><trkpt lat="44.447387" lon="11.2800077"><ele>68.0</ele><time>2026-04-12T12:10:13.043Z</time></trkpt><trkpt lat="44.4474183" lon="11.2797622"><ele>68.66666666666667</ele><time>2026-04-12T12:10:14.042Z</time></trkpt><trkpt lat="44.4474377" lon="11.2795295"><ele>69.33333333333333</ele><time>2026-04-12T12:10:15.042Z</time></trkpt><trkpt lat="44.4474465" lon="11.2792992"><ele>70.0</ele><time>2026-04-12T12:10:16.042Z</time></trkpt><trkpt lat="44.4474429" lon="11.2790678"><ele>69.33333333333333</ele><time>2026-04-12T12:10:17.042Z</time></trkpt><trkpt lat="44.447432" lon="11.2788359"><ele>68.66666666666667</ele><time>2026-04-12T12:10:18.042Z</time></trkpt><trkpt lat="44.4474101" lon="11.2785988"><ele>68.0</ele><time>2026-04-12T12:10:19.043Z</time></trkpt><trkpt lat="44.44739" lon="11.2783537"><ele>68.0</ele><time>2026-04-12T12:10:20.042Z</time></trkpt><trkpt lat="44.4473745" lon="11.2781123"><ele>68.0</ele><time>2026-04-12T12:10:21.042Z</time></trkpt><trkpt lat="44.4473606" lon="11.2778779"><ele>68.0</ele><time>2026-04-12T12:10:22.042Z</time></trkpt><trkpt lat="44.4473407" lon="11.277655"><ele>68.0</ele><time>2026-04-12T12:10:23.042Z</time></trkpt><trkpt lat="44.4473283" lon="11.2774401"><ele>68.0</ele><time>2026-04-12T12:10:24.042Z</time></trkpt><trkpt lat="44.4473157" lon="11.2772344"><ele>68.0</ele><time>2026-04-12T12:10:25.042Z</time></trkpt><trkpt lat="44.4472996" lon="11.277031"><ele>68.0</ele><time>2026-04-12T12:10:26.042Z</time></trkpt><trkpt lat="44.4472836" lon="11.2768346"><ele>68.0</ele><time>2026-04-12T12:10:27.042Z</time></trkpt><trkpt lat="44.4472686" lon="11.2766356"><ele>68.0</ele><time>2026-04-12T12:10:28.042Z</time></trkpt><trkpt lat="44.4472545" lon="11.2764419"><ele>68.0</ele><time>2026-04-12T12:10:29.042Z</time></trkpt><trkpt lat="44.4472409" lon="11.2762551"><ele>68.0</ele><time>2026-04-12T12:10:30.042Z</time></trkpt><trkpt lat="44.4472301" lon="11.2760826"><ele>68.5</ele><time>2026-04-12T12:10:31.043Z</time></trkpt><trkpt lat="44.4472204" lon="11.2759153"><ele>69.0</ele><time>2026-04-12T12:10:32.043Z</time></trkpt><trkpt lat="44.4472086" lon="11.2757597"><ele>69.5</ele><time>2026-04-12T12:10:33.042Z</time></trkpt><trkpt lat="44.4472008" lon="11.2756006"><ele>70.0</ele><time>2026-04-12T12:10:34.043Z</time></trkpt><trkpt lat="44.4471987" lon="11.2754253"><ele>71.33333333333333</ele><time>2026-04-12T12:10:35.043Z</time></trkpt><trkpt lat="44.4472045" lon="11.2752269"><ele>72.66666666666667</ele><time>2026-04-12T12:10:36.043Z</time></trkpt><trkpt lat="44.4472354" lon="11.2750064"><ele>74.0</ele><time>2026-04-12T12:10:37.042Z</time></trkpt><trkpt lat="44.4472787" lon="11.2747873"><ele>74.33333333333334</ele><time>2026-04-12T12:10:38.042Z</time></trkpt><trkpt lat="44.4473278" lon="11.2745752"><ele>74.66666666666667</ele><time>2026-04-12T12:10:39.042Z</time></trkpt><trkpt lat="44.4473733" lon="11.2743748"><ele>75.0</ele><time>2026-04-12T12:10:40.042Z</time></trkpt><trkpt lat="44.4474024" lon="11.2741763"><ele>75.0</ele><time>2026-04-12T12:10:41.042Z</time></trkpt><trkpt lat="44.4474182" lon="11.2739892"><ele>75.0</ele><time>2026-04-12T12:10:42.042Z</time></trkpt><trkpt lat="44.447423" lon="11.2738105"><ele>75.0</ele><time>2026-04-12T12:10:43.043Z</time></trkpt><trkpt lat="44.4474161" lon="11.273643"><ele>75.0</ele><time>2026-04-12T12:10:44.042Z</time></trkpt><trkpt lat="44.4474082" lon="11.2734744"><ele>75.6</ele><time>2026-04-12T12:10:45.042Z</time></trkpt><trkpt lat="44.4473956" lon="11.2733296"><ele>76.2</ele><time>2026-04-12T12:10:46.042Z</time></trkpt><trkpt lat="44.4473867" lon="11.2731977"><ele>76.8</ele><time>2026-04-12T12:10:47.043Z</time></trkpt><trkpt lat="44.4473831" lon="11.2730857"><ele>77.4</ele><time>2026-04-12T12:10:48.042Z</time></trkpt><trkpt lat="44.4474076" lon="11.2729372"><ele>78.0</ele><time>2026-04-12T12:10:50.042Z</time></trkpt><trkpt lat="44.4474728" lon="11.2727776"><ele>78.4</ele><time>2026-04-12T12:10:52.042Z</time></trkpt><trkpt lat="44.4475246" lon="11.2726596"><ele>78.8</ele><time>2026-04-12T12:10:53.042Z</time></trkpt><trkpt lat="44.4475828" lon="11.2725453"><ele>79.2</ele><time>2026-04-12T12:10:54.042Z</time></trkpt><trkpt lat="44.4476509" lon="11.2724559"><ele>79.6</ele><time>2026-04-12T12:10:55.042Z</time></trkpt><trkpt lat="44.44773" lon="11.2724063"><ele>80.0</ele><time>2026-04-12T12:10:56.042Z</time></trkpt><trkpt lat="44.4478197" lon="11.2723999"><ele>80.0</ele><time>2026-04-12T12:10:57.042Z</time></trkpt><trkpt lat="44.447919" lon="11.2724009"><ele>80.0</ele><time>2026-04-12T12:10:58.042Z</time></trkpt><trkpt lat="44.4480339" lon="11.2724012"><ele>80.0</ele><time>2026-04-12T12:10:59.042Z</time></trkpt><trkpt lat="44.4481576" lon="11.2723972"><ele>80.0</ele><time>2026-04-12T12:11:00.042Z</time></trkpt><trkpt lat="44.4482897" lon="11.272383"><ele>80.5</ele><time>2026-04-12T12:11:01.042Z</time></trkpt><trkpt lat="44.448418" lon="11.2723728"><ele>81.0</ele><time>2026-04-12T12:11:02.042Z</time></trkpt><trkpt lat="44.4485432" lon="11.2723457"><ele>81.5</ele><time>2026-04-12T12:11:03.042Z</time></trkpt><trkpt lat="44.4486655" lon="11.2723198"><ele>82.0</ele><time>2026-04-12T12:11:04.043Z</time></trkpt><trkpt lat="44.4487797" lon="11.2722943"><ele>82.75</ele><time>2026-04-12T12:11:05.042Z</time></trkpt><trkpt lat="44.4488909" lon="11.2722658"><ele>83.5</ele><time>2026-04-12T12:11:06.042Z</time></trkpt><trkpt lat="44.4490014" lon="11.2722357"><ele>84.25</ele><time>2026-04-12T12:11:07.042Z</time></trkpt><trkpt lat="44.4491133" lon="11.2722101"><ele>85.0</ele><time>2026-04-12T12:11:08.043Z</time></trkpt><trkpt lat="44.4492313" lon="11.2721865"><ele>85.0</ele><time>2026-04-12T12:11:09.042Z</time></trkpt><trkpt lat="44.44935" lon="11.2721621"><ele>85.0</ele><time>2026-04-12T12:11:10.042Z</time></trkpt><trkpt lat="44.4494757" lon="11.2721334"><ele>85.0</ele><time>2026-04-12T12:11:11.044Z</time></trkpt><trkpt lat="44.4496031" lon="11.2721028"><ele>85.0</ele><time>2026-04-12T12:11:12.042Z</time></trkpt><trkpt lat="44.4497314" lon="11.2720714"><ele>83.75</ele><time>2026-04-12T12:11:13.042Z</time></trkpt><trkpt lat="44.4498596" lon="11.2720395"><ele>82.5</ele><time>2026-04-12T12:11:14.042Z</time></trkpt><trkpt lat="44.449986" lon="11.2720064"><ele>81.25</ele><time>2026-04-12T12:11:15.042Z</time></trkpt><trkpt lat="44.4501073" lon="11.2719776"><ele>80.0</ele><time>2026-04-12T12:11:16.043Z</time></trkpt><trkpt lat="44.4502199" lon="11.27195"><ele>80.0</ele><time>2026-04-12T12:11:17.043Z</time></trkpt><trkpt lat="44.4503251" lon="11.2719244"><ele>80.0</ele><time>2026-04-12T12:11:18.042Z</time></trkpt><trkpt lat="44.4504319" lon="11.2718992"><ele>80.0</ele><time>2026-04-12T12:11:19.042Z</time></trkpt><trkpt lat="44.4505459" lon="11.2718714"><ele>80.0</ele><time>2026-04-12T12:11:20.042Z</time></trkpt><trkpt lat="44.4506675" lon="11.2718408"><ele>81.0</ele><time>2026-04-12T12:11:21.042Z</time></trkpt><trkpt lat="44.4507944" lon="11.2718091"><ele>82.0</ele><time>2026-04-12T12:11:22.043Z</time></trkpt><trkpt lat="44.4509261" lon="11.2717767"><ele>83.0</ele><time>2026-04-12T12:11:23.043Z</time></trkpt><trkpt lat="44.4510585" lon="11.2717447"><ele>84.0</ele><time>2026-04-12T12:11:24.043Z</time></trkpt><trkpt lat="44.4511901" lon="11.2717132"><ele>85.25</ele><time>2026-04-12T12:11:25.043Z</time></trkpt><trkpt lat="44.4513181" lon="11.271683"><ele>86.5</ele><time>2026-04-12T12:11:26.043Z</time></trkpt><trkpt lat="44.4514426" lon="11.2716525"><ele>87.75</ele><time>2026-04-12T12:11:27.043Z</time></trkpt><trkpt lat="44.4515644" lon="11.2716214"><ele>89.0</ele><time>2026-04-12T12:11:28.043Z</time></trkpt><trkpt lat="44.4516847" lon="11.2715921"><ele>89.0</ele><time>2026-04-12T12:11:29.043Z</time></trkpt><trkpt lat="44.4518058" lon="11.2715656"><ele>89.0</ele><time>2026-04-12T12:11:30.043Z</time></trkpt><trkpt lat="44.4519266" lon="11.2715398"><ele>89.0</ele><time>2026-04-12T12:11:31.043Z</time></trkpt><trkpt lat="44.4520495" lon="11.2715127"><ele>89.0</ele><time>2026-04-12T12:11:32.043Z</time></trkpt><trkpt lat="44.452169" lon="11.2714841"><ele>88.75</ele><time>2026-04-12T12:11:33.043Z</time></trkpt><trkpt lat="44.4522883" lon="11.271456"><ele>88.5</ele><time>2026-04-12T12:11:34.043Z</time></trkpt><trkpt lat="44.4524075" lon="11.2714282"><ele>88.25</ele><time>2026-04-12T12:11:35.043Z</time></trkpt><trkpt lat="44.452526" lon="11.2714"><ele>88.0</ele><time>2026-04-12T12:11:36.043Z</time></trkpt><trkpt lat="44.4526495" lon="11.2713712"><ele>88.0</ele><time>2026-04-12T12:11:37.043Z</time></trkpt><trkpt lat="44.4527757" lon="11.2713424"><ele>88.0</ele><time>2026-04-12T12:11:38.043Z</time></trkpt><trkpt lat="44.4529014" lon="11.2713139"><ele>88.0</ele><time>2026-04-12T12:11:39.043Z</time></trkpt><trkpt lat="44.4530282" lon="11.2712851"><ele>88.0</ele><time>2026-04-12T12:11:40.044Z</time></trkpt><trkpt lat="44.4531578" lon="11.2712553"><ele>88.0</ele><time>2026-04-12T12:11:41.043Z</time></trkpt><trkpt lat="44.4532903" lon="11.2712255"><ele>88.0</ele><time>2026-04-12T12:11:42.043Z</time></trkpt><trkpt lat="44.453422" lon="11.2711968"><ele>88.0</ele><time>2026-04-12T12:11:43.043Z</time></trkpt><trkpt lat="44.4535526" lon="11.2711682"><ele>88.0</ele><time>2026-04-12T12:11:44.043Z</time></trkpt><trkpt lat="44.4536811" lon="11.2711373"><ele>88.25</ele><time>2026-04-12T12:11:45.043Z</time></trkpt><trkpt lat="44.4538082" lon="11.2711081"><ele>88.5</ele><time>2026-04-12T12:11:46.044Z</time></trkpt><trkpt lat="44.4539339" lon="11.2710786"><ele>88.75</ele><time>2026-04-12T12:11:47.044Z</time></trkpt><trkpt lat="44.4540579" lon="11.2710469"><ele>89.0</ele><time>2026-04-12T12:11:48.043Z</time></trkpt><trkpt lat="44.4541763" lon="11.2710084"><ele>89.0</ele><time>2026-04-12T12:11:49.043Z</time></trkpt><trkpt lat="44.4542911" lon="11.2709629"><ele>89.0</ele><time>2026-04-12T12:11:50.043Z</time></trkpt><trkpt lat="44.4544022" lon="11.2709089"><ele>89.0</ele><time>2026-04-12T12:11:51.044Z</time></trkpt><trkpt lat="44.4545104" lon="11.270848"><ele>89.0</ele><time>2026-04-12T12:11:52.043Z</time></trkpt><trkpt lat="44.4546162" lon="11.2707797"><ele>89.5</ele><time>2026-04-12T12:11:53.043Z</time></trkpt><trkpt lat="44.45472" lon="11.2707023"><ele>90.0</ele><time>2026-04-12T12:11:54.043Z</time></trkpt><trkpt lat="44.4548254" lon="11.2706165"><ele>90.5</ele><time>2026-04-12T12:11:55.043Z</time></trkpt><trkpt lat="44.4549313" lon="11.2705248"><ele>91.0</ele><time>2026-04-12T12:11:56.043Z</time></trkpt><trkpt lat="44.4550384" lon="11.2704293"><ele>91.0</ele><time>2026-04-12T12:11:57.043Z</time></trkpt><trkpt lat="44.4551477" lon="11.270333"><ele>91.0</ele><time>2026-04-12T12:11:58.043Z</time></trkpt><trkpt lat="44.455257" lon="11.2702367"><ele>91.0</ele><time>2026-04-12T12:11:59.044Z</time></trkpt><trkpt lat="44.4553658" lon="11.2701406"><ele>91.0</ele><time>2026-04-12T12:12:00.043Z</time></trkpt><trkpt lat="44.4554776" lon="11.2700449"><ele>91.25</ele><time>2026-04-12T12:12:01.043Z</time></trkpt><trkpt lat="44.455601" lon="11.2699507"><ele>91.5</ele><time>2026-04-12T12:12:02.043Z</time></trkpt><trkpt lat="44.4557393" lon="11.2698682"><ele>91.75</ele><time>2026-04-12T12:12:03.043Z</time></trkpt><trkpt lat="44.4558823" lon="11.2698027"><ele>92.0</ele><time>2026-04-12T12:12:04.043Z</time></trkpt><trkpt lat="44.4560213" lon="11.2697513"><ele>92.25</ele><time>2026-04-12T12:12:05.043Z</time></trkpt><trkpt lat="44.4561529" lon="11.2697083"><ele>92.5</ele><time>2026-04-12T12:12:06.044Z</time></trkpt><trkpt lat="44.4562766" lon="11.2696703"><ele>92.75</ele><time>2026-04-12T12:12:07.044Z</time></trkpt><trkpt lat="44.4563924" lon="11.2696334"><ele>93.0</ele><time>2026-04-12T12:12:08.043Z</time></trkpt><trkpt lat="44.4564981" lon="11.2695966"><ele>92.66666666666667</ele><time>2026-04-12T12:12:09.043Z</time></trkpt><trkpt lat="44.4565936" lon="11.2695619"><ele>92.33333333333333</ele><time>2026-04-12T12:12:10.043Z</time></trkpt><trkpt lat="44.4566793" lon="11.269533"><ele>92.0</ele><time>2026-04-12T12:12:11.043Z</time></trkpt><trkpt lat="44.4567525" lon="11.2695123"><ele>91.66666666666666</ele><time>2026-04-12T12:12:12.043Z</time></trkpt><trkpt lat="44.4568194" lon="11.2695038"><ele>91.33333333333333</ele><time>2026-04-12T12:12:13.043Z</time></trkpt><trkpt lat="44.4568851" lon="11.2695158"><ele>91.0</ele><time>2026-04-12T12:12:14.043Z</time></trkpt><trkpt lat="44.4569579" lon="11.2695386"><ele>91.0</ele><time>2026-04-12T12:12:15.043Z</time></trkpt><trkpt lat="44.45704" lon="11.2695377"><ele>91.0</ele><time>2026-04-12T12:12:16.043Z</time></trkpt><trkpt lat="44.4571214" lon="11.2695031"><ele>91.0</ele><time>2026-04-12T12:12:17.043Z</time></trkpt><trkpt lat="44.4571938" lon="11.2694508"><ele>91.0</ele><time>2026-04-12T12:12:18.043Z</time></trkpt><trkpt lat="44.4572844" lon="11.2693919"><ele>91.0</ele><time>2026-04-12T12:12:19.043Z</time></trkpt><trkpt lat="44.4573892" lon="11.2693333"><ele>90.33333333333333</ele><time>2026-04-12T12:12:20.043Z</time></trkpt><trkpt lat="44.4575387" lon="11.2692901"><ele>89.66666666666667</ele><time>2026-04-12T12:12:21.044Z</time></trkpt><trkpt lat="44.4576908" lon="11.2692524"><ele>89.0</ele><time>2026-04-12T12:12:22.043Z</time></trkpt><trkpt lat="44.4578412" lon="11.2692134"><ele>88.5</ele><time>2026-04-12T12:12:23.044Z</time></trkpt><trkpt lat="44.4579925" lon="11.2691751"><ele>88.0</ele><time>2026-04-12T12:12:24.043Z</time></trkpt><trkpt lat="44.4581424" lon="11.2691444"><ele>87.5</ele><time>2026-04-12T12:12:25.044Z</time></trkpt><trkpt lat="44.4582844" lon="11.2691262"><ele>87.0</ele><time>2026-04-12T12:12:26.043Z</time></trkpt><trkpt lat="44.4584181" lon="11.2691172"><ele>87.0</ele><time>2026-04-12T12:12:27.043Z</time></trkpt><trkpt lat="44.4585501" lon="11.2691101"><ele>87.0</ele><time>2026-04-12T12:12:28.044Z</time></trkpt><trkpt lat="44.4586779" lon="11.2691048"><ele>87.0</ele><time>2026-04-12T12:12:29.044Z</time></trkpt><trkpt lat="44.4588059" lon="11.2691016"><ele>87.0</ele><time>2026-04-12T12:12:30.043Z</time></trkpt><trkpt lat="44.458933" lon="11.269104"><ele>87.25</ele><time>2026-04-12T12:12:31.044Z</time></trkpt><trkpt lat="44.4590595" lon="11.2691157"><ele>87.5</ele><time>2026-04-12T12:12:32.043Z</time></trkpt><trkpt lat="44.4591851" lon="11.2691439"><ele>87.75</ele><time>2026-04-12T12:12:33.044Z</time></trkpt><trkpt lat="44.4593068" lon="11.2691858"><ele>88.0</ele><time>2026-04-12T12:12:34.043Z</time></trkpt><trkpt lat="44.4594277" lon="11.269234"><ele>88.0</ele><time>2026-04-12T12:12:35.043Z</time></trkpt><trkpt lat="44.4595484" lon="11.2692856"><ele>88.0</ele><time>2026-04-12T12:12:36.043Z</time></trkpt><trkpt lat="44.4596714" lon="11.269339"><ele>88.0</ele><time>2026-04-12T12:12:37.043Z</time></trkpt><trkpt lat="44.4597977" lon="11.2693947"><ele>88.0</ele><time>2026-04-12T12:12:38.044Z</time></trkpt><trkpt lat="44.4599205" lon="11.2694635"><ele>87.75</ele><time>2026-04-12T12:12:39.043Z</time></trkpt><trkpt lat="44.4600343" lon="11.2695519"><ele>87.5</ele><time>2026-04-12T12:12:40.043Z</time></trkpt><trkpt lat="44.4601413" lon="11.269664"><ele>87.25</ele><time>2026-04-12T12:12:41.044Z</time></trkpt><trkpt lat="44.4602445" lon="11.2697874"><ele>87.0</ele><time>2026-04-12T12:12:42.043Z</time></trkpt><trkpt lat="44.4603291" lon="11.2699375"><ele>87.0</ele><time>2026-04-12T12:12:43.044Z</time></trkpt><trkpt lat="44.4604044" lon="11.2700892"><ele>87.0</ele><time>2026-04-12T12:12:44.043Z</time></trkpt><trkpt lat="44.4604828" lon="11.2702273"><ele>87.0</ele><time>2026-04-12T12:12:45.043Z</time></trkpt><trkpt lat="44.4605636" lon="11.2703474"><ele>87.0</ele><time>2026-04-12T12:12:46.044Z</time></trkpt><trkpt lat="44.4606431" lon="11.2704422"><ele>86.39999999999999</ele><time>2026-04-12T12:12:47.044Z</time></trkpt><trkpt lat="44.4607191" lon="11.2705137"><ele>85.8</ele><time>2026-04-12T12:12:48.044Z</time></trkpt><trkpt lat="44.4607828" lon="11.270571"><ele>85.2</ele><time>2026-04-12T12:12:49.044Z</time></trkpt><trkpt lat="44.4608798" lon="11.2706816"><ele>84.6</ele><time>2026-04-12T12:12:51.045Z</time></trkpt><trkpt lat="44.4609362" lon="11.2707542"><ele>84.0</ele><time>2026-04-12T12:12:52.044Z</time></trkpt><trkpt lat="44.4610135" lon="11.2708056"><ele>84.0</ele><time>2026-04-12T12:12:53.045Z</time></trkpt><trkpt lat="44.461115" lon="11.2708311"><ele>84.0</ele><time>2026-04-12T12:12:54.044Z</time></trkpt><trkpt lat="44.4612231" lon="11.2708484"><ele>84.0</ele><time>2026-04-12T12:12:55.044Z</time></trkpt><trkpt lat="44.4613484" lon="11.2708551"><ele>84.0</ele><time>2026-04-12T12:12:56.044Z</time></trkpt><trkpt lat="44.4614802" lon="11.2708641"><ele>83.5</ele><time>2026-04-12T12:12:57.044Z</time></trkpt><trkpt lat="44.4616152" lon="11.2708724"><ele>83.0</ele><time>2026-04-12T12:12:58.045Z</time></trkpt><trkpt lat="44.461751" lon="11.2708774"><ele>82.5</ele><time>2026-04-12T12:12:59.044Z</time></trkpt><trkpt lat="44.4618924" lon="11.2708753"><ele>82.0</ele><time>2026-04-12T12:13:00.045Z</time></trkpt><trkpt lat="44.4620333" lon="11.2708663"><ele>82.25</ele><time>2026-04-12T12:13:01.044Z</time></trkpt><trkpt lat="44.4621757" lon="11.2708469"><ele>82.5</ele><time>2026-04-12T12:13:02.045Z</time></trkpt><trkpt lat="44.4623183" lon="11.2708101"><ele>82.75</ele><time>2026-04-12T12:13:03.044Z</time></trkpt><trkpt lat="44.4624586" lon="11.2707574"><ele>83.0</ele><time>2026-04-12T12:13:04.044Z</time></trkpt><trkpt lat="44.4625935" lon="11.2706827"><ele>83.0</ele><time>2026-04-12T12:13:05.044Z</time></trkpt><trkpt lat="44.4627184" lon="11.2705867"><ele>83.0</ele><time>2026-04-12T12:13:06.044Z</time></trkpt><trkpt lat="44.4628343" lon="11.2704753"><ele>83.0</ele><time>2026-04-12T12:13:07.044Z</time></trkpt><trkpt lat="44.4629409" lon="11.2703485"><ele>83.0</ele><time>2026-04-12T12:13:08.044Z</time></trkpt><trkpt lat="44.4630393" lon="11.2702054"><ele>83.25</ele><time>2026-04-12T12:13:09.044Z</time></trkpt><trkpt lat="44.4631337" lon="11.2700486"><ele>83.5</ele><time>2026-04-12T12:13:10.044Z</time></trkpt><trkpt lat="44.4632299" lon="11.2698908"><ele>83.75</ele><time>2026-04-12T12:13:11.044Z</time></trkpt><trkpt lat="44.4633275" lon="11.2697324"><ele>84.0</ele><time>2026-04-12T12:13:12.044Z</time></trkpt><trkpt lat="44.4634252" lon="11.2695737"><ele>84.0</ele><time>2026-04-12T12:13:13.044Z</time></trkpt><trkpt lat="44.4635237" lon="11.2694144"><ele>84.0</ele><time>2026-04-12T12:13:14.045Z</time></trkpt><trkpt lat="44.463622" lon="11.2692553"><ele>84.0</ele><time>2026-04-12T12:13:15.044Z</time></trkpt><trkpt lat="44.46372" lon="11.2691027"><ele>84.0</ele><time>2026-04-12T12:13:16.044Z</time></trkpt><trkpt lat="44.4638253" lon="11.2689689"><ele>85.25</ele><time>2026-04-12T12:13:17.044Z</time></trkpt><trkpt lat="44.4639397" lon="11.2688603"><ele>86.5</ele><time>2026-04-12T12:13:18.045Z</time></trkpt><trkpt lat="44.4640604" lon="11.2687742"><ele>87.75</ele><time>2026-04-12T12:13:19.044Z</time></trkpt><trkpt lat="44.4641873" lon="11.2687133"><ele>89.0</ele><time>2026-04-12T12:13:20.044Z</time></trkpt><trkpt lat="44.4643198" lon="11.2686818"><ele>89.0</ele><time>2026-04-12T12:13:21.044Z</time></trkpt><trkpt lat="44.4644472" lon="11.2686727"><ele>89.0</ele><time>2026-04-12T12:13:22.044Z</time></trkpt><trkpt lat="44.4645633" lon="11.2686817"><ele>89.0</ele><time>2026-04-12T12:13:23.044Z</time></trkpt><trkpt lat="44.4646672" lon="11.2687036"><ele>89.0</ele><time>2026-04-12T12:13:24.045Z</time></trkpt><trkpt lat="44.4647584" lon="11.2687374"><ele>89.0</ele><time>2026-04-12T12:13:25.045Z</time></trkpt><trkpt lat="44.464836" lon="11.268782"><ele>88.66666666666667</ele><time>2026-04-12T12:13:26.044Z</time></trkpt><trkpt lat="44.4649016" lon="11.2688394"><ele>88.33333333333334</ele><time>2026-04-12T12:13:27.045Z</time></trkpt><trkpt lat="44.464956" lon="11.2689113"><ele>88.0</ele><time>2026-04-12T12:13:28.044Z</time></trkpt><trkpt lat="44.4650079" lon="11.2689869"><ele>87.66666666666667</ele><time>2026-04-12T12:13:29.044Z</time></trkpt><trkpt lat="44.465072" lon="11.2690425"><ele>87.33333333333333</ele><time>2026-04-12T12:13:30.044Z</time></trkpt><trkpt lat="44.4651453" lon="11.2690586"><ele>87.0</ele><time>2026-04-12T12:13:31.044Z</time></trkpt><trkpt lat="44.4652223" lon="11.2690463"><ele>87.0</ele><time>2026-04-12T12:13:32.044Z</time></trkpt><trkpt lat="44.4653037" lon="11.2690385"><ele>87.0</ele><time>2026-04-12T12:13:33.044Z</time></trkpt><trkpt lat="44.4653897" lon="11.2690591"><ele>87.0</ele><time>2026-04-12T12:13:34.045Z</time></trkpt><trkpt lat="44.46548" lon="11.2691018"><ele>87.0</ele><time>2026-04-12T12:13:35.044Z</time></trkpt><trkpt lat="44.4655758" lon="11.2691545"><ele>87.0</ele><time>2026-04-12T12:13:36.044Z</time></trkpt><trkpt lat="44.46568" lon="11.2692149"><ele>87.0</ele><time>2026-04-12T12:13:37.044Z</time></trkpt><trkpt lat="44.4657872" lon="11.2692758"><ele>87.0</ele><time>2026-04-12T12:13:38.044Z</time></trkpt><trkpt lat="44.4658979" lon="11.2693386"><ele>87.0</ele><time>2026-04-12T12:13:39.044Z</time></trkpt><trkpt lat="44.4660118" lon="11.269402"><ele>87.0</ele><time>2026-04-12T12:13:40.044Z</time></trkpt><trkpt lat="44.4661271" lon="11.2694674"><ele>87.0</ele><time>2026-04-12T12:13:41.044Z</time></trkpt><trkpt lat="44.4662385" lon="11.2695305"><ele>87.0</ele><time>2026-04-12T12:13:42.045Z</time></trkpt><trkpt lat="44.4663462" lon="11.269592"><ele>87.0</ele><time>2026-04-12T12:13:43.045Z</time></trkpt><trkpt lat="44.4664428" lon="11.2696474"><ele>87.0</ele><time>2026-04-12T12:13:44.045Z</time></trkpt><trkpt lat="44.4665338" lon="11.2697019"><ele>87.0</ele><time>2026-04-12T12:13:45.044Z</time></trkpt><trkpt lat="44.4666257" lon="11.2697549"><ele>87.0</ele><time>2026-04-12T12:13:46.044Z</time></trkpt><trkpt lat="44.4667203" lon="11.2698075"><ele>87.0</ele><time>2026-04-12T12:13:47.045Z</time></trkpt><trkpt lat="44.466822" lon="11.2698621"><ele>87.0</ele><time>2026-04-12T12:13:48.044Z</time></trkpt><trkpt lat="44.4669253" lon="11.2699195"><ele>87.0</ele><time>2026-04-12T12:13:49.044Z</time></trkpt><trkpt lat="44.4670332" lon="11.2699793"><ele>87.0</ele><time>2026-04-12T12:13:50.044Z</time></trkpt><trkpt lat="44.4671471" lon="11.2700416"><ele>87.25</ele><time>2026-04-12T12:13:51.044Z</time></trkpt><trkpt lat="44.4672655" lon="11.2701064"><ele>87.5</ele><time>2026-04-12T12:13:52.044Z</time></trkpt><trkpt lat="44.4673876" lon="11.2701748"><ele>87.75</ele><time>2026-04-12T12:13:53.044Z</time></trkpt><trkpt lat="44.467512" lon="11.2702447"><ele>88.0</ele><time>2026-04-12T12:13:54.044Z</time></trkpt><trkpt lat="44.4676339" lon="11.2703147"><ele>88.0</ele><time>2026-04-12T12:13:55.045Z</time></trkpt><trkpt lat="44.4677497" lon="11.2703805"><ele>88.0</ele><time>2026-04-12T12:13:56.044Z</time></trkpt><trkpt lat="44.4678567" lon="11.2704427"><ele>88.0</ele><time>2026-04-12T12:13:57.044Z</time></trkpt><trkpt lat="44.467958" lon="11.2705036"><ele>88.0</ele><time>2026-04-12T12:13:58.044Z</time></trkpt><trkpt lat="44.4680584" lon="11.2705579"><ele>86.80000000000001</ele><time>2026-04-12T12:13:59.044Z</time></trkpt><trkpt lat="44.4681528" lon="11.2706106"><ele>85.6</ele><time>2026-04-12T12:14:00.044Z</time></trkpt><trkpt lat="44.4682406" lon="11.2706585"><ele>84.4</ele><time>2026-04-12T12:14:01.044Z</time></trkpt><trkpt lat="44.468325" lon="11.2707044"><ele>83.19999999999999</ele><time>2026-04-12T12:14:02.044Z</time></trkpt><trkpt lat="44.4684076" lon="11.2707525"><ele>82.0</ele><time>2026-04-12T12:14:03.044Z</time></trkpt><trkpt lat="44.4684933" lon="11.2707971"><ele>82.0</ele><time>2026-04-12T12:14:04.044Z</time></trkpt><trkpt lat="44.4685808" lon="11.2708454"><ele>82.0</ele><time>2026-04-12T12:14:05.044Z</time></trkpt><trkpt lat="44.4686757" lon="11.2708979"><ele>82.0</ele><time>2026-04-12T12:14:06.044Z</time></trkpt><trkpt lat="44.4687789" lon="11.2709522"><ele>82.0</ele><time>2026-04-12T12:14:07.044Z</time></trkpt><trkpt lat="44.4688877" lon="11.2710107"><ele>82.0</ele><time>2026-04-12T12:14:08.044Z</time></trkpt><trkpt lat="44.4690013" lon="11.2710729"><ele>81.25</ele><time>2026-04-12T12:14:09.045Z</time></trkpt><trkpt lat="44.4691141" lon="11.271137"><ele>80.5</ele><time>2026-04-12T12:14:10.046Z</time></trkpt><trkpt lat="44.4692199" lon="11.2711967"><ele>79.75</ele><time>2026-04-12T12:14:11.045Z</time></trkpt><trkpt lat="44.4693216" lon="11.2712545"><ele>79.0</ele><time>2026-04-12T12:14:12.045Z</time></trkpt><trkpt lat="44.4694215" lon="11.2713135"><ele>79.0</ele><time>2026-04-12T12:14:13.045Z</time></trkpt><trkpt lat="44.4695219" lon="11.2713695"><ele>79.0</ele><time>2026-04-12T12:14:14.045Z</time></trkpt><trkpt lat="44.4696166" lon="11.2714213"><ele>79.0</ele><time>2026-04-12T12:14:15.045Z</time></trkpt><trkpt lat="44.4697045" lon="11.2714703"><ele>79.0</ele><time>2026-04-12T12:14:16.045Z</time></trkpt><trkpt lat="44.4697889" lon="11.2715175"><ele>79.0</ele><time>2026-04-12T12:14:17.045Z</time></trkpt><trkpt lat="44.4698725" lon="11.2715653"><ele>79.16666666666666</ele><time>2026-04-12T12:14:18.045Z</time></trkpt><trkpt lat="44.4699564" lon="11.2716165"><ele>79.33333333333333</ele><time>2026-04-12T12:14:19.046Z</time></trkpt><trkpt lat="44.470041" lon="11.271672"><ele>79.5</ele><time>2026-04-12T12:14:20.046Z</time></trkpt><trkpt lat="44.4701215" lon="11.2717268"><ele>79.66666666666667</ele><time>2026-04-12T12:14:21.045Z</time></trkpt><trkpt lat="44.4701945" lon="11.2717776"><ele>79.83333333333334</ele><time>2026-04-12T12:14:22.045Z</time></trkpt><trkpt lat="44.4702604" lon="11.2718236"><ele>80.0</ele><time>2026-04-12T12:14:23.045Z</time></trkpt><trkpt lat="44.4703203" lon="11.2718697"><ele>80.0</ele><time>2026-04-12T12:14:24.045Z</time></trkpt><trkpt lat="44.4704182" lon="11.271978"><ele>80.0</ele><time>2026-04-12T12:14:26.046Z</time></trkpt><trkpt lat="44.4704604" lon="11.272045"><ele>80.0</ele><time>2026-04-12T12:14:27.046Z</time></trkpt><trkpt lat="44.4705437" lon="11.2721537"><ele>80.0</ele><time>2026-04-12T12:14:29.045Z</time></trkpt><trkpt lat="44.4706556" lon="11.2721635"><ele>80.0</ele><time>2026-04-12T12:14:31.045Z</time></trkpt><trkpt lat="44.4707636" lon="11.2720756"><ele>80.0</ele><time>2026-04-12T12:14:33.046Z</time></trkpt><trkpt lat="44.4708222" lon="11.2720351"><ele>80.0</ele><time>2026-04-12T12:14:34.045Z</time></trkpt><trkpt lat="44.4709462" lon="11.271987"><ele>80.0</ele><time>2026-04-12T12:14:36.046Z</time></trkpt><trkpt lat="44.4710105" lon="11.2719759"><ele>80.0</ele><time>2026-04-12T12:14:37.045Z</time></trkpt><trkpt lat="44.4712743" lon="11.2720609"><ele>83.0</ele><time>2026-04-12T12:14:41.045Z</time></trkpt><trkpt lat="44.4713528" lon="11.2720861"><ele>83.0</ele><time>2026-04-12T12:14:42.045Z</time></trkpt><trkpt lat="44.4714494" lon="11.2721171"><ele>83.0</ele><time>2026-04-12T12:14:43.046Z</time></trkpt><trkpt lat="44.4715195" lon="11.2721527"><ele>83.0</ele><time>2026-04-12T12:14:44.045Z</time></trkpt><trkpt lat="44.4716265" lon="11.2722253"><ele>83.0</ele><time>2026-04-12T12:14:46.046Z</time></trkpt><trkpt lat="44.4716993" lon="11.2722561"><ele>83.0</ele><time>2026-04-12T12:14:48.045Z</time></trkpt></trkseg></trk></gpx>